<?xml version="1.0" encoding="UTF-8" standalone="no" ?>
<gpx xmlns="http://www.topografix.com/GPX/1/1" xmlns:xsi="http://www.w3.org/2001/XMLSchema-instance" xsi:schemaLocation="http://www.topografix.com/GPX/1/1 http://www.topografix.com/GPX/1/1/gpx.xsd" version="1.1" creator="VisuGPX - https://www.visugpx.com">
  <metadata>
    <name>Cuxade d'Aude - Fontsérane (Béziers)</name>
    <desc><![CDATA[Voici en bleu le trajet que nous avions fait alors que nous avions fait lors de l'étape Montpellier - Sallèle d'Aude et qui était très agréable. Il passe par le marais, proche de l'Oppidum d'Ensérune (que nous n'avions pas le temps de visiter). Il longe en partie le canal du midi sur des sections roulantes.
Pour le trajet vert, il permet de rejoindre Narbonne par le littoral. Il y a une partie très jolie entre Valras-Plage et St Pierre la Mer.]]></desc>
  </metadata>
  <trk>
    <name><![CDATA[Sallèle (Cuxade) d'Aude - Fontsérane (Béziers)]]></name>
    <extensions>
      <line xmlns="http://www.topografix.com/GPX/gpx_style/0/2">
        <color>0000FF</color>
        <width>4</width>
      </line>
    </extensions>
    <trkseg>
      <trkpt lat="43.24647" lon="2.95564">
        <ele>49.2</ele>
        <time>2020-06-26T17:34:56Z</time>
      </trkpt>
      <trkpt lat="43.24647" lon="2.95564">
        <ele>49.2</ele>
        <time>2020-06-26T17:34:56Z</time>
      </trkpt>
      <trkpt lat="43.24646" lon="2.95564">
        <ele>47.4</ele>
        <time>2020-06-26T17:34:55Z</time>
      </trkpt>
      <trkpt lat="43.24647" lon="2.95565">
        <ele>47.4</ele>
        <time>2020-06-26T17:34:54Z</time>
      </trkpt>
      <trkpt lat="43.24648" lon="2.95565">
        <ele>48.4</ele>
        <time>2020-06-26T17:34:53Z</time>
      </trkpt>
      <trkpt lat="43.24648" lon="2.95564">
        <ele>48</ele>
        <time>2020-06-26T17:34:52Z</time>
      </trkpt>
      <trkpt lat="43.24649" lon="2.95564">
        <ele>47.6</ele>
        <time>2020-06-26T17:34:51Z</time>
      </trkpt>
      <trkpt lat="43.24648" lon="2.95563">
        <ele>47.8</ele>
        <time>2020-06-26T17:34:50Z</time>
      </trkpt>
      <trkpt lat="43.2465" lon="2.95558">
        <ele>47.2</ele>
        <time>2020-06-26T17:34:04Z</time>
      </trkpt>
      <trkpt lat="43.2465" lon="2.95559">
        <ele>47.2</ele>
        <time>2020-06-26T17:34:03Z</time>
      </trkpt>
      <trkpt lat="43.24651" lon="2.9556">
        <ele>47.2</ele>
        <time>2020-06-26T17:34:02Z</time>
      </trkpt>
      <trkpt lat="43.24651" lon="2.9556">
        <ele>47.2</ele>
        <time>2020-06-26T17:34:01Z</time>
      </trkpt>
      <trkpt lat="43.24651" lon="2.95561">
        <ele>47.2</ele>
        <time>2020-06-26T17:34:00Z</time>
      </trkpt>
      <trkpt lat="43.24652" lon="2.95561">
        <ele>47.2</ele>
        <time>2020-06-26T17:33:59Z</time>
      </trkpt>
      <trkpt lat="43.24652" lon="2.95561">
        <ele>47.2</ele>
        <time>2020-06-26T17:33:58Z</time>
      </trkpt>
      <trkpt lat="43.24653" lon="2.95562">
        <ele>47.2</ele>
        <time>2020-06-26T17:33:57Z</time>
      </trkpt>
      <trkpt lat="43.24653" lon="2.95562">
        <ele>47.2</ele>
        <time>2020-06-26T17:33:56Z</time>
      </trkpt>
      <trkpt lat="43.24652" lon="2.95562">
        <ele>47.2</ele>
        <time>2020-06-26T17:33:55Z</time>
      </trkpt>
      <trkpt lat="43.24652" lon="2.95563">
        <ele>47.2</ele>
        <time>2020-06-26T17:33:54Z</time>
      </trkpt>
      <trkpt lat="43.24652" lon="2.95564">
        <ele>47.2</ele>
        <time>2020-06-26T17:33:53Z</time>
      </trkpt>
      <trkpt lat="43.24652" lon="2.95566">
        <ele>47.2</ele>
        <time>2020-06-26T17:33:52Z</time>
      </trkpt>
      <trkpt lat="43.24654" lon="2.95568">
        <ele>47.2</ele>
        <time>2020-06-26T17:33:51Z</time>
      </trkpt>
      <trkpt lat="43.24654" lon="2.9557">
        <ele>47.4</ele>
        <time>2020-06-26T17:33:50Z</time>
      </trkpt>
      <trkpt lat="43.24654" lon="2.9557">
        <ele>47.4</ele>
        <time>2020-06-26T17:33:49Z</time>
      </trkpt>
      <trkpt lat="43.24656" lon="2.95571">
        <ele>47.4</ele>
        <time>2020-06-26T17:33:48Z</time>
      </trkpt>
      <trkpt lat="43.24656" lon="2.95574">
        <ele>47.4</ele>
        <time>2020-06-26T17:33:47Z</time>
      </trkpt>
      <trkpt lat="43.24659" lon="2.95576">
        <ele>47.6</ele>
        <time>2020-06-26T17:33:46Z</time>
      </trkpt>
      <trkpt lat="43.2466" lon="2.95578">
        <ele>47.6</ele>
        <time>2020-06-26T17:33:45Z</time>
      </trkpt>
      <trkpt lat="43.24661" lon="2.95579">
        <ele>47.6</ele>
        <time>2020-06-26T17:33:44Z</time>
      </trkpt>
      <trkpt lat="43.24661" lon="2.95579">
        <ele>47.6</ele>
        <time>2020-06-26T17:33:43Z</time>
      </trkpt>
      <trkpt lat="43.24662" lon="2.95582">
        <ele>47.6</ele>
        <time>2020-06-26T17:33:42Z</time>
      </trkpt>
      <trkpt lat="43.24663" lon="2.95586">
        <ele>47.6</ele>
        <time>2020-06-26T17:33:41Z</time>
      </trkpt>
      <trkpt lat="43.24664" lon="2.9559">
        <ele>47.6</ele>
        <time>2020-06-26T17:33:40Z</time>
      </trkpt>
      <trkpt lat="43.24664" lon="2.9559">
        <ele>47.8</ele>
        <time>2020-06-26T17:33:39Z</time>
      </trkpt>
      <trkpt lat="43.24665" lon="2.95593">
        <ele>48.2</ele>
        <time>2020-06-26T17:33:38Z</time>
      </trkpt>
      <trkpt lat="43.24665" lon="2.95593">
        <ele>48.2</ele>
        <time>2020-06-26T17:33:37Z</time>
      </trkpt>
      <trkpt lat="43.24668" lon="2.95595">
        <ele>48.2</ele>
        <time>2020-06-26T17:33:36Z</time>
      </trkpt>
      <trkpt lat="43.2467" lon="2.95596">
        <ele>48.2</ele>
        <time>2020-06-26T17:33:35Z</time>
      </trkpt>
      <trkpt lat="43.24671" lon="2.95596">
        <ele>48.2</ele>
        <time>2020-06-26T17:33:34Z</time>
      </trkpt>
      <trkpt lat="43.24672" lon="2.95595">
        <ele>48.2</ele>
        <time>2020-06-26T17:33:33Z</time>
      </trkpt>
      <trkpt lat="43.24674" lon="2.95593">
        <ele>48.2</ele>
        <time>2020-06-26T17:33:32Z</time>
      </trkpt>
      <trkpt lat="43.24674" lon="2.95593">
        <ele>48.2</ele>
        <time>2020-06-26T17:33:31Z</time>
      </trkpt>
      <trkpt lat="43.24677" lon="2.95593">
        <ele>48.2</ele>
        <time>2020-06-26T17:33:30Z</time>
      </trkpt>
      <trkpt lat="43.24681" lon="2.9559">
        <ele>48.2</ele>
        <time>2020-06-26T17:33:29Z</time>
      </trkpt>
      <trkpt lat="43.24683" lon="2.95589">
        <ele>48.2</ele>
        <time>2020-06-26T17:33:28Z</time>
      </trkpt>
      <trkpt lat="43.24684" lon="2.95588">
        <ele>48.2</ele>
        <time>2020-06-26T17:33:27Z</time>
      </trkpt>
      <trkpt lat="43.24686" lon="2.95587">
        <ele>48.2</ele>
        <time>2020-06-26T17:33:26Z</time>
      </trkpt>
      <trkpt lat="43.24688" lon="2.95586">
        <ele>48.2</ele>
        <time>2020-06-26T17:33:25Z</time>
      </trkpt>
      <trkpt lat="43.24688" lon="2.95586">
        <ele>48.2</ele>
        <time>2020-06-26T17:33:24Z</time>
      </trkpt>
      <trkpt lat="43.24689" lon="2.95585">
        <ele>48.2</ele>
        <time>2020-06-26T17:33:23Z</time>
      </trkpt>
      <trkpt lat="43.24692" lon="2.95586">
        <ele>48.2</ele>
        <time>2020-06-26T17:33:22Z</time>
      </trkpt>
      <trkpt lat="43.24692" lon="2.95586">
        <ele>48.2</ele>
        <time>2020-06-26T17:33:21Z</time>
      </trkpt>
      <trkpt lat="43.24696" lon="2.95588">
        <ele>48.2</ele>
        <time>2020-06-26T17:33:20Z</time>
      </trkpt>
      <trkpt lat="43.24697" lon="2.95588">
        <ele>48.2</ele>
        <time>2020-06-26T17:33:19Z</time>
      </trkpt>
      <trkpt lat="43.24698" lon="2.95588">
        <ele>48.2</ele>
        <time>2020-06-26T17:33:18Z</time>
      </trkpt>
      <trkpt lat="43.24701" lon="2.95586">
        <ele>48.2</ele>
        <time>2020-06-26T17:33:17Z</time>
      </trkpt>
      <trkpt lat="43.24703" lon="2.95585">
        <ele>48.2</ele>
        <time>2020-06-26T17:33:16Z</time>
      </trkpt>
      <trkpt lat="43.24703" lon="2.95585">
        <ele>48</ele>
        <time>2020-06-26T17:33:15Z</time>
      </trkpt>
      <trkpt lat="43.24706" lon="2.95584">
        <ele>48.2</ele>
        <time>2020-06-26T17:33:14Z</time>
      </trkpt>
      <trkpt lat="43.24709" lon="2.95584">
        <ele>48.2</ele>
        <time>2020-06-26T17:33:13Z</time>
      </trkpt>
      <trkpt lat="43.24709" lon="2.95584">
        <ele>48.2</ele>
        <time>2020-06-26T17:33:12Z</time>
      </trkpt>
      <trkpt lat="43.24712" lon="2.95584">
        <ele>48.2</ele>
        <time>2020-06-26T17:33:11Z</time>
      </trkpt>
      <trkpt lat="43.24712" lon="2.95584">
        <ele>48.2</ele>
        <time>2020-06-26T17:33:10Z</time>
      </trkpt>
      <trkpt lat="43.24712" lon="2.95583">
        <ele>48.2</ele>
        <time>2020-06-26T17:33:09Z</time>
      </trkpt>
      <trkpt lat="43.24714" lon="2.9558">
        <ele>48.2</ele>
        <time>2020-06-26T17:33:08Z</time>
      </trkpt>
      <trkpt lat="43.24717" lon="2.95577">
        <ele>48.4</ele>
        <time>2020-06-26T17:33:07Z</time>
      </trkpt>
      <trkpt lat="43.2472" lon="2.95576">
        <ele>48.4</ele>
        <time>2020-06-26T17:33:06Z</time>
      </trkpt>
      <trkpt lat="43.2472" lon="2.95576">
        <ele>48.6</ele>
        <time>2020-06-26T17:33:05Z</time>
      </trkpt>
      <trkpt lat="43.24722" lon="2.95575">
        <ele>48.4</ele>
        <time>2020-06-26T17:33:04Z</time>
      </trkpt>
      <trkpt lat="43.24727" lon="2.95573">
        <ele>48.4</ele>
        <time>2020-06-26T17:33:03Z</time>
      </trkpt>
      <trkpt lat="43.24729" lon="2.95573">
        <ele>48.4</ele>
        <time>2020-06-26T17:33:02Z</time>
      </trkpt>
      <trkpt lat="43.2473" lon="2.95571">
        <ele>48.4</ele>
        <time>2020-06-26T17:33:01Z</time>
      </trkpt>
      <trkpt lat="43.24731" lon="2.9557">
        <ele>48.8</ele>
        <time>2020-06-26T17:33:00Z</time>
      </trkpt>
      <trkpt lat="43.24731" lon="2.9557">
        <ele>49</ele>
        <time>2020-06-26T17:32:59Z</time>
      </trkpt>
      <trkpt lat="43.24731" lon="2.95568">
        <ele>49</ele>
        <time>2020-06-26T17:32:58Z</time>
      </trkpt>
      <trkpt lat="43.24733" lon="2.95563">
        <ele>49.2</ele>
        <time>2020-06-26T17:32:57Z</time>
      </trkpt>
      <trkpt lat="43.24735" lon="2.95562">
        <ele>49.4</ele>
        <time>2020-06-26T17:32:56Z</time>
      </trkpt>
      <trkpt lat="43.24737" lon="2.95561">
        <ele>49.6</ele>
        <time>2020-06-26T17:32:55Z</time>
      </trkpt>
      <trkpt lat="43.24737" lon="2.95561">
        <ele>49.6</ele>
        <time>2020-06-26T17:32:54Z</time>
      </trkpt>
      <trkpt lat="43.24739" lon="2.95559">
        <ele>49.6</ele>
        <time>2020-06-26T17:32:53Z</time>
      </trkpt>
      <trkpt lat="43.24739" lon="2.95557">
        <ele>49.6</ele>
        <time>2020-06-26T17:32:52Z</time>
      </trkpt>
      <trkpt lat="43.24739" lon="2.95557">
        <ele>49.6</ele>
        <time>2020-06-26T17:32:51Z</time>
      </trkpt>
      <trkpt lat="43.24738" lon="2.95552">
        <ele>49.8</ele>
        <time>2020-06-26T17:32:50Z</time>
      </trkpt>
      <trkpt lat="43.24738" lon="2.9555">
        <ele>49.8</ele>
        <time>2020-06-26T17:32:49Z</time>
      </trkpt>
      <trkpt lat="43.24739" lon="2.95547">
        <ele>50</ele>
        <time>2020-06-26T17:32:48Z</time>
      </trkpt>
      <trkpt lat="43.24739" lon="2.95547">
        <ele>50.2</ele>
        <time>2020-06-26T17:32:47Z</time>
      </trkpt>
      <trkpt lat="43.2474" lon="2.95545">
        <ele>49.8</ele>
        <time>2020-06-26T17:32:46Z</time>
      </trkpt>
      <trkpt lat="43.2474" lon="2.95543">
        <ele>49.8</ele>
        <time>2020-06-26T17:32:45Z</time>
      </trkpt>
      <trkpt lat="43.2474" lon="2.9554">
        <ele>49.8</ele>
        <time>2020-06-26T17:32:44Z</time>
      </trkpt>
      <trkpt lat="43.24742" lon="2.95542">
        <ele>49.2</ele>
        <time>2020-06-26T17:29:08Z</time>
      </trkpt>
      <trkpt lat="43.24741" lon="2.95542">
        <ele>49.2</ele>
        <time>2020-06-26T17:29:07Z</time>
      </trkpt>
      <trkpt lat="43.24741" lon="2.95542">
        <ele>49.2</ele>
        <time>2020-06-26T17:29:06Z</time>
      </trkpt>
      <trkpt lat="43.24741" lon="2.95542">
        <ele>49.2</ele>
        <time>2020-06-26T17:29:05Z</time>
      </trkpt>
      <trkpt lat="43.24741" lon="2.95543">
        <ele>49.2</ele>
        <time>2020-06-26T17:29:04Z</time>
      </trkpt>
      <trkpt lat="43.24742" lon="2.95543">
        <ele>49.2</ele>
        <time>2020-06-26T17:29:03Z</time>
      </trkpt>
      <trkpt lat="43.24742" lon="2.95543">
        <ele>49.2</ele>
        <time>2020-06-26T17:29:02Z</time>
      </trkpt>
      <trkpt lat="43.24742" lon="2.95543">
        <ele>49.2</ele>
        <time>2020-06-26T17:29:01Z</time>
      </trkpt>
      <trkpt lat="43.24743" lon="2.95543">
        <ele>49.2</ele>
        <time>2020-06-26T17:29:00Z</time>
      </trkpt>
      <trkpt lat="43.24743" lon="2.95542">
        <ele>49.2</ele>
        <time>2020-06-26T17:28:59Z</time>
      </trkpt>
      <trkpt lat="43.24744" lon="2.95543">
        <ele>49.2</ele>
        <time>2020-06-26T17:27:55Z</time>
      </trkpt>
      <trkpt lat="43.24744" lon="2.95543">
        <ele>49.2</ele>
        <time>2020-06-26T17:27:54Z</time>
      </trkpt>
      <trkpt lat="43.24743" lon="2.95542">
        <ele>49.2</ele>
        <time>2020-06-26T17:27:53Z</time>
      </trkpt>
      <trkpt lat="43.24742" lon="2.95541">
        <ele>49.2</ele>
        <time>2020-06-26T17:27:52Z</time>
      </trkpt>
      <trkpt lat="43.24742" lon="2.9554">
        <ele>49.2</ele>
        <time>2020-06-26T17:27:51Z</time>
      </trkpt>
      <trkpt lat="43.24743" lon="2.95541">
        <ele>49.2</ele>
        <time>2020-06-26T17:27:50Z</time>
      </trkpt>
      <trkpt lat="43.24742" lon="2.95539">
        <ele>49.2</ele>
        <time>2020-06-26T17:27:49Z</time>
      </trkpt>
      <trkpt lat="43.24742" lon="2.95539">
        <ele>49.2</ele>
        <time>2020-06-26T17:27:48Z</time>
      </trkpt>
      <trkpt lat="43.24742" lon="2.95538">
        <ele>49.4</ele>
        <time>2020-06-26T17:27:47Z</time>
      </trkpt>
      <trkpt lat="43.24742" lon="2.95538">
        <ele>49.4</ele>
        <time>2020-06-26T17:27:45Z</time>
      </trkpt>
      <trkpt lat="43.24744" lon="2.95538">
        <ele>49.6</ele>
        <time>2020-06-26T17:27:10Z</time>
      </trkpt>
      <trkpt lat="43.24744" lon="2.95538">
        <ele>49.6</ele>
        <time>2020-06-26T17:27:09Z</time>
      </trkpt>
      <trkpt lat="43.24744" lon="2.95537">
        <ele>49.6</ele>
        <time>2020-06-26T17:27:08Z</time>
      </trkpt>
      <trkpt lat="43.24744" lon="2.95538">
        <ele>49.6</ele>
        <time>2020-06-26T17:27:07Z</time>
      </trkpt>
      <trkpt lat="43.24744" lon="2.95537">
        <ele>49.6</ele>
        <time>2020-06-26T17:27:06Z</time>
      </trkpt>
      <trkpt lat="43.24744" lon="2.95537">
        <ele>49.6</ele>
        <time>2020-06-26T17:27:05Z</time>
      </trkpt>
      <trkpt lat="43.24744" lon="2.95538">
        <ele>49.6</ele>
        <time>2020-06-26T17:27:04Z</time>
      </trkpt>
      <trkpt lat="43.24744" lon="2.95538">
        <ele>49.6</ele>
        <time>2020-06-26T17:27:03Z</time>
      </trkpt>
      <trkpt lat="43.24744" lon="2.95538">
        <ele>49.6</ele>
        <time>2020-06-26T17:27:02Z</time>
      </trkpt>
      <trkpt lat="43.24744" lon="2.95538">
        <ele>49.6</ele>
        <time>2020-06-26T17:27:01Z</time>
      </trkpt>
      <trkpt lat="43.24745" lon="2.9554">
        <ele>49.6</ele>
        <time>2020-06-26T17:27:00Z</time>
      </trkpt>
      <trkpt lat="43.24745" lon="2.95539">
        <ele>49.6</ele>
        <time>2020-06-26T17:26:59Z</time>
      </trkpt>
      <trkpt lat="43.24745" lon="2.9554">
        <ele>49.8</ele>
        <time>2020-06-26T17:26:58Z</time>
      </trkpt>
      <trkpt lat="43.24746" lon="2.95542">
        <ele>49.8</ele>
        <time>2020-06-26T17:26:57Z</time>
      </trkpt>
      <trkpt lat="43.24746" lon="2.95543">
        <ele>49.8</ele>
        <time>2020-06-26T17:26:56Z</time>
      </trkpt>
      <trkpt lat="43.24747" lon="2.95544">
        <ele>49.8</ele>
        <time>2020-06-26T17:26:55Z</time>
      </trkpt>
      <trkpt lat="43.24747" lon="2.95544">
        <ele>49.8</ele>
        <time>2020-06-26T17:26:54Z</time>
      </trkpt>
      <trkpt lat="43.24749" lon="2.95546">
        <ele>49.8</ele>
        <time>2020-06-26T17:26:53Z</time>
      </trkpt>
      <trkpt lat="43.2475" lon="2.95547">
        <ele>50</ele>
        <time>2020-06-26T17:26:52Z</time>
      </trkpt>
      <trkpt lat="43.24751" lon="2.95548">
        <ele>50</ele>
        <time>2020-06-26T17:26:51Z</time>
      </trkpt>
      <trkpt lat="43.24752" lon="2.9555">
        <ele>49.8</ele>
        <time>2020-06-26T17:26:50Z</time>
      </trkpt>
      <trkpt lat="43.24753" lon="2.9555">
        <ele>50</ele>
        <time>2020-06-26T17:26:49Z</time>
      </trkpt>
      <trkpt lat="43.24755" lon="2.95551">
        <ele>50</ele>
        <time>2020-06-26T17:26:48Z</time>
      </trkpt>
      <trkpt lat="43.24756" lon="2.95551">
        <ele>50.2</ele>
        <time>2020-06-26T17:26:47Z</time>
      </trkpt>
      <trkpt lat="43.24757" lon="2.95551">
        <ele>50.4</ele>
        <time>2020-06-26T17:26:46Z</time>
      </trkpt>
      <trkpt lat="43.24759" lon="2.95552">
        <ele>50.4</ele>
        <time>2020-06-26T17:26:45Z</time>
      </trkpt>
      <trkpt lat="43.24761" lon="2.95553">
        <ele>50.4</ele>
        <time>2020-06-26T17:26:44Z</time>
      </trkpt>
      <trkpt lat="43.24762" lon="2.95553">
        <ele>50.6</ele>
        <time>2020-06-26T17:26:43Z</time>
      </trkpt>
      <trkpt lat="43.24763" lon="2.95552">
        <ele>50.6</ele>
        <time>2020-06-26T17:26:42Z</time>
      </trkpt>
      <trkpt lat="43.24764" lon="2.95552">
        <ele>50.6</ele>
        <time>2020-06-26T17:26:41Z</time>
      </trkpt>
      <trkpt lat="43.24765" lon="2.95553">
        <ele>50.6</ele>
        <time>2020-06-26T17:26:40Z</time>
      </trkpt>
      <trkpt lat="43.24767" lon="2.95553">
        <ele>50.8</ele>
        <time>2020-06-26T17:26:39Z</time>
      </trkpt>
      <trkpt lat="43.24768" lon="2.95556">
        <ele>50.8</ele>
        <time>2020-06-26T17:26:38Z</time>
      </trkpt>
      <trkpt lat="43.24769" lon="2.95557">
        <ele>50.8</ele>
        <time>2020-06-26T17:26:37Z</time>
      </trkpt>
      <trkpt lat="43.2477" lon="2.95557">
        <ele>50.8</ele>
        <time>2020-06-26T17:26:36Z</time>
      </trkpt>
      <trkpt lat="43.2477" lon="2.95558">
        <ele>50.8</ele>
        <time>2020-06-26T17:26:35Z</time>
      </trkpt>
      <trkpt lat="43.2477" lon="2.95559">
        <ele>50.8</ele>
        <time>2020-06-26T17:26:34Z</time>
      </trkpt>
      <trkpt lat="43.24769" lon="2.9556">
        <ele>50.8</ele>
        <time>2020-06-26T17:26:33Z</time>
      </trkpt>
      <trkpt lat="43.24769" lon="2.9556">
        <ele>50.8</ele>
        <time>2020-06-26T17:26:32Z</time>
      </trkpt>
      <trkpt lat="43.2477" lon="2.95561">
        <ele>50.8</ele>
        <time>2020-06-26T17:26:23Z</time>
      </trkpt>
      <trkpt lat="43.2477" lon="2.95561">
        <ele>50.8</ele>
        <time>2020-06-26T17:26:22Z</time>
      </trkpt>
      <trkpt lat="43.24769" lon="2.95561">
        <ele>50.6</ele>
        <time>2020-06-26T17:26:21Z</time>
      </trkpt>
      <trkpt lat="43.24769" lon="2.95561">
        <ele>50.8</ele>
        <time>2020-06-26T17:26:20Z</time>
      </trkpt>
      <trkpt lat="43.24769" lon="2.95561">
        <ele>50.8</ele>
        <time>2020-06-26T17:26:19Z</time>
      </trkpt>
      <trkpt lat="43.24769" lon="2.9556">
        <ele>50.8</ele>
        <time>2020-06-26T17:26:18Z</time>
      </trkpt>
      <trkpt lat="43.24769" lon="2.9556">
        <ele>50.8</ele>
        <time>2020-06-26T17:26:17Z</time>
      </trkpt>
      <trkpt lat="43.24768" lon="2.9556">
        <ele>50.8</ele>
        <time>2020-06-26T17:26:16Z</time>
      </trkpt>
      <trkpt lat="43.24769" lon="2.9556">
        <ele>51</ele>
        <time>2020-06-26T17:26:15Z</time>
      </trkpt>
      <trkpt lat="43.24769" lon="2.9556">
        <ele>50.8</ele>
        <time>2020-06-26T17:26:14Z</time>
      </trkpt>
      <trkpt lat="43.24768" lon="2.9556">
        <ele>50.6</ele>
        <time>2020-06-26T17:26:13Z</time>
      </trkpt>
      <trkpt lat="43.24767" lon="2.95559">
        <ele>50.6</ele>
        <time>2020-06-26T17:26:12Z</time>
      </trkpt>
      <trkpt lat="43.24766" lon="2.95557">
        <ele>50.6</ele>
        <time>2020-06-26T17:26:11Z</time>
      </trkpt>
      <trkpt lat="43.24765" lon="2.95556">
        <ele>50.4</ele>
        <time>2020-06-26T17:26:10Z</time>
      </trkpt>
      <trkpt lat="43.24763" lon="2.95555">
        <ele>50.4</ele>
        <time>2020-06-26T17:26:09Z</time>
      </trkpt>
      <trkpt lat="43.24762" lon="2.95554">
        <ele>50.4</ele>
        <time>2020-06-26T17:26:08Z</time>
      </trkpt>
      <trkpt lat="43.2476" lon="2.95554">
        <ele>50.4</ele>
        <time>2020-06-26T17:26:07Z</time>
      </trkpt>
      <trkpt lat="43.24759" lon="2.95554">
        <ele>50.2</ele>
        <time>2020-06-26T17:26:06Z</time>
      </trkpt>
      <trkpt lat="43.24757" lon="2.95553">
        <ele>50.2</ele>
        <time>2020-06-26T17:26:05Z</time>
      </trkpt>
      <trkpt lat="43.24756" lon="2.95555">
        <ele>50.2</ele>
        <time>2020-06-26T17:26:04Z</time>
      </trkpt>
      <trkpt lat="43.24753" lon="2.95555">
        <ele>50.2</ele>
        <time>2020-06-26T17:26:03Z</time>
      </trkpt>
      <trkpt lat="43.24752" lon="2.95556">
        <ele>50.2</ele>
        <time>2020-06-26T17:26:02Z</time>
      </trkpt>
      <trkpt lat="43.2475" lon="2.95555">
        <ele>50.2</ele>
        <time>2020-06-26T17:26:01Z</time>
      </trkpt>
      <trkpt lat="43.24749" lon="2.95557">
        <ele>50</ele>
        <time>2020-06-26T17:26:00Z</time>
      </trkpt>
      <trkpt lat="43.24747" lon="2.95558">
        <ele>50</ele>
        <time>2020-06-26T17:25:59Z</time>
      </trkpt>
      <trkpt lat="43.24745" lon="2.95558">
        <ele>50</ele>
        <time>2020-06-26T17:25:58Z</time>
      </trkpt>
      <trkpt lat="43.24743" lon="2.95556">
        <ele>50</ele>
        <time>2020-06-26T17:25:57Z</time>
      </trkpt>
      <trkpt lat="43.2474" lon="2.95556">
        <ele>50</ele>
        <time>2020-06-26T17:25:56Z</time>
      </trkpt>
      <trkpt lat="43.24736" lon="2.95556">
        <ele>50</ele>
        <time>2020-06-26T17:25:55Z</time>
      </trkpt>
      <trkpt lat="43.24735" lon="2.95555">
        <ele>49.8</ele>
        <time>2020-06-26T17:25:54Z</time>
      </trkpt>
      <trkpt lat="43.24733" lon="2.95555">
        <ele>49.6</ele>
        <time>2020-06-26T17:25:53Z</time>
      </trkpt>
      <trkpt lat="43.24732" lon="2.95556">
        <ele>49.6</ele>
        <time>2020-06-26T17:25:52Z</time>
      </trkpt>
      <trkpt lat="43.24732" lon="2.95557">
        <ele>49.4</ele>
        <time>2020-06-26T17:25:51Z</time>
      </trkpt>
      <trkpt lat="43.24732" lon="2.9556">
        <ele>49.4</ele>
        <time>2020-06-26T17:25:50Z</time>
      </trkpt>
      <trkpt lat="43.24732" lon="2.95562">
        <ele>49.2</ele>
        <time>2020-06-26T17:25:49Z</time>
      </trkpt>
      <trkpt lat="43.24731" lon="2.95564">
        <ele>49</ele>
        <time>2020-06-26T17:25:48Z</time>
      </trkpt>
      <trkpt lat="43.24729" lon="2.95565">
        <ele>49</ele>
        <time>2020-06-26T17:25:47Z</time>
      </trkpt>
      <trkpt lat="43.24727" lon="2.95567">
        <ele>48.8</ele>
        <time>2020-06-26T17:25:46Z</time>
      </trkpt>
      <trkpt lat="43.24726" lon="2.95569">
        <ele>48.8</ele>
        <time>2020-06-26T17:25:45Z</time>
      </trkpt>
      <trkpt lat="43.24724" lon="2.95571">
        <ele>48.8</ele>
        <time>2020-06-26T17:25:44Z</time>
      </trkpt>
      <trkpt lat="43.2472" lon="2.95574">
        <ele>48.8</ele>
        <time>2020-06-26T17:25:43Z</time>
      </trkpt>
      <trkpt lat="43.24718" lon="2.95578">
        <ele>48.8</ele>
        <time>2020-06-26T17:25:42Z</time>
      </trkpt>
      <trkpt lat="43.24716" lon="2.9558">
        <ele>48.6</ele>
        <time>2020-06-26T17:25:41Z</time>
      </trkpt>
      <trkpt lat="43.24713" lon="2.95581">
        <ele>48.6</ele>
        <time>2020-06-26T17:25:40Z</time>
      </trkpt>
      <trkpt lat="43.24711" lon="2.95582">
        <ele>48.6</ele>
        <time>2020-06-26T17:25:39Z</time>
      </trkpt>
      <trkpt lat="43.24708" lon="2.95584">
        <ele>48.6</ele>
        <time>2020-06-26T17:25:38Z</time>
      </trkpt>
      <trkpt lat="43.24706" lon="2.95586">
        <ele>48.6</ele>
        <time>2020-06-26T17:25:37Z</time>
      </trkpt>
      <trkpt lat="43.24704" lon="2.95586">
        <ele>48.6</ele>
        <time>2020-06-26T17:25:36Z</time>
      </trkpt>
      <trkpt lat="43.24702" lon="2.95586">
        <ele>48.6</ele>
        <time>2020-06-26T17:25:35Z</time>
      </trkpt>
      <trkpt lat="43.247" lon="2.95588">
        <ele>48.6</ele>
        <time>2020-06-26T17:25:34Z</time>
      </trkpt>
      <trkpt lat="43.24699" lon="2.9559">
        <ele>48.4</ele>
        <time>2020-06-26T17:25:33Z</time>
      </trkpt>
      <trkpt lat="43.24697" lon="2.95591">
        <ele>48.4</ele>
        <time>2020-06-26T17:25:32Z</time>
      </trkpt>
      <trkpt lat="43.24696" lon="2.95591">
        <ele>48.4</ele>
        <time>2020-06-26T17:25:31Z</time>
      </trkpt>
      <trkpt lat="43.24694" lon="2.95593">
        <ele>48.4</ele>
        <time>2020-06-26T17:25:30Z</time>
      </trkpt>
      <trkpt lat="43.24693" lon="2.95593">
        <ele>48.4</ele>
        <time>2020-06-26T17:25:29Z</time>
      </trkpt>
      <trkpt lat="43.24691" lon="2.95594">
        <ele>48.6</ele>
        <time>2020-06-26T17:25:28Z</time>
      </trkpt>
      <trkpt lat="43.24689" lon="2.95595">
        <ele>48.6</ele>
        <time>2020-06-26T17:25:27Z</time>
      </trkpt>
      <trkpt lat="43.24684" lon="2.95596">
        <ele>48.6</ele>
        <time>2020-06-26T17:25:26Z</time>
      </trkpt>
      <trkpt lat="43.24683" lon="2.95597">
        <ele>48.6</ele>
        <time>2020-06-26T17:25:25Z</time>
      </trkpt>
      <trkpt lat="43.24677" lon="2.95601">
        <ele>48.6</ele>
        <time>2020-06-26T17:25:24Z</time>
      </trkpt>
      <trkpt lat="43.24675" lon="2.95601">
        <ele>48.6</ele>
        <time>2020-06-26T17:25:23Z</time>
      </trkpt>
      <trkpt lat="43.24672" lon="2.95599">
        <ele>48.6</ele>
        <time>2020-06-26T17:25:22Z</time>
      </trkpt>
      <trkpt lat="43.24668" lon="2.956">
        <ele>48.6</ele>
        <time>2020-06-26T17:25:21Z</time>
      </trkpt>
      <trkpt lat="43.24663" lon="2.95596">
        <ele>48.6</ele>
        <time>2020-06-26T17:25:20Z</time>
      </trkpt>
      <trkpt lat="43.24664" lon="2.95599">
        <ele>48.6</ele>
        <time>2020-06-26T17:25:19Z</time>
      </trkpt>
      <trkpt lat="43.24663" lon="2.95597">
        <ele>48.6</ele>
        <time>2020-06-26T17:25:18Z</time>
      </trkpt>
      <trkpt lat="43.24664" lon="2.95601">
        <ele>48.6</ele>
        <time>2020-06-26T17:25:17Z</time>
      </trkpt>
      <trkpt lat="43.24662" lon="2.95599">
        <ele>48.8</ele>
        <time>2020-06-26T17:25:16Z</time>
      </trkpt>
      <trkpt lat="43.24659" lon="2.95595">
        <ele>48.6</ele>
        <time>2020-06-26T17:25:15Z</time>
      </trkpt>
      <trkpt lat="43.24657" lon="2.95595">
        <ele>48.8</ele>
        <time>2020-06-26T17:25:14Z</time>
      </trkpt>
      <trkpt lat="43.24654" lon="2.95596">
        <ele>48.6</ele>
        <time>2020-06-26T17:25:13Z</time>
      </trkpt>
      <trkpt lat="43.24651" lon="2.95597">
        <ele>48.6</ele>
        <time>2020-06-26T17:25:12Z</time>
      </trkpt>
      <trkpt lat="43.24649" lon="2.95595">
        <ele>48.8</ele>
        <time>2020-06-26T17:25:11Z</time>
      </trkpt>
      <trkpt lat="43.24648" lon="2.95595">
        <ele>48.8</ele>
        <time>2020-06-26T17:25:10Z</time>
      </trkpt>
      <trkpt lat="43.24645" lon="2.95593">
        <ele>48.8</ele>
        <time>2020-06-26T17:25:09Z</time>
      </trkpt>
      <trkpt lat="43.24642" lon="2.95595">
        <ele>48.8</ele>
        <time>2020-06-26T17:25:08Z</time>
      </trkpt>
      <trkpt lat="43.2464" lon="2.95591">
        <ele>48.8</ele>
        <time>2020-06-26T17:25:07Z</time>
      </trkpt>
      <trkpt lat="43.24637" lon="2.9559">
        <ele>48.8</ele>
        <time>2020-06-26T17:25:06Z</time>
      </trkpt>
      <trkpt lat="43.24638" lon="2.95589">
        <ele>48.8</ele>
        <time>2020-06-26T17:25:05Z</time>
      </trkpt>
      <trkpt lat="43.24635" lon="2.95585">
        <ele>48.8</ele>
        <time>2020-06-26T17:25:04Z</time>
      </trkpt>
      <trkpt lat="43.24633" lon="2.95586">
        <ele>48.8</ele>
        <time>2020-06-26T17:25:03Z</time>
      </trkpt>
      <trkpt lat="43.24628" lon="2.95582">
        <ele>49</ele>
        <time>2020-06-26T17:25:02Z</time>
      </trkpt>
      <trkpt lat="43.24626" lon="2.95583">
        <ele>48.8</ele>
        <time>2020-06-26T17:25:01Z</time>
      </trkpt>
      <trkpt lat="43.24624" lon="2.95581">
        <ele>48.8</ele>
        <time>2020-06-26T17:25:00Z</time>
      </trkpt>
      <trkpt lat="43.24622" lon="2.95578">
        <ele>49</ele>
        <time>2020-06-26T17:24:59Z</time>
      </trkpt>
      <trkpt lat="43.24621" lon="2.95576">
        <ele>49</ele>
        <time>2020-06-26T17:24:58Z</time>
      </trkpt>
      <trkpt lat="43.24621" lon="2.95574">
        <ele>49</ele>
        <time>2020-06-26T17:24:57Z</time>
      </trkpt>
      <trkpt lat="43.24619" lon="2.95572">
        <ele>49</ele>
        <time>2020-06-26T17:24:56Z</time>
      </trkpt>
      <trkpt lat="43.24618" lon="2.95572">
        <ele>48.8</ele>
        <time>2020-06-26T17:24:55Z</time>
      </trkpt>
      <trkpt lat="43.24616" lon="2.95573">
        <ele>48.8</ele>
        <time>2020-06-26T17:24:54Z</time>
      </trkpt>
      <trkpt lat="43.24616" lon="2.95573">
        <ele>49</ele>
        <time>2020-06-26T17:24:53Z</time>
      </trkpt>
      <trkpt lat="43.24617" lon="2.95568">
        <ele>49</ele>
        <time>2020-06-26T17:24:52Z</time>
      </trkpt>
      <trkpt lat="43.24616" lon="2.95567">
        <ele>48.8</ele>
        <time>2020-06-26T17:24:51Z</time>
      </trkpt>
      <trkpt lat="43.24613" lon="2.95563">
        <ele>48.8</ele>
        <time>2020-06-26T17:24:50Z</time>
      </trkpt>
      <trkpt lat="43.24611" lon="2.9556">
        <ele>48.8</ele>
        <time>2020-06-26T17:24:49Z</time>
      </trkpt>
      <trkpt lat="43.2461" lon="2.9556">
        <ele>48.8</ele>
        <time>2020-06-26T17:24:48Z</time>
      </trkpt>
      <trkpt lat="43.24609" lon="2.95556">
        <ele>48.8</ele>
        <time>2020-06-26T17:24:47Z</time>
      </trkpt>
      <trkpt lat="43.24607" lon="2.95554">
        <ele>48.8</ele>
        <time>2020-06-26T17:24:46Z</time>
      </trkpt>
      <trkpt lat="43.24605" lon="2.95551">
        <ele>48.6</ele>
        <time>2020-06-26T17:24:45Z</time>
      </trkpt>
      <trkpt lat="43.24605" lon="2.9555">
        <ele>48.6</ele>
        <time>2020-06-26T17:24:44Z</time>
      </trkpt>
      <trkpt lat="43.24604" lon="2.95549">
        <ele>48.4</ele>
        <time>2020-06-26T17:24:43Z</time>
      </trkpt>
      <trkpt lat="43.24605" lon="2.95546">
        <ele>48.4</ele>
        <time>2020-06-26T17:24:42Z</time>
      </trkpt>
      <trkpt lat="43.24605" lon="2.95544">
        <ele>48.2</ele>
        <time>2020-06-26T17:24:41Z</time>
      </trkpt>
      <trkpt lat="43.24603" lon="2.95542">
        <ele>48.2</ele>
        <time>2020-06-26T17:24:40Z</time>
      </trkpt>
      <trkpt lat="43.24601" lon="2.95539">
        <ele>48</ele>
        <time>2020-06-26T17:24:39Z</time>
      </trkpt>
      <trkpt lat="43.24598" lon="2.95537">
        <ele>48</ele>
        <time>2020-06-26T17:24:38Z</time>
      </trkpt>
      <trkpt lat="43.24598" lon="2.95534">
        <ele>47.8</ele>
        <time>2020-06-26T17:24:37Z</time>
      </trkpt>
      <trkpt lat="43.24598" lon="2.95533">
        <ele>47.8</ele>
        <time>2020-06-26T17:24:36Z</time>
      </trkpt>
      <trkpt lat="43.24598" lon="2.95529">
        <ele>47.6</ele>
        <time>2020-06-26T17:24:35Z</time>
      </trkpt>
      <trkpt lat="43.24598" lon="2.95528">
        <ele>47.4</ele>
        <time>2020-06-26T17:24:34Z</time>
      </trkpt>
      <trkpt lat="43.24598" lon="2.95525">
        <ele>47.4</ele>
        <time>2020-06-26T17:24:33Z</time>
      </trkpt>
      <trkpt lat="43.24598" lon="2.95522">
        <ele>47.2</ele>
        <time>2020-06-26T17:24:32Z</time>
      </trkpt>
      <trkpt lat="43.24597" lon="2.9552">
        <ele>47.2</ele>
        <time>2020-06-26T17:24:31Z</time>
      </trkpt>
      <trkpt lat="43.24598" lon="2.95516">
        <ele>47</ele>
        <time>2020-06-26T17:24:30Z</time>
      </trkpt>
      <trkpt lat="43.24597" lon="2.95513">
        <ele>47</ele>
        <time>2020-06-26T17:24:29Z</time>
      </trkpt>
      <trkpt lat="43.24597" lon="2.95509">
        <ele>46.8</ele>
        <time>2020-06-26T17:24:28Z</time>
      </trkpt>
      <trkpt lat="43.24597" lon="2.95508">
        <ele>47</ele>
        <time>2020-06-26T17:24:27Z</time>
      </trkpt>
      <trkpt lat="43.24598" lon="2.95503">
        <ele>47</ele>
        <time>2020-06-26T17:24:26Z</time>
      </trkpt>
      <trkpt lat="43.24598" lon="2.95499">
        <ele>47</ele>
        <time>2020-06-26T17:24:25Z</time>
      </trkpt>
      <trkpt lat="43.24597" lon="2.95495">
        <ele>47</ele>
        <time>2020-06-26T17:24:24Z</time>
      </trkpt>
      <trkpt lat="43.24598" lon="2.95492">
        <ele>47</ele>
        <time>2020-06-26T17:24:23Z</time>
      </trkpt>
      <trkpt lat="43.24599" lon="2.95491">
        <ele>47</ele>
        <time>2020-06-26T17:24:22Z</time>
      </trkpt>
      <trkpt lat="43.24601" lon="2.95491">
        <ele>47.2</ele>
        <time>2020-06-26T17:24:21Z</time>
      </trkpt>
      <trkpt lat="43.24601" lon="2.95488">
        <ele>47.2</ele>
        <time>2020-06-26T17:24:20Z</time>
      </trkpt>
      <trkpt lat="43.24604" lon="2.95488">
        <ele>47</ele>
        <time>2020-06-26T17:24:19Z</time>
      </trkpt>
      <trkpt lat="43.24604" lon="2.95484">
        <ele>47</ele>
        <time>2020-06-26T17:24:18Z</time>
      </trkpt>
      <trkpt lat="43.24606" lon="2.95482">
        <ele>47</ele>
        <time>2020-06-26T17:24:17Z</time>
      </trkpt>
      <trkpt lat="43.24606" lon="2.95478">
        <ele>47</ele>
        <time>2020-06-26T17:24:16Z</time>
      </trkpt>
      <trkpt lat="43.2461" lon="2.95478">
        <ele>46.8</ele>
        <time>2020-06-26T17:24:15Z</time>
      </trkpt>
      <trkpt lat="43.24611" lon="2.95476">
        <ele>46.8</ele>
        <time>2020-06-26T17:24:14Z</time>
      </trkpt>
      <trkpt lat="43.24612" lon="2.95474">
        <ele>47</ele>
        <time>2020-06-26T17:24:13Z</time>
      </trkpt>
      <trkpt lat="43.24613" lon="2.95473">
        <ele>47</ele>
        <time>2020-06-26T17:24:12Z</time>
      </trkpt>
      <trkpt lat="43.24615" lon="2.95473">
        <ele>47</ele>
        <time>2020-06-26T17:24:11Z</time>
      </trkpt>
      <trkpt lat="43.24616" lon="2.95471">
        <ele>47</ele>
        <time>2020-06-26T17:24:10Z</time>
      </trkpt>
      <trkpt lat="43.24617" lon="2.95468">
        <ele>47</ele>
        <time>2020-06-26T17:24:09Z</time>
      </trkpt>
      <trkpt lat="43.24618" lon="2.95467">
        <ele>47</ele>
        <time>2020-06-26T17:24:08Z</time>
      </trkpt>
      <trkpt lat="43.24619" lon="2.95467">
        <ele>47.2</ele>
        <time>2020-06-26T17:24:07Z</time>
      </trkpt>
      <trkpt lat="43.24623" lon="2.95468">
        <ele>47.2</ele>
        <time>2020-06-26T17:24:06Z</time>
      </trkpt>
      <trkpt lat="43.24626" lon="2.95468">
        <ele>47.2</ele>
        <time>2020-06-26T17:24:05Z</time>
      </trkpt>
      <trkpt lat="43.24628" lon="2.95467">
        <ele>47.2</ele>
        <time>2020-06-26T17:24:04Z</time>
      </trkpt>
      <trkpt lat="43.24629" lon="2.95464">
        <ele>47.2</ele>
        <time>2020-06-26T17:24:03Z</time>
      </trkpt>
      <trkpt lat="43.24632" lon="2.95464">
        <ele>47.2</ele>
        <time>2020-06-26T17:24:02Z</time>
      </trkpt>
      <trkpt lat="43.24634" lon="2.95457">
        <ele>47</ele>
        <time>2020-06-26T17:24:01Z</time>
      </trkpt>
      <trkpt lat="43.24634" lon="2.95453">
        <ele>47</ele>
        <time>2020-06-26T17:24:00Z</time>
      </trkpt>
      <trkpt lat="43.24637" lon="2.95452">
        <ele>47</ele>
        <time>2020-06-26T17:23:59Z</time>
      </trkpt>
      <trkpt lat="43.24636" lon="2.95448">
        <ele>47</ele>
        <time>2020-06-26T17:23:58Z</time>
      </trkpt>
      <trkpt lat="43.24637" lon="2.95447">
        <ele>46.8</ele>
        <time>2020-06-26T17:23:57Z</time>
      </trkpt>
      <trkpt lat="43.24641" lon="2.95446">
        <ele>46.8</ele>
        <time>2020-06-26T17:23:56Z</time>
      </trkpt>
      <trkpt lat="43.24642" lon="2.95442">
        <ele>46.8</ele>
        <time>2020-06-26T17:23:55Z</time>
      </trkpt>
      <trkpt lat="43.24645" lon="2.95442">
        <ele>46.8</ele>
        <time>2020-06-26T17:23:54Z</time>
      </trkpt>
      <trkpt lat="43.24646" lon="2.95441">
        <ele>46.8</ele>
        <time>2020-06-26T17:23:53Z</time>
      </trkpt>
      <trkpt lat="43.24647" lon="2.95439">
        <ele>46.8</ele>
        <time>2020-06-26T17:23:52Z</time>
      </trkpt>
      <trkpt lat="43.24648" lon="2.95436">
        <ele>46.6</ele>
        <time>2020-06-26T17:23:51Z</time>
      </trkpt>
      <trkpt lat="43.24649" lon="2.95434">
        <ele>46.6</ele>
        <time>2020-06-26T17:23:50Z</time>
      </trkpt>
      <trkpt lat="43.24646" lon="2.95431">
        <ele>46.6</ele>
        <time>2020-06-26T17:23:49Z</time>
      </trkpt>
      <trkpt lat="43.24648" lon="2.95433">
        <ele>46.6</ele>
        <time>2020-06-26T17:23:48Z</time>
      </trkpt>
      <trkpt lat="43.24647" lon="2.95429">
        <ele>46.6</ele>
        <time>2020-06-26T17:23:47Z</time>
      </trkpt>
      <trkpt lat="43.24646" lon="2.95427">
        <ele>46.4</ele>
        <time>2020-06-26T17:23:46Z</time>
      </trkpt>
      <trkpt lat="43.24647" lon="2.95424">
        <ele>46.4</ele>
        <time>2020-06-26T17:23:45Z</time>
      </trkpt>
      <trkpt lat="43.24648" lon="2.95423">
        <ele>46.4</ele>
        <time>2020-06-26T17:23:44Z</time>
      </trkpt>
      <trkpt lat="43.2465" lon="2.95422">
        <ele>46.2</ele>
        <time>2020-06-26T17:23:43Z</time>
      </trkpt>
      <trkpt lat="43.24651" lon="2.95418">
        <ele>46.2</ele>
        <time>2020-06-26T17:23:42Z</time>
      </trkpt>
      <trkpt lat="43.24651" lon="2.95418">
        <ele>46.2</ele>
        <time>2020-06-26T17:23:41Z</time>
      </trkpt>
      <trkpt lat="43.24653" lon="2.95417">
        <ele>46.2</ele>
        <time>2020-06-26T17:23:40Z</time>
      </trkpt>
      <trkpt lat="43.24654" lon="2.95414">
        <ele>46</ele>
        <time>2020-06-26T17:23:39Z</time>
      </trkpt>
      <trkpt lat="43.24654" lon="2.95414">
        <ele>46</ele>
        <time>2020-06-26T17:23:38Z</time>
      </trkpt>
      <trkpt lat="43.24655" lon="2.95407">
        <ele>46.2</ele>
        <time>2020-06-26T17:23:37Z</time>
      </trkpt>
      <trkpt lat="43.24656" lon="2.95406">
        <ele>46.2</ele>
        <time>2020-06-26T17:23:36Z</time>
      </trkpt>
      <trkpt lat="43.24658" lon="2.95405">
        <ele>46.2</ele>
        <time>2020-06-26T17:23:35Z</time>
      </trkpt>
      <trkpt lat="43.24659" lon="2.95402">
        <ele>46.4</ele>
        <time>2020-06-26T17:23:34Z</time>
      </trkpt>
      <trkpt lat="43.24661" lon="2.954">
        <ele>46.4</ele>
        <time>2020-06-26T17:23:33Z</time>
      </trkpt>
      <trkpt lat="43.24662" lon="2.95397">
        <ele>46.6</ele>
        <time>2020-06-26T17:23:32Z</time>
      </trkpt>
      <trkpt lat="43.24662" lon="2.95391">
        <ele>46.6</ele>
        <time>2020-06-26T17:23:31Z</time>
      </trkpt>
      <trkpt lat="43.24664" lon="2.95389">
        <ele>46.6</ele>
        <time>2020-06-26T17:23:30Z</time>
      </trkpt>
      <trkpt lat="43.24666" lon="2.95383">
        <ele>46.8</ele>
        <time>2020-06-26T17:23:29Z</time>
      </trkpt>
      <trkpt lat="43.24666" lon="2.95378">
        <ele>46.8</ele>
        <time>2020-06-26T17:23:28Z</time>
      </trkpt>
      <trkpt lat="43.24666" lon="2.95375">
        <ele>46.8</ele>
        <time>2020-06-26T17:23:27Z</time>
      </trkpt>
      <trkpt lat="43.24667" lon="2.95371">
        <ele>47</ele>
        <time>2020-06-26T17:23:26Z</time>
      </trkpt>
      <trkpt lat="43.24668" lon="2.95367">
        <ele>47</ele>
        <time>2020-06-26T17:23:25Z</time>
      </trkpt>
      <trkpt lat="43.24669" lon="2.95361">
        <ele>47</ele>
        <time>2020-06-26T17:23:24Z</time>
      </trkpt>
      <trkpt lat="43.24668" lon="2.95354">
        <ele>47</ele>
        <time>2020-06-26T17:23:23Z</time>
      </trkpt>
      <trkpt lat="43.24671" lon="2.95351">
        <ele>47.2</ele>
        <time>2020-06-26T17:23:22Z</time>
      </trkpt>
      <trkpt lat="43.24673" lon="2.9535">
        <ele>47.2</ele>
        <time>2020-06-26T17:23:21Z</time>
      </trkpt>
      <trkpt lat="43.24671" lon="2.95345">
        <ele>47.2</ele>
        <time>2020-06-26T17:23:20Z</time>
      </trkpt>
      <trkpt lat="43.24672" lon="2.95341">
        <ele>47.2</ele>
        <time>2020-06-26T17:23:19Z</time>
      </trkpt>
      <trkpt lat="43.24672" lon="2.95338">
        <ele>47.2</ele>
        <time>2020-06-26T17:23:18Z</time>
      </trkpt>
      <trkpt lat="43.24673" lon="2.95337">
        <ele>47.2</ele>
        <time>2020-06-26T17:23:17Z</time>
      </trkpt>
      <trkpt lat="43.24674" lon="2.95335">
        <ele>47</ele>
        <time>2020-06-26T17:23:16Z</time>
      </trkpt>
      <trkpt lat="43.24675" lon="2.95334">
        <ele>47</ele>
        <time>2020-06-26T17:23:15Z</time>
      </trkpt>
      <trkpt lat="43.24674" lon="2.95331">
        <ele>47</ele>
        <time>2020-06-26T17:23:14Z</time>
      </trkpt>
      <trkpt lat="43.24674" lon="2.95326">
        <ele>47</ele>
        <time>2020-06-26T17:23:13Z</time>
      </trkpt>
      <trkpt lat="43.24675" lon="2.95326">
        <ele>47</ele>
        <time>2020-06-26T17:23:12Z</time>
      </trkpt>
      <trkpt lat="43.24674" lon="2.95324">
        <ele>47</ele>
        <time>2020-06-26T17:23:11Z</time>
      </trkpt>
      <trkpt lat="43.24675" lon="2.95323">
        <ele>47</ele>
        <time>2020-06-26T17:23:10Z</time>
      </trkpt>
      <trkpt lat="43.24675" lon="2.95323">
        <ele>47</ele>
        <time>2020-06-26T17:23:09Z</time>
      </trkpt>
      <trkpt lat="43.24676" lon="2.95321">
        <ele>46.8</ele>
        <time>2020-06-26T17:23:08Z</time>
      </trkpt>
      <trkpt lat="43.24676" lon="2.9532">
        <ele>46.8</ele>
        <time>2020-06-26T17:23:07Z</time>
      </trkpt>
      <trkpt lat="43.24677" lon="2.95319">
        <ele>46.8</ele>
        <time>2020-06-26T17:23:06Z</time>
      </trkpt>
      <trkpt lat="43.24677" lon="2.95319">
        <ele>46.6</ele>
        <time>2020-06-26T17:23:05Z</time>
      </trkpt>
      <trkpt lat="43.24678" lon="2.95319">
        <ele>46.8</ele>
        <time>2020-06-26T17:23:04Z</time>
      </trkpt>
      <trkpt lat="43.24678" lon="2.95319">
        <ele>46.8</ele>
        <time>2020-06-26T17:23:03Z</time>
      </trkpt>
      <trkpt lat="43.24678" lon="2.9532">
        <ele>46.8</ele>
        <time>2020-06-26T17:23:02Z</time>
      </trkpt>
      <trkpt lat="43.24677" lon="2.95321">
        <ele>46.8</ele>
        <time>2020-06-26T17:23:01Z</time>
      </trkpt>
      <trkpt lat="43.24677" lon="2.95321">
        <ele>46.8</ele>
        <time>2020-06-26T17:23:00Z</time>
      </trkpt>
      <trkpt lat="43.24675" lon="2.95321">
        <ele>46.8</ele>
        <time>2020-06-26T17:22:59Z</time>
      </trkpt>
      <trkpt lat="43.24675" lon="2.95323">
        <ele>46.8</ele>
        <time>2020-06-26T17:22:58Z</time>
      </trkpt>
      <trkpt lat="43.24675" lon="2.95325">
        <ele>46.8</ele>
        <time>2020-06-26T17:22:57Z</time>
      </trkpt>
      <trkpt lat="43.24675" lon="2.95327">
        <ele>46.6</ele>
        <time>2020-06-26T17:22:56Z</time>
      </trkpt>
      <trkpt lat="43.24674" lon="2.95327">
        <ele>46.6</ele>
        <time>2020-06-26T17:22:55Z</time>
      </trkpt>
      <trkpt lat="43.24672" lon="2.95324">
        <ele>46.6</ele>
        <time>2020-06-26T17:22:54Z</time>
      </trkpt>
      <trkpt lat="43.24671" lon="2.95324">
        <ele>46.6</ele>
        <time>2020-06-26T17:22:53Z</time>
      </trkpt>
      <trkpt lat="43.24666" lon="2.95319">
        <ele>46.6</ele>
        <time>2020-06-26T17:22:52Z</time>
      </trkpt>
      <trkpt lat="43.24665" lon="2.9532">
        <ele>46.6</ele>
        <time>2020-06-26T17:22:51Z</time>
      </trkpt>
      <trkpt lat="43.24666" lon="2.95322">
        <ele>46.4</ele>
        <time>2020-06-26T17:22:50Z</time>
      </trkpt>
      <trkpt lat="43.24664" lon="2.95323">
        <ele>46.4</ele>
        <time>2020-06-26T17:22:49Z</time>
      </trkpt>
      <trkpt lat="43.24662" lon="2.95324">
        <ele>46.4</ele>
        <time>2020-06-26T17:22:48Z</time>
      </trkpt>
      <trkpt lat="43.2466" lon="2.95324">
        <ele>46.2</ele>
        <time>2020-06-26T17:22:47Z</time>
      </trkpt>
      <trkpt lat="43.24659" lon="2.95325">
        <ele>46.2</ele>
        <time>2020-06-26T17:22:46Z</time>
      </trkpt>
      <trkpt lat="43.24659" lon="2.95325">
        <ele>46</ele>
        <time>2020-06-26T17:22:45Z</time>
      </trkpt>
      <trkpt lat="43.24661" lon="2.95324">
        <ele>46</ele>
        <time>2020-06-26T17:22:44Z</time>
      </trkpt>
      <trkpt lat="43.24659" lon="2.95325">
        <ele>45.8</ele>
        <time>2020-06-26T17:22:43Z</time>
      </trkpt>
      <trkpt lat="43.24657" lon="2.95322">
        <ele>45.8</ele>
        <time>2020-06-26T17:22:42Z</time>
      </trkpt>
      <trkpt lat="43.24651" lon="2.95316">
        <ele>45.6</ele>
        <time>2020-06-26T17:22:41Z</time>
      </trkpt>
      <trkpt lat="43.2465" lon="2.95316">
        <ele>45.4</ele>
        <time>2020-06-26T17:22:40Z</time>
      </trkpt>
      <trkpt lat="43.24652" lon="2.95321">
        <ele>45.4</ele>
        <time>2020-06-26T17:22:39Z</time>
      </trkpt>
      <trkpt lat="43.24647" lon="2.95315">
        <ele>45.2</ele>
        <time>2020-06-26T17:22:38Z</time>
      </trkpt>
      <trkpt lat="43.24645" lon="2.95315">
        <ele>45.2</ele>
        <time>2020-06-26T17:22:37Z</time>
      </trkpt>
      <trkpt lat="43.24648" lon="2.95319">
        <ele>45.2</ele>
        <time>2020-06-26T17:22:36Z</time>
      </trkpt>
      <trkpt lat="43.24647" lon="2.95322">
        <ele>45.2</ele>
        <time>2020-06-26T17:22:35Z</time>
      </trkpt>
      <trkpt lat="43.2465" lon="2.95323">
        <ele>45.2</ele>
        <time>2020-06-26T17:22:34Z</time>
      </trkpt>
      <trkpt lat="43.24651" lon="2.95324">
        <ele>45.2</ele>
        <time>2020-06-26T17:22:33Z</time>
      </trkpt>
      <trkpt lat="43.24656" lon="2.95328">
        <ele>45.4</ele>
        <time>2020-06-26T17:22:32Z</time>
      </trkpt>
      <trkpt lat="43.24656" lon="2.95329">
        <ele>45.4</ele>
        <time>2020-06-26T17:22:31Z</time>
      </trkpt>
      <trkpt lat="43.24657" lon="2.95328">
        <ele>45.2</ele>
        <time>2020-06-26T17:22:30Z</time>
      </trkpt>
      <trkpt lat="43.24656" lon="2.95329">
        <ele>45.2</ele>
        <time>2020-06-26T17:22:29Z</time>
      </trkpt>
      <trkpt lat="43.24655" lon="2.95328">
        <ele>45</ele>
        <time>2020-06-26T17:22:28Z</time>
      </trkpt>
      <trkpt lat="43.24655" lon="2.95327">
        <ele>45.2</ele>
        <time>2020-06-26T17:22:27Z</time>
      </trkpt>
      <trkpt lat="43.24653" lon="2.95328">
        <ele>45</ele>
        <time>2020-06-26T17:22:26Z</time>
      </trkpt>
      <trkpt lat="43.24652" lon="2.95329">
        <ele>45</ele>
        <time>2020-06-26T17:22:25Z</time>
      </trkpt>
      <trkpt lat="43.24652" lon="2.9533">
        <ele>45</ele>
        <time>2020-06-26T17:22:24Z</time>
      </trkpt>
      <trkpt lat="43.24652" lon="2.95331">
        <ele>45</ele>
        <time>2020-06-26T17:22:23Z</time>
      </trkpt>
      <trkpt lat="43.2465" lon="2.95332">
        <ele>44.8</ele>
        <time>2020-06-26T17:22:22Z</time>
      </trkpt>
      <trkpt lat="43.24651" lon="2.95333">
        <ele>44.8</ele>
        <time>2020-06-26T17:22:21Z</time>
      </trkpt>
      <trkpt lat="43.24651" lon="2.95335">
        <ele>44.6</ele>
        <time>2020-06-26T17:22:20Z</time>
      </trkpt>
      <trkpt lat="43.2465" lon="2.95336">
        <ele>44.6</ele>
        <time>2020-06-26T17:22:19Z</time>
      </trkpt>
      <trkpt lat="43.24649" lon="2.95335">
        <ele>44.6</ele>
        <time>2020-06-26T17:22:18Z</time>
      </trkpt>
      <trkpt lat="43.24646" lon="2.95332">
        <ele>44.6</ele>
        <time>2020-06-26T17:22:17Z</time>
      </trkpt>
      <trkpt lat="43.24648" lon="2.95329">
        <ele>44.6</ele>
        <time>2020-06-26T17:22:16Z</time>
      </trkpt>
      <trkpt lat="43.24649" lon="2.95327">
        <ele>44.6</ele>
        <time>2020-06-26T17:22:15Z</time>
      </trkpt>
      <trkpt lat="43.2465" lon="2.95329">
        <ele>44.8</ele>
        <time>2020-06-26T17:22:14Z</time>
      </trkpt>
      <trkpt lat="43.2465" lon="2.95328">
        <ele>44.6</ele>
        <time>2020-06-26T17:22:13Z</time>
      </trkpt>
      <trkpt lat="43.2465" lon="2.95328">
        <ele>44.6</ele>
        <time>2020-06-26T17:22:12Z</time>
      </trkpt>
      <trkpt lat="43.24649" lon="2.95329">
        <ele>44.6</ele>
        <time>2020-06-26T17:22:11Z</time>
      </trkpt>
      <trkpt lat="43.2465" lon="2.95331">
        <ele>44.6</ele>
        <time>2020-06-26T17:22:10Z</time>
      </trkpt>
      <trkpt lat="43.24651" lon="2.95331">
        <ele>44.6</ele>
        <time>2020-06-26T17:22:09Z</time>
      </trkpt>
      <trkpt lat="43.24651" lon="2.95331">
        <ele>44.6</ele>
        <time>2020-06-26T17:22:08Z</time>
      </trkpt>
      <trkpt lat="43.24652" lon="2.95333">
        <ele>44.6</ele>
        <time>2020-06-26T17:22:07Z</time>
      </trkpt>
      <trkpt lat="43.24652" lon="2.95336">
        <ele>44.6</ele>
        <time>2020-06-26T17:22:06Z</time>
      </trkpt>
      <trkpt lat="43.24652" lon="2.95339">
        <ele>44.6</ele>
        <time>2020-06-26T17:22:05Z</time>
      </trkpt>
      <trkpt lat="43.24656" lon="2.95339">
        <ele>44.6</ele>
        <time>2020-06-26T17:22:04Z</time>
      </trkpt>
      <trkpt lat="43.24656" lon="2.9534">
        <ele>44.6</ele>
        <time>2020-06-26T17:22:03Z</time>
      </trkpt>
      <trkpt lat="43.24655" lon="2.9534">
        <ele>44.6</ele>
        <time>2020-06-26T17:22:02Z</time>
      </trkpt>
      <trkpt lat="43.24655" lon="2.95339">
        <ele>44.4</ele>
        <time>2020-06-26T17:22:01Z</time>
      </trkpt>
      <trkpt lat="43.24655" lon="2.95339">
        <ele>44.4</ele>
        <time>2020-06-26T17:22:00Z</time>
      </trkpt>
      <trkpt lat="43.24648" lon="2.95325">
        <ele>44.6</ele>
        <time>2020-06-26T17:21:31Z</time>
      </trkpt>
      <trkpt lat="43.24649" lon="2.95325">
        <ele>44.6</ele>
        <time>2020-06-26T17:21:30Z</time>
      </trkpt>
      <trkpt lat="43.24649" lon="2.95328">
        <ele>44.6</ele>
        <time>2020-06-26T17:21:29Z</time>
      </trkpt>
      <trkpt lat="43.24649" lon="2.9533">
        <ele>44.6</ele>
        <time>2020-06-26T17:21:28Z</time>
      </trkpt>
      <trkpt lat="43.24649" lon="2.95332">
        <ele>44.6</ele>
        <time>2020-06-26T17:21:27Z</time>
      </trkpt>
      <trkpt lat="43.24649" lon="2.95336">
        <ele>44.6</ele>
        <time>2020-06-26T17:21:26Z</time>
      </trkpt>
      <trkpt lat="43.24649" lon="2.95335">
        <ele>44.6</ele>
        <time>2020-06-26T17:21:25Z</time>
      </trkpt>
      <trkpt lat="43.24649" lon="2.95336">
        <ele>44.6</ele>
        <time>2020-06-26T17:21:24Z</time>
      </trkpt>
      <trkpt lat="43.24649" lon="2.95336">
        <ele>44.6</ele>
        <time>2020-06-26T17:21:23Z</time>
      </trkpt>
      <trkpt lat="43.24647" lon="2.95331">
        <ele>44.6</ele>
        <time>2020-06-26T17:21:22Z</time>
      </trkpt>
      <trkpt lat="43.2465" lon="2.9533">
        <ele>44.6</ele>
        <time>2020-06-26T17:21:21Z</time>
      </trkpt>
      <trkpt lat="43.2465" lon="2.9533">
        <ele>44.6</ele>
        <time>2020-06-26T17:21:20Z</time>
      </trkpt>
      <trkpt lat="43.2465" lon="2.95325">
        <ele>44.6</ele>
        <time>2020-06-26T17:21:19Z</time>
      </trkpt>
      <trkpt lat="43.24654" lon="2.95329">
        <ele>44.8</ele>
        <time>2020-06-26T17:21:18Z</time>
      </trkpt>
      <trkpt lat="43.24655" lon="2.95326">
        <ele>45</ele>
        <time>2020-06-26T17:21:17Z</time>
      </trkpt>
      <trkpt lat="43.24655" lon="2.95324">
        <ele>45.2</ele>
        <time>2020-06-26T17:21:16Z</time>
      </trkpt>
      <trkpt lat="43.24656" lon="2.95324">
        <ele>45.6</ele>
        <time>2020-06-26T17:21:15Z</time>
      </trkpt>
      <trkpt lat="43.24656" lon="2.95323">
        <ele>45.8</ele>
        <time>2020-06-26T17:21:14Z</time>
      </trkpt>
      <trkpt lat="43.24658" lon="2.95323">
        <ele>46</ele>
        <time>2020-06-26T17:21:13Z</time>
      </trkpt>
      <trkpt lat="43.24659" lon="2.95321">
        <ele>46.2</ele>
        <time>2020-06-26T17:21:12Z</time>
      </trkpt>
      <trkpt lat="43.24661" lon="2.9532">
        <ele>46.2</ele>
        <time>2020-06-26T17:21:11Z</time>
      </trkpt>
      <trkpt lat="43.24663" lon="2.95321">
        <ele>46.4</ele>
        <time>2020-06-26T17:21:10Z</time>
      </trkpt>
      <trkpt lat="43.24664" lon="2.9532">
        <ele>46.4</ele>
        <time>2020-06-26T17:21:09Z</time>
      </trkpt>
      <trkpt lat="43.24666" lon="2.95321">
        <ele>46.4</ele>
        <time>2020-06-26T17:21:08Z</time>
      </trkpt>
      <trkpt lat="43.24667" lon="2.9532">
        <ele>46.4</ele>
        <time>2020-06-26T17:21:07Z</time>
      </trkpt>
      <trkpt lat="43.24668" lon="2.9532">
        <ele>46.4</ele>
        <time>2020-06-26T17:21:06Z</time>
      </trkpt>
      <trkpt lat="43.2467" lon="2.95318">
        <ele>46.6</ele>
        <time>2020-06-26T17:21:05Z</time>
      </trkpt>
      <trkpt lat="43.24672" lon="2.95319">
        <ele>46.6</ele>
        <time>2020-06-26T17:21:04Z</time>
      </trkpt>
      <trkpt lat="43.24674" lon="2.9532">
        <ele>46.6</ele>
        <time>2020-06-26T17:21:03Z</time>
      </trkpt>
      <trkpt lat="43.24673" lon="2.95322">
        <ele>46.6</ele>
        <time>2020-06-26T17:21:02Z</time>
      </trkpt>
      <trkpt lat="43.24674" lon="2.95325">
        <ele>46.6</ele>
        <time>2020-06-26T17:21:01Z</time>
      </trkpt>
      <trkpt lat="43.24675" lon="2.95328">
        <ele>46.6</ele>
        <time>2020-06-26T17:21:00Z</time>
      </trkpt>
      <trkpt lat="43.24675" lon="2.9533">
        <ele>46.6</ele>
        <time>2020-06-26T17:20:59Z</time>
      </trkpt>
      <trkpt lat="43.24675" lon="2.95334">
        <ele>46.6</ele>
        <time>2020-06-26T17:20:58Z</time>
      </trkpt>
      <trkpt lat="43.24674" lon="2.95335">
        <ele>46.6</ele>
        <time>2020-06-26T17:20:57Z</time>
      </trkpt>
      <trkpt lat="43.24676" lon="2.95338">
        <ele>46.6</ele>
        <time>2020-06-26T17:20:56Z</time>
      </trkpt>
      <trkpt lat="43.24677" lon="2.95339">
        <ele>46.6</ele>
        <time>2020-06-26T17:20:55Z</time>
      </trkpt>
      <trkpt lat="43.24679" lon="2.95343">
        <ele>46.6</ele>
        <time>2020-06-26T17:20:54Z</time>
      </trkpt>
      <trkpt lat="43.24678" lon="2.95345">
        <ele>46.6</ele>
        <time>2020-06-26T17:20:53Z</time>
      </trkpt>
      <trkpt lat="43.24676" lon="2.95346">
        <ele>46.6</ele>
        <time>2020-06-26T17:20:52Z</time>
      </trkpt>
      <trkpt lat="43.24675" lon="2.95348">
        <ele>46.6</ele>
        <time>2020-06-26T17:20:51Z</time>
      </trkpt>
      <trkpt lat="43.24671" lon="2.95348">
        <ele>46.8</ele>
        <time>2020-06-26T17:20:50Z</time>
      </trkpt>
      <trkpt lat="43.24673" lon="2.95345">
        <ele>46.6</ele>
        <time>2020-06-26T17:20:49Z</time>
      </trkpt>
      <trkpt lat="43.24674" lon="2.95343">
        <ele>46.6</ele>
        <time>2020-06-26T17:20:48Z</time>
      </trkpt>
      <trkpt lat="43.24674" lon="2.95338">
        <ele>46.6</ele>
        <time>2020-06-26T17:20:47Z</time>
      </trkpt>
      <trkpt lat="43.24676" lon="2.95335">
        <ele>46.6</ele>
        <time>2020-06-26T17:20:46Z</time>
      </trkpt>
      <trkpt lat="43.24676" lon="2.95331">
        <ele>46.6</ele>
        <time>2020-06-26T17:20:45Z</time>
      </trkpt>
      <trkpt lat="43.24675" lon="2.95326">
        <ele>46.6</ele>
        <time>2020-06-26T17:20:44Z</time>
      </trkpt>
      <trkpt lat="43.24674" lon="2.95321">
        <ele>46.6</ele>
        <time>2020-06-26T17:20:43Z</time>
      </trkpt>
      <trkpt lat="43.24673" lon="2.95315">
        <ele>46.6</ele>
        <time>2020-06-26T17:20:42Z</time>
      </trkpt>
      <trkpt lat="43.24672" lon="2.95312">
        <ele>46.6</ele>
        <time>2020-06-26T17:20:41Z</time>
      </trkpt>
      <trkpt lat="43.24673" lon="2.95308">
        <ele>46.6</ele>
        <time>2020-06-26T17:20:40Z</time>
      </trkpt>
      <trkpt lat="43.24672" lon="2.95303">
        <ele>46.6</ele>
        <time>2020-06-26T17:20:39Z</time>
      </trkpt>
      <trkpt lat="43.24671" lon="2.95297">
        <ele>46.6</ele>
        <time>2020-06-26T17:20:38Z</time>
      </trkpt>
      <trkpt lat="43.24672" lon="2.95291">
        <ele>46.6</ele>
        <time>2020-06-26T17:20:37Z</time>
      </trkpt>
      <trkpt lat="43.24672" lon="2.95286">
        <ele>46.6</ele>
        <time>2020-06-26T17:20:36Z</time>
      </trkpt>
      <trkpt lat="43.24673" lon="2.95282">
        <ele>46.8</ele>
        <time>2020-06-26T17:20:35Z</time>
      </trkpt>
      <trkpt lat="43.24673" lon="2.95277">
        <ele>46.8</ele>
        <time>2020-06-26T17:20:34Z</time>
      </trkpt>
      <trkpt lat="43.24674" lon="2.95271">
        <ele>46.8</ele>
        <time>2020-06-26T17:20:33Z</time>
      </trkpt>
      <trkpt lat="43.24673" lon="2.95266">
        <ele>46.8</ele>
        <time>2020-06-26T17:20:32Z</time>
      </trkpt>
      <trkpt lat="43.24674" lon="2.9526">
        <ele>46.8</ele>
        <time>2020-06-26T17:20:31Z</time>
      </trkpt>
      <trkpt lat="43.24676" lon="2.95254">
        <ele>46.8</ele>
        <time>2020-06-26T17:20:30Z</time>
      </trkpt>
      <trkpt lat="43.24677" lon="2.95247">
        <ele>46.8</ele>
        <time>2020-06-26T17:20:29Z</time>
      </trkpt>
      <trkpt lat="43.24677" lon="2.9524">
        <ele>46.8</ele>
        <time>2020-06-26T17:20:28Z</time>
      </trkpt>
      <trkpt lat="43.24678" lon="2.95234">
        <ele>47</ele>
        <time>2020-06-26T17:20:27Z</time>
      </trkpt>
      <trkpt lat="43.2468" lon="2.95229">
        <ele>47</ele>
        <time>2020-06-26T17:20:26Z</time>
      </trkpt>
      <trkpt lat="43.24679" lon="2.95226">
        <ele>47</ele>
        <time>2020-06-26T17:20:25Z</time>
      </trkpt>
      <trkpt lat="43.24681" lon="2.9522">
        <ele>47</ele>
        <time>2020-06-26T17:20:24Z</time>
      </trkpt>
      <trkpt lat="43.24683" lon="2.95216">
        <ele>47.2</ele>
        <time>2020-06-26T17:20:23Z</time>
      </trkpt>
      <trkpt lat="43.24684" lon="2.95211">
        <ele>47.2</ele>
        <time>2020-06-26T17:20:22Z</time>
      </trkpt>
      <trkpt lat="43.24685" lon="2.95206">
        <ele>47.2</ele>
        <time>2020-06-26T17:20:21Z</time>
      </trkpt>
      <trkpt lat="43.24685" lon="2.95203">
        <ele>47.2</ele>
        <time>2020-06-26T17:20:20Z</time>
      </trkpt>
      <trkpt lat="43.24685" lon="2.95199">
        <ele>47.2</ele>
        <time>2020-06-26T17:20:19Z</time>
      </trkpt>
      <trkpt lat="43.24685" lon="2.95194">
        <ele>47.2</ele>
        <time>2020-06-26T17:20:18Z</time>
      </trkpt>
      <trkpt lat="43.24687" lon="2.95188">
        <ele>47.2</ele>
        <time>2020-06-26T17:20:17Z</time>
      </trkpt>
      <trkpt lat="43.24688" lon="2.95185">
        <ele>47.2</ele>
        <time>2020-06-26T17:20:16Z</time>
      </trkpt>
      <trkpt lat="43.24689" lon="2.95181">
        <ele>47.2</ele>
        <time>2020-06-26T17:20:15Z</time>
      </trkpt>
      <trkpt lat="43.24692" lon="2.95178">
        <ele>47.2</ele>
        <time>2020-06-26T17:20:14Z</time>
      </trkpt>
      <trkpt lat="43.24694" lon="2.95174">
        <ele>47.2</ele>
        <time>2020-06-26T17:20:13Z</time>
      </trkpt>
      <trkpt lat="43.24699" lon="2.9517">
        <ele>47.2</ele>
        <time>2020-06-26T17:20:12Z</time>
      </trkpt>
      <trkpt lat="43.24702" lon="2.95168">
        <ele>47.2</ele>
        <time>2020-06-26T17:20:11Z</time>
      </trkpt>
      <trkpt lat="43.24705" lon="2.95166">
        <ele>47.2</ele>
        <time>2020-06-26T17:20:10Z</time>
      </trkpt>
      <trkpt lat="43.24708" lon="2.95163">
        <ele>47.2</ele>
        <time>2020-06-26T17:20:09Z</time>
      </trkpt>
      <trkpt lat="43.24713" lon="2.95161">
        <ele>47.4</ele>
        <time>2020-06-26T17:20:08Z</time>
      </trkpt>
      <trkpt lat="43.24715" lon="2.95156">
        <ele>47.4</ele>
        <time>2020-06-26T17:20:07Z</time>
      </trkpt>
      <trkpt lat="43.24719" lon="2.9515">
        <ele>47.4</ele>
        <time>2020-06-26T17:20:06Z</time>
      </trkpt>
      <trkpt lat="43.24723" lon="2.95148">
        <ele>47.4</ele>
        <time>2020-06-26T17:20:05Z</time>
      </trkpt>
      <trkpt lat="43.24727" lon="2.95145">
        <ele>47.6</ele>
        <time>2020-06-26T17:20:04Z</time>
      </trkpt>
      <trkpt lat="43.2473" lon="2.95144">
        <ele>47.6</ele>
        <time>2020-06-26T17:20:03Z</time>
      </trkpt>
      <trkpt lat="43.24734" lon="2.95143">
        <ele>47.6</ele>
        <time>2020-06-26T17:20:02Z</time>
      </trkpt>
      <trkpt lat="43.24737" lon="2.95141">
        <ele>47.6</ele>
        <time>2020-06-26T17:20:01Z</time>
      </trkpt>
      <trkpt lat="43.24741" lon="2.9514">
        <ele>47.6</ele>
        <time>2020-06-26T17:20:00Z</time>
      </trkpt>
      <trkpt lat="43.24743" lon="2.95138">
        <ele>47.8</ele>
        <time>2020-06-26T17:19:59Z</time>
      </trkpt>
      <trkpt lat="43.24746" lon="2.95135">
        <ele>47.8</ele>
        <time>2020-06-26T17:19:58Z</time>
      </trkpt>
      <trkpt lat="43.24749" lon="2.95134">
        <ele>47.8</ele>
        <time>2020-06-26T17:19:57Z</time>
      </trkpt>
      <trkpt lat="43.24754" lon="2.95131">
        <ele>47.8</ele>
        <time>2020-06-26T17:19:56Z</time>
      </trkpt>
      <trkpt lat="43.24758" lon="2.95128">
        <ele>47.8</ele>
        <time>2020-06-26T17:19:55Z</time>
      </trkpt>
      <trkpt lat="43.24761" lon="2.95124">
        <ele>47.8</ele>
        <time>2020-06-26T17:19:54Z</time>
      </trkpt>
      <trkpt lat="43.24763" lon="2.95122">
        <ele>47.8</ele>
        <time>2020-06-26T17:19:53Z</time>
      </trkpt>
      <trkpt lat="43.24766" lon="2.95119">
        <ele>47.8</ele>
        <time>2020-06-26T17:19:52Z</time>
      </trkpt>
      <trkpt lat="43.24769" lon="2.95118">
        <ele>47.8</ele>
        <time>2020-06-26T17:19:51Z</time>
      </trkpt>
      <trkpt lat="43.24773" lon="2.95115">
        <ele>47.8</ele>
        <time>2020-06-26T17:19:50Z</time>
      </trkpt>
      <trkpt lat="43.24778" lon="2.95112">
        <ele>47.8</ele>
        <time>2020-06-26T17:19:49Z</time>
      </trkpt>
      <trkpt lat="43.2478" lon="2.9511">
        <ele>47.8</ele>
        <time>2020-06-26T17:19:48Z</time>
      </trkpt>
      <trkpt lat="43.24783" lon="2.95108">
        <ele>47.8</ele>
        <time>2020-06-26T17:19:47Z</time>
      </trkpt>
      <trkpt lat="43.24787" lon="2.95105">
        <ele>48</ele>
        <time>2020-06-26T17:19:46Z</time>
      </trkpt>
      <trkpt lat="43.24791" lon="2.95101">
        <ele>47.8</ele>
        <time>2020-06-26T17:19:45Z</time>
      </trkpt>
      <trkpt lat="43.24794" lon="2.95098">
        <ele>47.8</ele>
        <time>2020-06-26T17:19:44Z</time>
      </trkpt>
      <trkpt lat="43.24798" lon="2.95095">
        <ele>47.8</ele>
        <time>2020-06-26T17:19:43Z</time>
      </trkpt>
      <trkpt lat="43.24803" lon="2.95092">
        <ele>47.8</ele>
        <time>2020-06-26T17:19:42Z</time>
      </trkpt>
      <trkpt lat="43.24807" lon="2.95089">
        <ele>47.8</ele>
        <time>2020-06-26T17:19:41Z</time>
      </trkpt>
      <trkpt lat="43.2481" lon="2.95086">
        <ele>47.8</ele>
        <time>2020-06-26T17:19:40Z</time>
      </trkpt>
      <trkpt lat="43.24814" lon="2.95083">
        <ele>47.8</ele>
        <time>2020-06-26T17:19:39Z</time>
      </trkpt>
      <trkpt lat="43.24816" lon="2.95081">
        <ele>47.8</ele>
        <time>2020-06-26T17:19:38Z</time>
      </trkpt>
      <trkpt lat="43.24819" lon="2.95078">
        <ele>47.8</ele>
        <time>2020-06-26T17:19:37Z</time>
      </trkpt>
      <trkpt lat="43.24822" lon="2.95076">
        <ele>47.8</ele>
        <time>2020-06-26T17:19:36Z</time>
      </trkpt>
      <trkpt lat="43.24827" lon="2.95074">
        <ele>47.8</ele>
        <time>2020-06-26T17:19:35Z</time>
      </trkpt>
      <trkpt lat="43.24831" lon="2.95072">
        <ele>47.8</ele>
        <time>2020-06-26T17:19:34Z</time>
      </trkpt>
      <trkpt lat="43.24835" lon="2.9507">
        <ele>47.8</ele>
        <time>2020-06-26T17:19:33Z</time>
      </trkpt>
      <trkpt lat="43.24838" lon="2.95066">
        <ele>47.8</ele>
        <time>2020-06-26T17:19:32Z</time>
      </trkpt>
      <trkpt lat="43.24842" lon="2.95063">
        <ele>48</ele>
        <time>2020-06-26T17:19:31Z</time>
      </trkpt>
      <trkpt lat="43.24845" lon="2.95061">
        <ele>48</ele>
        <time>2020-06-26T17:19:30Z</time>
      </trkpt>
      <trkpt lat="43.24848" lon="2.95057">
        <ele>48</ele>
        <time>2020-06-26T17:19:29Z</time>
      </trkpt>
      <trkpt lat="43.24851" lon="2.95055">
        <ele>48</ele>
        <time>2020-06-26T17:19:28Z</time>
      </trkpt>
      <trkpt lat="43.24854" lon="2.95051">
        <ele>48</ele>
        <time>2020-06-26T17:19:27Z</time>
      </trkpt>
      <trkpt lat="43.24857" lon="2.95049">
        <ele>48</ele>
        <time>2020-06-26T17:19:26Z</time>
      </trkpt>
      <trkpt lat="43.24862" lon="2.95048">
        <ele>48</ele>
        <time>2020-06-26T17:19:25Z</time>
      </trkpt>
      <trkpt lat="43.24866" lon="2.95046">
        <ele>48</ele>
        <time>2020-06-26T17:19:24Z</time>
      </trkpt>
      <trkpt lat="43.24869" lon="2.95044">
        <ele>48</ele>
        <time>2020-06-26T17:19:23Z</time>
      </trkpt>
      <trkpt lat="43.24873" lon="2.95042">
        <ele>48</ele>
        <time>2020-06-26T17:19:22Z</time>
      </trkpt>
      <trkpt lat="43.24877" lon="2.95039">
        <ele>48</ele>
        <time>2020-06-26T17:19:21Z</time>
      </trkpt>
      <trkpt lat="43.24881" lon="2.95037">
        <ele>48</ele>
        <time>2020-06-26T17:19:20Z</time>
      </trkpt>
      <trkpt lat="43.24885" lon="2.95035">
        <ele>48</ele>
        <time>2020-06-26T17:19:19Z</time>
      </trkpt>
      <trkpt lat="43.24889" lon="2.95034">
        <ele>48</ele>
        <time>2020-06-26T17:19:18Z</time>
      </trkpt>
      <trkpt lat="43.24893" lon="2.95031">
        <ele>48</ele>
        <time>2020-06-26T17:19:17Z</time>
      </trkpt>
      <trkpt lat="43.24897" lon="2.95028">
        <ele>48</ele>
        <time>2020-06-26T17:19:16Z</time>
      </trkpt>
      <trkpt lat="43.249" lon="2.95027">
        <ele>48</ele>
        <time>2020-06-26T17:19:15Z</time>
      </trkpt>
      <trkpt lat="43.24904" lon="2.95026">
        <ele>48</ele>
        <time>2020-06-26T17:19:14Z</time>
      </trkpt>
      <trkpt lat="43.24908" lon="2.95024">
        <ele>48</ele>
        <time>2020-06-26T17:19:13Z</time>
      </trkpt>
      <trkpt lat="43.24911" lon="2.95022">
        <ele>48</ele>
        <time>2020-06-26T17:19:12Z</time>
      </trkpt>
      <trkpt lat="43.24915" lon="2.95021">
        <ele>48</ele>
        <time>2020-06-26T17:19:11Z</time>
      </trkpt>
      <trkpt lat="43.24919" lon="2.95021">
        <ele>48</ele>
        <time>2020-06-26T17:19:10Z</time>
      </trkpt>
      <trkpt lat="43.24923" lon="2.95019">
        <ele>48</ele>
        <time>2020-06-26T17:19:09Z</time>
      </trkpt>
      <trkpt lat="43.24928" lon="2.95017">
        <ele>48</ele>
        <time>2020-06-26T17:19:08Z</time>
      </trkpt>
      <trkpt lat="43.24932" lon="2.95015">
        <ele>47.8</ele>
        <time>2020-06-26T17:19:07Z</time>
      </trkpt>
      <trkpt lat="43.24936" lon="2.95014">
        <ele>47.8</ele>
        <time>2020-06-26T17:19:06Z</time>
      </trkpt>
      <trkpt lat="43.24939" lon="2.95013">
        <ele>47.8</ele>
        <time>2020-06-26T17:19:05Z</time>
      </trkpt>
      <trkpt lat="43.24944" lon="2.95012">
        <ele>47.8</ele>
        <time>2020-06-26T17:19:04Z</time>
      </trkpt>
      <trkpt lat="43.24948" lon="2.95011">
        <ele>48</ele>
        <time>2020-06-26T17:19:03Z</time>
      </trkpt>
      <trkpt lat="43.24951" lon="2.9501">
        <ele>48</ele>
        <time>2020-06-26T17:19:02Z</time>
      </trkpt>
      <trkpt lat="43.24955" lon="2.95008">
        <ele>48</ele>
        <time>2020-06-26T17:19:01Z</time>
      </trkpt>
      <trkpt lat="43.24959" lon="2.95007">
        <ele>48</ele>
        <time>2020-06-26T17:19:00Z</time>
      </trkpt>
      <trkpt lat="43.24963" lon="2.95007">
        <ele>48</ele>
        <time>2020-06-26T17:18:59Z</time>
      </trkpt>
      <trkpt lat="43.24967" lon="2.95006">
        <ele>48</ele>
        <time>2020-06-26T17:18:58Z</time>
      </trkpt>
      <trkpt lat="43.24972" lon="2.95005">
        <ele>48</ele>
        <time>2020-06-26T17:18:57Z</time>
      </trkpt>
      <trkpt lat="43.24976" lon="2.95004">
        <ele>48</ele>
        <time>2020-06-26T17:18:56Z</time>
      </trkpt>
      <trkpt lat="43.24981" lon="2.95004">
        <ele>48</ele>
        <time>2020-06-26T17:18:55Z</time>
      </trkpt>
      <trkpt lat="43.24985" lon="2.95003">
        <ele>48</ele>
        <time>2020-06-26T17:18:54Z</time>
      </trkpt>
      <trkpt lat="43.2499" lon="2.95001">
        <ele>47.8</ele>
        <time>2020-06-26T17:18:53Z</time>
      </trkpt>
      <trkpt lat="43.24994" lon="2.95">
        <ele>47.8</ele>
        <time>2020-06-26T17:18:52Z</time>
      </trkpt>
      <trkpt lat="43.24999" lon="2.94998">
        <ele>47.8</ele>
        <time>2020-06-26T17:18:51Z</time>
      </trkpt>
      <trkpt lat="43.25003" lon="2.94997">
        <ele>47.8</ele>
        <time>2020-06-26T17:18:50Z</time>
      </trkpt>
      <trkpt lat="43.25007" lon="2.94996">
        <ele>47.8</ele>
        <time>2020-06-26T17:18:49Z</time>
      </trkpt>
      <trkpt lat="43.25012" lon="2.94995">
        <ele>47.8</ele>
        <time>2020-06-26T17:18:48Z</time>
      </trkpt>
      <trkpt lat="43.25016" lon="2.94993">
        <ele>47.8</ele>
        <time>2020-06-26T17:18:47Z</time>
      </trkpt>
      <trkpt lat="43.2502" lon="2.94992">
        <ele>47.8</ele>
        <time>2020-06-26T17:18:46Z</time>
      </trkpt>
      <trkpt lat="43.25024" lon="2.9499">
        <ele>47.8</ele>
        <time>2020-06-26T17:18:45Z</time>
      </trkpt>
      <trkpt lat="43.25027" lon="2.9499">
        <ele>48</ele>
        <time>2020-06-26T17:18:44Z</time>
      </trkpt>
      <trkpt lat="43.25032" lon="2.94988">
        <ele>48</ele>
        <time>2020-06-26T17:18:43Z</time>
      </trkpt>
      <trkpt lat="43.25037" lon="2.94988">
        <ele>47.8</ele>
        <time>2020-06-26T17:18:42Z</time>
      </trkpt>
      <trkpt lat="43.25041" lon="2.94987">
        <ele>47.8</ele>
        <time>2020-06-26T17:18:41Z</time>
      </trkpt>
      <trkpt lat="43.25045" lon="2.94985">
        <ele>47.6</ele>
        <time>2020-06-26T17:18:40Z</time>
      </trkpt>
      <trkpt lat="43.25049" lon="2.94983">
        <ele>47.6</ele>
        <time>2020-06-26T17:18:39Z</time>
      </trkpt>
      <trkpt lat="43.25052" lon="2.94981">
        <ele>47.6</ele>
        <time>2020-06-26T17:18:38Z</time>
      </trkpt>
      <trkpt lat="43.25057" lon="2.9498">
        <ele>47.8</ele>
        <time>2020-06-26T17:18:37Z</time>
      </trkpt>
      <trkpt lat="43.25061" lon="2.94979">
        <ele>47.8</ele>
        <time>2020-06-26T17:18:36Z</time>
      </trkpt>
      <trkpt lat="43.25064" lon="2.94979">
        <ele>47.6</ele>
        <time>2020-06-26T17:18:35Z</time>
      </trkpt>
      <trkpt lat="43.25066" lon="2.94976">
        <ele>47.8</ele>
        <time>2020-06-26T17:18:34Z</time>
      </trkpt>
      <trkpt lat="43.25071" lon="2.94976">
        <ele>47.6</ele>
        <time>2020-06-26T17:18:33Z</time>
      </trkpt>
      <trkpt lat="43.25073" lon="2.94975">
        <ele>47.8</ele>
        <time>2020-06-26T17:18:32Z</time>
      </trkpt>
      <trkpt lat="43.25077" lon="2.94974">
        <ele>47.8</ele>
        <time>2020-06-26T17:18:31Z</time>
      </trkpt>
      <trkpt lat="43.25081" lon="2.94972">
        <ele>47.8</ele>
        <time>2020-06-26T17:18:30Z</time>
      </trkpt>
      <trkpt lat="43.25085" lon="2.94971">
        <ele>47.8</ele>
        <time>2020-06-26T17:18:29Z</time>
      </trkpt>
      <trkpt lat="43.25088" lon="2.9497">
        <ele>47.8</ele>
        <time>2020-06-26T17:18:28Z</time>
      </trkpt>
      <trkpt lat="43.25093" lon="2.94968">
        <ele>47.6</ele>
        <time>2020-06-26T17:18:27Z</time>
      </trkpt>
      <trkpt lat="43.25097" lon="2.94967">
        <ele>47.6</ele>
        <time>2020-06-26T17:18:26Z</time>
      </trkpt>
      <trkpt lat="43.25101" lon="2.94965">
        <ele>47.6</ele>
        <time>2020-06-26T17:18:25Z</time>
      </trkpt>
      <trkpt lat="43.25105" lon="2.94964">
        <ele>47.8</ele>
        <time>2020-06-26T17:18:24Z</time>
      </trkpt>
      <trkpt lat="43.2511" lon="2.94963">
        <ele>47.6</ele>
        <time>2020-06-26T17:18:23Z</time>
      </trkpt>
      <trkpt lat="43.25113" lon="2.94961">
        <ele>47.6</ele>
        <time>2020-06-26T17:18:22Z</time>
      </trkpt>
      <trkpt lat="43.25117" lon="2.9496">
        <ele>47.6</ele>
        <time>2020-06-26T17:18:21Z</time>
      </trkpt>
      <trkpt lat="43.25121" lon="2.94958">
        <ele>47.6</ele>
        <time>2020-06-26T17:18:20Z</time>
      </trkpt>
      <trkpt lat="43.25125" lon="2.94957">
        <ele>47.6</ele>
        <time>2020-06-26T17:18:19Z</time>
      </trkpt>
      <trkpt lat="43.25129" lon="2.94957">
        <ele>47.4</ele>
        <time>2020-06-26T17:18:18Z</time>
      </trkpt>
      <trkpt lat="43.25133" lon="2.94956">
        <ele>47.6</ele>
        <time>2020-06-26T17:18:17Z</time>
      </trkpt>
      <trkpt lat="43.25137" lon="2.94955">
        <ele>47.6</ele>
        <time>2020-06-26T17:18:16Z</time>
      </trkpt>
      <trkpt lat="43.25141" lon="2.94954">
        <ele>47.6</ele>
        <time>2020-06-26T17:18:15Z</time>
      </trkpt>
      <trkpt lat="43.25146" lon="2.94953">
        <ele>47.6</ele>
        <time>2020-06-26T17:18:14Z</time>
      </trkpt>
      <trkpt lat="43.2515" lon="2.94951">
        <ele>47.6</ele>
        <time>2020-06-26T17:18:13Z</time>
      </trkpt>
      <trkpt lat="43.25154" lon="2.9495">
        <ele>47.6</ele>
        <time>2020-06-26T17:18:12Z</time>
      </trkpt>
      <trkpt lat="43.25158" lon="2.94949">
        <ele>47.6</ele>
        <time>2020-06-26T17:18:11Z</time>
      </trkpt>
      <trkpt lat="43.25162" lon="2.94948">
        <ele>47.6</ele>
        <time>2020-06-26T17:18:10Z</time>
      </trkpt>
      <trkpt lat="43.25166" lon="2.94947">
        <ele>47.6</ele>
        <time>2020-06-26T17:18:09Z</time>
      </trkpt>
      <trkpt lat="43.2517" lon="2.94946">
        <ele>47.6</ele>
        <time>2020-06-26T17:18:08Z</time>
      </trkpt>
      <trkpt lat="43.25174" lon="2.94946">
        <ele>47.8</ele>
        <time>2020-06-26T17:18:07Z</time>
      </trkpt>
      <trkpt lat="43.25179" lon="2.94945">
        <ele>47.8</ele>
        <time>2020-06-26T17:18:06Z</time>
      </trkpt>
      <trkpt lat="43.25183" lon="2.94944">
        <ele>48</ele>
        <time>2020-06-26T17:18:05Z</time>
      </trkpt>
      <trkpt lat="43.25187" lon="2.94943">
        <ele>48</ele>
        <time>2020-06-26T17:18:04Z</time>
      </trkpt>
      <trkpt lat="43.25191" lon="2.94942">
        <ele>48</ele>
        <time>2020-06-26T17:18:03Z</time>
      </trkpt>
      <trkpt lat="43.25195" lon="2.9494">
        <ele>47.8</ele>
        <time>2020-06-26T17:18:02Z</time>
      </trkpt>
      <trkpt lat="43.25199" lon="2.9494">
        <ele>47.8</ele>
        <time>2020-06-26T17:18:01Z</time>
      </trkpt>
      <trkpt lat="43.25204" lon="2.94939">
        <ele>47.8</ele>
        <time>2020-06-26T17:18:00Z</time>
      </trkpt>
      <trkpt lat="43.25208" lon="2.94938">
        <ele>48</ele>
        <time>2020-06-26T17:17:59Z</time>
      </trkpt>
      <trkpt lat="43.25212" lon="2.94936">
        <ele>48</ele>
        <time>2020-06-26T17:17:58Z</time>
      </trkpt>
      <trkpt lat="43.25216" lon="2.94935">
        <ele>48</ele>
        <time>2020-06-26T17:17:57Z</time>
      </trkpt>
      <trkpt lat="43.25221" lon="2.94934">
        <ele>48</ele>
        <time>2020-06-26T17:17:56Z</time>
      </trkpt>
      <trkpt lat="43.25225" lon="2.94932">
        <ele>47.8</ele>
        <time>2020-06-26T17:17:55Z</time>
      </trkpt>
      <trkpt lat="43.25229" lon="2.94932">
        <ele>47.8</ele>
        <time>2020-06-26T17:17:54Z</time>
      </trkpt>
      <trkpt lat="43.25233" lon="2.94931">
        <ele>47.8</ele>
        <time>2020-06-26T17:17:53Z</time>
      </trkpt>
      <trkpt lat="43.25237" lon="2.9493">
        <ele>47.8</ele>
        <time>2020-06-26T17:17:52Z</time>
      </trkpt>
      <trkpt lat="43.25241" lon="2.94928">
        <ele>47.8</ele>
        <time>2020-06-26T17:17:51Z</time>
      </trkpt>
      <trkpt lat="43.25246" lon="2.94927">
        <ele>47.8</ele>
        <time>2020-06-26T17:17:50Z</time>
      </trkpt>
      <trkpt lat="43.2525" lon="2.94925">
        <ele>47.8</ele>
        <time>2020-06-26T17:17:49Z</time>
      </trkpt>
      <trkpt lat="43.25254" lon="2.94924">
        <ele>47.6</ele>
        <time>2020-06-26T17:17:48Z</time>
      </trkpt>
      <trkpt lat="43.25258" lon="2.94922">
        <ele>47.8</ele>
        <time>2020-06-26T17:17:47Z</time>
      </trkpt>
      <trkpt lat="43.25262" lon="2.94921">
        <ele>47.8</ele>
        <time>2020-06-26T17:17:46Z</time>
      </trkpt>
      <trkpt lat="43.25267" lon="2.9492">
        <ele>47.8</ele>
        <time>2020-06-26T17:17:45Z</time>
      </trkpt>
      <trkpt lat="43.25271" lon="2.94919">
        <ele>47.8</ele>
        <time>2020-06-26T17:17:44Z</time>
      </trkpt>
      <trkpt lat="43.25274" lon="2.94918">
        <ele>47.8</ele>
        <time>2020-06-26T17:17:43Z</time>
      </trkpt>
      <trkpt lat="43.25278" lon="2.94917">
        <ele>47.8</ele>
        <time>2020-06-26T17:17:42Z</time>
      </trkpt>
      <trkpt lat="43.25283" lon="2.94915">
        <ele>47.8</ele>
        <time>2020-06-26T17:17:41Z</time>
      </trkpt>
      <trkpt lat="43.25288" lon="2.94915">
        <ele>47.8</ele>
        <time>2020-06-26T17:17:40Z</time>
      </trkpt>
      <trkpt lat="43.25292" lon="2.94914">
        <ele>47.6</ele>
        <time>2020-06-26T17:17:39Z</time>
      </trkpt>
      <trkpt lat="43.25296" lon="2.94914">
        <ele>47.6</ele>
        <time>2020-06-26T17:17:38Z</time>
      </trkpt>
      <trkpt lat="43.253" lon="2.94913">
        <ele>47.6</ele>
        <time>2020-06-26T17:17:37Z</time>
      </trkpt>
      <trkpt lat="43.25304" lon="2.94913">
        <ele>47.6</ele>
        <time>2020-06-26T17:17:36Z</time>
      </trkpt>
      <trkpt lat="43.25308" lon="2.94913">
        <ele>47.6</ele>
        <time>2020-06-26T17:17:35Z</time>
      </trkpt>
      <trkpt lat="43.25313" lon="2.94913">
        <ele>47.6</ele>
        <time>2020-06-26T17:17:34Z</time>
      </trkpt>
      <trkpt lat="43.25317" lon="2.94912">
        <ele>47.6</ele>
        <time>2020-06-26T17:17:33Z</time>
      </trkpt>
      <trkpt lat="43.2532" lon="2.94911">
        <ele>47.8</ele>
        <time>2020-06-26T17:17:32Z</time>
      </trkpt>
      <trkpt lat="43.25324" lon="2.9491">
        <ele>47.8</ele>
        <time>2020-06-26T17:17:31Z</time>
      </trkpt>
      <trkpt lat="43.25328" lon="2.9491">
        <ele>47.8</ele>
        <time>2020-06-26T17:17:30Z</time>
      </trkpt>
      <trkpt lat="43.25331" lon="2.94909">
        <ele>47.8</ele>
        <time>2020-06-26T17:17:29Z</time>
      </trkpt>
      <trkpt lat="43.25335" lon="2.94909">
        <ele>47.8</ele>
        <time>2020-06-26T17:17:28Z</time>
      </trkpt>
      <trkpt lat="43.25338" lon="2.94908">
        <ele>48</ele>
        <time>2020-06-26T17:17:27Z</time>
      </trkpt>
      <trkpt lat="43.25342" lon="2.94907">
        <ele>47.8</ele>
        <time>2020-06-26T17:17:26Z</time>
      </trkpt>
      <trkpt lat="43.25346" lon="2.94907">
        <ele>47.8</ele>
        <time>2020-06-26T17:17:25Z</time>
      </trkpt>
      <trkpt lat="43.25349" lon="2.94907">
        <ele>47.6</ele>
        <time>2020-06-26T17:17:24Z</time>
      </trkpt>
      <trkpt lat="43.25351" lon="2.94906">
        <ele>47.6</ele>
        <time>2020-06-26T17:17:23Z</time>
      </trkpt>
      <trkpt lat="43.25354" lon="2.94906">
        <ele>47.6</ele>
        <time>2020-06-26T17:17:22Z</time>
      </trkpt>
      <trkpt lat="43.25358" lon="2.94907">
        <ele>47.6</ele>
        <time>2020-06-26T17:17:21Z</time>
      </trkpt>
      <trkpt lat="43.25362" lon="2.94908">
        <ele>47.6</ele>
        <time>2020-06-26T17:17:20Z</time>
      </trkpt>
      <trkpt lat="43.25365" lon="2.94907">
        <ele>47.8</ele>
        <time>2020-06-26T17:17:19Z</time>
      </trkpt>
      <trkpt lat="43.25368" lon="2.94906">
        <ele>47.8</ele>
        <time>2020-06-26T17:17:18Z</time>
      </trkpt>
      <trkpt lat="43.25372" lon="2.94906">
        <ele>47.6</ele>
        <time>2020-06-26T17:17:17Z</time>
      </trkpt>
      <trkpt lat="43.25375" lon="2.94906">
        <ele>47.6</ele>
        <time>2020-06-26T17:17:16Z</time>
      </trkpt>
      <trkpt lat="43.25379" lon="2.94906">
        <ele>47.6</ele>
        <time>2020-06-26T17:17:15Z</time>
      </trkpt>
      <trkpt lat="43.25383" lon="2.94905">
        <ele>47.6</ele>
        <time>2020-06-26T17:17:14Z</time>
      </trkpt>
      <trkpt lat="43.25388" lon="2.94905">
        <ele>47.6</ele>
        <time>2020-06-26T17:17:13Z</time>
      </trkpt>
      <trkpt lat="43.25392" lon="2.94904">
        <ele>47.6</ele>
        <time>2020-06-26T17:17:12Z</time>
      </trkpt>
      <trkpt lat="43.25396" lon="2.94904">
        <ele>47.6</ele>
        <time>2020-06-26T17:17:11Z</time>
      </trkpt>
      <trkpt lat="43.25401" lon="2.94902">
        <ele>47.6</ele>
        <time>2020-06-26T17:17:10Z</time>
      </trkpt>
      <trkpt lat="43.25407" lon="2.94902">
        <ele>47.6</ele>
        <time>2020-06-26T17:17:09Z</time>
      </trkpt>
      <trkpt lat="43.25412" lon="2.94902">
        <ele>47.6</ele>
        <time>2020-06-26T17:17:08Z</time>
      </trkpt>
      <trkpt lat="43.25418" lon="2.94902">
        <ele>47.6</ele>
        <time>2020-06-26T17:17:07Z</time>
      </trkpt>
      <trkpt lat="43.25423" lon="2.94901">
        <ele>48.2</ele>
        <time>2020-06-26T17:17:06Z</time>
      </trkpt>
      <trkpt lat="43.25427" lon="2.94901">
        <ele>49</ele>
        <time>2020-06-26T17:17:05Z</time>
      </trkpt>
      <trkpt lat="43.2543" lon="2.949">
        <ele>49.8</ele>
        <time>2020-06-26T17:17:04Z</time>
      </trkpt>
      <trkpt lat="43.25433" lon="2.949">
        <ele>50.2</ele>
        <time>2020-06-26T17:17:03Z</time>
      </trkpt>
      <trkpt lat="43.25435" lon="2.949">
        <ele>50.2</ele>
        <time>2020-06-26T17:17:02Z</time>
      </trkpt>
      <trkpt lat="43.25437" lon="2.949">
        <ele>50.2</ele>
        <time>2020-06-26T17:17:01Z</time>
      </trkpt>
      <trkpt lat="43.25439" lon="2.949">
        <ele>50.2</ele>
        <time>2020-06-26T17:17:00Z</time>
      </trkpt>
      <trkpt lat="43.25441" lon="2.949">
        <ele>50.2</ele>
        <time>2020-06-26T17:16:59Z</time>
      </trkpt>
      <trkpt lat="43.25443" lon="2.949">
        <ele>50.2</ele>
        <time>2020-06-26T17:16:58Z</time>
      </trkpt>
      <trkpt lat="43.25444" lon="2.94899">
        <ele>50</ele>
        <time>2020-06-26T17:16:57Z</time>
      </trkpt>
      <trkpt lat="43.25446" lon="2.94899">
        <ele>50</ele>
        <time>2020-06-26T17:16:56Z</time>
      </trkpt>
      <trkpt lat="43.25447" lon="2.949">
        <ele>50</ele>
        <time>2020-06-26T17:16:55Z</time>
      </trkpt>
      <trkpt lat="43.2545" lon="2.949">
        <ele>49.8</ele>
        <time>2020-06-26T17:16:54Z</time>
      </trkpt>
      <trkpt lat="43.25452" lon="2.94901">
        <ele>49.8</ele>
        <time>2020-06-26T17:16:53Z</time>
      </trkpt>
      <trkpt lat="43.25455" lon="2.94901">
        <ele>49.8</ele>
        <time>2020-06-26T17:16:52Z</time>
      </trkpt>
      <trkpt lat="43.25458" lon="2.94901">
        <ele>49.6</ele>
        <time>2020-06-26T17:16:51Z</time>
      </trkpt>
      <trkpt lat="43.2546" lon="2.949">
        <ele>49.6</ele>
        <time>2020-06-26T17:16:50Z</time>
      </trkpt>
      <trkpt lat="43.25463" lon="2.949">
        <ele>49.4</ele>
        <time>2020-06-26T17:16:49Z</time>
      </trkpt>
      <trkpt lat="43.25465" lon="2.949">
        <ele>49.2</ele>
        <time>2020-06-26T17:16:48Z</time>
      </trkpt>
      <trkpt lat="43.25468" lon="2.94901">
        <ele>49.4</ele>
        <time>2020-06-26T17:16:47Z</time>
      </trkpt>
      <trkpt lat="43.25471" lon="2.949">
        <ele>49.4</ele>
        <time>2020-06-26T17:16:46Z</time>
      </trkpt>
      <trkpt lat="43.25474" lon="2.949">
        <ele>49.4</ele>
        <time>2020-06-26T17:16:45Z</time>
      </trkpt>
      <trkpt lat="43.25477" lon="2.94901">
        <ele>49.4</ele>
        <time>2020-06-26T17:16:44Z</time>
      </trkpt>
      <trkpt lat="43.2548" lon="2.94901">
        <ele>49.4</ele>
        <time>2020-06-26T17:16:43Z</time>
      </trkpt>
      <trkpt lat="43.25482" lon="2.94901">
        <ele>49.4</ele>
        <time>2020-06-26T17:16:42Z</time>
      </trkpt>
      <trkpt lat="43.25483" lon="2.94901">
        <ele>49.2</ele>
        <time>2020-06-26T17:16:41Z</time>
      </trkpt>
      <trkpt lat="43.25485" lon="2.94901">
        <ele>49.2</ele>
        <time>2020-06-26T17:16:40Z</time>
      </trkpt>
      <trkpt lat="43.25486" lon="2.94901">
        <ele>49.2</ele>
        <time>2020-06-26T17:16:39Z</time>
      </trkpt>
      <trkpt lat="43.25488" lon="2.949">
        <ele>49.2</ele>
        <time>2020-06-26T17:16:38Z</time>
      </trkpt>
      <trkpt lat="43.25489" lon="2.94899">
        <ele>49.2</ele>
        <time>2020-06-26T17:16:37Z</time>
      </trkpt>
      <trkpt lat="43.2549" lon="2.94899">
        <ele>49</ele>
        <time>2020-06-26T17:16:36Z</time>
      </trkpt>
      <trkpt lat="43.25492" lon="2.94899">
        <ele>49</ele>
        <time>2020-06-26T17:16:35Z</time>
      </trkpt>
      <trkpt lat="43.25494" lon="2.94898">
        <ele>48.8</ele>
        <time>2020-06-26T17:16:34Z</time>
      </trkpt>
      <trkpt lat="43.25497" lon="2.94897">
        <ele>48.8</ele>
        <time>2020-06-26T17:16:33Z</time>
      </trkpt>
      <trkpt lat="43.25499" lon="2.94897">
        <ele>48.6</ele>
        <time>2020-06-26T17:16:32Z</time>
      </trkpt>
      <trkpt lat="43.25503" lon="2.94897">
        <ele>48.4</ele>
        <time>2020-06-26T17:16:31Z</time>
      </trkpt>
      <trkpt lat="43.25505" lon="2.94898">
        <ele>48.4</ele>
        <time>2020-06-26T17:16:30Z</time>
      </trkpt>
      <trkpt lat="43.25508" lon="2.94897">
        <ele>48.2</ele>
        <time>2020-06-26T17:16:29Z</time>
      </trkpt>
      <trkpt lat="43.2551" lon="2.94897">
        <ele>48</ele>
        <time>2020-06-26T17:16:28Z</time>
      </trkpt>
      <trkpt lat="43.25513" lon="2.94897">
        <ele>48</ele>
        <time>2020-06-26T17:16:27Z</time>
      </trkpt>
      <trkpt lat="43.25516" lon="2.94896">
        <ele>47.8</ele>
        <time>2020-06-26T17:16:26Z</time>
      </trkpt>
      <trkpt lat="43.25519" lon="2.94896">
        <ele>47.8</ele>
        <time>2020-06-26T17:16:25Z</time>
      </trkpt>
      <trkpt lat="43.25523" lon="2.94897">
        <ele>47.8</ele>
        <time>2020-06-26T17:16:24Z</time>
      </trkpt>
      <trkpt lat="43.25526" lon="2.94896">
        <ele>47.6</ele>
        <time>2020-06-26T17:16:23Z</time>
      </trkpt>
      <trkpt lat="43.2553" lon="2.94897">
        <ele>47.6</ele>
        <time>2020-06-26T17:16:22Z</time>
      </trkpt>
      <trkpt lat="43.25533" lon="2.94896">
        <ele>47.6</ele>
        <time>2020-06-26T17:16:21Z</time>
      </trkpt>
      <trkpt lat="43.25537" lon="2.94896">
        <ele>47.4</ele>
        <time>2020-06-26T17:16:20Z</time>
      </trkpt>
      <trkpt lat="43.2554" lon="2.94897">
        <ele>47.4</ele>
        <time>2020-06-26T17:16:19Z</time>
      </trkpt>
      <trkpt lat="43.25542" lon="2.94897">
        <ele>47.2</ele>
        <time>2020-06-26T17:16:18Z</time>
      </trkpt>
      <trkpt lat="43.25546" lon="2.94897">
        <ele>47.2</ele>
        <time>2020-06-26T17:16:17Z</time>
      </trkpt>
      <trkpt lat="43.2555" lon="2.94898">
        <ele>47</ele>
        <time>2020-06-26T17:16:16Z</time>
      </trkpt>
      <trkpt lat="43.25553" lon="2.94899">
        <ele>47</ele>
        <time>2020-06-26T17:16:15Z</time>
      </trkpt>
      <trkpt lat="43.25555" lon="2.94902">
        <ele>47</ele>
        <time>2020-06-26T17:16:14Z</time>
      </trkpt>
      <trkpt lat="43.25558" lon="2.94903">
        <ele>46.8</ele>
        <time>2020-06-26T17:16:13Z</time>
      </trkpt>
      <trkpt lat="43.25561" lon="2.94907">
        <ele>46.8</ele>
        <time>2020-06-26T17:16:12Z</time>
      </trkpt>
      <trkpt lat="43.25564" lon="2.94909">
        <ele>46.8</ele>
        <time>2020-06-26T17:16:11Z</time>
      </trkpt>
      <trkpt lat="43.25567" lon="2.94912">
        <ele>46.6</ele>
        <time>2020-06-26T17:16:10Z</time>
      </trkpt>
      <trkpt lat="43.25569" lon="2.94915">
        <ele>46.6</ele>
        <time>2020-06-26T17:16:09Z</time>
      </trkpt>
      <trkpt lat="43.25572" lon="2.94919">
        <ele>46.6</ele>
        <time>2020-06-26T17:16:08Z</time>
      </trkpt>
      <trkpt lat="43.25575" lon="2.94921">
        <ele>46.8</ele>
        <time>2020-06-26T17:16:07Z</time>
      </trkpt>
      <trkpt lat="43.25577" lon="2.94924">
        <ele>46.8</ele>
        <time>2020-06-26T17:16:06Z</time>
      </trkpt>
      <trkpt lat="43.25579" lon="2.94929">
        <ele>46.8</ele>
        <time>2020-06-26T17:16:05Z</time>
      </trkpt>
      <trkpt lat="43.25582" lon="2.94933">
        <ele>46.8</ele>
        <time>2020-06-26T17:16:04Z</time>
      </trkpt>
      <trkpt lat="43.25585" lon="2.94936">
        <ele>47</ele>
        <time>2020-06-26T17:16:03Z</time>
      </trkpt>
      <trkpt lat="43.25588" lon="2.94941">
        <ele>47</ele>
        <time>2020-06-26T17:16:02Z</time>
      </trkpt>
      <trkpt lat="43.25592" lon="2.94943">
        <ele>47</ele>
        <time>2020-06-26T17:16:01Z</time>
      </trkpt>
      <trkpt lat="43.25595" lon="2.94943">
        <ele>47.2</ele>
        <time>2020-06-26T17:16:00Z</time>
      </trkpt>
      <trkpt lat="43.256" lon="2.94945">
        <ele>47.4</ele>
        <time>2020-06-26T17:15:59Z</time>
      </trkpt>
      <trkpt lat="43.25604" lon="2.94949">
        <ele>47.4</ele>
        <time>2020-06-26T17:15:58Z</time>
      </trkpt>
      <trkpt lat="43.25609" lon="2.94951">
        <ele>47.4</ele>
        <time>2020-06-26T17:15:57Z</time>
      </trkpt>
      <trkpt lat="43.25613" lon="2.94952">
        <ele>47.4</ele>
        <time>2020-06-26T17:15:56Z</time>
      </trkpt>
      <trkpt lat="43.25618" lon="2.94954">
        <ele>47.6</ele>
        <time>2020-06-26T17:15:55Z</time>
      </trkpt>
      <trkpt lat="43.25623" lon="2.94955">
        <ele>47.8</ele>
        <time>2020-06-26T17:15:54Z</time>
      </trkpt>
      <trkpt lat="43.25627" lon="2.94956">
        <ele>47.8</ele>
        <time>2020-06-26T17:15:53Z</time>
      </trkpt>
      <trkpt lat="43.25631" lon="2.94956">
        <ele>47.8</ele>
        <time>2020-06-26T17:15:52Z</time>
      </trkpt>
      <trkpt lat="43.25636" lon="2.94957">
        <ele>48</ele>
        <time>2020-06-26T17:15:51Z</time>
      </trkpt>
      <trkpt lat="43.25641" lon="2.94958">
        <ele>47.8</ele>
        <time>2020-06-26T17:15:50Z</time>
      </trkpt>
      <trkpt lat="43.25645" lon="2.94959">
        <ele>48</ele>
        <time>2020-06-26T17:15:49Z</time>
      </trkpt>
      <trkpt lat="43.2565" lon="2.94961">
        <ele>48.2</ele>
        <time>2020-06-26T17:15:48Z</time>
      </trkpt>
      <trkpt lat="43.25655" lon="2.94962">
        <ele>48.6</ele>
        <time>2020-06-26T17:15:47Z</time>
      </trkpt>
      <trkpt lat="43.2566" lon="2.94962">
        <ele>48.8</ele>
        <time>2020-06-26T17:15:46Z</time>
      </trkpt>
      <trkpt lat="43.25665" lon="2.94962">
        <ele>49</ele>
        <time>2020-06-26T17:15:45Z</time>
      </trkpt>
      <trkpt lat="43.2567" lon="2.94962">
        <ele>49</ele>
        <time>2020-06-26T17:15:44Z</time>
      </trkpt>
      <trkpt lat="43.25673" lon="2.94962">
        <ele>49.2</ele>
        <time>2020-06-26T17:15:43Z</time>
      </trkpt>
      <trkpt lat="43.25676" lon="2.94963">
        <ele>49.4</ele>
        <time>2020-06-26T17:15:42Z</time>
      </trkpt>
      <trkpt lat="43.25679" lon="2.94962">
        <ele>49.6</ele>
        <time>2020-06-26T17:15:41Z</time>
      </trkpt>
      <trkpt lat="43.25682" lon="2.94963">
        <ele>49.8</ele>
        <time>2020-06-26T17:15:40Z</time>
      </trkpt>
      <trkpt lat="43.25684" lon="2.94963">
        <ele>50</ele>
        <time>2020-06-26T17:15:39Z</time>
      </trkpt>
      <trkpt lat="43.25686" lon="2.94964">
        <ele>50.2</ele>
        <time>2020-06-26T17:15:38Z</time>
      </trkpt>
      <trkpt lat="43.25688" lon="2.94963">
        <ele>50.2</ele>
        <time>2020-06-26T17:15:37Z</time>
      </trkpt>
      <trkpt lat="43.25691" lon="2.94963">
        <ele>50.2</ele>
        <time>2020-06-26T17:15:36Z</time>
      </trkpt>
      <trkpt lat="43.25693" lon="2.94962">
        <ele>50.2</ele>
        <time>2020-06-26T17:15:35Z</time>
      </trkpt>
      <trkpt lat="43.25695" lon="2.94961">
        <ele>50.2</ele>
        <time>2020-06-26T17:15:34Z</time>
      </trkpt>
      <trkpt lat="43.25697" lon="2.9496">
        <ele>50.2</ele>
        <time>2020-06-26T17:15:33Z</time>
      </trkpt>
      <trkpt lat="43.257" lon="2.94959">
        <ele>50.2</ele>
        <time>2020-06-26T17:15:32Z</time>
      </trkpt>
      <trkpt lat="43.25703" lon="2.94956">
        <ele>50.2</ele>
        <time>2020-06-26T17:15:31Z</time>
      </trkpt>
      <trkpt lat="43.25705" lon="2.94954">
        <ele>50.4</ele>
        <time>2020-06-26T17:15:30Z</time>
      </trkpt>
      <trkpt lat="43.25708" lon="2.94952">
        <ele>50.4</ele>
        <time>2020-06-26T17:15:29Z</time>
      </trkpt>
      <trkpt lat="43.25709" lon="2.94952">
        <ele>50.2</ele>
        <time>2020-06-26T17:15:28Z</time>
      </trkpt>
      <trkpt lat="43.2571" lon="2.94949">
        <ele>50.4</ele>
        <time>2020-06-26T17:15:27Z</time>
      </trkpt>
      <trkpt lat="43.25713" lon="2.94949">
        <ele>50.4</ele>
        <time>2020-06-26T17:15:26Z</time>
      </trkpt>
      <trkpt lat="43.25713" lon="2.9495">
        <ele>50.4</ele>
        <time>2020-06-26T17:15:25Z</time>
      </trkpt>
      <trkpt lat="43.25714" lon="2.94951">
        <ele>50.4</ele>
        <time>2020-06-26T17:15:24Z</time>
      </trkpt>
      <trkpt lat="43.25714" lon="2.94949">
        <ele>50.2</ele>
        <time>2020-06-26T17:15:23Z</time>
      </trkpt>
      <trkpt lat="43.25715" lon="2.94949">
        <ele>50.2</ele>
        <time>2020-06-26T17:15:22Z</time>
      </trkpt>
      <trkpt lat="43.25715" lon="2.94947">
        <ele>50.2</ele>
        <time>2020-06-26T17:15:21Z</time>
      </trkpt>
      <trkpt lat="43.25715" lon="2.94946">
        <ele>50.2</ele>
        <time>2020-06-26T17:15:20Z</time>
      </trkpt>
      <trkpt lat="43.25715" lon="2.94945">
        <ele>50.2</ele>
        <time>2020-06-26T17:15:19Z</time>
      </trkpt>
      <trkpt lat="43.25716" lon="2.94946">
        <ele>50.2</ele>
        <time>2020-06-26T17:15:18Z</time>
      </trkpt>
      <trkpt lat="43.25718" lon="2.94948">
        <ele>50.4</ele>
        <time>2020-06-26T17:15:17Z</time>
      </trkpt>
      <trkpt lat="43.25718" lon="2.94948">
        <ele>50.4</ele>
        <time>2020-06-26T17:15:16Z</time>
      </trkpt>
      <trkpt lat="43.2572" lon="2.94948">
        <ele>50.4</ele>
        <time>2020-06-26T17:15:15Z</time>
      </trkpt>
      <trkpt lat="43.25721" lon="2.94948">
        <ele>50.6</ele>
        <time>2020-06-26T17:15:14Z</time>
      </trkpt>
      <trkpt lat="43.25723" lon="2.9495">
        <ele>50.6</ele>
        <time>2020-06-26T17:15:13Z</time>
      </trkpt>
      <trkpt lat="43.25725" lon="2.94951">
        <ele>50.6</ele>
        <time>2020-06-26T17:15:12Z</time>
      </trkpt>
      <trkpt lat="43.25726" lon="2.94951">
        <ele>50.8</ele>
        <time>2020-06-26T17:15:11Z</time>
      </trkpt>
      <trkpt lat="43.25727" lon="2.94953">
        <ele>50.8</ele>
        <time>2020-06-26T17:15:10Z</time>
      </trkpt>
      <trkpt lat="43.25727" lon="2.94952">
        <ele>50.8</ele>
        <time>2020-06-26T17:15:09Z</time>
      </trkpt>
      <trkpt lat="43.25726" lon="2.94954">
        <ele>51</ele>
        <time>2020-06-26T17:14:44Z</time>
      </trkpt>
      <trkpt lat="43.25727" lon="2.94954">
        <ele>50.6</ele>
        <time>2020-06-26T17:14:43Z</time>
      </trkpt>
      <trkpt lat="43.25727" lon="2.94954">
        <ele>50.6</ele>
        <time>2020-06-26T17:14:42Z</time>
      </trkpt>
      <trkpt lat="43.25728" lon="2.94955">
        <ele>50.4</ele>
        <time>2020-06-26T17:14:41Z</time>
      </trkpt>
      <trkpt lat="43.25727" lon="2.94955">
        <ele>50.2</ele>
        <time>2020-06-26T17:14:40Z</time>
      </trkpt>
      <trkpt lat="43.25727" lon="2.94955">
        <ele>50.4</ele>
        <time>2020-06-26T17:14:39Z</time>
      </trkpt>
      <trkpt lat="43.25727" lon="2.94956">
        <ele>50.4</ele>
        <time>2020-06-26T17:14:38Z</time>
      </trkpt>
      <trkpt lat="43.25727" lon="2.94955">
        <ele>50.2</ele>
        <time>2020-06-26T17:14:37Z</time>
      </trkpt>
      <trkpt lat="43.25727" lon="2.94955">
        <ele>50.6</ele>
        <time>2020-06-26T17:14:36Z</time>
      </trkpt>
      <trkpt lat="43.25726" lon="2.94955">
        <ele>50.4</ele>
        <time>2020-06-26T17:14:35Z</time>
      </trkpt>
      <trkpt lat="43.25726" lon="2.94954">
        <ele>50.4</ele>
        <time>2020-06-26T17:14:34Z</time>
      </trkpt>
      <trkpt lat="43.25725" lon="2.94955">
        <ele>50.4</ele>
        <time>2020-06-26T17:14:33Z</time>
      </trkpt>
      <trkpt lat="43.25723" lon="2.94956">
        <ele>50.4</ele>
        <time>2020-06-26T17:14:32Z</time>
      </trkpt>
      <trkpt lat="43.25722" lon="2.94956">
        <ele>50.2</ele>
        <time>2020-06-26T17:14:31Z</time>
      </trkpt>
      <trkpt lat="43.25721" lon="2.94956">
        <ele>50.2</ele>
        <time>2020-06-26T17:14:30Z</time>
      </trkpt>
      <trkpt lat="43.25719" lon="2.94957">
        <ele>50.2</ele>
        <time>2020-06-26T17:14:29Z</time>
      </trkpt>
      <trkpt lat="43.25717" lon="2.94958">
        <ele>50.2</ele>
        <time>2020-06-26T17:14:28Z</time>
      </trkpt>
      <trkpt lat="43.25716" lon="2.94959">
        <ele>50</ele>
        <time>2020-06-26T17:14:27Z</time>
      </trkpt>
      <trkpt lat="43.25714" lon="2.9496">
        <ele>50</ele>
        <time>2020-06-26T17:14:26Z</time>
      </trkpt>
      <trkpt lat="43.25712" lon="2.94961">
        <ele>50</ele>
        <time>2020-06-26T17:14:25Z</time>
      </trkpt>
      <trkpt lat="43.2571" lon="2.94961">
        <ele>50</ele>
        <time>2020-06-26T17:14:24Z</time>
      </trkpt>
      <trkpt lat="43.25709" lon="2.94962">
        <ele>49.8</ele>
        <time>2020-06-26T17:14:23Z</time>
      </trkpt>
      <trkpt lat="43.25707" lon="2.94963">
        <ele>49.8</ele>
        <time>2020-06-26T17:14:22Z</time>
      </trkpt>
      <trkpt lat="43.25705" lon="2.94963">
        <ele>49.8</ele>
        <time>2020-06-26T17:14:21Z</time>
      </trkpt>
      <trkpt lat="43.25703" lon="2.94965">
        <ele>49.8</ele>
        <time>2020-06-26T17:14:20Z</time>
      </trkpt>
      <trkpt lat="43.25702" lon="2.94967">
        <ele>49.8</ele>
        <time>2020-06-26T17:14:19Z</time>
      </trkpt>
      <trkpt lat="43.257" lon="2.94971">
        <ele>49.8</ele>
        <time>2020-06-26T17:14:18Z</time>
      </trkpt>
      <trkpt lat="43.25698" lon="2.94973">
        <ele>49.8</ele>
        <time>2020-06-26T17:14:17Z</time>
      </trkpt>
      <trkpt lat="43.25698" lon="2.94977">
        <ele>50</ele>
        <time>2020-06-26T17:14:16Z</time>
      </trkpt>
      <trkpt lat="43.25699" lon="2.94981">
        <ele>50</ele>
        <time>2020-06-26T17:14:15Z</time>
      </trkpt>
      <trkpt lat="43.257" lon="2.94985">
        <ele>50</ele>
        <time>2020-06-26T17:14:14Z</time>
      </trkpt>
      <trkpt lat="43.25701" lon="2.94989">
        <ele>50</ele>
        <time>2020-06-26T17:14:13Z</time>
      </trkpt>
      <trkpt lat="43.25702" lon="2.94994">
        <ele>50</ele>
        <time>2020-06-26T17:14:12Z</time>
      </trkpt>
      <trkpt lat="43.25703" lon="2.94997">
        <ele>50</ele>
        <time>2020-06-26T17:14:11Z</time>
      </trkpt>
      <trkpt lat="43.25703" lon="2.95001">
        <ele>50</ele>
        <time>2020-06-26T17:14:10Z</time>
      </trkpt>
      <trkpt lat="43.25705" lon="2.95003">
        <ele>50</ele>
        <time>2020-06-26T17:14:09Z</time>
      </trkpt>
      <trkpt lat="43.25707" lon="2.95006">
        <ele>50</ele>
        <time>2020-06-26T17:14:08Z</time>
      </trkpt>
      <trkpt lat="43.25709" lon="2.95009">
        <ele>50</ele>
        <time>2020-06-26T17:14:07Z</time>
      </trkpt>
      <trkpt lat="43.25712" lon="2.95009">
        <ele>50</ele>
        <time>2020-06-26T17:14:06Z</time>
      </trkpt>
      <trkpt lat="43.25715" lon="2.95008">
        <ele>50</ele>
        <time>2020-06-26T17:14:05Z</time>
      </trkpt>
      <trkpt lat="43.25717" lon="2.95008">
        <ele>50.2</ele>
        <time>2020-06-26T17:14:04Z</time>
      </trkpt>
      <trkpt lat="43.25719" lon="2.95009">
        <ele>50.2</ele>
        <time>2020-06-26T17:14:03Z</time>
      </trkpt>
      <trkpt lat="43.25722" lon="2.95008">
        <ele>50.2</ele>
        <time>2020-06-26T17:14:02Z</time>
      </trkpt>
      <trkpt lat="43.25722" lon="2.95009">
        <ele>50.2</ele>
        <time>2020-06-26T17:14:01Z</time>
      </trkpt>
      <trkpt lat="43.25724" lon="2.95012">
        <ele>50.2</ele>
        <time>2020-06-26T17:14:00Z</time>
      </trkpt>
      <trkpt lat="43.25725" lon="2.95014">
        <ele>50.2</ele>
        <time>2020-06-26T17:13:59Z</time>
      </trkpt>
      <trkpt lat="43.25726" lon="2.95014">
        <ele>50</ele>
        <time>2020-06-26T17:13:58Z</time>
      </trkpt>
      <trkpt lat="43.2573" lon="2.95015">
        <ele>50</ele>
        <time>2020-06-26T17:13:57Z</time>
      </trkpt>
      <trkpt lat="43.2573" lon="2.95017">
        <ele>49.8</ele>
        <time>2020-06-26T17:13:56Z</time>
      </trkpt>
      <trkpt lat="43.25733" lon="2.95018">
        <ele>49.6</ele>
        <time>2020-06-26T17:13:55Z</time>
      </trkpt>
      <trkpt lat="43.2574" lon="2.95018">
        <ele>49.4</ele>
        <time>2020-06-26T17:13:54Z</time>
      </trkpt>
      <trkpt lat="43.25743" lon="2.95021">
        <ele>49.2</ele>
        <time>2020-06-26T17:13:53Z</time>
      </trkpt>
      <trkpt lat="43.25744" lon="2.95024">
        <ele>49</ele>
        <time>2020-06-26T17:13:52Z</time>
      </trkpt>
      <trkpt lat="43.25746" lon="2.95027">
        <ele>48.8</ele>
        <time>2020-06-26T17:13:51Z</time>
      </trkpt>
      <trkpt lat="43.25748" lon="2.95031">
        <ele>48.8</ele>
        <time>2020-06-26T17:13:50Z</time>
      </trkpt>
      <trkpt lat="43.25749" lon="2.95036">
        <ele>48.6</ele>
        <time>2020-06-26T17:13:49Z</time>
      </trkpt>
      <trkpt lat="43.2575" lon="2.95038">
        <ele>48.6</ele>
        <time>2020-06-26T17:13:48Z</time>
      </trkpt>
      <trkpt lat="43.25752" lon="2.95043">
        <ele>48.4</ele>
        <time>2020-06-26T17:13:47Z</time>
      </trkpt>
      <trkpt lat="43.25755" lon="2.95047">
        <ele>48.2</ele>
        <time>2020-06-26T17:13:46Z</time>
      </trkpt>
      <trkpt lat="43.25759" lon="2.95052">
        <ele>48.2</ele>
        <time>2020-06-26T17:13:45Z</time>
      </trkpt>
      <trkpt lat="43.25757" lon="2.95057">
        <ele>48.2</ele>
        <time>2020-06-26T17:13:44Z</time>
      </trkpt>
      <trkpt lat="43.2576" lon="2.95062">
        <ele>48</ele>
        <time>2020-06-26T17:13:43Z</time>
      </trkpt>
      <trkpt lat="43.25761" lon="2.95067">
        <ele>48</ele>
        <time>2020-06-26T17:13:42Z</time>
      </trkpt>
      <trkpt lat="43.25761" lon="2.95072">
        <ele>48</ele>
        <time>2020-06-26T17:13:41Z</time>
      </trkpt>
      <trkpt lat="43.25763" lon="2.95077">
        <ele>48</ele>
        <time>2020-06-26T17:13:40Z</time>
      </trkpt>
      <trkpt lat="43.25766" lon="2.95081">
        <ele>47.8</ele>
        <time>2020-06-26T17:13:39Z</time>
      </trkpt>
      <trkpt lat="43.25768" lon="2.95083">
        <ele>47.8</ele>
        <time>2020-06-26T17:13:38Z</time>
      </trkpt>
      <trkpt lat="43.25772" lon="2.95088">
        <ele>47.6</ele>
        <time>2020-06-26T17:13:37Z</time>
      </trkpt>
      <trkpt lat="43.25773" lon="2.95093">
        <ele>47.6</ele>
        <time>2020-06-26T17:13:36Z</time>
      </trkpt>
      <trkpt lat="43.25775" lon="2.95098">
        <ele>47.6</ele>
        <time>2020-06-26T17:13:35Z</time>
      </trkpt>
      <trkpt lat="43.25776" lon="2.95103">
        <ele>47.6</ele>
        <time>2020-06-26T17:13:34Z</time>
      </trkpt>
      <trkpt lat="43.25779" lon="2.95109">
        <ele>47.6</ele>
        <time>2020-06-26T17:13:33Z</time>
      </trkpt>
      <trkpt lat="43.25781" lon="2.95111">
        <ele>47.6</ele>
        <time>2020-06-26T17:13:32Z</time>
      </trkpt>
      <trkpt lat="43.25784" lon="2.95117">
        <ele>47.6</ele>
        <time>2020-06-26T17:13:31Z</time>
      </trkpt>
      <trkpt lat="43.25788" lon="2.95121">
        <ele>47.6</ele>
        <time>2020-06-26T17:13:30Z</time>
      </trkpt>
      <trkpt lat="43.25791" lon="2.95125">
        <ele>47.4</ele>
        <time>2020-06-26T17:13:29Z</time>
      </trkpt>
      <trkpt lat="43.25793" lon="2.9513">
        <ele>47.4</ele>
        <time>2020-06-26T17:13:28Z</time>
      </trkpt>
      <trkpt lat="43.25796" lon="2.95137">
        <ele>47.4</ele>
        <time>2020-06-26T17:13:27Z</time>
      </trkpt>
      <trkpt lat="43.25798" lon="2.95143">
        <ele>47.2</ele>
        <time>2020-06-26T17:13:26Z</time>
      </trkpt>
      <trkpt lat="43.25802" lon="2.95148">
        <ele>47.2</ele>
        <time>2020-06-26T17:13:25Z</time>
      </trkpt>
      <trkpt lat="43.25806" lon="2.95156">
        <ele>47.2</ele>
        <time>2020-06-26T17:13:24Z</time>
      </trkpt>
      <trkpt lat="43.25808" lon="2.95161">
        <ele>47</ele>
        <time>2020-06-26T17:13:23Z</time>
      </trkpt>
      <trkpt lat="43.25808" lon="2.95165">
        <ele>47</ele>
        <time>2020-06-26T17:13:22Z</time>
      </trkpt>
      <trkpt lat="43.2581" lon="2.95169">
        <ele>47</ele>
        <time>2020-06-26T17:13:21Z</time>
      </trkpt>
      <trkpt lat="43.25813" lon="2.95173">
        <ele>47</ele>
        <time>2020-06-26T17:13:20Z</time>
      </trkpt>
      <trkpt lat="43.25814" lon="2.95178">
        <ele>47</ele>
        <time>2020-06-26T17:13:19Z</time>
      </trkpt>
      <trkpt lat="43.25817" lon="2.95184">
        <ele>47.2</ele>
        <time>2020-06-26T17:13:18Z</time>
      </trkpt>
      <trkpt lat="43.25818" lon="2.9519">
        <ele>47.2</ele>
        <time>2020-06-26T17:13:17Z</time>
      </trkpt>
      <trkpt lat="43.25819" lon="2.95194">
        <ele>47.2</ele>
        <time>2020-06-26T17:13:16Z</time>
      </trkpt>
      <trkpt lat="43.2582" lon="2.95199">
        <ele>47</ele>
        <time>2020-06-26T17:13:15Z</time>
      </trkpt>
      <trkpt lat="43.25823" lon="2.95205">
        <ele>47</ele>
        <time>2020-06-26T17:13:14Z</time>
      </trkpt>
      <trkpt lat="43.25826" lon="2.95212">
        <ele>47</ele>
        <time>2020-06-26T17:13:13Z</time>
      </trkpt>
      <trkpt lat="43.25826" lon="2.95219">
        <ele>47</ele>
        <time>2020-06-26T17:13:12Z</time>
      </trkpt>
      <trkpt lat="43.25828" lon="2.95224">
        <ele>47</ele>
        <time>2020-06-26T17:13:11Z</time>
      </trkpt>
      <trkpt lat="43.25829" lon="2.95227">
        <ele>47</ele>
        <time>2020-06-26T17:13:10Z</time>
      </trkpt>
      <trkpt lat="43.25831" lon="2.95232">
        <ele>47</ele>
        <time>2020-06-26T17:13:09Z</time>
      </trkpt>
      <trkpt lat="43.25833" lon="2.95236">
        <ele>47.2</ele>
        <time>2020-06-26T17:13:08Z</time>
      </trkpt>
      <trkpt lat="43.25835" lon="2.95242">
        <ele>47</ele>
        <time>2020-06-26T17:13:07Z</time>
      </trkpt>
      <trkpt lat="43.25836" lon="2.95246">
        <ele>47</ele>
        <time>2020-06-26T17:13:06Z</time>
      </trkpt>
      <trkpt lat="43.25839" lon="2.95251">
        <ele>47</ele>
        <time>2020-06-26T17:13:05Z</time>
      </trkpt>
      <trkpt lat="43.25841" lon="2.95255">
        <ele>47.2</ele>
        <time>2020-06-26T17:13:04Z</time>
      </trkpt>
      <trkpt lat="43.25844" lon="2.9526">
        <ele>47</ele>
        <time>2020-06-26T17:13:03Z</time>
      </trkpt>
      <trkpt lat="43.25845" lon="2.95266">
        <ele>47.2</ele>
        <time>2020-06-26T17:13:02Z</time>
      </trkpt>
      <trkpt lat="43.25848" lon="2.95269">
        <ele>47</ele>
        <time>2020-06-26T17:13:01Z</time>
      </trkpt>
      <trkpt lat="43.25849" lon="2.95275">
        <ele>47.2</ele>
        <time>2020-06-26T17:13:00Z</time>
      </trkpt>
      <trkpt lat="43.25851" lon="2.95279">
        <ele>47.2</ele>
        <time>2020-06-26T17:12:59Z</time>
      </trkpt>
      <trkpt lat="43.25852" lon="2.95284">
        <ele>47.2</ele>
        <time>2020-06-26T17:12:58Z</time>
      </trkpt>
      <trkpt lat="43.25854" lon="2.95289">
        <ele>47.2</ele>
        <time>2020-06-26T17:12:57Z</time>
      </trkpt>
      <trkpt lat="43.25855" lon="2.95293">
        <ele>47.2</ele>
        <time>2020-06-26T17:12:56Z</time>
      </trkpt>
      <trkpt lat="43.25857" lon="2.95299">
        <ele>47.2</ele>
        <time>2020-06-26T17:12:55Z</time>
      </trkpt>
      <trkpt lat="43.25859" lon="2.95306">
        <ele>47.4</ele>
        <time>2020-06-26T17:12:54Z</time>
      </trkpt>
      <trkpt lat="43.25859" lon="2.95311">
        <ele>47.4</ele>
        <time>2020-06-26T17:12:53Z</time>
      </trkpt>
      <trkpt lat="43.2586" lon="2.95316">
        <ele>47.6</ele>
        <time>2020-06-26T17:12:52Z</time>
      </trkpt>
      <trkpt lat="43.25861" lon="2.9532">
        <ele>47.6</ele>
        <time>2020-06-26T17:12:51Z</time>
      </trkpt>
      <trkpt lat="43.25863" lon="2.95324">
        <ele>47.6</ele>
        <time>2020-06-26T17:12:50Z</time>
      </trkpt>
      <trkpt lat="43.25863" lon="2.95329">
        <ele>47.8</ele>
        <time>2020-06-26T17:12:49Z</time>
      </trkpt>
      <trkpt lat="43.25865" lon="2.95333">
        <ele>47.8</ele>
        <time>2020-06-26T17:12:48Z</time>
      </trkpt>
      <trkpt lat="43.25866" lon="2.95338">
        <ele>48</ele>
        <time>2020-06-26T17:12:47Z</time>
      </trkpt>
      <trkpt lat="43.25868" lon="2.95343">
        <ele>48</ele>
        <time>2020-06-26T17:12:46Z</time>
      </trkpt>
      <trkpt lat="43.25869" lon="2.95348">
        <ele>48</ele>
        <time>2020-06-26T17:12:45Z</time>
      </trkpt>
      <trkpt lat="43.25869" lon="2.95352">
        <ele>48</ele>
        <time>2020-06-26T17:12:44Z</time>
      </trkpt>
      <trkpt lat="43.2587" lon="2.95358">
        <ele>48</ele>
        <time>2020-06-26T17:12:43Z</time>
      </trkpt>
      <trkpt lat="43.2587" lon="2.95364">
        <ele>47.8</ele>
        <time>2020-06-26T17:12:42Z</time>
      </trkpt>
      <trkpt lat="43.25871" lon="2.95371">
        <ele>47.8</ele>
        <time>2020-06-26T17:12:41Z</time>
      </trkpt>
      <trkpt lat="43.25872" lon="2.95377">
        <ele>47.8</ele>
        <time>2020-06-26T17:12:40Z</time>
      </trkpt>
      <trkpt lat="43.25873" lon="2.95382">
        <ele>47.8</ele>
        <time>2020-06-26T17:12:39Z</time>
      </trkpt>
      <trkpt lat="43.25874" lon="2.95388">
        <ele>47.8</ele>
        <time>2020-06-26T17:12:38Z</time>
      </trkpt>
      <trkpt lat="43.25876" lon="2.95393">
        <ele>48</ele>
        <time>2020-06-26T17:12:37Z</time>
      </trkpt>
      <trkpt lat="43.25877" lon="2.95399">
        <ele>47.8</ele>
        <time>2020-06-26T17:12:36Z</time>
      </trkpt>
      <trkpt lat="43.25879" lon="2.95404">
        <ele>47.8</ele>
        <time>2020-06-26T17:12:35Z</time>
      </trkpt>
      <trkpt lat="43.2588" lon="2.9541">
        <ele>47.8</ele>
        <time>2020-06-26T17:12:34Z</time>
      </trkpt>
      <trkpt lat="43.25881" lon="2.95414">
        <ele>47.8</ele>
        <time>2020-06-26T17:12:33Z</time>
      </trkpt>
      <trkpt lat="43.25882" lon="2.95418">
        <ele>47.8</ele>
        <time>2020-06-26T17:12:32Z</time>
      </trkpt>
      <trkpt lat="43.25885" lon="2.95424">
        <ele>47.8</ele>
        <time>2020-06-26T17:12:31Z</time>
      </trkpt>
      <trkpt lat="43.25887" lon="2.9543">
        <ele>48</ele>
        <time>2020-06-26T17:12:30Z</time>
      </trkpt>
      <trkpt lat="43.25892" lon="2.95436">
        <ele>48</ele>
        <time>2020-06-26T17:12:29Z</time>
      </trkpt>
      <trkpt lat="43.25893" lon="2.9544">
        <ele>48</ele>
        <time>2020-06-26T17:12:28Z</time>
      </trkpt>
      <trkpt lat="43.25894" lon="2.95443">
        <ele>48</ele>
        <time>2020-06-26T17:12:27Z</time>
      </trkpt>
      <trkpt lat="43.25897" lon="2.95448">
        <ele>48.2</ele>
        <time>2020-06-26T17:12:26Z</time>
      </trkpt>
      <trkpt lat="43.259" lon="2.95453">
        <ele>48.2</ele>
        <time>2020-06-26T17:12:25Z</time>
      </trkpt>
      <trkpt lat="43.25903" lon="2.95455">
        <ele>48.4</ele>
        <time>2020-06-26T17:12:24Z</time>
      </trkpt>
      <trkpt lat="43.25905" lon="2.9546">
        <ele>48.4</ele>
        <time>2020-06-26T17:12:23Z</time>
      </trkpt>
      <trkpt lat="43.25911" lon="2.95462">
        <ele>48.4</ele>
        <time>2020-06-26T17:12:22Z</time>
      </trkpt>
      <trkpt lat="43.25914" lon="2.95466">
        <ele>48.4</ele>
        <time>2020-06-26T17:12:21Z</time>
      </trkpt>
      <trkpt lat="43.25918" lon="2.95469">
        <ele>48.4</ele>
        <time>2020-06-26T17:12:20Z</time>
      </trkpt>
      <trkpt lat="43.25922" lon="2.95471">
        <ele>48.4</ele>
        <time>2020-06-26T17:12:19Z</time>
      </trkpt>
      <trkpt lat="43.25925" lon="2.95474">
        <ele>48.4</ele>
        <time>2020-06-26T17:12:18Z</time>
      </trkpt>
      <trkpt lat="43.25928" lon="2.95473">
        <ele>48.4</ele>
        <time>2020-06-26T17:12:17Z</time>
      </trkpt>
      <trkpt lat="43.25931" lon="2.95475">
        <ele>48.4</ele>
        <time>2020-06-26T17:12:16Z</time>
      </trkpt>
      <trkpt lat="43.25935" lon="2.95477">
        <ele>48.2</ele>
        <time>2020-06-26T17:12:15Z</time>
      </trkpt>
      <trkpt lat="43.25938" lon="2.95479">
        <ele>48.2</ele>
        <time>2020-06-26T17:12:14Z</time>
      </trkpt>
      <trkpt lat="43.25941" lon="2.95481">
        <ele>48</ele>
        <time>2020-06-26T17:12:13Z</time>
      </trkpt>
      <trkpt lat="43.25943" lon="2.95486">
        <ele>48</ele>
        <time>2020-06-26T17:12:12Z</time>
      </trkpt>
      <trkpt lat="43.25947" lon="2.95487">
        <ele>48</ele>
        <time>2020-06-26T17:12:11Z</time>
      </trkpt>
      <trkpt lat="43.2595" lon="2.9549">
        <ele>48</ele>
        <time>2020-06-26T17:12:10Z</time>
      </trkpt>
      <trkpt lat="43.25952" lon="2.95495">
        <ele>48</ele>
        <time>2020-06-26T17:12:09Z</time>
      </trkpt>
      <trkpt lat="43.25956" lon="2.95498">
        <ele>48</ele>
        <time>2020-06-26T17:12:08Z</time>
      </trkpt>
      <trkpt lat="43.25959" lon="2.955">
        <ele>48</ele>
        <time>2020-06-26T17:12:07Z</time>
      </trkpt>
      <trkpt lat="43.25961" lon="2.95504">
        <ele>48</ele>
        <time>2020-06-26T17:12:06Z</time>
      </trkpt>
      <trkpt lat="43.25965" lon="2.95506">
        <ele>48</ele>
        <time>2020-06-26T17:12:05Z</time>
      </trkpt>
      <trkpt lat="43.25969" lon="2.95508">
        <ele>47.8</ele>
        <time>2020-06-26T17:12:04Z</time>
      </trkpt>
      <trkpt lat="43.25973" lon="2.95511">
        <ele>47.8</ele>
        <time>2020-06-26T17:12:03Z</time>
      </trkpt>
      <trkpt lat="43.25977" lon="2.95514">
        <ele>47.8</ele>
        <time>2020-06-26T17:12:02Z</time>
      </trkpt>
      <trkpt lat="43.25981" lon="2.95517">
        <ele>47.8</ele>
        <time>2020-06-26T17:12:01Z</time>
      </trkpt>
      <trkpt lat="43.25984" lon="2.95519">
        <ele>47.8</ele>
        <time>2020-06-26T17:12:00Z</time>
      </trkpt>
      <trkpt lat="43.25987" lon="2.95522">
        <ele>47.8</ele>
        <time>2020-06-26T17:11:59Z</time>
      </trkpt>
      <trkpt lat="43.25991" lon="2.95524">
        <ele>47.6</ele>
        <time>2020-06-26T17:11:58Z</time>
      </trkpt>
      <trkpt lat="43.25995" lon="2.95526">
        <ele>47.6</ele>
        <time>2020-06-26T17:11:57Z</time>
      </trkpt>
      <trkpt lat="43.25998" lon="2.95528">
        <ele>47.6</ele>
        <time>2020-06-26T17:11:56Z</time>
      </trkpt>
      <trkpt lat="43.26001" lon="2.95532">
        <ele>47.6</ele>
        <time>2020-06-26T17:11:55Z</time>
      </trkpt>
      <trkpt lat="43.26005" lon="2.95534">
        <ele>47.6</ele>
        <time>2020-06-26T17:11:54Z</time>
      </trkpt>
      <trkpt lat="43.26006" lon="2.95537">
        <ele>47.6</ele>
        <time>2020-06-26T17:11:53Z</time>
      </trkpt>
      <trkpt lat="43.26008" lon="2.95537">
        <ele>47.6</ele>
        <time>2020-06-26T17:11:52Z</time>
      </trkpt>
      <trkpt lat="43.26014" lon="2.95543">
        <ele>47.6</ele>
        <time>2020-06-26T17:11:51Z</time>
      </trkpt>
      <trkpt lat="43.26018" lon="2.95545">
        <ele>47.6</ele>
        <time>2020-06-26T17:11:50Z</time>
      </trkpt>
      <trkpt lat="43.26023" lon="2.95551">
        <ele>47.6</ele>
        <time>2020-06-26T17:11:49Z</time>
      </trkpt>
      <trkpt lat="43.26027" lon="2.95554">
        <ele>47.6</ele>
        <time>2020-06-26T17:11:48Z</time>
      </trkpt>
      <trkpt lat="43.26032" lon="2.95557">
        <ele>47.6</ele>
        <time>2020-06-26T17:11:47Z</time>
      </trkpt>
      <trkpt lat="43.26035" lon="2.9556">
        <ele>47.6</ele>
        <time>2020-06-26T17:11:46Z</time>
      </trkpt>
      <trkpt lat="43.26039" lon="2.95563">
        <ele>47.6</ele>
        <time>2020-06-26T17:11:45Z</time>
      </trkpt>
      <trkpt lat="43.26043" lon="2.95566">
        <ele>47.6</ele>
        <time>2020-06-26T17:11:44Z</time>
      </trkpt>
      <trkpt lat="43.26047" lon="2.9557">
        <ele>47.8</ele>
        <time>2020-06-26T17:11:43Z</time>
      </trkpt>
      <trkpt lat="43.26051" lon="2.95574">
        <ele>47.8</ele>
        <time>2020-06-26T17:11:42Z</time>
      </trkpt>
      <trkpt lat="43.26054" lon="2.95579">
        <ele>47.8</ele>
        <time>2020-06-26T17:11:41Z</time>
      </trkpt>
      <trkpt lat="43.26058" lon="2.95584">
        <ele>47.8</ele>
        <time>2020-06-26T17:11:40Z</time>
      </trkpt>
      <trkpt lat="43.26061" lon="2.95587">
        <ele>47.8</ele>
        <time>2020-06-26T17:11:39Z</time>
      </trkpt>
      <trkpt lat="43.26065" lon="2.95589">
        <ele>47.8</ele>
        <time>2020-06-26T17:11:38Z</time>
      </trkpt>
      <trkpt lat="43.26072" lon="2.95595">
        <ele>47.8</ele>
        <time>2020-06-26T17:11:37Z</time>
      </trkpt>
      <trkpt lat="43.26075" lon="2.95599">
        <ele>47.8</ele>
        <time>2020-06-26T17:11:36Z</time>
      </trkpt>
      <trkpt lat="43.26077" lon="2.95602">
        <ele>47.8</ele>
        <time>2020-06-26T17:11:35Z</time>
      </trkpt>
      <trkpt lat="43.26078" lon="2.95604">
        <ele>48</ele>
        <time>2020-06-26T17:11:34Z</time>
      </trkpt>
      <trkpt lat="43.26078" lon="2.95606">
        <ele>47.8</ele>
        <time>2020-06-26T17:11:33Z</time>
      </trkpt>
      <trkpt lat="43.26081" lon="2.95609">
        <ele>47.8</ele>
        <time>2020-06-26T17:11:32Z</time>
      </trkpt>
      <trkpt lat="43.26083" lon="2.95612">
        <ele>47.8</ele>
        <time>2020-06-26T17:11:31Z</time>
      </trkpt>
      <trkpt lat="43.26085" lon="2.95616">
        <ele>47.8</ele>
        <time>2020-06-26T17:11:30Z</time>
      </trkpt>
      <trkpt lat="43.26082" lon="2.95616">
        <ele>47.8</ele>
        <time>2020-06-26T17:11:29Z</time>
      </trkpt>
      <trkpt lat="43.26082" lon="2.95618">
        <ele>47.8</ele>
        <time>2020-06-26T17:11:28Z</time>
      </trkpt>
      <trkpt lat="43.26081" lon="2.95621">
        <ele>47.8</ele>
        <time>2020-06-26T17:11:27Z</time>
      </trkpt>
      <trkpt lat="43.2608" lon="2.95625">
        <ele>47.6</ele>
        <time>2020-06-26T17:11:26Z</time>
      </trkpt>
      <trkpt lat="43.26077" lon="2.95628">
        <ele>47.6</ele>
        <time>2020-06-26T17:11:25Z</time>
      </trkpt>
      <trkpt lat="43.26074" lon="2.9563">
        <ele>47.6</ele>
        <time>2020-06-26T17:11:24Z</time>
      </trkpt>
      <trkpt lat="43.26077" lon="2.95636">
        <ele>47.6</ele>
        <time>2020-06-26T17:11:23Z</time>
      </trkpt>
      <trkpt lat="43.26076" lon="2.95638">
        <ele>47.6</ele>
        <time>2020-06-26T17:11:22Z</time>
      </trkpt>
      <trkpt lat="43.26074" lon="2.95639">
        <ele>47.6</ele>
        <time>2020-06-26T17:11:21Z</time>
      </trkpt>
      <trkpt lat="43.26073" lon="2.95639">
        <ele>47.4</ele>
        <time>2020-06-26T17:11:20Z</time>
      </trkpt>
      <trkpt lat="43.26072" lon="2.9564">
        <ele>47.4</ele>
        <time>2020-06-26T17:11:19Z</time>
      </trkpt>
      <trkpt lat="43.26071" lon="2.9564">
        <ele>47.4</ele>
        <time>2020-06-26T17:11:18Z</time>
      </trkpt>
      <trkpt lat="43.2607" lon="2.95641">
        <ele>47.4</ele>
        <time>2020-06-26T17:11:17Z</time>
      </trkpt>
      <trkpt lat="43.26069" lon="2.95643">
        <ele>47.4</ele>
        <time>2020-06-26T17:11:16Z</time>
      </trkpt>
      <trkpt lat="43.26068" lon="2.95643">
        <ele>47.4</ele>
        <time>2020-06-26T17:11:15Z</time>
      </trkpt>
      <trkpt lat="43.26066" lon="2.95644">
        <ele>47.4</ele>
        <time>2020-06-26T17:11:14Z</time>
      </trkpt>
      <trkpt lat="43.26065" lon="2.95647">
        <ele>47.4</ele>
        <time>2020-06-26T17:11:13Z</time>
      </trkpt>
      <trkpt lat="43.26063" lon="2.95648">
        <ele>47.4</ele>
        <time>2020-06-26T17:11:12Z</time>
      </trkpt>
      <trkpt lat="43.26062" lon="2.95649">
        <ele>47.4</ele>
        <time>2020-06-26T17:11:11Z</time>
      </trkpt>
      <trkpt lat="43.26062" lon="2.95648">
        <ele>47.4</ele>
        <time>2020-06-26T17:11:10Z</time>
      </trkpt>
      <trkpt lat="43.26061" lon="2.95646">
        <ele>47.4</ele>
        <time>2020-06-26T17:11:09Z</time>
      </trkpt>
      <trkpt lat="43.26059" lon="2.95648">
        <ele>47.4</ele>
        <time>2020-06-26T17:11:08Z</time>
      </trkpt>
      <trkpt lat="43.26059" lon="2.95648">
        <ele>47.4</ele>
        <time>2020-06-26T17:11:07Z</time>
      </trkpt>
      <trkpt lat="43.26059" lon="2.9565">
        <ele>47.4</ele>
        <time>2020-06-26T17:11:06Z</time>
      </trkpt>
      <trkpt lat="43.26059" lon="2.95652">
        <ele>47.2</ele>
        <time>2020-06-26T17:11:05Z</time>
      </trkpt>
      <trkpt lat="43.26058" lon="2.95655">
        <ele>47.2</ele>
        <time>2020-06-26T17:11:04Z</time>
      </trkpt>
      <trkpt lat="43.2606" lon="2.95658">
        <ele>47.2</ele>
        <time>2020-06-26T17:11:03Z</time>
      </trkpt>
      <trkpt lat="43.2606" lon="2.95657">
        <ele>47.2</ele>
        <time>2020-06-26T17:11:02Z</time>
      </trkpt>
      <trkpt lat="43.26062" lon="2.95658">
        <ele>47.2</ele>
        <time>2020-06-26T17:11:01Z</time>
      </trkpt>
      <trkpt lat="43.26063" lon="2.9566">
        <ele>47.2</ele>
        <time>2020-06-26T17:11:00Z</time>
      </trkpt>
      <trkpt lat="43.26061" lon="2.95661">
        <ele>47.2</ele>
        <time>2020-06-26T17:10:59Z</time>
      </trkpt>
      <trkpt lat="43.26058" lon="2.95661">
        <ele>47.2</ele>
        <time>2020-06-26T17:10:58Z</time>
      </trkpt>
      <trkpt lat="43.26056" lon="2.9566">
        <ele>47.2</ele>
        <time>2020-06-26T17:10:57Z</time>
      </trkpt>
      <trkpt lat="43.26056" lon="2.95661">
        <ele>47.2</ele>
        <time>2020-06-26T17:10:56Z</time>
      </trkpt>
      <trkpt lat="43.26054" lon="2.95661">
        <ele>47</ele>
        <time>2020-06-26T17:10:55Z</time>
      </trkpt>
      <trkpt lat="43.26054" lon="2.95662">
        <ele>47</ele>
        <time>2020-06-26T17:10:54Z</time>
      </trkpt>
      <trkpt lat="43.26053" lon="2.95662">
        <ele>47</ele>
        <time>2020-06-26T17:10:53Z</time>
      </trkpt>
      <trkpt lat="43.26053" lon="2.95662">
        <ele>47</ele>
        <time>2020-06-26T17:10:52Z</time>
      </trkpt>
      <trkpt lat="43.26053" lon="2.95664">
        <ele>47</ele>
        <time>2020-06-26T17:10:51Z</time>
      </trkpt>
      <trkpt lat="43.26052" lon="2.95663">
        <ele>47</ele>
        <time>2020-06-26T17:10:50Z</time>
      </trkpt>
      <trkpt lat="43.26053" lon="2.95664">
        <ele>47</ele>
        <time>2020-06-26T17:10:49Z</time>
      </trkpt>
      <trkpt lat="43.26053" lon="2.95668">
        <ele>47</ele>
        <time>2020-06-26T17:10:48Z</time>
      </trkpt>
      <trkpt lat="43.26053" lon="2.9567">
        <ele>47</ele>
        <time>2020-06-26T17:10:47Z</time>
      </trkpt>
      <trkpt lat="43.26053" lon="2.95671">
        <ele>47</ele>
        <time>2020-06-26T17:10:46Z</time>
      </trkpt>
      <trkpt lat="43.26051" lon="2.95669">
        <ele>47</ele>
        <time>2020-06-26T17:10:45Z</time>
      </trkpt>
      <trkpt lat="43.26058" lon="2.95679">
        <ele>47.2</ele>
        <time>2020-06-26T17:06:54Z</time>
      </trkpt>
      <trkpt lat="43.26059" lon="2.95679">
        <ele>47.2</ele>
        <time>2020-06-26T17:06:53Z</time>
      </trkpt>
      <trkpt lat="43.26059" lon="2.95678">
        <ele>47.2</ele>
        <time>2020-06-26T17:06:52Z</time>
      </trkpt>
      <trkpt lat="43.26058" lon="2.95678">
        <ele>47.2</ele>
        <time>2020-06-26T17:06:51Z</time>
      </trkpt>
      <trkpt lat="43.26056" lon="2.95677">
        <ele>47.2</ele>
        <time>2020-06-26T17:06:50Z</time>
      </trkpt>
      <trkpt lat="43.26057" lon="2.95677">
        <ele>47.4</ele>
        <time>2020-06-26T17:06:49Z</time>
      </trkpt>
      <trkpt lat="43.26057" lon="2.95679">
        <ele>47.4</ele>
        <time>2020-06-26T17:06:48Z</time>
      </trkpt>
      <trkpt lat="43.26057" lon="2.95678">
        <ele>47.4</ele>
        <time>2020-06-26T17:06:47Z</time>
      </trkpt>
      <trkpt lat="43.26057" lon="2.95677">
        <ele>47.4</ele>
        <time>2020-06-26T17:06:46Z</time>
      </trkpt>
      <trkpt lat="43.26057" lon="2.95676">
        <ele>47.4</ele>
        <time>2020-06-26T17:06:45Z</time>
      </trkpt>
      <trkpt lat="43.26058" lon="2.95675">
        <ele>47.4</ele>
        <time>2020-06-26T17:06:44Z</time>
      </trkpt>
      <trkpt lat="43.26058" lon="2.95674">
        <ele>47.4</ele>
        <time>2020-06-26T17:06:43Z</time>
      </trkpt>
      <trkpt lat="43.26058" lon="2.95672">
        <ele>47.4</ele>
        <time>2020-06-26T17:06:42Z</time>
      </trkpt>
      <trkpt lat="43.26058" lon="2.95671">
        <ele>47.4</ele>
        <time>2020-06-26T17:06:41Z</time>
      </trkpt>
      <trkpt lat="43.26059" lon="2.95671">
        <ele>47.4</ele>
        <time>2020-06-26T17:06:40Z</time>
      </trkpt>
      <trkpt lat="43.2606" lon="2.9567">
        <ele>47.6</ele>
        <time>2020-06-26T17:06:39Z</time>
      </trkpt>
      <trkpt lat="43.2606" lon="2.9567">
        <ele>47.6</ele>
        <time>2020-06-26T17:06:38Z</time>
      </trkpt>
      <trkpt lat="43.26061" lon="2.9567">
        <ele>47.6</ele>
        <time>2020-06-26T17:06:37Z</time>
      </trkpt>
      <trkpt lat="43.26062" lon="2.95667">
        <ele>47.6</ele>
        <time>2020-06-26T17:06:36Z</time>
      </trkpt>
      <trkpt lat="43.26062" lon="2.95666">
        <ele>47.6</ele>
        <time>2020-06-26T17:06:35Z</time>
      </trkpt>
      <trkpt lat="43.26063" lon="2.95667">
        <ele>47.8</ele>
        <time>2020-06-26T17:06:34Z</time>
      </trkpt>
      <trkpt lat="43.26064" lon="2.95664">
        <ele>47.8</ele>
        <time>2020-06-26T17:06:33Z</time>
      </trkpt>
      <trkpt lat="43.26065" lon="2.95664">
        <ele>47.8</ele>
        <time>2020-06-26T17:06:32Z</time>
      </trkpt>
      <trkpt lat="43.26065" lon="2.95662">
        <ele>47.8</ele>
        <time>2020-06-26T17:06:31Z</time>
      </trkpt>
      <trkpt lat="43.26065" lon="2.95661">
        <ele>47.8</ele>
        <time>2020-06-26T17:06:30Z</time>
      </trkpt>
      <trkpt lat="43.26065" lon="2.9566">
        <ele>47.8</ele>
        <time>2020-06-26T17:06:29Z</time>
      </trkpt>
      <trkpt lat="43.26066" lon="2.95657">
        <ele>47.8</ele>
        <time>2020-06-26T17:06:28Z</time>
      </trkpt>
      <trkpt lat="43.26067" lon="2.95656">
        <ele>47.8</ele>
        <time>2020-06-26T17:06:27Z</time>
      </trkpt>
      <trkpt lat="43.26067" lon="2.95656">
        <ele>47.8</ele>
        <time>2020-06-26T17:06:26Z</time>
      </trkpt>
      <trkpt lat="43.26068" lon="2.95656">
        <ele>47.6</ele>
        <time>2020-06-26T17:06:25Z</time>
      </trkpt>
      <trkpt lat="43.26069" lon="2.95655">
        <ele>47.6</ele>
        <time>2020-06-26T17:06:21Z</time>
      </trkpt>
      <trkpt lat="43.2607" lon="2.95655">
        <ele>47.8</ele>
        <time>2020-06-26T17:06:20Z</time>
      </trkpt>
      <trkpt lat="43.2607" lon="2.95652">
        <ele>47.8</ele>
        <time>2020-06-26T17:06:19Z</time>
      </trkpt>
      <trkpt lat="43.26069" lon="2.95651">
        <ele>47.8</ele>
        <time>2020-06-26T17:06:18Z</time>
      </trkpt>
      <trkpt lat="43.26069" lon="2.95649">
        <ele>47.8</ele>
        <time>2020-06-26T17:06:17Z</time>
      </trkpt>
      <trkpt lat="43.26069" lon="2.95647">
        <ele>47.6</ele>
        <time>2020-06-26T17:06:16Z</time>
      </trkpt>
      <trkpt lat="43.26068" lon="2.95646">
        <ele>47.6</ele>
        <time>2020-06-26T17:06:15Z</time>
      </trkpt>
      <trkpt lat="43.26068" lon="2.95644">
        <ele>47.6</ele>
        <time>2020-06-26T17:06:14Z</time>
      </trkpt>
      <trkpt lat="43.26068" lon="2.95644">
        <ele>47.6</ele>
        <time>2020-06-26T17:06:13Z</time>
      </trkpt>
      <trkpt lat="43.26069" lon="2.95645">
        <ele>47.8</ele>
        <time>2020-06-26T17:06:12Z</time>
      </trkpt>
      <trkpt lat="43.26069" lon="2.95643">
        <ele>47.8</ele>
        <time>2020-06-26T17:06:11Z</time>
      </trkpt>
      <trkpt lat="43.26069" lon="2.95642">
        <ele>47.8</ele>
        <time>2020-06-26T17:06:10Z</time>
      </trkpt>
      <trkpt lat="43.26069" lon="2.95641">
        <ele>47.8</ele>
        <time>2020-06-26T17:06:09Z</time>
      </trkpt>
      <trkpt lat="43.2607" lon="2.9564">
        <ele>48</ele>
        <time>2020-06-26T17:06:08Z</time>
      </trkpt>
      <trkpt lat="43.26071" lon="2.95638">
        <ele>48</ele>
        <time>2020-06-26T17:06:07Z</time>
      </trkpt>
      <trkpt lat="43.2607" lon="2.95635">
        <ele>47.8</ele>
        <time>2020-06-26T17:06:06Z</time>
      </trkpt>
      <trkpt lat="43.26071" lon="2.95635">
        <ele>47.8</ele>
        <time>2020-06-26T17:06:05Z</time>
      </trkpt>
      <trkpt lat="43.26071" lon="2.95634">
        <ele>48</ele>
        <time>2020-06-26T17:06:04Z</time>
      </trkpt>
      <trkpt lat="43.26072" lon="2.95632">
        <ele>48</ele>
        <time>2020-06-26T17:06:03Z</time>
      </trkpt>
      <trkpt lat="43.26072" lon="2.9563">
        <ele>48</ele>
        <time>2020-06-26T17:06:02Z</time>
      </trkpt>
      <trkpt lat="43.26073" lon="2.95628">
        <ele>48.2</ele>
        <time>2020-06-26T17:06:01Z</time>
      </trkpt>
      <trkpt lat="43.26075" lon="2.95629">
        <ele>48</ele>
        <time>2020-06-26T17:06:00Z</time>
      </trkpt>
      <trkpt lat="43.26076" lon="2.95627">
        <ele>48</ele>
        <time>2020-06-26T17:05:59Z</time>
      </trkpt>
      <trkpt lat="43.26077" lon="2.95626">
        <ele>48</ele>
        <time>2020-06-26T17:05:58Z</time>
      </trkpt>
      <trkpt lat="43.26079" lon="2.95626">
        <ele>48</ele>
        <time>2020-06-26T17:05:57Z</time>
      </trkpt>
      <trkpt lat="43.26079" lon="2.95625">
        <ele>48</ele>
        <time>2020-06-26T17:05:56Z</time>
      </trkpt>
      <trkpt lat="43.26081" lon="2.95625">
        <ele>48</ele>
        <time>2020-06-26T17:05:55Z</time>
      </trkpt>
      <trkpt lat="43.26081" lon="2.95623">
        <ele>48.2</ele>
        <time>2020-06-26T17:05:54Z</time>
      </trkpt>
      <trkpt lat="43.26082" lon="2.95622">
        <ele>48.2</ele>
        <time>2020-06-26T17:05:53Z</time>
      </trkpt>
      <trkpt lat="43.26083" lon="2.95619">
        <ele>48.4</ele>
        <time>2020-06-26T17:05:52Z</time>
      </trkpt>
      <trkpt lat="43.26084" lon="2.9562">
        <ele>48.4</ele>
        <time>2020-06-26T17:05:51Z</time>
      </trkpt>
      <trkpt lat="43.26087" lon="2.95623">
        <ele>48.4</ele>
        <time>2020-06-26T17:05:50Z</time>
      </trkpt>
      <trkpt lat="43.26087" lon="2.95622">
        <ele>48.4</ele>
        <time>2020-06-26T17:05:49Z</time>
      </trkpt>
      <trkpt lat="43.26089" lon="2.95623">
        <ele>48.4</ele>
        <time>2020-06-26T17:05:48Z</time>
      </trkpt>
      <trkpt lat="43.2609" lon="2.95625">
        <ele>48.4</ele>
        <time>2020-06-26T17:05:47Z</time>
      </trkpt>
      <trkpt lat="43.26093" lon="2.95627">
        <ele>48.6</ele>
        <time>2020-06-26T17:05:46Z</time>
      </trkpt>
      <trkpt lat="43.26094" lon="2.95628">
        <ele>48.6</ele>
        <time>2020-06-26T17:05:45Z</time>
      </trkpt>
      <trkpt lat="43.26096" lon="2.9563">
        <ele>48.6</ele>
        <time>2020-06-26T17:05:43Z</time>
      </trkpt>
      <trkpt lat="43.26096" lon="2.9563">
        <ele>48.6</ele>
        <time>2020-06-26T17:05:42Z</time>
      </trkpt>
      <trkpt lat="43.26096" lon="2.95631">
        <ele>48.6</ele>
        <time>2020-06-26T17:05:41Z</time>
      </trkpt>
      <trkpt lat="43.26096" lon="2.95631">
        <ele>48.4</ele>
        <time>2020-06-26T17:05:40Z</time>
      </trkpt>
      <trkpt lat="43.26095" lon="2.95632">
        <ele>48.4</ele>
        <time>2020-06-26T17:05:39Z</time>
      </trkpt>
      <trkpt lat="43.26094" lon="2.95631">
        <ele>48.4</ele>
        <time>2020-06-26T17:05:38Z</time>
      </trkpt>
      <trkpt lat="43.26094" lon="2.95633">
        <ele>48.4</ele>
        <time>2020-06-26T17:05:37Z</time>
      </trkpt>
      <trkpt lat="43.26095" lon="2.95633">
        <ele>48.4</ele>
        <time>2020-06-26T17:05:36Z</time>
      </trkpt>
      <trkpt lat="43.26095" lon="2.95634">
        <ele>48.4</ele>
        <time>2020-06-26T17:05:35Z</time>
      </trkpt>
      <trkpt lat="43.26095" lon="2.95635">
        <ele>48.4</ele>
        <time>2020-06-26T17:05:34Z</time>
      </trkpt>
      <trkpt lat="43.26095" lon="2.95635">
        <ele>48.4</ele>
        <time>2020-06-26T17:05:33Z</time>
      </trkpt>
      <trkpt lat="43.26096" lon="2.95637">
        <ele>48.4</ele>
        <time>2020-06-26T17:05:32Z</time>
      </trkpt>
      <trkpt lat="43.26098" lon="2.95637">
        <ele>48.4</ele>
        <time>2020-06-26T17:05:31Z</time>
      </trkpt>
      <trkpt lat="43.26099" lon="2.95638">
        <ele>48.4</ele>
        <time>2020-06-26T17:05:30Z</time>
      </trkpt>
      <trkpt lat="43.261" lon="2.95638">
        <ele>48.6</ele>
        <time>2020-06-26T17:05:29Z</time>
      </trkpt>
      <trkpt lat="43.26101" lon="2.9564">
        <ele>48.4</ele>
        <time>2020-06-26T17:05:28Z</time>
      </trkpt>
      <trkpt lat="43.26103" lon="2.95641">
        <ele>48.6</ele>
        <time>2020-06-26T17:05:27Z</time>
      </trkpt>
      <trkpt lat="43.26104" lon="2.95642">
        <ele>48.6</ele>
        <time>2020-06-26T17:05:26Z</time>
      </trkpt>
      <trkpt lat="43.26106" lon="2.95643">
        <ele>48.6</ele>
        <time>2020-06-26T17:05:25Z</time>
      </trkpt>
      <trkpt lat="43.26108" lon="2.95644">
        <ele>48.4</ele>
        <time>2020-06-26T17:05:24Z</time>
      </trkpt>
      <trkpt lat="43.2611" lon="2.95646">
        <ele>48.4</ele>
        <time>2020-06-26T17:05:23Z</time>
      </trkpt>
      <trkpt lat="43.26112" lon="2.95648">
        <ele>48.6</ele>
        <time>2020-06-26T17:05:22Z</time>
      </trkpt>
      <trkpt lat="43.26114" lon="2.95651">
        <ele>48.6</ele>
        <time>2020-06-26T17:05:21Z</time>
      </trkpt>
      <trkpt lat="43.26116" lon="2.95652">
        <ele>48.8</ele>
        <time>2020-06-26T17:05:20Z</time>
      </trkpt>
      <trkpt lat="43.26119" lon="2.95656">
        <ele>48.8</ele>
        <time>2020-06-26T17:05:19Z</time>
      </trkpt>
      <trkpt lat="43.26121" lon="2.95658">
        <ele>48.8</ele>
        <time>2020-06-26T17:05:18Z</time>
      </trkpt>
      <trkpt lat="43.26124" lon="2.95661">
        <ele>48.8</ele>
        <time>2020-06-26T17:05:17Z</time>
      </trkpt>
      <trkpt lat="43.26125" lon="2.95661">
        <ele>48.6</ele>
        <time>2020-06-26T17:05:16Z</time>
      </trkpt>
      <trkpt lat="43.26127" lon="2.95664">
        <ele>48.6</ele>
        <time>2020-06-26T17:05:15Z</time>
      </trkpt>
      <trkpt lat="43.2613" lon="2.95666">
        <ele>48.4</ele>
        <time>2020-06-26T17:05:14Z</time>
      </trkpt>
      <trkpt lat="43.26131" lon="2.95667">
        <ele>48.4</ele>
        <time>2020-06-26T17:05:13Z</time>
      </trkpt>
      <trkpt lat="43.26133" lon="2.95668">
        <ele>48.4</ele>
        <time>2020-06-26T17:05:12Z</time>
      </trkpt>
      <trkpt lat="43.26134" lon="2.9567">
        <ele>48.4</ele>
        <time>2020-06-26T17:05:11Z</time>
      </trkpt>
      <trkpt lat="43.26136" lon="2.95672">
        <ele>48.4</ele>
        <time>2020-06-26T17:05:10Z</time>
      </trkpt>
      <trkpt lat="43.2614" lon="2.95675">
        <ele>48.6</ele>
        <time>2020-06-26T17:05:09Z</time>
      </trkpt>
      <trkpt lat="43.26144" lon="2.95679">
        <ele>48.4</ele>
        <time>2020-06-26T17:05:08Z</time>
      </trkpt>
      <trkpt lat="43.26148" lon="2.95683">
        <ele>48.4</ele>
        <time>2020-06-26T17:05:07Z</time>
      </trkpt>
      <trkpt lat="43.2615" lon="2.95686">
        <ele>48.4</ele>
        <time>2020-06-26T17:05:06Z</time>
      </trkpt>
      <trkpt lat="43.26153" lon="2.95689">
        <ele>48.4</ele>
        <time>2020-06-26T17:05:05Z</time>
      </trkpt>
      <trkpt lat="43.26155" lon="2.9569">
        <ele>48.4</ele>
        <time>2020-06-26T17:05:04Z</time>
      </trkpt>
      <trkpt lat="43.26157" lon="2.95691">
        <ele>48.4</ele>
        <time>2020-06-26T17:05:03Z</time>
      </trkpt>
      <trkpt lat="43.2616" lon="2.95694">
        <ele>48.4</ele>
        <time>2020-06-26T17:05:02Z</time>
      </trkpt>
      <trkpt lat="43.26164" lon="2.95696">
        <ele>48.4</ele>
        <time>2020-06-26T17:05:01Z</time>
      </trkpt>
      <trkpt lat="43.26168" lon="2.95699">
        <ele>48.4</ele>
        <time>2020-06-26T17:05:00Z</time>
      </trkpt>
      <trkpt lat="43.26171" lon="2.95702">
        <ele>48.4</ele>
        <time>2020-06-26T17:04:59Z</time>
      </trkpt>
      <trkpt lat="43.26174" lon="2.95704">
        <ele>48.4</ele>
        <time>2020-06-26T17:04:58Z</time>
      </trkpt>
      <trkpt lat="43.26177" lon="2.95707">
        <ele>48.4</ele>
        <time>2020-06-26T17:04:57Z</time>
      </trkpt>
      <trkpt lat="43.2618" lon="2.9571">
        <ele>48.2</ele>
        <time>2020-06-26T17:04:56Z</time>
      </trkpt>
      <trkpt lat="43.26183" lon="2.95712">
        <ele>48.2</ele>
        <time>2020-06-26T17:04:55Z</time>
      </trkpt>
      <trkpt lat="43.26185" lon="2.95716">
        <ele>48.2</ele>
        <time>2020-06-26T17:04:54Z</time>
      </trkpt>
      <trkpt lat="43.26188" lon="2.95719">
        <ele>48.2</ele>
        <time>2020-06-26T17:04:53Z</time>
      </trkpt>
      <trkpt lat="43.26191" lon="2.95722">
        <ele>48.2</ele>
        <time>2020-06-26T17:04:52Z</time>
      </trkpt>
      <trkpt lat="43.26194" lon="2.95726">
        <ele>48.2</ele>
        <time>2020-06-26T17:04:51Z</time>
      </trkpt>
      <trkpt lat="43.26197" lon="2.95728">
        <ele>48</ele>
        <time>2020-06-26T17:04:50Z</time>
      </trkpt>
      <trkpt lat="43.26201" lon="2.95731">
        <ele>48.2</ele>
        <time>2020-06-26T17:04:49Z</time>
      </trkpt>
      <trkpt lat="43.26205" lon="2.95732">
        <ele>48</ele>
        <time>2020-06-26T17:04:48Z</time>
      </trkpt>
      <trkpt lat="43.26209" lon="2.95734">
        <ele>48</ele>
        <time>2020-06-26T17:04:47Z</time>
      </trkpt>
      <trkpt lat="43.26213" lon="2.95737">
        <ele>48</ele>
        <time>2020-06-26T17:04:46Z</time>
      </trkpt>
      <trkpt lat="43.26217" lon="2.9574">
        <ele>48</ele>
        <time>2020-06-26T17:04:45Z</time>
      </trkpt>
      <trkpt lat="43.26221" lon="2.95741">
        <ele>48</ele>
        <time>2020-06-26T17:04:44Z</time>
      </trkpt>
      <trkpt lat="43.26224" lon="2.95743">
        <ele>48</ele>
        <time>2020-06-26T17:04:43Z</time>
      </trkpt>
      <trkpt lat="43.26227" lon="2.95746">
        <ele>48</ele>
        <time>2020-06-26T17:04:42Z</time>
      </trkpt>
      <trkpt lat="43.26231" lon="2.95748">
        <ele>48</ele>
        <time>2020-06-26T17:04:41Z</time>
      </trkpt>
      <trkpt lat="43.26236" lon="2.95751">
        <ele>48</ele>
        <time>2020-06-26T17:04:40Z</time>
      </trkpt>
      <trkpt lat="43.2624" lon="2.95753">
        <ele>48</ele>
        <time>2020-06-26T17:04:39Z</time>
      </trkpt>
      <trkpt lat="43.26243" lon="2.95756">
        <ele>48</ele>
        <time>2020-06-26T17:04:38Z</time>
      </trkpt>
      <trkpt lat="43.26247" lon="2.95758">
        <ele>48</ele>
        <time>2020-06-26T17:04:37Z</time>
      </trkpt>
      <trkpt lat="43.26249" lon="2.9576">
        <ele>48</ele>
        <time>2020-06-26T17:04:36Z</time>
      </trkpt>
      <trkpt lat="43.26253" lon="2.95763">
        <ele>48</ele>
        <time>2020-06-26T17:04:35Z</time>
      </trkpt>
      <trkpt lat="43.26256" lon="2.95766">
        <ele>48</ele>
        <time>2020-06-26T17:04:34Z</time>
      </trkpt>
      <trkpt lat="43.26261" lon="2.95768">
        <ele>48</ele>
        <time>2020-06-26T17:04:33Z</time>
      </trkpt>
      <trkpt lat="43.26263" lon="2.95772">
        <ele>48</ele>
        <time>2020-06-26T17:04:32Z</time>
      </trkpt>
      <trkpt lat="43.26266" lon="2.95774">
        <ele>48</ele>
        <time>2020-06-26T17:04:31Z</time>
      </trkpt>
      <trkpt lat="43.26269" lon="2.95777">
        <ele>48.2</ele>
        <time>2020-06-26T17:04:30Z</time>
      </trkpt>
      <trkpt lat="43.26273" lon="2.9578">
        <ele>48</ele>
        <time>2020-06-26T17:04:29Z</time>
      </trkpt>
      <trkpt lat="43.26275" lon="2.95782">
        <ele>47.8</ele>
        <time>2020-06-26T17:04:28Z</time>
      </trkpt>
      <trkpt lat="43.26278" lon="2.95785">
        <ele>47.8</ele>
        <time>2020-06-26T17:04:27Z</time>
      </trkpt>
      <trkpt lat="43.2628" lon="2.95788">
        <ele>47.8</ele>
        <time>2020-06-26T17:04:26Z</time>
      </trkpt>
      <trkpt lat="43.26283" lon="2.95792">
        <ele>47.6</ele>
        <time>2020-06-26T17:04:25Z</time>
      </trkpt>
      <trkpt lat="43.26285" lon="2.95793">
        <ele>47.6</ele>
        <time>2020-06-26T17:04:24Z</time>
      </trkpt>
      <trkpt lat="43.26289" lon="2.95795">
        <ele>47.6</ele>
        <time>2020-06-26T17:04:23Z</time>
      </trkpt>
      <trkpt lat="43.26294" lon="2.95798">
        <ele>47.4</ele>
        <time>2020-06-26T17:04:22Z</time>
      </trkpt>
      <trkpt lat="43.26297" lon="2.958">
        <ele>47.2</ele>
        <time>2020-06-26T17:04:21Z</time>
      </trkpt>
      <trkpt lat="43.26299" lon="2.95803">
        <ele>47</ele>
        <time>2020-06-26T17:04:20Z</time>
      </trkpt>
      <trkpt lat="43.26304" lon="2.95808">
        <ele>46.8</ele>
        <time>2020-06-26T17:04:19Z</time>
      </trkpt>
      <trkpt lat="43.26307" lon="2.95811">
        <ele>46.6</ele>
        <time>2020-06-26T17:04:18Z</time>
      </trkpt>
      <trkpt lat="43.2631" lon="2.95814">
        <ele>46.6</ele>
        <time>2020-06-26T17:04:17Z</time>
      </trkpt>
      <trkpt lat="43.26312" lon="2.95818">
        <ele>46.6</ele>
        <time>2020-06-26T17:04:16Z</time>
      </trkpt>
      <trkpt lat="43.26315" lon="2.95824">
        <ele>46.6</ele>
        <time>2020-06-26T17:04:15Z</time>
      </trkpt>
      <trkpt lat="43.26318" lon="2.95832">
        <ele>46.6</ele>
        <time>2020-06-26T17:04:14Z</time>
      </trkpt>
      <trkpt lat="43.26321" lon="2.95838">
        <ele>46.6</ele>
        <time>2020-06-26T17:04:13Z</time>
      </trkpt>
      <trkpt lat="43.26323" lon="2.95842">
        <ele>46.4</ele>
        <time>2020-06-26T17:04:12Z</time>
      </trkpt>
      <trkpt lat="43.26324" lon="2.95846">
        <ele>46.6</ele>
        <time>2020-06-26T17:04:11Z</time>
      </trkpt>
      <trkpt lat="43.26326" lon="2.9585">
        <ele>46.6</ele>
        <time>2020-06-26T17:04:10Z</time>
      </trkpt>
      <trkpt lat="43.26328" lon="2.95856">
        <ele>46.8</ele>
        <time>2020-06-26T17:04:09Z</time>
      </trkpt>
      <trkpt lat="43.2633" lon="2.9586">
        <ele>46.8</ele>
        <time>2020-06-26T17:04:08Z</time>
      </trkpt>
      <trkpt lat="43.26331" lon="2.95864">
        <ele>46.8</ele>
        <time>2020-06-26T17:04:07Z</time>
      </trkpt>
      <trkpt lat="43.26333" lon="2.9587">
        <ele>46.6</ele>
        <time>2020-06-26T17:04:06Z</time>
      </trkpt>
      <trkpt lat="43.26336" lon="2.95875">
        <ele>46.8</ele>
        <time>2020-06-26T17:04:05Z</time>
      </trkpt>
      <trkpt lat="43.26339" lon="2.95881">
        <ele>47</ele>
        <time>2020-06-26T17:04:04Z</time>
      </trkpt>
      <trkpt lat="43.26343" lon="2.95885">
        <ele>47</ele>
        <time>2020-06-26T17:04:03Z</time>
      </trkpt>
      <trkpt lat="43.26346" lon="2.95889">
        <ele>47</ele>
        <time>2020-06-26T17:04:02Z</time>
      </trkpt>
      <trkpt lat="43.26349" lon="2.95893">
        <ele>47</ele>
        <time>2020-06-26T17:04:01Z</time>
      </trkpt>
      <trkpt lat="43.26354" lon="2.95898">
        <ele>47.2</ele>
        <time>2020-06-26T17:04:00Z</time>
      </trkpt>
      <trkpt lat="43.26359" lon="2.95902">
        <ele>47.2</ele>
        <time>2020-06-26T17:03:59Z</time>
      </trkpt>
      <trkpt lat="43.26362" lon="2.95907">
        <ele>47.2</ele>
        <time>2020-06-26T17:03:58Z</time>
      </trkpt>
      <trkpt lat="43.26367" lon="2.95911">
        <ele>47.2</ele>
        <time>2020-06-26T17:03:57Z</time>
      </trkpt>
      <trkpt lat="43.26372" lon="2.95916">
        <ele>47.2</ele>
        <time>2020-06-26T17:03:56Z</time>
      </trkpt>
      <trkpt lat="43.26376" lon="2.95921">
        <ele>47.2</ele>
        <time>2020-06-26T17:03:55Z</time>
      </trkpt>
      <trkpt lat="43.2638" lon="2.95925">
        <ele>47.4</ele>
        <time>2020-06-26T17:03:54Z</time>
      </trkpt>
      <trkpt lat="43.26384" lon="2.9593">
        <ele>47.4</ele>
        <time>2020-06-26T17:03:53Z</time>
      </trkpt>
      <trkpt lat="43.26388" lon="2.95935">
        <ele>47.2</ele>
        <time>2020-06-26T17:03:52Z</time>
      </trkpt>
      <trkpt lat="43.2639" lon="2.95943">
        <ele>47.2</ele>
        <time>2020-06-26T17:03:51Z</time>
      </trkpt>
      <trkpt lat="43.26391" lon="2.9595">
        <ele>47.4</ele>
        <time>2020-06-26T17:03:50Z</time>
      </trkpt>
      <trkpt lat="43.26392" lon="2.95956">
        <ele>47.4</ele>
        <time>2020-06-26T17:03:49Z</time>
      </trkpt>
      <trkpt lat="43.26393" lon="2.95964">
        <ele>47.6</ele>
        <time>2020-06-26T17:03:48Z</time>
      </trkpt>
      <trkpt lat="43.26393" lon="2.95971">
        <ele>47.8</ele>
        <time>2020-06-26T17:03:47Z</time>
      </trkpt>
      <trkpt lat="43.26394" lon="2.95979">
        <ele>48</ele>
        <time>2020-06-26T17:03:46Z</time>
      </trkpt>
      <trkpt lat="43.26395" lon="2.95987">
        <ele>48</ele>
        <time>2020-06-26T17:03:45Z</time>
      </trkpt>
      <trkpt lat="43.26395" lon="2.95994">
        <ele>48.2</ele>
        <time>2020-06-26T17:03:44Z</time>
      </trkpt>
      <trkpt lat="43.26396" lon="2.96001">
        <ele>48.4</ele>
        <time>2020-06-26T17:03:43Z</time>
      </trkpt>
      <trkpt lat="43.26396" lon="2.96009">
        <ele>48.6</ele>
        <time>2020-06-26T17:03:42Z</time>
      </trkpt>
      <trkpt lat="43.26396" lon="2.96015">
        <ele>48.6</ele>
        <time>2020-06-26T17:03:41Z</time>
      </trkpt>
      <trkpt lat="43.26397" lon="2.96023">
        <ele>48.8</ele>
        <time>2020-06-26T17:03:40Z</time>
      </trkpt>
      <trkpt lat="43.26397" lon="2.96029">
        <ele>49</ele>
        <time>2020-06-26T17:03:39Z</time>
      </trkpt>
      <trkpt lat="43.26397" lon="2.96036">
        <ele>49</ele>
        <time>2020-06-26T17:03:38Z</time>
      </trkpt>
      <trkpt lat="43.26398" lon="2.96042">
        <ele>49</ele>
        <time>2020-06-26T17:03:37Z</time>
      </trkpt>
      <trkpt lat="43.26399" lon="2.96047">
        <ele>48.8</ele>
        <time>2020-06-26T17:03:36Z</time>
      </trkpt>
      <trkpt lat="43.26399" lon="2.96052">
        <ele>48.6</ele>
        <time>2020-06-26T17:03:35Z</time>
      </trkpt>
      <trkpt lat="43.26398" lon="2.96058">
        <ele>48.4</ele>
        <time>2020-06-26T17:03:34Z</time>
      </trkpt>
      <trkpt lat="43.26398" lon="2.96064">
        <ele>48.4</ele>
        <time>2020-06-26T17:03:33Z</time>
      </trkpt>
      <trkpt lat="43.26398" lon="2.96069">
        <ele>48.4</ele>
        <time>2020-06-26T17:03:32Z</time>
      </trkpt>
      <trkpt lat="43.26398" lon="2.96075">
        <ele>48.4</ele>
        <time>2020-06-26T17:03:31Z</time>
      </trkpt>
      <trkpt lat="43.26398" lon="2.96081">
        <ele>48.4</ele>
        <time>2020-06-26T17:03:30Z</time>
      </trkpt>
      <trkpt lat="43.26398" lon="2.96087">
        <ele>48.4</ele>
        <time>2020-06-26T17:03:29Z</time>
      </trkpt>
      <trkpt lat="43.26398" lon="2.96094">
        <ele>48.4</ele>
        <time>2020-06-26T17:03:28Z</time>
      </trkpt>
      <trkpt lat="43.26398" lon="2.961">
        <ele>48.4</ele>
        <time>2020-06-26T17:03:27Z</time>
      </trkpt>
      <trkpt lat="43.264" lon="2.96107">
        <ele>48.4</ele>
        <time>2020-06-26T17:03:26Z</time>
      </trkpt>
      <trkpt lat="43.26399" lon="2.96113">
        <ele>48.4</ele>
        <time>2020-06-26T17:03:25Z</time>
      </trkpt>
      <trkpt lat="43.264" lon="2.9612">
        <ele>48.2</ele>
        <time>2020-06-26T17:03:24Z</time>
      </trkpt>
      <trkpt lat="43.264" lon="2.96127">
        <ele>48.2</ele>
        <time>2020-06-26T17:03:23Z</time>
      </trkpt>
      <trkpt lat="43.26401" lon="2.96133">
        <ele>48.2</ele>
        <time>2020-06-26T17:03:22Z</time>
      </trkpt>
      <trkpt lat="43.26401" lon="2.96139">
        <ele>48.2</ele>
        <time>2020-06-26T17:03:21Z</time>
      </trkpt>
      <trkpt lat="43.264" lon="2.96145">
        <ele>48.2</ele>
        <time>2020-06-26T17:03:20Z</time>
      </trkpt>
      <trkpt lat="43.264" lon="2.9615">
        <ele>48</ele>
        <time>2020-06-26T17:03:19Z</time>
      </trkpt>
      <trkpt lat="43.264" lon="2.96156">
        <ele>48</ele>
        <time>2020-06-26T17:03:18Z</time>
      </trkpt>
      <trkpt lat="43.26399" lon="2.96162">
        <ele>48</ele>
        <time>2020-06-26T17:03:17Z</time>
      </trkpt>
      <trkpt lat="43.26399" lon="2.96167">
        <ele>47.8</ele>
        <time>2020-06-26T17:03:16Z</time>
      </trkpt>
      <trkpt lat="43.264" lon="2.96175">
        <ele>47.8</ele>
        <time>2020-06-26T17:03:15Z</time>
      </trkpt>
      <trkpt lat="43.264" lon="2.96181">
        <ele>47.8</ele>
        <time>2020-06-26T17:03:14Z</time>
      </trkpt>
      <trkpt lat="43.26399" lon="2.96188">
        <ele>47.8</ele>
        <time>2020-06-26T17:03:13Z</time>
      </trkpt>
      <trkpt lat="43.264" lon="2.96194">
        <ele>47.8</ele>
        <time>2020-06-26T17:03:12Z</time>
      </trkpt>
      <trkpt lat="43.26399" lon="2.96201">
        <ele>47.6</ele>
        <time>2020-06-26T17:03:11Z</time>
      </trkpt>
      <trkpt lat="43.26399" lon="2.96206">
        <ele>47.6</ele>
        <time>2020-06-26T17:03:10Z</time>
      </trkpt>
      <trkpt lat="43.26399" lon="2.96213">
        <ele>47.4</ele>
        <time>2020-06-26T17:03:09Z</time>
      </trkpt>
      <trkpt lat="43.26399" lon="2.96219">
        <ele>47.4</ele>
        <time>2020-06-26T17:03:08Z</time>
      </trkpt>
      <trkpt lat="43.26399" lon="2.96226">
        <ele>47.4</ele>
        <time>2020-06-26T17:03:07Z</time>
      </trkpt>
      <trkpt lat="43.26398" lon="2.96233">
        <ele>47.4</ele>
        <time>2020-06-26T17:03:06Z</time>
      </trkpt>
      <trkpt lat="43.26399" lon="2.96241">
        <ele>47.4</ele>
        <time>2020-06-26T17:03:05Z</time>
      </trkpt>
      <trkpt lat="43.26398" lon="2.96247">
        <ele>47.4</ele>
        <time>2020-06-26T17:03:04Z</time>
      </trkpt>
      <trkpt lat="43.26399" lon="2.96254">
        <ele>47.4</ele>
        <time>2020-06-26T17:03:03Z</time>
      </trkpt>
      <trkpt lat="43.26399" lon="2.9626">
        <ele>47.4</ele>
        <time>2020-06-26T17:03:02Z</time>
      </trkpt>
      <trkpt lat="43.26399" lon="2.96267">
        <ele>47.4</ele>
        <time>2020-06-26T17:03:01Z</time>
      </trkpt>
      <trkpt lat="43.264" lon="2.96274">
        <ele>47.4</ele>
        <time>2020-06-26T17:03:00Z</time>
      </trkpt>
      <trkpt lat="43.26402" lon="2.9628">
        <ele>47.4</ele>
        <time>2020-06-26T17:02:59Z</time>
      </trkpt>
      <trkpt lat="43.26403" lon="2.96286">
        <ele>47.4</ele>
        <time>2020-06-26T17:02:58Z</time>
      </trkpt>
      <trkpt lat="43.26405" lon="2.96291">
        <ele>47.4</ele>
        <time>2020-06-26T17:02:57Z</time>
      </trkpt>
      <trkpt lat="43.26405" lon="2.96297">
        <ele>47.4</ele>
        <time>2020-06-26T17:02:56Z</time>
      </trkpt>
      <trkpt lat="43.26406" lon="2.96303">
        <ele>47.4</ele>
        <time>2020-06-26T17:02:55Z</time>
      </trkpt>
      <trkpt lat="43.26408" lon="2.96309">
        <ele>47.4</ele>
        <time>2020-06-26T17:02:54Z</time>
      </trkpt>
      <trkpt lat="43.2641" lon="2.96314">
        <ele>47.4</ele>
        <time>2020-06-26T17:02:53Z</time>
      </trkpt>
      <trkpt lat="43.26412" lon="2.96321">
        <ele>47.6</ele>
        <time>2020-06-26T17:02:52Z</time>
      </trkpt>
      <trkpt lat="43.26413" lon="2.96326">
        <ele>47.6</ele>
        <time>2020-06-26T17:02:51Z</time>
      </trkpt>
      <trkpt lat="43.26415" lon="2.96334">
        <ele>47.6</ele>
        <time>2020-06-26T17:02:50Z</time>
      </trkpt>
      <trkpt lat="43.26417" lon="2.96342">
        <ele>47.6</ele>
        <time>2020-06-26T17:02:49Z</time>
      </trkpt>
      <trkpt lat="43.26418" lon="2.96348">
        <ele>47.6</ele>
        <time>2020-06-26T17:02:48Z</time>
      </trkpt>
      <trkpt lat="43.26418" lon="2.96355">
        <ele>47.4</ele>
        <time>2020-06-26T17:02:47Z</time>
      </trkpt>
      <trkpt lat="43.26418" lon="2.96362">
        <ele>47.4</ele>
        <time>2020-06-26T17:02:46Z</time>
      </trkpt>
      <trkpt lat="43.26418" lon="2.96368">
        <ele>47.2</ele>
        <time>2020-06-26T17:02:45Z</time>
      </trkpt>
      <trkpt lat="43.26418" lon="2.96374">
        <ele>47.2</ele>
        <time>2020-06-26T17:02:44Z</time>
      </trkpt>
      <trkpt lat="43.26419" lon="2.96381">
        <ele>47.2</ele>
        <time>2020-06-26T17:02:43Z</time>
      </trkpt>
      <trkpt lat="43.26419" lon="2.96388">
        <ele>47.2</ele>
        <time>2020-06-26T17:02:42Z</time>
      </trkpt>
      <trkpt lat="43.26419" lon="2.96395">
        <ele>47.4</ele>
        <time>2020-06-26T17:02:41Z</time>
      </trkpt>
      <trkpt lat="43.26419" lon="2.964">
        <ele>47.2</ele>
        <time>2020-06-26T17:02:40Z</time>
      </trkpt>
      <trkpt lat="43.2642" lon="2.96408">
        <ele>47.2</ele>
        <time>2020-06-26T17:02:39Z</time>
      </trkpt>
      <trkpt lat="43.2642" lon="2.96415">
        <ele>47</ele>
        <time>2020-06-26T17:02:38Z</time>
      </trkpt>
      <trkpt lat="43.2642" lon="2.96421">
        <ele>47</ele>
        <time>2020-06-26T17:02:37Z</time>
      </trkpt>
      <trkpt lat="43.26421" lon="2.96427">
        <ele>47</ele>
        <time>2020-06-26T17:02:36Z</time>
      </trkpt>
      <trkpt lat="43.26422" lon="2.96433">
        <ele>47</ele>
        <time>2020-06-26T17:02:35Z</time>
      </trkpt>
      <trkpt lat="43.26423" lon="2.96439">
        <ele>46.8</ele>
        <time>2020-06-26T17:02:34Z</time>
      </trkpt>
      <trkpt lat="43.26423" lon="2.96445">
        <ele>47</ele>
        <time>2020-06-26T17:02:33Z</time>
      </trkpt>
      <trkpt lat="43.26424" lon="2.96451">
        <ele>46.8</ele>
        <time>2020-06-26T17:02:32Z</time>
      </trkpt>
      <trkpt lat="43.26425" lon="2.96458">
        <ele>46.8</ele>
        <time>2020-06-26T17:02:31Z</time>
      </trkpt>
      <trkpt lat="43.26425" lon="2.96464">
        <ele>46.8</ele>
        <time>2020-06-26T17:02:30Z</time>
      </trkpt>
      <trkpt lat="43.26425" lon="2.96469">
        <ele>46.8</ele>
        <time>2020-06-26T17:02:29Z</time>
      </trkpt>
      <trkpt lat="43.26425" lon="2.96474">
        <ele>46.6</ele>
        <time>2020-06-26T17:02:28Z</time>
      </trkpt>
      <trkpt lat="43.26425" lon="2.96479">
        <ele>46.6</ele>
        <time>2020-06-26T17:02:27Z</time>
      </trkpt>
      <trkpt lat="43.26426" lon="2.96484">
        <ele>46.6</ele>
        <time>2020-06-26T17:02:26Z</time>
      </trkpt>
      <trkpt lat="43.26426" lon="2.9649">
        <ele>46.6</ele>
        <time>2020-06-26T17:02:25Z</time>
      </trkpt>
      <trkpt lat="43.26426" lon="2.96495">
        <ele>46.6</ele>
        <time>2020-06-26T17:02:24Z</time>
      </trkpt>
      <trkpt lat="43.26426" lon="2.96501">
        <ele>46.6</ele>
        <time>2020-06-26T17:02:23Z</time>
      </trkpt>
      <trkpt lat="43.26426" lon="2.96507">
        <ele>46.4</ele>
        <time>2020-06-26T17:02:22Z</time>
      </trkpt>
      <trkpt lat="43.26426" lon="2.96512">
        <ele>46.2</ele>
        <time>2020-06-26T17:02:21Z</time>
      </trkpt>
      <trkpt lat="43.26426" lon="2.96517">
        <ele>46.2</ele>
        <time>2020-06-26T17:02:20Z</time>
      </trkpt>
      <trkpt lat="43.26427" lon="2.96524">
        <ele>46</ele>
        <time>2020-06-26T17:02:19Z</time>
      </trkpt>
      <trkpt lat="43.26428" lon="2.9653">
        <ele>46</ele>
        <time>2020-06-26T17:02:18Z</time>
      </trkpt>
      <trkpt lat="43.26429" lon="2.96535">
        <ele>45.8</ele>
        <time>2020-06-26T17:02:17Z</time>
      </trkpt>
      <trkpt lat="43.26429" lon="2.96541">
        <ele>45.8</ele>
        <time>2020-06-26T17:02:16Z</time>
      </trkpt>
      <trkpt lat="43.26429" lon="2.96547">
        <ele>45.6</ele>
        <time>2020-06-26T17:02:15Z</time>
      </trkpt>
      <trkpt lat="43.26429" lon="2.96555">
        <ele>45.6</ele>
        <time>2020-06-26T17:02:14Z</time>
      </trkpt>
      <trkpt lat="43.26429" lon="2.96562">
        <ele>45.8</ele>
        <time>2020-06-26T17:02:13Z</time>
      </trkpt>
      <trkpt lat="43.26428" lon="2.96567">
        <ele>45.8</ele>
        <time>2020-06-26T17:02:12Z</time>
      </trkpt>
      <trkpt lat="43.26428" lon="2.96575">
        <ele>45.6</ele>
        <time>2020-06-26T17:02:11Z</time>
      </trkpt>
      <trkpt lat="43.26428" lon="2.96581">
        <ele>45.6</ele>
        <time>2020-06-26T17:02:10Z</time>
      </trkpt>
      <trkpt lat="43.26428" lon="2.96588">
        <ele>45.6</ele>
        <time>2020-06-26T17:02:09Z</time>
      </trkpt>
      <trkpt lat="43.26428" lon="2.96594">
        <ele>45.6</ele>
        <time>2020-06-26T17:02:08Z</time>
      </trkpt>
      <trkpt lat="43.26428" lon="2.966">
        <ele>45.6</ele>
        <time>2020-06-26T17:02:07Z</time>
      </trkpt>
      <trkpt lat="43.26428" lon="2.96607">
        <ele>45.6</ele>
        <time>2020-06-26T17:02:06Z</time>
      </trkpt>
      <trkpt lat="43.26428" lon="2.96613">
        <ele>45.6</ele>
        <time>2020-06-26T17:02:05Z</time>
      </trkpt>
      <trkpt lat="43.26428" lon="2.96618">
        <ele>45.6</ele>
        <time>2020-06-26T17:02:04Z</time>
      </trkpt>
      <trkpt lat="43.26427" lon="2.96623">
        <ele>45.4</ele>
        <time>2020-06-26T17:02:03Z</time>
      </trkpt>
      <trkpt lat="43.26427" lon="2.96631">
        <ele>45.4</ele>
        <time>2020-06-26T17:02:02Z</time>
      </trkpt>
      <trkpt lat="43.26427" lon="2.96637">
        <ele>45.4</ele>
        <time>2020-06-26T17:02:01Z</time>
      </trkpt>
      <trkpt lat="43.26427" lon="2.96644">
        <ele>45.4</ele>
        <time>2020-06-26T17:02:00Z</time>
      </trkpt>
      <trkpt lat="43.26427" lon="2.9665">
        <ele>45.4</ele>
        <time>2020-06-26T17:01:59Z</time>
      </trkpt>
      <trkpt lat="43.26427" lon="2.96657">
        <ele>45.2</ele>
        <time>2020-06-26T17:01:58Z</time>
      </trkpt>
      <trkpt lat="43.26427" lon="2.96663">
        <ele>45.2</ele>
        <time>2020-06-26T17:01:57Z</time>
      </trkpt>
      <trkpt lat="43.26426" lon="2.96669">
        <ele>45.2</ele>
        <time>2020-06-26T17:01:56Z</time>
      </trkpt>
      <trkpt lat="43.26426" lon="2.96675">
        <ele>45.2</ele>
        <time>2020-06-26T17:01:55Z</time>
      </trkpt>
      <trkpt lat="43.26427" lon="2.96682">
        <ele>45.2</ele>
        <time>2020-06-26T17:01:54Z</time>
      </trkpt>
      <trkpt lat="43.26428" lon="2.96687">
        <ele>45.2</ele>
        <time>2020-06-26T17:01:53Z</time>
      </trkpt>
      <trkpt lat="43.26428" lon="2.96693">
        <ele>45.2</ele>
        <time>2020-06-26T17:01:52Z</time>
      </trkpt>
      <trkpt lat="43.26428" lon="2.96699">
        <ele>45.2</ele>
        <time>2020-06-26T17:01:51Z</time>
      </trkpt>
      <trkpt lat="43.26428" lon="2.96705">
        <ele>45.2</ele>
        <time>2020-06-26T17:01:50Z</time>
      </trkpt>
      <trkpt lat="43.26428" lon="2.96712">
        <ele>45.2</ele>
        <time>2020-06-26T17:01:49Z</time>
      </trkpt>
      <trkpt lat="43.26428" lon="2.96717">
        <ele>45.2</ele>
        <time>2020-06-26T17:01:48Z</time>
      </trkpt>
      <trkpt lat="43.26428" lon="2.96724">
        <ele>45</ele>
        <time>2020-06-26T17:01:47Z</time>
      </trkpt>
      <trkpt lat="43.26428" lon="2.9673">
        <ele>45</ele>
        <time>2020-06-26T17:01:46Z</time>
      </trkpt>
      <trkpt lat="43.26428" lon="2.96737">
        <ele>45</ele>
        <time>2020-06-26T17:01:45Z</time>
      </trkpt>
      <trkpt lat="43.26427" lon="2.96742">
        <ele>45.2</ele>
        <time>2020-06-26T17:01:44Z</time>
      </trkpt>
      <trkpt lat="43.26429" lon="2.96749">
        <ele>45.2</ele>
        <time>2020-06-26T17:01:43Z</time>
      </trkpt>
      <trkpt lat="43.26429" lon="2.96756">
        <ele>45.2</ele>
        <time>2020-06-26T17:01:42Z</time>
      </trkpt>
      <trkpt lat="43.26428" lon="2.96762">
        <ele>45.2</ele>
        <time>2020-06-26T17:01:41Z</time>
      </trkpt>
      <trkpt lat="43.26427" lon="2.96768">
        <ele>45.2</ele>
        <time>2020-06-26T17:01:40Z</time>
      </trkpt>
      <trkpt lat="43.26427" lon="2.96775">
        <ele>45.2</ele>
        <time>2020-06-26T17:01:39Z</time>
      </trkpt>
      <trkpt lat="43.26428" lon="2.96782">
        <ele>45.2</ele>
        <time>2020-06-26T17:01:38Z</time>
      </trkpt>
      <trkpt lat="43.26428" lon="2.96789">
        <ele>45.2</ele>
        <time>2020-06-26T17:01:37Z</time>
      </trkpt>
      <trkpt lat="43.26429" lon="2.96796">
        <ele>45.2</ele>
        <time>2020-06-26T17:01:36Z</time>
      </trkpt>
      <trkpt lat="43.26428" lon="2.96803">
        <ele>45.2</ele>
        <time>2020-06-26T17:01:35Z</time>
      </trkpt>
      <trkpt lat="43.26428" lon="2.9681">
        <ele>45.2</ele>
        <time>2020-06-26T17:01:34Z</time>
      </trkpt>
      <trkpt lat="43.26428" lon="2.96816">
        <ele>45</ele>
        <time>2020-06-26T17:01:33Z</time>
      </trkpt>
      <trkpt lat="43.26428" lon="2.96824">
        <ele>45</ele>
        <time>2020-06-26T17:01:32Z</time>
      </trkpt>
      <trkpt lat="43.26428" lon="2.96832">
        <ele>45.2</ele>
        <time>2020-06-26T17:01:31Z</time>
      </trkpt>
      <trkpt lat="43.26428" lon="2.96839">
        <ele>45.2</ele>
        <time>2020-06-26T17:01:30Z</time>
      </trkpt>
      <trkpt lat="43.26427" lon="2.96846">
        <ele>45</ele>
        <time>2020-06-26T17:01:29Z</time>
      </trkpt>
      <trkpt lat="43.26427" lon="2.96853">
        <ele>45</ele>
        <time>2020-06-26T17:01:28Z</time>
      </trkpt>
      <trkpt lat="43.26427" lon="2.96861">
        <ele>45</ele>
        <time>2020-06-26T17:01:27Z</time>
      </trkpt>
      <trkpt lat="43.26427" lon="2.96868">
        <ele>45</ele>
        <time>2020-06-26T17:01:26Z</time>
      </trkpt>
      <trkpt lat="43.26428" lon="2.96876">
        <ele>45</ele>
        <time>2020-06-26T17:01:25Z</time>
      </trkpt>
      <trkpt lat="43.26427" lon="2.96882">
        <ele>45</ele>
        <time>2020-06-26T17:01:24Z</time>
      </trkpt>
      <trkpt lat="43.26427" lon="2.96889">
        <ele>45</ele>
        <time>2020-06-26T17:01:23Z</time>
      </trkpt>
      <trkpt lat="43.26426" lon="2.96897">
        <ele>45</ele>
        <time>2020-06-26T17:01:22Z</time>
      </trkpt>
      <trkpt lat="43.26425" lon="2.96904">
        <ele>45</ele>
        <time>2020-06-26T17:01:21Z</time>
      </trkpt>
      <trkpt lat="43.26424" lon="2.9691">
        <ele>44.8</ele>
        <time>2020-06-26T17:01:20Z</time>
      </trkpt>
      <trkpt lat="43.26423" lon="2.96918">
        <ele>44.8</ele>
        <time>2020-06-26T17:01:19Z</time>
      </trkpt>
      <trkpt lat="43.26421" lon="2.96925">
        <ele>44.6</ele>
        <time>2020-06-26T17:01:18Z</time>
      </trkpt>
      <trkpt lat="43.26421" lon="2.96933">
        <ele>44.6</ele>
        <time>2020-06-26T17:01:17Z</time>
      </trkpt>
      <trkpt lat="43.2642" lon="2.9694">
        <ele>44.6</ele>
        <time>2020-06-26T17:01:16Z</time>
      </trkpt>
      <trkpt lat="43.26418" lon="2.96948">
        <ele>44.6</ele>
        <time>2020-06-26T17:01:15Z</time>
      </trkpt>
      <trkpt lat="43.26418" lon="2.96955">
        <ele>44.6</ele>
        <time>2020-06-26T17:01:14Z</time>
      </trkpt>
      <trkpt lat="43.26418" lon="2.96964">
        <ele>44.6</ele>
        <time>2020-06-26T17:01:13Z</time>
      </trkpt>
      <trkpt lat="43.26418" lon="2.96972">
        <ele>44.6</ele>
        <time>2020-06-26T17:01:12Z</time>
      </trkpt>
      <trkpt lat="43.26418" lon="2.9698">
        <ele>44.6</ele>
        <time>2020-06-26T17:01:11Z</time>
      </trkpt>
      <trkpt lat="43.26418" lon="2.96988">
        <ele>44.4</ele>
        <time>2020-06-26T17:01:10Z</time>
      </trkpt>
      <trkpt lat="43.26418" lon="2.96995">
        <ele>44.4</ele>
        <time>2020-06-26T17:01:09Z</time>
      </trkpt>
      <trkpt lat="43.26417" lon="2.97003">
        <ele>44.4</ele>
        <time>2020-06-26T17:01:08Z</time>
      </trkpt>
      <trkpt lat="43.26417" lon="2.97011">
        <ele>44.4</ele>
        <time>2020-06-26T17:01:07Z</time>
      </trkpt>
      <trkpt lat="43.26417" lon="2.97019">
        <ele>44.4</ele>
        <time>2020-06-26T17:01:06Z</time>
      </trkpt>
      <trkpt lat="43.26417" lon="2.97027">
        <ele>44.4</ele>
        <time>2020-06-26T17:01:05Z</time>
      </trkpt>
      <trkpt lat="43.26416" lon="2.97035">
        <ele>44.4</ele>
        <time>2020-06-26T17:01:04Z</time>
      </trkpt>
      <trkpt lat="43.26415" lon="2.97043">
        <ele>44.4</ele>
        <time>2020-06-26T17:01:03Z</time>
      </trkpt>
      <trkpt lat="43.26416" lon="2.97051">
        <ele>44.4</ele>
        <time>2020-06-26T17:01:02Z</time>
      </trkpt>
      <trkpt lat="43.26416" lon="2.97058">
        <ele>44.4</ele>
        <time>2020-06-26T17:01:01Z</time>
      </trkpt>
      <trkpt lat="43.26416" lon="2.97067">
        <ele>44.4</ele>
        <time>2020-06-26T17:01:00Z</time>
      </trkpt>
      <trkpt lat="43.26415" lon="2.97075">
        <ele>44.4</ele>
        <time>2020-06-26T17:00:59Z</time>
      </trkpt>
      <trkpt lat="43.26415" lon="2.97082">
        <ele>44.4</ele>
        <time>2020-06-26T17:00:58Z</time>
      </trkpt>
      <trkpt lat="43.26414" lon="2.9709">
        <ele>44.4</ele>
        <time>2020-06-26T17:00:57Z</time>
      </trkpt>
      <trkpt lat="43.26414" lon="2.97098">
        <ele>44.4</ele>
        <time>2020-06-26T17:00:56Z</time>
      </trkpt>
      <trkpt lat="43.26413" lon="2.97105">
        <ele>44.4</ele>
        <time>2020-06-26T17:00:55Z</time>
      </trkpt>
      <trkpt lat="43.26412" lon="2.97112">
        <ele>44.4</ele>
        <time>2020-06-26T17:00:54Z</time>
      </trkpt>
      <trkpt lat="43.26412" lon="2.9712">
        <ele>44.6</ele>
        <time>2020-06-26T17:00:53Z</time>
      </trkpt>
      <trkpt lat="43.26411" lon="2.97127">
        <ele>44.4</ele>
        <time>2020-06-26T17:00:52Z</time>
      </trkpt>
      <trkpt lat="43.26411" lon="2.97135">
        <ele>44.4</ele>
        <time>2020-06-26T17:00:51Z</time>
      </trkpt>
      <trkpt lat="43.2641" lon="2.97143">
        <ele>44.4</ele>
        <time>2020-06-26T17:00:50Z</time>
      </trkpt>
      <trkpt lat="43.2641" lon="2.97151">
        <ele>44.4</ele>
        <time>2020-06-26T17:00:49Z</time>
      </trkpt>
      <trkpt lat="43.26409" lon="2.97159">
        <ele>44.4</ele>
        <time>2020-06-26T17:00:48Z</time>
      </trkpt>
      <trkpt lat="43.26409" lon="2.97166">
        <ele>44.4</ele>
        <time>2020-06-26T17:00:47Z</time>
      </trkpt>
      <trkpt lat="43.26408" lon="2.97173">
        <ele>44.4</ele>
        <time>2020-06-26T17:00:46Z</time>
      </trkpt>
      <trkpt lat="43.26408" lon="2.9718">
        <ele>44.4</ele>
        <time>2020-06-26T17:00:45Z</time>
      </trkpt>
      <trkpt lat="43.26408" lon="2.97188">
        <ele>44.4</ele>
        <time>2020-06-26T17:00:44Z</time>
      </trkpt>
      <trkpt lat="43.26408" lon="2.97196">
        <ele>44.4</ele>
        <time>2020-06-26T17:00:43Z</time>
      </trkpt>
      <trkpt lat="43.26408" lon="2.97203">
        <ele>44.4</ele>
        <time>2020-06-26T17:00:42Z</time>
      </trkpt>
      <trkpt lat="43.26407" lon="2.97211">
        <ele>44.4</ele>
        <time>2020-06-26T17:00:41Z</time>
      </trkpt>
      <trkpt lat="43.26407" lon="2.97218">
        <ele>44.4</ele>
        <time>2020-06-26T17:00:40Z</time>
      </trkpt>
      <trkpt lat="43.26406" lon="2.97226">
        <ele>44.4</ele>
        <time>2020-06-26T17:00:39Z</time>
      </trkpt>
      <trkpt lat="43.26405" lon="2.97234">
        <ele>44.4</ele>
        <time>2020-06-26T17:00:38Z</time>
      </trkpt>
      <trkpt lat="43.26404" lon="2.97242">
        <ele>44.2</ele>
        <time>2020-06-26T17:00:37Z</time>
      </trkpt>
      <trkpt lat="43.26403" lon="2.97249">
        <ele>44.2</ele>
        <time>2020-06-26T17:00:36Z</time>
      </trkpt>
      <trkpt lat="43.26402" lon="2.97257">
        <ele>44.2</ele>
        <time>2020-06-26T17:00:35Z</time>
      </trkpt>
      <trkpt lat="43.26402" lon="2.97264">
        <ele>44.2</ele>
        <time>2020-06-26T17:00:34Z</time>
      </trkpt>
      <trkpt lat="43.26401" lon="2.97272">
        <ele>44.2</ele>
        <time>2020-06-26T17:00:33Z</time>
      </trkpt>
      <trkpt lat="43.264" lon="2.97279">
        <ele>44.2</ele>
        <time>2020-06-26T17:00:32Z</time>
      </trkpt>
      <trkpt lat="43.264" lon="2.97286">
        <ele>44.2</ele>
        <time>2020-06-26T17:00:31Z</time>
      </trkpt>
      <trkpt lat="43.26399" lon="2.97293">
        <ele>44.4</ele>
        <time>2020-06-26T17:00:30Z</time>
      </trkpt>
      <trkpt lat="43.26399" lon="2.973">
        <ele>44.2</ele>
        <time>2020-06-26T17:00:29Z</time>
      </trkpt>
      <trkpt lat="43.26399" lon="2.97307">
        <ele>44.2</ele>
        <time>2020-06-26T17:00:28Z</time>
      </trkpt>
      <trkpt lat="43.26398" lon="2.97314">
        <ele>44.2</ele>
        <time>2020-06-26T17:00:27Z</time>
      </trkpt>
      <trkpt lat="43.26398" lon="2.9732">
        <ele>44.2</ele>
        <time>2020-06-26T17:00:26Z</time>
      </trkpt>
      <trkpt lat="43.26398" lon="2.97327">
        <ele>44.2</ele>
        <time>2020-06-26T17:00:25Z</time>
      </trkpt>
      <trkpt lat="43.26398" lon="2.97333">
        <ele>44.2</ele>
        <time>2020-06-26T17:00:24Z</time>
      </trkpt>
      <trkpt lat="43.26397" lon="2.9734">
        <ele>44.2</ele>
        <time>2020-06-26T17:00:23Z</time>
      </trkpt>
      <trkpt lat="43.26397" lon="2.97346">
        <ele>44</ele>
        <time>2020-06-26T17:00:22Z</time>
      </trkpt>
      <trkpt lat="43.26397" lon="2.97353">
        <ele>44</ele>
        <time>2020-06-26T17:00:21Z</time>
      </trkpt>
      <trkpt lat="43.26398" lon="2.97359">
        <ele>44.2</ele>
        <time>2020-06-26T17:00:20Z</time>
      </trkpt>
      <trkpt lat="43.26398" lon="2.97366">
        <ele>44</ele>
        <time>2020-06-26T17:00:19Z</time>
      </trkpt>
      <trkpt lat="43.26397" lon="2.97373">
        <ele>44</ele>
        <time>2020-06-26T17:00:18Z</time>
      </trkpt>
      <trkpt lat="43.26397" lon="2.9738">
        <ele>44</ele>
        <time>2020-06-26T17:00:17Z</time>
      </trkpt>
      <trkpt lat="43.26397" lon="2.97387">
        <ele>44</ele>
        <time>2020-06-26T17:00:16Z</time>
      </trkpt>
      <trkpt lat="43.26397" lon="2.97394">
        <ele>44</ele>
        <time>2020-06-26T17:00:15Z</time>
      </trkpt>
      <trkpt lat="43.26397" lon="2.97401">
        <ele>44.2</ele>
        <time>2020-06-26T17:00:14Z</time>
      </trkpt>
      <trkpt lat="43.26397" lon="2.97409">
        <ele>44.2</ele>
        <time>2020-06-26T17:00:13Z</time>
      </trkpt>
      <trkpt lat="43.26397" lon="2.97417">
        <ele>44.2</ele>
        <time>2020-06-26T17:00:12Z</time>
      </trkpt>
      <trkpt lat="43.26397" lon="2.97425">
        <ele>44</ele>
        <time>2020-06-26T17:00:11Z</time>
      </trkpt>
      <trkpt lat="43.26396" lon="2.97433">
        <ele>44</ele>
        <time>2020-06-26T17:00:10Z</time>
      </trkpt>
      <trkpt lat="43.26396" lon="2.97441">
        <ele>44</ele>
        <time>2020-06-26T17:00:09Z</time>
      </trkpt>
      <trkpt lat="43.26396" lon="2.97449">
        <ele>44</ele>
        <time>2020-06-26T17:00:08Z</time>
      </trkpt>
      <trkpt lat="43.26395" lon="2.97457">
        <ele>44</ele>
        <time>2020-06-26T17:00:07Z</time>
      </trkpt>
      <trkpt lat="43.26395" lon="2.97466">
        <ele>44.2</ele>
        <time>2020-06-26T17:00:06Z</time>
      </trkpt>
      <trkpt lat="43.26394" lon="2.97474">
        <ele>44.2</ele>
        <time>2020-06-26T17:00:05Z</time>
      </trkpt>
      <trkpt lat="43.26394" lon="2.97482">
        <ele>44.2</ele>
        <time>2020-06-26T17:00:04Z</time>
      </trkpt>
      <trkpt lat="43.26393" lon="2.97491">
        <ele>44.2</ele>
        <time>2020-06-26T17:00:03Z</time>
      </trkpt>
      <trkpt lat="43.26392" lon="2.975">
        <ele>44.2</ele>
        <time>2020-06-26T17:00:02Z</time>
      </trkpt>
      <trkpt lat="43.26391" lon="2.97508">
        <ele>44.2</ele>
        <time>2020-06-26T17:00:01Z</time>
      </trkpt>
      <trkpt lat="43.2639" lon="2.97515">
        <ele>44.2</ele>
        <time>2020-06-26T17:00:00Z</time>
      </trkpt>
      <trkpt lat="43.26388" lon="2.97523">
        <ele>44</ele>
        <time>2020-06-26T16:59:59Z</time>
      </trkpt>
      <trkpt lat="43.26387" lon="2.9753">
        <ele>44</ele>
        <time>2020-06-26T16:59:58Z</time>
      </trkpt>
      <trkpt lat="43.26385" lon="2.97538">
        <ele>44</ele>
        <time>2020-06-26T16:59:57Z</time>
      </trkpt>
      <trkpt lat="43.26385" lon="2.97547">
        <ele>44</ele>
        <time>2020-06-26T16:59:56Z</time>
      </trkpt>
      <trkpt lat="43.26384" lon="2.97554">
        <ele>44</ele>
        <time>2020-06-26T16:59:55Z</time>
      </trkpt>
      <trkpt lat="43.26384" lon="2.97562">
        <ele>44</ele>
        <time>2020-06-26T16:59:54Z</time>
      </trkpt>
      <trkpt lat="43.26384" lon="2.9757">
        <ele>44</ele>
        <time>2020-06-26T16:59:53Z</time>
      </trkpt>
      <trkpt lat="43.26383" lon="2.97578">
        <ele>43.8</ele>
        <time>2020-06-26T16:59:52Z</time>
      </trkpt>
      <trkpt lat="43.26382" lon="2.97586">
        <ele>43.8</ele>
        <time>2020-06-26T16:59:51Z</time>
      </trkpt>
      <trkpt lat="43.26382" lon="2.97594">
        <ele>43.8</ele>
        <time>2020-06-26T16:59:50Z</time>
      </trkpt>
      <trkpt lat="43.26382" lon="2.97603">
        <ele>43.8</ele>
        <time>2020-06-26T16:59:49Z</time>
      </trkpt>
      <trkpt lat="43.26381" lon="2.97613">
        <ele>43.8</ele>
        <time>2020-06-26T16:59:48Z</time>
      </trkpt>
      <trkpt lat="43.26381" lon="2.97621">
        <ele>43.8</ele>
        <time>2020-06-26T16:59:47Z</time>
      </trkpt>
      <trkpt lat="43.2638" lon="2.9763">
        <ele>44</ele>
        <time>2020-06-26T16:59:46Z</time>
      </trkpt>
      <trkpt lat="43.26378" lon="2.97638">
        <ele>44</ele>
        <time>2020-06-26T16:59:45Z</time>
      </trkpt>
      <trkpt lat="43.26377" lon="2.97646">
        <ele>43.8</ele>
        <time>2020-06-26T16:59:44Z</time>
      </trkpt>
      <trkpt lat="43.26378" lon="2.97654">
        <ele>43.8</ele>
        <time>2020-06-26T16:59:43Z</time>
      </trkpt>
      <trkpt lat="43.26378" lon="2.97662">
        <ele>43.8</ele>
        <time>2020-06-26T16:59:42Z</time>
      </trkpt>
      <trkpt lat="43.26378" lon="2.97669">
        <ele>43.8</ele>
        <time>2020-06-26T16:59:41Z</time>
      </trkpt>
      <trkpt lat="43.26378" lon="2.97676">
        <ele>43.8</ele>
        <time>2020-06-26T16:59:40Z</time>
      </trkpt>
      <trkpt lat="43.26379" lon="2.97684">
        <ele>43.8</ele>
        <time>2020-06-26T16:59:39Z</time>
      </trkpt>
      <trkpt lat="43.26379" lon="2.97691">
        <ele>43.8</ele>
        <time>2020-06-26T16:59:38Z</time>
      </trkpt>
      <trkpt lat="43.26381" lon="2.97699">
        <ele>43.8</ele>
        <time>2020-06-26T16:59:37Z</time>
      </trkpt>
      <trkpt lat="43.2638" lon="2.97707">
        <ele>43.8</ele>
        <time>2020-06-26T16:59:36Z</time>
      </trkpt>
      <trkpt lat="43.26381" lon="2.97714">
        <ele>43.8</ele>
        <time>2020-06-26T16:59:35Z</time>
      </trkpt>
      <trkpt lat="43.2638" lon="2.97721">
        <ele>43.8</ele>
        <time>2020-06-26T16:59:34Z</time>
      </trkpt>
      <trkpt lat="43.26382" lon="2.97729">
        <ele>43.8</ele>
        <time>2020-06-26T16:59:33Z</time>
      </trkpt>
      <trkpt lat="43.26382" lon="2.97737">
        <ele>43.8</ele>
        <time>2020-06-26T16:59:32Z</time>
      </trkpt>
      <trkpt lat="43.26382" lon="2.97745">
        <ele>44</ele>
        <time>2020-06-26T16:59:31Z</time>
      </trkpt>
      <trkpt lat="43.26382" lon="2.97752">
        <ele>44</ele>
        <time>2020-06-26T16:59:30Z</time>
      </trkpt>
      <trkpt lat="43.26383" lon="2.9776">
        <ele>44</ele>
        <time>2020-06-26T16:59:29Z</time>
      </trkpt>
      <trkpt lat="43.26383" lon="2.97769">
        <ele>44</ele>
        <time>2020-06-26T16:59:28Z</time>
      </trkpt>
      <trkpt lat="43.26382" lon="2.97778">
        <ele>44</ele>
        <time>2020-06-26T16:59:27Z</time>
      </trkpt>
      <trkpt lat="43.26381" lon="2.97785">
        <ele>44</ele>
        <time>2020-06-26T16:59:26Z</time>
      </trkpt>
      <trkpt lat="43.26379" lon="2.97794">
        <ele>44</ele>
        <time>2020-06-26T16:59:25Z</time>
      </trkpt>
      <trkpt lat="43.26378" lon="2.97799">
        <ele>44</ele>
        <time>2020-06-26T16:59:24Z</time>
      </trkpt>
      <trkpt lat="43.26376" lon="2.97807">
        <ele>44</ele>
        <time>2020-06-26T16:59:23Z</time>
      </trkpt>
      <trkpt lat="43.26374" lon="2.97814">
        <ele>44</ele>
        <time>2020-06-26T16:59:22Z</time>
      </trkpt>
      <trkpt lat="43.2637" lon="2.97822">
        <ele>44</ele>
        <time>2020-06-26T16:59:21Z</time>
      </trkpt>
      <trkpt lat="43.26367" lon="2.97829">
        <ele>44.2</ele>
        <time>2020-06-26T16:59:20Z</time>
      </trkpt>
      <trkpt lat="43.26364" lon="2.97835">
        <ele>44.2</ele>
        <time>2020-06-26T16:59:19Z</time>
      </trkpt>
      <trkpt lat="43.26361" lon="2.97842">
        <ele>44</ele>
        <time>2020-06-26T16:59:18Z</time>
      </trkpt>
      <trkpt lat="43.2636" lon="2.9785">
        <ele>44</ele>
        <time>2020-06-26T16:59:17Z</time>
      </trkpt>
      <trkpt lat="43.26356" lon="2.97856">
        <ele>44</ele>
        <time>2020-06-26T16:59:16Z</time>
      </trkpt>
      <trkpt lat="43.26353" lon="2.97863">
        <ele>44</ele>
        <time>2020-06-26T16:59:15Z</time>
      </trkpt>
      <trkpt lat="43.26351" lon="2.97871">
        <ele>44</ele>
        <time>2020-06-26T16:59:14Z</time>
      </trkpt>
      <trkpt lat="43.26348" lon="2.97878">
        <ele>44</ele>
        <time>2020-06-26T16:59:13Z</time>
      </trkpt>
      <trkpt lat="43.26345" lon="2.97886">
        <ele>44</ele>
        <time>2020-06-26T16:59:12Z</time>
      </trkpt>
      <trkpt lat="43.26342" lon="2.97892">
        <ele>44</ele>
        <time>2020-06-26T16:59:11Z</time>
      </trkpt>
      <trkpt lat="43.26339" lon="2.979">
        <ele>43.8</ele>
        <time>2020-06-26T16:59:10Z</time>
      </trkpt>
      <trkpt lat="43.26336" lon="2.97908">
        <ele>43.8</ele>
        <time>2020-06-26T16:59:09Z</time>
      </trkpt>
      <trkpt lat="43.26334" lon="2.97915">
        <ele>43.8</ele>
        <time>2020-06-26T16:59:08Z</time>
      </trkpt>
      <trkpt lat="43.26332" lon="2.97922">
        <ele>43.8</ele>
        <time>2020-06-26T16:59:07Z</time>
      </trkpt>
      <trkpt lat="43.2633" lon="2.97931">
        <ele>44</ele>
        <time>2020-06-26T16:59:06Z</time>
      </trkpt>
      <trkpt lat="43.26328" lon="2.97938">
        <ele>44</ele>
        <time>2020-06-26T16:59:05Z</time>
      </trkpt>
      <trkpt lat="43.26326" lon="2.97946">
        <ele>43.8</ele>
        <time>2020-06-26T16:59:04Z</time>
      </trkpt>
      <trkpt lat="43.26324" lon="2.97953">
        <ele>43.8</ele>
        <time>2020-06-26T16:59:03Z</time>
      </trkpt>
      <trkpt lat="43.26323" lon="2.9796">
        <ele>43.8</ele>
        <time>2020-06-26T16:59:02Z</time>
      </trkpt>
      <trkpt lat="43.26321" lon="2.97969">
        <ele>43.8</ele>
        <time>2020-06-26T16:59:01Z</time>
      </trkpt>
      <trkpt lat="43.2632" lon="2.97976">
        <ele>43.8</ele>
        <time>2020-06-26T16:59:00Z</time>
      </trkpt>
      <trkpt lat="43.26318" lon="2.97985">
        <ele>43.8</ele>
        <time>2020-06-26T16:58:59Z</time>
      </trkpt>
      <trkpt lat="43.26317" lon="2.97993">
        <ele>43.8</ele>
        <time>2020-06-26T16:58:58Z</time>
      </trkpt>
      <trkpt lat="43.26316" lon="2.98">
        <ele>43.8</ele>
        <time>2020-06-26T16:58:57Z</time>
      </trkpt>
      <trkpt lat="43.26316" lon="2.98008">
        <ele>43.8</ele>
        <time>2020-06-26T16:58:56Z</time>
      </trkpt>
      <trkpt lat="43.26315" lon="2.98016">
        <ele>43.8</ele>
        <time>2020-06-26T16:58:55Z</time>
      </trkpt>
      <trkpt lat="43.26314" lon="2.98023">
        <ele>43.8</ele>
        <time>2020-06-26T16:58:54Z</time>
      </trkpt>
      <trkpt lat="43.26313" lon="2.98031">
        <ele>43.8</ele>
        <time>2020-06-26T16:58:53Z</time>
      </trkpt>
      <trkpt lat="43.26314" lon="2.98039">
        <ele>43.6</ele>
        <time>2020-06-26T16:58:52Z</time>
      </trkpt>
      <trkpt lat="43.26314" lon="2.98049">
        <ele>43.6</ele>
        <time>2020-06-26T16:58:51Z</time>
      </trkpt>
      <trkpt lat="43.26315" lon="2.98057">
        <ele>43.6</ele>
        <time>2020-06-26T16:58:50Z</time>
      </trkpt>
      <trkpt lat="43.26315" lon="2.98064">
        <ele>43.8</ele>
        <time>2020-06-26T16:58:49Z</time>
      </trkpt>
      <trkpt lat="43.26316" lon="2.98071">
        <ele>43.8</ele>
        <time>2020-06-26T16:58:48Z</time>
      </trkpt>
      <trkpt lat="43.26317" lon="2.98079">
        <ele>43.8</ele>
        <time>2020-06-26T16:58:47Z</time>
      </trkpt>
      <trkpt lat="43.26318" lon="2.98088">
        <ele>43.6</ele>
        <time>2020-06-26T16:58:46Z</time>
      </trkpt>
      <trkpt lat="43.26319" lon="2.98095">
        <ele>43.8</ele>
        <time>2020-06-26T16:58:45Z</time>
      </trkpt>
      <trkpt lat="43.26319" lon="2.98103">
        <ele>43.6</ele>
        <time>2020-06-26T16:58:44Z</time>
      </trkpt>
      <trkpt lat="43.26321" lon="2.98111">
        <ele>43.6</ele>
        <time>2020-06-26T16:58:43Z</time>
      </trkpt>
      <trkpt lat="43.26322" lon="2.98118">
        <ele>43.6</ele>
        <time>2020-06-26T16:58:42Z</time>
      </trkpt>
      <trkpt lat="43.26324" lon="2.98126">
        <ele>43.6</ele>
        <time>2020-06-26T16:58:41Z</time>
      </trkpt>
      <trkpt lat="43.26326" lon="2.98134">
        <ele>43.6</ele>
        <time>2020-06-26T16:58:40Z</time>
      </trkpt>
      <trkpt lat="43.26327" lon="2.98141">
        <ele>43.6</ele>
        <time>2020-06-26T16:58:39Z</time>
      </trkpt>
      <trkpt lat="43.26328" lon="2.98149">
        <ele>43.6</ele>
        <time>2020-06-26T16:58:38Z</time>
      </trkpt>
      <trkpt lat="43.26329" lon="2.98156">
        <ele>43.6</ele>
        <time>2020-06-26T16:58:37Z</time>
      </trkpt>
      <trkpt lat="43.26331" lon="2.98163">
        <ele>43.8</ele>
        <time>2020-06-26T16:58:36Z</time>
      </trkpt>
      <trkpt lat="43.26333" lon="2.98173">
        <ele>43.8</ele>
        <time>2020-06-26T16:58:35Z</time>
      </trkpt>
      <trkpt lat="43.26335" lon="2.98182">
        <ele>43.8</ele>
        <time>2020-06-26T16:58:34Z</time>
      </trkpt>
      <trkpt lat="43.26337" lon="2.98191">
        <ele>43.8</ele>
        <time>2020-06-26T16:58:33Z</time>
      </trkpt>
      <trkpt lat="43.2634" lon="2.98197">
        <ele>44</ele>
        <time>2020-06-26T16:58:32Z</time>
      </trkpt>
      <trkpt lat="43.26345" lon="2.98206">
        <ele>44</ele>
        <time>2020-06-26T16:58:31Z</time>
      </trkpt>
      <trkpt lat="43.26348" lon="2.98212">
        <ele>44</ele>
        <time>2020-06-26T16:58:30Z</time>
      </trkpt>
      <trkpt lat="43.26352" lon="2.98219">
        <ele>44.2</ele>
        <time>2020-06-26T16:58:29Z</time>
      </trkpt>
      <trkpt lat="43.26356" lon="2.98225">
        <ele>44.4</ele>
        <time>2020-06-26T16:58:28Z</time>
      </trkpt>
      <trkpt lat="43.26359" lon="2.9823">
        <ele>44.6</ele>
        <time>2020-06-26T16:58:27Z</time>
      </trkpt>
      <trkpt lat="43.26363" lon="2.98236">
        <ele>44.8</ele>
        <time>2020-06-26T16:58:26Z</time>
      </trkpt>
      <trkpt lat="43.26369" lon="2.98242">
        <ele>45</ele>
        <time>2020-06-26T16:58:25Z</time>
      </trkpt>
      <trkpt lat="43.26373" lon="2.98247">
        <ele>45.2</ele>
        <time>2020-06-26T16:58:24Z</time>
      </trkpt>
      <trkpt lat="43.26378" lon="2.98252">
        <ele>45.2</ele>
        <time>2020-06-26T16:58:23Z</time>
      </trkpt>
      <trkpt lat="43.26382" lon="2.98257">
        <ele>45.4</ele>
        <time>2020-06-26T16:58:22Z</time>
      </trkpt>
      <trkpt lat="43.26386" lon="2.98261">
        <ele>45.4</ele>
        <time>2020-06-26T16:58:21Z</time>
      </trkpt>
      <trkpt lat="43.2639" lon="2.98267">
        <ele>45.4</ele>
        <time>2020-06-26T16:58:20Z</time>
      </trkpt>
      <trkpt lat="43.26393" lon="2.98272">
        <ele>45.4</ele>
        <time>2020-06-26T16:58:19Z</time>
      </trkpt>
      <trkpt lat="43.26396" lon="2.98277">
        <ele>45.4</ele>
        <time>2020-06-26T16:58:18Z</time>
      </trkpt>
      <trkpt lat="43.26398" lon="2.98282">
        <ele>45.4</ele>
        <time>2020-06-26T16:58:17Z</time>
      </trkpt>
      <trkpt lat="43.26402" lon="2.98286">
        <ele>45.4</ele>
        <time>2020-06-26T16:58:16Z</time>
      </trkpt>
      <trkpt lat="43.26405" lon="2.98292">
        <ele>45.6</ele>
        <time>2020-06-26T16:58:15Z</time>
      </trkpt>
      <trkpt lat="43.26407" lon="2.98297">
        <ele>45.6</ele>
        <time>2020-06-26T16:58:14Z</time>
      </trkpt>
      <trkpt lat="43.26411" lon="2.98302">
        <ele>45.6</ele>
        <time>2020-06-26T16:58:13Z</time>
      </trkpt>
      <trkpt lat="43.26413" lon="2.98306">
        <ele>45.4</ele>
        <time>2020-06-26T16:58:12Z</time>
      </trkpt>
      <trkpt lat="43.26416" lon="2.98312">
        <ele>45.4</ele>
        <time>2020-06-26T16:58:11Z</time>
      </trkpt>
      <trkpt lat="43.2642" lon="2.98319">
        <ele>45.4</ele>
        <time>2020-06-26T16:58:10Z</time>
      </trkpt>
      <trkpt lat="43.26423" lon="2.98323">
        <ele>45.4</ele>
        <time>2020-06-26T16:58:09Z</time>
      </trkpt>
      <trkpt lat="43.26426" lon="2.98328">
        <ele>45.4</ele>
        <time>2020-06-26T16:58:08Z</time>
      </trkpt>
      <trkpt lat="43.26429" lon="2.98333">
        <ele>45.4</ele>
        <time>2020-06-26T16:58:07Z</time>
      </trkpt>
      <trkpt lat="43.26431" lon="2.98337">
        <ele>45.2</ele>
        <time>2020-06-26T16:58:06Z</time>
      </trkpt>
      <trkpt lat="43.26433" lon="2.98342">
        <ele>45</ele>
        <time>2020-06-26T16:58:05Z</time>
      </trkpt>
      <trkpt lat="43.26435" lon="2.98347">
        <ele>45</ele>
        <time>2020-06-26T16:58:04Z</time>
      </trkpt>
      <trkpt lat="43.26438" lon="2.98354">
        <ele>44.8</ele>
        <time>2020-06-26T16:58:03Z</time>
      </trkpt>
      <trkpt lat="43.2644" lon="2.98359">
        <ele>44.6</ele>
        <time>2020-06-26T16:58:02Z</time>
      </trkpt>
      <trkpt lat="43.26442" lon="2.98364">
        <ele>44.6</ele>
        <time>2020-06-26T16:58:01Z</time>
      </trkpt>
      <trkpt lat="43.26443" lon="2.9837">
        <ele>44.6</ele>
        <time>2020-06-26T16:58:00Z</time>
      </trkpt>
      <trkpt lat="43.26444" lon="2.98376">
        <ele>44.4</ele>
        <time>2020-06-26T16:57:59Z</time>
      </trkpt>
      <trkpt lat="43.26445" lon="2.98382">
        <ele>44.4</ele>
        <time>2020-06-26T16:57:58Z</time>
      </trkpt>
      <trkpt lat="43.26446" lon="2.98388">
        <ele>44.4</ele>
        <time>2020-06-26T16:57:57Z</time>
      </trkpt>
      <trkpt lat="43.26447" lon="2.98394">
        <ele>44.4</ele>
        <time>2020-06-26T16:57:56Z</time>
      </trkpt>
      <trkpt lat="43.26449" lon="2.98401">
        <ele>44.4</ele>
        <time>2020-06-26T16:57:55Z</time>
      </trkpt>
      <trkpt lat="43.26449" lon="2.98408">
        <ele>44.4</ele>
        <time>2020-06-26T16:57:54Z</time>
      </trkpt>
      <trkpt lat="43.26451" lon="2.98413">
        <ele>44.6</ele>
        <time>2020-06-26T16:57:53Z</time>
      </trkpt>
      <trkpt lat="43.26453" lon="2.98421">
        <ele>44.4</ele>
        <time>2020-06-26T16:57:52Z</time>
      </trkpt>
      <trkpt lat="43.26456" lon="2.98426">
        <ele>44.4</ele>
        <time>2020-06-26T16:57:51Z</time>
      </trkpt>
      <trkpt lat="43.26458" lon="2.98432">
        <ele>44.6</ele>
        <time>2020-06-26T16:57:50Z</time>
      </trkpt>
      <trkpt lat="43.2646" lon="2.98438">
        <ele>44.4</ele>
        <time>2020-06-26T16:57:49Z</time>
      </trkpt>
      <trkpt lat="43.26462" lon="2.98445">
        <ele>44.4</ele>
        <time>2020-06-26T16:57:48Z</time>
      </trkpt>
      <trkpt lat="43.26463" lon="2.9845">
        <ele>44.4</ele>
        <time>2020-06-26T16:57:47Z</time>
      </trkpt>
      <trkpt lat="43.26464" lon="2.98456">
        <ele>44.4</ele>
        <time>2020-06-26T16:57:46Z</time>
      </trkpt>
      <trkpt lat="43.26466" lon="2.98462">
        <ele>44.4</ele>
        <time>2020-06-26T16:57:45Z</time>
      </trkpt>
      <trkpt lat="43.26468" lon="2.98469">
        <ele>44.4</ele>
        <time>2020-06-26T16:57:44Z</time>
      </trkpt>
      <trkpt lat="43.2647" lon="2.98476">
        <ele>44.4</ele>
        <time>2020-06-26T16:57:43Z</time>
      </trkpt>
      <trkpt lat="43.26473" lon="2.98484">
        <ele>44.4</ele>
        <time>2020-06-26T16:57:42Z</time>
      </trkpt>
      <trkpt lat="43.26475" lon="2.98491">
        <ele>44.4</ele>
        <time>2020-06-26T16:57:41Z</time>
      </trkpt>
      <trkpt lat="43.26476" lon="2.98497">
        <ele>44.4</ele>
        <time>2020-06-26T16:57:40Z</time>
      </trkpt>
      <trkpt lat="43.26478" lon="2.98504">
        <ele>44.4</ele>
        <time>2020-06-26T16:57:39Z</time>
      </trkpt>
      <trkpt lat="43.26479" lon="2.98509">
        <ele>44.4</ele>
        <time>2020-06-26T16:57:38Z</time>
      </trkpt>
      <trkpt lat="43.26481" lon="2.98517">
        <ele>44.4</ele>
        <time>2020-06-26T16:57:37Z</time>
      </trkpt>
      <trkpt lat="43.26481" lon="2.98524">
        <ele>44.4</ele>
        <time>2020-06-26T16:57:36Z</time>
      </trkpt>
      <trkpt lat="43.26482" lon="2.98533">
        <ele>44.4</ele>
        <time>2020-06-26T16:57:35Z</time>
      </trkpt>
      <trkpt lat="43.26482" lon="2.98539">
        <ele>44.4</ele>
        <time>2020-06-26T16:57:34Z</time>
      </trkpt>
      <trkpt lat="43.26485" lon="2.98546">
        <ele>44.4</ele>
        <time>2020-06-26T16:57:33Z</time>
      </trkpt>
      <trkpt lat="43.26486" lon="2.98553">
        <ele>44.4</ele>
        <time>2020-06-26T16:57:32Z</time>
      </trkpt>
      <trkpt lat="43.26488" lon="2.98559">
        <ele>44.4</ele>
        <time>2020-06-26T16:57:31Z</time>
      </trkpt>
      <trkpt lat="43.2649" lon="2.98566">
        <ele>44.4</ele>
        <time>2020-06-26T16:57:30Z</time>
      </trkpt>
      <trkpt lat="43.26491" lon="2.98572">
        <ele>44.2</ele>
        <time>2020-06-26T16:57:29Z</time>
      </trkpt>
      <trkpt lat="43.26493" lon="2.98578">
        <ele>44.4</ele>
        <time>2020-06-26T16:57:28Z</time>
      </trkpt>
      <trkpt lat="43.26495" lon="2.98585">
        <ele>44.4</ele>
        <time>2020-06-26T16:57:27Z</time>
      </trkpt>
      <trkpt lat="43.26497" lon="2.98592">
        <ele>44.4</ele>
        <time>2020-06-26T16:57:26Z</time>
      </trkpt>
      <trkpt lat="43.26499" lon="2.986">
        <ele>44.4</ele>
        <time>2020-06-26T16:57:25Z</time>
      </trkpt>
      <trkpt lat="43.26501" lon="2.98608">
        <ele>44.4</ele>
        <time>2020-06-26T16:57:24Z</time>
      </trkpt>
      <trkpt lat="43.26503" lon="2.98616">
        <ele>44.4</ele>
        <time>2020-06-26T16:57:23Z</time>
      </trkpt>
      <trkpt lat="43.26505" lon="2.98624">
        <ele>44.6</ele>
        <time>2020-06-26T16:57:22Z</time>
      </trkpt>
      <trkpt lat="43.26507" lon="2.98631">
        <ele>44.4</ele>
        <time>2020-06-26T16:57:21Z</time>
      </trkpt>
      <trkpt lat="43.2651" lon="2.98638">
        <ele>44.6</ele>
        <time>2020-06-26T16:57:20Z</time>
      </trkpt>
      <trkpt lat="43.26511" lon="2.98645">
        <ele>44.6</ele>
        <time>2020-06-26T16:57:19Z</time>
      </trkpt>
      <trkpt lat="43.26513" lon="2.98651">
        <ele>44.4</ele>
        <time>2020-06-26T16:57:18Z</time>
      </trkpt>
      <trkpt lat="43.26516" lon="2.98658">
        <ele>44.4</ele>
        <time>2020-06-26T16:57:17Z</time>
      </trkpt>
      <trkpt lat="43.26517" lon="2.98664">
        <ele>44.4</ele>
        <time>2020-06-26T16:57:16Z</time>
      </trkpt>
      <trkpt lat="43.26519" lon="2.98671">
        <ele>44.4</ele>
        <time>2020-06-26T16:57:15Z</time>
      </trkpt>
      <trkpt lat="43.2652" lon="2.98678">
        <ele>44.4</ele>
        <time>2020-06-26T16:57:14Z</time>
      </trkpt>
      <trkpt lat="43.26521" lon="2.98685">
        <ele>44.4</ele>
        <time>2020-06-26T16:57:13Z</time>
      </trkpt>
      <trkpt lat="43.26522" lon="2.98691">
        <ele>44.6</ele>
        <time>2020-06-26T16:57:12Z</time>
      </trkpt>
      <trkpt lat="43.26524" lon="2.98698">
        <ele>44.6</ele>
        <time>2020-06-26T16:57:11Z</time>
      </trkpt>
      <trkpt lat="43.26525" lon="2.98704">
        <ele>44.8</ele>
        <time>2020-06-26T16:57:10Z</time>
      </trkpt>
      <trkpt lat="43.26528" lon="2.98711">
        <ele>44.6</ele>
        <time>2020-06-26T16:57:09Z</time>
      </trkpt>
      <trkpt lat="43.26529" lon="2.98718">
        <ele>44.4</ele>
        <time>2020-06-26T16:57:08Z</time>
      </trkpt>
      <trkpt lat="43.26531" lon="2.98725">
        <ele>44.4</ele>
        <time>2020-06-26T16:57:07Z</time>
      </trkpt>
      <trkpt lat="43.26532" lon="2.98731">
        <ele>44.4</ele>
        <time>2020-06-26T16:57:06Z</time>
      </trkpt>
      <trkpt lat="43.26534" lon="2.98737">
        <ele>44.4</ele>
        <time>2020-06-26T16:57:05Z</time>
      </trkpt>
      <trkpt lat="43.26535" lon="2.98743">
        <ele>44.2</ele>
        <time>2020-06-26T16:57:04Z</time>
      </trkpt>
      <trkpt lat="43.26536" lon="2.98748">
        <ele>44.4</ele>
        <time>2020-06-26T16:57:03Z</time>
      </trkpt>
      <trkpt lat="43.26538" lon="2.98756">
        <ele>44.4</ele>
        <time>2020-06-26T16:57:02Z</time>
      </trkpt>
      <trkpt lat="43.26539" lon="2.98762">
        <ele>44.6</ele>
        <time>2020-06-26T16:57:01Z</time>
      </trkpt>
      <trkpt lat="43.2654" lon="2.98767">
        <ele>44.8</ele>
        <time>2020-06-26T16:57:00Z</time>
      </trkpt>
      <trkpt lat="43.26541" lon="2.98771">
        <ele>45.2</ele>
        <time>2020-06-26T16:56:59Z</time>
      </trkpt>
      <trkpt lat="43.26543" lon="2.98776">
        <ele>45.4</ele>
        <time>2020-06-26T16:56:58Z</time>
      </trkpt>
      <trkpt lat="43.26545" lon="2.98781">
        <ele>45.4</ele>
        <time>2020-06-26T16:56:57Z</time>
      </trkpt>
      <trkpt lat="43.26547" lon="2.98785">
        <ele>45.4</ele>
        <time>2020-06-26T16:56:56Z</time>
      </trkpt>
      <trkpt lat="43.26549" lon="2.98788">
        <ele>45.2</ele>
        <time>2020-06-26T16:56:55Z</time>
      </trkpt>
      <trkpt lat="43.26549" lon="2.98794">
        <ele>45</ele>
        <time>2020-06-26T16:56:54Z</time>
      </trkpt>
      <trkpt lat="43.26552" lon="2.988">
        <ele>44.8</ele>
        <time>2020-06-26T16:56:53Z</time>
      </trkpt>
      <trkpt lat="43.26554" lon="2.98806">
        <ele>44.8</ele>
        <time>2020-06-26T16:56:52Z</time>
      </trkpt>
      <trkpt lat="43.26555" lon="2.98811">
        <ele>43</ele>
        <time>2020-06-26T16:56:51Z</time>
      </trkpt>
      <trkpt lat="43.26557" lon="2.98817">
        <ele>43</ele>
        <time>2020-06-26T16:56:50Z</time>
      </trkpt>
      <trkpt lat="43.26559" lon="2.98824">
        <ele>43</ele>
        <time>2020-06-26T16:56:49Z</time>
      </trkpt>
      <trkpt lat="43.26561" lon="2.98832">
        <ele>43.2</ele>
        <time>2020-06-26T16:56:48Z</time>
      </trkpt>
      <trkpt lat="43.26562" lon="2.98837">
        <ele>43.2</ele>
        <time>2020-06-26T16:56:47Z</time>
      </trkpt>
      <trkpt lat="43.26564" lon="2.98843">
        <ele>44.6</ele>
        <time>2020-06-26T16:56:46Z</time>
      </trkpt>
      <trkpt lat="43.26565" lon="2.98849">
        <ele>44.6</ele>
        <time>2020-06-26T16:56:45Z</time>
      </trkpt>
      <trkpt lat="43.26567" lon="2.98854">
        <ele>44.8</ele>
        <time>2020-06-26T16:56:44Z</time>
      </trkpt>
      <trkpt lat="43.2657" lon="2.9886">
        <ele>44.8</ele>
        <time>2020-06-26T16:56:43Z</time>
      </trkpt>
      <trkpt lat="43.26571" lon="2.98866">
        <ele>44.8</ele>
        <time>2020-06-26T16:56:42Z</time>
      </trkpt>
      <trkpt lat="43.26572" lon="2.98871">
        <ele>44.8</ele>
        <time>2020-06-26T16:56:41Z</time>
      </trkpt>
      <trkpt lat="43.26574" lon="2.98876">
        <ele>44.8</ele>
        <time>2020-06-26T16:56:40Z</time>
      </trkpt>
      <trkpt lat="43.26576" lon="2.98882">
        <ele>44.8</ele>
        <time>2020-06-26T16:56:39Z</time>
      </trkpt>
      <trkpt lat="43.26579" lon="2.98888">
        <ele>44.8</ele>
        <time>2020-06-26T16:56:38Z</time>
      </trkpt>
      <trkpt lat="43.2658" lon="2.98895">
        <ele>44.8</ele>
        <time>2020-06-26T16:56:37Z</time>
      </trkpt>
      <trkpt lat="43.26581" lon="2.98903">
        <ele>44.8</ele>
        <time>2020-06-26T16:56:36Z</time>
      </trkpt>
      <trkpt lat="43.26583" lon="2.98911">
        <ele>44.8</ele>
        <time>2020-06-26T16:56:35Z</time>
      </trkpt>
      <trkpt lat="43.26584" lon="2.98919">
        <ele>44.8</ele>
        <time>2020-06-26T16:56:34Z</time>
      </trkpt>
      <trkpt lat="43.26585" lon="2.98925">
        <ele>44.8</ele>
        <time>2020-06-26T16:56:33Z</time>
      </trkpt>
      <trkpt lat="43.26586" lon="2.98931">
        <ele>44.8</ele>
        <time>2020-06-26T16:56:32Z</time>
      </trkpt>
      <trkpt lat="43.26586" lon="2.98939">
        <ele>44.8</ele>
        <time>2020-06-26T16:56:31Z</time>
      </trkpt>
      <trkpt lat="43.26587" lon="2.98946">
        <ele>45</ele>
        <time>2020-06-26T16:56:30Z</time>
      </trkpt>
      <trkpt lat="43.26587" lon="2.98953">
        <ele>45</ele>
        <time>2020-06-26T16:56:29Z</time>
      </trkpt>
      <trkpt lat="43.26588" lon="2.9896">
        <ele>45</ele>
        <time>2020-06-26T16:56:28Z</time>
      </trkpt>
      <trkpt lat="43.2659" lon="2.98966">
        <ele>45</ele>
        <time>2020-06-26T16:56:27Z</time>
      </trkpt>
      <trkpt lat="43.2659" lon="2.98972">
        <ele>45.2</ele>
        <time>2020-06-26T16:56:26Z</time>
      </trkpt>
      <trkpt lat="43.26592" lon="2.98978">
        <ele>45.2</ele>
        <time>2020-06-26T16:56:25Z</time>
      </trkpt>
      <trkpt lat="43.26593" lon="2.98985">
        <ele>45</ele>
        <time>2020-06-26T16:56:24Z</time>
      </trkpt>
      <trkpt lat="43.26595" lon="2.98991">
        <ele>45</ele>
        <time>2020-06-26T16:56:23Z</time>
      </trkpt>
      <trkpt lat="43.26596" lon="2.98999">
        <ele>45</ele>
        <time>2020-06-26T16:56:22Z</time>
      </trkpt>
      <trkpt lat="43.26597" lon="2.99003">
        <ele>45</ele>
        <time>2020-06-26T16:56:21Z</time>
      </trkpt>
      <trkpt lat="43.26598" lon="2.99009">
        <ele>45</ele>
        <time>2020-06-26T16:56:20Z</time>
      </trkpt>
      <trkpt lat="43.26599" lon="2.99015">
        <ele>45</ele>
        <time>2020-06-26T16:56:19Z</time>
      </trkpt>
      <trkpt lat="43.26601" lon="2.99021">
        <ele>45</ele>
        <time>2020-06-26T16:56:18Z</time>
      </trkpt>
      <trkpt lat="43.26601" lon="2.99028">
        <ele>45</ele>
        <time>2020-06-26T16:56:17Z</time>
      </trkpt>
      <trkpt lat="43.26603" lon="2.99033">
        <ele>45</ele>
        <time>2020-06-26T16:56:16Z</time>
      </trkpt>
      <trkpt lat="43.26604" lon="2.99039">
        <ele>45</ele>
        <time>2020-06-26T16:56:15Z</time>
      </trkpt>
      <trkpt lat="43.26604" lon="2.99045">
        <ele>45</ele>
        <time>2020-06-26T16:56:14Z</time>
      </trkpt>
      <trkpt lat="43.26605" lon="2.9905">
        <ele>45</ele>
        <time>2020-06-26T16:56:13Z</time>
      </trkpt>
      <trkpt lat="43.26606" lon="2.99054">
        <ele>45</ele>
        <time>2020-06-26T16:56:12Z</time>
      </trkpt>
      <trkpt lat="43.26606" lon="2.9906">
        <ele>44.8</ele>
        <time>2020-06-26T16:56:11Z</time>
      </trkpt>
      <trkpt lat="43.26606" lon="2.99066">
        <ele>44.8</ele>
        <time>2020-06-26T16:56:10Z</time>
      </trkpt>
      <trkpt lat="43.26607" lon="2.99074">
        <ele>44.8</ele>
        <time>2020-06-26T16:56:09Z</time>
      </trkpt>
      <trkpt lat="43.26607" lon="2.99081">
        <ele>44.6</ele>
        <time>2020-06-26T16:56:08Z</time>
      </trkpt>
      <trkpt lat="43.26607" lon="2.99087">
        <ele>44.6</ele>
        <time>2020-06-26T16:56:07Z</time>
      </trkpt>
      <trkpt lat="43.26608" lon="2.99093">
        <ele>44.6</ele>
        <time>2020-06-26T16:56:06Z</time>
      </trkpt>
      <trkpt lat="43.26609" lon="2.991">
        <ele>44.6</ele>
        <time>2020-06-26T16:56:05Z</time>
      </trkpt>
      <trkpt lat="43.26612" lon="2.99107">
        <ele>44.6</ele>
        <time>2020-06-26T16:56:04Z</time>
      </trkpt>
      <trkpt lat="43.26613" lon="2.99114">
        <ele>44.8</ele>
        <time>2020-06-26T16:56:03Z</time>
      </trkpt>
      <trkpt lat="43.26614" lon="2.9912">
        <ele>44.8</ele>
        <time>2020-06-26T16:56:02Z</time>
      </trkpt>
      <trkpt lat="43.26615" lon="2.99126">
        <ele>44.6</ele>
        <time>2020-06-26T16:56:01Z</time>
      </trkpt>
      <trkpt lat="43.26616" lon="2.99134">
        <ele>44.6</ele>
        <time>2020-06-26T16:56:00Z</time>
      </trkpt>
      <trkpt lat="43.26617" lon="2.99142">
        <ele>44.6</ele>
        <time>2020-06-26T16:55:59Z</time>
      </trkpt>
      <trkpt lat="43.26618" lon="2.9915">
        <ele>44.6</ele>
        <time>2020-06-26T16:55:58Z</time>
      </trkpt>
      <trkpt lat="43.26618" lon="2.99156">
        <ele>44.6</ele>
        <time>2020-06-26T16:55:57Z</time>
      </trkpt>
      <trkpt lat="43.26618" lon="2.99162">
        <ele>44.6</ele>
        <time>2020-06-26T16:55:56Z</time>
      </trkpt>
      <trkpt lat="43.26619" lon="2.99169">
        <ele>44.6</ele>
        <time>2020-06-26T16:55:55Z</time>
      </trkpt>
      <trkpt lat="43.26619" lon="2.99176">
        <ele>44.6</ele>
        <time>2020-06-26T16:55:54Z</time>
      </trkpt>
      <trkpt lat="43.26619" lon="2.99184">
        <ele>44.6</ele>
        <time>2020-06-26T16:55:53Z</time>
      </trkpt>
      <trkpt lat="43.2662" lon="2.9919">
        <ele>44.8</ele>
        <time>2020-06-26T16:55:52Z</time>
      </trkpt>
      <trkpt lat="43.2662" lon="2.99197">
        <ele>44.8</ele>
        <time>2020-06-26T16:55:51Z</time>
      </trkpt>
      <trkpt lat="43.26622" lon="2.99205">
        <ele>45.2</ele>
        <time>2020-06-26T16:55:50Z</time>
      </trkpt>
      <trkpt lat="43.26624" lon="2.99212">
        <ele>45.4</ele>
        <time>2020-06-26T16:55:49Z</time>
      </trkpt>
      <trkpt lat="43.26625" lon="2.99216">
        <ele>45.4</ele>
        <time>2020-06-26T16:55:48Z</time>
      </trkpt>
      <trkpt lat="43.26628" lon="2.99221">
        <ele>45.6</ele>
        <time>2020-06-26T16:55:47Z</time>
      </trkpt>
      <trkpt lat="43.26632" lon="2.99224">
        <ele>45.6</ele>
        <time>2020-06-26T16:55:46Z</time>
      </trkpt>
      <trkpt lat="43.26636" lon="2.99228">
        <ele>45.8</ele>
        <time>2020-06-26T16:55:45Z</time>
      </trkpt>
      <trkpt lat="43.2664" lon="2.99228">
        <ele>46</ele>
        <time>2020-06-26T16:55:44Z</time>
      </trkpt>
      <trkpt lat="43.26642" lon="2.9923">
        <ele>45.8</ele>
        <time>2020-06-26T16:55:43Z</time>
      </trkpt>
      <trkpt lat="43.26647" lon="2.99234">
        <ele>45.8</ele>
        <time>2020-06-26T16:55:42Z</time>
      </trkpt>
      <trkpt lat="43.2665" lon="2.99237">
        <ele>45.8</ele>
        <time>2020-06-26T16:55:41Z</time>
      </trkpt>
      <trkpt lat="43.26655" lon="2.9924">
        <ele>46</ele>
        <time>2020-06-26T16:55:40Z</time>
      </trkpt>
      <trkpt lat="43.26658" lon="2.99244">
        <ele>45.8</ele>
        <time>2020-06-26T16:55:39Z</time>
      </trkpt>
      <trkpt lat="43.26662" lon="2.99245">
        <ele>45.8</ele>
        <time>2020-06-26T16:55:38Z</time>
      </trkpt>
      <trkpt lat="43.26666" lon="2.99247">
        <ele>46</ele>
        <time>2020-06-26T16:55:37Z</time>
      </trkpt>
      <trkpt lat="43.2667" lon="2.99249">
        <ele>46</ele>
        <time>2020-06-26T16:55:36Z</time>
      </trkpt>
      <trkpt lat="43.26674" lon="2.99251">
        <ele>46</ele>
        <time>2020-06-26T16:55:35Z</time>
      </trkpt>
      <trkpt lat="43.26677" lon="2.99254">
        <ele>46</ele>
        <time>2020-06-26T16:55:34Z</time>
      </trkpt>
      <trkpt lat="43.26681" lon="2.99257">
        <ele>46</ele>
        <time>2020-06-26T16:55:33Z</time>
      </trkpt>
      <trkpt lat="43.26686" lon="2.99259">
        <ele>45.8</ele>
        <time>2020-06-26T16:55:32Z</time>
      </trkpt>
      <trkpt lat="43.2669" lon="2.99262">
        <ele>45.8</ele>
        <time>2020-06-26T16:55:31Z</time>
      </trkpt>
      <trkpt lat="43.26693" lon="2.99265">
        <ele>45.6</ele>
        <time>2020-06-26T16:55:30Z</time>
      </trkpt>
      <trkpt lat="43.26697" lon="2.99268">
        <ele>45.6</ele>
        <time>2020-06-26T16:55:29Z</time>
      </trkpt>
      <trkpt lat="43.26702" lon="2.99271">
        <ele>45.6</ele>
        <time>2020-06-26T16:55:28Z</time>
      </trkpt>
      <trkpt lat="43.26706" lon="2.99272">
        <ele>45.6</ele>
        <time>2020-06-26T16:55:27Z</time>
      </trkpt>
      <trkpt lat="43.26711" lon="2.99273">
        <ele>45.6</ele>
        <time>2020-06-26T16:55:26Z</time>
      </trkpt>
      <trkpt lat="43.26716" lon="2.99277">
        <ele>45.6</ele>
        <time>2020-06-26T16:55:25Z</time>
      </trkpt>
      <trkpt lat="43.2672" lon="2.99282">
        <ele>45.6</ele>
        <time>2020-06-26T16:55:24Z</time>
      </trkpt>
      <trkpt lat="43.26725" lon="2.99284">
        <ele>45.6</ele>
        <time>2020-06-26T16:55:23Z</time>
      </trkpt>
      <trkpt lat="43.26729" lon="2.99287">
        <ele>45.6</ele>
        <time>2020-06-26T16:55:22Z</time>
      </trkpt>
      <trkpt lat="43.26734" lon="2.9929">
        <ele>45.4</ele>
        <time>2020-06-26T16:55:21Z</time>
      </trkpt>
      <trkpt lat="43.26737" lon="2.99293">
        <ele>45.4</ele>
        <time>2020-06-26T16:55:20Z</time>
      </trkpt>
      <trkpt lat="43.26741" lon="2.99296">
        <ele>45.6</ele>
        <time>2020-06-26T16:55:19Z</time>
      </trkpt>
      <trkpt lat="43.26745" lon="2.993">
        <ele>45.6</ele>
        <time>2020-06-26T16:55:18Z</time>
      </trkpt>
      <trkpt lat="43.2675" lon="2.99301">
        <ele>45.8</ele>
        <time>2020-06-26T16:55:17Z</time>
      </trkpt>
      <trkpt lat="43.26754" lon="2.99304">
        <ele>45.6</ele>
        <time>2020-06-26T16:55:16Z</time>
      </trkpt>
      <trkpt lat="43.26757" lon="2.99306">
        <ele>45.6</ele>
        <time>2020-06-26T16:55:15Z</time>
      </trkpt>
      <trkpt lat="43.2676" lon="2.99309">
        <ele>45.8</ele>
        <time>2020-06-26T16:55:14Z</time>
      </trkpt>
      <trkpt lat="43.26765" lon="2.99312">
        <ele>45.8</ele>
        <time>2020-06-26T16:55:13Z</time>
      </trkpt>
      <trkpt lat="43.26769" lon="2.99316">
        <ele>45.8</ele>
        <time>2020-06-26T16:55:12Z</time>
      </trkpt>
      <trkpt lat="43.26774" lon="2.99319">
        <ele>45.8</ele>
        <time>2020-06-26T16:55:11Z</time>
      </trkpt>
      <trkpt lat="43.26777" lon="2.99322">
        <ele>45.6</ele>
        <time>2020-06-26T16:55:10Z</time>
      </trkpt>
      <trkpt lat="43.26779" lon="2.99322">
        <ele>45.6</ele>
        <time>2020-06-26T16:55:09Z</time>
      </trkpt>
      <trkpt lat="43.26782" lon="2.99324">
        <ele>45.6</ele>
        <time>2020-06-26T16:55:08Z</time>
      </trkpt>
      <trkpt lat="43.26785" lon="2.99327">
        <ele>45.4</ele>
        <time>2020-06-26T16:55:07Z</time>
      </trkpt>
      <trkpt lat="43.26788" lon="2.99331">
        <ele>45.2</ele>
        <time>2020-06-26T16:55:06Z</time>
      </trkpt>
      <trkpt lat="43.26791" lon="2.99334">
        <ele>45.2</ele>
        <time>2020-06-26T16:55:05Z</time>
      </trkpt>
      <trkpt lat="43.26795" lon="2.99336">
        <ele>45</ele>
        <time>2020-06-26T16:55:04Z</time>
      </trkpt>
      <trkpt lat="43.26798" lon="2.99338">
        <ele>45</ele>
        <time>2020-06-26T16:55:03Z</time>
      </trkpt>
      <trkpt lat="43.26802" lon="2.9934">
        <ele>45</ele>
        <time>2020-06-26T16:55:02Z</time>
      </trkpt>
      <trkpt lat="43.26806" lon="2.99344">
        <ele>45</ele>
        <time>2020-06-26T16:55:01Z</time>
      </trkpt>
      <trkpt lat="43.26809" lon="2.99348">
        <ele>45.2</ele>
        <time>2020-06-26T16:55:00Z</time>
      </trkpt>
      <trkpt lat="43.26812" lon="2.99352">
        <ele>45.2</ele>
        <time>2020-06-26T16:54:59Z</time>
      </trkpt>
      <trkpt lat="43.26816" lon="2.99355">
        <ele>45</ele>
        <time>2020-06-26T16:54:58Z</time>
      </trkpt>
      <trkpt lat="43.26821" lon="2.9936">
        <ele>45</ele>
        <time>2020-06-26T16:54:57Z</time>
      </trkpt>
      <trkpt lat="43.26825" lon="2.99364">
        <ele>44.8</ele>
        <time>2020-06-26T16:54:56Z</time>
      </trkpt>
      <trkpt lat="43.26829" lon="2.99368">
        <ele>44.8</ele>
        <time>2020-06-26T16:54:55Z</time>
      </trkpt>
      <trkpt lat="43.26834" lon="2.99372">
        <ele>44.8</ele>
        <time>2020-06-26T16:54:54Z</time>
      </trkpt>
      <trkpt lat="43.26838" lon="2.99375">
        <ele>44.8</ele>
        <time>2020-06-26T16:54:53Z</time>
      </trkpt>
      <trkpt lat="43.26841" lon="2.99377">
        <ele>44.8</ele>
        <time>2020-06-26T16:54:52Z</time>
      </trkpt>
      <trkpt lat="43.26844" lon="2.9938">
        <ele>44.8</ele>
        <time>2020-06-26T16:54:51Z</time>
      </trkpt>
      <trkpt lat="43.26848" lon="2.99385">
        <ele>44.6</ele>
        <time>2020-06-26T16:54:50Z</time>
      </trkpt>
      <trkpt lat="43.26851" lon="2.99389">
        <ele>44.6</ele>
        <time>2020-06-26T16:54:49Z</time>
      </trkpt>
      <trkpt lat="43.26854" lon="2.99392">
        <ele>44.6</ele>
        <time>2020-06-26T16:54:48Z</time>
      </trkpt>
      <trkpt lat="43.26857" lon="2.99395">
        <ele>44.6</ele>
        <time>2020-06-26T16:54:47Z</time>
      </trkpt>
      <trkpt lat="43.26859" lon="2.99398">
        <ele>44.4</ele>
        <time>2020-06-26T16:54:46Z</time>
      </trkpt>
      <trkpt lat="43.26862" lon="2.99402">
        <ele>44.4</ele>
        <time>2020-06-26T16:54:45Z</time>
      </trkpt>
      <trkpt lat="43.26865" lon="2.99407">
        <ele>44.4</ele>
        <time>2020-06-26T16:54:44Z</time>
      </trkpt>
      <trkpt lat="43.26867" lon="2.99408">
        <ele>44.2</ele>
        <time>2020-06-26T16:54:43Z</time>
      </trkpt>
      <trkpt lat="43.2687" lon="2.9941">
        <ele>44.4</ele>
        <time>2020-06-26T16:54:42Z</time>
      </trkpt>
      <trkpt lat="43.26872" lon="2.99413">
        <ele>44.2</ele>
        <time>2020-06-26T16:54:41Z</time>
      </trkpt>
      <trkpt lat="43.26874" lon="2.99416">
        <ele>44.2</ele>
        <time>2020-06-26T16:54:40Z</time>
      </trkpt>
      <trkpt lat="43.26877" lon="2.99419">
        <ele>44.2</ele>
        <time>2020-06-26T16:54:39Z</time>
      </trkpt>
      <trkpt lat="43.26879" lon="2.9942">
        <ele>44.2</ele>
        <time>2020-06-26T16:54:38Z</time>
      </trkpt>
      <trkpt lat="43.26881" lon="2.99422">
        <ele>44.2</ele>
        <time>2020-06-26T16:54:37Z</time>
      </trkpt>
      <trkpt lat="43.26883" lon="2.99426">
        <ele>44.4</ele>
        <time>2020-06-26T16:54:36Z</time>
      </trkpt>
      <trkpt lat="43.26885" lon="2.99427">
        <ele>44.4</ele>
        <time>2020-06-26T16:54:35Z</time>
      </trkpt>
      <trkpt lat="43.26886" lon="2.99429">
        <ele>44.6</ele>
        <time>2020-06-26T16:54:34Z</time>
      </trkpt>
      <trkpt lat="43.26888" lon="2.9943">
        <ele>44.6</ele>
        <time>2020-06-26T16:54:33Z</time>
      </trkpt>
      <trkpt lat="43.26888" lon="2.99433">
        <ele>44.6</ele>
        <time>2020-06-26T16:54:32Z</time>
      </trkpt>
      <trkpt lat="43.26887" lon="2.99435">
        <ele>44.6</ele>
        <time>2020-06-26T16:54:31Z</time>
      </trkpt>
      <trkpt lat="43.26886" lon="2.99438">
        <ele>44.6</ele>
        <time>2020-06-26T16:54:30Z</time>
      </trkpt>
      <trkpt lat="43.26884" lon="2.9944">
        <ele>44.8</ele>
        <time>2020-06-26T16:54:29Z</time>
      </trkpt>
      <trkpt lat="43.26883" lon="2.99443">
        <ele>44.8</ele>
        <time>2020-06-26T16:54:28Z</time>
      </trkpt>
      <trkpt lat="43.26881" lon="2.99445">
        <ele>44.8</ele>
        <time>2020-06-26T16:54:27Z</time>
      </trkpt>
      <trkpt lat="43.2688" lon="2.99446">
        <ele>45</ele>
        <time>2020-06-26T16:54:26Z</time>
      </trkpt>
      <trkpt lat="43.2688" lon="2.99447">
        <ele>45</ele>
        <time>2020-06-26T16:54:25Z</time>
      </trkpt>
      <trkpt lat="43.26878" lon="2.99449">
        <ele>45</ele>
        <time>2020-06-26T16:54:24Z</time>
      </trkpt>
      <trkpt lat="43.26877" lon="2.9945">
        <ele>45</ele>
        <time>2020-06-26T16:54:23Z</time>
      </trkpt>
      <trkpt lat="43.26875" lon="2.99451">
        <ele>45</ele>
        <time>2020-06-26T16:54:22Z</time>
      </trkpt>
      <trkpt lat="43.26872" lon="2.99453">
        <ele>45</ele>
        <time>2020-06-26T16:54:21Z</time>
      </trkpt>
      <trkpt lat="43.26871" lon="2.99452">
        <ele>45</ele>
        <time>2020-06-26T16:54:20Z</time>
      </trkpt>
      <trkpt lat="43.26869" lon="2.99453">
        <ele>45.2</ele>
        <time>2020-06-26T16:54:19Z</time>
      </trkpt>
      <trkpt lat="43.26868" lon="2.99453">
        <ele>45</ele>
        <time>2020-06-26T16:54:18Z</time>
      </trkpt>
      <trkpt lat="43.26866" lon="2.99455">
        <ele>45</ele>
        <time>2020-06-26T16:54:17Z</time>
      </trkpt>
      <trkpt lat="43.26864" lon="2.99457">
        <ele>44.8</ele>
        <time>2020-06-26T16:54:16Z</time>
      </trkpt>
      <trkpt lat="43.26862" lon="2.99459">
        <ele>45</ele>
        <time>2020-06-26T16:54:15Z</time>
      </trkpt>
      <trkpt lat="43.26861" lon="2.99462">
        <ele>45</ele>
        <time>2020-06-26T16:54:14Z</time>
      </trkpt>
      <trkpt lat="43.26859" lon="2.99463">
        <ele>45</ele>
        <time>2020-06-26T16:54:13Z</time>
      </trkpt>
      <trkpt lat="43.26857" lon="2.99466">
        <ele>45</ele>
        <time>2020-06-26T16:54:12Z</time>
      </trkpt>
      <trkpt lat="43.26856" lon="2.99467">
        <ele>45.2</ele>
        <time>2020-06-26T16:54:11Z</time>
      </trkpt>
      <trkpt lat="43.26852" lon="2.9947">
        <ele>45.2</ele>
        <time>2020-06-26T16:54:10Z</time>
      </trkpt>
      <trkpt lat="43.26849" lon="2.99473">
        <ele>45</ele>
        <time>2020-06-26T16:54:09Z</time>
      </trkpt>
      <trkpt lat="43.26844" lon="2.99479">
        <ele>45.2</ele>
        <time>2020-06-26T16:54:08Z</time>
      </trkpt>
      <trkpt lat="43.26844" lon="2.99484">
        <ele>45.4</ele>
        <time>2020-06-26T16:54:07Z</time>
      </trkpt>
      <trkpt lat="43.26842" lon="2.99487">
        <ele>45.2</ele>
        <time>2020-06-26T16:54:06Z</time>
      </trkpt>
      <trkpt lat="43.26838" lon="2.99489">
        <ele>45.2</ele>
        <time>2020-06-26T16:54:05Z</time>
      </trkpt>
      <trkpt lat="43.26832" lon="2.99493">
        <ele>45.2</ele>
        <time>2020-06-26T16:54:04Z</time>
      </trkpt>
      <trkpt lat="43.26828" lon="2.99495">
        <ele>45.2</ele>
        <time>2020-06-26T16:54:03Z</time>
      </trkpt>
      <trkpt lat="43.26824" lon="2.99498">
        <ele>45.2</ele>
        <time>2020-06-26T16:54:02Z</time>
      </trkpt>
      <trkpt lat="43.26821" lon="2.995">
        <ele>45.2</ele>
        <time>2020-06-26T16:54:01Z</time>
      </trkpt>
      <trkpt lat="43.26816" lon="2.99504">
        <ele>45.2</ele>
        <time>2020-06-26T16:54:00Z</time>
      </trkpt>
      <trkpt lat="43.26812" lon="2.99504">
        <ele>45.2</ele>
        <time>2020-06-26T16:53:59Z</time>
      </trkpt>
      <trkpt lat="43.26807" lon="2.99505">
        <ele>45.2</ele>
        <time>2020-06-26T16:53:58Z</time>
      </trkpt>
      <trkpt lat="43.26803" lon="2.99507">
        <ele>45.2</ele>
        <time>2020-06-26T16:53:57Z</time>
      </trkpt>
      <trkpt lat="43.26799" lon="2.99506">
        <ele>45.2</ele>
        <time>2020-06-26T16:53:56Z</time>
      </trkpt>
      <trkpt lat="43.26794" lon="2.99506">
        <ele>45</ele>
        <time>2020-06-26T16:53:55Z</time>
      </trkpt>
      <trkpt lat="43.2679" lon="2.99506">
        <ele>45</ele>
        <time>2020-06-26T16:53:54Z</time>
      </trkpt>
      <trkpt lat="43.26785" lon="2.99507">
        <ele>45</ele>
        <time>2020-06-26T16:53:53Z</time>
      </trkpt>
      <trkpt lat="43.2678" lon="2.99506">
        <ele>45.2</ele>
        <time>2020-06-26T16:53:52Z</time>
      </trkpt>
      <trkpt lat="43.26775" lon="2.99506">
        <ele>45</ele>
        <time>2020-06-26T16:53:51Z</time>
      </trkpt>
      <trkpt lat="43.2677" lon="2.99507">
        <ele>45</ele>
        <time>2020-06-26T16:53:50Z</time>
      </trkpt>
      <trkpt lat="43.26766" lon="2.99509">
        <ele>45</ele>
        <time>2020-06-26T16:53:49Z</time>
      </trkpt>
      <trkpt lat="43.26761" lon="2.99511">
        <ele>45</ele>
        <time>2020-06-26T16:53:48Z</time>
      </trkpt>
      <trkpt lat="43.26756" lon="2.99511">
        <ele>45</ele>
        <time>2020-06-26T16:53:47Z</time>
      </trkpt>
      <trkpt lat="43.26752" lon="2.99513">
        <ele>45</ele>
        <time>2020-06-26T16:53:46Z</time>
      </trkpt>
      <trkpt lat="43.26748" lon="2.99513">
        <ele>45</ele>
        <time>2020-06-26T16:53:45Z</time>
      </trkpt>
      <trkpt lat="43.26745" lon="2.99514">
        <ele>45</ele>
        <time>2020-06-26T16:53:44Z</time>
      </trkpt>
      <trkpt lat="43.2674" lon="2.99512">
        <ele>45</ele>
        <time>2020-06-26T16:53:43Z</time>
      </trkpt>
      <trkpt lat="43.26735" lon="2.99512">
        <ele>45</ele>
        <time>2020-06-26T16:53:42Z</time>
      </trkpt>
      <trkpt lat="43.26732" lon="2.99511">
        <ele>45.2</ele>
        <time>2020-06-26T16:53:41Z</time>
      </trkpt>
      <trkpt lat="43.26727" lon="2.99512">
        <ele>45.2</ele>
        <time>2020-06-26T16:53:40Z</time>
      </trkpt>
      <trkpt lat="43.26723" lon="2.99513">
        <ele>45.2</ele>
        <time>2020-06-26T16:53:39Z</time>
      </trkpt>
      <trkpt lat="43.26721" lon="2.99514">
        <ele>45</ele>
        <time>2020-06-26T16:53:38Z</time>
      </trkpt>
      <trkpt lat="43.26719" lon="2.99514">
        <ele>45</ele>
        <time>2020-06-26T16:53:37Z</time>
      </trkpt>
      <trkpt lat="43.26716" lon="2.99515">
        <ele>45.2</ele>
        <time>2020-06-26T16:53:36Z</time>
      </trkpt>
      <trkpt lat="43.26715" lon="2.99516">
        <ele>45</ele>
        <time>2020-06-26T16:53:35Z</time>
      </trkpt>
      <trkpt lat="43.26715" lon="2.99516">
        <ele>45</ele>
        <time>2020-06-26T16:53:34Z</time>
      </trkpt>
      <trkpt lat="43.26714" lon="2.99517">
        <ele>45.2</ele>
        <time>2020-06-26T16:53:33Z</time>
      </trkpt>
      <trkpt lat="43.26714" lon="2.99518">
        <ele>45.2</ele>
        <time>2020-06-26T16:53:32Z</time>
      </trkpt>
      <trkpt lat="43.26713" lon="2.9952">
        <ele>45</ele>
        <time>2020-06-26T16:53:31Z</time>
      </trkpt>
      <trkpt lat="43.26711" lon="2.99521">
        <ele>45.2</ele>
        <time>2020-06-26T16:53:30Z</time>
      </trkpt>
      <trkpt lat="43.2671" lon="2.99525">
        <ele>45.2</ele>
        <time>2020-06-26T16:53:29Z</time>
      </trkpt>
      <trkpt lat="43.26711" lon="2.99529">
        <ele>45.2</ele>
        <time>2020-06-26T16:53:28Z</time>
      </trkpt>
      <trkpt lat="43.26714" lon="2.99533">
        <ele>45</ele>
        <time>2020-06-26T16:53:27Z</time>
      </trkpt>
      <trkpt lat="43.26717" lon="2.99539">
        <ele>45</ele>
        <time>2020-06-26T16:53:26Z</time>
      </trkpt>
      <trkpt lat="43.2672" lon="2.99544">
        <ele>45</ele>
        <time>2020-06-26T16:53:25Z</time>
      </trkpt>
      <trkpt lat="43.26724" lon="2.9955">
        <ele>45</ele>
        <time>2020-06-26T16:53:24Z</time>
      </trkpt>
      <trkpt lat="43.26725" lon="2.99555">
        <ele>45</ele>
        <time>2020-06-26T16:53:23Z</time>
      </trkpt>
      <trkpt lat="43.26727" lon="2.9956">
        <ele>45</ele>
        <time>2020-06-26T16:53:22Z</time>
      </trkpt>
      <trkpt lat="43.26729" lon="2.99561">
        <ele>45.2</ele>
        <time>2020-06-26T16:53:21Z</time>
      </trkpt>
      <trkpt lat="43.26732" lon="2.99568">
        <ele>45</ele>
        <time>2020-06-26T16:53:20Z</time>
      </trkpt>
      <trkpt lat="43.26735" lon="2.99573">
        <ele>45</ele>
        <time>2020-06-26T16:53:19Z</time>
      </trkpt>
      <trkpt lat="43.26738" lon="2.9958">
        <ele>45</ele>
        <time>2020-06-26T16:53:18Z</time>
      </trkpt>
      <trkpt lat="43.26741" lon="2.99584">
        <ele>45</ele>
        <time>2020-06-26T16:53:17Z</time>
      </trkpt>
      <trkpt lat="43.26744" lon="2.9959">
        <ele>45</ele>
        <time>2020-06-26T16:53:16Z</time>
      </trkpt>
      <trkpt lat="43.26746" lon="2.99594">
        <ele>45</ele>
        <time>2020-06-26T16:53:15Z</time>
      </trkpt>
      <trkpt lat="43.2675" lon="2.996">
        <ele>45</ele>
        <time>2020-06-26T16:53:14Z</time>
      </trkpt>
      <trkpt lat="43.26752" lon="2.99607">
        <ele>45</ele>
        <time>2020-06-26T16:53:13Z</time>
      </trkpt>
      <trkpt lat="43.26754" lon="2.99613">
        <ele>45.2</ele>
        <time>2020-06-26T16:53:12Z</time>
      </trkpt>
      <trkpt lat="43.26757" lon="2.99617">
        <ele>45.2</ele>
        <time>2020-06-26T16:53:11Z</time>
      </trkpt>
      <trkpt lat="43.2676" lon="2.99623">
        <ele>45.2</ele>
        <time>2020-06-26T16:53:10Z</time>
      </trkpt>
      <trkpt lat="43.26763" lon="2.9963">
        <ele>45.2</ele>
        <time>2020-06-26T16:53:09Z</time>
      </trkpt>
      <trkpt lat="43.26767" lon="2.99636">
        <ele>45.2</ele>
        <time>2020-06-26T16:53:08Z</time>
      </trkpt>
      <trkpt lat="43.26771" lon="2.99642">
        <ele>45.4</ele>
        <time>2020-06-26T16:53:07Z</time>
      </trkpt>
      <trkpt lat="43.26774" lon="2.99648">
        <ele>45.4</ele>
        <time>2020-06-26T16:53:06Z</time>
      </trkpt>
      <trkpt lat="43.26777" lon="2.99657">
        <ele>45.4</ele>
        <time>2020-06-26T16:53:05Z</time>
      </trkpt>
      <trkpt lat="43.26779" lon="2.99663">
        <ele>45.4</ele>
        <time>2020-06-26T16:53:04Z</time>
      </trkpt>
      <trkpt lat="43.26782" lon="2.99671">
        <ele>45.4</ele>
        <time>2020-06-26T16:53:03Z</time>
      </trkpt>
      <trkpt lat="43.26784" lon="2.99677">
        <ele>45.4</ele>
        <time>2020-06-26T16:53:02Z</time>
      </trkpt>
      <trkpt lat="43.26787" lon="2.99685">
        <ele>45.4</ele>
        <time>2020-06-26T16:53:01Z</time>
      </trkpt>
      <trkpt lat="43.26788" lon="2.99693">
        <ele>45.4</ele>
        <time>2020-06-26T16:53:00Z</time>
      </trkpt>
      <trkpt lat="43.26791" lon="2.99699">
        <ele>45.6</ele>
        <time>2020-06-26T16:52:59Z</time>
      </trkpt>
      <trkpt lat="43.26793" lon="2.99707">
        <ele>45.4</ele>
        <time>2020-06-26T16:52:58Z</time>
      </trkpt>
      <trkpt lat="43.26795" lon="2.99715">
        <ele>45.4</ele>
        <time>2020-06-26T16:52:57Z</time>
      </trkpt>
      <trkpt lat="43.26798" lon="2.99722">
        <ele>45.4</ele>
        <time>2020-06-26T16:52:56Z</time>
      </trkpt>
      <trkpt lat="43.26802" lon="2.9973">
        <ele>45.6</ele>
        <time>2020-06-26T16:52:55Z</time>
      </trkpt>
      <trkpt lat="43.26805" lon="2.99737">
        <ele>45.4</ele>
        <time>2020-06-26T16:52:54Z</time>
      </trkpt>
      <trkpt lat="43.26808" lon="2.99744">
        <ele>45.4</ele>
        <time>2020-06-26T16:52:53Z</time>
      </trkpt>
      <trkpt lat="43.26811" lon="2.99751">
        <ele>45.6</ele>
        <time>2020-06-26T16:52:52Z</time>
      </trkpt>
      <trkpt lat="43.26814" lon="2.99758">
        <ele>45.6</ele>
        <time>2020-06-26T16:52:51Z</time>
      </trkpt>
      <trkpt lat="43.26817" lon="2.99767">
        <ele>45.8</ele>
        <time>2020-06-26T16:52:50Z</time>
      </trkpt>
      <trkpt lat="43.2682" lon="2.99774">
        <ele>46</ele>
        <time>2020-06-26T16:52:49Z</time>
      </trkpt>
      <trkpt lat="43.26822" lon="2.99782">
        <ele>46</ele>
        <time>2020-06-26T16:52:48Z</time>
      </trkpt>
      <trkpt lat="43.26826" lon="2.9979">
        <ele>46</ele>
        <time>2020-06-26T16:52:47Z</time>
      </trkpt>
      <trkpt lat="43.26828" lon="2.99798">
        <ele>46</ele>
        <time>2020-06-26T16:52:46Z</time>
      </trkpt>
      <trkpt lat="43.26831" lon="2.99808">
        <ele>46</ele>
        <time>2020-06-26T16:52:45Z</time>
      </trkpt>
      <trkpt lat="43.26833" lon="2.99817">
        <ele>46.2</ele>
        <time>2020-06-26T16:52:44Z</time>
      </trkpt>
      <trkpt lat="43.26833" lon="2.99826">
        <ele>46.2</ele>
        <time>2020-06-26T16:52:43Z</time>
      </trkpt>
      <trkpt lat="43.26835" lon="2.99836">
        <ele>46.2</ele>
        <time>2020-06-26T16:52:42Z</time>
      </trkpt>
      <trkpt lat="43.26836" lon="2.99846">
        <ele>46.2</ele>
        <time>2020-06-26T16:52:41Z</time>
      </trkpt>
      <trkpt lat="43.26837" lon="2.99854">
        <ele>46.2</ele>
        <time>2020-06-26T16:52:40Z</time>
      </trkpt>
      <trkpt lat="43.26836" lon="2.99863">
        <ele>46.4</ele>
        <time>2020-06-26T16:52:39Z</time>
      </trkpt>
      <trkpt lat="43.26836" lon="2.99873">
        <ele>46.4</ele>
        <time>2020-06-26T16:52:38Z</time>
      </trkpt>
      <trkpt lat="43.26835" lon="2.99883">
        <ele>46.6</ele>
        <time>2020-06-26T16:52:37Z</time>
      </trkpt>
      <trkpt lat="43.26834" lon="2.99892">
        <ele>46.6</ele>
        <time>2020-06-26T16:52:36Z</time>
      </trkpt>
      <trkpt lat="43.26833" lon="2.999">
        <ele>46.8</ele>
        <time>2020-06-26T16:52:35Z</time>
      </trkpt>
      <trkpt lat="43.26833" lon="2.99907">
        <ele>46.8</ele>
        <time>2020-06-26T16:52:34Z</time>
      </trkpt>
      <trkpt lat="43.26833" lon="2.99917">
        <ele>47</ele>
        <time>2020-06-26T16:52:33Z</time>
      </trkpt>
      <trkpt lat="43.26833" lon="2.99923">
        <ele>47.2</ele>
        <time>2020-06-26T16:52:32Z</time>
      </trkpt>
      <trkpt lat="43.26833" lon="2.99931">
        <ele>47.2</ele>
        <time>2020-06-26T16:52:31Z</time>
      </trkpt>
      <trkpt lat="43.26834" lon="2.99939">
        <ele>47.4</ele>
        <time>2020-06-26T16:52:30Z</time>
      </trkpt>
      <trkpt lat="43.26835" lon="2.99947">
        <ele>47.6</ele>
        <time>2020-06-26T16:52:29Z</time>
      </trkpt>
      <trkpt lat="43.26836" lon="2.99955">
        <ele>47.6</ele>
        <time>2020-06-26T16:52:28Z</time>
      </trkpt>
      <trkpt lat="43.26836" lon="2.99963">
        <ele>47.8</ele>
        <time>2020-06-26T16:52:27Z</time>
      </trkpt>
      <trkpt lat="43.26837" lon="2.99972">
        <ele>47.8</ele>
        <time>2020-06-26T16:52:26Z</time>
      </trkpt>
      <trkpt lat="43.26837" lon="2.99979">
        <ele>48</ele>
        <time>2020-06-26T16:52:25Z</time>
      </trkpt>
      <trkpt lat="43.26838" lon="2.99987">
        <ele>48</ele>
        <time>2020-06-26T16:52:24Z</time>
      </trkpt>
      <trkpt lat="43.26839" lon="2.99995">
        <ele>48</ele>
        <time>2020-06-26T16:52:23Z</time>
      </trkpt>
      <trkpt lat="43.2684" lon="3.00002">
        <ele>48.2</ele>
        <time>2020-06-26T16:52:22Z</time>
      </trkpt>
      <trkpt lat="43.26841" lon="3.00009">
        <ele>48.2</ele>
        <time>2020-06-26T16:52:21Z</time>
      </trkpt>
      <trkpt lat="43.26842" lon="3.00016">
        <ele>48.2</ele>
        <time>2020-06-26T16:52:20Z</time>
      </trkpt>
      <trkpt lat="43.26843" lon="3.00024">
        <ele>48.2</ele>
        <time>2020-06-26T16:52:19Z</time>
      </trkpt>
      <trkpt lat="43.26843" lon="3.00028">
        <ele>48.4</ele>
        <time>2020-06-26T16:52:18Z</time>
      </trkpt>
      <trkpt lat="43.26846" lon="3.00035">
        <ele>48.4</ele>
        <time>2020-06-26T16:52:17Z</time>
      </trkpt>
      <trkpt lat="43.26846" lon="3.00041">
        <ele>48.4</ele>
        <time>2020-06-26T16:52:16Z</time>
      </trkpt>
      <trkpt lat="43.26846" lon="3.00046">
        <ele>48.4</ele>
        <time>2020-06-26T16:52:15Z</time>
      </trkpt>
      <trkpt lat="43.26848" lon="3.00052">
        <ele>48.4</ele>
        <time>2020-06-26T16:52:14Z</time>
      </trkpt>
      <trkpt lat="43.26849" lon="3.00058">
        <ele>48.4</ele>
        <time>2020-06-26T16:52:13Z</time>
      </trkpt>
      <trkpt lat="43.26849" lon="3.00064">
        <ele>48.4</ele>
        <time>2020-06-26T16:52:12Z</time>
      </trkpt>
      <trkpt lat="43.26851" lon="3.0007">
        <ele>48.2</ele>
        <time>2020-06-26T16:52:11Z</time>
      </trkpt>
      <trkpt lat="43.26852" lon="3.00076">
        <ele>48.2</ele>
        <time>2020-06-26T16:52:10Z</time>
      </trkpt>
      <trkpt lat="43.26854" lon="3.0008">
        <ele>48</ele>
        <time>2020-06-26T16:52:09Z</time>
      </trkpt>
      <trkpt lat="43.26855" lon="3.00085">
        <ele>48</ele>
        <time>2020-06-26T16:52:08Z</time>
      </trkpt>
      <trkpt lat="43.26856" lon="3.00091">
        <ele>48</ele>
        <time>2020-06-26T16:52:07Z</time>
      </trkpt>
      <trkpt lat="43.26856" lon="3.00097">
        <ele>48</ele>
        <time>2020-06-26T16:52:06Z</time>
      </trkpt>
      <trkpt lat="43.26858" lon="3.00104">
        <ele>48</ele>
        <time>2020-06-26T16:52:05Z</time>
      </trkpt>
      <trkpt lat="43.26859" lon="3.00112">
        <ele>47.8</ele>
        <time>2020-06-26T16:52:04Z</time>
      </trkpt>
      <trkpt lat="43.26859" lon="3.00119">
        <ele>47.8</ele>
        <time>2020-06-26T16:52:03Z</time>
      </trkpt>
      <trkpt lat="43.2686" lon="3.00124">
        <ele>47.8</ele>
        <time>2020-06-26T16:52:02Z</time>
      </trkpt>
      <trkpt lat="43.2686" lon="3.00129">
        <ele>47.8</ele>
        <time>2020-06-26T16:52:01Z</time>
      </trkpt>
      <trkpt lat="43.26862" lon="3.00135">
        <ele>47.6</ele>
        <time>2020-06-26T16:52:00Z</time>
      </trkpt>
      <trkpt lat="43.26863" lon="3.00141">
        <ele>47.6</ele>
        <time>2020-06-26T16:51:59Z</time>
      </trkpt>
      <trkpt lat="43.26864" lon="3.00146">
        <ele>47.6</ele>
        <time>2020-06-26T16:51:58Z</time>
      </trkpt>
      <trkpt lat="43.26864" lon="3.00151">
        <ele>47.4</ele>
        <time>2020-06-26T16:51:57Z</time>
      </trkpt>
      <trkpt lat="43.26864" lon="3.00156">
        <ele>47.4</ele>
        <time>2020-06-26T16:51:56Z</time>
      </trkpt>
      <trkpt lat="43.26865" lon="3.00163">
        <ele>47.4</ele>
        <time>2020-06-26T16:51:55Z</time>
      </trkpt>
      <trkpt lat="43.26867" lon="3.00169">
        <ele>47.4</ele>
        <time>2020-06-26T16:51:54Z</time>
      </trkpt>
      <trkpt lat="43.26867" lon="3.00175">
        <ele>47.4</ele>
        <time>2020-06-26T16:51:53Z</time>
      </trkpt>
      <trkpt lat="43.26869" lon="3.0018">
        <ele>47.4</ele>
        <time>2020-06-26T16:51:52Z</time>
      </trkpt>
      <trkpt lat="43.26871" lon="3.00186">
        <ele>47.4</ele>
        <time>2020-06-26T16:51:51Z</time>
      </trkpt>
      <trkpt lat="43.26872" lon="3.0019">
        <ele>47.4</ele>
        <time>2020-06-26T16:51:50Z</time>
      </trkpt>
      <trkpt lat="43.26873" lon="3.00196">
        <ele>47.2</ele>
        <time>2020-06-26T16:51:49Z</time>
      </trkpt>
      <trkpt lat="43.26874" lon="3.00202">
        <ele>47.2</ele>
        <time>2020-06-26T16:51:48Z</time>
      </trkpt>
      <trkpt lat="43.26875" lon="3.00207">
        <ele>47.2</ele>
        <time>2020-06-26T16:51:47Z</time>
      </trkpt>
      <trkpt lat="43.26876" lon="3.00211">
        <ele>47</ele>
        <time>2020-06-26T16:51:46Z</time>
      </trkpt>
      <trkpt lat="43.26876" lon="3.00216">
        <ele>47</ele>
        <time>2020-06-26T16:51:45Z</time>
      </trkpt>
      <trkpt lat="43.26879" lon="3.00222">
        <ele>46.8</ele>
        <time>2020-06-26T16:51:44Z</time>
      </trkpt>
      <trkpt lat="43.2688" lon="3.00228">
        <ele>46.6</ele>
        <time>2020-06-26T16:51:43Z</time>
      </trkpt>
      <trkpt lat="43.26881" lon="3.00235">
        <ele>46.6</ele>
        <time>2020-06-26T16:51:42Z</time>
      </trkpt>
      <trkpt lat="43.26884" lon="3.00243">
        <ele>46.6</ele>
        <time>2020-06-26T16:51:41Z</time>
      </trkpt>
      <trkpt lat="43.26884" lon="3.0025">
        <ele>46.4</ele>
        <time>2020-06-26T16:51:40Z</time>
      </trkpt>
      <trkpt lat="43.26885" lon="3.00257">
        <ele>46.4</ele>
        <time>2020-06-26T16:51:39Z</time>
      </trkpt>
      <trkpt lat="43.26885" lon="3.00263">
        <ele>46.4</ele>
        <time>2020-06-26T16:51:38Z</time>
      </trkpt>
      <trkpt lat="43.26886" lon="3.0027">
        <ele>46.2</ele>
        <time>2020-06-26T16:51:37Z</time>
      </trkpt>
      <trkpt lat="43.26887" lon="3.00275">
        <ele>46.2</ele>
        <time>2020-06-26T16:51:36Z</time>
      </trkpt>
      <trkpt lat="43.26887" lon="3.0028">
        <ele>46.2</ele>
        <time>2020-06-26T16:51:35Z</time>
      </trkpt>
      <trkpt lat="43.26887" lon="3.00286">
        <ele>46</ele>
        <time>2020-06-26T16:51:34Z</time>
      </trkpt>
      <trkpt lat="43.26887" lon="3.00292">
        <ele>46</ele>
        <time>2020-06-26T16:51:33Z</time>
      </trkpt>
      <trkpt lat="43.26887" lon="3.00297">
        <ele>46</ele>
        <time>2020-06-26T16:51:32Z</time>
      </trkpt>
      <trkpt lat="43.26888" lon="3.00304">
        <ele>46</ele>
        <time>2020-06-26T16:51:31Z</time>
      </trkpt>
      <trkpt lat="43.26888" lon="3.00309">
        <ele>46</ele>
        <time>2020-06-26T16:51:30Z</time>
      </trkpt>
      <trkpt lat="43.26887" lon="3.00315">
        <ele>46</ele>
        <time>2020-06-26T16:51:29Z</time>
      </trkpt>
      <trkpt lat="43.26887" lon="3.00322">
        <ele>45.8</ele>
        <time>2020-06-26T16:51:28Z</time>
      </trkpt>
      <trkpt lat="43.26888" lon="3.00328">
        <ele>46</ele>
        <time>2020-06-26T16:51:27Z</time>
      </trkpt>
      <trkpt lat="43.26889" lon="3.00333">
        <ele>46</ele>
        <time>2020-06-26T16:51:26Z</time>
      </trkpt>
      <trkpt lat="43.26889" lon="3.00338">
        <ele>45.8</ele>
        <time>2020-06-26T16:51:25Z</time>
      </trkpt>
      <trkpt lat="43.2689" lon="3.00344">
        <ele>45.8</ele>
        <time>2020-06-26T16:51:24Z</time>
      </trkpt>
      <trkpt lat="43.26891" lon="3.00351">
        <ele>45.8</ele>
        <time>2020-06-26T16:51:23Z</time>
      </trkpt>
      <trkpt lat="43.26892" lon="3.00357">
        <ele>45.6</ele>
        <time>2020-06-26T16:51:22Z</time>
      </trkpt>
      <trkpt lat="43.26892" lon="3.00364">
        <ele>45.6</ele>
        <time>2020-06-26T16:51:21Z</time>
      </trkpt>
      <trkpt lat="43.26892" lon="3.0037">
        <ele>45.6</ele>
        <time>2020-06-26T16:51:20Z</time>
      </trkpt>
      <trkpt lat="43.26892" lon="3.00377">
        <ele>45.6</ele>
        <time>2020-06-26T16:51:19Z</time>
      </trkpt>
      <trkpt lat="43.26893" lon="3.00383">
        <ele>45.6</ele>
        <time>2020-06-26T16:51:18Z</time>
      </trkpt>
      <trkpt lat="43.26894" lon="3.00388">
        <ele>45.4</ele>
        <time>2020-06-26T16:51:17Z</time>
      </trkpt>
      <trkpt lat="43.26894" lon="3.00394">
        <ele>45.4</ele>
        <time>2020-06-26T16:51:16Z</time>
      </trkpt>
      <trkpt lat="43.26895" lon="3.004">
        <ele>45.4</ele>
        <time>2020-06-26T16:51:15Z</time>
      </trkpt>
      <trkpt lat="43.26896" lon="3.00405">
        <ele>45.4</ele>
        <time>2020-06-26T16:51:14Z</time>
      </trkpt>
      <trkpt lat="43.26897" lon="3.00412">
        <ele>45.2</ele>
        <time>2020-06-26T16:51:13Z</time>
      </trkpt>
      <trkpt lat="43.26897" lon="3.00417">
        <ele>45.2</ele>
        <time>2020-06-26T16:51:12Z</time>
      </trkpt>
      <trkpt lat="43.26898" lon="3.00423">
        <ele>45.2</ele>
        <time>2020-06-26T16:51:11Z</time>
      </trkpt>
      <trkpt lat="43.26899" lon="3.0043">
        <ele>45.2</ele>
        <time>2020-06-26T16:51:10Z</time>
      </trkpt>
      <trkpt lat="43.26899" lon="3.00435">
        <ele>45</ele>
        <time>2020-06-26T16:51:09Z</time>
      </trkpt>
      <trkpt lat="43.26899" lon="3.00441">
        <ele>45</ele>
        <time>2020-06-26T16:51:08Z</time>
      </trkpt>
      <trkpt lat="43.26899" lon="3.00447">
        <ele>45</ele>
        <time>2020-06-26T16:51:07Z</time>
      </trkpt>
      <trkpt lat="43.26899" lon="3.00452">
        <ele>44.8</ele>
        <time>2020-06-26T16:51:06Z</time>
      </trkpt>
      <trkpt lat="43.26898" lon="3.00458">
        <ele>44.8</ele>
        <time>2020-06-26T16:51:05Z</time>
      </trkpt>
      <trkpt lat="43.26899" lon="3.00462">
        <ele>44.8</ele>
        <time>2020-06-26T16:51:04Z</time>
      </trkpt>
      <trkpt lat="43.269" lon="3.00468">
        <ele>44.8</ele>
        <time>2020-06-26T16:51:03Z</time>
      </trkpt>
      <trkpt lat="43.26902" lon="3.00474">
        <ele>44.8</ele>
        <time>2020-06-26T16:51:02Z</time>
      </trkpt>
      <trkpt lat="43.26904" lon="3.00479">
        <ele>44.6</ele>
        <time>2020-06-26T16:51:01Z</time>
      </trkpt>
      <trkpt lat="43.26905" lon="3.00485">
        <ele>44.8</ele>
        <time>2020-06-26T16:51:00Z</time>
      </trkpt>
      <trkpt lat="43.26905" lon="3.00491">
        <ele>44.8</ele>
        <time>2020-06-26T16:50:59Z</time>
      </trkpt>
      <trkpt lat="43.26906" lon="3.00497">
        <ele>44.6</ele>
        <time>2020-06-26T16:50:58Z</time>
      </trkpt>
      <trkpt lat="43.26907" lon="3.00503">
        <ele>44.6</ele>
        <time>2020-06-26T16:50:57Z</time>
      </trkpt>
      <trkpt lat="43.26907" lon="3.00509">
        <ele>44.4</ele>
        <time>2020-06-26T16:50:56Z</time>
      </trkpt>
      <trkpt lat="43.26908" lon="3.00515">
        <ele>44.4</ele>
        <time>2020-06-26T16:50:55Z</time>
      </trkpt>
      <trkpt lat="43.26908" lon="3.00521">
        <ele>44.4</ele>
        <time>2020-06-26T16:50:54Z</time>
      </trkpt>
      <trkpt lat="43.26909" lon="3.00528">
        <ele>44.2</ele>
        <time>2020-06-26T16:50:53Z</time>
      </trkpt>
      <trkpt lat="43.26911" lon="3.00536">
        <ele>44.2</ele>
        <time>2020-06-26T16:50:52Z</time>
      </trkpt>
      <trkpt lat="43.26911" lon="3.00543">
        <ele>44.2</ele>
        <time>2020-06-26T16:50:51Z</time>
      </trkpt>
      <trkpt lat="43.26911" lon="3.0055">
        <ele>44</ele>
        <time>2020-06-26T16:50:50Z</time>
      </trkpt>
      <trkpt lat="43.26911" lon="3.00556">
        <ele>44</ele>
        <time>2020-06-26T16:50:49Z</time>
      </trkpt>
      <trkpt lat="43.26912" lon="3.00563">
        <ele>44</ele>
        <time>2020-06-26T16:50:48Z</time>
      </trkpt>
      <trkpt lat="43.26911" lon="3.0057">
        <ele>44</ele>
        <time>2020-06-26T16:50:47Z</time>
      </trkpt>
      <trkpt lat="43.26912" lon="3.00578">
        <ele>44</ele>
        <time>2020-06-26T16:50:46Z</time>
      </trkpt>
      <trkpt lat="43.26912" lon="3.00583">
        <ele>44</ele>
        <time>2020-06-26T16:50:45Z</time>
      </trkpt>
      <trkpt lat="43.26911" lon="3.00589">
        <ele>44</ele>
        <time>2020-06-26T16:50:44Z</time>
      </trkpt>
      <trkpt lat="43.26911" lon="3.00596">
        <ele>44</ele>
        <time>2020-06-26T16:50:43Z</time>
      </trkpt>
      <trkpt lat="43.26912" lon="3.00602">
        <ele>43.8</ele>
        <time>2020-06-26T16:50:42Z</time>
      </trkpt>
      <trkpt lat="43.26912" lon="3.00608">
        <ele>43.8</ele>
        <time>2020-06-26T16:50:41Z</time>
      </trkpt>
      <trkpt lat="43.26912" lon="3.00615">
        <ele>43.8</ele>
        <time>2020-06-26T16:50:40Z</time>
      </trkpt>
      <trkpt lat="43.26912" lon="3.00621">
        <ele>43.8</ele>
        <time>2020-06-26T16:50:39Z</time>
      </trkpt>
      <trkpt lat="43.26912" lon="3.00628">
        <ele>43.8</ele>
        <time>2020-06-26T16:50:38Z</time>
      </trkpt>
      <trkpt lat="43.26912" lon="3.00635">
        <ele>43.8</ele>
        <time>2020-06-26T16:50:37Z</time>
      </trkpt>
      <trkpt lat="43.26912" lon="3.00642">
        <ele>43.8</ele>
        <time>2020-06-26T16:50:36Z</time>
      </trkpt>
      <trkpt lat="43.26911" lon="3.00649">
        <ele>43.8</ele>
        <time>2020-06-26T16:50:35Z</time>
      </trkpt>
      <trkpt lat="43.26911" lon="3.00655">
        <ele>43.8</ele>
        <time>2020-06-26T16:50:34Z</time>
      </trkpt>
      <trkpt lat="43.26911" lon="3.00662">
        <ele>43.6</ele>
        <time>2020-06-26T16:50:33Z</time>
      </trkpt>
      <trkpt lat="43.26911" lon="3.00668">
        <ele>43.6</ele>
        <time>2020-06-26T16:50:32Z</time>
      </trkpt>
      <trkpt lat="43.26911" lon="3.00673">
        <ele>43.4</ele>
        <time>2020-06-26T16:50:31Z</time>
      </trkpt>
      <trkpt lat="43.26911" lon="3.0068">
        <ele>43.4</ele>
        <time>2020-06-26T16:50:30Z</time>
      </trkpt>
      <trkpt lat="43.26912" lon="3.00687">
        <ele>43.2</ele>
        <time>2020-06-26T16:50:29Z</time>
      </trkpt>
      <trkpt lat="43.26912" lon="3.00695">
        <ele>43.2</ele>
        <time>2020-06-26T16:50:28Z</time>
      </trkpt>
      <trkpt lat="43.26911" lon="3.00701">
        <ele>43.4</ele>
        <time>2020-06-26T16:50:27Z</time>
      </trkpt>
      <trkpt lat="43.2691" lon="3.00708">
        <ele>43.4</ele>
        <time>2020-06-26T16:50:26Z</time>
      </trkpt>
      <trkpt lat="43.2691" lon="3.00714">
        <ele>43.2</ele>
        <time>2020-06-26T16:50:25Z</time>
      </trkpt>
      <trkpt lat="43.2691" lon="3.0072">
        <ele>43.2</ele>
        <time>2020-06-26T16:50:24Z</time>
      </trkpt>
      <trkpt lat="43.26909" lon="3.00727">
        <ele>43.2</ele>
        <time>2020-06-26T16:50:23Z</time>
      </trkpt>
      <trkpt lat="43.2691" lon="3.00735">
        <ele>43</ele>
        <time>2020-06-26T16:50:22Z</time>
      </trkpt>
      <trkpt lat="43.2691" lon="3.0074">
        <ele>43</ele>
        <time>2020-06-26T16:50:21Z</time>
      </trkpt>
      <trkpt lat="43.26909" lon="3.00747">
        <ele>43</ele>
        <time>2020-06-26T16:50:20Z</time>
      </trkpt>
      <trkpt lat="43.26908" lon="3.00754">
        <ele>43</ele>
        <time>2020-06-26T16:50:19Z</time>
      </trkpt>
      <trkpt lat="43.26909" lon="3.00763">
        <ele>42.8</ele>
        <time>2020-06-26T16:50:18Z</time>
      </trkpt>
      <trkpt lat="43.2691" lon="3.00771">
        <ele>42.8</ele>
        <time>2020-06-26T16:50:17Z</time>
      </trkpt>
      <trkpt lat="43.26909" lon="3.00779">
        <ele>42.8</ele>
        <time>2020-06-26T16:50:16Z</time>
      </trkpt>
      <trkpt lat="43.26909" lon="3.00786">
        <ele>42.8</ele>
        <time>2020-06-26T16:50:15Z</time>
      </trkpt>
      <trkpt lat="43.26909" lon="3.00793">
        <ele>42.8</ele>
        <time>2020-06-26T16:50:14Z</time>
      </trkpt>
      <trkpt lat="43.26909" lon="3.008">
        <ele>42.8</ele>
        <time>2020-06-26T16:50:13Z</time>
      </trkpt>
      <trkpt lat="43.26909" lon="3.00808">
        <ele>42.8</ele>
        <time>2020-06-26T16:50:12Z</time>
      </trkpt>
      <trkpt lat="43.26908" lon="3.00814">
        <ele>42.8</ele>
        <time>2020-06-26T16:50:11Z</time>
      </trkpt>
      <trkpt lat="43.26907" lon="3.00821">
        <ele>42.8</ele>
        <time>2020-06-26T16:50:10Z</time>
      </trkpt>
      <trkpt lat="43.26908" lon="3.00828">
        <ele>42.8</ele>
        <time>2020-06-26T16:50:09Z</time>
      </trkpt>
      <trkpt lat="43.26907" lon="3.00834">
        <ele>42.8</ele>
        <time>2020-06-26T16:50:08Z</time>
      </trkpt>
      <trkpt lat="43.26908" lon="3.00843">
        <ele>42.8</ele>
        <time>2020-06-26T16:50:07Z</time>
      </trkpt>
      <trkpt lat="43.26908" lon="3.00851">
        <ele>42.8</ele>
        <time>2020-06-26T16:50:06Z</time>
      </trkpt>
      <trkpt lat="43.26908" lon="3.00859">
        <ele>43</ele>
        <time>2020-06-26T16:50:05Z</time>
      </trkpt>
      <trkpt lat="43.26907" lon="3.00865">
        <ele>42.6</ele>
        <time>2020-06-26T16:50:04Z</time>
      </trkpt>
      <trkpt lat="43.26906" lon="3.00871">
        <ele>42.6</ele>
        <time>2020-06-26T16:50:03Z</time>
      </trkpt>
      <trkpt lat="43.26905" lon="3.00878">
        <ele>42.6</ele>
        <time>2020-06-26T16:50:02Z</time>
      </trkpt>
      <trkpt lat="43.26905" lon="3.00885">
        <ele>42.2</ele>
        <time>2020-06-26T16:50:01Z</time>
      </trkpt>
      <trkpt lat="43.26904" lon="3.00893">
        <ele>41.8</ele>
        <time>2020-06-26T16:50:00Z</time>
      </trkpt>
      <trkpt lat="43.26902" lon="3.00899">
        <ele>42.4</ele>
        <time>2020-06-26T16:49:59Z</time>
      </trkpt>
      <trkpt lat="43.269" lon="3.00905">
        <ele>42.4</ele>
        <time>2020-06-26T16:49:58Z</time>
      </trkpt>
      <trkpt lat="43.26897" lon="3.00912">
        <ele>42.6</ele>
        <time>2020-06-26T16:49:57Z</time>
      </trkpt>
      <trkpt lat="43.26895" lon="3.00919">
        <ele>43.4</ele>
        <time>2020-06-26T16:49:56Z</time>
      </trkpt>
      <trkpt lat="43.26893" lon="3.00924">
        <ele>42</ele>
        <time>2020-06-26T16:49:55Z</time>
      </trkpt>
      <trkpt lat="43.26892" lon="3.0093">
        <ele>41.6</ele>
        <time>2020-06-26T16:49:54Z</time>
      </trkpt>
      <trkpt lat="43.26888" lon="3.00935">
        <ele>42.4</ele>
        <time>2020-06-26T16:49:53Z</time>
      </trkpt>
      <trkpt lat="43.26885" lon="3.0094">
        <ele>42.4</ele>
        <time>2020-06-26T16:49:52Z</time>
      </trkpt>
      <trkpt lat="43.26881" lon="3.00945">
        <ele>42.4</ele>
        <time>2020-06-26T16:49:51Z</time>
      </trkpt>
      <trkpt lat="43.26877" lon="3.00951">
        <ele>42.4</ele>
        <time>2020-06-26T16:49:50Z</time>
      </trkpt>
      <trkpt lat="43.26875" lon="3.00956">
        <ele>42.4</ele>
        <time>2020-06-26T16:49:49Z</time>
      </trkpt>
      <trkpt lat="43.26872" lon="3.00961">
        <ele>42.4</ele>
        <time>2020-06-26T16:49:48Z</time>
      </trkpt>
      <trkpt lat="43.26867" lon="3.00966">
        <ele>42.2</ele>
        <time>2020-06-26T16:49:47Z</time>
      </trkpt>
      <trkpt lat="43.26864" lon="3.00971">
        <ele>42.2</ele>
        <time>2020-06-26T16:49:46Z</time>
      </trkpt>
      <trkpt lat="43.2686" lon="3.00977">
        <ele>42.2</ele>
        <time>2020-06-26T16:49:45Z</time>
      </trkpt>
      <trkpt lat="43.26857" lon="3.00982">
        <ele>42.2</ele>
        <time>2020-06-26T16:49:44Z</time>
      </trkpt>
      <trkpt lat="43.26854" lon="3.00988">
        <ele>42.2</ele>
        <time>2020-06-26T16:49:43Z</time>
      </trkpt>
      <trkpt lat="43.26851" lon="3.00994">
        <ele>42.2</ele>
        <time>2020-06-26T16:49:42Z</time>
      </trkpt>
      <trkpt lat="43.26848" lon="3.00999">
        <ele>42.2</ele>
        <time>2020-06-26T16:49:41Z</time>
      </trkpt>
      <trkpt lat="43.26846" lon="3.01004">
        <ele>42.2</ele>
        <time>2020-06-26T16:49:40Z</time>
      </trkpt>
      <trkpt lat="43.26843" lon="3.0101">
        <ele>42.2</ele>
        <time>2020-06-26T16:49:39Z</time>
      </trkpt>
      <trkpt lat="43.26841" lon="3.01017">
        <ele>42.2</ele>
        <time>2020-06-26T16:49:38Z</time>
      </trkpt>
      <trkpt lat="43.26839" lon="3.01024">
        <ele>42</ele>
        <time>2020-06-26T16:49:37Z</time>
      </trkpt>
      <trkpt lat="43.26837" lon="3.0103">
        <ele>42</ele>
        <time>2020-06-26T16:49:36Z</time>
      </trkpt>
      <trkpt lat="43.26835" lon="3.01036">
        <ele>42</ele>
        <time>2020-06-26T16:49:35Z</time>
      </trkpt>
      <trkpt lat="43.26833" lon="3.01042">
        <ele>42.2</ele>
        <time>2020-06-26T16:49:34Z</time>
      </trkpt>
      <trkpt lat="43.26832" lon="3.01049">
        <ele>42</ele>
        <time>2020-06-26T16:49:33Z</time>
      </trkpt>
      <trkpt lat="43.2683" lon="3.01056">
        <ele>42.2</ele>
        <time>2020-06-26T16:49:32Z</time>
      </trkpt>
      <trkpt lat="43.26829" lon="3.01063">
        <ele>42</ele>
        <time>2020-06-26T16:49:31Z</time>
      </trkpt>
      <trkpt lat="43.26829" lon="3.01071">
        <ele>42</ele>
        <time>2020-06-26T16:49:30Z</time>
      </trkpt>
      <trkpt lat="43.26829" lon="3.01077">
        <ele>42</ele>
        <time>2020-06-26T16:49:29Z</time>
      </trkpt>
      <trkpt lat="43.26829" lon="3.01084">
        <ele>42</ele>
        <time>2020-06-26T16:49:28Z</time>
      </trkpt>
      <trkpt lat="43.26829" lon="3.0109">
        <ele>42</ele>
        <time>2020-06-26T16:49:27Z</time>
      </trkpt>
      <trkpt lat="43.26829" lon="3.01097">
        <ele>42</ele>
        <time>2020-06-26T16:49:26Z</time>
      </trkpt>
      <trkpt lat="43.2683" lon="3.01103">
        <ele>42</ele>
        <time>2020-06-26T16:49:25Z</time>
      </trkpt>
      <trkpt lat="43.26832" lon="3.01109">
        <ele>42</ele>
        <time>2020-06-26T16:49:24Z</time>
      </trkpt>
      <trkpt lat="43.26833" lon="3.01115">
        <ele>42</ele>
        <time>2020-06-26T16:49:23Z</time>
      </trkpt>
      <trkpt lat="43.26833" lon="3.01121">
        <ele>42</ele>
        <time>2020-06-26T16:49:22Z</time>
      </trkpt>
      <trkpt lat="43.26834" lon="3.01127">
        <ele>42</ele>
        <time>2020-06-26T16:49:21Z</time>
      </trkpt>
      <trkpt lat="43.26835" lon="3.01134">
        <ele>42</ele>
        <time>2020-06-26T16:49:20Z</time>
      </trkpt>
      <trkpt lat="43.26835" lon="3.0114">
        <ele>42</ele>
        <time>2020-06-26T16:49:19Z</time>
      </trkpt>
      <trkpt lat="43.26836" lon="3.01146">
        <ele>42.2</ele>
        <time>2020-06-26T16:49:18Z</time>
      </trkpt>
      <trkpt lat="43.26836" lon="3.0115">
        <ele>42.2</ele>
        <time>2020-06-26T16:49:17Z</time>
      </trkpt>
      <trkpt lat="43.26835" lon="3.01155">
        <ele>42.2</ele>
        <time>2020-06-26T16:49:16Z</time>
      </trkpt>
      <trkpt lat="43.26834" lon="3.01161">
        <ele>42.2</ele>
        <time>2020-06-26T16:49:15Z</time>
      </trkpt>
      <trkpt lat="43.26834" lon="3.01165">
        <ele>42.2</ele>
        <time>2020-06-26T16:49:14Z</time>
      </trkpt>
      <trkpt lat="43.26833" lon="3.01169">
        <ele>42.4</ele>
        <time>2020-06-26T16:49:13Z</time>
      </trkpt>
      <trkpt lat="43.26833" lon="3.01174">
        <ele>42.4</ele>
        <time>2020-06-26T16:49:12Z</time>
      </trkpt>
      <trkpt lat="43.26833" lon="3.01178">
        <ele>42.4</ele>
        <time>2020-06-26T16:49:11Z</time>
      </trkpt>
      <trkpt lat="43.26832" lon="3.01184">
        <ele>42.4</ele>
        <time>2020-06-26T16:49:10Z</time>
      </trkpt>
      <trkpt lat="43.26832" lon="3.01186">
        <ele>42.4</ele>
        <time>2020-06-26T16:49:09Z</time>
      </trkpt>
      <trkpt lat="43.26831" lon="3.01189">
        <ele>42.4</ele>
        <time>2020-06-26T16:49:08Z</time>
      </trkpt>
      <trkpt lat="43.26829" lon="3.01192">
        <ele>42.2</ele>
        <time>2020-06-26T16:49:07Z</time>
      </trkpt>
      <trkpt lat="43.26828" lon="3.01196">
        <ele>42.2</ele>
        <time>2020-06-26T16:49:06Z</time>
      </trkpt>
      <trkpt lat="43.26828" lon="3.012">
        <ele>42.2</ele>
        <time>2020-06-26T16:49:05Z</time>
      </trkpt>
      <trkpt lat="43.26828" lon="3.01204">
        <ele>42.2</ele>
        <time>2020-06-26T16:49:04Z</time>
      </trkpt>
      <trkpt lat="43.26827" lon="3.01208">
        <ele>42.2</ele>
        <time>2020-06-26T16:49:03Z</time>
      </trkpt>
      <trkpt lat="43.26827" lon="3.01213">
        <ele>42.2</ele>
        <time>2020-06-26T16:49:02Z</time>
      </trkpt>
      <trkpt lat="43.26828" lon="3.01217">
        <ele>42.2</ele>
        <time>2020-06-26T16:49:01Z</time>
      </trkpt>
      <trkpt lat="43.26828" lon="3.01221">
        <ele>42.2</ele>
        <time>2020-06-26T16:49:00Z</time>
      </trkpt>
      <trkpt lat="43.2683" lon="3.01225">
        <ele>42.2</ele>
        <time>2020-06-26T16:48:59Z</time>
      </trkpt>
      <trkpt lat="43.26831" lon="3.01229">
        <ele>42.2</ele>
        <time>2020-06-26T16:48:58Z</time>
      </trkpt>
      <trkpt lat="43.26834" lon="3.01231">
        <ele>42.2</ele>
        <time>2020-06-26T16:48:57Z</time>
      </trkpt>
      <trkpt lat="43.26838" lon="3.01233">
        <ele>42.2</ele>
        <time>2020-06-26T16:48:56Z</time>
      </trkpt>
      <trkpt lat="43.26842" lon="3.01235">
        <ele>42.2</ele>
        <time>2020-06-26T16:48:55Z</time>
      </trkpt>
      <trkpt lat="43.26846" lon="3.01237">
        <ele>42</ele>
        <time>2020-06-26T16:48:54Z</time>
      </trkpt>
      <trkpt lat="43.2685" lon="3.01239">
        <ele>42</ele>
        <time>2020-06-26T16:48:53Z</time>
      </trkpt>
      <trkpt lat="43.26854" lon="3.01241">
        <ele>42</ele>
        <time>2020-06-26T16:48:52Z</time>
      </trkpt>
      <trkpt lat="43.26858" lon="3.01243">
        <ele>42</ele>
        <time>2020-06-26T16:48:51Z</time>
      </trkpt>
      <trkpt lat="43.26862" lon="3.01246">
        <ele>42</ele>
        <time>2020-06-26T16:48:50Z</time>
      </trkpt>
      <trkpt lat="43.26866" lon="3.01248">
        <ele>42</ele>
        <time>2020-06-26T16:48:49Z</time>
      </trkpt>
      <trkpt lat="43.26871" lon="3.01251">
        <ele>42.2</ele>
        <time>2020-06-26T16:48:48Z</time>
      </trkpt>
      <trkpt lat="43.26876" lon="3.01252">
        <ele>42.2</ele>
        <time>2020-06-26T16:48:47Z</time>
      </trkpt>
      <trkpt lat="43.26881" lon="3.01254">
        <ele>42</ele>
        <time>2020-06-26T16:48:46Z</time>
      </trkpt>
      <trkpt lat="43.26885" lon="3.01256">
        <ele>42</ele>
        <time>2020-06-26T16:48:45Z</time>
      </trkpt>
      <trkpt lat="43.2689" lon="3.01259">
        <ele>42.2</ele>
        <time>2020-06-26T16:48:44Z</time>
      </trkpt>
      <trkpt lat="43.26895" lon="3.01261">
        <ele>42.2</ele>
        <time>2020-06-26T16:48:43Z</time>
      </trkpt>
      <trkpt lat="43.269" lon="3.01263">
        <ele>42.2</ele>
        <time>2020-06-26T16:48:42Z</time>
      </trkpt>
      <trkpt lat="43.26904" lon="3.01267">
        <ele>42.4</ele>
        <time>2020-06-26T16:48:41Z</time>
      </trkpt>
      <trkpt lat="43.26908" lon="3.01269">
        <ele>42.4</ele>
        <time>2020-06-26T16:48:40Z</time>
      </trkpt>
      <trkpt lat="43.26911" lon="3.01272">
        <ele>42.6</ele>
        <time>2020-06-26T16:48:39Z</time>
      </trkpt>
      <trkpt lat="43.26914" lon="3.01274">
        <ele>42.6</ele>
        <time>2020-06-26T16:48:38Z</time>
      </trkpt>
      <trkpt lat="43.26917" lon="3.01276">
        <ele>42.6</ele>
        <time>2020-06-26T16:48:37Z</time>
      </trkpt>
      <trkpt lat="43.2692" lon="3.01278">
        <ele>42.6</ele>
        <time>2020-06-26T16:48:36Z</time>
      </trkpt>
      <trkpt lat="43.26923" lon="3.0128">
        <ele>42.4</ele>
        <time>2020-06-26T16:48:35Z</time>
      </trkpt>
      <trkpt lat="43.26927" lon="3.01282">
        <ele>42.4</ele>
        <time>2020-06-26T16:48:34Z</time>
      </trkpt>
      <trkpt lat="43.2693" lon="3.01283">
        <ele>42.2</ele>
        <time>2020-06-26T16:48:33Z</time>
      </trkpt>
      <trkpt lat="43.26933" lon="3.01286">
        <ele>42.2</ele>
        <time>2020-06-26T16:48:32Z</time>
      </trkpt>
      <trkpt lat="43.26937" lon="3.01288">
        <ele>42</ele>
        <time>2020-06-26T16:48:31Z</time>
      </trkpt>
      <trkpt lat="43.26942" lon="3.01289">
        <ele>42</ele>
        <time>2020-06-26T16:48:30Z</time>
      </trkpt>
      <trkpt lat="43.26946" lon="3.0129">
        <ele>41.8</ele>
        <time>2020-06-26T16:48:29Z</time>
      </trkpt>
      <trkpt lat="43.2695" lon="3.01295">
        <ele>41.8</ele>
        <time>2020-06-26T16:48:28Z</time>
      </trkpt>
      <trkpt lat="43.26953" lon="3.01296">
        <ele>41.8</ele>
        <time>2020-06-26T16:48:27Z</time>
      </trkpt>
      <trkpt lat="43.26958" lon="3.01297">
        <ele>43.8</ele>
        <time>2020-06-26T16:48:26Z</time>
      </trkpt>
      <trkpt lat="43.26962" lon="3.01301">
        <ele>42.2</ele>
        <time>2020-06-26T16:48:25Z</time>
      </trkpt>
      <trkpt lat="43.26966" lon="3.01303">
        <ele>41</ele>
        <time>2020-06-26T16:48:24Z</time>
      </trkpt>
      <trkpt lat="43.2697" lon="3.01305">
        <ele>41</ele>
        <time>2020-06-26T16:48:23Z</time>
      </trkpt>
      <trkpt lat="43.26974" lon="3.01306">
        <ele>41.4</ele>
        <time>2020-06-26T16:48:22Z</time>
      </trkpt>
      <trkpt lat="43.26978" lon="3.01308">
        <ele>40.4</ele>
        <time>2020-06-26T16:48:21Z</time>
      </trkpt>
      <trkpt lat="43.26982" lon="3.0131">
        <ele>40.4</ele>
        <time>2020-06-26T16:48:20Z</time>
      </trkpt>
      <trkpt lat="43.26986" lon="3.01312">
        <ele>41.2</ele>
        <time>2020-06-26T16:48:19Z</time>
      </trkpt>
      <trkpt lat="43.26991" lon="3.01314">
        <ele>41.4</ele>
        <time>2020-06-26T16:48:18Z</time>
      </trkpt>
      <trkpt lat="43.26995" lon="3.01317">
        <ele>41.2</ele>
        <time>2020-06-26T16:48:17Z</time>
      </trkpt>
      <trkpt lat="43.26999" lon="3.01321">
        <ele>41.2</ele>
        <time>2020-06-26T16:48:16Z</time>
      </trkpt>
      <trkpt lat="43.27004" lon="3.01324">
        <ele>41.2</ele>
        <time>2020-06-26T16:48:15Z</time>
      </trkpt>
      <trkpt lat="43.27008" lon="3.01328">
        <ele>41.2</ele>
        <time>2020-06-26T16:48:14Z</time>
      </trkpt>
      <trkpt lat="43.27013" lon="3.01329">
        <ele>41.2</ele>
        <time>2020-06-26T16:48:13Z</time>
      </trkpt>
      <trkpt lat="43.27019" lon="3.01331">
        <ele>41.2</ele>
        <time>2020-06-26T16:48:12Z</time>
      </trkpt>
      <trkpt lat="43.27023" lon="3.01334">
        <ele>41.2</ele>
        <time>2020-06-26T16:48:11Z</time>
      </trkpt>
      <trkpt lat="43.27028" lon="3.01336">
        <ele>41.2</ele>
        <time>2020-06-26T16:48:10Z</time>
      </trkpt>
      <trkpt lat="43.27033" lon="3.01339">
        <ele>41.2</ele>
        <time>2020-06-26T16:48:09Z</time>
      </trkpt>
      <trkpt lat="43.27037" lon="3.01341">
        <ele>41.2</ele>
        <time>2020-06-26T16:48:08Z</time>
      </trkpt>
      <trkpt lat="43.27042" lon="3.01343">
        <ele>41.2</ele>
        <time>2020-06-26T16:48:07Z</time>
      </trkpt>
      <trkpt lat="43.27047" lon="3.01345">
        <ele>41.2</ele>
        <time>2020-06-26T16:48:06Z</time>
      </trkpt>
      <trkpt lat="43.27051" lon="3.01348">
        <ele>41.2</ele>
        <time>2020-06-26T16:48:05Z</time>
      </trkpt>
      <trkpt lat="43.27054" lon="3.01351">
        <ele>41.2</ele>
        <time>2020-06-26T16:48:04Z</time>
      </trkpt>
      <trkpt lat="43.27059" lon="3.01352">
        <ele>41.2</ele>
        <time>2020-06-26T16:48:03Z</time>
      </trkpt>
      <trkpt lat="43.27062" lon="3.01354">
        <ele>41.2</ele>
        <time>2020-06-26T16:48:02Z</time>
      </trkpt>
      <trkpt lat="43.27067" lon="3.01357">
        <ele>41.2</ele>
        <time>2020-06-26T16:48:01Z</time>
      </trkpt>
      <trkpt lat="43.27072" lon="3.0136">
        <ele>41.2</ele>
        <time>2020-06-26T16:48:00Z</time>
      </trkpt>
      <trkpt lat="43.27076" lon="3.01363">
        <ele>41</ele>
        <time>2020-06-26T16:47:59Z</time>
      </trkpt>
      <trkpt lat="43.2708" lon="3.01366">
        <ele>41.2</ele>
        <time>2020-06-26T16:47:58Z</time>
      </trkpt>
      <trkpt lat="43.27085" lon="3.01368">
        <ele>41.2</ele>
        <time>2020-06-26T16:47:57Z</time>
      </trkpt>
      <trkpt lat="43.27089" lon="3.0137">
        <ele>41.2</ele>
        <time>2020-06-26T16:47:56Z</time>
      </trkpt>
      <trkpt lat="43.27093" lon="3.01373">
        <ele>41.4</ele>
        <time>2020-06-26T16:47:55Z</time>
      </trkpt>
      <trkpt lat="43.27098" lon="3.01374">
        <ele>41.4</ele>
        <time>2020-06-26T16:47:54Z</time>
      </trkpt>
      <trkpt lat="43.27103" lon="3.01376">
        <ele>41.4</ele>
        <time>2020-06-26T16:47:53Z</time>
      </trkpt>
      <trkpt lat="43.27107" lon="3.01378">
        <ele>41.6</ele>
        <time>2020-06-26T16:47:52Z</time>
      </trkpt>
      <trkpt lat="43.27111" lon="3.01379">
        <ele>41.6</ele>
        <time>2020-06-26T16:47:51Z</time>
      </trkpt>
      <trkpt lat="43.27115" lon="3.01383">
        <ele>41.4</ele>
        <time>2020-06-26T16:47:50Z</time>
      </trkpt>
      <trkpt lat="43.27119" lon="3.01385">
        <ele>41.4</ele>
        <time>2020-06-26T16:47:49Z</time>
      </trkpt>
      <trkpt lat="43.27124" lon="3.01386">
        <ele>41.4</ele>
        <time>2020-06-26T16:47:48Z</time>
      </trkpt>
      <trkpt lat="43.27129" lon="3.01388">
        <ele>41.2</ele>
        <time>2020-06-26T16:47:47Z</time>
      </trkpt>
      <trkpt lat="43.27134" lon="3.01391">
        <ele>41.4</ele>
        <time>2020-06-26T16:47:46Z</time>
      </trkpt>
      <trkpt lat="43.27139" lon="3.01393">
        <ele>41.4</ele>
        <time>2020-06-26T16:47:45Z</time>
      </trkpt>
      <trkpt lat="43.27145" lon="3.01397">
        <ele>41.6</ele>
        <time>2020-06-26T16:47:44Z</time>
      </trkpt>
      <trkpt lat="43.27151" lon="3.01401">
        <ele>41.4</ele>
        <time>2020-06-26T16:47:43Z</time>
      </trkpt>
      <trkpt lat="43.27155" lon="3.01404">
        <ele>41.6</ele>
        <time>2020-06-26T16:47:42Z</time>
      </trkpt>
      <trkpt lat="43.2716" lon="3.01407">
        <ele>41.6</ele>
        <time>2020-06-26T16:47:41Z</time>
      </trkpt>
      <trkpt lat="43.27165" lon="3.0141">
        <ele>41.6</ele>
        <time>2020-06-26T16:47:40Z</time>
      </trkpt>
      <trkpt lat="43.27169" lon="3.01412">
        <ele>41.4</ele>
        <time>2020-06-26T16:47:39Z</time>
      </trkpt>
      <trkpt lat="43.27174" lon="3.01414">
        <ele>41.2</ele>
        <time>2020-06-26T16:47:38Z</time>
      </trkpt>
      <trkpt lat="43.2718" lon="3.01416">
        <ele>41.2</ele>
        <time>2020-06-26T16:47:37Z</time>
      </trkpt>
      <trkpt lat="43.27184" lon="3.01418">
        <ele>41.2</ele>
        <time>2020-06-26T16:47:36Z</time>
      </trkpt>
      <trkpt lat="43.27189" lon="3.01421">
        <ele>41.2</ele>
        <time>2020-06-26T16:47:35Z</time>
      </trkpt>
      <trkpt lat="43.27194" lon="3.01423">
        <ele>41.2</ele>
        <time>2020-06-26T16:47:34Z</time>
      </trkpt>
      <trkpt lat="43.27198" lon="3.01425">
        <ele>41.2</ele>
        <time>2020-06-26T16:47:33Z</time>
      </trkpt>
      <trkpt lat="43.27202" lon="3.01428">
        <ele>41.4</ele>
        <time>2020-06-26T16:47:32Z</time>
      </trkpt>
      <trkpt lat="43.27206" lon="3.01431">
        <ele>41.2</ele>
        <time>2020-06-26T16:47:31Z</time>
      </trkpt>
      <trkpt lat="43.27211" lon="3.01434">
        <ele>41.2</ele>
        <time>2020-06-26T16:47:30Z</time>
      </trkpt>
      <trkpt lat="43.27215" lon="3.01437">
        <ele>41.2</ele>
        <time>2020-06-26T16:47:29Z</time>
      </trkpt>
      <trkpt lat="43.2722" lon="3.0144">
        <ele>41.2</ele>
        <time>2020-06-26T16:47:28Z</time>
      </trkpt>
      <trkpt lat="43.27225" lon="3.01442">
        <ele>41.4</ele>
        <time>2020-06-26T16:47:27Z</time>
      </trkpt>
      <trkpt lat="43.2723" lon="3.01445">
        <ele>41.4</ele>
        <time>2020-06-26T16:47:26Z</time>
      </trkpt>
      <trkpt lat="43.27235" lon="3.01447">
        <ele>41.2</ele>
        <time>2020-06-26T16:47:25Z</time>
      </trkpt>
      <trkpt lat="43.27239" lon="3.01451">
        <ele>41.2</ele>
        <time>2020-06-26T16:47:24Z</time>
      </trkpt>
      <trkpt lat="43.27244" lon="3.01453">
        <ele>41.2</ele>
        <time>2020-06-26T16:47:23Z</time>
      </trkpt>
      <trkpt lat="43.27249" lon="3.01456">
        <ele>41.2</ele>
        <time>2020-06-26T16:47:22Z</time>
      </trkpt>
      <trkpt lat="43.27254" lon="3.01458">
        <ele>41.2</ele>
        <time>2020-06-26T16:47:21Z</time>
      </trkpt>
      <trkpt lat="43.27259" lon="3.0146">
        <ele>41.2</ele>
        <time>2020-06-26T16:47:20Z</time>
      </trkpt>
      <trkpt lat="43.27263" lon="3.01462">
        <ele>41.2</ele>
        <time>2020-06-26T16:47:19Z</time>
      </trkpt>
      <trkpt lat="43.27267" lon="3.01464">
        <ele>41.2</ele>
        <time>2020-06-26T16:47:18Z</time>
      </trkpt>
      <trkpt lat="43.27273" lon="3.01466">
        <ele>41.2</ele>
        <time>2020-06-26T16:47:17Z</time>
      </trkpt>
      <trkpt lat="43.27278" lon="3.01468">
        <ele>41.2</ele>
        <time>2020-06-26T16:47:16Z</time>
      </trkpt>
      <trkpt lat="43.27282" lon="3.01469">
        <ele>41.2</ele>
        <time>2020-06-26T16:47:15Z</time>
      </trkpt>
      <trkpt lat="43.27287" lon="3.01472">
        <ele>41</ele>
        <time>2020-06-26T16:47:14Z</time>
      </trkpt>
      <trkpt lat="43.27292" lon="3.01473">
        <ele>41</ele>
        <time>2020-06-26T16:47:13Z</time>
      </trkpt>
      <trkpt lat="43.27296" lon="3.01475">
        <ele>41</ele>
        <time>2020-06-26T16:47:12Z</time>
      </trkpt>
      <trkpt lat="43.27302" lon="3.01477">
        <ele>41</ele>
        <time>2020-06-26T16:47:11Z</time>
      </trkpt>
      <trkpt lat="43.27307" lon="3.01479">
        <ele>40.8</ele>
        <time>2020-06-26T16:47:10Z</time>
      </trkpt>
      <trkpt lat="43.27312" lon="3.01483">
        <ele>41.4</ele>
        <time>2020-06-26T16:47:09Z</time>
      </trkpt>
      <trkpt lat="43.27316" lon="3.01486">
        <ele>41</ele>
        <time>2020-06-26T16:47:08Z</time>
      </trkpt>
      <trkpt lat="43.27322" lon="3.0149">
        <ele>41</ele>
        <time>2020-06-26T16:47:07Z</time>
      </trkpt>
      <trkpt lat="43.27326" lon="3.01493">
        <ele>41</ele>
        <time>2020-06-26T16:47:06Z</time>
      </trkpt>
      <trkpt lat="43.2733" lon="3.01496">
        <ele>41</ele>
        <time>2020-06-26T16:47:05Z</time>
      </trkpt>
      <trkpt lat="43.27335" lon="3.01499">
        <ele>41.2</ele>
        <time>2020-06-26T16:47:04Z</time>
      </trkpt>
      <trkpt lat="43.2734" lon="3.01501">
        <ele>41.2</ele>
        <time>2020-06-26T16:47:03Z</time>
      </trkpt>
      <trkpt lat="43.27345" lon="3.01503">
        <ele>41.2</ele>
        <time>2020-06-26T16:47:02Z</time>
      </trkpt>
      <trkpt lat="43.27349" lon="3.01507">
        <ele>41</ele>
        <time>2020-06-26T16:47:01Z</time>
      </trkpt>
      <trkpt lat="43.27354" lon="3.0151">
        <ele>41</ele>
        <time>2020-06-26T16:47:00Z</time>
      </trkpt>
      <trkpt lat="43.27359" lon="3.01512">
        <ele>41</ele>
        <time>2020-06-26T16:46:59Z</time>
      </trkpt>
      <trkpt lat="43.27365" lon="3.01515">
        <ele>41.2</ele>
        <time>2020-06-26T16:46:58Z</time>
      </trkpt>
      <trkpt lat="43.2737" lon="3.01518">
        <ele>41.2</ele>
        <time>2020-06-26T16:46:57Z</time>
      </trkpt>
      <trkpt lat="43.27374" lon="3.01519">
        <ele>41</ele>
        <time>2020-06-26T16:46:56Z</time>
      </trkpt>
      <trkpt lat="43.27379" lon="3.0152">
        <ele>41.2</ele>
        <time>2020-06-26T16:46:55Z</time>
      </trkpt>
      <trkpt lat="43.27383" lon="3.01521">
        <ele>41.2</ele>
        <time>2020-06-26T16:46:54Z</time>
      </trkpt>
      <trkpt lat="43.27388" lon="3.01523">
        <ele>41.2</ele>
        <time>2020-06-26T16:46:53Z</time>
      </trkpt>
      <trkpt lat="43.27392" lon="3.01525">
        <ele>41.2</ele>
        <time>2020-06-26T16:46:52Z</time>
      </trkpt>
      <trkpt lat="43.27397" lon="3.01527">
        <ele>41.2</ele>
        <time>2020-06-26T16:46:51Z</time>
      </trkpt>
      <trkpt lat="43.27401" lon="3.0153">
        <ele>41.2</ele>
        <time>2020-06-26T16:46:50Z</time>
      </trkpt>
      <trkpt lat="43.27406" lon="3.01532">
        <ele>41.2</ele>
        <time>2020-06-26T16:46:49Z</time>
      </trkpt>
      <trkpt lat="43.2741" lon="3.01537">
        <ele>41.2</ele>
        <time>2020-06-26T16:46:48Z</time>
      </trkpt>
      <trkpt lat="43.27416" lon="3.0154">
        <ele>41.2</ele>
        <time>2020-06-26T16:46:47Z</time>
      </trkpt>
      <trkpt lat="43.2742" lon="3.01542">
        <ele>41.2</ele>
        <time>2020-06-26T16:46:46Z</time>
      </trkpt>
      <trkpt lat="43.27424" lon="3.01544">
        <ele>41.2</ele>
        <time>2020-06-26T16:46:45Z</time>
      </trkpt>
      <trkpt lat="43.27429" lon="3.01547">
        <ele>41.2</ele>
        <time>2020-06-26T16:46:44Z</time>
      </trkpt>
      <trkpt lat="43.27434" lon="3.0155">
        <ele>41.2</ele>
        <time>2020-06-26T16:46:43Z</time>
      </trkpt>
      <trkpt lat="43.2744" lon="3.01551">
        <ele>41</ele>
        <time>2020-06-26T16:46:42Z</time>
      </trkpt>
      <trkpt lat="43.27445" lon="3.01554">
        <ele>41.2</ele>
        <time>2020-06-26T16:46:41Z</time>
      </trkpt>
      <trkpt lat="43.2745" lon="3.01558">
        <ele>41</ele>
        <time>2020-06-26T16:46:40Z</time>
      </trkpt>
      <trkpt lat="43.27454" lon="3.0156">
        <ele>41</ele>
        <time>2020-06-26T16:46:39Z</time>
      </trkpt>
      <trkpt lat="43.27459" lon="3.01563">
        <ele>41</ele>
        <time>2020-06-26T16:46:38Z</time>
      </trkpt>
      <trkpt lat="43.27465" lon="3.01566">
        <ele>41</ele>
        <time>2020-06-26T16:46:37Z</time>
      </trkpt>
      <trkpt lat="43.27469" lon="3.01569">
        <ele>41</ele>
        <time>2020-06-26T16:46:36Z</time>
      </trkpt>
      <trkpt lat="43.27474" lon="3.01572">
        <ele>41</ele>
        <time>2020-06-26T16:46:35Z</time>
      </trkpt>
      <trkpt lat="43.27479" lon="3.01576">
        <ele>41</ele>
        <time>2020-06-26T16:46:34Z</time>
      </trkpt>
      <trkpt lat="43.27484" lon="3.01578">
        <ele>41</ele>
        <time>2020-06-26T16:46:33Z</time>
      </trkpt>
      <trkpt lat="43.27489" lon="3.0158">
        <ele>41</ele>
        <time>2020-06-26T16:46:32Z</time>
      </trkpt>
      <trkpt lat="43.27495" lon="3.01582">
        <ele>41</ele>
        <time>2020-06-26T16:46:31Z</time>
      </trkpt>
      <trkpt lat="43.27499" lon="3.01585">
        <ele>41.2</ele>
        <time>2020-06-26T16:46:30Z</time>
      </trkpt>
      <trkpt lat="43.27505" lon="3.01588">
        <ele>41.6</ele>
        <time>2020-06-26T16:46:29Z</time>
      </trkpt>
      <trkpt lat="43.2751" lon="3.01592">
        <ele>41.2</ele>
        <time>2020-06-26T16:46:28Z</time>
      </trkpt>
      <trkpt lat="43.27516" lon="3.01596">
        <ele>41.2</ele>
        <time>2020-06-26T16:46:27Z</time>
      </trkpt>
      <trkpt lat="43.2752" lon="3.016">
        <ele>41.4</ele>
        <time>2020-06-26T16:46:26Z</time>
      </trkpt>
      <trkpt lat="43.27525" lon="3.01601">
        <ele>41.2</ele>
        <time>2020-06-26T16:46:25Z</time>
      </trkpt>
      <trkpt lat="43.27529" lon="3.01603">
        <ele>41.6</ele>
        <time>2020-06-26T16:46:24Z</time>
      </trkpt>
      <trkpt lat="43.27535" lon="3.01606">
        <ele>41.2</ele>
        <time>2020-06-26T16:46:23Z</time>
      </trkpt>
      <trkpt lat="43.2754" lon="3.01609">
        <ele>41.2</ele>
        <time>2020-06-26T16:46:22Z</time>
      </trkpt>
      <trkpt lat="43.27545" lon="3.01612">
        <ele>41.6</ele>
        <time>2020-06-26T16:46:21Z</time>
      </trkpt>
      <trkpt lat="43.2755" lon="3.01615">
        <ele>41.6</ele>
        <time>2020-06-26T16:46:20Z</time>
      </trkpt>
      <trkpt lat="43.27554" lon="3.01618">
        <ele>41.4</ele>
        <time>2020-06-26T16:46:19Z</time>
      </trkpt>
      <trkpt lat="43.27558" lon="3.01621">
        <ele>41.6</ele>
        <time>2020-06-26T16:46:18Z</time>
      </trkpt>
      <trkpt lat="43.27562" lon="3.01622">
        <ele>41.6</ele>
        <time>2020-06-26T16:46:17Z</time>
      </trkpt>
      <trkpt lat="43.27566" lon="3.01623">
        <ele>41.6</ele>
        <time>2020-06-26T16:46:16Z</time>
      </trkpt>
      <trkpt lat="43.27571" lon="3.01625">
        <ele>41.6</ele>
        <time>2020-06-26T16:46:15Z</time>
      </trkpt>
      <trkpt lat="43.27578" lon="3.01628">
        <ele>41.6</ele>
        <time>2020-06-26T16:46:14Z</time>
      </trkpt>
      <trkpt lat="43.27582" lon="3.0163">
        <ele>41.6</ele>
        <time>2020-06-26T16:46:13Z</time>
      </trkpt>
      <trkpt lat="43.27586" lon="3.01634">
        <ele>41.4</ele>
        <time>2020-06-26T16:46:12Z</time>
      </trkpt>
      <trkpt lat="43.27591" lon="3.01635">
        <ele>41.4</ele>
        <time>2020-06-26T16:46:11Z</time>
      </trkpt>
      <trkpt lat="43.27596" lon="3.01638">
        <ele>41.4</ele>
        <time>2020-06-26T16:46:10Z</time>
      </trkpt>
      <trkpt lat="43.276" lon="3.0164">
        <ele>41.4</ele>
        <time>2020-06-26T16:46:09Z</time>
      </trkpt>
      <trkpt lat="43.27605" lon="3.01642">
        <ele>41.4</ele>
        <time>2020-06-26T16:46:08Z</time>
      </trkpt>
      <trkpt lat="43.27609" lon="3.01645">
        <ele>41.4</ele>
        <time>2020-06-26T16:46:07Z</time>
      </trkpt>
      <trkpt lat="43.27615" lon="3.01646">
        <ele>41.4</ele>
        <time>2020-06-26T16:46:06Z</time>
      </trkpt>
      <trkpt lat="43.27618" lon="3.0165">
        <ele>41.6</ele>
        <time>2020-06-26T16:46:05Z</time>
      </trkpt>
      <trkpt lat="43.27624" lon="3.01652">
        <ele>41.4</ele>
        <time>2020-06-26T16:46:04Z</time>
      </trkpt>
      <trkpt lat="43.27628" lon="3.01654">
        <ele>41.4</ele>
        <time>2020-06-26T16:46:03Z</time>
      </trkpt>
      <trkpt lat="43.27634" lon="3.01657">
        <ele>41.4</ele>
        <time>2020-06-26T16:46:02Z</time>
      </trkpt>
      <trkpt lat="43.27639" lon="3.0166">
        <ele>41.6</ele>
        <time>2020-06-26T16:46:01Z</time>
      </trkpt>
      <trkpt lat="43.27644" lon="3.01662">
        <ele>41.6</ele>
        <time>2020-06-26T16:46:00Z</time>
      </trkpt>
      <trkpt lat="43.27649" lon="3.01663">
        <ele>41.6</ele>
        <time>2020-06-26T16:45:59Z</time>
      </trkpt>
      <trkpt lat="43.27653" lon="3.01666">
        <ele>41.6</ele>
        <time>2020-06-26T16:45:58Z</time>
      </trkpt>
      <trkpt lat="43.27659" lon="3.0167">
        <ele>41.6</ele>
        <time>2020-06-26T16:45:57Z</time>
      </trkpt>
      <trkpt lat="43.27664" lon="3.01673">
        <ele>41.6</ele>
        <time>2020-06-26T16:45:56Z</time>
      </trkpt>
      <trkpt lat="43.27668" lon="3.01677">
        <ele>41.6</ele>
        <time>2020-06-26T16:45:55Z</time>
      </trkpt>
      <trkpt lat="43.27673" lon="3.01679">
        <ele>41.4</ele>
        <time>2020-06-26T16:45:54Z</time>
      </trkpt>
      <trkpt lat="43.27677" lon="3.01681">
        <ele>41.4</ele>
        <time>2020-06-26T16:45:53Z</time>
      </trkpt>
      <trkpt lat="43.27682" lon="3.01684">
        <ele>41.4</ele>
        <time>2020-06-26T16:45:52Z</time>
      </trkpt>
      <trkpt lat="43.27686" lon="3.01686">
        <ele>41.4</ele>
        <time>2020-06-26T16:45:51Z</time>
      </trkpt>
      <trkpt lat="43.27692" lon="3.01687">
        <ele>41.6</ele>
        <time>2020-06-26T16:45:50Z</time>
      </trkpt>
      <trkpt lat="43.27696" lon="3.0169">
        <ele>41.6</ele>
        <time>2020-06-26T16:45:49Z</time>
      </trkpt>
      <trkpt lat="43.277" lon="3.01691">
        <ele>41.6</ele>
        <time>2020-06-26T16:45:48Z</time>
      </trkpt>
      <trkpt lat="43.27704" lon="3.01694">
        <ele>41.6</ele>
        <time>2020-06-26T16:45:47Z</time>
      </trkpt>
      <trkpt lat="43.27708" lon="3.01696">
        <ele>41.6</ele>
        <time>2020-06-26T16:45:46Z</time>
      </trkpt>
      <trkpt lat="43.27714" lon="3.01698">
        <ele>41.6</ele>
        <time>2020-06-26T16:45:45Z</time>
      </trkpt>
      <trkpt lat="43.27718" lon="3.01701">
        <ele>41.6</ele>
        <time>2020-06-26T16:45:44Z</time>
      </trkpt>
      <trkpt lat="43.2772" lon="3.01703">
        <ele>41.6</ele>
        <time>2020-06-26T16:45:43Z</time>
      </trkpt>
      <trkpt lat="43.27725" lon="3.01704">
        <ele>41.6</ele>
        <time>2020-06-26T16:45:42Z</time>
      </trkpt>
      <trkpt lat="43.2773" lon="3.01706">
        <ele>41.6</ele>
        <time>2020-06-26T16:45:41Z</time>
      </trkpt>
      <trkpt lat="43.27734" lon="3.01709">
        <ele>41.6</ele>
        <time>2020-06-26T16:45:40Z</time>
      </trkpt>
      <trkpt lat="43.2774" lon="3.01713">
        <ele>41.6</ele>
        <time>2020-06-26T16:45:39Z</time>
      </trkpt>
      <trkpt lat="43.27743" lon="3.01714">
        <ele>41.4</ele>
        <time>2020-06-26T16:45:38Z</time>
      </trkpt>
      <trkpt lat="43.27748" lon="3.01716">
        <ele>41.4</ele>
        <time>2020-06-26T16:45:37Z</time>
      </trkpt>
      <trkpt lat="43.27753" lon="3.01718">
        <ele>41.4</ele>
        <time>2020-06-26T16:45:36Z</time>
      </trkpt>
      <trkpt lat="43.27757" lon="3.0172">
        <ele>41.4</ele>
        <time>2020-06-26T16:45:35Z</time>
      </trkpt>
      <trkpt lat="43.27762" lon="3.01724">
        <ele>41.6</ele>
        <time>2020-06-26T16:45:34Z</time>
      </trkpt>
      <trkpt lat="43.27767" lon="3.01726">
        <ele>41.8</ele>
        <time>2020-06-26T16:45:33Z</time>
      </trkpt>
      <trkpt lat="43.27772" lon="3.01728">
        <ele>42.2</ele>
        <time>2020-06-26T16:45:32Z</time>
      </trkpt>
      <trkpt lat="43.27777" lon="3.0173">
        <ele>41.6</ele>
        <time>2020-06-26T16:45:31Z</time>
      </trkpt>
      <trkpt lat="43.27782" lon="3.01732">
        <ele>41.4</ele>
        <time>2020-06-26T16:45:30Z</time>
      </trkpt>
      <trkpt lat="43.27787" lon="3.01734">
        <ele>41.4</ele>
        <time>2020-06-26T16:45:29Z</time>
      </trkpt>
      <trkpt lat="43.27791" lon="3.01737">
        <ele>41.2</ele>
        <time>2020-06-26T16:45:28Z</time>
      </trkpt>
      <trkpt lat="43.27796" lon="3.01739">
        <ele>41.2</ele>
        <time>2020-06-26T16:45:27Z</time>
      </trkpt>
      <trkpt lat="43.27801" lon="3.01742">
        <ele>41.4</ele>
        <time>2020-06-26T16:45:26Z</time>
      </trkpt>
      <trkpt lat="43.27805" lon="3.01745">
        <ele>41.4</ele>
        <time>2020-06-26T16:45:25Z</time>
      </trkpt>
      <trkpt lat="43.27809" lon="3.01747">
        <ele>41.4</ele>
        <time>2020-06-26T16:45:24Z</time>
      </trkpt>
      <trkpt lat="43.27814" lon="3.01749">
        <ele>41.2</ele>
        <time>2020-06-26T16:45:23Z</time>
      </trkpt>
      <trkpt lat="43.27819" lon="3.01749">
        <ele>41.2</ele>
        <time>2020-06-26T16:45:22Z</time>
      </trkpt>
      <trkpt lat="43.27824" lon="3.0175">
        <ele>41.2</ele>
        <time>2020-06-26T16:45:21Z</time>
      </trkpt>
      <trkpt lat="43.27828" lon="3.0175">
        <ele>41.2</ele>
        <time>2020-06-26T16:45:20Z</time>
      </trkpt>
      <trkpt lat="43.27833" lon="3.01753">
        <ele>41.2</ele>
        <time>2020-06-26T16:45:19Z</time>
      </trkpt>
      <trkpt lat="43.27837" lon="3.01755">
        <ele>41.2</ele>
        <time>2020-06-26T16:45:18Z</time>
      </trkpt>
      <trkpt lat="43.27841" lon="3.01757">
        <ele>41.2</ele>
        <time>2020-06-26T16:45:17Z</time>
      </trkpt>
      <trkpt lat="43.27846" lon="3.01759">
        <ele>41</ele>
        <time>2020-06-26T16:45:16Z</time>
      </trkpt>
      <trkpt lat="43.27852" lon="3.01762">
        <ele>40.8</ele>
        <time>2020-06-26T16:45:15Z</time>
      </trkpt>
      <trkpt lat="43.27856" lon="3.01764">
        <ele>40.8</ele>
        <time>2020-06-26T16:45:14Z</time>
      </trkpt>
      <trkpt lat="43.27861" lon="3.01765">
        <ele>40.8</ele>
        <time>2020-06-26T16:45:13Z</time>
      </trkpt>
      <trkpt lat="43.27866" lon="3.01768">
        <ele>40.8</ele>
        <time>2020-06-26T16:45:12Z</time>
      </trkpt>
      <trkpt lat="43.2787" lon="3.01769">
        <ele>41</ele>
        <time>2020-06-26T16:45:11Z</time>
      </trkpt>
      <trkpt lat="43.27875" lon="3.01771">
        <ele>40.8</ele>
        <time>2020-06-26T16:45:10Z</time>
      </trkpt>
      <trkpt lat="43.2788" lon="3.01773">
        <ele>40.8</ele>
        <time>2020-06-26T16:45:09Z</time>
      </trkpt>
      <trkpt lat="43.27884" lon="3.01776">
        <ele>40.8</ele>
        <time>2020-06-26T16:45:08Z</time>
      </trkpt>
      <trkpt lat="43.27888" lon="3.01777">
        <ele>40.8</ele>
        <time>2020-06-26T16:45:07Z</time>
      </trkpt>
      <trkpt lat="43.27893" lon="3.01779">
        <ele>40.8</ele>
        <time>2020-06-26T16:45:06Z</time>
      </trkpt>
      <trkpt lat="43.27898" lon="3.0178">
        <ele>40.8</ele>
        <time>2020-06-26T16:45:05Z</time>
      </trkpt>
      <trkpt lat="43.27903" lon="3.01782">
        <ele>40.8</ele>
        <time>2020-06-26T16:45:04Z</time>
      </trkpt>
      <trkpt lat="43.27909" lon="3.01785">
        <ele>40.8</ele>
        <time>2020-06-26T16:45:03Z</time>
      </trkpt>
      <trkpt lat="43.27914" lon="3.01787">
        <ele>40.8</ele>
        <time>2020-06-26T16:45:02Z</time>
      </trkpt>
      <trkpt lat="43.27919" lon="3.0179">
        <ele>41</ele>
        <time>2020-06-26T16:45:01Z</time>
      </trkpt>
      <trkpt lat="43.27925" lon="3.01792">
        <ele>41</ele>
        <time>2020-06-26T16:45:00Z</time>
      </trkpt>
      <trkpt lat="43.27929" lon="3.01794">
        <ele>41</ele>
        <time>2020-06-26T16:44:59Z</time>
      </trkpt>
      <trkpt lat="43.27933" lon="3.01797">
        <ele>41</ele>
        <time>2020-06-26T16:44:58Z</time>
      </trkpt>
      <trkpt lat="43.27938" lon="3.018">
        <ele>41</ele>
        <time>2020-06-26T16:44:57Z</time>
      </trkpt>
      <trkpt lat="43.27944" lon="3.01802">
        <ele>41</ele>
        <time>2020-06-26T16:44:56Z</time>
      </trkpt>
      <trkpt lat="43.27948" lon="3.01804">
        <ele>41</ele>
        <time>2020-06-26T16:44:55Z</time>
      </trkpt>
      <trkpt lat="43.27953" lon="3.01805">
        <ele>41</ele>
        <time>2020-06-26T16:44:54Z</time>
      </trkpt>
      <trkpt lat="43.27958" lon="3.01807">
        <ele>41.2</ele>
        <time>2020-06-26T16:44:53Z</time>
      </trkpt>
      <trkpt lat="43.27963" lon="3.01808">
        <ele>41</ele>
        <time>2020-06-26T16:44:52Z</time>
      </trkpt>
      <trkpt lat="43.27967" lon="3.01809">
        <ele>41</ele>
        <time>2020-06-26T16:44:51Z</time>
      </trkpt>
      <trkpt lat="43.27972" lon="3.01811">
        <ele>41</ele>
        <time>2020-06-26T16:44:50Z</time>
      </trkpt>
      <trkpt lat="43.27976" lon="3.01813">
        <ele>41</ele>
        <time>2020-06-26T16:44:49Z</time>
      </trkpt>
      <trkpt lat="43.27981" lon="3.01815">
        <ele>41</ele>
        <time>2020-06-26T16:44:48Z</time>
      </trkpt>
      <trkpt lat="43.27986" lon="3.01819">
        <ele>41</ele>
        <time>2020-06-26T16:44:47Z</time>
      </trkpt>
      <trkpt lat="43.27991" lon="3.01821">
        <ele>41</ele>
        <time>2020-06-26T16:44:46Z</time>
      </trkpt>
      <trkpt lat="43.27996" lon="3.01822">
        <ele>41</ele>
        <time>2020-06-26T16:44:45Z</time>
      </trkpt>
      <trkpt lat="43.28001" lon="3.01824">
        <ele>41</ele>
        <time>2020-06-26T16:44:44Z</time>
      </trkpt>
      <trkpt lat="43.28006" lon="3.01826">
        <ele>41</ele>
        <time>2020-06-26T16:44:43Z</time>
      </trkpt>
      <trkpt lat="43.28011" lon="3.01828">
        <ele>41</ele>
        <time>2020-06-26T16:44:42Z</time>
      </trkpt>
      <trkpt lat="43.28016" lon="3.01831">
        <ele>41</ele>
        <time>2020-06-26T16:44:41Z</time>
      </trkpt>
      <trkpt lat="43.28021" lon="3.01832">
        <ele>41</ele>
        <time>2020-06-26T16:44:40Z</time>
      </trkpt>
      <trkpt lat="43.28026" lon="3.01833">
        <ele>41</ele>
        <time>2020-06-26T16:44:39Z</time>
      </trkpt>
      <trkpt lat="43.28031" lon="3.01835">
        <ele>41</ele>
        <time>2020-06-26T16:44:38Z</time>
      </trkpt>
      <trkpt lat="43.28035" lon="3.01839">
        <ele>41</ele>
        <time>2020-06-26T16:44:37Z</time>
      </trkpt>
      <trkpt lat="43.2804" lon="3.01841">
        <ele>41</ele>
        <time>2020-06-26T16:44:36Z</time>
      </trkpt>
      <trkpt lat="43.28045" lon="3.01844">
        <ele>41</ele>
        <time>2020-06-26T16:44:35Z</time>
      </trkpt>
      <trkpt lat="43.28049" lon="3.01848">
        <ele>41</ele>
        <time>2020-06-26T16:44:34Z</time>
      </trkpt>
      <trkpt lat="43.28054" lon="3.01851">
        <ele>41</ele>
        <time>2020-06-26T16:44:33Z</time>
      </trkpt>
      <trkpt lat="43.2806" lon="3.01853">
        <ele>41.2</ele>
        <time>2020-06-26T16:44:32Z</time>
      </trkpt>
      <trkpt lat="43.28065" lon="3.01855">
        <ele>41.2</ele>
        <time>2020-06-26T16:44:31Z</time>
      </trkpt>
      <trkpt lat="43.28069" lon="3.01858">
        <ele>41.2</ele>
        <time>2020-06-26T16:44:30Z</time>
      </trkpt>
      <trkpt lat="43.28074" lon="3.01862">
        <ele>41.2</ele>
        <time>2020-06-26T16:44:29Z</time>
      </trkpt>
      <trkpt lat="43.28079" lon="3.01864">
        <ele>41.2</ele>
        <time>2020-06-26T16:44:28Z</time>
      </trkpt>
      <trkpt lat="43.28085" lon="3.01869">
        <ele>41.2</ele>
        <time>2020-06-26T16:44:27Z</time>
      </trkpt>
      <trkpt lat="43.28091" lon="3.0187">
        <ele>41.2</ele>
        <time>2020-06-26T16:44:26Z</time>
      </trkpt>
      <trkpt lat="43.28096" lon="3.01873">
        <ele>41.2</ele>
        <time>2020-06-26T16:44:25Z</time>
      </trkpt>
      <trkpt lat="43.281" lon="3.01875">
        <ele>41.2</ele>
        <time>2020-06-26T16:44:24Z</time>
      </trkpt>
      <trkpt lat="43.28105" lon="3.01877">
        <ele>41.2</ele>
        <time>2020-06-26T16:44:23Z</time>
      </trkpt>
      <trkpt lat="43.2811" lon="3.01879">
        <ele>41.2</ele>
        <time>2020-06-26T16:44:22Z</time>
      </trkpt>
      <trkpt lat="43.28115" lon="3.01882">
        <ele>41.2</ele>
        <time>2020-06-26T16:44:21Z</time>
      </trkpt>
      <trkpt lat="43.2812" lon="3.01885">
        <ele>41.2</ele>
        <time>2020-06-26T16:44:20Z</time>
      </trkpt>
      <trkpt lat="43.28127" lon="3.01888">
        <ele>41.2</ele>
        <time>2020-06-26T16:44:19Z</time>
      </trkpt>
      <trkpt lat="43.28132" lon="3.01891">
        <ele>41.2</ele>
        <time>2020-06-26T16:44:18Z</time>
      </trkpt>
      <trkpt lat="43.28138" lon="3.01894">
        <ele>41.2</ele>
        <time>2020-06-26T16:44:17Z</time>
      </trkpt>
      <trkpt lat="43.28142" lon="3.01895">
        <ele>41.4</ele>
        <time>2020-06-26T16:44:16Z</time>
      </trkpt>
      <trkpt lat="43.28147" lon="3.01897">
        <ele>41.4</ele>
        <time>2020-06-26T16:44:15Z</time>
      </trkpt>
      <trkpt lat="43.28152" lon="3.01897">
        <ele>41.4</ele>
        <time>2020-06-26T16:44:14Z</time>
      </trkpt>
      <trkpt lat="43.28157" lon="3.01898">
        <ele>41.6</ele>
        <time>2020-06-26T16:44:13Z</time>
      </trkpt>
      <trkpt lat="43.28162" lon="3.019">
        <ele>41.6</ele>
        <time>2020-06-26T16:44:12Z</time>
      </trkpt>
      <trkpt lat="43.28166" lon="3.01902">
        <ele>42</ele>
        <time>2020-06-26T16:44:11Z</time>
      </trkpt>
      <trkpt lat="43.2817" lon="3.01903">
        <ele>42</ele>
        <time>2020-06-26T16:44:10Z</time>
      </trkpt>
      <trkpt lat="43.28175" lon="3.01904">
        <ele>41.6</ele>
        <time>2020-06-26T16:44:09Z</time>
      </trkpt>
      <trkpt lat="43.2818" lon="3.01905">
        <ele>41.6</ele>
        <time>2020-06-26T16:44:08Z</time>
      </trkpt>
      <trkpt lat="43.28185" lon="3.01907">
        <ele>41.6</ele>
        <time>2020-06-26T16:44:07Z</time>
      </trkpt>
      <trkpt lat="43.28189" lon="3.01908">
        <ele>41.6</ele>
        <time>2020-06-26T16:44:06Z</time>
      </trkpt>
      <trkpt lat="43.28194" lon="3.0191">
        <ele>41.6</ele>
        <time>2020-06-26T16:44:05Z</time>
      </trkpt>
      <trkpt lat="43.28198" lon="3.01912">
        <ele>41.6</ele>
        <time>2020-06-26T16:44:04Z</time>
      </trkpt>
      <trkpt lat="43.28202" lon="3.01915">
        <ele>41.6</ele>
        <time>2020-06-26T16:44:03Z</time>
      </trkpt>
      <trkpt lat="43.28206" lon="3.01916">
        <ele>41.6</ele>
        <time>2020-06-26T16:44:02Z</time>
      </trkpt>
      <trkpt lat="43.28211" lon="3.01918">
        <ele>41.6</ele>
        <time>2020-06-26T16:44:01Z</time>
      </trkpt>
      <trkpt lat="43.28216" lon="3.01919">
        <ele>41.6</ele>
        <time>2020-06-26T16:44:00Z</time>
      </trkpt>
      <trkpt lat="43.2822" lon="3.01922">
        <ele>41.6</ele>
        <time>2020-06-26T16:43:59Z</time>
      </trkpt>
      <trkpt lat="43.28225" lon="3.01924">
        <ele>41.6</ele>
        <time>2020-06-26T16:43:58Z</time>
      </trkpt>
      <trkpt lat="43.28229" lon="3.01926">
        <ele>41.6</ele>
        <time>2020-06-26T16:43:57Z</time>
      </trkpt>
      <trkpt lat="43.28234" lon="3.01929">
        <ele>41.4</ele>
        <time>2020-06-26T16:43:56Z</time>
      </trkpt>
      <trkpt lat="43.28239" lon="3.01931">
        <ele>41.6</ele>
        <time>2020-06-26T16:43:55Z</time>
      </trkpt>
      <trkpt lat="43.28244" lon="3.01933">
        <ele>41.6</ele>
        <time>2020-06-26T16:43:54Z</time>
      </trkpt>
      <trkpt lat="43.28248" lon="3.01934">
        <ele>41.6</ele>
        <time>2020-06-26T16:43:53Z</time>
      </trkpt>
      <trkpt lat="43.28253" lon="3.01937">
        <ele>41.6</ele>
        <time>2020-06-26T16:43:52Z</time>
      </trkpt>
      <trkpt lat="43.28257" lon="3.01939">
        <ele>41.6</ele>
        <time>2020-06-26T16:43:51Z</time>
      </trkpt>
      <trkpt lat="43.28263" lon="3.01941">
        <ele>41.6</ele>
        <time>2020-06-26T16:43:50Z</time>
      </trkpt>
      <trkpt lat="43.28268" lon="3.01944">
        <ele>41.6</ele>
        <time>2020-06-26T16:43:49Z</time>
      </trkpt>
      <trkpt lat="43.28272" lon="3.01947">
        <ele>41.8</ele>
        <time>2020-06-26T16:43:48Z</time>
      </trkpt>
      <trkpt lat="43.28277" lon="3.01949">
        <ele>41.8</ele>
        <time>2020-06-26T16:43:47Z</time>
      </trkpt>
      <trkpt lat="43.28282" lon="3.0195">
        <ele>42</ele>
        <time>2020-06-26T16:43:46Z</time>
      </trkpt>
      <trkpt lat="43.28287" lon="3.01952">
        <ele>41.8</ele>
        <time>2020-06-26T16:43:45Z</time>
      </trkpt>
      <trkpt lat="43.28291" lon="3.01954">
        <ele>41.8</ele>
        <time>2020-06-26T16:43:44Z</time>
      </trkpt>
      <trkpt lat="43.28295" lon="3.01957">
        <ele>42</ele>
        <time>2020-06-26T16:43:43Z</time>
      </trkpt>
      <trkpt lat="43.283" lon="3.01958">
        <ele>42</ele>
        <time>2020-06-26T16:43:42Z</time>
      </trkpt>
      <trkpt lat="43.28305" lon="3.0196">
        <ele>42</ele>
        <time>2020-06-26T16:43:41Z</time>
      </trkpt>
      <trkpt lat="43.28308" lon="3.01962">
        <ele>42</ele>
        <time>2020-06-26T16:43:40Z</time>
      </trkpt>
      <trkpt lat="43.28311" lon="3.01963">
        <ele>42</ele>
        <time>2020-06-26T16:43:39Z</time>
      </trkpt>
      <trkpt lat="43.28314" lon="3.01966">
        <ele>42</ele>
        <time>2020-06-26T16:43:38Z</time>
      </trkpt>
      <trkpt lat="43.28316" lon="3.01967">
        <ele>42.2</ele>
        <time>2020-06-26T16:43:37Z</time>
      </trkpt>
      <trkpt lat="43.28317" lon="3.01969">
        <ele>42.2</ele>
        <time>2020-06-26T16:43:36Z</time>
      </trkpt>
      <trkpt lat="43.28319" lon="3.0197">
        <ele>42.2</ele>
        <time>2020-06-26T16:43:35Z</time>
      </trkpt>
      <trkpt lat="43.28321" lon="3.01973">
        <ele>42.2</ele>
        <time>2020-06-26T16:43:34Z</time>
      </trkpt>
      <trkpt lat="43.28319" lon="3.01966">
        <ele>43</ele>
        <time>2020-06-26T16:41:49Z</time>
      </trkpt>
      <trkpt lat="43.28319" lon="3.01966">
        <ele>43.6</ele>
        <time>2020-06-26T16:41:48Z</time>
      </trkpt>
      <trkpt lat="43.28317" lon="3.01964">
        <ele>43.2</ele>
        <time>2020-06-26T16:41:47Z</time>
      </trkpt>
      <trkpt lat="43.28318" lon="3.01965">
        <ele>41.6</ele>
        <time>2020-06-26T16:41:46Z</time>
      </trkpt>
      <trkpt lat="43.28318" lon="3.01965">
        <ele>42.8</ele>
        <time>2020-06-26T16:41:45Z</time>
      </trkpt>
      <trkpt lat="43.28318" lon="3.01966">
        <ele>42.6</ele>
        <time>2020-06-26T16:41:44Z</time>
      </trkpt>
      <trkpt lat="43.28318" lon="3.01966">
        <ele>42.6</ele>
        <time>2020-06-26T16:41:43Z</time>
      </trkpt>
      <trkpt lat="43.28318" lon="3.01967">
        <ele>42.8</ele>
        <time>2020-06-26T16:41:42Z</time>
      </trkpt>
      <trkpt lat="43.28317" lon="3.01967">
        <ele>42.8</ele>
        <time>2020-06-26T16:41:41Z</time>
      </trkpt>
      <trkpt lat="43.28318" lon="3.01968">
        <ele>43</ele>
        <time>2020-06-26T16:41:40Z</time>
      </trkpt>
      <trkpt lat="43.28318" lon="3.01968">
        <ele>43</ele>
        <time>2020-06-26T16:41:39Z</time>
      </trkpt>
      <trkpt lat="43.28318" lon="3.01968">
        <ele>42.8</ele>
        <time>2020-06-26T16:41:38Z</time>
      </trkpt>
      <trkpt lat="43.28317" lon="3.01968">
        <ele>42.6</ele>
        <time>2020-06-26T16:41:37Z</time>
      </trkpt>
      <trkpt lat="43.28317" lon="3.0197">
        <ele>42.4</ele>
        <time>2020-06-26T16:41:36Z</time>
      </trkpt>
      <trkpt lat="43.28318" lon="3.01972">
        <ele>42.4</ele>
        <time>2020-06-26T16:41:35Z</time>
      </trkpt>
      <trkpt lat="43.28318" lon="3.01974">
        <ele>42.4</ele>
        <time>2020-06-26T16:41:34Z</time>
      </trkpt>
      <trkpt lat="43.28318" lon="3.01976">
        <ele>42.2</ele>
        <time>2020-06-26T16:41:33Z</time>
      </trkpt>
      <trkpt lat="43.28319" lon="3.01979">
        <ele>42.2</ele>
        <time>2020-06-26T16:41:32Z</time>
      </trkpt>
      <trkpt lat="43.28322" lon="3.01983">
        <ele>42</ele>
        <time>2020-06-26T16:41:31Z</time>
      </trkpt>
      <trkpt lat="43.28325" lon="3.01986">
        <ele>42</ele>
        <time>2020-06-26T16:41:30Z</time>
      </trkpt>
      <trkpt lat="43.28326" lon="3.01988">
        <ele>42</ele>
        <time>2020-06-26T16:41:29Z</time>
      </trkpt>
      <trkpt lat="43.28327" lon="3.01991">
        <ele>42</ele>
        <time>2020-06-26T16:41:28Z</time>
      </trkpt>
      <trkpt lat="43.28327" lon="3.01996">
        <ele>42</ele>
        <time>2020-06-26T16:41:27Z</time>
      </trkpt>
      <trkpt lat="43.28328" lon="3.01997">
        <ele>42</ele>
        <time>2020-06-26T16:41:26Z</time>
      </trkpt>
      <trkpt lat="43.28331" lon="3.02001">
        <ele>42</ele>
        <time>2020-06-26T16:41:25Z</time>
      </trkpt>
      <trkpt lat="43.28332" lon="3.02006">
        <ele>42</ele>
        <time>2020-06-26T16:41:24Z</time>
      </trkpt>
      <trkpt lat="43.28335" lon="3.0201">
        <ele>41.8</ele>
        <time>2020-06-26T16:41:23Z</time>
      </trkpt>
      <trkpt lat="43.28337" lon="3.02014">
        <ele>41.8</ele>
        <time>2020-06-26T16:41:22Z</time>
      </trkpt>
      <trkpt lat="43.28338" lon="3.02019">
        <ele>41.8</ele>
        <time>2020-06-26T16:41:21Z</time>
      </trkpt>
      <trkpt lat="43.2834" lon="3.02025">
        <ele>41.8</ele>
        <time>2020-06-26T16:41:20Z</time>
      </trkpt>
      <trkpt lat="43.28343" lon="3.0203">
        <ele>41.8</ele>
        <time>2020-06-26T16:41:19Z</time>
      </trkpt>
      <trkpt lat="43.28345" lon="3.02036">
        <ele>41.6</ele>
        <time>2020-06-26T16:41:18Z</time>
      </trkpt>
      <trkpt lat="43.28347" lon="3.02043">
        <ele>41.6</ele>
        <time>2020-06-26T16:41:17Z</time>
      </trkpt>
      <trkpt lat="43.28349" lon="3.02047">
        <ele>41.8</ele>
        <time>2020-06-26T16:41:16Z</time>
      </trkpt>
      <trkpt lat="43.28351" lon="3.02052">
        <ele>41.8</ele>
        <time>2020-06-26T16:41:15Z</time>
      </trkpt>
      <trkpt lat="43.28352" lon="3.02058">
        <ele>41.8</ele>
        <time>2020-06-26T16:41:14Z</time>
      </trkpt>
      <trkpt lat="43.28354" lon="3.02064">
        <ele>41.8</ele>
        <time>2020-06-26T16:41:13Z</time>
      </trkpt>
      <trkpt lat="43.28355" lon="3.02069">
        <ele>41.8</ele>
        <time>2020-06-26T16:41:12Z</time>
      </trkpt>
      <trkpt lat="43.28356" lon="3.02075">
        <ele>41.8</ele>
        <time>2020-06-26T16:41:11Z</time>
      </trkpt>
      <trkpt lat="43.28357" lon="3.02081">
        <ele>41.8</ele>
        <time>2020-06-26T16:41:10Z</time>
      </trkpt>
      <trkpt lat="43.28359" lon="3.02084">
        <ele>41.8</ele>
        <time>2020-06-26T16:41:09Z</time>
      </trkpt>
      <trkpt lat="43.2836" lon="3.02089">
        <ele>41.8</ele>
        <time>2020-06-26T16:41:08Z</time>
      </trkpt>
      <trkpt lat="43.28361" lon="3.02095">
        <ele>41.8</ele>
        <time>2020-06-26T16:41:07Z</time>
      </trkpt>
      <trkpt lat="43.28361" lon="3.02101">
        <ele>41.8</ele>
        <time>2020-06-26T16:41:06Z</time>
      </trkpt>
      <trkpt lat="43.2836" lon="3.02107">
        <ele>41.8</ele>
        <time>2020-06-26T16:41:05Z</time>
      </trkpt>
      <trkpt lat="43.28362" lon="3.02112">
        <ele>42</ele>
        <time>2020-06-26T16:41:04Z</time>
      </trkpt>
      <trkpt lat="43.28363" lon="3.02116">
        <ele>42</ele>
        <time>2020-06-26T16:41:03Z</time>
      </trkpt>
      <trkpt lat="43.28363" lon="3.0212">
        <ele>41.8</ele>
        <time>2020-06-26T16:41:02Z</time>
      </trkpt>
      <trkpt lat="43.28364" lon="3.02125">
        <ele>41.8</ele>
        <time>2020-06-26T16:41:01Z</time>
      </trkpt>
      <trkpt lat="43.28367" lon="3.0213">
        <ele>41.8</ele>
        <time>2020-06-26T16:41:00Z</time>
      </trkpt>
      <trkpt lat="43.28367" lon="3.02135">
        <ele>41.8</ele>
        <time>2020-06-26T16:40:59Z</time>
      </trkpt>
      <trkpt lat="43.28369" lon="3.02142">
        <ele>41.6</ele>
        <time>2020-06-26T16:40:58Z</time>
      </trkpt>
      <trkpt lat="43.2837" lon="3.02147">
        <ele>41.8</ele>
        <time>2020-06-26T16:40:57Z</time>
      </trkpt>
      <trkpt lat="43.28372" lon="3.02151">
        <ele>41.6</ele>
        <time>2020-06-26T16:40:56Z</time>
      </trkpt>
      <trkpt lat="43.28375" lon="3.02159">
        <ele>41.6</ele>
        <time>2020-06-26T16:40:55Z</time>
      </trkpt>
      <trkpt lat="43.28376" lon="3.02164">
        <ele>41.6</ele>
        <time>2020-06-26T16:40:54Z</time>
      </trkpt>
      <trkpt lat="43.28381" lon="3.02168">
        <ele>41.6</ele>
        <time>2020-06-26T16:40:53Z</time>
      </trkpt>
      <trkpt lat="43.28381" lon="3.02173">
        <ele>41.6</ele>
        <time>2020-06-26T16:40:52Z</time>
      </trkpt>
      <trkpt lat="43.28383" lon="3.02176">
        <ele>41.4</ele>
        <time>2020-06-26T16:40:51Z</time>
      </trkpt>
      <trkpt lat="43.28385" lon="3.02181">
        <ele>41.4</ele>
        <time>2020-06-26T16:40:50Z</time>
      </trkpt>
      <trkpt lat="43.28386" lon="3.02186">
        <ele>41.4</ele>
        <time>2020-06-26T16:40:49Z</time>
      </trkpt>
      <trkpt lat="43.28389" lon="3.02192">
        <ele>41.4</ele>
        <time>2020-06-26T16:40:48Z</time>
      </trkpt>
      <trkpt lat="43.28391" lon="3.02198">
        <ele>41.4</ele>
        <time>2020-06-26T16:40:47Z</time>
      </trkpt>
      <trkpt lat="43.28393" lon="3.02202">
        <ele>41.6</ele>
        <time>2020-06-26T16:40:46Z</time>
      </trkpt>
      <trkpt lat="43.28396" lon="3.02211">
        <ele>41.4</ele>
        <time>2020-06-26T16:40:45Z</time>
      </trkpt>
      <trkpt lat="43.28397" lon="3.02214">
        <ele>41.4</ele>
        <time>2020-06-26T16:40:44Z</time>
      </trkpt>
      <trkpt lat="43.28399" lon="3.02221">
        <ele>41.4</ele>
        <time>2020-06-26T16:40:43Z</time>
      </trkpt>
      <trkpt lat="43.28402" lon="3.02226">
        <ele>41.4</ele>
        <time>2020-06-26T16:40:42Z</time>
      </trkpt>
      <trkpt lat="43.28403" lon="3.02232">
        <ele>41.2</ele>
        <time>2020-06-26T16:40:41Z</time>
      </trkpt>
      <trkpt lat="43.28405" lon="3.02239">
        <ele>41.4</ele>
        <time>2020-06-26T16:40:40Z</time>
      </trkpt>
      <trkpt lat="43.28408" lon="3.02246">
        <ele>41.4</ele>
        <time>2020-06-26T16:40:39Z</time>
      </trkpt>
      <trkpt lat="43.2841" lon="3.02251">
        <ele>41.4</ele>
        <time>2020-06-26T16:40:38Z</time>
      </trkpt>
      <trkpt lat="43.28411" lon="3.02255">
        <ele>41.4</ele>
        <time>2020-06-26T16:40:37Z</time>
      </trkpt>
      <trkpt lat="43.2841" lon="3.0226">
        <ele>41.4</ele>
        <time>2020-06-26T16:40:36Z</time>
      </trkpt>
      <trkpt lat="43.28412" lon="3.02265">
        <ele>41.4</ele>
        <time>2020-06-26T16:40:35Z</time>
      </trkpt>
      <trkpt lat="43.28413" lon="3.02272">
        <ele>41.4</ele>
        <time>2020-06-26T16:40:34Z</time>
      </trkpt>
      <trkpt lat="43.28416" lon="3.02278">
        <ele>41.6</ele>
        <time>2020-06-26T16:40:33Z</time>
      </trkpt>
      <trkpt lat="43.28418" lon="3.02282">
        <ele>41.6</ele>
        <time>2020-06-26T16:40:32Z</time>
      </trkpt>
      <trkpt lat="43.2842" lon="3.02286">
        <ele>41.6</ele>
        <time>2020-06-26T16:40:31Z</time>
      </trkpt>
      <trkpt lat="43.28421" lon="3.02293">
        <ele>41.6</ele>
        <time>2020-06-26T16:40:30Z</time>
      </trkpt>
      <trkpt lat="43.28424" lon="3.023">
        <ele>41.6</ele>
        <time>2020-06-26T16:40:29Z</time>
      </trkpt>
      <trkpt lat="43.28429" lon="3.02306">
        <ele>41.6</ele>
        <time>2020-06-26T16:40:28Z</time>
      </trkpt>
      <trkpt lat="43.2843" lon="3.02311">
        <ele>41.6</ele>
        <time>2020-06-26T16:40:27Z</time>
      </trkpt>
      <trkpt lat="43.28432" lon="3.02316">
        <ele>41.6</ele>
        <time>2020-06-26T16:40:26Z</time>
      </trkpt>
      <trkpt lat="43.28434" lon="3.02321">
        <ele>41.6</ele>
        <time>2020-06-26T16:40:25Z</time>
      </trkpt>
      <trkpt lat="43.28435" lon="3.02327">
        <ele>41.6</ele>
        <time>2020-06-26T16:40:24Z</time>
      </trkpt>
      <trkpt lat="43.28438" lon="3.02334">
        <ele>41.6</ele>
        <time>2020-06-26T16:40:23Z</time>
      </trkpt>
      <trkpt lat="43.28439" lon="3.02338">
        <ele>41.6</ele>
        <time>2020-06-26T16:40:22Z</time>
      </trkpt>
      <trkpt lat="43.28441" lon="3.02342">
        <ele>41.6</ele>
        <time>2020-06-26T16:40:21Z</time>
      </trkpt>
      <trkpt lat="43.28443" lon="3.02348">
        <ele>41.6</ele>
        <time>2020-06-26T16:40:20Z</time>
      </trkpt>
      <trkpt lat="43.28444" lon="3.02354">
        <ele>41.6</ele>
        <time>2020-06-26T16:40:19Z</time>
      </trkpt>
      <trkpt lat="43.28446" lon="3.0236">
        <ele>41.6</ele>
        <time>2020-06-26T16:40:18Z</time>
      </trkpt>
      <trkpt lat="43.28448" lon="3.02367">
        <ele>41.6</ele>
        <time>2020-06-26T16:40:17Z</time>
      </trkpt>
      <trkpt lat="43.28449" lon="3.02372">
        <ele>41.6</ele>
        <time>2020-06-26T16:40:16Z</time>
      </trkpt>
      <trkpt lat="43.2845" lon="3.02379">
        <ele>41.6</ele>
        <time>2020-06-26T16:40:15Z</time>
      </trkpt>
      <trkpt lat="43.28451" lon="3.02384">
        <ele>41.6</ele>
        <time>2020-06-26T16:40:14Z</time>
      </trkpt>
      <trkpt lat="43.28452" lon="3.0239">
        <ele>41.6</ele>
        <time>2020-06-26T16:40:13Z</time>
      </trkpt>
      <trkpt lat="43.28453" lon="3.02396">
        <ele>41.6</ele>
        <time>2020-06-26T16:40:12Z</time>
      </trkpt>
      <trkpt lat="43.28455" lon="3.02402">
        <ele>41.6</ele>
        <time>2020-06-26T16:40:11Z</time>
      </trkpt>
      <trkpt lat="43.28456" lon="3.02407">
        <ele>41.8</ele>
        <time>2020-06-26T16:40:10Z</time>
      </trkpt>
      <trkpt lat="43.28457" lon="3.02412">
        <ele>41.8</ele>
        <time>2020-06-26T16:40:09Z</time>
      </trkpt>
      <trkpt lat="43.28459" lon="3.02413">
        <ele>41.8</ele>
        <time>2020-06-26T16:40:08Z</time>
      </trkpt>
      <trkpt lat="43.28462" lon="3.02419">
        <ele>41.6</ele>
        <time>2020-06-26T16:40:07Z</time>
      </trkpt>
      <trkpt lat="43.28462" lon="3.02426">
        <ele>41.6</ele>
        <time>2020-06-26T16:40:06Z</time>
      </trkpt>
      <trkpt lat="43.28464" lon="3.02431">
        <ele>41.8</ele>
        <time>2020-06-26T16:40:05Z</time>
      </trkpt>
      <trkpt lat="43.28466" lon="3.02435">
        <ele>42</ele>
        <time>2020-06-26T16:40:04Z</time>
      </trkpt>
      <trkpt lat="43.28468" lon="3.0244">
        <ele>42</ele>
        <time>2020-06-26T16:40:03Z</time>
      </trkpt>
      <trkpt lat="43.28469" lon="3.02445">
        <ele>42</ele>
        <time>2020-06-26T16:40:02Z</time>
      </trkpt>
      <trkpt lat="43.28471" lon="3.02449">
        <ele>41.8</ele>
        <time>2020-06-26T16:40:01Z</time>
      </trkpt>
      <trkpt lat="43.28473" lon="3.02454">
        <ele>41.8</ele>
        <time>2020-06-26T16:40:00Z</time>
      </trkpt>
      <trkpt lat="43.28474" lon="3.02459">
        <ele>42</ele>
        <time>2020-06-26T16:39:59Z</time>
      </trkpt>
      <trkpt lat="43.28475" lon="3.02465">
        <ele>42.2</ele>
        <time>2020-06-26T16:39:58Z</time>
      </trkpt>
      <trkpt lat="43.28477" lon="3.0247">
        <ele>42.2</ele>
        <time>2020-06-26T16:39:57Z</time>
      </trkpt>
      <trkpt lat="43.28478" lon="3.02476">
        <ele>42.2</ele>
        <time>2020-06-26T16:39:56Z</time>
      </trkpt>
      <trkpt lat="43.28478" lon="3.02482">
        <ele>42.2</ele>
        <time>2020-06-26T16:39:55Z</time>
      </trkpt>
      <trkpt lat="43.28479" lon="3.02488">
        <ele>42</ele>
        <time>2020-06-26T16:39:54Z</time>
      </trkpt>
      <trkpt lat="43.2848" lon="3.02492">
        <ele>41.8</ele>
        <time>2020-06-26T16:39:53Z</time>
      </trkpt>
      <trkpt lat="43.28482" lon="3.02497">
        <ele>41.8</ele>
        <time>2020-06-26T16:39:52Z</time>
      </trkpt>
      <trkpt lat="43.28482" lon="3.02501">
        <ele>41.6</ele>
        <time>2020-06-26T16:39:51Z</time>
      </trkpt>
      <trkpt lat="43.28485" lon="3.02506">
        <ele>41.6</ele>
        <time>2020-06-26T16:39:50Z</time>
      </trkpt>
      <trkpt lat="43.28486" lon="3.02512">
        <ele>41.6</ele>
        <time>2020-06-26T16:39:49Z</time>
      </trkpt>
      <trkpt lat="43.28488" lon="3.02517">
        <ele>41.6</ele>
        <time>2020-06-26T16:39:48Z</time>
      </trkpt>
      <trkpt lat="43.28491" lon="3.02523">
        <ele>41.6</ele>
        <time>2020-06-26T16:39:47Z</time>
      </trkpt>
      <trkpt lat="43.28491" lon="3.02529">
        <ele>41.6</ele>
        <time>2020-06-26T16:39:46Z</time>
      </trkpt>
      <trkpt lat="43.28493" lon="3.02535">
        <ele>41.6</ele>
        <time>2020-06-26T16:39:45Z</time>
      </trkpt>
      <trkpt lat="43.28494" lon="3.02539">
        <ele>41.4</ele>
        <time>2020-06-26T16:39:44Z</time>
      </trkpt>
      <trkpt lat="43.28497" lon="3.02544">
        <ele>41.4</ele>
        <time>2020-06-26T16:39:43Z</time>
      </trkpt>
      <trkpt lat="43.28499" lon="3.02548">
        <ele>41.4</ele>
        <time>2020-06-26T16:39:42Z</time>
      </trkpt>
      <trkpt lat="43.285" lon="3.02552">
        <ele>41.4</ele>
        <time>2020-06-26T16:39:41Z</time>
      </trkpt>
      <trkpt lat="43.28503" lon="3.02556">
        <ele>41.2</ele>
        <time>2020-06-26T16:39:40Z</time>
      </trkpt>
      <trkpt lat="43.28504" lon="3.02562">
        <ele>41.2</ele>
        <time>2020-06-26T16:39:39Z</time>
      </trkpt>
      <trkpt lat="43.28506" lon="3.02568">
        <ele>41.2</ele>
        <time>2020-06-26T16:39:38Z</time>
      </trkpt>
      <trkpt lat="43.28508" lon="3.02573">
        <ele>41.2</ele>
        <time>2020-06-26T16:39:37Z</time>
      </trkpt>
      <trkpt lat="43.2851" lon="3.02576">
        <ele>41.2</ele>
        <time>2020-06-26T16:39:36Z</time>
      </trkpt>
      <trkpt lat="43.28511" lon="3.02579">
        <ele>41.2</ele>
        <time>2020-06-26T16:39:35Z</time>
      </trkpt>
      <trkpt lat="43.28513" lon="3.02585">
        <ele>41.2</ele>
        <time>2020-06-26T16:39:34Z</time>
      </trkpt>
      <trkpt lat="43.28515" lon="3.0259">
        <ele>41.2</ele>
        <time>2020-06-26T16:39:33Z</time>
      </trkpt>
      <trkpt lat="43.28516" lon="3.02596">
        <ele>41.2</ele>
        <time>2020-06-26T16:39:32Z</time>
      </trkpt>
      <trkpt lat="43.28517" lon="3.02601">
        <ele>41.2</ele>
        <time>2020-06-26T16:39:31Z</time>
      </trkpt>
      <trkpt lat="43.28519" lon="3.02606">
        <ele>41.2</ele>
        <time>2020-06-26T16:39:30Z</time>
      </trkpt>
      <trkpt lat="43.28518" lon="3.02612">
        <ele>41.2</ele>
        <time>2020-06-26T16:39:29Z</time>
      </trkpt>
      <trkpt lat="43.2852" lon="3.02618">
        <ele>41.2</ele>
        <time>2020-06-26T16:39:28Z</time>
      </trkpt>
      <trkpt lat="43.28522" lon="3.02622">
        <ele>41.2</ele>
        <time>2020-06-26T16:39:27Z</time>
      </trkpt>
      <trkpt lat="43.28523" lon="3.02624">
        <ele>41.4</ele>
        <time>2020-06-26T16:39:26Z</time>
      </trkpt>
      <trkpt lat="43.28525" lon="3.02628">
        <ele>41.4</ele>
        <time>2020-06-26T16:39:25Z</time>
      </trkpt>
      <trkpt lat="43.28526" lon="3.02632">
        <ele>41.2</ele>
        <time>2020-06-26T16:39:24Z</time>
      </trkpt>
      <trkpt lat="43.28529" lon="3.02636">
        <ele>41.2</ele>
        <time>2020-06-26T16:39:23Z</time>
      </trkpt>
      <trkpt lat="43.28531" lon="3.0264">
        <ele>41.2</ele>
        <time>2020-06-26T16:39:22Z</time>
      </trkpt>
      <trkpt lat="43.28532" lon="3.02647">
        <ele>41.2</ele>
        <time>2020-06-26T16:39:21Z</time>
      </trkpt>
      <trkpt lat="43.28535" lon="3.02652">
        <ele>41.4</ele>
        <time>2020-06-26T16:39:20Z</time>
      </trkpt>
      <trkpt lat="43.28536" lon="3.02658">
        <ele>41.4</ele>
        <time>2020-06-26T16:39:19Z</time>
      </trkpt>
      <trkpt lat="43.28537" lon="3.02664">
        <ele>41.4</ele>
        <time>2020-06-26T16:39:18Z</time>
      </trkpt>
      <trkpt lat="43.28537" lon="3.0267">
        <ele>41.2</ele>
        <time>2020-06-26T16:39:17Z</time>
      </trkpt>
      <trkpt lat="43.28538" lon="3.02676">
        <ele>41.4</ele>
        <time>2020-06-26T16:39:16Z</time>
      </trkpt>
      <trkpt lat="43.28538" lon="3.02682">
        <ele>41.4</ele>
        <time>2020-06-26T16:39:15Z</time>
      </trkpt>
      <trkpt lat="43.28542" lon="3.02688">
        <ele>41.4</ele>
        <time>2020-06-26T16:39:14Z</time>
      </trkpt>
      <trkpt lat="43.28543" lon="3.02694">
        <ele>41.4</ele>
        <time>2020-06-26T16:39:13Z</time>
      </trkpt>
      <trkpt lat="43.28546" lon="3.027">
        <ele>41.4</ele>
        <time>2020-06-26T16:39:12Z</time>
      </trkpt>
      <trkpt lat="43.28548" lon="3.02707">
        <ele>41.4</ele>
        <time>2020-06-26T16:39:11Z</time>
      </trkpt>
      <trkpt lat="43.2855" lon="3.02712">
        <ele>41.2</ele>
        <time>2020-06-26T16:39:10Z</time>
      </trkpt>
      <trkpt lat="43.28552" lon="3.02717">
        <ele>41.2</ele>
        <time>2020-06-26T16:39:09Z</time>
      </trkpt>
      <trkpt lat="43.28553" lon="3.02723">
        <ele>41.2</ele>
        <time>2020-06-26T16:39:08Z</time>
      </trkpt>
      <trkpt lat="43.28555" lon="3.02728">
        <ele>41.2</ele>
        <time>2020-06-26T16:39:07Z</time>
      </trkpt>
      <trkpt lat="43.28556" lon="3.02733">
        <ele>41.2</ele>
        <time>2020-06-26T16:39:06Z</time>
      </trkpt>
      <trkpt lat="43.28557" lon="3.02739">
        <ele>41</ele>
        <time>2020-06-26T16:39:05Z</time>
      </trkpt>
      <trkpt lat="43.28559" lon="3.02745">
        <ele>41</ele>
        <time>2020-06-26T16:39:04Z</time>
      </trkpt>
      <trkpt lat="43.2856" lon="3.0275">
        <ele>41.2</ele>
        <time>2020-06-26T16:39:03Z</time>
      </trkpt>
      <trkpt lat="43.28561" lon="3.02755">
        <ele>41.2</ele>
        <time>2020-06-26T16:39:02Z</time>
      </trkpt>
      <trkpt lat="43.28563" lon="3.0276">
        <ele>41.2</ele>
        <time>2020-06-26T16:39:01Z</time>
      </trkpt>
      <trkpt lat="43.28565" lon="3.02765">
        <ele>41.2</ele>
        <time>2020-06-26T16:39:00Z</time>
      </trkpt>
      <trkpt lat="43.28567" lon="3.0277">
        <ele>41.2</ele>
        <time>2020-06-26T16:38:59Z</time>
      </trkpt>
      <trkpt lat="43.28569" lon="3.02775">
        <ele>41.2</ele>
        <time>2020-06-26T16:38:58Z</time>
      </trkpt>
      <trkpt lat="43.2857" lon="3.02781">
        <ele>41.2</ele>
        <time>2020-06-26T16:38:57Z</time>
      </trkpt>
      <trkpt lat="43.28572" lon="3.02788">
        <ele>41.4</ele>
        <time>2020-06-26T16:38:56Z</time>
      </trkpt>
      <trkpt lat="43.28574" lon="3.02793">
        <ele>41.4</ele>
        <time>2020-06-26T16:38:55Z</time>
      </trkpt>
      <trkpt lat="43.28576" lon="3.028">
        <ele>41.4</ele>
        <time>2020-06-26T16:38:54Z</time>
      </trkpt>
      <trkpt lat="43.28577" lon="3.02805">
        <ele>41.4</ele>
        <time>2020-06-26T16:38:53Z</time>
      </trkpt>
      <trkpt lat="43.28578" lon="3.02811">
        <ele>41.4</ele>
        <time>2020-06-26T16:38:52Z</time>
      </trkpt>
      <trkpt lat="43.2858" lon="3.02817">
        <ele>41.6</ele>
        <time>2020-06-26T16:38:51Z</time>
      </trkpt>
      <trkpt lat="43.28581" lon="3.02822">
        <ele>41.6</ele>
        <time>2020-06-26T16:38:50Z</time>
      </trkpt>
      <trkpt lat="43.28583" lon="3.02827">
        <ele>41.6</ele>
        <time>2020-06-26T16:38:49Z</time>
      </trkpt>
      <trkpt lat="43.28583" lon="3.02832">
        <ele>41.6</ele>
        <time>2020-06-26T16:38:48Z</time>
      </trkpt>
      <trkpt lat="43.28585" lon="3.02837">
        <ele>41.6</ele>
        <time>2020-06-26T16:38:47Z</time>
      </trkpt>
      <trkpt lat="43.28588" lon="3.02844">
        <ele>41.6</ele>
        <time>2020-06-26T16:38:46Z</time>
      </trkpt>
      <trkpt lat="43.28589" lon="3.0285">
        <ele>41.6</ele>
        <time>2020-06-26T16:38:45Z</time>
      </trkpt>
      <trkpt lat="43.28592" lon="3.02854">
        <ele>41.8</ele>
        <time>2020-06-26T16:38:44Z</time>
      </trkpt>
      <trkpt lat="43.28594" lon="3.02859">
        <ele>41.8</ele>
        <time>2020-06-26T16:38:43Z</time>
      </trkpt>
      <trkpt lat="43.28596" lon="3.02864">
        <ele>41.6</ele>
        <time>2020-06-26T16:38:42Z</time>
      </trkpt>
      <trkpt lat="43.28599" lon="3.0287">
        <ele>41.6</ele>
        <time>2020-06-26T16:38:41Z</time>
      </trkpt>
      <trkpt lat="43.28601" lon="3.02876">
        <ele>41.6</ele>
        <time>2020-06-26T16:38:40Z</time>
      </trkpt>
      <trkpt lat="43.28602" lon="3.0288">
        <ele>41.6</ele>
        <time>2020-06-26T16:38:39Z</time>
      </trkpt>
      <trkpt lat="43.28604" lon="3.02885">
        <ele>41.6</ele>
        <time>2020-06-26T16:38:38Z</time>
      </trkpt>
      <trkpt lat="43.28605" lon="3.0289">
        <ele>41.8</ele>
        <time>2020-06-26T16:38:37Z</time>
      </trkpt>
      <trkpt lat="43.28607" lon="3.02896">
        <ele>41.6</ele>
        <time>2020-06-26T16:38:36Z</time>
      </trkpt>
      <trkpt lat="43.28608" lon="3.02902">
        <ele>41.6</ele>
        <time>2020-06-26T16:38:35Z</time>
      </trkpt>
      <trkpt lat="43.28609" lon="3.02906">
        <ele>41.6</ele>
        <time>2020-06-26T16:38:34Z</time>
      </trkpt>
      <trkpt lat="43.28611" lon="3.02911">
        <ele>41.6</ele>
        <time>2020-06-26T16:38:33Z</time>
      </trkpt>
      <trkpt lat="43.28613" lon="3.02918">
        <ele>41.6</ele>
        <time>2020-06-26T16:38:32Z</time>
      </trkpt>
      <trkpt lat="43.28614" lon="3.02923">
        <ele>41.4</ele>
        <time>2020-06-26T16:38:31Z</time>
      </trkpt>
      <trkpt lat="43.28615" lon="3.02927">
        <ele>41.2</ele>
        <time>2020-06-26T16:38:30Z</time>
      </trkpt>
      <trkpt lat="43.28617" lon="3.02932">
        <ele>41.2</ele>
        <time>2020-06-26T16:38:29Z</time>
      </trkpt>
      <trkpt lat="43.28619" lon="3.02936">
        <ele>41.2</ele>
        <time>2020-06-26T16:38:28Z</time>
      </trkpt>
      <trkpt lat="43.28621" lon="3.02942">
        <ele>41.2</ele>
        <time>2020-06-26T16:38:27Z</time>
      </trkpt>
      <trkpt lat="43.28622" lon="3.02947">
        <ele>41.2</ele>
        <time>2020-06-26T16:38:26Z</time>
      </trkpt>
      <trkpt lat="43.28624" lon="3.02954">
        <ele>41</ele>
        <time>2020-06-26T16:38:25Z</time>
      </trkpt>
      <trkpt lat="43.28625" lon="3.02957">
        <ele>41</ele>
        <time>2020-06-26T16:38:24Z</time>
      </trkpt>
      <trkpt lat="43.28628" lon="3.02963">
        <ele>40.6</ele>
        <time>2020-06-26T16:38:23Z</time>
      </trkpt>
      <trkpt lat="43.2863" lon="3.02968">
        <ele>40.6</ele>
        <time>2020-06-26T16:38:22Z</time>
      </trkpt>
      <trkpt lat="43.28633" lon="3.02975">
        <ele>40.6</ele>
        <time>2020-06-26T16:38:21Z</time>
      </trkpt>
      <trkpt lat="43.28635" lon="3.02981">
        <ele>40.8</ele>
        <time>2020-06-26T16:38:20Z</time>
      </trkpt>
      <trkpt lat="43.28637" lon="3.02985">
        <ele>40.8</ele>
        <time>2020-06-26T16:38:19Z</time>
      </trkpt>
      <trkpt lat="43.28638" lon="3.02989">
        <ele>40.8</ele>
        <time>2020-06-26T16:38:18Z</time>
      </trkpt>
      <trkpt lat="43.2864" lon="3.02992">
        <ele>40.8</ele>
        <time>2020-06-26T16:38:17Z</time>
      </trkpt>
      <trkpt lat="43.28642" lon="3.02996">
        <ele>40.8</ele>
        <time>2020-06-26T16:38:16Z</time>
      </trkpt>
      <trkpt lat="43.28645" lon="3.03">
        <ele>40.6</ele>
        <time>2020-06-26T16:38:15Z</time>
      </trkpt>
      <trkpt lat="43.28648" lon="3.03004">
        <ele>40.6</ele>
        <time>2020-06-26T16:38:14Z</time>
      </trkpt>
      <trkpt lat="43.28651" lon="3.03008">
        <ele>40.4</ele>
        <time>2020-06-26T16:38:13Z</time>
      </trkpt>
      <trkpt lat="43.28654" lon="3.03013">
        <ele>40.4</ele>
        <time>2020-06-26T16:38:12Z</time>
      </trkpt>
      <trkpt lat="43.28656" lon="3.03017">
        <ele>40.6</ele>
        <time>2020-06-26T16:38:11Z</time>
      </trkpt>
      <trkpt lat="43.28659" lon="3.03023">
        <ele>40.6</ele>
        <time>2020-06-26T16:38:10Z</time>
      </trkpt>
      <trkpt lat="43.2866" lon="3.03028">
        <ele>40.6</ele>
        <time>2020-06-26T16:38:09Z</time>
      </trkpt>
      <trkpt lat="43.28663" lon="3.03032">
        <ele>40.6</ele>
        <time>2020-06-26T16:38:08Z</time>
      </trkpt>
      <trkpt lat="43.28665" lon="3.03036">
        <ele>40.6</ele>
        <time>2020-06-26T16:38:07Z</time>
      </trkpt>
      <trkpt lat="43.28667" lon="3.03041">
        <ele>40.8</ele>
        <time>2020-06-26T16:38:06Z</time>
      </trkpt>
      <trkpt lat="43.28669" lon="3.03047">
        <ele>40.8</ele>
        <time>2020-06-26T16:38:05Z</time>
      </trkpt>
      <trkpt lat="43.28671" lon="3.03051">
        <ele>41</ele>
        <time>2020-06-26T16:38:04Z</time>
      </trkpt>
      <trkpt lat="43.28674" lon="3.03057">
        <ele>41</ele>
        <time>2020-06-26T16:38:03Z</time>
      </trkpt>
      <trkpt lat="43.28675" lon="3.03061">
        <ele>41</ele>
        <time>2020-06-26T16:38:02Z</time>
      </trkpt>
      <trkpt lat="43.28675" lon="3.03065">
        <ele>41</ele>
        <time>2020-06-26T16:38:01Z</time>
      </trkpt>
      <trkpt lat="43.28677" lon="3.0307">
        <ele>41</ele>
        <time>2020-06-26T16:38:00Z</time>
      </trkpt>
      <trkpt lat="43.28679" lon="3.03074">
        <ele>41</ele>
        <time>2020-06-26T16:37:59Z</time>
      </trkpt>
      <trkpt lat="43.28681" lon="3.03079">
        <ele>41</ele>
        <time>2020-06-26T16:37:58Z</time>
      </trkpt>
      <trkpt lat="43.28684" lon="3.03086">
        <ele>41.2</ele>
        <time>2020-06-26T16:37:57Z</time>
      </trkpt>
      <trkpt lat="43.28687" lon="3.03091">
        <ele>41.4</ele>
        <time>2020-06-26T16:37:56Z</time>
      </trkpt>
      <trkpt lat="43.28688" lon="3.03095">
        <ele>41.2</ele>
        <time>2020-06-26T16:37:55Z</time>
      </trkpt>
      <trkpt lat="43.28689" lon="3.03098">
        <ele>41.2</ele>
        <time>2020-06-26T16:37:54Z</time>
      </trkpt>
      <trkpt lat="43.2869" lon="3.03102">
        <ele>41</ele>
        <time>2020-06-26T16:37:53Z</time>
      </trkpt>
      <trkpt lat="43.28693" lon="3.03108">
        <ele>41</ele>
        <time>2020-06-26T16:37:52Z</time>
      </trkpt>
      <trkpt lat="43.28694" lon="3.03111">
        <ele>41</ele>
        <time>2020-06-26T16:37:51Z</time>
      </trkpt>
      <trkpt lat="43.28696" lon="3.03117">
        <ele>41</ele>
        <time>2020-06-26T16:37:50Z</time>
      </trkpt>
      <trkpt lat="43.28699" lon="3.03125">
        <ele>41</ele>
        <time>2020-06-26T16:37:49Z</time>
      </trkpt>
      <trkpt lat="43.28702" lon="3.0313">
        <ele>40.8</ele>
        <time>2020-06-26T16:37:48Z</time>
      </trkpt>
      <trkpt lat="43.28705" lon="3.03133">
        <ele>40.8</ele>
        <time>2020-06-26T16:37:47Z</time>
      </trkpt>
      <trkpt lat="43.28706" lon="3.03136">
        <ele>40.8</ele>
        <time>2020-06-26T16:37:46Z</time>
      </trkpt>
      <trkpt lat="43.28707" lon="3.0314">
        <ele>40.8</ele>
        <time>2020-06-26T16:37:45Z</time>
      </trkpt>
      <trkpt lat="43.28707" lon="3.03144">
        <ele>40.6</ele>
        <time>2020-06-26T16:37:44Z</time>
      </trkpt>
      <trkpt lat="43.28708" lon="3.03151">
        <ele>40.6</ele>
        <time>2020-06-26T16:37:43Z</time>
      </trkpt>
      <trkpt lat="43.28708" lon="3.03156">
        <ele>40.6</ele>
        <time>2020-06-26T16:37:42Z</time>
      </trkpt>
      <trkpt lat="43.28708" lon="3.03159">
        <ele>40.4</ele>
        <time>2020-06-26T16:37:41Z</time>
      </trkpt>
      <trkpt lat="43.28706" lon="3.03163">
        <ele>40.4</ele>
        <time>2020-06-26T16:37:40Z</time>
      </trkpt>
      <trkpt lat="43.28704" lon="3.03168">
        <ele>40.4</ele>
        <time>2020-06-26T16:37:39Z</time>
      </trkpt>
      <trkpt lat="43.28702" lon="3.03174">
        <ele>40.2</ele>
        <time>2020-06-26T16:37:38Z</time>
      </trkpt>
      <trkpt lat="43.28702" lon="3.03179">
        <ele>40.2</ele>
        <time>2020-06-26T16:37:37Z</time>
      </trkpt>
      <trkpt lat="43.28702" lon="3.03185">
        <ele>40.4</ele>
        <time>2020-06-26T16:37:36Z</time>
      </trkpt>
      <trkpt lat="43.28701" lon="3.03189">
        <ele>40.4</ele>
        <time>2020-06-26T16:37:35Z</time>
      </trkpt>
      <trkpt lat="43.28701" lon="3.03195">
        <ele>40.4</ele>
        <time>2020-06-26T16:37:34Z</time>
      </trkpt>
      <trkpt lat="43.28701" lon="3.032">
        <ele>40.2</ele>
        <time>2020-06-26T16:37:33Z</time>
      </trkpt>
      <trkpt lat="43.28702" lon="3.03207">
        <ele>40.2</ele>
        <time>2020-06-26T16:37:32Z</time>
      </trkpt>
      <trkpt lat="43.28702" lon="3.03211">
        <ele>40.2</ele>
        <time>2020-06-26T16:37:31Z</time>
      </trkpt>
      <trkpt lat="43.28702" lon="3.03215">
        <ele>40.2</ele>
        <time>2020-06-26T16:37:30Z</time>
      </trkpt>
      <trkpt lat="43.28702" lon="3.03222">
        <ele>40.4</ele>
        <time>2020-06-26T16:37:29Z</time>
      </trkpt>
      <trkpt lat="43.28702" lon="3.03228">
        <ele>40.4</ele>
        <time>2020-06-26T16:37:28Z</time>
      </trkpt>
      <trkpt lat="43.287" lon="3.03233">
        <ele>40.4</ele>
        <time>2020-06-26T16:37:27Z</time>
      </trkpt>
      <trkpt lat="43.28701" lon="3.03238">
        <ele>40.6</ele>
        <time>2020-06-26T16:37:26Z</time>
      </trkpt>
      <trkpt lat="43.28701" lon="3.03244">
        <ele>40.4</ele>
        <time>2020-06-26T16:37:25Z</time>
      </trkpt>
      <trkpt lat="43.28703" lon="3.03248">
        <ele>40.4</ele>
        <time>2020-06-26T16:37:24Z</time>
      </trkpt>
      <trkpt lat="43.28705" lon="3.03252">
        <ele>40.6</ele>
        <time>2020-06-26T16:37:23Z</time>
      </trkpt>
      <trkpt lat="43.28704" lon="3.03259">
        <ele>40.4</ele>
        <time>2020-06-26T16:37:22Z</time>
      </trkpt>
      <trkpt lat="43.28704" lon="3.03267">
        <ele>40.4</ele>
        <time>2020-06-26T16:37:21Z</time>
      </trkpt>
      <trkpt lat="43.28704" lon="3.03267">
        <ele>40.4</ele>
        <time>2020-06-26T16:37:20Z</time>
      </trkpt>
      <trkpt lat="43.28704" lon="3.03272">
        <ele>40.4</ele>
        <time>2020-06-26T16:37:19Z</time>
      </trkpt>
      <trkpt lat="43.28704" lon="3.03276">
        <ele>40.4</ele>
        <time>2020-06-26T16:37:18Z</time>
      </trkpt>
      <trkpt lat="43.28704" lon="3.0328">
        <ele>40.4</ele>
        <time>2020-06-26T16:37:17Z</time>
      </trkpt>
      <trkpt lat="43.28704" lon="3.03284">
        <ele>40.4</ele>
        <time>2020-06-26T16:37:16Z</time>
      </trkpt>
      <trkpt lat="43.28705" lon="3.03289">
        <ele>40.2</ele>
        <time>2020-06-26T16:37:15Z</time>
      </trkpt>
      <trkpt lat="43.28705" lon="3.03294">
        <ele>40.2</ele>
        <time>2020-06-26T16:37:14Z</time>
      </trkpt>
      <trkpt lat="43.28705" lon="3.03298">
        <ele>40.2</ele>
        <time>2020-06-26T16:37:13Z</time>
      </trkpt>
      <trkpt lat="43.28704" lon="3.03301">
        <ele>40.2</ele>
        <time>2020-06-26T16:37:12Z</time>
      </trkpt>
      <trkpt lat="43.28704" lon="3.03305">
        <ele>40.2</ele>
        <time>2020-06-26T16:37:11Z</time>
      </trkpt>
      <trkpt lat="43.28705" lon="3.03311">
        <ele>40</ele>
        <time>2020-06-26T16:37:10Z</time>
      </trkpt>
      <trkpt lat="43.28705" lon="3.03315">
        <ele>40</ele>
        <time>2020-06-26T16:37:09Z</time>
      </trkpt>
      <trkpt lat="43.28704" lon="3.03319">
        <ele>40</ele>
        <time>2020-06-26T16:37:08Z</time>
      </trkpt>
      <trkpt lat="43.28704" lon="3.03324">
        <ele>40</ele>
        <time>2020-06-26T16:37:07Z</time>
      </trkpt>
      <trkpt lat="43.28705" lon="3.03331">
        <ele>40</ele>
        <time>2020-06-26T16:37:06Z</time>
      </trkpt>
      <trkpt lat="43.28705" lon="3.03338">
        <ele>40</ele>
        <time>2020-06-26T16:37:05Z</time>
      </trkpt>
      <trkpt lat="43.28704" lon="3.03343">
        <ele>40</ele>
        <time>2020-06-26T16:37:04Z</time>
      </trkpt>
      <trkpt lat="43.28705" lon="3.03349">
        <ele>40</ele>
        <time>2020-06-26T16:37:03Z</time>
      </trkpt>
      <trkpt lat="43.28706" lon="3.03354">
        <ele>40</ele>
        <time>2020-06-26T16:37:02Z</time>
      </trkpt>
      <trkpt lat="43.28707" lon="3.0336">
        <ele>40</ele>
        <time>2020-06-26T16:37:01Z</time>
      </trkpt>
      <trkpt lat="43.28707" lon="3.03366">
        <ele>40.2</ele>
        <time>2020-06-26T16:37:00Z</time>
      </trkpt>
      <trkpt lat="43.28708" lon="3.03373">
        <ele>40.2</ele>
        <time>2020-06-26T16:36:59Z</time>
      </trkpt>
      <trkpt lat="43.28708" lon="3.03379">
        <ele>40.2</ele>
        <time>2020-06-26T16:36:58Z</time>
      </trkpt>
      <trkpt lat="43.28707" lon="3.03384">
        <ele>40</ele>
        <time>2020-06-26T16:36:57Z</time>
      </trkpt>
      <trkpt lat="43.28706" lon="3.03389">
        <ele>40</ele>
        <time>2020-06-26T16:36:56Z</time>
      </trkpt>
      <trkpt lat="43.28706" lon="3.03393">
        <ele>40</ele>
        <time>2020-06-26T16:36:55Z</time>
      </trkpt>
      <trkpt lat="43.28708" lon="3.03398">
        <ele>40</ele>
        <time>2020-06-26T16:36:54Z</time>
      </trkpt>
      <trkpt lat="43.28708" lon="3.03401">
        <ele>40</ele>
        <time>2020-06-26T16:36:53Z</time>
      </trkpt>
      <trkpt lat="43.28707" lon="3.03405">
        <ele>39.8</ele>
        <time>2020-06-26T16:36:52Z</time>
      </trkpt>
      <trkpt lat="43.28706" lon="3.0341">
        <ele>40</ele>
        <time>2020-06-26T16:36:51Z</time>
      </trkpt>
      <trkpt lat="43.28706" lon="3.03415">
        <ele>39.8</ele>
        <time>2020-06-26T16:36:50Z</time>
      </trkpt>
      <trkpt lat="43.28705" lon="3.03421">
        <ele>40</ele>
        <time>2020-06-26T16:36:49Z</time>
      </trkpt>
      <trkpt lat="43.28705" lon="3.03426">
        <ele>40</ele>
        <time>2020-06-26T16:36:48Z</time>
      </trkpt>
      <trkpt lat="43.28705" lon="3.03431">
        <ele>39.8</ele>
        <time>2020-06-26T16:36:47Z</time>
      </trkpt>
      <trkpt lat="43.28705" lon="3.03437">
        <ele>39.8</ele>
        <time>2020-06-26T16:36:46Z</time>
      </trkpt>
      <trkpt lat="43.28706" lon="3.03442">
        <ele>39.8</ele>
        <time>2020-06-26T16:36:45Z</time>
      </trkpt>
      <trkpt lat="43.28707" lon="3.03447">
        <ele>39.8</ele>
        <time>2020-06-26T16:36:44Z</time>
      </trkpt>
      <trkpt lat="43.28709" lon="3.03451">
        <ele>39.8</ele>
        <time>2020-06-26T16:36:43Z</time>
      </trkpt>
      <trkpt lat="43.28708" lon="3.03459">
        <ele>39.8</ele>
        <time>2020-06-26T16:36:42Z</time>
      </trkpt>
      <trkpt lat="43.28709" lon="3.03463">
        <ele>39.8</ele>
        <time>2020-06-26T16:36:41Z</time>
      </trkpt>
      <trkpt lat="43.28708" lon="3.03467">
        <ele>39.8</ele>
        <time>2020-06-26T16:36:40Z</time>
      </trkpt>
      <trkpt lat="43.28709" lon="3.03472">
        <ele>39.8</ele>
        <time>2020-06-26T16:36:39Z</time>
      </trkpt>
      <trkpt lat="43.28708" lon="3.03478">
        <ele>39.8</ele>
        <time>2020-06-26T16:36:38Z</time>
      </trkpt>
      <trkpt lat="43.28708" lon="3.03483">
        <ele>39.8</ele>
        <time>2020-06-26T16:36:37Z</time>
      </trkpt>
      <trkpt lat="43.28707" lon="3.03486">
        <ele>39.8</ele>
        <time>2020-06-26T16:36:36Z</time>
      </trkpt>
      <trkpt lat="43.28708" lon="3.03494">
        <ele>39.8</ele>
        <time>2020-06-26T16:36:35Z</time>
      </trkpt>
      <trkpt lat="43.28708" lon="3.03498">
        <ele>39.8</ele>
        <time>2020-06-26T16:36:34Z</time>
      </trkpt>
      <trkpt lat="43.28707" lon="3.03502">
        <ele>39.8</ele>
        <time>2020-06-26T16:36:33Z</time>
      </trkpt>
      <trkpt lat="43.28708" lon="3.03507">
        <ele>39.6</ele>
        <time>2020-06-26T16:36:32Z</time>
      </trkpt>
      <trkpt lat="43.28709" lon="3.03512">
        <ele>39.6</ele>
        <time>2020-06-26T16:36:31Z</time>
      </trkpt>
      <trkpt lat="43.28709" lon="3.03518">
        <ele>39.6</ele>
        <time>2020-06-26T16:36:30Z</time>
      </trkpt>
      <trkpt lat="43.2871" lon="3.03522">
        <ele>39.6</ele>
        <time>2020-06-26T16:36:29Z</time>
      </trkpt>
      <trkpt lat="43.2871" lon="3.03525">
        <ele>39.6</ele>
        <time>2020-06-26T16:36:28Z</time>
      </trkpt>
      <trkpt lat="43.2871" lon="3.0353">
        <ele>39.6</ele>
        <time>2020-06-26T16:36:27Z</time>
      </trkpt>
      <trkpt lat="43.28709" lon="3.03534">
        <ele>39.6</ele>
        <time>2020-06-26T16:36:26Z</time>
      </trkpt>
      <trkpt lat="43.28709" lon="3.03538">
        <ele>39.4</ele>
        <time>2020-06-26T16:36:25Z</time>
      </trkpt>
      <trkpt lat="43.28708" lon="3.03543">
        <ele>39.4</ele>
        <time>2020-06-26T16:36:24Z</time>
      </trkpt>
      <trkpt lat="43.28707" lon="3.03548">
        <ele>39.4</ele>
        <time>2020-06-26T16:36:23Z</time>
      </trkpt>
      <trkpt lat="43.28708" lon="3.03553">
        <ele>39.2</ele>
        <time>2020-06-26T16:36:22Z</time>
      </trkpt>
      <trkpt lat="43.28708" lon="3.03559">
        <ele>39.2</ele>
        <time>2020-06-26T16:36:21Z</time>
      </trkpt>
      <trkpt lat="43.28708" lon="3.03564">
        <ele>39.2</ele>
        <time>2020-06-26T16:36:20Z</time>
      </trkpt>
      <trkpt lat="43.28709" lon="3.03572">
        <ele>39.2</ele>
        <time>2020-06-26T16:36:19Z</time>
      </trkpt>
      <trkpt lat="43.28709" lon="3.03578">
        <ele>39</ele>
        <time>2020-06-26T16:36:18Z</time>
      </trkpt>
      <trkpt lat="43.2871" lon="3.03583">
        <ele>39</ele>
        <time>2020-06-26T16:36:17Z</time>
      </trkpt>
      <trkpt lat="43.28711" lon="3.03586">
        <ele>38.8</ele>
        <time>2020-06-26T16:36:16Z</time>
      </trkpt>
      <trkpt lat="43.28712" lon="3.03591">
        <ele>38.8</ele>
        <time>2020-06-26T16:36:15Z</time>
      </trkpt>
      <trkpt lat="43.28713" lon="3.03596">
        <ele>38.8</ele>
        <time>2020-06-26T16:36:14Z</time>
      </trkpt>
      <trkpt lat="43.28714" lon="3.036">
        <ele>38.8</ele>
        <time>2020-06-26T16:36:13Z</time>
      </trkpt>
      <trkpt lat="43.28714" lon="3.03604">
        <ele>38.8</ele>
        <time>2020-06-26T16:36:12Z</time>
      </trkpt>
      <trkpt lat="43.28714" lon="3.03608">
        <ele>38.6</ele>
        <time>2020-06-26T16:36:11Z</time>
      </trkpt>
      <trkpt lat="43.28713" lon="3.03614">
        <ele>38.6</ele>
        <time>2020-06-26T16:36:10Z</time>
      </trkpt>
      <trkpt lat="43.28714" lon="3.03618">
        <ele>38.6</ele>
        <time>2020-06-26T16:36:09Z</time>
      </trkpt>
      <trkpt lat="43.28715" lon="3.03623">
        <ele>38.6</ele>
        <time>2020-06-26T16:36:08Z</time>
      </trkpt>
      <trkpt lat="43.28716" lon="3.03628">
        <ele>38.6</ele>
        <time>2020-06-26T16:36:07Z</time>
      </trkpt>
      <trkpt lat="43.28717" lon="3.03633">
        <ele>38.6</ele>
        <time>2020-06-26T16:36:06Z</time>
      </trkpt>
      <trkpt lat="43.28717" lon="3.03637">
        <ele>38.6</ele>
        <time>2020-06-26T16:36:05Z</time>
      </trkpt>
      <trkpt lat="43.28717" lon="3.03642">
        <ele>38.6</ele>
        <time>2020-06-26T16:36:04Z</time>
      </trkpt>
      <trkpt lat="43.28718" lon="3.03647">
        <ele>38.6</ele>
        <time>2020-06-26T16:36:03Z</time>
      </trkpt>
      <trkpt lat="43.28719" lon="3.03656">
        <ele>38.6</ele>
        <time>2020-06-26T16:36:02Z</time>
      </trkpt>
      <trkpt lat="43.28719" lon="3.03656">
        <ele>38.6</ele>
        <time>2020-06-26T16:36:01Z</time>
      </trkpt>
      <trkpt lat="43.28719" lon="3.03662">
        <ele>38.4</ele>
        <time>2020-06-26T16:36:00Z</time>
      </trkpt>
      <trkpt lat="43.2872" lon="3.03667">
        <ele>38.6</ele>
        <time>2020-06-26T16:35:59Z</time>
      </trkpt>
      <trkpt lat="43.2872" lon="3.03672">
        <ele>38.6</ele>
        <time>2020-06-26T16:35:58Z</time>
      </trkpt>
      <trkpt lat="43.28719" lon="3.03678">
        <ele>38.6</ele>
        <time>2020-06-26T16:35:57Z</time>
      </trkpt>
      <trkpt lat="43.2872" lon="3.03683">
        <ele>38.4</ele>
        <time>2020-06-26T16:35:56Z</time>
      </trkpt>
      <trkpt lat="43.2872" lon="3.03689">
        <ele>38.4</ele>
        <time>2020-06-26T16:35:55Z</time>
      </trkpt>
      <trkpt lat="43.2872" lon="3.03693">
        <ele>38.4</ele>
        <time>2020-06-26T16:35:54Z</time>
      </trkpt>
      <trkpt lat="43.2872" lon="3.03697">
        <ele>38.4</ele>
        <time>2020-06-26T16:35:53Z</time>
      </trkpt>
      <trkpt lat="43.2872" lon="3.03703">
        <ele>38.4</ele>
        <time>2020-06-26T16:35:52Z</time>
      </trkpt>
      <trkpt lat="43.28721" lon="3.03706">
        <ele>38.4</ele>
        <time>2020-06-26T16:35:51Z</time>
      </trkpt>
      <trkpt lat="43.28722" lon="3.0371">
        <ele>38.4</ele>
        <time>2020-06-26T16:35:50Z</time>
      </trkpt>
      <trkpt lat="43.28721" lon="3.03714">
        <ele>38.4</ele>
        <time>2020-06-26T16:35:49Z</time>
      </trkpt>
      <trkpt lat="43.28722" lon="3.03718">
        <ele>38.6</ele>
        <time>2020-06-26T16:35:48Z</time>
      </trkpt>
      <trkpt lat="43.28722" lon="3.03721">
        <ele>38.6</ele>
        <time>2020-06-26T16:35:47Z</time>
      </trkpt>
      <trkpt lat="43.28722" lon="3.03723">
        <ele>38.6</ele>
        <time>2020-06-26T16:35:46Z</time>
      </trkpt>
      <trkpt lat="43.28722" lon="3.03725">
        <ele>38.4</ele>
        <time>2020-06-26T16:35:45Z</time>
      </trkpt>
      <trkpt lat="43.28722" lon="3.03727">
        <ele>38.4</ele>
        <time>2020-06-26T16:35:44Z</time>
      </trkpt>
      <trkpt lat="43.2872" lon="3.03731">
        <ele>38.4</ele>
        <time>2020-06-26T16:35:36Z</time>
      </trkpt>
      <trkpt lat="43.28721" lon="3.0373">
        <ele>38.6</ele>
        <time>2020-06-26T16:35:35Z</time>
      </trkpt>
      <trkpt lat="43.2872" lon="3.03731">
        <ele>38.4</ele>
        <time>2020-06-26T16:35:34Z</time>
      </trkpt>
      <trkpt lat="43.28719" lon="3.03731">
        <ele>38.4</ele>
        <time>2020-06-26T16:35:33Z</time>
      </trkpt>
      <trkpt lat="43.28719" lon="3.03731">
        <ele>38.6</ele>
        <time>2020-06-26T16:35:32Z</time>
      </trkpt>
      <trkpt lat="43.28719" lon="3.0373">
        <ele>38.4</ele>
        <time>2020-06-26T16:35:31Z</time>
      </trkpt>
      <trkpt lat="43.28719" lon="3.03731">
        <ele>38.4</ele>
        <time>2020-06-26T16:35:30Z</time>
      </trkpt>
      <trkpt lat="43.28719" lon="3.03729">
        <ele>38.4</ele>
        <time>2020-06-26T16:35:29Z</time>
      </trkpt>
      <trkpt lat="43.28719" lon="3.03729">
        <ele>38.4</ele>
        <time>2020-06-26T16:35:28Z</time>
      </trkpt>
      <trkpt lat="43.28719" lon="3.03729">
        <ele>38.4</ele>
        <time>2020-06-26T16:35:27Z</time>
      </trkpt>
      <trkpt lat="43.28719" lon="3.03731">
        <ele>38.4</ele>
        <time>2020-06-26T16:35:26Z</time>
      </trkpt>
      <trkpt lat="43.28719" lon="3.03731">
        <ele>38.4</ele>
        <time>2020-06-26T16:35:25Z</time>
      </trkpt>
      <trkpt lat="43.28719" lon="3.03733">
        <ele>38.4</ele>
        <time>2020-06-26T16:35:24Z</time>
      </trkpt>
      <trkpt lat="43.28718" lon="3.03732">
        <ele>38.4</ele>
        <time>2020-06-26T16:35:23Z</time>
      </trkpt>
      <trkpt lat="43.28719" lon="3.03734">
        <ele>38.4</ele>
        <time>2020-06-26T16:35:22Z</time>
      </trkpt>
      <trkpt lat="43.28717" lon="3.03733">
        <ele>38.4</ele>
        <time>2020-06-26T16:35:21Z</time>
      </trkpt>
      <trkpt lat="43.28717" lon="3.03733">
        <ele>38.4</ele>
        <time>2020-06-26T16:35:20Z</time>
      </trkpt>
      <trkpt lat="43.28717" lon="3.03734">
        <ele>38.4</ele>
        <time>2020-06-26T16:35:19Z</time>
      </trkpt>
      <trkpt lat="43.28718" lon="3.03736">
        <ele>38.4</ele>
        <time>2020-06-26T16:35:18Z</time>
      </trkpt>
      <trkpt lat="43.28719" lon="3.03738">
        <ele>38.4</ele>
        <time>2020-06-26T16:35:17Z</time>
      </trkpt>
      <trkpt lat="43.28719" lon="3.03738">
        <ele>38.4</ele>
        <time>2020-06-26T16:35:16Z</time>
      </trkpt>
      <trkpt lat="43.28719" lon="3.03739">
        <ele>38.4</ele>
        <time>2020-06-26T16:35:15Z</time>
      </trkpt>
      <trkpt lat="43.2872" lon="3.03739">
        <ele>38.4</ele>
        <time>2020-06-26T16:35:14Z</time>
      </trkpt>
      <trkpt lat="43.28722" lon="3.03739">
        <ele>38.4</ele>
        <time>2020-06-26T16:35:13Z</time>
      </trkpt>
      <trkpt lat="43.28723" lon="3.03739">
        <ele>38.4</ele>
        <time>2020-06-26T16:35:12Z</time>
      </trkpt>
      <trkpt lat="43.28724" lon="3.03742">
        <ele>38.4</ele>
        <time>2020-06-26T16:35:11Z</time>
      </trkpt>
      <trkpt lat="43.28726" lon="3.03743">
        <ele>38.4</ele>
        <time>2020-06-26T16:35:10Z</time>
      </trkpt>
      <trkpt lat="43.28728" lon="3.03744">
        <ele>38.2</ele>
        <time>2020-06-26T16:35:09Z</time>
      </trkpt>
      <trkpt lat="43.28731" lon="3.03745">
        <ele>38</ele>
        <time>2020-06-26T16:35:08Z</time>
      </trkpt>
      <trkpt lat="43.28734" lon="3.03745">
        <ele>38</ele>
        <time>2020-06-26T16:35:07Z</time>
      </trkpt>
      <trkpt lat="43.28737" lon="3.03746">
        <ele>38</ele>
        <time>2020-06-26T16:35:06Z</time>
      </trkpt>
      <trkpt lat="43.2874" lon="3.03746">
        <ele>38.2</ele>
        <time>2020-06-26T16:35:05Z</time>
      </trkpt>
      <trkpt lat="43.28743" lon="3.03747">
        <ele>38</ele>
        <time>2020-06-26T16:35:04Z</time>
      </trkpt>
      <trkpt lat="43.28747" lon="3.03748">
        <ele>38</ele>
        <time>2020-06-26T16:35:03Z</time>
      </trkpt>
      <trkpt lat="43.2875" lon="3.0375">
        <ele>38.4</ele>
        <time>2020-06-26T16:35:02Z</time>
      </trkpt>
      <trkpt lat="43.28756" lon="3.0375">
        <ele>38.4</ele>
        <time>2020-06-26T16:35:01Z</time>
      </trkpt>
      <trkpt lat="43.2876" lon="3.03752">
        <ele>38.4</ele>
        <time>2020-06-26T16:35:00Z</time>
      </trkpt>
      <trkpt lat="43.28765" lon="3.03754">
        <ele>38.4</ele>
        <time>2020-06-26T16:34:59Z</time>
      </trkpt>
      <trkpt lat="43.2877" lon="3.03755">
        <ele>38.4</ele>
        <time>2020-06-26T16:34:58Z</time>
      </trkpt>
      <trkpt lat="43.28775" lon="3.03757">
        <ele>38.4</ele>
        <time>2020-06-26T16:34:57Z</time>
      </trkpt>
      <trkpt lat="43.2878" lon="3.03757">
        <ele>38.4</ele>
        <time>2020-06-26T16:34:56Z</time>
      </trkpt>
      <trkpt lat="43.28784" lon="3.03755">
        <ele>38.2</ele>
        <time>2020-06-26T16:34:55Z</time>
      </trkpt>
      <trkpt lat="43.28789" lon="3.03756">
        <ele>38.2</ele>
        <time>2020-06-26T16:34:54Z</time>
      </trkpt>
      <trkpt lat="43.28793" lon="3.03757">
        <ele>38.2</ele>
        <time>2020-06-26T16:34:53Z</time>
      </trkpt>
      <trkpt lat="43.28797" lon="3.03758">
        <ele>38.2</ele>
        <time>2020-06-26T16:34:52Z</time>
      </trkpt>
      <trkpt lat="43.28802" lon="3.03757">
        <ele>38</ele>
        <time>2020-06-26T16:34:51Z</time>
      </trkpt>
      <trkpt lat="43.28807" lon="3.03758">
        <ele>38.2</ele>
        <time>2020-06-26T16:34:50Z</time>
      </trkpt>
      <trkpt lat="43.28812" lon="3.03758">
        <ele>38.2</ele>
        <time>2020-06-26T16:34:49Z</time>
      </trkpt>
      <trkpt lat="43.28816" lon="3.03759">
        <ele>38.2</ele>
        <time>2020-06-26T16:34:48Z</time>
      </trkpt>
      <trkpt lat="43.28822" lon="3.03758">
        <ele>38.2</ele>
        <time>2020-06-26T16:34:47Z</time>
      </trkpt>
      <trkpt lat="43.28827" lon="3.03759">
        <ele>38.2</ele>
        <time>2020-06-26T16:34:46Z</time>
      </trkpt>
      <trkpt lat="43.28832" lon="3.03762">
        <ele>38.2</ele>
        <time>2020-06-26T16:34:45Z</time>
      </trkpt>
      <trkpt lat="43.28836" lon="3.03762">
        <ele>38.2</ele>
        <time>2020-06-26T16:34:44Z</time>
      </trkpt>
      <trkpt lat="43.2884" lon="3.03764">
        <ele>38.4</ele>
        <time>2020-06-26T16:34:43Z</time>
      </trkpt>
      <trkpt lat="43.28844" lon="3.03765">
        <ele>38.2</ele>
        <time>2020-06-26T16:34:42Z</time>
      </trkpt>
      <trkpt lat="43.28848" lon="3.03765">
        <ele>38.4</ele>
        <time>2020-06-26T16:34:41Z</time>
      </trkpt>
      <trkpt lat="43.28852" lon="3.03765">
        <ele>38.4</ele>
        <time>2020-06-26T16:34:40Z</time>
      </trkpt>
      <trkpt lat="43.28857" lon="3.03766">
        <ele>38.6</ele>
        <time>2020-06-26T16:34:39Z</time>
      </trkpt>
      <trkpt lat="43.28861" lon="3.03765">
        <ele>38.4</ele>
        <time>2020-06-26T16:34:38Z</time>
      </trkpt>
      <trkpt lat="43.28866" lon="3.03765">
        <ele>38.4</ele>
        <time>2020-06-26T16:34:37Z</time>
      </trkpt>
      <trkpt lat="43.28869" lon="3.03766">
        <ele>38.4</ele>
        <time>2020-06-26T16:34:36Z</time>
      </trkpt>
      <trkpt lat="43.28873" lon="3.03768">
        <ele>38.2</ele>
        <time>2020-06-26T16:34:35Z</time>
      </trkpt>
      <trkpt lat="43.28877" lon="3.0377">
        <ele>38.2</ele>
        <time>2020-06-26T16:34:34Z</time>
      </trkpt>
      <trkpt lat="43.28881" lon="3.0377">
        <ele>38.4</ele>
        <time>2020-06-26T16:34:33Z</time>
      </trkpt>
      <trkpt lat="43.28885" lon="3.0377">
        <ele>38.4</ele>
        <time>2020-06-26T16:34:32Z</time>
      </trkpt>
      <trkpt lat="43.28889" lon="3.03773">
        <ele>38.2</ele>
        <time>2020-06-26T16:34:31Z</time>
      </trkpt>
      <trkpt lat="43.28893" lon="3.03773">
        <ele>38.4</ele>
        <time>2020-06-26T16:34:30Z</time>
      </trkpt>
      <trkpt lat="43.28897" lon="3.03773">
        <ele>38.6</ele>
        <time>2020-06-26T16:34:29Z</time>
      </trkpt>
      <trkpt lat="43.28901" lon="3.03773">
        <ele>38.4</ele>
        <time>2020-06-26T16:34:28Z</time>
      </trkpt>
      <trkpt lat="43.28905" lon="3.03774">
        <ele>38.4</ele>
        <time>2020-06-26T16:34:27Z</time>
      </trkpt>
      <trkpt lat="43.28908" lon="3.03775">
        <ele>38.4</ele>
        <time>2020-06-26T16:34:26Z</time>
      </trkpt>
      <trkpt lat="43.28911" lon="3.03777">
        <ele>38.4</ele>
        <time>2020-06-26T16:34:25Z</time>
      </trkpt>
      <trkpt lat="43.28916" lon="3.03779">
        <ele>38.4</ele>
        <time>2020-06-26T16:34:24Z</time>
      </trkpt>
      <trkpt lat="43.2892" lon="3.0378">
        <ele>38.6</ele>
        <time>2020-06-26T16:34:23Z</time>
      </trkpt>
      <trkpt lat="43.28924" lon="3.0378">
        <ele>38.6</ele>
        <time>2020-06-26T16:34:22Z</time>
      </trkpt>
      <trkpt lat="43.28929" lon="3.03778">
        <ele>38.6</ele>
        <time>2020-06-26T16:34:21Z</time>
      </trkpt>
      <trkpt lat="43.28934" lon="3.03779">
        <ele>38.8</ele>
        <time>2020-06-26T16:34:20Z</time>
      </trkpt>
      <trkpt lat="43.28938" lon="3.0378">
        <ele>39.2</ele>
        <time>2020-06-26T16:34:19Z</time>
      </trkpt>
      <trkpt lat="43.28942" lon="3.0378">
        <ele>39.2</ele>
        <time>2020-06-26T16:34:18Z</time>
      </trkpt>
      <trkpt lat="43.28946" lon="3.0378">
        <ele>38.6</ele>
        <time>2020-06-26T16:34:17Z</time>
      </trkpt>
      <trkpt lat="43.2895" lon="3.03781">
        <ele>38.4</ele>
        <time>2020-06-26T16:34:16Z</time>
      </trkpt>
      <trkpt lat="43.28954" lon="3.03781">
        <ele>38.2</ele>
        <time>2020-06-26T16:34:15Z</time>
      </trkpt>
      <trkpt lat="43.28959" lon="3.03782">
        <ele>38.4</ele>
        <time>2020-06-26T16:34:14Z</time>
      </trkpt>
      <trkpt lat="43.28963" lon="3.03783">
        <ele>38.2</ele>
        <time>2020-06-26T16:34:13Z</time>
      </trkpt>
      <trkpt lat="43.28969" lon="3.03785">
        <ele>38.4</ele>
        <time>2020-06-26T16:34:12Z</time>
      </trkpt>
      <trkpt lat="43.28973" lon="3.03787">
        <ele>38.2</ele>
        <time>2020-06-26T16:34:11Z</time>
      </trkpt>
      <trkpt lat="43.28977" lon="3.03788">
        <ele>38.2</ele>
        <time>2020-06-26T16:34:10Z</time>
      </trkpt>
      <trkpt lat="43.28982" lon="3.03788">
        <ele>38.4</ele>
        <time>2020-06-26T16:34:09Z</time>
      </trkpt>
      <trkpt lat="43.28987" lon="3.03788">
        <ele>38.6</ele>
        <time>2020-06-26T16:34:08Z</time>
      </trkpt>
      <trkpt lat="43.28992" lon="3.03789">
        <ele>38.6</ele>
        <time>2020-06-26T16:34:07Z</time>
      </trkpt>
      <trkpt lat="43.28998" lon="3.0379">
        <ele>38.4</ele>
        <time>2020-06-26T16:34:06Z</time>
      </trkpt>
      <trkpt lat="43.29003" lon="3.03791">
        <ele>38.6</ele>
        <time>2020-06-26T16:34:05Z</time>
      </trkpt>
      <trkpt lat="43.29007" lon="3.03791">
        <ele>38.6</ele>
        <time>2020-06-26T16:34:04Z</time>
      </trkpt>
      <trkpt lat="43.29013" lon="3.0379">
        <ele>38.6</ele>
        <time>2020-06-26T16:34:03Z</time>
      </trkpt>
      <trkpt lat="43.29019" lon="3.03791">
        <ele>38.6</ele>
        <time>2020-06-26T16:34:02Z</time>
      </trkpt>
      <trkpt lat="43.29024" lon="3.03791">
        <ele>38.6</ele>
        <time>2020-06-26T16:34:01Z</time>
      </trkpt>
      <trkpt lat="43.2903" lon="3.03791">
        <ele>38.8</ele>
        <time>2020-06-26T16:34:00Z</time>
      </trkpt>
      <trkpt lat="43.29035" lon="3.03792">
        <ele>38.8</ele>
        <time>2020-06-26T16:33:59Z</time>
      </trkpt>
      <trkpt lat="43.2904" lon="3.03794">
        <ele>38.8</ele>
        <time>2020-06-26T16:33:58Z</time>
      </trkpt>
      <trkpt lat="43.29046" lon="3.03793">
        <ele>38.8</ele>
        <time>2020-06-26T16:33:57Z</time>
      </trkpt>
      <trkpt lat="43.29051" lon="3.03793">
        <ele>38.8</ele>
        <time>2020-06-26T16:33:56Z</time>
      </trkpt>
      <trkpt lat="43.29056" lon="3.03792">
        <ele>38.8</ele>
        <time>2020-06-26T16:33:55Z</time>
      </trkpt>
      <trkpt lat="43.29062" lon="3.03793">
        <ele>38.8</ele>
        <time>2020-06-26T16:33:54Z</time>
      </trkpt>
      <trkpt lat="43.29066" lon="3.03795">
        <ele>39</ele>
        <time>2020-06-26T16:33:53Z</time>
      </trkpt>
      <trkpt lat="43.29069" lon="3.03797">
        <ele>39.2</ele>
        <time>2020-06-26T16:33:52Z</time>
      </trkpt>
      <trkpt lat="43.29073" lon="3.03799">
        <ele>39.2</ele>
        <time>2020-06-26T16:33:51Z</time>
      </trkpt>
      <trkpt lat="43.29077" lon="3.03799">
        <ele>39.2</ele>
        <time>2020-06-26T16:33:50Z</time>
      </trkpt>
      <trkpt lat="43.29081" lon="3.03798">
        <ele>39.4</ele>
        <time>2020-06-26T16:33:49Z</time>
      </trkpt>
      <trkpt lat="43.29083" lon="3.03799">
        <ele>39.6</ele>
        <time>2020-06-26T16:33:48Z</time>
      </trkpt>
      <trkpt lat="43.29087" lon="3.03798">
        <ele>39.8</ele>
        <time>2020-06-26T16:33:47Z</time>
      </trkpt>
      <trkpt lat="43.2909" lon="3.03798">
        <ele>39.8</ele>
        <time>2020-06-26T16:33:46Z</time>
      </trkpt>
      <trkpt lat="43.29093" lon="3.03798">
        <ele>40</ele>
        <time>2020-06-26T16:33:45Z</time>
      </trkpt>
      <trkpt lat="43.29096" lon="3.03798">
        <ele>40.2</ele>
        <time>2020-06-26T16:33:44Z</time>
      </trkpt>
      <trkpt lat="43.29097" lon="3.03799">
        <ele>40.2</ele>
        <time>2020-06-26T16:33:43Z</time>
      </trkpt>
      <trkpt lat="43.29099" lon="3.038">
        <ele>40.4</ele>
        <time>2020-06-26T16:33:42Z</time>
      </trkpt>
      <trkpt lat="43.29099" lon="3.03803">
        <ele>40.4</ele>
        <time>2020-06-26T16:33:41Z</time>
      </trkpt>
      <trkpt lat="43.291" lon="3.03804">
        <ele>40.4</ele>
        <time>2020-06-26T16:33:40Z</time>
      </trkpt>
      <trkpt lat="43.29101" lon="3.03804">
        <ele>40.4</ele>
        <time>2020-06-26T16:33:39Z</time>
      </trkpt>
      <trkpt lat="43.29101" lon="3.03802">
        <ele>40.4</ele>
        <time>2020-06-26T16:33:38Z</time>
      </trkpt>
      <trkpt lat="43.29103" lon="3.03802">
        <ele>40.6</ele>
        <time>2020-06-26T16:33:37Z</time>
      </trkpt>
      <trkpt lat="43.29104" lon="3.038">
        <ele>40.4</ele>
        <time>2020-06-26T16:33:36Z</time>
      </trkpt>
      <trkpt lat="43.29104" lon="3.03799">
        <ele>40.4</ele>
        <time>2020-06-26T16:33:35Z</time>
      </trkpt>
      <trkpt lat="43.29105" lon="3.03799">
        <ele>40.6</ele>
        <time>2020-06-26T16:33:34Z</time>
      </trkpt>
      <trkpt lat="43.29107" lon="3.03803">
        <ele>40.6</ele>
        <time>2020-06-26T16:33:33Z</time>
      </trkpt>
      <trkpt lat="43.29108" lon="3.03803">
        <ele>40.6</ele>
        <time>2020-06-26T16:33:32Z</time>
      </trkpt>
      <trkpt lat="43.29107" lon="3.03802">
        <ele>40.6</ele>
        <time>2020-06-26T16:33:31Z</time>
      </trkpt>
      <trkpt lat="43.29107" lon="3.03804">
        <ele>40.6</ele>
        <time>2020-06-26T16:33:30Z</time>
      </trkpt>
      <trkpt lat="43.29108" lon="3.03802">
        <ele>40.6</ele>
        <time>2020-06-26T16:33:29Z</time>
      </trkpt>
      <trkpt lat="43.29109" lon="3.03803">
        <ele>40.6</ele>
        <time>2020-06-26T16:33:28Z</time>
      </trkpt>
      <trkpt lat="43.29109" lon="3.03804">
        <ele>40.4</ele>
        <time>2020-06-26T16:33:27Z</time>
      </trkpt>
      <trkpt lat="43.2911" lon="3.03805">
        <ele>40.4</ele>
        <time>2020-06-26T16:33:26Z</time>
      </trkpt>
      <trkpt lat="43.2911" lon="3.03807">
        <ele>40.2</ele>
        <time>2020-06-26T16:33:25Z</time>
      </trkpt>
      <trkpt lat="43.29112" lon="3.03807">
        <ele>40</ele>
        <time>2020-06-26T16:33:24Z</time>
      </trkpt>
      <trkpt lat="43.29115" lon="3.03806">
        <ele>39.8</ele>
        <time>2020-06-26T16:33:23Z</time>
      </trkpt>
      <trkpt lat="43.29117" lon="3.03806">
        <ele>39.8</ele>
        <time>2020-06-26T16:33:22Z</time>
      </trkpt>
      <trkpt lat="43.2912" lon="3.03806">
        <ele>39.8</ele>
        <time>2020-06-26T16:33:21Z</time>
      </trkpt>
      <trkpt lat="43.29122" lon="3.03807">
        <ele>39.8</ele>
        <time>2020-06-26T16:33:20Z</time>
      </trkpt>
      <trkpt lat="43.29124" lon="3.03807">
        <ele>39.6</ele>
        <time>2020-06-26T16:33:19Z</time>
      </trkpt>
      <trkpt lat="43.29126" lon="3.03805">
        <ele>39.6</ele>
        <time>2020-06-26T16:33:18Z</time>
      </trkpt>
      <trkpt lat="43.29129" lon="3.03805">
        <ele>39.6</ele>
        <time>2020-06-26T16:33:17Z</time>
      </trkpt>
      <trkpt lat="43.29132" lon="3.03806">
        <ele>39.4</ele>
        <time>2020-06-26T16:33:16Z</time>
      </trkpt>
      <trkpt lat="43.29133" lon="3.03807">
        <ele>39.4</ele>
        <time>2020-06-26T16:33:15Z</time>
      </trkpt>
      <trkpt lat="43.29137" lon="3.03807">
        <ele>39.2</ele>
        <time>2020-06-26T16:33:14Z</time>
      </trkpt>
      <trkpt lat="43.29138" lon="3.03811">
        <ele>39</ele>
        <time>2020-06-26T16:33:13Z</time>
      </trkpt>
      <trkpt lat="43.29142" lon="3.03811">
        <ele>39</ele>
        <time>2020-06-26T16:33:12Z</time>
      </trkpt>
      <trkpt lat="43.29144" lon="3.03812">
        <ele>39</ele>
        <time>2020-06-26T16:33:11Z</time>
      </trkpt>
      <trkpt lat="43.29148" lon="3.03814">
        <ele>39</ele>
        <time>2020-06-26T16:33:10Z</time>
      </trkpt>
      <trkpt lat="43.2915" lon="3.03816">
        <ele>38.8</ele>
        <time>2020-06-26T16:33:09Z</time>
      </trkpt>
      <trkpt lat="43.29152" lon="3.03818">
        <ele>38.8</ele>
        <time>2020-06-26T16:33:08Z</time>
      </trkpt>
      <trkpt lat="43.29156" lon="3.03818">
        <ele>38.8</ele>
        <time>2020-06-26T16:33:07Z</time>
      </trkpt>
      <trkpt lat="43.29159" lon="3.03818">
        <ele>38.6</ele>
        <time>2020-06-26T16:33:06Z</time>
      </trkpt>
      <trkpt lat="43.29162" lon="3.0382">
        <ele>38.4</ele>
        <time>2020-06-26T16:33:05Z</time>
      </trkpt>
      <trkpt lat="43.29166" lon="3.0382">
        <ele>38.4</ele>
        <time>2020-06-26T16:33:04Z</time>
      </trkpt>
      <trkpt lat="43.29168" lon="3.03819">
        <ele>38.4</ele>
        <time>2020-06-26T16:33:03Z</time>
      </trkpt>
      <trkpt lat="43.29172" lon="3.03819">
        <ele>38.4</ele>
        <time>2020-06-26T16:33:02Z</time>
      </trkpt>
      <trkpt lat="43.29175" lon="3.03819">
        <ele>38.2</ele>
        <time>2020-06-26T16:33:01Z</time>
      </trkpt>
      <trkpt lat="43.29178" lon="3.03818">
        <ele>38.2</ele>
        <time>2020-06-26T16:33:00Z</time>
      </trkpt>
      <trkpt lat="43.29181" lon="3.03819">
        <ele>38.2</ele>
        <time>2020-06-26T16:32:59Z</time>
      </trkpt>
      <trkpt lat="43.29185" lon="3.03819">
        <ele>38.2</ele>
        <time>2020-06-26T16:32:58Z</time>
      </trkpt>
      <trkpt lat="43.29189" lon="3.03819">
        <ele>38.2</ele>
        <time>2020-06-26T16:32:57Z</time>
      </trkpt>
      <trkpt lat="43.29192" lon="3.0382">
        <ele>38.2</ele>
        <time>2020-06-26T16:32:56Z</time>
      </trkpt>
      <trkpt lat="43.29196" lon="3.03821">
        <ele>38.2</ele>
        <time>2020-06-26T16:32:55Z</time>
      </trkpt>
      <trkpt lat="43.29198" lon="3.03821">
        <ele>38</ele>
        <time>2020-06-26T16:32:54Z</time>
      </trkpt>
      <trkpt lat="43.29202" lon="3.03821">
        <ele>37.8</ele>
        <time>2020-06-26T16:32:53Z</time>
      </trkpt>
      <trkpt lat="43.29206" lon="3.0382">
        <ele>37.8</ele>
        <time>2020-06-26T16:32:52Z</time>
      </trkpt>
      <trkpt lat="43.29209" lon="3.0382">
        <ele>37.8</ele>
        <time>2020-06-26T16:32:51Z</time>
      </trkpt>
      <trkpt lat="43.29213" lon="3.0382">
        <ele>37.8</ele>
        <time>2020-06-26T16:32:50Z</time>
      </trkpt>
      <trkpt lat="43.29216" lon="3.03822">
        <ele>38</ele>
        <time>2020-06-26T16:32:49Z</time>
      </trkpt>
      <trkpt lat="43.29219" lon="3.03821">
        <ele>37.8</ele>
        <time>2020-06-26T16:32:48Z</time>
      </trkpt>
      <trkpt lat="43.29223" lon="3.03821">
        <ele>37.6</ele>
        <time>2020-06-26T16:32:47Z</time>
      </trkpt>
      <trkpt lat="43.29226" lon="3.03821">
        <ele>37.6</ele>
        <time>2020-06-26T16:32:46Z</time>
      </trkpt>
      <trkpt lat="43.29229" lon="3.0382">
        <ele>37.4</ele>
        <time>2020-06-26T16:32:45Z</time>
      </trkpt>
      <trkpt lat="43.29232" lon="3.0382">
        <ele>37.2</ele>
        <time>2020-06-26T16:32:44Z</time>
      </trkpt>
      <trkpt lat="43.29234" lon="3.03822">
        <ele>37.2</ele>
        <time>2020-06-26T16:32:43Z</time>
      </trkpt>
      <trkpt lat="43.29237" lon="3.03822">
        <ele>37.4</ele>
        <time>2020-06-26T16:32:42Z</time>
      </trkpt>
      <trkpt lat="43.29239" lon="3.03824">
        <ele>37.4</ele>
        <time>2020-06-26T16:32:41Z</time>
      </trkpt>
      <trkpt lat="43.2924" lon="3.03823">
        <ele>37.6</ele>
        <time>2020-06-26T16:32:40Z</time>
      </trkpt>
      <trkpt lat="43.29241" lon="3.03825">
        <ele>37.4</ele>
        <time>2020-06-26T16:32:39Z</time>
      </trkpt>
      <trkpt lat="43.29244" lon="3.03825">
        <ele>37.4</ele>
        <time>2020-06-26T16:32:38Z</time>
      </trkpt>
      <trkpt lat="43.29245" lon="3.03826">
        <ele>37.4</ele>
        <time>2020-06-26T16:32:37Z</time>
      </trkpt>
      <trkpt lat="43.29246" lon="3.03826">
        <ele>37.6</ele>
        <time>2020-06-26T16:32:36Z</time>
      </trkpt>
      <trkpt lat="43.29248" lon="3.03826">
        <ele>37.6</ele>
        <time>2020-06-26T16:32:35Z</time>
      </trkpt>
      <trkpt lat="43.29249" lon="3.03826">
        <ele>37.4</ele>
        <time>2020-06-26T16:32:34Z</time>
      </trkpt>
      <trkpt lat="43.29251" lon="3.03825">
        <ele>37.4</ele>
        <time>2020-06-26T16:32:33Z</time>
      </trkpt>
      <trkpt lat="43.29253" lon="3.03825">
        <ele>37.2</ele>
        <time>2020-06-26T16:32:32Z</time>
      </trkpt>
      <trkpt lat="43.29254" lon="3.03826">
        <ele>37.4</ele>
        <time>2020-06-26T16:32:31Z</time>
      </trkpt>
      <trkpt lat="43.29255" lon="3.03827">
        <ele>37.4</ele>
        <time>2020-06-26T16:32:30Z</time>
      </trkpt>
      <trkpt lat="43.29259" lon="3.03827">
        <ele>37.4</ele>
        <time>2020-06-26T16:32:29Z</time>
      </trkpt>
      <trkpt lat="43.2926" lon="3.03828">
        <ele>37.4</ele>
        <time>2020-06-26T16:32:28Z</time>
      </trkpt>
      <trkpt lat="43.29262" lon="3.0383">
        <ele>37.4</ele>
        <time>2020-06-26T16:32:27Z</time>
      </trkpt>
      <trkpt lat="43.29263" lon="3.03832">
        <ele>37.4</ele>
        <time>2020-06-26T16:32:26Z</time>
      </trkpt>
      <trkpt lat="43.29262" lon="3.03835">
        <ele>37.4</ele>
        <time>2020-06-26T16:32:25Z</time>
      </trkpt>
      <trkpt lat="43.29262" lon="3.03838">
        <ele>37.6</ele>
        <time>2020-06-26T16:32:24Z</time>
      </trkpt>
      <trkpt lat="43.29261" lon="3.03842">
        <ele>37.6</ele>
        <time>2020-06-26T16:32:23Z</time>
      </trkpt>
      <trkpt lat="43.29261" lon="3.03846">
        <ele>37.6</ele>
        <time>2020-06-26T16:32:22Z</time>
      </trkpt>
      <trkpt lat="43.2926" lon="3.03852">
        <ele>37.6</ele>
        <time>2020-06-26T16:32:21Z</time>
      </trkpt>
      <trkpt lat="43.2926" lon="3.03857">
        <ele>37.6</ele>
        <time>2020-06-26T16:32:20Z</time>
      </trkpt>
      <trkpt lat="43.29259" lon="3.03862">
        <ele>37.6</ele>
        <time>2020-06-26T16:32:19Z</time>
      </trkpt>
      <trkpt lat="43.29257" lon="3.03867">
        <ele>37.6</ele>
        <time>2020-06-26T16:32:18Z</time>
      </trkpt>
      <trkpt lat="43.29255" lon="3.03872">
        <ele>37.6</ele>
        <time>2020-06-26T16:32:17Z</time>
      </trkpt>
      <trkpt lat="43.29254" lon="3.03879">
        <ele>37.6</ele>
        <time>2020-06-26T16:32:16Z</time>
      </trkpt>
      <trkpt lat="43.29253" lon="3.03884">
        <ele>37.6</ele>
        <time>2020-06-26T16:32:15Z</time>
      </trkpt>
      <trkpt lat="43.29252" lon="3.03892">
        <ele>37.6</ele>
        <time>2020-06-26T16:32:14Z</time>
      </trkpt>
      <trkpt lat="43.2925" lon="3.03896">
        <ele>37.6</ele>
        <time>2020-06-26T16:32:13Z</time>
      </trkpt>
      <trkpt lat="43.29248" lon="3.03903">
        <ele>37.6</ele>
        <time>2020-06-26T16:32:12Z</time>
      </trkpt>
      <trkpt lat="43.29247" lon="3.03909">
        <ele>37.6</ele>
        <time>2020-06-26T16:32:11Z</time>
      </trkpt>
      <trkpt lat="43.29245" lon="3.03915">
        <ele>37.6</ele>
        <time>2020-06-26T16:32:10Z</time>
      </trkpt>
      <trkpt lat="43.29244" lon="3.03922">
        <ele>37.6</ele>
        <time>2020-06-26T16:32:09Z</time>
      </trkpt>
      <trkpt lat="43.29242" lon="3.03927">
        <ele>37.8</ele>
        <time>2020-06-26T16:32:08Z</time>
      </trkpt>
      <trkpt lat="43.2924" lon="3.03931">
        <ele>37.8</ele>
        <time>2020-06-26T16:32:07Z</time>
      </trkpt>
      <trkpt lat="43.29239" lon="3.03936">
        <ele>37.8</ele>
        <time>2020-06-26T16:32:06Z</time>
      </trkpt>
      <trkpt lat="43.29238" lon="3.03941">
        <ele>37.6</ele>
        <time>2020-06-26T16:32:05Z</time>
      </trkpt>
      <trkpt lat="43.29237" lon="3.03946">
        <ele>37.6</ele>
        <time>2020-06-26T16:32:04Z</time>
      </trkpt>
      <trkpt lat="43.29236" lon="3.03952">
        <ele>37.6</ele>
        <time>2020-06-26T16:32:03Z</time>
      </trkpt>
      <trkpt lat="43.29235" lon="3.03956">
        <ele>37.8</ele>
        <time>2020-06-26T16:32:02Z</time>
      </trkpt>
      <trkpt lat="43.29234" lon="3.03962">
        <ele>37.8</ele>
        <time>2020-06-26T16:32:01Z</time>
      </trkpt>
      <trkpt lat="43.29234" lon="3.03968">
        <ele>37.8</ele>
        <time>2020-06-26T16:32:00Z</time>
      </trkpt>
      <trkpt lat="43.29233" lon="3.03973">
        <ele>37.8</ele>
        <time>2020-06-26T16:31:59Z</time>
      </trkpt>
      <trkpt lat="43.29231" lon="3.03978">
        <ele>38</ele>
        <time>2020-06-26T16:31:58Z</time>
      </trkpt>
      <trkpt lat="43.2923" lon="3.03985">
        <ele>38</ele>
        <time>2020-06-26T16:31:57Z</time>
      </trkpt>
      <trkpt lat="43.29228" lon="3.03989">
        <ele>38</ele>
        <time>2020-06-26T16:31:56Z</time>
      </trkpt>
      <trkpt lat="43.29227" lon="3.03995">
        <ele>38</ele>
        <time>2020-06-26T16:31:55Z</time>
      </trkpt>
      <trkpt lat="43.29225" lon="3.04">
        <ele>38</ele>
        <time>2020-06-26T16:31:54Z</time>
      </trkpt>
      <trkpt lat="43.29224" lon="3.04004">
        <ele>37.8</ele>
        <time>2020-06-26T16:31:53Z</time>
      </trkpt>
      <trkpt lat="43.29223" lon="3.04008">
        <ele>37.8</ele>
        <time>2020-06-26T16:31:52Z</time>
      </trkpt>
      <trkpt lat="43.29221" lon="3.04014">
        <ele>37.8</ele>
        <time>2020-06-26T16:31:51Z</time>
      </trkpt>
      <trkpt lat="43.2922" lon="3.0402">
        <ele>37.8</ele>
        <time>2020-06-26T16:31:50Z</time>
      </trkpt>
      <trkpt lat="43.29219" lon="3.04025">
        <ele>37.8</ele>
        <time>2020-06-26T16:31:49Z</time>
      </trkpt>
      <trkpt lat="43.29218" lon="3.0403">
        <ele>37.8</ele>
        <time>2020-06-26T16:31:48Z</time>
      </trkpt>
      <trkpt lat="43.29217" lon="3.04037">
        <ele>37.6</ele>
        <time>2020-06-26T16:31:47Z</time>
      </trkpt>
      <trkpt lat="43.29216" lon="3.04042">
        <ele>37.6</ele>
        <time>2020-06-26T16:31:46Z</time>
      </trkpt>
      <trkpt lat="43.29214" lon="3.04048">
        <ele>37.6</ele>
        <time>2020-06-26T16:31:45Z</time>
      </trkpt>
      <trkpt lat="43.29213" lon="3.04054">
        <ele>37.6</ele>
        <time>2020-06-26T16:31:44Z</time>
      </trkpt>
      <trkpt lat="43.29212" lon="3.04061">
        <ele>37.6</ele>
        <time>2020-06-26T16:31:43Z</time>
      </trkpt>
      <trkpt lat="43.29211" lon="3.04066">
        <ele>37.8</ele>
        <time>2020-06-26T16:31:42Z</time>
      </trkpt>
      <trkpt lat="43.29209" lon="3.04073">
        <ele>37.8</ele>
        <time>2020-06-26T16:31:41Z</time>
      </trkpt>
      <trkpt lat="43.29208" lon="3.04079">
        <ele>37.8</ele>
        <time>2020-06-26T16:31:40Z</time>
      </trkpt>
      <trkpt lat="43.29206" lon="3.04086">
        <ele>37.8</ele>
        <time>2020-06-26T16:31:39Z</time>
      </trkpt>
      <trkpt lat="43.29205" lon="3.04093">
        <ele>37.8</ele>
        <time>2020-06-26T16:31:38Z</time>
      </trkpt>
      <trkpt lat="43.29204" lon="3.041">
        <ele>37.6</ele>
        <time>2020-06-26T16:31:37Z</time>
      </trkpt>
      <trkpt lat="43.29202" lon="3.04106">
        <ele>37.6</ele>
        <time>2020-06-26T16:31:36Z</time>
      </trkpt>
      <trkpt lat="43.292" lon="3.04113">
        <ele>37.6</ele>
        <time>2020-06-26T16:31:35Z</time>
      </trkpt>
      <trkpt lat="43.29199" lon="3.0412">
        <ele>37.6</ele>
        <time>2020-06-26T16:31:34Z</time>
      </trkpt>
      <trkpt lat="43.29198" lon="3.04126">
        <ele>37.6</ele>
        <time>2020-06-26T16:31:33Z</time>
      </trkpt>
      <trkpt lat="43.29197" lon="3.04133">
        <ele>37.6</ele>
        <time>2020-06-26T16:31:32Z</time>
      </trkpt>
      <trkpt lat="43.29196" lon="3.04139">
        <ele>37.6</ele>
        <time>2020-06-26T16:31:31Z</time>
      </trkpt>
      <trkpt lat="43.29194" lon="3.04144">
        <ele>37.6</ele>
        <time>2020-06-26T16:31:30Z</time>
      </trkpt>
      <trkpt lat="43.29192" lon="3.04151">
        <ele>37.6</ele>
        <time>2020-06-26T16:31:29Z</time>
      </trkpt>
      <trkpt lat="43.29191" lon="3.04157">
        <ele>37.6</ele>
        <time>2020-06-26T16:31:28Z</time>
      </trkpt>
      <trkpt lat="43.29188" lon="3.04161">
        <ele>37.6</ele>
        <time>2020-06-26T16:31:27Z</time>
      </trkpt>
      <trkpt lat="43.29187" lon="3.04168">
        <ele>37.6</ele>
        <time>2020-06-26T16:31:26Z</time>
      </trkpt>
      <trkpt lat="43.29185" lon="3.04175">
        <ele>37.6</ele>
        <time>2020-06-26T16:31:25Z</time>
      </trkpt>
      <trkpt lat="43.29183" lon="3.04181">
        <ele>37.6</ele>
        <time>2020-06-26T16:31:24Z</time>
      </trkpt>
      <trkpt lat="43.29182" lon="3.04188">
        <ele>37.6</ele>
        <time>2020-06-26T16:31:23Z</time>
      </trkpt>
      <trkpt lat="43.29181" lon="3.04194">
        <ele>37.6</ele>
        <time>2020-06-26T16:31:22Z</time>
      </trkpt>
      <trkpt lat="43.29178" lon="3.04199">
        <ele>37.4</ele>
        <time>2020-06-26T16:31:21Z</time>
      </trkpt>
      <trkpt lat="43.29177" lon="3.04204">
        <ele>37.4</ele>
        <time>2020-06-26T16:31:20Z</time>
      </trkpt>
      <trkpt lat="43.29176" lon="3.04212">
        <ele>37.6</ele>
        <time>2020-06-26T16:31:19Z</time>
      </trkpt>
      <trkpt lat="43.29175" lon="3.04217">
        <ele>37.6</ele>
        <time>2020-06-26T16:31:18Z</time>
      </trkpt>
      <trkpt lat="43.29173" lon="3.04223">
        <ele>37.8</ele>
        <time>2020-06-26T16:31:17Z</time>
      </trkpt>
      <trkpt lat="43.29171" lon="3.0423">
        <ele>37.8</ele>
        <time>2020-06-26T16:31:16Z</time>
      </trkpt>
      <trkpt lat="43.2917" lon="3.04236">
        <ele>37.8</ele>
        <time>2020-06-26T16:31:15Z</time>
      </trkpt>
      <trkpt lat="43.2917" lon="3.04242">
        <ele>37.8</ele>
        <time>2020-06-26T16:31:14Z</time>
      </trkpt>
      <trkpt lat="43.29168" lon="3.04248">
        <ele>37.8</ele>
        <time>2020-06-26T16:31:13Z</time>
      </trkpt>
      <trkpt lat="43.29166" lon="3.04254">
        <ele>38</ele>
        <time>2020-06-26T16:31:12Z</time>
      </trkpt>
      <trkpt lat="43.29165" lon="3.04261">
        <ele>38</ele>
        <time>2020-06-26T16:31:11Z</time>
      </trkpt>
      <trkpt lat="43.29164" lon="3.04267">
        <ele>37.8</ele>
        <time>2020-06-26T16:31:10Z</time>
      </trkpt>
      <trkpt lat="43.29162" lon="3.04272">
        <ele>37.8</ele>
        <time>2020-06-26T16:31:09Z</time>
      </trkpt>
      <trkpt lat="43.29161" lon="3.04277">
        <ele>37.8</ele>
        <time>2020-06-26T16:31:08Z</time>
      </trkpt>
      <trkpt lat="43.2916" lon="3.04284">
        <ele>37.8</ele>
        <time>2020-06-26T16:31:07Z</time>
      </trkpt>
      <trkpt lat="43.2916" lon="3.04291">
        <ele>37.8</ele>
        <time>2020-06-26T16:31:06Z</time>
      </trkpt>
      <trkpt lat="43.29158" lon="3.04295">
        <ele>37.8</ele>
        <time>2020-06-26T16:31:05Z</time>
      </trkpt>
      <trkpt lat="43.29158" lon="3.04301">
        <ele>37.8</ele>
        <time>2020-06-26T16:31:04Z</time>
      </trkpt>
      <trkpt lat="43.29157" lon="3.04307">
        <ele>37.8</ele>
        <time>2020-06-26T16:31:03Z</time>
      </trkpt>
      <trkpt lat="43.29155" lon="3.04313">
        <ele>38</ele>
        <time>2020-06-26T16:31:02Z</time>
      </trkpt>
      <trkpt lat="43.29154" lon="3.04319">
        <ele>38</ele>
        <time>2020-06-26T16:31:01Z</time>
      </trkpt>
      <trkpt lat="43.29152" lon="3.04323">
        <ele>37.8</ele>
        <time>2020-06-26T16:31:00Z</time>
      </trkpt>
      <trkpt lat="43.29149" lon="3.04328">
        <ele>37.8</ele>
        <time>2020-06-26T16:30:59Z</time>
      </trkpt>
      <trkpt lat="43.29147" lon="3.04333">
        <ele>37.6</ele>
        <time>2020-06-26T16:30:58Z</time>
      </trkpt>
      <trkpt lat="43.29147" lon="3.04339">
        <ele>37.6</ele>
        <time>2020-06-26T16:30:57Z</time>
      </trkpt>
      <trkpt lat="43.29146" lon="3.04344">
        <ele>37.6</ele>
        <time>2020-06-26T16:30:56Z</time>
      </trkpt>
      <trkpt lat="43.29144" lon="3.0435">
        <ele>37.6</ele>
        <time>2020-06-26T16:30:55Z</time>
      </trkpt>
      <trkpt lat="43.29142" lon="3.04355">
        <ele>37.6</ele>
        <time>2020-06-26T16:30:54Z</time>
      </trkpt>
      <trkpt lat="43.29141" lon="3.04361">
        <ele>37.8</ele>
        <time>2020-06-26T16:30:53Z</time>
      </trkpt>
      <trkpt lat="43.2914" lon="3.04366">
        <ele>37.8</ele>
        <time>2020-06-26T16:30:52Z</time>
      </trkpt>
      <trkpt lat="43.29139" lon="3.04372">
        <ele>38</ele>
        <time>2020-06-26T16:30:51Z</time>
      </trkpt>
      <trkpt lat="43.29138" lon="3.04379">
        <ele>38</ele>
        <time>2020-06-26T16:30:50Z</time>
      </trkpt>
      <trkpt lat="43.29137" lon="3.04386">
        <ele>37.8</ele>
        <time>2020-06-26T16:30:49Z</time>
      </trkpt>
      <trkpt lat="43.29137" lon="3.04391">
        <ele>37.8</ele>
        <time>2020-06-26T16:30:48Z</time>
      </trkpt>
      <trkpt lat="43.29136" lon="3.04397">
        <ele>37.8</ele>
        <time>2020-06-26T16:30:47Z</time>
      </trkpt>
      <trkpt lat="43.29134" lon="3.04403">
        <ele>37.8</ele>
        <time>2020-06-26T16:30:46Z</time>
      </trkpt>
      <trkpt lat="43.29134" lon="3.0441">
        <ele>37.8</ele>
        <time>2020-06-26T16:30:45Z</time>
      </trkpt>
      <trkpt lat="43.29132" lon="3.04416">
        <ele>38</ele>
        <time>2020-06-26T16:30:44Z</time>
      </trkpt>
      <trkpt lat="43.29131" lon="3.04423">
        <ele>38</ele>
        <time>2020-06-26T16:30:43Z</time>
      </trkpt>
      <trkpt lat="43.2913" lon="3.0443">
        <ele>38</ele>
        <time>2020-06-26T16:30:42Z</time>
      </trkpt>
      <trkpt lat="43.29128" lon="3.04436">
        <ele>37.8</ele>
        <time>2020-06-26T16:30:41Z</time>
      </trkpt>
      <trkpt lat="43.29127" lon="3.04442">
        <ele>37.8</ele>
        <time>2020-06-26T16:30:40Z</time>
      </trkpt>
      <trkpt lat="43.29123" lon="3.04454">
        <ele>37.8</ele>
        <time>2020-06-26T16:30:38Z</time>
      </trkpt>
      <trkpt lat="43.29122" lon="3.0446">
        <ele>37.8</ele>
        <time>2020-06-26T16:30:37Z</time>
      </trkpt>
      <trkpt lat="43.2912" lon="3.04466">
        <ele>37.8</ele>
        <time>2020-06-26T16:30:36Z</time>
      </trkpt>
      <trkpt lat="43.29119" lon="3.04472">
        <ele>37.6</ele>
        <time>2020-06-26T16:30:35Z</time>
      </trkpt>
      <trkpt lat="43.29118" lon="3.04478">
        <ele>37.6</ele>
        <time>2020-06-26T16:30:34Z</time>
      </trkpt>
      <trkpt lat="43.29116" lon="3.04484">
        <ele>37.8</ele>
        <time>2020-06-26T16:30:33Z</time>
      </trkpt>
      <trkpt lat="43.29115" lon="3.0449">
        <ele>37.8</ele>
        <time>2020-06-26T16:30:32Z</time>
      </trkpt>
      <trkpt lat="43.29114" lon="3.04496">
        <ele>37.8</ele>
        <time>2020-06-26T16:30:31Z</time>
      </trkpt>
      <trkpt lat="43.29113" lon="3.04501">
        <ele>37.8</ele>
        <time>2020-06-26T16:30:30Z</time>
      </trkpt>
      <trkpt lat="43.29111" lon="3.04507">
        <ele>37.8</ele>
        <time>2020-06-26T16:30:29Z</time>
      </trkpt>
      <trkpt lat="43.2911" lon="3.04513">
        <ele>37.8</ele>
        <time>2020-06-26T16:30:28Z</time>
      </trkpt>
      <trkpt lat="43.29109" lon="3.04519">
        <ele>37.8</ele>
        <time>2020-06-26T16:30:27Z</time>
      </trkpt>
      <trkpt lat="43.29107" lon="3.04525">
        <ele>37.8</ele>
        <time>2020-06-26T16:30:26Z</time>
      </trkpt>
      <trkpt lat="43.29106" lon="3.04531">
        <ele>37.8</ele>
        <time>2020-06-26T16:30:25Z</time>
      </trkpt>
      <trkpt lat="43.29104" lon="3.04537">
        <ele>37.8</ele>
        <time>2020-06-26T16:30:24Z</time>
      </trkpt>
      <trkpt lat="43.29103" lon="3.04543">
        <ele>37.8</ele>
        <time>2020-06-26T16:30:23Z</time>
      </trkpt>
      <trkpt lat="43.29102" lon="3.04549">
        <ele>37.8</ele>
        <time>2020-06-26T16:30:22Z</time>
      </trkpt>
      <trkpt lat="43.29101" lon="3.04555">
        <ele>37.8</ele>
        <time>2020-06-26T16:30:21Z</time>
      </trkpt>
      <trkpt lat="43.291" lon="3.04561">
        <ele>37.6</ele>
        <time>2020-06-26T16:30:20Z</time>
      </trkpt>
      <trkpt lat="43.29098" lon="3.04566">
        <ele>37.6</ele>
        <time>2020-06-26T16:30:19Z</time>
      </trkpt>
      <trkpt lat="43.29097" lon="3.04572">
        <ele>37.6</ele>
        <time>2020-06-26T16:30:18Z</time>
      </trkpt>
      <trkpt lat="43.29096" lon="3.04577">
        <ele>37.8</ele>
        <time>2020-06-26T16:30:17Z</time>
      </trkpt>
      <trkpt lat="43.29095" lon="3.04583">
        <ele>37.8</ele>
        <time>2020-06-26T16:30:16Z</time>
      </trkpt>
      <trkpt lat="43.29094" lon="3.04588">
        <ele>37.8</ele>
        <time>2020-06-26T16:30:15Z</time>
      </trkpt>
      <trkpt lat="43.29093" lon="3.04594">
        <ele>38</ele>
        <time>2020-06-26T16:30:14Z</time>
      </trkpt>
      <trkpt lat="43.29091" lon="3.046">
        <ele>38</ele>
        <time>2020-06-26T16:30:13Z</time>
      </trkpt>
      <trkpt lat="43.2909" lon="3.04606">
        <ele>38.2</ele>
        <time>2020-06-26T16:30:12Z</time>
      </trkpt>
      <trkpt lat="43.29089" lon="3.04612">
        <ele>38.2</ele>
        <time>2020-06-26T16:30:11Z</time>
      </trkpt>
      <trkpt lat="43.29087" lon="3.04618">
        <ele>38.4</ele>
        <time>2020-06-26T16:30:10Z</time>
      </trkpt>
      <trkpt lat="43.29085" lon="3.04624">
        <ele>38.4</ele>
        <time>2020-06-26T16:30:09Z</time>
      </trkpt>
      <trkpt lat="43.29083" lon="3.0463">
        <ele>38.6</ele>
        <time>2020-06-26T16:30:08Z</time>
      </trkpt>
      <trkpt lat="43.29081" lon="3.04637">
        <ele>38.4</ele>
        <time>2020-06-26T16:30:07Z</time>
      </trkpt>
      <trkpt lat="43.29079" lon="3.04644">
        <ele>38.4</ele>
        <time>2020-06-26T16:30:06Z</time>
      </trkpt>
      <trkpt lat="43.29078" lon="3.0465">
        <ele>38.6</ele>
        <time>2020-06-26T16:30:05Z</time>
      </trkpt>
      <trkpt lat="43.29077" lon="3.04657">
        <ele>38.6</ele>
        <time>2020-06-26T16:30:04Z</time>
      </trkpt>
      <trkpt lat="43.29076" lon="3.04662">
        <ele>38.2</ele>
        <time>2020-06-26T16:30:03Z</time>
      </trkpt>
      <trkpt lat="43.29075" lon="3.0467">
        <ele>38.2</ele>
        <time>2020-06-26T16:30:02Z</time>
      </trkpt>
      <trkpt lat="43.29073" lon="3.04677">
        <ele>38.4</ele>
        <time>2020-06-26T16:30:01Z</time>
      </trkpt>
      <trkpt lat="43.29071" lon="3.04684">
        <ele>38.2</ele>
        <time>2020-06-26T16:30:00Z</time>
      </trkpt>
      <trkpt lat="43.29067" lon="3.04698">
        <ele>38</ele>
        <time>2020-06-26T16:29:58Z</time>
      </trkpt>
      <trkpt lat="43.29065" lon="3.04705">
        <ele>38</ele>
        <time>2020-06-26T16:29:57Z</time>
      </trkpt>
      <trkpt lat="43.29063" lon="3.04712">
        <ele>38</ele>
        <time>2020-06-26T16:29:56Z</time>
      </trkpt>
      <trkpt lat="43.29062" lon="3.04719">
        <ele>38</ele>
        <time>2020-06-26T16:29:55Z</time>
      </trkpt>
      <trkpt lat="43.29062" lon="3.04725">
        <ele>38</ele>
        <time>2020-06-26T16:29:54Z</time>
      </trkpt>
      <trkpt lat="43.2906" lon="3.04731">
        <ele>38</ele>
        <time>2020-06-26T16:29:53Z</time>
      </trkpt>
      <trkpt lat="43.29057" lon="3.0474">
        <ele>38</ele>
        <time>2020-06-26T16:29:52Z</time>
      </trkpt>
      <trkpt lat="43.29056" lon="3.04746">
        <ele>38.2</ele>
        <time>2020-06-26T16:29:51Z</time>
      </trkpt>
      <trkpt lat="43.29054" lon="3.04753">
        <ele>38.2</ele>
        <time>2020-06-26T16:29:50Z</time>
      </trkpt>
      <trkpt lat="43.29053" lon="3.0476">
        <ele>38</ele>
        <time>2020-06-26T16:29:49Z</time>
      </trkpt>
      <trkpt lat="43.29051" lon="3.04768">
        <ele>38</ele>
        <time>2020-06-26T16:29:48Z</time>
      </trkpt>
      <trkpt lat="43.29048" lon="3.04775">
        <ele>38</ele>
        <time>2020-06-26T16:29:47Z</time>
      </trkpt>
      <trkpt lat="43.29046" lon="3.04782">
        <ele>38</ele>
        <time>2020-06-26T16:29:46Z</time>
      </trkpt>
      <trkpt lat="43.29046" lon="3.04789">
        <ele>38</ele>
        <time>2020-06-26T16:29:45Z</time>
      </trkpt>
      <trkpt lat="43.29044" lon="3.04796">
        <ele>38</ele>
        <time>2020-06-26T16:29:44Z</time>
      </trkpt>
      <trkpt lat="43.29042" lon="3.04804">
        <ele>38</ele>
        <time>2020-06-26T16:29:43Z</time>
      </trkpt>
      <trkpt lat="43.29041" lon="3.04811">
        <ele>38</ele>
        <time>2020-06-26T16:29:42Z</time>
      </trkpt>
      <trkpt lat="43.2904" lon="3.04818">
        <ele>38</ele>
        <time>2020-06-26T16:29:41Z</time>
      </trkpt>
      <trkpt lat="43.29038" lon="3.04825">
        <ele>37.8</ele>
        <time>2020-06-26T16:29:40Z</time>
      </trkpt>
      <trkpt lat="43.29036" lon="3.04831">
        <ele>37.8</ele>
        <time>2020-06-26T16:29:39Z</time>
      </trkpt>
      <trkpt lat="43.29034" lon="3.04836">
        <ele>37.8</ele>
        <time>2020-06-26T16:29:38Z</time>
      </trkpt>
      <trkpt lat="43.29033" lon="3.04844">
        <ele>37.8</ele>
        <time>2020-06-26T16:29:37Z</time>
      </trkpt>
      <trkpt lat="43.29031" lon="3.04851">
        <ele>37.8</ele>
        <time>2020-06-26T16:29:36Z</time>
      </trkpt>
      <trkpt lat="43.2903" lon="3.04859">
        <ele>37.8</ele>
        <time>2020-06-26T16:29:35Z</time>
      </trkpt>
      <trkpt lat="43.29028" lon="3.04866">
        <ele>37.8</ele>
        <time>2020-06-26T16:29:34Z</time>
      </trkpt>
      <trkpt lat="43.29026" lon="3.04873">
        <ele>37.8</ele>
        <time>2020-06-26T16:29:33Z</time>
      </trkpt>
      <trkpt lat="43.29024" lon="3.0488">
        <ele>37.8</ele>
        <time>2020-06-26T16:29:32Z</time>
      </trkpt>
      <trkpt lat="43.29023" lon="3.04885">
        <ele>37.8</ele>
        <time>2020-06-26T16:29:31Z</time>
      </trkpt>
      <trkpt lat="43.29022" lon="3.04893">
        <ele>37.8</ele>
        <time>2020-06-26T16:29:30Z</time>
      </trkpt>
      <trkpt lat="43.29019" lon="3.049">
        <ele>37.8</ele>
        <time>2020-06-26T16:29:29Z</time>
      </trkpt>
      <trkpt lat="43.29018" lon="3.04906">
        <ele>37.8</ele>
        <time>2020-06-26T16:29:28Z</time>
      </trkpt>
      <trkpt lat="43.29016" lon="3.04913">
        <ele>38</ele>
        <time>2020-06-26T16:29:27Z</time>
      </trkpt>
      <trkpt lat="43.29015" lon="3.0492">
        <ele>38</ele>
        <time>2020-06-26T16:29:26Z</time>
      </trkpt>
      <trkpt lat="43.29013" lon="3.04926">
        <ele>38</ele>
        <time>2020-06-26T16:29:25Z</time>
      </trkpt>
      <trkpt lat="43.29012" lon="3.04932">
        <ele>37.8</ele>
        <time>2020-06-26T16:29:24Z</time>
      </trkpt>
      <trkpt lat="43.2901" lon="3.04938">
        <ele>38</ele>
        <time>2020-06-26T16:29:23Z</time>
      </trkpt>
      <trkpt lat="43.29009" lon="3.04945">
        <ele>38</ele>
        <time>2020-06-26T16:29:22Z</time>
      </trkpt>
      <trkpt lat="43.29007" lon="3.04952">
        <ele>38</ele>
        <time>2020-06-26T16:29:21Z</time>
      </trkpt>
      <trkpt lat="43.29006" lon="3.04959">
        <ele>38</ele>
        <time>2020-06-26T16:29:20Z</time>
      </trkpt>
      <trkpt lat="43.29002" lon="3.04974">
        <ele>37.8</ele>
        <time>2020-06-26T16:29:18Z</time>
      </trkpt>
      <trkpt lat="43.29" lon="3.04981">
        <ele>37.8</ele>
        <time>2020-06-26T16:29:17Z</time>
      </trkpt>
      <trkpt lat="43.28999" lon="3.04988">
        <ele>37.8</ele>
        <time>2020-06-26T16:29:16Z</time>
      </trkpt>
      <trkpt lat="43.28998" lon="3.04994">
        <ele>37.8</ele>
        <time>2020-06-26T16:29:15Z</time>
      </trkpt>
      <trkpt lat="43.28997" lon="3.04999">
        <ele>37.8</ele>
        <time>2020-06-26T16:29:14Z</time>
      </trkpt>
      <trkpt lat="43.28996" lon="3.05007">
        <ele>37.8</ele>
        <time>2020-06-26T16:29:13Z</time>
      </trkpt>
      <trkpt lat="43.28995" lon="3.05014">
        <ele>37.8</ele>
        <time>2020-06-26T16:29:12Z</time>
      </trkpt>
      <trkpt lat="43.28992" lon="3.0502">
        <ele>37.8</ele>
        <time>2020-06-26T16:29:11Z</time>
      </trkpt>
      <trkpt lat="43.2899" lon="3.05029">
        <ele>37.8</ele>
        <time>2020-06-26T16:29:10Z</time>
      </trkpt>
      <trkpt lat="43.28988" lon="3.05036">
        <ele>37.8</ele>
        <time>2020-06-26T16:29:09Z</time>
      </trkpt>
      <trkpt lat="43.28986" lon="3.05042">
        <ele>37.8</ele>
        <time>2020-06-26T16:29:08Z</time>
      </trkpt>
      <trkpt lat="43.28985" lon="3.0505">
        <ele>37.8</ele>
        <time>2020-06-26T16:29:07Z</time>
      </trkpt>
      <trkpt lat="43.28983" lon="3.05056">
        <ele>37.8</ele>
        <time>2020-06-26T16:29:06Z</time>
      </trkpt>
      <trkpt lat="43.28982" lon="3.05063">
        <ele>37.8</ele>
        <time>2020-06-26T16:29:05Z</time>
      </trkpt>
      <trkpt lat="43.2898" lon="3.05069">
        <ele>37.8</ele>
        <time>2020-06-26T16:29:04Z</time>
      </trkpt>
      <trkpt lat="43.28978" lon="3.05075">
        <ele>37.8</ele>
        <time>2020-06-26T16:29:03Z</time>
      </trkpt>
      <trkpt lat="43.28977" lon="3.05082">
        <ele>37.8</ele>
        <time>2020-06-26T16:29:02Z</time>
      </trkpt>
      <trkpt lat="43.28975" lon="3.05089">
        <ele>37.8</ele>
        <time>2020-06-26T16:29:01Z</time>
      </trkpt>
      <trkpt lat="43.28974" lon="3.05096">
        <ele>37.6</ele>
        <time>2020-06-26T16:29:00Z</time>
      </trkpt>
      <trkpt lat="43.28972" lon="3.05101">
        <ele>37.6</ele>
        <time>2020-06-26T16:28:59Z</time>
      </trkpt>
      <trkpt lat="43.2897" lon="3.05108">
        <ele>37.6</ele>
        <time>2020-06-26T16:28:58Z</time>
      </trkpt>
      <trkpt lat="43.2897" lon="3.05116">
        <ele>37.6</ele>
        <time>2020-06-26T16:28:57Z</time>
      </trkpt>
      <trkpt lat="43.28968" lon="3.05124">
        <ele>37.6</ele>
        <time>2020-06-26T16:28:56Z</time>
      </trkpt>
      <trkpt lat="43.28966" lon="3.05128">
        <ele>37.6</ele>
        <time>2020-06-26T16:28:55Z</time>
      </trkpt>
      <trkpt lat="43.28965" lon="3.05134">
        <ele>37.6</ele>
        <time>2020-06-26T16:28:54Z</time>
      </trkpt>
      <trkpt lat="43.28965" lon="3.0514">
        <ele>37.6</ele>
        <time>2020-06-26T16:28:53Z</time>
      </trkpt>
      <trkpt lat="43.28964" lon="3.05144">
        <ele>37.6</ele>
        <time>2020-06-26T16:28:52Z</time>
      </trkpt>
      <trkpt lat="43.28965" lon="3.05151">
        <ele>37.6</ele>
        <time>2020-06-26T16:28:51Z</time>
      </trkpt>
      <trkpt lat="43.28963" lon="3.05157">
        <ele>37.6</ele>
        <time>2020-06-26T16:28:50Z</time>
      </trkpt>
      <trkpt lat="43.28962" lon="3.05161">
        <ele>37.6</ele>
        <time>2020-06-26T16:28:49Z</time>
      </trkpt>
      <trkpt lat="43.28961" lon="3.05167">
        <ele>37.6</ele>
        <time>2020-06-26T16:28:48Z</time>
      </trkpt>
      <trkpt lat="43.28959" lon="3.05173">
        <ele>37.6</ele>
        <time>2020-06-26T16:28:47Z</time>
      </trkpt>
      <trkpt lat="43.28957" lon="3.05178">
        <ele>37.6</ele>
        <time>2020-06-26T16:28:46Z</time>
      </trkpt>
      <trkpt lat="43.28956" lon="3.05185">
        <ele>37.6</ele>
        <time>2020-06-26T16:28:45Z</time>
      </trkpt>
      <trkpt lat="43.28955" lon="3.0519">
        <ele>37.4</ele>
        <time>2020-06-26T16:28:44Z</time>
      </trkpt>
      <trkpt lat="43.28953" lon="3.05195">
        <ele>37.6</ele>
        <time>2020-06-26T16:28:43Z</time>
      </trkpt>
      <trkpt lat="43.28952" lon="3.05199">
        <ele>37.6</ele>
        <time>2020-06-26T16:28:42Z</time>
      </trkpt>
      <trkpt lat="43.28951" lon="3.05203">
        <ele>37.4</ele>
        <time>2020-06-26T16:28:41Z</time>
      </trkpt>
      <trkpt lat="43.28949" lon="3.05209">
        <ele>37.4</ele>
        <time>2020-06-26T16:28:40Z</time>
      </trkpt>
      <trkpt lat="43.28948" lon="3.05214">
        <ele>37.4</ele>
        <time>2020-06-26T16:28:39Z</time>
      </trkpt>
      <trkpt lat="43.28946" lon="3.05219">
        <ele>37.4</ele>
        <time>2020-06-26T16:28:38Z</time>
      </trkpt>
      <trkpt lat="43.28945" lon="3.05226">
        <ele>37.4</ele>
        <time>2020-06-26T16:28:37Z</time>
      </trkpt>
      <trkpt lat="43.28943" lon="3.05233">
        <ele>37.6</ele>
        <time>2020-06-26T16:28:36Z</time>
      </trkpt>
      <trkpt lat="43.28942" lon="3.05239">
        <ele>37.6</ele>
        <time>2020-06-26T16:28:35Z</time>
      </trkpt>
      <trkpt lat="43.2894" lon="3.05245">
        <ele>37.6</ele>
        <time>2020-06-26T16:28:34Z</time>
      </trkpt>
      <trkpt lat="43.28938" lon="3.05251">
        <ele>37.6</ele>
        <time>2020-06-26T16:28:33Z</time>
      </trkpt>
      <trkpt lat="43.28938" lon="3.05257">
        <ele>37.6</ele>
        <time>2020-06-26T16:28:32Z</time>
      </trkpt>
      <trkpt lat="43.28936" lon="3.05263">
        <ele>37.6</ele>
        <time>2020-06-26T16:28:31Z</time>
      </trkpt>
      <trkpt lat="43.28935" lon="3.05268">
        <ele>37.6</ele>
        <time>2020-06-26T16:28:30Z</time>
      </trkpt>
      <trkpt lat="43.28933" lon="3.05273">
        <ele>37.8</ele>
        <time>2020-06-26T16:28:29Z</time>
      </trkpt>
      <trkpt lat="43.28931" lon="3.0528">
        <ele>37.8</ele>
        <time>2020-06-26T16:28:28Z</time>
      </trkpt>
      <trkpt lat="43.2893" lon="3.05286">
        <ele>37.8</ele>
        <time>2020-06-26T16:28:27Z</time>
      </trkpt>
      <trkpt lat="43.28929" lon="3.05292">
        <ele>37.6</ele>
        <time>2020-06-26T16:28:26Z</time>
      </trkpt>
      <trkpt lat="43.28927" lon="3.05303">
        <ele>37.6</ele>
        <time>2020-06-26T16:28:25Z</time>
      </trkpt>
      <trkpt lat="43.28927" lon="3.05303">
        <ele>37.6</ele>
        <time>2020-06-26T16:28:24Z</time>
      </trkpt>
      <trkpt lat="43.28924" lon="3.05306">
        <ele>37.6</ele>
        <time>2020-06-26T16:28:23Z</time>
      </trkpt>
      <trkpt lat="43.28923" lon="3.05313">
        <ele>37.6</ele>
        <time>2020-06-26T16:28:22Z</time>
      </trkpt>
      <trkpt lat="43.28922" lon="3.05317">
        <ele>37.6</ele>
        <time>2020-06-26T16:28:21Z</time>
      </trkpt>
      <trkpt lat="43.28921" lon="3.05322">
        <ele>37.6</ele>
        <time>2020-06-26T16:28:20Z</time>
      </trkpt>
      <trkpt lat="43.2892" lon="3.05327">
        <ele>37.6</ele>
        <time>2020-06-26T16:28:19Z</time>
      </trkpt>
      <trkpt lat="43.28919" lon="3.05331">
        <ele>37.6</ele>
        <time>2020-06-26T16:28:18Z</time>
      </trkpt>
      <trkpt lat="43.28918" lon="3.05337">
        <ele>37.6</ele>
        <time>2020-06-26T16:28:17Z</time>
      </trkpt>
      <trkpt lat="43.28916" lon="3.05345">
        <ele>37.6</ele>
        <time>2020-06-26T16:28:16Z</time>
      </trkpt>
      <trkpt lat="43.28915" lon="3.05347">
        <ele>37.6</ele>
        <time>2020-06-26T16:28:15Z</time>
      </trkpt>
      <trkpt lat="43.28913" lon="3.05351">
        <ele>37.8</ele>
        <time>2020-06-26T16:28:14Z</time>
      </trkpt>
      <trkpt lat="43.28912" lon="3.05353">
        <ele>37.6</ele>
        <time>2020-06-26T16:28:13Z</time>
      </trkpt>
      <trkpt lat="43.28912" lon="3.05358">
        <ele>37.6</ele>
        <time>2020-06-26T16:28:12Z</time>
      </trkpt>
      <trkpt lat="43.2891" lon="3.05365">
        <ele>37.6</ele>
        <time>2020-06-26T16:28:11Z</time>
      </trkpt>
      <trkpt lat="43.2891" lon="3.05365">
        <ele>37.8</ele>
        <time>2020-06-26T16:28:10Z</time>
      </trkpt>
      <trkpt lat="43.28909" lon="3.05372">
        <ele>37.8</ele>
        <time>2020-06-26T16:28:09Z</time>
      </trkpt>
      <trkpt lat="43.28909" lon="3.05372">
        <ele>37.8</ele>
        <time>2020-06-26T16:28:08Z</time>
      </trkpt>
      <trkpt lat="43.28908" lon="3.05376">
        <ele>37.8</ele>
        <time>2020-06-26T16:28:07Z</time>
      </trkpt>
      <trkpt lat="43.28905" lon="3.0538">
        <ele>37.8</ele>
        <time>2020-06-26T16:28:06Z</time>
      </trkpt>
      <trkpt lat="43.28904" lon="3.05383">
        <ele>37.8</ele>
        <time>2020-06-26T16:28:05Z</time>
      </trkpt>
      <trkpt lat="43.28903" lon="3.05388">
        <ele>37.8</ele>
        <time>2020-06-26T16:28:04Z</time>
      </trkpt>
      <trkpt lat="43.28901" lon="3.05395">
        <ele>37.8</ele>
        <time>2020-06-26T16:28:03Z</time>
      </trkpt>
      <trkpt lat="43.28901" lon="3.05395">
        <ele>37.8</ele>
        <time>2020-06-26T16:28:02Z</time>
      </trkpt>
      <trkpt lat="43.28899" lon="3.05396">
        <ele>38</ele>
        <time>2020-06-26T16:28:01Z</time>
      </trkpt>
      <trkpt lat="43.28897" lon="3.05398">
        <ele>37.8</ele>
        <time>2020-06-26T16:28:00Z</time>
      </trkpt>
      <trkpt lat="43.28895" lon="3.054">
        <ele>37.8</ele>
        <time>2020-06-26T16:27:59Z</time>
      </trkpt>
      <trkpt lat="43.28893" lon="3.05404">
        <ele>38</ele>
        <time>2020-06-26T16:27:58Z</time>
      </trkpt>
      <trkpt lat="43.28891" lon="3.05406">
        <ele>38</ele>
        <time>2020-06-26T16:27:57Z</time>
      </trkpt>
      <trkpt lat="43.28889" lon="3.05408">
        <ele>38</ele>
        <time>2020-06-26T16:27:56Z</time>
      </trkpt>
      <trkpt lat="43.28887" lon="3.0541">
        <ele>38</ele>
        <time>2020-06-26T16:27:55Z</time>
      </trkpt>
      <trkpt lat="43.28884" lon="3.05413">
        <ele>38</ele>
        <time>2020-06-26T16:27:54Z</time>
      </trkpt>
      <trkpt lat="43.28883" lon="3.05415">
        <ele>38.2</ele>
        <time>2020-06-26T16:27:53Z</time>
      </trkpt>
      <trkpt lat="43.28881" lon="3.05416">
        <ele>38.2</ele>
        <time>2020-06-26T16:27:52Z</time>
      </trkpt>
      <trkpt lat="43.28879" lon="3.05417">
        <ele>38.4</ele>
        <time>2020-06-26T16:27:51Z</time>
      </trkpt>
      <trkpt lat="43.28876" lon="3.05419">
        <ele>38.4</ele>
        <time>2020-06-26T16:27:50Z</time>
      </trkpt>
      <trkpt lat="43.28874" lon="3.05421">
        <ele>38.4</ele>
        <time>2020-06-26T16:27:49Z</time>
      </trkpt>
      <trkpt lat="43.28873" lon="3.05422">
        <ele>38.6</ele>
        <time>2020-06-26T16:27:48Z</time>
      </trkpt>
      <trkpt lat="43.28871" lon="3.05423">
        <ele>38.8</ele>
        <time>2020-06-26T16:27:47Z</time>
      </trkpt>
      <trkpt lat="43.2887" lon="3.05424">
        <ele>38.6</ele>
        <time>2020-06-26T16:27:46Z</time>
      </trkpt>
      <trkpt lat="43.2887" lon="3.05424">
        <ele>38.6</ele>
        <time>2020-06-26T16:27:45Z</time>
      </trkpt>
      <trkpt lat="43.28871" lon="3.05426">
        <ele>38.6</ele>
        <time>2020-06-26T16:27:44Z</time>
      </trkpt>
      <trkpt lat="43.28871" lon="3.05426">
        <ele>38.6</ele>
        <time>2020-06-26T16:27:43Z</time>
      </trkpt>
      <trkpt lat="43.2887" lon="3.05426">
        <ele>39</ele>
        <time>2020-06-26T16:27:42Z</time>
      </trkpt>
      <trkpt lat="43.2887" lon="3.05426">
        <ele>39</ele>
        <time>2020-06-26T16:27:41Z</time>
      </trkpt>
      <trkpt lat="43.28871" lon="3.05427">
        <ele>39</ele>
        <time>2020-06-26T16:27:40Z</time>
      </trkpt>
      <trkpt lat="43.28871" lon="3.05427">
        <ele>39</ele>
        <time>2020-06-26T16:27:39Z</time>
      </trkpt>
      <trkpt lat="43.2887" lon="3.05426">
        <ele>39.2</ele>
        <time>2020-06-26T16:27:38Z</time>
      </trkpt>
      <trkpt lat="43.28869" lon="3.05426">
        <ele>39.2</ele>
        <time>2020-06-26T16:27:37Z</time>
      </trkpt>
      <trkpt lat="43.28869" lon="3.05426">
        <ele>39</ele>
        <time>2020-06-26T16:27:36Z</time>
      </trkpt>
      <trkpt lat="43.28871" lon="3.0543">
        <ele>39.2</ele>
        <time>2020-06-26T16:26:46Z</time>
      </trkpt>
      <trkpt lat="43.28871" lon="3.0543">
        <ele>39.2</ele>
        <time>2020-06-26T16:26:45Z</time>
      </trkpt>
      <trkpt lat="43.28871" lon="3.05431">
        <ele>39.2</ele>
        <time>2020-06-26T16:26:44Z</time>
      </trkpt>
      <trkpt lat="43.2887" lon="3.05431">
        <ele>39.2</ele>
        <time>2020-06-26T16:26:43Z</time>
      </trkpt>
      <trkpt lat="43.2887" lon="3.05432">
        <ele>39.4</ele>
        <time>2020-06-26T16:26:42Z</time>
      </trkpt>
      <trkpt lat="43.28869" lon="3.05431">
        <ele>39.2</ele>
        <time>2020-06-26T16:26:41Z</time>
      </trkpt>
      <trkpt lat="43.28868" lon="3.0543">
        <ele>39.2</ele>
        <time>2020-06-26T16:26:40Z</time>
      </trkpt>
      <trkpt lat="43.28867" lon="3.05428">
        <ele>39.2</ele>
        <time>2020-06-26T16:26:39Z</time>
      </trkpt>
      <trkpt lat="43.28867" lon="3.05428">
        <ele>39.2</ele>
        <time>2020-06-26T16:26:38Z</time>
      </trkpt>
      <trkpt lat="43.28867" lon="3.05428">
        <ele>39.2</ele>
        <time>2020-06-26T16:26:37Z</time>
      </trkpt>
      <trkpt lat="43.28867" lon="3.05428">
        <ele>39.6</ele>
        <time>2020-06-26T16:26:36Z</time>
      </trkpt>
      <trkpt lat="43.28867" lon="3.05427">
        <ele>39.6</ele>
        <time>2020-06-26T16:26:35Z</time>
      </trkpt>
      <trkpt lat="43.28868" lon="3.05427">
        <ele>39.6</ele>
        <time>2020-06-26T16:26:34Z</time>
      </trkpt>
      <trkpt lat="43.28868" lon="3.05428">
        <ele>39.4</ele>
        <time>2020-06-26T16:26:33Z</time>
      </trkpt>
      <trkpt lat="43.2887" lon="3.05425">
        <ele>38.6</ele>
        <time>2020-06-26T16:22:56Z</time>
      </trkpt>
      <trkpt lat="43.2887" lon="3.05423">
        <ele>38.4</ele>
        <time>2020-06-26T16:22:55Z</time>
      </trkpt>
      <trkpt lat="43.28869" lon="3.05424">
        <ele>38.4</ele>
        <time>2020-06-26T16:22:54Z</time>
      </trkpt>
      <trkpt lat="43.28868" lon="3.05424">
        <ele>38.6</ele>
        <time>2020-06-26T16:22:53Z</time>
      </trkpt>
      <trkpt lat="43.28868" lon="3.05425">
        <ele>38.4</ele>
        <time>2020-06-26T16:22:52Z</time>
      </trkpt>
      <trkpt lat="43.28867" lon="3.05425">
        <ele>38.2</ele>
        <time>2020-06-26T16:22:51Z</time>
      </trkpt>
      <trkpt lat="43.28868" lon="3.05426">
        <ele>38.4</ele>
        <time>2020-06-26T16:22:50Z</time>
      </trkpt>
      <trkpt lat="43.28868" lon="3.05425">
        <ele>38.6</ele>
        <time>2020-06-26T16:22:49Z</time>
      </trkpt>
      <trkpt lat="43.28869" lon="3.05425">
        <ele>38.6</ele>
        <time>2020-06-26T16:22:48Z</time>
      </trkpt>
      <trkpt lat="43.28868" lon="3.05425">
        <ele>38.8</ele>
        <time>2020-06-26T16:22:47Z</time>
      </trkpt>
      <trkpt lat="43.28868" lon="3.05425">
        <ele>38.4</ele>
        <time>2020-06-26T16:22:46Z</time>
      </trkpt>
      <trkpt lat="43.28868" lon="3.05424">
        <ele>38.4</ele>
        <time>2020-06-26T16:22:45Z</time>
      </trkpt>
      <trkpt lat="43.28869" lon="3.05423">
        <ele>38.4</ele>
        <time>2020-06-26T16:22:42Z</time>
      </trkpt>
      <trkpt lat="43.28869" lon="3.05423">
        <ele>38.4</ele>
        <time>2020-06-26T16:22:41Z</time>
      </trkpt>
      <trkpt lat="43.28869" lon="3.05423">
        <ele>38.4</ele>
        <time>2020-06-26T16:22:40Z</time>
      </trkpt>
      <trkpt lat="43.28868" lon="3.05424">
        <ele>38.4</ele>
        <time>2020-06-26T16:22:39Z</time>
      </trkpt>
      <trkpt lat="43.28869" lon="3.05424">
        <ele>38.2</ele>
        <time>2020-06-26T16:22:38Z</time>
      </trkpt>
      <trkpt lat="43.28869" lon="3.05426">
        <ele>38.4</ele>
        <time>2020-06-26T16:22:37Z</time>
      </trkpt>
      <trkpt lat="43.28869" lon="3.05426">
        <ele>38.4</ele>
        <time>2020-06-26T16:22:36Z</time>
      </trkpt>
      <trkpt lat="43.2887" lon="3.05427">
        <ele>38.2</ele>
        <time>2020-06-26T16:22:35Z</time>
      </trkpt>
      <trkpt lat="43.2887" lon="3.05426">
        <ele>38.2</ele>
        <time>2020-06-26T16:22:34Z</time>
      </trkpt>
      <trkpt lat="43.28869" lon="3.05426">
        <ele>38.2</ele>
        <time>2020-06-26T16:22:33Z</time>
      </trkpt>
      <trkpt lat="43.28869" lon="3.05422">
        <ele>38.2</ele>
        <time>2020-06-26T16:22:32Z</time>
      </trkpt>
      <trkpt lat="43.28868" lon="3.05423">
        <ele>38.2</ele>
        <time>2020-06-26T16:22:16Z</time>
      </trkpt>
      <trkpt lat="43.28868" lon="3.05423">
        <ele>38</ele>
        <time>2020-06-26T16:22:15Z</time>
      </trkpt>
      <trkpt lat="43.2887" lon="3.05423">
        <ele>38.2</ele>
        <time>2020-06-26T16:22:14Z</time>
      </trkpt>
      <trkpt lat="43.28868" lon="3.05424">
        <ele>38.2</ele>
        <time>2020-06-26T16:22:12Z</time>
      </trkpt>
      <trkpt lat="43.28869" lon="3.05423">
        <ele>38.2</ele>
        <time>2020-06-26T16:22:11Z</time>
      </trkpt>
      <trkpt lat="43.28868" lon="3.05422">
        <ele>38.2</ele>
        <time>2020-06-26T16:22:10Z</time>
      </trkpt>
      <trkpt lat="43.28867" lon="3.05422">
        <ele>38.2</ele>
        <time>2020-06-26T16:22:09Z</time>
      </trkpt>
      <trkpt lat="43.28867" lon="3.05422">
        <ele>38.2</ele>
        <time>2020-06-26T16:22:08Z</time>
      </trkpt>
      <trkpt lat="43.28867" lon="3.05422">
        <ele>38.2</ele>
        <time>2020-06-26T16:22:07Z</time>
      </trkpt>
      <trkpt lat="43.28865" lon="3.05422">
        <ele>38</ele>
        <time>2020-06-26T16:22:05Z</time>
      </trkpt>
      <trkpt lat="43.28865" lon="3.05424">
        <ele>38</ele>
        <time>2020-06-26T16:22:04Z</time>
      </trkpt>
      <trkpt lat="43.28861" lon="3.05425">
        <ele>37.8</ele>
        <time>2020-06-26T16:22:03Z</time>
      </trkpt>
      <trkpt lat="43.2886" lon="3.05428">
        <ele>37.6</ele>
        <time>2020-06-26T16:22:02Z</time>
      </trkpt>
      <trkpt lat="43.28859" lon="3.05427">
        <ele>37.6</ele>
        <time>2020-06-26T16:22:01Z</time>
      </trkpt>
      <trkpt lat="43.28857" lon="3.05429">
        <ele>37.4</ele>
        <time>2020-06-26T16:22:00Z</time>
      </trkpt>
      <trkpt lat="43.28855" lon="3.0543">
        <ele>37.4</ele>
        <time>2020-06-26T16:21:59Z</time>
      </trkpt>
      <trkpt lat="43.28853" lon="3.05433">
        <ele>37.4</ele>
        <time>2020-06-26T16:21:57Z</time>
      </trkpt>
      <trkpt lat="43.28851" lon="3.05433">
        <ele>37.2</ele>
        <time>2020-06-26T16:21:56Z</time>
      </trkpt>
      <trkpt lat="43.28848" lon="3.05436">
        <ele>37.2</ele>
        <time>2020-06-26T16:21:55Z</time>
      </trkpt>
      <trkpt lat="43.28846" lon="3.05438">
        <ele>37.2</ele>
        <time>2020-06-26T16:21:54Z</time>
      </trkpt>
      <trkpt lat="43.28844" lon="3.05439">
        <ele>37.2</ele>
        <time>2020-06-26T16:21:53Z</time>
      </trkpt>
      <trkpt lat="43.28842" lon="3.05442">
        <ele>37.2</ele>
        <time>2020-06-26T16:21:52Z</time>
      </trkpt>
      <trkpt lat="43.28838" lon="3.05444">
        <ele>37.2</ele>
        <time>2020-06-26T16:21:51Z</time>
      </trkpt>
      <trkpt lat="43.28836" lon="3.05446">
        <ele>37.2</ele>
        <time>2020-06-26T16:21:49Z</time>
      </trkpt>
      <trkpt lat="43.28833" lon="3.05446">
        <ele>37.2</ele>
        <time>2020-06-26T16:21:48Z</time>
      </trkpt>
      <trkpt lat="43.2883" lon="3.05448">
        <ele>37.4</ele>
        <time>2020-06-26T16:21:47Z</time>
      </trkpt>
      <trkpt lat="43.28827" lon="3.05451">
        <ele>37.2</ele>
        <time>2020-06-26T16:21:46Z</time>
      </trkpt>
      <trkpt lat="43.28824" lon="3.05453">
        <ele>37.2</ele>
        <time>2020-06-26T16:21:45Z</time>
      </trkpt>
      <trkpt lat="43.2882" lon="3.05455">
        <ele>37.2</ele>
        <time>2020-06-26T16:21:44Z</time>
      </trkpt>
      <trkpt lat="43.28818" lon="3.05458">
        <ele>37.2</ele>
        <time>2020-06-26T16:21:43Z</time>
      </trkpt>
      <trkpt lat="43.28816" lon="3.05459">
        <ele>37.2</ele>
        <time>2020-06-26T16:21:42Z</time>
      </trkpt>
      <trkpt lat="43.28811" lon="3.05459">
        <ele>37.2</ele>
        <time>2020-06-26T16:21:41Z</time>
      </trkpt>
      <trkpt lat="43.28811" lon="3.05462">
        <ele>37.2</ele>
        <time>2020-06-26T16:21:40Z</time>
      </trkpt>
      <trkpt lat="43.28808" lon="3.05463">
        <ele>37.2</ele>
        <time>2020-06-26T16:21:39Z</time>
      </trkpt>
      <trkpt lat="43.28803" lon="3.05466">
        <ele>37.4</ele>
        <time>2020-06-26T16:21:37Z</time>
      </trkpt>
      <trkpt lat="43.28801" lon="3.05468">
        <ele>37.4</ele>
        <time>2020-06-26T16:21:36Z</time>
      </trkpt>
      <trkpt lat="43.28798" lon="3.0547">
        <ele>37.4</ele>
        <time>2020-06-26T16:21:35Z</time>
      </trkpt>
      <trkpt lat="43.28795" lon="3.05471">
        <ele>37.4</ele>
        <time>2020-06-26T16:21:34Z</time>
      </trkpt>
      <trkpt lat="43.28793" lon="3.05474">
        <ele>37.6</ele>
        <time>2020-06-26T16:21:33Z</time>
      </trkpt>
      <trkpt lat="43.28791" lon="3.05475">
        <ele>37.6</ele>
        <time>2020-06-26T16:21:32Z</time>
      </trkpt>
      <trkpt lat="43.28788" lon="3.05477">
        <ele>37.6</ele>
        <time>2020-06-26T16:21:31Z</time>
      </trkpt>
      <trkpt lat="43.28785" lon="3.05479">
        <ele>37.4</ele>
        <time>2020-06-26T16:21:30Z</time>
      </trkpt>
      <trkpt lat="43.28782" lon="3.0548">
        <ele>37.4</ele>
        <time>2020-06-26T16:21:29Z</time>
      </trkpt>
      <trkpt lat="43.28781" lon="3.05481">
        <ele>37.4</ele>
        <time>2020-06-26T16:21:28Z</time>
      </trkpt>
      <trkpt lat="43.28777" lon="3.05484">
        <ele>37.4</ele>
        <time>2020-06-26T16:21:26Z</time>
      </trkpt>
      <trkpt lat="43.28775" lon="3.05486">
        <ele>37.4</ele>
        <time>2020-06-26T16:21:25Z</time>
      </trkpt>
      <trkpt lat="43.28772" lon="3.05488">
        <ele>37.4</ele>
        <time>2020-06-26T16:21:24Z</time>
      </trkpt>
      <trkpt lat="43.28769" lon="3.0549">
        <ele>37.2</ele>
        <time>2020-06-26T16:21:23Z</time>
      </trkpt>
      <trkpt lat="43.28767" lon="3.05492">
        <ele>37.2</ele>
        <time>2020-06-26T16:21:22Z</time>
      </trkpt>
      <trkpt lat="43.28764" lon="3.05493">
        <ele>37.4</ele>
        <time>2020-06-26T16:21:21Z</time>
      </trkpt>
      <trkpt lat="43.2876" lon="3.05497">
        <ele>37.2</ele>
        <time>2020-06-26T16:21:20Z</time>
      </trkpt>
      <trkpt lat="43.28758" lon="3.05499">
        <ele>37.2</ele>
        <time>2020-06-26T16:21:19Z</time>
      </trkpt>
      <trkpt lat="43.28755" lon="3.05502">
        <ele>37.2</ele>
        <time>2020-06-26T16:21:18Z</time>
      </trkpt>
      <trkpt lat="43.28752" lon="3.05503">
        <ele>37.2</ele>
        <time>2020-06-26T16:21:16Z</time>
      </trkpt>
      <trkpt lat="43.28747" lon="3.05507">
        <ele>37.4</ele>
        <time>2020-06-26T16:21:15Z</time>
      </trkpt>
      <trkpt lat="43.28745" lon="3.05509">
        <ele>37.4</ele>
        <time>2020-06-26T16:21:14Z</time>
      </trkpt>
      <trkpt lat="43.28742" lon="3.05511">
        <ele>37.4</ele>
        <time>2020-06-26T16:21:13Z</time>
      </trkpt>
      <trkpt lat="43.28741" lon="3.05513">
        <ele>37.6</ele>
        <time>2020-06-26T16:21:11Z</time>
      </trkpt>
      <trkpt lat="43.28736" lon="3.05518">
        <ele>37.2</ele>
        <time>2020-06-26T16:21:10Z</time>
      </trkpt>
      <trkpt lat="43.28732" lon="3.05521">
        <ele>37.4</ele>
        <time>2020-06-26T16:21:09Z</time>
      </trkpt>
      <trkpt lat="43.2873" lon="3.05522">
        <ele>37.4</ele>
        <time>2020-06-26T16:21:08Z</time>
      </trkpt>
      <trkpt lat="43.28728" lon="3.05525">
        <ele>37.4</ele>
        <time>2020-06-26T16:21:07Z</time>
      </trkpt>
      <trkpt lat="43.28727" lon="3.05526">
        <ele>37.4</ele>
        <time>2020-06-26T16:21:06Z</time>
      </trkpt>
      <trkpt lat="43.28726" lon="3.05528">
        <ele>37.4</ele>
        <time>2020-06-26T16:21:04Z</time>
      </trkpt>
      <trkpt lat="43.28724" lon="3.05529">
        <ele>37.4</ele>
        <time>2020-06-26T16:21:03Z</time>
      </trkpt>
      <trkpt lat="43.28722" lon="3.0553">
        <ele>37.4</ele>
        <time>2020-06-26T16:21:02Z</time>
      </trkpt>
      <trkpt lat="43.2872" lon="3.05532">
        <ele>37.4</ele>
        <time>2020-06-26T16:21:01Z</time>
      </trkpt>
      <trkpt lat="43.28718" lon="3.05531">
        <ele>37.2</ele>
        <time>2020-06-26T16:21:00Z</time>
      </trkpt>
      <trkpt lat="43.28716" lon="3.05532">
        <ele>37.2</ele>
        <time>2020-06-26T16:20:59Z</time>
      </trkpt>
      <trkpt lat="43.28713" lon="3.05534">
        <ele>37.2</ele>
        <time>2020-06-26T16:20:58Z</time>
      </trkpt>
      <trkpt lat="43.28711" lon="3.05536">
        <ele>37.4</ele>
        <time>2020-06-26T16:20:57Z</time>
      </trkpt>
      <trkpt lat="43.28707" lon="3.05537">
        <ele>37.4</ele>
        <time>2020-06-26T16:20:56Z</time>
      </trkpt>
      <trkpt lat="43.28705" lon="3.05539">
        <ele>37.4</ele>
        <time>2020-06-26T16:20:55Z</time>
      </trkpt>
      <trkpt lat="43.28702" lon="3.05541">
        <ele>37.2</ele>
        <time>2020-06-26T16:20:54Z</time>
      </trkpt>
      <trkpt lat="43.28699" lon="3.05543">
        <ele>37.4</ele>
        <time>2020-06-26T16:20:53Z</time>
      </trkpt>
      <trkpt lat="43.28696" lon="3.05545">
        <ele>37.4</ele>
        <time>2020-06-26T16:20:51Z</time>
      </trkpt>
      <trkpt lat="43.28694" lon="3.05547">
        <ele>37.2</ele>
        <time>2020-06-26T16:20:50Z</time>
      </trkpt>
      <trkpt lat="43.2869" lon="3.05548">
        <ele>37.4</ele>
        <time>2020-06-26T16:20:49Z</time>
      </trkpt>
      <trkpt lat="43.28686" lon="3.0555">
        <ele>37.4</ele>
        <time>2020-06-26T16:20:48Z</time>
      </trkpt>
      <trkpt lat="43.28683" lon="3.05552">
        <ele>37.4</ele>
        <time>2020-06-26T16:20:47Z</time>
      </trkpt>
      <trkpt lat="43.28679" lon="3.05555">
        <ele>37.4</ele>
        <time>2020-06-26T16:20:46Z</time>
      </trkpt>
      <trkpt lat="43.28678" lon="3.05556">
        <ele>37.4</ele>
        <time>2020-06-26T16:20:45Z</time>
      </trkpt>
      <trkpt lat="43.28672" lon="3.05559">
        <ele>37.2</ele>
        <time>2020-06-26T16:20:44Z</time>
      </trkpt>
      <trkpt lat="43.28668" lon="3.05559">
        <ele>37.4</ele>
        <time>2020-06-26T16:20:42Z</time>
      </trkpt>
      <trkpt lat="43.28665" lon="3.05561">
        <ele>37.4</ele>
        <time>2020-06-26T16:20:41Z</time>
      </trkpt>
      <trkpt lat="43.28663" lon="3.05562">
        <ele>37.4</ele>
        <time>2020-06-26T16:20:40Z</time>
      </trkpt>
      <trkpt lat="43.28661" lon="3.05564">
        <ele>37.4</ele>
        <time>2020-06-26T16:20:39Z</time>
      </trkpt>
      <trkpt lat="43.28654" lon="3.05567">
        <ele>37.4</ele>
        <time>2020-06-26T16:20:38Z</time>
      </trkpt>
      <trkpt lat="43.28651" lon="3.05569">
        <ele>37.4</ele>
        <time>2020-06-26T16:20:36Z</time>
      </trkpt>
      <trkpt lat="43.28647" lon="3.0557">
        <ele>37.4</ele>
        <time>2020-06-26T16:20:35Z</time>
      </trkpt>
      <trkpt lat="43.28643" lon="3.05573">
        <ele>37.4</ele>
        <time>2020-06-26T16:20:34Z</time>
      </trkpt>
      <trkpt lat="43.28641" lon="3.05575">
        <ele>37.4</ele>
        <time>2020-06-26T16:20:33Z</time>
      </trkpt>
      <trkpt lat="43.28637" lon="3.05576">
        <ele>37.2</ele>
        <time>2020-06-26T16:20:32Z</time>
      </trkpt>
      <trkpt lat="43.28635" lon="3.05579">
        <ele>37.2</ele>
        <time>2020-06-26T16:20:31Z</time>
      </trkpt>
      <trkpt lat="43.28632" lon="3.0558">
        <ele>37.4</ele>
        <time>2020-06-26T16:20:30Z</time>
      </trkpt>
      <trkpt lat="43.2863" lon="3.05583">
        <ele>37.2</ele>
        <time>2020-06-26T16:20:29Z</time>
      </trkpt>
      <trkpt lat="43.28627" lon="3.05585">
        <ele>37.2</ele>
        <time>2020-06-26T16:20:28Z</time>
      </trkpt>
      <trkpt lat="43.2862" lon="3.05592">
        <ele>37.2</ele>
        <time>2020-06-26T16:20:27Z</time>
      </trkpt>
      <trkpt lat="43.28617" lon="3.05595">
        <ele>37.2</ele>
        <time>2020-06-26T16:20:25Z</time>
      </trkpt>
      <trkpt lat="43.28614" lon="3.05599">
        <ele>37</ele>
        <time>2020-06-26T16:20:24Z</time>
      </trkpt>
      <trkpt lat="43.28611" lon="3.05601">
        <ele>37.2</ele>
        <time>2020-06-26T16:20:23Z</time>
      </trkpt>
      <trkpt lat="43.28608" lon="3.05601">
        <ele>37.2</ele>
        <time>2020-06-26T16:20:22Z</time>
      </trkpt>
      <trkpt lat="43.28605" lon="3.05603">
        <ele>37.2</ele>
        <time>2020-06-26T16:20:21Z</time>
      </trkpt>
      <trkpt lat="43.28602" lon="3.05605">
        <ele>37.4</ele>
        <time>2020-06-26T16:20:20Z</time>
      </trkpt>
      <trkpt lat="43.28601" lon="3.05606">
        <ele>37.4</ele>
        <time>2020-06-26T16:20:19Z</time>
      </trkpt>
      <trkpt lat="43.28599" lon="3.05609">
        <ele>37.2</ele>
        <time>2020-06-26T16:20:18Z</time>
      </trkpt>
      <trkpt lat="43.28596" lon="3.05611">
        <ele>37.2</ele>
        <time>2020-06-26T16:20:17Z</time>
      </trkpt>
      <trkpt lat="43.28593" lon="3.05613">
        <ele>37</ele>
        <time>2020-06-26T16:20:16Z</time>
      </trkpt>
      <trkpt lat="43.28591" lon="3.05614">
        <ele>36.8</ele>
        <time>2020-06-26T16:20:15Z</time>
      </trkpt>
      <trkpt lat="43.28588" lon="3.05616">
        <ele>36.8</ele>
        <time>2020-06-26T16:20:14Z</time>
      </trkpt>
      <trkpt lat="43.28585" lon="3.05616">
        <ele>37</ele>
        <time>2020-06-26T16:20:13Z</time>
      </trkpt>
      <trkpt lat="43.28582" lon="3.05616">
        <ele>37.2</ele>
        <time>2020-06-26T16:20:12Z</time>
      </trkpt>
      <trkpt lat="43.28579" lon="3.05617">
        <ele>37.4</ele>
        <time>2020-06-26T16:20:11Z</time>
      </trkpt>
      <trkpt lat="43.28576" lon="3.05621">
        <ele>37.8</ele>
        <time>2020-06-26T16:20:10Z</time>
      </trkpt>
      <trkpt lat="43.28573" lon="3.05622">
        <ele>37.4</ele>
        <time>2020-06-26T16:20:09Z</time>
      </trkpt>
      <trkpt lat="43.2857" lon="3.05624">
        <ele>37.4</ele>
        <time>2020-06-26T16:20:08Z</time>
      </trkpt>
      <trkpt lat="43.28563" lon="3.05627">
        <ele>37.2</ele>
        <time>2020-06-26T16:20:07Z</time>
      </trkpt>
      <trkpt lat="43.28561" lon="3.0563">
        <ele>37.4</ele>
        <time>2020-06-26T16:20:05Z</time>
      </trkpt>
      <trkpt lat="43.28559" lon="3.05632">
        <ele>37.4</ele>
        <time>2020-06-26T16:20:04Z</time>
      </trkpt>
      <trkpt lat="43.28556" lon="3.05635">
        <ele>37.4</ele>
        <time>2020-06-26T16:20:03Z</time>
      </trkpt>
      <trkpt lat="43.28554" lon="3.05638">
        <ele>37.4</ele>
        <time>2020-06-26T16:20:02Z</time>
      </trkpt>
      <trkpt lat="43.28552" lon="3.05639">
        <ele>37.4</ele>
        <time>2020-06-26T16:20:01Z</time>
      </trkpt>
      <trkpt lat="43.28548" lon="3.05639">
        <ele>37.4</ele>
        <time>2020-06-26T16:20:00Z</time>
      </trkpt>
      <trkpt lat="43.28546" lon="3.05642">
        <ele>37.4</ele>
        <time>2020-06-26T16:19:59Z</time>
      </trkpt>
      <trkpt lat="43.28542" lon="3.05644">
        <ele>37.4</ele>
        <time>2020-06-26T16:19:58Z</time>
      </trkpt>
      <trkpt lat="43.28539" lon="3.05646">
        <ele>37.4</ele>
        <time>2020-06-26T16:19:57Z</time>
      </trkpt>
      <trkpt lat="43.28536" lon="3.05648">
        <ele>37.2</ele>
        <time>2020-06-26T16:19:56Z</time>
      </trkpt>
      <trkpt lat="43.28529" lon="3.05652">
        <ele>37.2</ele>
        <time>2020-06-26T16:19:55Z</time>
      </trkpt>
      <trkpt lat="43.28526" lon="3.05655">
        <ele>37.2</ele>
        <time>2020-06-26T16:19:53Z</time>
      </trkpt>
      <trkpt lat="43.28522" lon="3.05657">
        <ele>37.2</ele>
        <time>2020-06-26T16:19:52Z</time>
      </trkpt>
      <trkpt lat="43.28518" lon="3.0566">
        <ele>37.4</ele>
        <time>2020-06-26T16:19:51Z</time>
      </trkpt>
      <trkpt lat="43.28516" lon="3.05662">
        <ele>37.6</ele>
        <time>2020-06-26T16:19:50Z</time>
      </trkpt>
      <trkpt lat="43.28513" lon="3.05665">
        <ele>37.6</ele>
        <time>2020-06-26T16:19:49Z</time>
      </trkpt>
      <trkpt lat="43.28509" lon="3.05667">
        <ele>37.4</ele>
        <time>2020-06-26T16:19:48Z</time>
      </trkpt>
      <trkpt lat="43.28507" lon="3.0567">
        <ele>37.6</ele>
        <time>2020-06-26T16:19:47Z</time>
      </trkpt>
      <trkpt lat="43.28503" lon="3.05672">
        <ele>37.6</ele>
        <time>2020-06-26T16:19:46Z</time>
      </trkpt>
      <trkpt lat="43.28497" lon="3.05676">
        <ele>37.4</ele>
        <time>2020-06-26T16:19:45Z</time>
      </trkpt>
      <trkpt lat="43.28494" lon="3.05677">
        <ele>37.4</ele>
        <time>2020-06-26T16:19:43Z</time>
      </trkpt>
      <trkpt lat="43.2849" lon="3.05679">
        <ele>37.6</ele>
        <time>2020-06-26T16:19:42Z</time>
      </trkpt>
      <trkpt lat="43.28487" lon="3.05682">
        <ele>37.6</ele>
        <time>2020-06-26T16:19:41Z</time>
      </trkpt>
      <trkpt lat="43.28483" lon="3.05683">
        <ele>37.6</ele>
        <time>2020-06-26T16:19:40Z</time>
      </trkpt>
      <trkpt lat="43.2848" lon="3.05686">
        <ele>37.6</ele>
        <time>2020-06-26T16:19:39Z</time>
      </trkpt>
      <trkpt lat="43.28477" lon="3.05688">
        <ele>37.6</ele>
        <time>2020-06-26T16:19:38Z</time>
      </trkpt>
      <trkpt lat="43.28474" lon="3.0569">
        <ele>37.6</ele>
        <time>2020-06-26T16:19:37Z</time>
      </trkpt>
      <trkpt lat="43.28471" lon="3.05692">
        <ele>37.6</ele>
        <time>2020-06-26T16:19:36Z</time>
      </trkpt>
      <trkpt lat="43.28469" lon="3.05694">
        <ele>37.4</ele>
        <time>2020-06-26T16:19:35Z</time>
      </trkpt>
      <trkpt lat="43.28467" lon="3.05695">
        <ele>37.4</ele>
        <time>2020-06-26T16:19:34Z</time>
      </trkpt>
      <trkpt lat="43.28466" lon="3.05698">
        <ele>37.4</ele>
        <time>2020-06-26T16:19:33Z</time>
      </trkpt>
      <trkpt lat="43.28465" lon="3.05697">
        <ele>37.6</ele>
        <time>2020-06-26T16:19:32Z</time>
      </trkpt>
      <trkpt lat="43.28463" lon="3.05698">
        <ele>37.6</ele>
        <time>2020-06-26T16:19:31Z</time>
      </trkpt>
      <trkpt lat="43.2846" lon="3.05697">
        <ele>37.6</ele>
        <time>2020-06-26T16:19:30Z</time>
      </trkpt>
      <trkpt lat="43.2846" lon="3.05696">
        <ele>37.6</ele>
        <time>2020-06-26T16:19:29Z</time>
      </trkpt>
      <trkpt lat="43.28459" lon="3.05696">
        <ele>37.6</ele>
        <time>2020-06-26T16:19:27Z</time>
      </trkpt>
      <trkpt lat="43.28458" lon="3.05703">
        <ele>37.8</ele>
        <time>2020-06-26T16:19:11Z</time>
      </trkpt>
      <trkpt lat="43.28457" lon="3.05705">
        <ele>37.8</ele>
        <time>2020-06-26T16:19:10Z</time>
      </trkpt>
      <trkpt lat="43.28456" lon="3.05705">
        <ele>37.8</ele>
        <time>2020-06-26T16:19:09Z</time>
      </trkpt>
      <trkpt lat="43.28455" lon="3.05705">
        <ele>37.8</ele>
        <time>2020-06-26T16:19:08Z</time>
      </trkpt>
      <trkpt lat="43.28453" lon="3.05706">
        <ele>37.8</ele>
        <time>2020-06-26T16:19:07Z</time>
      </trkpt>
      <trkpt lat="43.28453" lon="3.05705">
        <ele>37.8</ele>
        <time>2020-06-26T16:19:06Z</time>
      </trkpt>
      <trkpt lat="43.28455" lon="3.05704">
        <ele>37.8</ele>
        <time>2020-06-26T16:19:05Z</time>
      </trkpt>
      <trkpt lat="43.28456" lon="3.05704">
        <ele>37.6</ele>
        <time>2020-06-26T16:19:04Z</time>
      </trkpt>
      <trkpt lat="43.28455" lon="3.05704">
        <ele>37.6</ele>
        <time>2020-06-26T16:19:03Z</time>
      </trkpt>
      <trkpt lat="43.28456" lon="3.05705">
        <ele>37.6</ele>
        <time>2020-06-26T16:19:02Z</time>
      </trkpt>
      <trkpt lat="43.28457" lon="3.05705">
        <ele>37.8</ele>
        <time>2020-06-26T16:19:01Z</time>
      </trkpt>
      <trkpt lat="43.28456" lon="3.05705">
        <ele>38</ele>
        <time>2020-06-26T16:19:00Z</time>
      </trkpt>
      <trkpt lat="43.28454" lon="3.05706">
        <ele>38</ele>
        <time>2020-06-26T16:18:59Z</time>
      </trkpt>
      <trkpt lat="43.28452" lon="3.05707">
        <ele>38</ele>
        <time>2020-06-26T16:18:58Z</time>
      </trkpt>
      <trkpt lat="43.2845" lon="3.05709">
        <ele>38</ele>
        <time>2020-06-26T16:18:57Z</time>
      </trkpt>
      <trkpt lat="43.28446" lon="3.0571">
        <ele>38</ele>
        <time>2020-06-26T16:18:56Z</time>
      </trkpt>
      <trkpt lat="43.28442" lon="3.05712">
        <ele>38</ele>
        <time>2020-06-26T16:18:55Z</time>
      </trkpt>
      <trkpt lat="43.28438" lon="3.05713">
        <ele>38</ele>
        <time>2020-06-26T16:18:54Z</time>
      </trkpt>
      <trkpt lat="43.28435" lon="3.05715">
        <ele>38</ele>
        <time>2020-06-26T16:18:53Z</time>
      </trkpt>
      <trkpt lat="43.28433" lon="3.05717">
        <ele>38</ele>
        <time>2020-06-26T16:18:52Z</time>
      </trkpt>
      <trkpt lat="43.28431" lon="3.05719">
        <ele>38</ele>
        <time>2020-06-26T16:18:51Z</time>
      </trkpt>
      <trkpt lat="43.28427" lon="3.05722">
        <ele>38</ele>
        <time>2020-06-26T16:18:50Z</time>
      </trkpt>
      <trkpt lat="43.28425" lon="3.05723">
        <ele>38</ele>
        <time>2020-06-26T16:18:49Z</time>
      </trkpt>
      <trkpt lat="43.28422" lon="3.05724">
        <ele>38</ele>
        <time>2020-06-26T16:18:48Z</time>
      </trkpt>
      <trkpt lat="43.28419" lon="3.05726">
        <ele>38</ele>
        <time>2020-06-26T16:18:47Z</time>
      </trkpt>
      <trkpt lat="43.28415" lon="3.05728">
        <ele>38</ele>
        <time>2020-06-26T16:18:46Z</time>
      </trkpt>
      <trkpt lat="43.28412" lon="3.05729">
        <ele>38</ele>
        <time>2020-06-26T16:18:45Z</time>
      </trkpt>
      <trkpt lat="43.28408" lon="3.05731">
        <ele>38</ele>
        <time>2020-06-26T16:18:44Z</time>
      </trkpt>
      <trkpt lat="43.28405" lon="3.05733">
        <ele>38</ele>
        <time>2020-06-26T16:18:43Z</time>
      </trkpt>
      <trkpt lat="43.28402" lon="3.05736">
        <ele>38.2</ele>
        <time>2020-06-26T16:18:42Z</time>
      </trkpt>
      <trkpt lat="43.28399" lon="3.05738">
        <ele>38.2</ele>
        <time>2020-06-26T16:18:41Z</time>
      </trkpt>
      <trkpt lat="43.28396" lon="3.05739">
        <ele>38.2</ele>
        <time>2020-06-26T16:18:40Z</time>
      </trkpt>
      <trkpt lat="43.28394" lon="3.0574">
        <ele>38.2</ele>
        <time>2020-06-26T16:18:39Z</time>
      </trkpt>
      <trkpt lat="43.28394" lon="3.05741">
        <ele>38.4</ele>
        <time>2020-06-26T16:18:38Z</time>
      </trkpt>
      <trkpt lat="43.2839" lon="3.05743">
        <ele>38.4</ele>
        <time>2020-06-26T16:18:37Z</time>
      </trkpt>
      <trkpt lat="43.28386" lon="3.05745">
        <ele>38.6</ele>
        <time>2020-06-26T16:18:36Z</time>
      </trkpt>
      <trkpt lat="43.28383" lon="3.05749">
        <ele>38.6</ele>
        <time>2020-06-26T16:18:35Z</time>
      </trkpt>
      <trkpt lat="43.2838" lon="3.05751">
        <ele>38.2</ele>
        <time>2020-06-26T16:18:34Z</time>
      </trkpt>
      <trkpt lat="43.28376" lon="3.05753">
        <ele>38</ele>
        <time>2020-06-26T16:18:33Z</time>
      </trkpt>
      <trkpt lat="43.28374" lon="3.05755">
        <ele>38.2</ele>
        <time>2020-06-26T16:18:32Z</time>
      </trkpt>
      <trkpt lat="43.28371" lon="3.05757">
        <ele>38.2</ele>
        <time>2020-06-26T16:18:31Z</time>
      </trkpt>
      <trkpt lat="43.28368" lon="3.05758">
        <ele>38</ele>
        <time>2020-06-26T16:18:30Z</time>
      </trkpt>
      <trkpt lat="43.28364" lon="3.05761">
        <ele>38</ele>
        <time>2020-06-26T16:18:29Z</time>
      </trkpt>
      <trkpt lat="43.2836" lon="3.05763">
        <ele>38</ele>
        <time>2020-06-26T16:18:28Z</time>
      </trkpt>
      <trkpt lat="43.28357" lon="3.05764">
        <ele>37.8</ele>
        <time>2020-06-26T16:18:27Z</time>
      </trkpt>
      <trkpt lat="43.28354" lon="3.05767">
        <ele>38</ele>
        <time>2020-06-26T16:18:26Z</time>
      </trkpt>
      <trkpt lat="43.2835" lon="3.05769">
        <ele>38</ele>
        <time>2020-06-26T16:18:25Z</time>
      </trkpt>
      <trkpt lat="43.28347" lon="3.0577">
        <ele>38.2</ele>
        <time>2020-06-26T16:18:24Z</time>
      </trkpt>
      <trkpt lat="43.28344" lon="3.05772">
        <ele>38.2</ele>
        <time>2020-06-26T16:18:23Z</time>
      </trkpt>
      <trkpt lat="43.28342" lon="3.05774">
        <ele>38.4</ele>
        <time>2020-06-26T16:18:22Z</time>
      </trkpt>
      <trkpt lat="43.28339" lon="3.05775">
        <ele>38.2</ele>
        <time>2020-06-26T16:18:21Z</time>
      </trkpt>
      <trkpt lat="43.28336" lon="3.05779">
        <ele>38.2</ele>
        <time>2020-06-26T16:18:20Z</time>
      </trkpt>
      <trkpt lat="43.28333" lon="3.0578">
        <ele>38.2</ele>
        <time>2020-06-26T16:18:19Z</time>
      </trkpt>
      <trkpt lat="43.2833" lon="3.05781">
        <ele>38.2</ele>
        <time>2020-06-26T16:18:18Z</time>
      </trkpt>
      <trkpt lat="43.28328" lon="3.05783">
        <ele>38</ele>
        <time>2020-06-26T16:18:17Z</time>
      </trkpt>
      <trkpt lat="43.28325" lon="3.05785">
        <ele>38.2</ele>
        <time>2020-06-26T16:18:16Z</time>
      </trkpt>
      <trkpt lat="43.28323" lon="3.05788">
        <ele>38.2</ele>
        <time>2020-06-26T16:18:15Z</time>
      </trkpt>
      <trkpt lat="43.28319" lon="3.0579">
        <ele>38.2</ele>
        <time>2020-06-26T16:18:14Z</time>
      </trkpt>
      <trkpt lat="43.28317" lon="3.05792">
        <ele>38.2</ele>
        <time>2020-06-26T16:18:13Z</time>
      </trkpt>
      <trkpt lat="43.28314" lon="3.05793">
        <ele>38.2</ele>
        <time>2020-06-26T16:18:12Z</time>
      </trkpt>
      <trkpt lat="43.28312" lon="3.05794">
        <ele>38</ele>
        <time>2020-06-26T16:18:11Z</time>
      </trkpt>
      <trkpt lat="43.28311" lon="3.05795">
        <ele>38</ele>
        <time>2020-06-26T16:18:10Z</time>
      </trkpt>
      <trkpt lat="43.2831" lon="3.05795">
        <ele>38</ele>
        <time>2020-06-26T16:18:09Z</time>
      </trkpt>
      <trkpt lat="43.28308" lon="3.05797">
        <ele>38</ele>
        <time>2020-06-26T16:18:08Z</time>
      </trkpt>
      <trkpt lat="43.28305" lon="3.05798">
        <ele>38</ele>
        <time>2020-06-26T16:18:07Z</time>
      </trkpt>
      <trkpt lat="43.28303" lon="3.05798">
        <ele>38</ele>
        <time>2020-06-26T16:18:06Z</time>
      </trkpt>
      <trkpt lat="43.283" lon="3.05801">
        <ele>38</ele>
        <time>2020-06-26T16:18:05Z</time>
      </trkpt>
      <trkpt lat="43.28297" lon="3.05802">
        <ele>38</ele>
        <time>2020-06-26T16:18:04Z</time>
      </trkpt>
      <trkpt lat="43.28295" lon="3.05802">
        <ele>37.8</ele>
        <time>2020-06-26T16:18:03Z</time>
      </trkpt>
      <trkpt lat="43.28292" lon="3.05804">
        <ele>37.8</ele>
        <time>2020-06-26T16:18:02Z</time>
      </trkpt>
      <trkpt lat="43.28288" lon="3.05806">
        <ele>37.8</ele>
        <time>2020-06-26T16:18:01Z</time>
      </trkpt>
      <trkpt lat="43.28287" lon="3.05807">
        <ele>37.8</ele>
        <time>2020-06-26T16:18:00Z</time>
      </trkpt>
      <trkpt lat="43.28285" lon="3.05809">
        <ele>37.8</ele>
        <time>2020-06-26T16:17:59Z</time>
      </trkpt>
      <trkpt lat="43.28284" lon="3.0581">
        <ele>37.8</ele>
        <time>2020-06-26T16:17:58Z</time>
      </trkpt>
      <trkpt lat="43.28283" lon="3.05812">
        <ele>37.8</ele>
        <time>2020-06-26T16:17:57Z</time>
      </trkpt>
      <trkpt lat="43.28282" lon="3.05813">
        <ele>37.8</ele>
        <time>2020-06-26T16:17:56Z</time>
      </trkpt>
      <trkpt lat="43.28278" lon="3.05814">
        <ele>37.8</ele>
        <time>2020-06-26T16:17:55Z</time>
      </trkpt>
      <trkpt lat="43.28275" lon="3.05817">
        <ele>37.6</ele>
        <time>2020-06-26T16:17:54Z</time>
      </trkpt>
      <trkpt lat="43.28273" lon="3.05819">
        <ele>37.6</ele>
        <time>2020-06-26T16:17:53Z</time>
      </trkpt>
      <trkpt lat="43.28271" lon="3.0582">
        <ele>37.6</ele>
        <time>2020-06-26T16:17:52Z</time>
      </trkpt>
      <trkpt lat="43.28268" lon="3.05822">
        <ele>37.6</ele>
        <time>2020-06-26T16:17:51Z</time>
      </trkpt>
      <trkpt lat="43.28265" lon="3.05824">
        <ele>37.6</ele>
        <time>2020-06-26T16:17:50Z</time>
      </trkpt>
      <trkpt lat="43.28263" lon="3.05826">
        <ele>37.8</ele>
        <time>2020-06-26T16:17:49Z</time>
      </trkpt>
      <trkpt lat="43.28262" lon="3.05828">
        <ele>37.8</ele>
        <time>2020-06-26T16:17:48Z</time>
      </trkpt>
      <trkpt lat="43.2826" lon="3.0583">
        <ele>37.8</ele>
        <time>2020-06-26T16:17:47Z</time>
      </trkpt>
      <trkpt lat="43.28258" lon="3.05831">
        <ele>37.8</ele>
        <time>2020-06-26T16:17:46Z</time>
      </trkpt>
      <trkpt lat="43.28257" lon="3.05831">
        <ele>37.8</ele>
        <time>2020-06-26T16:17:45Z</time>
      </trkpt>
      <trkpt lat="43.28255" lon="3.05832">
        <ele>37.8</ele>
        <time>2020-06-26T16:17:44Z</time>
      </trkpt>
      <trkpt lat="43.28252" lon="3.05834">
        <ele>37.8</ele>
        <time>2020-06-26T16:17:43Z</time>
      </trkpt>
      <trkpt lat="43.28249" lon="3.05835">
        <ele>37.8</ele>
        <time>2020-06-26T16:17:42Z</time>
      </trkpt>
      <trkpt lat="43.28245" lon="3.05836">
        <ele>37.8</ele>
        <time>2020-06-26T16:17:41Z</time>
      </trkpt>
      <trkpt lat="43.28242" lon="3.05839">
        <ele>37.8</ele>
        <time>2020-06-26T16:17:40Z</time>
      </trkpt>
      <trkpt lat="43.28239" lon="3.05841">
        <ele>37.8</ele>
        <time>2020-06-26T16:17:39Z</time>
      </trkpt>
      <trkpt lat="43.28235" lon="3.05846">
        <ele>37.8</ele>
        <time>2020-06-26T16:17:38Z</time>
      </trkpt>
      <trkpt lat="43.28233" lon="3.05848">
        <ele>37.8</ele>
        <time>2020-06-26T16:17:37Z</time>
      </trkpt>
      <trkpt lat="43.28232" lon="3.05846">
        <ele>37.8</ele>
        <time>2020-06-26T16:17:36Z</time>
      </trkpt>
      <trkpt lat="43.28229" lon="3.05846">
        <ele>37.8</ele>
        <time>2020-06-26T16:17:35Z</time>
      </trkpt>
      <trkpt lat="43.28226" lon="3.05847">
        <ele>37.8</ele>
        <time>2020-06-26T16:17:34Z</time>
      </trkpt>
      <trkpt lat="43.28223" lon="3.05847">
        <ele>37.8</ele>
        <time>2020-06-26T16:17:33Z</time>
      </trkpt>
      <trkpt lat="43.28221" lon="3.0585">
        <ele>37.8</ele>
        <time>2020-06-26T16:17:32Z</time>
      </trkpt>
      <trkpt lat="43.2822" lon="3.05853">
        <ele>38</ele>
        <time>2020-06-26T16:17:31Z</time>
      </trkpt>
      <trkpt lat="43.28219" lon="3.05854">
        <ele>37.8</ele>
        <time>2020-06-26T16:17:30Z</time>
      </trkpt>
      <trkpt lat="43.28216" lon="3.05856">
        <ele>38</ele>
        <time>2020-06-26T16:17:29Z</time>
      </trkpt>
      <trkpt lat="43.28214" lon="3.05858">
        <ele>37.8</ele>
        <time>2020-06-26T16:17:28Z</time>
      </trkpt>
      <trkpt lat="43.28213" lon="3.0586">
        <ele>38</ele>
        <time>2020-06-26T16:17:27Z</time>
      </trkpt>
      <trkpt lat="43.28212" lon="3.05861">
        <ele>38</ele>
        <time>2020-06-26T16:17:26Z</time>
      </trkpt>
      <trkpt lat="43.28211" lon="3.05862">
        <ele>38</ele>
        <time>2020-06-26T16:17:25Z</time>
      </trkpt>
      <trkpt lat="43.28209" lon="3.05862">
        <ele>38</ele>
        <time>2020-06-26T16:17:24Z</time>
      </trkpt>
      <trkpt lat="43.28207" lon="3.05862">
        <ele>38</ele>
        <time>2020-06-26T16:17:23Z</time>
      </trkpt>
      <trkpt lat="43.28205" lon="3.05862">
        <ele>38</ele>
        <time>2020-06-26T16:17:22Z</time>
      </trkpt>
      <trkpt lat="43.28204" lon="3.05862">
        <ele>38</ele>
        <time>2020-06-26T16:17:21Z</time>
      </trkpt>
      <trkpt lat="43.28202" lon="3.05861">
        <ele>38</ele>
        <time>2020-06-26T16:17:20Z</time>
      </trkpt>
      <trkpt lat="43.28199" lon="3.0586">
        <ele>38</ele>
        <time>2020-06-26T16:17:19Z</time>
      </trkpt>
      <trkpt lat="43.28198" lon="3.0586">
        <ele>38</ele>
        <time>2020-06-26T16:17:18Z</time>
      </trkpt>
      <trkpt lat="43.28196" lon="3.05859">
        <ele>38</ele>
        <time>2020-06-26T16:17:17Z</time>
      </trkpt>
      <trkpt lat="43.28194" lon="3.05859">
        <ele>38</ele>
        <time>2020-06-26T16:17:16Z</time>
      </trkpt>
      <trkpt lat="43.28192" lon="3.05858">
        <ele>38</ele>
        <time>2020-06-26T16:17:15Z</time>
      </trkpt>
      <trkpt lat="43.28191" lon="3.05859">
        <ele>37.8</ele>
        <time>2020-06-26T16:17:14Z</time>
      </trkpt>
      <trkpt lat="43.28189" lon="3.05858">
        <ele>37.8</ele>
        <time>2020-06-26T16:17:13Z</time>
      </trkpt>
      <trkpt lat="43.28188" lon="3.05858">
        <ele>38</ele>
        <time>2020-06-26T16:17:12Z</time>
      </trkpt>
      <trkpt lat="43.28185" lon="3.05859">
        <ele>38</ele>
        <time>2020-06-26T16:17:11Z</time>
      </trkpt>
      <trkpt lat="43.28184" lon="3.0586">
        <ele>37.6</ele>
        <time>2020-06-26T16:17:10Z</time>
      </trkpt>
      <trkpt lat="43.28184" lon="3.05863">
        <ele>37.6</ele>
        <time>2020-06-26T16:17:09Z</time>
      </trkpt>
      <trkpt lat="43.28183" lon="3.05865">
        <ele>37.4</ele>
        <time>2020-06-26T16:17:08Z</time>
      </trkpt>
      <trkpt lat="43.28182" lon="3.05867">
        <ele>37.4</ele>
        <time>2020-06-26T16:17:07Z</time>
      </trkpt>
      <trkpt lat="43.28182" lon="3.05867">
        <ele>37.4</ele>
        <time>2020-06-26T16:17:06Z</time>
      </trkpt>
      <trkpt lat="43.28182" lon="3.05868">
        <ele>37.4</ele>
        <time>2020-06-26T16:17:05Z</time>
      </trkpt>
      <trkpt lat="43.28183" lon="3.05869">
        <ele>37.4</ele>
        <time>2020-06-26T16:17:04Z</time>
      </trkpt>
      <trkpt lat="43.28184" lon="3.05871">
        <ele>37.4</ele>
        <time>2020-06-26T16:17:03Z</time>
      </trkpt>
      <trkpt lat="43.28183" lon="3.05872">
        <ele>37.4</ele>
        <time>2020-06-26T16:17:02Z</time>
      </trkpt>
      <trkpt lat="43.28183" lon="3.05874">
        <ele>37.4</ele>
        <time>2020-06-26T16:17:01Z</time>
      </trkpt>
      <trkpt lat="43.2818" lon="3.05873">
        <ele>37.4</ele>
        <time>2020-06-26T16:17:00Z</time>
      </trkpt>
      <trkpt lat="43.2818" lon="3.05874">
        <ele>37.4</ele>
        <time>2020-06-26T16:16:59Z</time>
      </trkpt>
      <trkpt lat="43.28178" lon="3.05874">
        <ele>37.4</ele>
        <time>2020-06-26T16:16:58Z</time>
      </trkpt>
      <trkpt lat="43.28177" lon="3.05877">
        <ele>37.4</ele>
        <time>2020-06-26T16:16:57Z</time>
      </trkpt>
      <trkpt lat="43.28178" lon="3.05877">
        <ele>37.6</ele>
        <time>2020-06-26T16:16:56Z</time>
      </trkpt>
      <trkpt lat="43.28178" lon="3.05877">
        <ele>37.6</ele>
        <time>2020-06-26T16:16:55Z</time>
      </trkpt>
      <trkpt lat="43.28179" lon="3.05876">
        <ele>37.6</ele>
        <time>2020-06-26T16:16:54Z</time>
      </trkpt>
      <trkpt lat="43.28179" lon="3.05877">
        <ele>37.6</ele>
        <time>2020-06-26T16:16:53Z</time>
      </trkpt>
      <trkpt lat="43.28179" lon="3.05877">
        <ele>37.6</ele>
        <time>2020-06-26T16:16:52Z</time>
      </trkpt>
      <trkpt lat="43.28179" lon="3.05879">
        <ele>37.6</ele>
        <time>2020-06-26T16:16:51Z</time>
      </trkpt>
      <trkpt lat="43.28178" lon="3.0588">
        <ele>37.6</ele>
        <time>2020-06-26T16:16:50Z</time>
      </trkpt>
      <trkpt lat="43.28178" lon="3.0588">
        <ele>37.6</ele>
        <time>2020-06-26T16:16:49Z</time>
      </trkpt>
      <trkpt lat="43.28177" lon="3.05879">
        <ele>37.6</ele>
        <time>2020-06-26T16:16:48Z</time>
      </trkpt>
      <trkpt lat="43.28179" lon="3.05878">
        <ele>37.4</ele>
        <time>2020-06-26T16:16:17Z</time>
      </trkpt>
      <trkpt lat="43.28178" lon="3.05877">
        <ele>37.4</ele>
        <time>2020-06-26T16:16:16Z</time>
      </trkpt>
      <trkpt lat="43.28178" lon="3.05876">
        <ele>37.4</ele>
        <time>2020-06-26T16:16:15Z</time>
      </trkpt>
      <trkpt lat="43.28178" lon="3.05876">
        <ele>37.4</ele>
        <time>2020-06-26T16:16:14Z</time>
      </trkpt>
      <trkpt lat="43.28178" lon="3.05876">
        <ele>37.2</ele>
        <time>2020-06-26T16:16:13Z</time>
      </trkpt>
      <trkpt lat="43.28177" lon="3.05877">
        <ele>37.4</ele>
        <time>2020-06-26T16:16:12Z</time>
      </trkpt>
      <trkpt lat="43.28178" lon="3.05877">
        <ele>37.2</ele>
        <time>2020-06-26T16:16:11Z</time>
      </trkpt>
      <trkpt lat="43.28176" lon="3.05878">
        <ele>37.2</ele>
        <time>2020-06-26T16:16:10Z</time>
      </trkpt>
      <trkpt lat="43.28176" lon="3.05879">
        <ele>37.2</ele>
        <time>2020-06-26T16:16:09Z</time>
      </trkpt>
      <trkpt lat="43.28176" lon="3.0588">
        <ele>37.2</ele>
        <time>2020-06-26T16:16:08Z</time>
      </trkpt>
      <trkpt lat="43.28175" lon="3.05882">
        <ele>37.2</ele>
        <time>2020-06-26T16:16:07Z</time>
      </trkpt>
      <trkpt lat="43.28175" lon="3.05883">
        <ele>37.4</ele>
        <time>2020-06-26T16:16:06Z</time>
      </trkpt>
      <trkpt lat="43.28175" lon="3.05883">
        <ele>37.4</ele>
        <time>2020-06-26T16:16:05Z</time>
      </trkpt>
      <trkpt lat="43.28175" lon="3.05884">
        <ele>37.4</ele>
        <time>2020-06-26T16:16:04Z</time>
      </trkpt>
      <trkpt lat="43.28175" lon="3.05885">
        <ele>37.4</ele>
        <time>2020-06-26T16:16:03Z</time>
      </trkpt>
      <trkpt lat="43.28175" lon="3.05884">
        <ele>37.4</ele>
        <time>2020-06-26T16:16:02Z</time>
      </trkpt>
      <trkpt lat="43.28175" lon="3.05885">
        <ele>37.4</ele>
        <time>2020-06-26T16:16:01Z</time>
      </trkpt>
      <trkpt lat="43.28175" lon="3.05886">
        <ele>37.6</ele>
        <time>2020-06-26T16:16:00Z</time>
      </trkpt>
      <trkpt lat="43.28176" lon="3.05886">
        <ele>37.6</ele>
        <time>2020-06-26T16:15:59Z</time>
      </trkpt>
      <trkpt lat="43.28177" lon="3.05886">
        <ele>37.6</ele>
        <time>2020-06-26T16:15:58Z</time>
      </trkpt>
      <trkpt lat="43.28178" lon="3.05888">
        <ele>37.6</ele>
        <time>2020-06-26T16:15:57Z</time>
      </trkpt>
      <trkpt lat="43.28179" lon="3.05888">
        <ele>37.6</ele>
        <time>2020-06-26T16:15:56Z</time>
      </trkpt>
      <trkpt lat="43.2818" lon="3.05889">
        <ele>37.4</ele>
        <time>2020-06-26T16:15:55Z</time>
      </trkpt>
      <trkpt lat="43.2818" lon="3.05889">
        <ele>37.4</ele>
        <time>2020-06-26T16:15:54Z</time>
      </trkpt>
      <trkpt lat="43.28179" lon="3.05889">
        <ele>37.4</ele>
        <time>2020-06-26T16:15:53Z</time>
      </trkpt>
      <trkpt lat="43.28179" lon="3.0589">
        <ele>37.2</ele>
        <time>2020-06-26T16:15:52Z</time>
      </trkpt>
      <trkpt lat="43.2818" lon="3.05892">
        <ele>37.2</ele>
        <time>2020-06-26T16:15:51Z</time>
      </trkpt>
      <trkpt lat="43.2818" lon="3.05892">
        <ele>37.2</ele>
        <time>2020-06-26T16:15:50Z</time>
      </trkpt>
      <trkpt lat="43.2818" lon="3.05895">
        <ele>37.2</ele>
        <time>2020-06-26T16:15:49Z</time>
      </trkpt>
      <trkpt lat="43.28179" lon="3.05895">
        <ele>37.2</ele>
        <time>2020-06-26T16:15:48Z</time>
      </trkpt>
      <trkpt lat="43.28178" lon="3.05895">
        <ele>36.6</ele>
        <time>2020-06-26T16:14:35Z</time>
      </trkpt>
      <trkpt lat="43.28178" lon="3.05894">
        <ele>36.6</ele>
        <time>2020-06-26T16:14:34Z</time>
      </trkpt>
      <trkpt lat="43.28178" lon="3.05895">
        <ele>36.8</ele>
        <time>2020-06-26T16:14:33Z</time>
      </trkpt>
      <trkpt lat="43.2818" lon="3.05896">
        <ele>36.8</ele>
        <time>2020-06-26T16:14:32Z</time>
      </trkpt>
      <trkpt lat="43.28181" lon="3.05896">
        <ele>36.8</ele>
        <time>2020-06-26T16:14:31Z</time>
      </trkpt>
      <trkpt lat="43.2818" lon="3.05897">
        <ele>36.8</ele>
        <time>2020-06-26T16:14:30Z</time>
      </trkpt>
      <trkpt lat="43.2818" lon="3.05895">
        <ele>36.6</ele>
        <time>2020-06-26T16:14:29Z</time>
      </trkpt>
      <trkpt lat="43.2818" lon="3.05896">
        <ele>36.6</ele>
        <time>2020-06-26T16:14:28Z</time>
      </trkpt>
      <trkpt lat="43.28179" lon="3.05898">
        <ele>36.6</ele>
        <time>2020-06-26T16:14:27Z</time>
      </trkpt>
      <trkpt lat="43.2818" lon="3.05898">
        <ele>36.6</ele>
        <time>2020-06-26T16:14:26Z</time>
      </trkpt>
      <trkpt lat="43.2818" lon="3.05897">
        <ele>36.6</ele>
        <time>2020-06-26T16:14:25Z</time>
      </trkpt>
      <trkpt lat="43.2818" lon="3.05891">
        <ele>35.8</ele>
        <time>2020-06-26T16:13:17Z</time>
      </trkpt>
      <trkpt lat="43.28181" lon="3.05891">
        <ele>35.8</ele>
        <time>2020-06-26T16:13:16Z</time>
      </trkpt>
      <trkpt lat="43.28181" lon="3.05889">
        <ele>35.8</ele>
        <time>2020-06-26T16:13:15Z</time>
      </trkpt>
      <trkpt lat="43.28182" lon="3.0589">
        <ele>35.8</ele>
        <time>2020-06-26T16:13:14Z</time>
      </trkpt>
      <trkpt lat="43.28183" lon="3.05891">
        <ele>35.8</ele>
        <time>2020-06-26T16:13:13Z</time>
      </trkpt>
      <trkpt lat="43.28185" lon="3.05892">
        <ele>36</ele>
        <time>2020-06-26T16:13:12Z</time>
      </trkpt>
      <trkpt lat="43.28185" lon="3.05892">
        <ele>35.8</ele>
        <time>2020-06-26T16:13:11Z</time>
      </trkpt>
      <trkpt lat="43.28184" lon="3.05892">
        <ele>36</ele>
        <time>2020-06-26T16:13:10Z</time>
      </trkpt>
      <trkpt lat="43.28185" lon="3.05892">
        <ele>36</ele>
        <time>2020-06-26T16:13:09Z</time>
      </trkpt>
      <trkpt lat="43.28184" lon="3.05892">
        <ele>36</ele>
        <time>2020-06-26T16:13:08Z</time>
      </trkpt>
      <trkpt lat="43.28183" lon="3.05893">
        <ele>36</ele>
        <time>2020-06-26T16:13:07Z</time>
      </trkpt>
      <trkpt lat="43.28182" lon="3.05894">
        <ele>36</ele>
        <time>2020-06-26T16:13:06Z</time>
      </trkpt>
      <trkpt lat="43.28182" lon="3.05894">
        <ele>36</ele>
        <time>2020-06-26T16:13:05Z</time>
      </trkpt>
      <trkpt lat="43.28182" lon="3.05896">
        <ele>36.2</ele>
        <time>2020-06-26T16:13:04Z</time>
      </trkpt>
      <trkpt lat="43.2818" lon="3.05894">
        <ele>36.2</ele>
        <time>2020-06-26T16:13:03Z</time>
      </trkpt>
      <trkpt lat="43.28179" lon="3.05891">
        <ele>36.2</ele>
        <time>2020-06-26T16:13:02Z</time>
      </trkpt>
      <trkpt lat="43.28179" lon="3.05888">
        <ele>36.4</ele>
        <time>2020-06-26T16:13:01Z</time>
      </trkpt>
      <trkpt lat="43.28179" lon="3.05888">
        <ele>36</ele>
        <time>2020-06-26T16:13:00Z</time>
      </trkpt>
      <trkpt lat="43.28178" lon="3.05886">
        <ele>36</ele>
        <time>2020-06-26T16:12:59Z</time>
      </trkpt>
      <trkpt lat="43.28178" lon="3.05884">
        <ele>36</ele>
        <time>2020-06-26T16:12:58Z</time>
      </trkpt>
      <trkpt lat="43.28178" lon="3.05882">
        <ele>35.8</ele>
        <time>2020-06-26T16:12:57Z</time>
      </trkpt>
      <trkpt lat="43.28178" lon="3.05881">
        <ele>35.8</ele>
        <time>2020-06-26T16:12:56Z</time>
      </trkpt>
      <trkpt lat="43.28179" lon="3.05882">
        <ele>35.8</ele>
        <time>2020-06-26T16:12:55Z</time>
      </trkpt>
      <trkpt lat="43.28177" lon="3.05878">
        <ele>35.8</ele>
        <time>2020-06-26T16:12:54Z</time>
      </trkpt>
      <trkpt lat="43.28178" lon="3.05878">
        <ele>35.8</ele>
        <time>2020-06-26T16:12:53Z</time>
      </trkpt>
      <trkpt lat="43.28179" lon="3.05876">
        <ele>35.8</ele>
        <time>2020-06-26T16:12:52Z</time>
      </trkpt>
      <trkpt lat="43.28181" lon="3.05875">
        <ele>35.8</ele>
        <time>2020-06-26T16:12:51Z</time>
      </trkpt>
      <trkpt lat="43.28177" lon="3.05874">
        <ele>36</ele>
        <time>2020-06-26T16:12:41Z</time>
      </trkpt>
      <trkpt lat="43.28177" lon="3.05873">
        <ele>36</ele>
        <time>2020-06-26T16:12:40Z</time>
      </trkpt>
      <trkpt lat="43.28178" lon="3.05873">
        <ele>36</ele>
        <time>2020-06-26T16:12:39Z</time>
      </trkpt>
      <trkpt lat="43.28176" lon="3.05873">
        <ele>36</ele>
        <time>2020-06-26T16:12:38Z</time>
      </trkpt>
      <trkpt lat="43.28177" lon="3.05872">
        <ele>36</ele>
        <time>2020-06-26T16:12:37Z</time>
      </trkpt>
      <trkpt lat="43.28177" lon="3.05871">
        <ele>36</ele>
        <time>2020-06-26T16:12:36Z</time>
      </trkpt>
      <trkpt lat="43.28177" lon="3.05874">
        <ele>35.8</ele>
        <time>2020-06-26T16:12:35Z</time>
      </trkpt>
      <trkpt lat="43.28177" lon="3.05874">
        <ele>35.8</ele>
        <time>2020-06-26T16:12:34Z</time>
      </trkpt>
      <trkpt lat="43.28176" lon="3.05875">
        <ele>35.8</ele>
        <time>2020-06-26T16:12:33Z</time>
      </trkpt>
      <trkpt lat="43.28176" lon="3.05875">
        <ele>35.8</ele>
        <time>2020-06-26T16:12:32Z</time>
      </trkpt>
      <trkpt lat="43.28174" lon="3.05874">
        <ele>35.8</ele>
        <time>2020-06-26T16:12:31Z</time>
      </trkpt>
      <trkpt lat="43.28181" lon="3.05869">
        <ele>36</ele>
        <time>2020-06-26T16:12:00Z</time>
      </trkpt>
      <trkpt lat="43.2818" lon="3.0587">
        <ele>36</ele>
        <time>2020-06-26T16:11:59Z</time>
      </trkpt>
      <trkpt lat="43.2818" lon="3.0587">
        <ele>36</ele>
        <time>2020-06-26T16:11:58Z</time>
      </trkpt>
      <trkpt lat="43.2818" lon="3.05868">
        <ele>36</ele>
        <time>2020-06-26T16:11:57Z</time>
      </trkpt>
      <trkpt lat="43.28182" lon="3.05868">
        <ele>36</ele>
        <time>2020-06-26T16:11:56Z</time>
      </trkpt>
      <trkpt lat="43.28181" lon="3.05866">
        <ele>36</ele>
        <time>2020-06-26T16:11:55Z</time>
      </trkpt>
      <trkpt lat="43.28181" lon="3.05866">
        <ele>36</ele>
        <time>2020-06-26T16:11:54Z</time>
      </trkpt>
      <trkpt lat="43.28181" lon="3.05865">
        <ele>36</ele>
        <time>2020-06-26T16:11:53Z</time>
      </trkpt>
      <trkpt lat="43.28182" lon="3.05865">
        <ele>36</ele>
        <time>2020-06-26T16:11:52Z</time>
      </trkpt>
      <trkpt lat="43.28181" lon="3.05866">
        <ele>36</ele>
        <time>2020-06-26T16:11:51Z</time>
      </trkpt>
      <trkpt lat="43.2818" lon="3.05868">
        <ele>36</ele>
        <time>2020-06-26T16:11:50Z</time>
      </trkpt>
      <trkpt lat="43.2818" lon="3.05869">
        <ele>36</ele>
        <time>2020-06-26T16:11:49Z</time>
      </trkpt>
      <trkpt lat="43.28181" lon="3.05869">
        <ele>36</ele>
        <time>2020-06-26T16:11:48Z</time>
      </trkpt>
      <trkpt lat="43.28181" lon="3.0587">
        <ele>36</ele>
        <time>2020-06-26T16:11:47Z</time>
      </trkpt>
      <trkpt lat="43.2818" lon="3.05872">
        <ele>36</ele>
        <time>2020-06-26T16:11:46Z</time>
      </trkpt>
      <trkpt lat="43.28182" lon="3.05873">
        <ele>36</ele>
        <time>2020-06-26T16:11:45Z</time>
      </trkpt>
      <trkpt lat="43.2818" lon="3.05874">
        <ele>36</ele>
        <time>2020-06-26T16:11:44Z</time>
      </trkpt>
      <trkpt lat="43.2818" lon="3.05873">
        <ele>36</ele>
        <time>2020-06-26T16:11:43Z</time>
      </trkpt>
      <trkpt lat="43.28179" lon="3.05871">
        <ele>37</ele>
        <time>2020-06-26T16:10:30Z</time>
      </trkpt>
      <trkpt lat="43.28179" lon="3.0587">
        <ele>37</ele>
        <time>2020-06-26T16:10:29Z</time>
      </trkpt>
      <trkpt lat="43.28179" lon="3.0587">
        <ele>36.8</ele>
        <time>2020-06-26T16:10:28Z</time>
      </trkpt>
      <trkpt lat="43.28179" lon="3.05869">
        <ele>36.8</ele>
        <time>2020-06-26T16:10:27Z</time>
      </trkpt>
      <trkpt lat="43.28179" lon="3.0587">
        <ele>36.8</ele>
        <time>2020-06-26T16:10:26Z</time>
      </trkpt>
      <trkpt lat="43.28178" lon="3.0587">
        <ele>36.8</ele>
        <time>2020-06-26T16:10:25Z</time>
      </trkpt>
      <trkpt lat="43.28179" lon="3.0587">
        <ele>36.8</ele>
        <time>2020-06-26T16:10:24Z</time>
      </trkpt>
      <trkpt lat="43.28179" lon="3.05869">
        <ele>36.8</ele>
        <time>2020-06-26T16:10:23Z</time>
      </trkpt>
      <trkpt lat="43.28179" lon="3.05868">
        <ele>36.8</ele>
        <time>2020-06-26T16:10:22Z</time>
      </trkpt>
      <trkpt lat="43.28178" lon="3.05867">
        <ele>36.8</ele>
        <time>2020-06-26T16:10:21Z</time>
      </trkpt>
      <trkpt lat="43.28179" lon="3.05867">
        <ele>36.8</ele>
        <time>2020-06-26T16:10:20Z</time>
      </trkpt>
      <trkpt lat="43.28181" lon="3.05869">
        <ele>37</ele>
        <time>2020-06-26T16:09:48Z</time>
      </trkpt>
      <trkpt lat="43.28181" lon="3.0587">
        <ele>37</ele>
        <time>2020-06-26T16:09:47Z</time>
      </trkpt>
      <trkpt lat="43.28182" lon="3.0587">
        <ele>37</ele>
        <time>2020-06-26T16:09:46Z</time>
      </trkpt>
      <trkpt lat="43.28181" lon="3.0587">
        <ele>37</ele>
        <time>2020-06-26T16:09:45Z</time>
      </trkpt>
      <trkpt lat="43.28181" lon="3.0587">
        <ele>37</ele>
        <time>2020-06-26T16:09:44Z</time>
      </trkpt>
      <trkpt lat="43.28181" lon="3.05869">
        <ele>37</ele>
        <time>2020-06-26T16:09:43Z</time>
      </trkpt>
      <trkpt lat="43.28181" lon="3.05869">
        <ele>37</ele>
        <time>2020-06-26T16:09:42Z</time>
      </trkpt>
      <trkpt lat="43.2818" lon="3.0587">
        <ele>37.2</ele>
        <time>2020-06-26T16:09:41Z</time>
      </trkpt>
      <trkpt lat="43.28179" lon="3.05869">
        <ele>37.2</ele>
        <time>2020-06-26T16:09:40Z</time>
      </trkpt>
      <trkpt lat="43.28179" lon="3.05868">
        <ele>37.4</ele>
        <time>2020-06-26T16:09:39Z</time>
      </trkpt>
      <trkpt lat="43.28178" lon="3.05868">
        <ele>37.2</ele>
        <time>2020-06-26T16:09:38Z</time>
      </trkpt>
      <trkpt lat="43.2818" lon="3.05867">
        <ele>37.2</ele>
        <time>2020-06-26T16:09:37Z</time>
      </trkpt>
      <trkpt lat="43.2818" lon="3.05867">
        <ele>37.2</ele>
        <time>2020-06-26T16:09:36Z</time>
      </trkpt>
      <trkpt lat="43.2818" lon="3.05865">
        <ele>37.2</ele>
        <time>2020-06-26T16:09:35Z</time>
      </trkpt>
      <trkpt lat="43.2818" lon="3.05864">
        <ele>37</ele>
        <time>2020-06-26T16:09:34Z</time>
      </trkpt>
      <trkpt lat="43.28181" lon="3.05862">
        <ele>37</ele>
        <time>2020-06-26T16:09:33Z</time>
      </trkpt>
      <trkpt lat="43.28183" lon="3.05862">
        <ele>37</ele>
        <time>2020-06-26T16:09:32Z</time>
      </trkpt>
      <trkpt lat="43.28184" lon="3.0586">
        <ele>37.2</ele>
        <time>2020-06-26T16:09:31Z</time>
      </trkpt>
      <trkpt lat="43.28185" lon="3.05859">
        <ele>37</ele>
        <time>2020-06-26T16:09:30Z</time>
      </trkpt>
      <trkpt lat="43.28188" lon="3.05858">
        <ele>37</ele>
        <time>2020-06-26T16:09:29Z</time>
      </trkpt>
      <trkpt lat="43.2819" lon="3.05857">
        <ele>37.2</ele>
        <time>2020-06-26T16:09:28Z</time>
      </trkpt>
      <trkpt lat="43.28193" lon="3.05855">
        <ele>37.2</ele>
        <time>2020-06-26T16:09:27Z</time>
      </trkpt>
      <trkpt lat="43.28196" lon="3.05854">
        <ele>37.2</ele>
        <time>2020-06-26T16:09:26Z</time>
      </trkpt>
      <trkpt lat="43.28197" lon="3.05854">
        <ele>37.2</ele>
        <time>2020-06-26T16:09:25Z</time>
      </trkpt>
      <trkpt lat="43.28198" lon="3.05856">
        <ele>37.2</ele>
        <time>2020-06-26T16:09:24Z</time>
      </trkpt>
      <trkpt lat="43.282" lon="3.05856">
        <ele>37</ele>
        <time>2020-06-26T16:09:23Z</time>
      </trkpt>
      <trkpt lat="43.28202" lon="3.05857">
        <ele>37</ele>
        <time>2020-06-26T16:09:22Z</time>
      </trkpt>
      <trkpt lat="43.28201" lon="3.05857">
        <ele>37</ele>
        <time>2020-06-26T16:09:21Z</time>
      </trkpt>
      <trkpt lat="43.28203" lon="3.05858">
        <ele>37</ele>
        <time>2020-06-26T16:09:20Z</time>
      </trkpt>
      <trkpt lat="43.28204" lon="3.05858">
        <ele>37</ele>
        <time>2020-06-26T16:09:19Z</time>
      </trkpt>
      <trkpt lat="43.28207" lon="3.05859">
        <ele>37.2</ele>
        <time>2020-06-26T16:09:18Z</time>
      </trkpt>
      <trkpt lat="43.2821" lon="3.05858">
        <ele>37.2</ele>
        <time>2020-06-26T16:09:17Z</time>
      </trkpt>
      <trkpt lat="43.28212" lon="3.05859">
        <ele>37.2</ele>
        <time>2020-06-26T16:09:16Z</time>
      </trkpt>
      <trkpt lat="43.28212" lon="3.05858">
        <ele>37.4</ele>
        <time>2020-06-26T16:09:15Z</time>
      </trkpt>
      <trkpt lat="43.28213" lon="3.05856">
        <ele>37.2</ele>
        <time>2020-06-26T16:09:14Z</time>
      </trkpt>
      <trkpt lat="43.28213" lon="3.05855">
        <ele>37.2</ele>
        <time>2020-06-26T16:09:13Z</time>
      </trkpt>
      <trkpt lat="43.28215" lon="3.05853">
        <ele>37</ele>
        <time>2020-06-26T16:09:12Z</time>
      </trkpt>
      <trkpt lat="43.28217" lon="3.05854">
        <ele>37</ele>
        <time>2020-06-26T16:09:11Z</time>
      </trkpt>
      <trkpt lat="43.28218" lon="3.05853">
        <ele>37</ele>
        <time>2020-06-26T16:09:10Z</time>
      </trkpt>
      <trkpt lat="43.28218" lon="3.05853">
        <ele>37</ele>
        <time>2020-06-26T16:09:09Z</time>
      </trkpt>
      <trkpt lat="43.28219" lon="3.05853">
        <ele>37</ele>
        <time>2020-06-26T16:09:08Z</time>
      </trkpt>
      <trkpt lat="43.28217" lon="3.05854">
        <ele>37.2</ele>
        <time>2020-06-26T16:08:35Z</time>
      </trkpt>
      <trkpt lat="43.28218" lon="3.05853">
        <ele>37.2</ele>
        <time>2020-06-26T16:08:34Z</time>
      </trkpt>
      <trkpt lat="43.28217" lon="3.05853">
        <ele>37.2</ele>
        <time>2020-06-26T16:08:33Z</time>
      </trkpt>
      <trkpt lat="43.28216" lon="3.05853">
        <ele>37.2</ele>
        <time>2020-06-26T16:08:32Z</time>
      </trkpt>
      <trkpt lat="43.28215" lon="3.05854">
        <ele>37.2</ele>
        <time>2020-06-26T16:08:31Z</time>
      </trkpt>
      <trkpt lat="43.28215" lon="3.05853">
        <ele>37.2</ele>
        <time>2020-06-26T16:08:30Z</time>
      </trkpt>
      <trkpt lat="43.28215" lon="3.05853">
        <ele>37</ele>
        <time>2020-06-26T16:08:29Z</time>
      </trkpt>
      <trkpt lat="43.28215" lon="3.05852">
        <ele>37.2</ele>
        <time>2020-06-26T16:08:28Z</time>
      </trkpt>
      <trkpt lat="43.28215" lon="3.05851">
        <ele>37</ele>
        <time>2020-06-26T16:08:27Z</time>
      </trkpt>
      <trkpt lat="43.28216" lon="3.05852">
        <ele>37</ele>
        <time>2020-06-26T16:08:26Z</time>
      </trkpt>
      <trkpt lat="43.28215" lon="3.05852">
        <ele>37.2</ele>
        <time>2020-06-26T16:08:25Z</time>
      </trkpt>
      <trkpt lat="43.28214" lon="3.05853">
        <ele>37.2</ele>
        <time>2020-06-26T16:08:24Z</time>
      </trkpt>
      <trkpt lat="43.28213" lon="3.05855">
        <ele>37.2</ele>
        <time>2020-06-26T16:08:23Z</time>
      </trkpt>
      <trkpt lat="43.28212" lon="3.05855">
        <ele>37.2</ele>
        <time>2020-06-26T16:08:22Z</time>
      </trkpt>
      <trkpt lat="43.28211" lon="3.05856">
        <ele>37.2</ele>
        <time>2020-06-26T16:08:21Z</time>
      </trkpt>
      <trkpt lat="43.28211" lon="3.05857">
        <ele>37.2</ele>
        <time>2020-06-26T16:08:20Z</time>
      </trkpt>
      <trkpt lat="43.28208" lon="3.05859">
        <ele>37.2</ele>
        <time>2020-06-26T16:08:19Z</time>
      </trkpt>
      <trkpt lat="43.28206" lon="3.05861">
        <ele>37.2</ele>
        <time>2020-06-26T16:08:18Z</time>
      </trkpt>
      <trkpt lat="43.28205" lon="3.0586">
        <ele>37.2</ele>
        <time>2020-06-26T16:08:17Z</time>
      </trkpt>
      <trkpt lat="43.28202" lon="3.05861">
        <ele>37.2</ele>
        <time>2020-06-26T16:08:16Z</time>
      </trkpt>
      <trkpt lat="43.28199" lon="3.0586">
        <ele>37.2</ele>
        <time>2020-06-26T16:08:15Z</time>
      </trkpt>
      <trkpt lat="43.28197" lon="3.05859">
        <ele>37.2</ele>
        <time>2020-06-26T16:08:14Z</time>
      </trkpt>
      <trkpt lat="43.28196" lon="3.05858">
        <ele>37.2</ele>
        <time>2020-06-26T16:08:13Z</time>
      </trkpt>
      <trkpt lat="43.28195" lon="3.05856">
        <ele>37</ele>
        <time>2020-06-26T16:08:12Z</time>
      </trkpt>
      <trkpt lat="43.28192" lon="3.05853">
        <ele>37</ele>
        <time>2020-06-26T16:08:11Z</time>
      </trkpt>
      <trkpt lat="43.28191" lon="3.05852">
        <ele>37</ele>
        <time>2020-06-26T16:08:10Z</time>
      </trkpt>
      <trkpt lat="43.28189" lon="3.05852">
        <ele>37</ele>
        <time>2020-06-26T16:08:09Z</time>
      </trkpt>
      <trkpt lat="43.28187" lon="3.05851">
        <ele>36.8</ele>
        <time>2020-06-26T16:08:08Z</time>
      </trkpt>
      <trkpt lat="43.28185" lon="3.05851">
        <ele>36.8</ele>
        <time>2020-06-26T16:08:07Z</time>
      </trkpt>
      <trkpt lat="43.28183" lon="3.05852">
        <ele>36.8</ele>
        <time>2020-06-26T16:08:06Z</time>
      </trkpt>
      <trkpt lat="43.28182" lon="3.05854">
        <ele>36.8</ele>
        <time>2020-06-26T16:08:05Z</time>
      </trkpt>
      <trkpt lat="43.28181" lon="3.05859">
        <ele>36.8</ele>
        <time>2020-06-26T16:08:04Z</time>
      </trkpt>
      <trkpt lat="43.28179" lon="3.05862">
        <ele>36.8</ele>
        <time>2020-06-26T16:08:03Z</time>
      </trkpt>
      <trkpt lat="43.28178" lon="3.05866">
        <ele>37</ele>
        <time>2020-06-26T16:08:02Z</time>
      </trkpt>
      <trkpt lat="43.28179" lon="3.05869">
        <ele>37</ele>
        <time>2020-06-26T16:08:01Z</time>
      </trkpt>
      <trkpt lat="43.28178" lon="3.05873">
        <ele>37</ele>
        <time>2020-06-26T16:08:00Z</time>
      </trkpt>
      <trkpt lat="43.28177" lon="3.05875">
        <ele>37</ele>
        <time>2020-06-26T16:07:59Z</time>
      </trkpt>
      <trkpt lat="43.28179" lon="3.05879">
        <ele>37.2</ele>
        <time>2020-06-26T16:07:58Z</time>
      </trkpt>
      <trkpt lat="43.28178" lon="3.05882">
        <ele>37.4</ele>
        <time>2020-06-26T16:07:57Z</time>
      </trkpt>
      <trkpt lat="43.28179" lon="3.05885">
        <ele>37.4</ele>
        <time>2020-06-26T16:07:56Z</time>
      </trkpt>
      <trkpt lat="43.28178" lon="3.05889">
        <ele>37.4</ele>
        <time>2020-06-26T16:07:55Z</time>
      </trkpt>
      <trkpt lat="43.28178" lon="3.05892">
        <ele>37.4</ele>
        <time>2020-06-26T16:07:54Z</time>
      </trkpt>
      <trkpt lat="43.28179" lon="3.05896">
        <ele>37.4</ele>
        <time>2020-06-26T16:07:53Z</time>
      </trkpt>
      <trkpt lat="43.2818" lon="3.059">
        <ele>37.2</ele>
        <time>2020-06-26T16:07:52Z</time>
      </trkpt>
      <trkpt lat="43.28181" lon="3.05903">
        <ele>37</ele>
        <time>2020-06-26T16:07:51Z</time>
      </trkpt>
      <trkpt lat="43.28183" lon="3.05907">
        <ele>37</ele>
        <time>2020-06-26T16:07:50Z</time>
      </trkpt>
      <trkpt lat="43.28185" lon="3.05912">
        <ele>37</ele>
        <time>2020-06-26T16:07:49Z</time>
      </trkpt>
      <trkpt lat="43.28187" lon="3.05913">
        <ele>37</ele>
        <time>2020-06-26T16:07:48Z</time>
      </trkpt>
      <trkpt lat="43.2819" lon="3.05916">
        <ele>37</ele>
        <time>2020-06-26T16:07:47Z</time>
      </trkpt>
      <trkpt lat="43.28192" lon="3.05919">
        <ele>37</ele>
        <time>2020-06-26T16:07:46Z</time>
      </trkpt>
      <trkpt lat="43.28194" lon="3.05922">
        <ele>37</ele>
        <time>2020-06-26T16:07:45Z</time>
      </trkpt>
      <trkpt lat="43.28195" lon="3.05926">
        <ele>37</ele>
        <time>2020-06-26T16:07:44Z</time>
      </trkpt>
      <trkpt lat="43.28197" lon="3.05929">
        <ele>37.2</ele>
        <time>2020-06-26T16:07:43Z</time>
      </trkpt>
      <trkpt lat="43.28198" lon="3.05934">
        <ele>37.2</ele>
        <time>2020-06-26T16:07:42Z</time>
      </trkpt>
      <trkpt lat="43.28202" lon="3.05939">
        <ele>37.2</ele>
        <time>2020-06-26T16:07:41Z</time>
      </trkpt>
      <trkpt lat="43.28203" lon="3.05942">
        <ele>37</ele>
        <time>2020-06-26T16:07:40Z</time>
      </trkpt>
      <trkpt lat="43.28205" lon="3.05948">
        <ele>37</ele>
        <time>2020-06-26T16:07:39Z</time>
      </trkpt>
      <trkpt lat="43.28208" lon="3.05953">
        <ele>37</ele>
        <time>2020-06-26T16:07:38Z</time>
      </trkpt>
      <trkpt lat="43.28211" lon="3.05958">
        <ele>36.8</ele>
        <time>2020-06-26T16:07:37Z</time>
      </trkpt>
      <trkpt lat="43.28212" lon="3.05963">
        <ele>36.8</ele>
        <time>2020-06-26T16:07:36Z</time>
      </trkpt>
      <trkpt lat="43.28214" lon="3.05968">
        <ele>36.8</ele>
        <time>2020-06-26T16:07:35Z</time>
      </trkpt>
      <trkpt lat="43.28216" lon="3.05971">
        <ele>36.8</ele>
        <time>2020-06-26T16:07:34Z</time>
      </trkpt>
      <trkpt lat="43.28218" lon="3.05975">
        <ele>36.8</ele>
        <time>2020-06-26T16:07:33Z</time>
      </trkpt>
      <trkpt lat="43.28219" lon="3.05979">
        <ele>36.8</ele>
        <time>2020-06-26T16:07:32Z</time>
      </trkpt>
      <trkpt lat="43.28221" lon="3.05984">
        <ele>36.8</ele>
        <time>2020-06-26T16:07:31Z</time>
      </trkpt>
      <trkpt lat="43.28222" lon="3.05989">
        <ele>36.8</ele>
        <time>2020-06-26T16:07:30Z</time>
      </trkpt>
      <trkpt lat="43.28224" lon="3.05994">
        <ele>36.8</ele>
        <time>2020-06-26T16:07:29Z</time>
      </trkpt>
      <trkpt lat="43.28225" lon="3.05998">
        <ele>36.8</ele>
        <time>2020-06-26T16:07:28Z</time>
      </trkpt>
      <trkpt lat="43.28228" lon="3.06003">
        <ele>36.8</ele>
        <time>2020-06-26T16:07:27Z</time>
      </trkpt>
      <trkpt lat="43.2823" lon="3.06008">
        <ele>36.8</ele>
        <time>2020-06-26T16:07:26Z</time>
      </trkpt>
      <trkpt lat="43.28232" lon="3.06012">
        <ele>36.8</ele>
        <time>2020-06-26T16:07:25Z</time>
      </trkpt>
      <trkpt lat="43.28235" lon="3.06016">
        <ele>36.8</ele>
        <time>2020-06-26T16:07:24Z</time>
      </trkpt>
      <trkpt lat="43.28236" lon="3.0602">
        <ele>36.8</ele>
        <time>2020-06-26T16:07:23Z</time>
      </trkpt>
      <trkpt lat="43.28238" lon="3.06024">
        <ele>36.8</ele>
        <time>2020-06-26T16:07:22Z</time>
      </trkpt>
      <trkpt lat="43.28239" lon="3.0603">
        <ele>36.8</ele>
        <time>2020-06-26T16:07:21Z</time>
      </trkpt>
      <trkpt lat="43.28242" lon="3.06036">
        <ele>36.8</ele>
        <time>2020-06-26T16:07:20Z</time>
      </trkpt>
      <trkpt lat="43.28244" lon="3.06042">
        <ele>36.8</ele>
        <time>2020-06-26T16:07:19Z</time>
      </trkpt>
      <trkpt lat="43.28248" lon="3.06047">
        <ele>36.8</ele>
        <time>2020-06-26T16:07:18Z</time>
      </trkpt>
      <trkpt lat="43.2825" lon="3.06051">
        <ele>36.6</ele>
        <time>2020-06-26T16:07:17Z</time>
      </trkpt>
      <trkpt lat="43.28252" lon="3.06056">
        <ele>36.6</ele>
        <time>2020-06-26T16:07:16Z</time>
      </trkpt>
      <trkpt lat="43.28254" lon="3.06061">
        <ele>36.6</ele>
        <time>2020-06-26T16:07:15Z</time>
      </trkpt>
      <trkpt lat="43.28256" lon="3.06067">
        <ele>36.6</ele>
        <time>2020-06-26T16:07:14Z</time>
      </trkpt>
      <trkpt lat="43.28259" lon="3.06073">
        <ele>36.6</ele>
        <time>2020-06-26T16:07:13Z</time>
      </trkpt>
      <trkpt lat="43.28262" lon="3.06077">
        <ele>36.8</ele>
        <time>2020-06-26T16:07:12Z</time>
      </trkpt>
      <trkpt lat="43.28265" lon="3.06082">
        <ele>36.8</ele>
        <time>2020-06-26T16:07:11Z</time>
      </trkpt>
      <trkpt lat="43.28266" lon="3.06088">
        <ele>36.8</ele>
        <time>2020-06-26T16:07:10Z</time>
      </trkpt>
      <trkpt lat="43.28268" lon="3.06093">
        <ele>37</ele>
        <time>2020-06-26T16:07:09Z</time>
      </trkpt>
      <trkpt lat="43.2827" lon="3.06098">
        <ele>37</ele>
        <time>2020-06-26T16:07:08Z</time>
      </trkpt>
      <trkpt lat="43.28271" lon="3.06103">
        <ele>37</ele>
        <time>2020-06-26T16:07:07Z</time>
      </trkpt>
      <trkpt lat="43.28274" lon="3.06108">
        <ele>37</ele>
        <time>2020-06-26T16:07:06Z</time>
      </trkpt>
      <trkpt lat="43.28276" lon="3.06113">
        <ele>37.2</ele>
        <time>2020-06-26T16:07:05Z</time>
      </trkpt>
      <trkpt lat="43.28278" lon="3.06117">
        <ele>37.8</ele>
        <time>2020-06-26T16:07:04Z</time>
      </trkpt>
      <trkpt lat="43.2828" lon="3.06123">
        <ele>37.4</ele>
        <time>2020-06-26T16:07:03Z</time>
      </trkpt>
      <trkpt lat="43.28282" lon="3.06128">
        <ele>37.4</ele>
        <time>2020-06-26T16:07:02Z</time>
      </trkpt>
      <trkpt lat="43.28284" lon="3.06133">
        <ele>37.4</ele>
        <time>2020-06-26T16:07:01Z</time>
      </trkpt>
      <trkpt lat="43.28286" lon="3.06137">
        <ele>37.2</ele>
        <time>2020-06-26T16:07:00Z</time>
      </trkpt>
      <trkpt lat="43.28288" lon="3.06144">
        <ele>37.2</ele>
        <time>2020-06-26T16:06:59Z</time>
      </trkpt>
      <trkpt lat="43.2829" lon="3.06149">
        <ele>37.4</ele>
        <time>2020-06-26T16:06:58Z</time>
      </trkpt>
      <trkpt lat="43.28291" lon="3.06155">
        <ele>37.4</ele>
        <time>2020-06-26T16:06:57Z</time>
      </trkpt>
      <trkpt lat="43.28294" lon="3.0616">
        <ele>37.6</ele>
        <time>2020-06-26T16:06:56Z</time>
      </trkpt>
      <trkpt lat="43.28297" lon="3.06164">
        <ele>37.6</ele>
        <time>2020-06-26T16:06:55Z</time>
      </trkpt>
      <trkpt lat="43.28299" lon="3.06169">
        <ele>37.8</ele>
        <time>2020-06-26T16:06:54Z</time>
      </trkpt>
      <trkpt lat="43.28301" lon="3.06175">
        <ele>37.8</ele>
        <time>2020-06-26T16:06:53Z</time>
      </trkpt>
      <trkpt lat="43.28304" lon="3.06181">
        <ele>37.8</ele>
        <time>2020-06-26T16:06:52Z</time>
      </trkpt>
      <trkpt lat="43.28306" lon="3.06187">
        <ele>38</ele>
        <time>2020-06-26T16:06:51Z</time>
      </trkpt>
      <trkpt lat="43.28308" lon="3.06193">
        <ele>38</ele>
        <time>2020-06-26T16:06:50Z</time>
      </trkpt>
      <trkpt lat="43.2831" lon="3.06199">
        <ele>38</ele>
        <time>2020-06-26T16:06:49Z</time>
      </trkpt>
      <trkpt lat="43.28311" lon="3.06205">
        <ele>38.2</ele>
        <time>2020-06-26T16:06:48Z</time>
      </trkpt>
      <trkpt lat="43.28313" lon="3.06211">
        <ele>38.2</ele>
        <time>2020-06-26T16:06:47Z</time>
      </trkpt>
      <trkpt lat="43.28315" lon="3.06215">
        <ele>38.2</ele>
        <time>2020-06-26T16:06:46Z</time>
      </trkpt>
      <trkpt lat="43.28318" lon="3.0622">
        <ele>38.2</ele>
        <time>2020-06-26T16:06:45Z</time>
      </trkpt>
      <trkpt lat="43.28319" lon="3.06225">
        <ele>38.4</ele>
        <time>2020-06-26T16:06:44Z</time>
      </trkpt>
      <trkpt lat="43.28321" lon="3.06231">
        <ele>38.4</ele>
        <time>2020-06-26T16:06:43Z</time>
      </trkpt>
      <trkpt lat="43.28324" lon="3.06236">
        <ele>38.6</ele>
        <time>2020-06-26T16:06:42Z</time>
      </trkpt>
      <trkpt lat="43.28325" lon="3.06241">
        <ele>38.6</ele>
        <time>2020-06-26T16:06:41Z</time>
      </trkpt>
      <trkpt lat="43.28328" lon="3.06247">
        <ele>38.8</ele>
        <time>2020-06-26T16:06:40Z</time>
      </trkpt>
      <trkpt lat="43.28329" lon="3.06253">
        <ele>38.8</ele>
        <time>2020-06-26T16:06:39Z</time>
      </trkpt>
      <trkpt lat="43.28331" lon="3.06257">
        <ele>38.8</ele>
        <time>2020-06-26T16:06:38Z</time>
      </trkpt>
      <trkpt lat="43.28333" lon="3.06263">
        <ele>39</ele>
        <time>2020-06-26T16:06:37Z</time>
      </trkpt>
      <trkpt lat="43.28334" lon="3.06268">
        <ele>39</ele>
        <time>2020-06-26T16:06:36Z</time>
      </trkpt>
      <trkpt lat="43.28336" lon="3.06274">
        <ele>39.2</ele>
        <time>2020-06-26T16:06:35Z</time>
      </trkpt>
      <trkpt lat="43.28338" lon="3.0628">
        <ele>39.4</ele>
        <time>2020-06-26T16:06:34Z</time>
      </trkpt>
      <trkpt lat="43.28342" lon="3.06288">
        <ele>39.4</ele>
        <time>2020-06-26T16:06:33Z</time>
      </trkpt>
      <trkpt lat="43.28344" lon="3.06294">
        <ele>39.4</ele>
        <time>2020-06-26T16:06:32Z</time>
      </trkpt>
      <trkpt lat="43.28346" lon="3.06302">
        <ele>39.6</ele>
        <time>2020-06-26T16:06:31Z</time>
      </trkpt>
      <trkpt lat="43.28348" lon="3.06309">
        <ele>39.8</ele>
        <time>2020-06-26T16:06:30Z</time>
      </trkpt>
      <trkpt lat="43.28351" lon="3.06316">
        <ele>39.8</ele>
        <time>2020-06-26T16:06:29Z</time>
      </trkpt>
      <trkpt lat="43.28353" lon="3.06323">
        <ele>40</ele>
        <time>2020-06-26T16:06:28Z</time>
      </trkpt>
      <trkpt lat="43.28356" lon="3.0633">
        <ele>40</ele>
        <time>2020-06-26T16:06:27Z</time>
      </trkpt>
      <trkpt lat="43.28357" lon="3.06335">
        <ele>40.2</ele>
        <time>2020-06-26T16:06:26Z</time>
      </trkpt>
      <trkpt lat="43.28359" lon="3.06342">
        <ele>40.4</ele>
        <time>2020-06-26T16:06:25Z</time>
      </trkpt>
      <trkpt lat="43.28362" lon="3.06349">
        <ele>40.6</ele>
        <time>2020-06-26T16:06:24Z</time>
      </trkpt>
      <trkpt lat="43.28364" lon="3.06357">
        <ele>40.8</ele>
        <time>2020-06-26T16:06:23Z</time>
      </trkpt>
      <trkpt lat="43.28366" lon="3.06364">
        <ele>41</ele>
        <time>2020-06-26T16:06:22Z</time>
      </trkpt>
      <trkpt lat="43.28369" lon="3.06372">
        <ele>41.2</ele>
        <time>2020-06-26T16:06:21Z</time>
      </trkpt>
      <trkpt lat="43.28371" lon="3.06379">
        <ele>41.4</ele>
        <time>2020-06-26T16:06:20Z</time>
      </trkpt>
      <trkpt lat="43.28373" lon="3.06387">
        <ele>41.8</ele>
        <time>2020-06-26T16:06:19Z</time>
      </trkpt>
      <trkpt lat="43.28375" lon="3.06393">
        <ele>42</ele>
        <time>2020-06-26T16:06:18Z</time>
      </trkpt>
      <trkpt lat="43.28376" lon="3.06399">
        <ele>42.4</ele>
        <time>2020-06-26T16:06:17Z</time>
      </trkpt>
      <trkpt lat="43.28377" lon="3.06404">
        <ele>42.6</ele>
        <time>2020-06-26T16:06:16Z</time>
      </trkpt>
      <trkpt lat="43.28379" lon="3.0641">
        <ele>42.8</ele>
        <time>2020-06-26T16:06:15Z</time>
      </trkpt>
      <trkpt lat="43.28382" lon="3.06415">
        <ele>43</ele>
        <time>2020-06-26T16:06:14Z</time>
      </trkpt>
      <trkpt lat="43.28383" lon="3.06421">
        <ele>43.2</ele>
        <time>2020-06-26T16:06:13Z</time>
      </trkpt>
      <trkpt lat="43.28385" lon="3.06425">
        <ele>43.4</ele>
        <time>2020-06-26T16:06:12Z</time>
      </trkpt>
      <trkpt lat="43.28385" lon="3.06429">
        <ele>43.4</ele>
        <time>2020-06-26T16:06:11Z</time>
      </trkpt>
      <trkpt lat="43.28387" lon="3.06434">
        <ele>43.8</ele>
        <time>2020-06-26T16:06:10Z</time>
      </trkpt>
      <trkpt lat="43.28388" lon="3.06437">
        <ele>44.2</ele>
        <time>2020-06-26T16:06:09Z</time>
      </trkpt>
      <trkpt lat="43.2839" lon="3.06443">
        <ele>44.2</ele>
        <time>2020-06-26T16:06:08Z</time>
      </trkpt>
      <trkpt lat="43.28391" lon="3.06447">
        <ele>44.4</ele>
        <time>2020-06-26T16:06:07Z</time>
      </trkpt>
      <trkpt lat="43.28393" lon="3.06451">
        <ele>44.6</ele>
        <time>2020-06-26T16:06:06Z</time>
      </trkpt>
      <trkpt lat="43.28397" lon="3.06453">
        <ele>44.8</ele>
        <time>2020-06-26T16:06:05Z</time>
      </trkpt>
      <trkpt lat="43.28398" lon="3.06459">
        <ele>44.8</ele>
        <time>2020-06-26T16:06:04Z</time>
      </trkpt>
      <trkpt lat="43.284" lon="3.06463">
        <ele>45</ele>
        <time>2020-06-26T16:06:03Z</time>
      </trkpt>
      <trkpt lat="43.284" lon="3.06469">
        <ele>45.2</ele>
        <time>2020-06-26T16:06:02Z</time>
      </trkpt>
      <trkpt lat="43.28402" lon="3.06472">
        <ele>45.4</ele>
        <time>2020-06-26T16:06:01Z</time>
      </trkpt>
      <trkpt lat="43.28404" lon="3.06474">
        <ele>45.6</ele>
        <time>2020-06-26T16:06:00Z</time>
      </trkpt>
      <trkpt lat="43.28404" lon="3.06479">
        <ele>45.8</ele>
        <time>2020-06-26T16:05:59Z</time>
      </trkpt>
      <trkpt lat="43.28406" lon="3.06481">
        <ele>46</ele>
        <time>2020-06-26T16:05:58Z</time>
      </trkpt>
      <trkpt lat="43.28409" lon="3.06485">
        <ele>46.2</ele>
        <time>2020-06-26T16:05:57Z</time>
      </trkpt>
      <trkpt lat="43.28412" lon="3.06489">
        <ele>46.4</ele>
        <time>2020-06-26T16:05:56Z</time>
      </trkpt>
      <trkpt lat="43.28414" lon="3.06493">
        <ele>46.6</ele>
        <time>2020-06-26T16:05:55Z</time>
      </trkpt>
      <trkpt lat="43.28416" lon="3.06494">
        <ele>46.8</ele>
        <time>2020-06-26T16:05:54Z</time>
      </trkpt>
      <trkpt lat="43.28417" lon="3.06497">
        <ele>47</ele>
        <time>2020-06-26T16:05:53Z</time>
      </trkpt>
      <trkpt lat="43.2842" lon="3.06501">
        <ele>47.2</ele>
        <time>2020-06-26T16:05:52Z</time>
      </trkpt>
      <trkpt lat="43.28422" lon="3.06504">
        <ele>47.4</ele>
        <time>2020-06-26T16:05:51Z</time>
      </trkpt>
      <trkpt lat="43.28424" lon="3.06509">
        <ele>47.6</ele>
        <time>2020-06-26T16:05:50Z</time>
      </trkpt>
      <trkpt lat="43.28425" lon="3.06514">
        <ele>47.8</ele>
        <time>2020-06-26T16:05:49Z</time>
      </trkpt>
      <trkpt lat="43.28426" lon="3.06518">
        <ele>48</ele>
        <time>2020-06-26T16:05:48Z</time>
      </trkpt>
      <trkpt lat="43.28427" lon="3.06523">
        <ele>48.2</ele>
        <time>2020-06-26T16:05:47Z</time>
      </trkpt>
      <trkpt lat="43.28428" lon="3.06529">
        <ele>48.4</ele>
        <time>2020-06-26T16:05:46Z</time>
      </trkpt>
      <trkpt lat="43.2843" lon="3.06535">
        <ele>48.4</ele>
        <time>2020-06-26T16:05:45Z</time>
      </trkpt>
      <trkpt lat="43.28432" lon="3.0654">
        <ele>48.6</ele>
        <time>2020-06-26T16:05:44Z</time>
      </trkpt>
      <trkpt lat="43.28434" lon="3.06544">
        <ele>48.8</ele>
        <time>2020-06-26T16:05:43Z</time>
      </trkpt>
      <trkpt lat="43.28435" lon="3.06549">
        <ele>48.8</ele>
        <time>2020-06-26T16:05:42Z</time>
      </trkpt>
      <trkpt lat="43.28436" lon="3.06554">
        <ele>49</ele>
        <time>2020-06-26T16:05:41Z</time>
      </trkpt>
      <trkpt lat="43.28438" lon="3.06559">
        <ele>49</ele>
        <time>2020-06-26T16:05:40Z</time>
      </trkpt>
      <trkpt lat="43.28438" lon="3.06563">
        <ele>49.2</ele>
        <time>2020-06-26T16:05:39Z</time>
      </trkpt>
      <trkpt lat="43.28439" lon="3.06568">
        <ele>49.2</ele>
        <time>2020-06-26T16:05:38Z</time>
      </trkpt>
      <trkpt lat="43.2844" lon="3.06575">
        <ele>49.2</ele>
        <time>2020-06-26T16:05:37Z</time>
      </trkpt>
      <trkpt lat="43.28442" lon="3.06581">
        <ele>49.2</ele>
        <time>2020-06-26T16:05:36Z</time>
      </trkpt>
      <trkpt lat="43.28442" lon="3.06586">
        <ele>49.4</ele>
        <time>2020-06-26T16:05:35Z</time>
      </trkpt>
      <trkpt lat="43.28444" lon="3.06592">
        <ele>49.6</ele>
        <time>2020-06-26T16:05:34Z</time>
      </trkpt>
      <trkpt lat="43.28445" lon="3.06597">
        <ele>49.6</ele>
        <time>2020-06-26T16:05:33Z</time>
      </trkpt>
      <trkpt lat="43.28446" lon="3.066">
        <ele>49.6</ele>
        <time>2020-06-26T16:05:32Z</time>
      </trkpt>
      <trkpt lat="43.28447" lon="3.06606">
        <ele>49.8</ele>
        <time>2020-06-26T16:05:31Z</time>
      </trkpt>
      <trkpt lat="43.28449" lon="3.06612">
        <ele>49.8</ele>
        <time>2020-06-26T16:05:30Z</time>
      </trkpt>
      <trkpt lat="43.28449" lon="3.06616">
        <ele>49.8</ele>
        <time>2020-06-26T16:05:29Z</time>
      </trkpt>
      <trkpt lat="43.28451" lon="3.0662">
        <ele>49.8</ele>
        <time>2020-06-26T16:05:28Z</time>
      </trkpt>
      <trkpt lat="43.28453" lon="3.06626">
        <ele>49.8</ele>
        <time>2020-06-26T16:05:27Z</time>
      </trkpt>
      <trkpt lat="43.28455" lon="3.0663">
        <ele>49.8</ele>
        <time>2020-06-26T16:05:26Z</time>
      </trkpt>
      <trkpt lat="43.28456" lon="3.06635">
        <ele>50</ele>
        <time>2020-06-26T16:05:25Z</time>
      </trkpt>
      <trkpt lat="43.28458" lon="3.0664">
        <ele>50</ele>
        <time>2020-06-26T16:05:24Z</time>
      </trkpt>
      <trkpt lat="43.28459" lon="3.06645">
        <ele>50</ele>
        <time>2020-06-26T16:05:23Z</time>
      </trkpt>
      <trkpt lat="43.28461" lon="3.06649">
        <ele>50</ele>
        <time>2020-06-26T16:05:22Z</time>
      </trkpt>
      <trkpt lat="43.28464" lon="3.06654">
        <ele>50</ele>
        <time>2020-06-26T16:05:21Z</time>
      </trkpt>
      <trkpt lat="43.28466" lon="3.06659">
        <ele>50</ele>
        <time>2020-06-26T16:05:20Z</time>
      </trkpt>
      <trkpt lat="43.28468" lon="3.06664">
        <ele>50.2</ele>
        <time>2020-06-26T16:05:19Z</time>
      </trkpt>
      <trkpt lat="43.2847" lon="3.0667">
        <ele>50.2</ele>
        <time>2020-06-26T16:05:18Z</time>
      </trkpt>
      <trkpt lat="43.28472" lon="3.06674">
        <ele>50.4</ele>
        <time>2020-06-26T16:05:17Z</time>
      </trkpt>
      <trkpt lat="43.28473" lon="3.06678">
        <ele>50.4</ele>
        <time>2020-06-26T16:05:16Z</time>
      </trkpt>
      <trkpt lat="43.28475" lon="3.06683">
        <ele>50.6</ele>
        <time>2020-06-26T16:05:15Z</time>
      </trkpt>
      <trkpt lat="43.28476" lon="3.06687">
        <ele>50.6</ele>
        <time>2020-06-26T16:05:14Z</time>
      </trkpt>
      <trkpt lat="43.2848" lon="3.06694">
        <ele>50.6</ele>
        <time>2020-06-26T16:05:13Z</time>
      </trkpt>
      <trkpt lat="43.28482" lon="3.067">
        <ele>50.8</ele>
        <time>2020-06-26T16:05:12Z</time>
      </trkpt>
      <trkpt lat="43.28484" lon="3.06705">
        <ele>50.8</ele>
        <time>2020-06-26T16:05:11Z</time>
      </trkpt>
      <trkpt lat="43.28486" lon="3.06709">
        <ele>50.8</ele>
        <time>2020-06-26T16:05:10Z</time>
      </trkpt>
      <trkpt lat="43.28488" lon="3.06713">
        <ele>50.8</ele>
        <time>2020-06-26T16:05:09Z</time>
      </trkpt>
      <trkpt lat="43.28491" lon="3.06717">
        <ele>50.8</ele>
        <time>2020-06-26T16:05:08Z</time>
      </trkpt>
      <trkpt lat="43.28492" lon="3.06721">
        <ele>50.8</ele>
        <time>2020-06-26T16:05:07Z</time>
      </trkpt>
      <trkpt lat="43.28493" lon="3.06726">
        <ele>50.8</ele>
        <time>2020-06-26T16:05:06Z</time>
      </trkpt>
      <trkpt lat="43.28496" lon="3.0673">
        <ele>50.8</ele>
        <time>2020-06-26T16:05:05Z</time>
      </trkpt>
      <trkpt lat="43.28499" lon="3.06733">
        <ele>50.8</ele>
        <time>2020-06-26T16:05:04Z</time>
      </trkpt>
      <trkpt lat="43.285" lon="3.06736">
        <ele>50.8</ele>
        <time>2020-06-26T16:05:03Z</time>
      </trkpt>
      <trkpt lat="43.28502" lon="3.0674">
        <ele>50.8</ele>
        <time>2020-06-26T16:05:02Z</time>
      </trkpt>
      <trkpt lat="43.28503" lon="3.06745">
        <ele>50.8</ele>
        <time>2020-06-26T16:05:01Z</time>
      </trkpt>
      <trkpt lat="43.28506" lon="3.06749">
        <ele>50.8</ele>
        <time>2020-06-26T16:05:00Z</time>
      </trkpt>
      <trkpt lat="43.28508" lon="3.06753">
        <ele>50.6</ele>
        <time>2020-06-26T16:04:59Z</time>
      </trkpt>
      <trkpt lat="43.2851" lon="3.06758">
        <ele>50.6</ele>
        <time>2020-06-26T16:04:58Z</time>
      </trkpt>
      <trkpt lat="43.28511" lon="3.06763">
        <ele>50.6</ele>
        <time>2020-06-26T16:04:57Z</time>
      </trkpt>
      <trkpt lat="43.28513" lon="3.06768">
        <ele>50.6</ele>
        <time>2020-06-26T16:04:56Z</time>
      </trkpt>
      <trkpt lat="43.28515" lon="3.06772">
        <ele>50.6</ele>
        <time>2020-06-26T16:04:55Z</time>
      </trkpt>
      <trkpt lat="43.28517" lon="3.06777">
        <ele>50.6</ele>
        <time>2020-06-26T16:04:54Z</time>
      </trkpt>
      <trkpt lat="43.28518" lon="3.06781">
        <ele>50.6</ele>
        <time>2020-06-26T16:04:53Z</time>
      </trkpt>
      <trkpt lat="43.2852" lon="3.06786">
        <ele>50.8</ele>
        <time>2020-06-26T16:04:52Z</time>
      </trkpt>
      <trkpt lat="43.28521" lon="3.0679">
        <ele>50.8</ele>
        <time>2020-06-26T16:04:51Z</time>
      </trkpt>
      <trkpt lat="43.28522" lon="3.06794">
        <ele>50.8</ele>
        <time>2020-06-26T16:04:50Z</time>
      </trkpt>
      <trkpt lat="43.28523" lon="3.06798">
        <ele>50.8</ele>
        <time>2020-06-26T16:04:49Z</time>
      </trkpt>
      <trkpt lat="43.28524" lon="3.068">
        <ele>50.8</ele>
        <time>2020-06-26T16:04:48Z</time>
      </trkpt>
      <trkpt lat="43.28527" lon="3.06803">
        <ele>50.8</ele>
        <time>2020-06-26T16:04:47Z</time>
      </trkpt>
      <trkpt lat="43.28529" lon="3.06806">
        <ele>51</ele>
        <time>2020-06-26T16:04:46Z</time>
      </trkpt>
      <trkpt lat="43.28532" lon="3.0681">
        <ele>51</ele>
        <time>2020-06-26T16:04:45Z</time>
      </trkpt>
      <trkpt lat="43.28533" lon="3.06812">
        <ele>51</ele>
        <time>2020-06-26T16:04:44Z</time>
      </trkpt>
      <trkpt lat="43.28535" lon="3.06815">
        <ele>51</ele>
        <time>2020-06-26T16:04:43Z</time>
      </trkpt>
      <trkpt lat="43.28537" lon="3.06818">
        <ele>51</ele>
        <time>2020-06-26T16:04:42Z</time>
      </trkpt>
      <trkpt lat="43.28537" lon="3.0682">
        <ele>51</ele>
        <time>2020-06-26T16:04:41Z</time>
      </trkpt>
      <trkpt lat="43.28538" lon="3.06823">
        <ele>51</ele>
        <time>2020-06-26T16:04:40Z</time>
      </trkpt>
      <trkpt lat="43.28538" lon="3.06826">
        <ele>51</ele>
        <time>2020-06-26T16:04:39Z</time>
      </trkpt>
      <trkpt lat="43.2854" lon="3.06829">
        <ele>50.8</ele>
        <time>2020-06-26T16:04:38Z</time>
      </trkpt>
      <trkpt lat="43.28541" lon="3.06831">
        <ele>50.8</ele>
        <time>2020-06-26T16:04:37Z</time>
      </trkpt>
      <trkpt lat="43.28542" lon="3.06835">
        <ele>51</ele>
        <time>2020-06-26T16:04:36Z</time>
      </trkpt>
      <trkpt lat="43.28544" lon="3.06836">
        <ele>50.8</ele>
        <time>2020-06-26T16:04:35Z</time>
      </trkpt>
      <trkpt lat="43.28545" lon="3.06838">
        <ele>50.8</ele>
        <time>2020-06-26T16:04:34Z</time>
      </trkpt>
      <trkpt lat="43.28547" lon="3.0684">
        <ele>50.8</ele>
        <time>2020-06-26T16:04:33Z</time>
      </trkpt>
      <trkpt lat="43.28549" lon="3.06843">
        <ele>50.8</ele>
        <time>2020-06-26T16:04:32Z</time>
      </trkpt>
      <trkpt lat="43.2855" lon="3.06844">
        <ele>51</ele>
        <time>2020-06-26T16:04:31Z</time>
      </trkpt>
      <trkpt lat="43.28551" lon="3.06847">
        <ele>50.8</ele>
        <time>2020-06-26T16:04:30Z</time>
      </trkpt>
      <trkpt lat="43.28553" lon="3.06849">
        <ele>50.6</ele>
        <time>2020-06-26T16:04:29Z</time>
      </trkpt>
      <trkpt lat="43.28554" lon="3.06851">
        <ele>50.4</ele>
        <time>2020-06-26T16:04:28Z</time>
      </trkpt>
      <trkpt lat="43.28555" lon="3.06854">
        <ele>50.4</ele>
        <time>2020-06-26T16:04:27Z</time>
      </trkpt>
      <trkpt lat="43.28556" lon="3.06854">
        <ele>50.2</ele>
        <time>2020-06-26T16:04:26Z</time>
      </trkpt>
      <trkpt lat="43.28558" lon="3.06856">
        <ele>50.2</ele>
        <time>2020-06-26T16:04:25Z</time>
      </trkpt>
      <trkpt lat="43.2856" lon="3.06858">
        <ele>50</ele>
        <time>2020-06-26T16:04:24Z</time>
      </trkpt>
      <trkpt lat="43.28563" lon="3.0686">
        <ele>50</ele>
        <time>2020-06-26T16:04:23Z</time>
      </trkpt>
      <trkpt lat="43.28564" lon="3.06862">
        <ele>49.8</ele>
        <time>2020-06-26T16:04:22Z</time>
      </trkpt>
      <trkpt lat="43.28564" lon="3.06866">
        <ele>49.8</ele>
        <time>2020-06-26T16:04:21Z</time>
      </trkpt>
      <trkpt lat="43.28566" lon="3.06868">
        <ele>49.6</ele>
        <time>2020-06-26T16:04:20Z</time>
      </trkpt>
      <trkpt lat="43.28568" lon="3.06871">
        <ele>49.6</ele>
        <time>2020-06-26T16:04:19Z</time>
      </trkpt>
      <trkpt lat="43.28568" lon="3.06874">
        <ele>49.4</ele>
        <time>2020-06-26T16:04:18Z</time>
      </trkpt>
      <trkpt lat="43.28568" lon="3.06876">
        <ele>49.2</ele>
        <time>2020-06-26T16:04:17Z</time>
      </trkpt>
      <trkpt lat="43.28569" lon="3.06879">
        <ele>49.2</ele>
        <time>2020-06-26T16:04:16Z</time>
      </trkpt>
      <trkpt lat="43.2857" lon="3.06882">
        <ele>49</ele>
        <time>2020-06-26T16:04:15Z</time>
      </trkpt>
      <trkpt lat="43.28571" lon="3.06886">
        <ele>48.8</ele>
        <time>2020-06-26T16:04:14Z</time>
      </trkpt>
      <trkpt lat="43.28571" lon="3.06889">
        <ele>48.8</ele>
        <time>2020-06-26T16:04:13Z</time>
      </trkpt>
      <trkpt lat="43.28571" lon="3.06891">
        <ele>48.6</ele>
        <time>2020-06-26T16:04:12Z</time>
      </trkpt>
      <trkpt lat="43.28571" lon="3.06897">
        <ele>48.4</ele>
        <time>2020-06-26T16:04:11Z</time>
      </trkpt>
      <trkpt lat="43.28571" lon="3.069">
        <ele>48.2</ele>
        <time>2020-06-26T16:04:10Z</time>
      </trkpt>
      <trkpt lat="43.28573" lon="3.06904">
        <ele>48.2</ele>
        <time>2020-06-26T16:04:09Z</time>
      </trkpt>
      <trkpt lat="43.28574" lon="3.06906">
        <ele>48</ele>
        <time>2020-06-26T16:04:08Z</time>
      </trkpt>
      <trkpt lat="43.28576" lon="3.06908">
        <ele>48</ele>
        <time>2020-06-26T16:04:07Z</time>
      </trkpt>
      <trkpt lat="43.28577" lon="3.06909">
        <ele>48</ele>
        <time>2020-06-26T16:04:06Z</time>
      </trkpt>
      <trkpt lat="43.28577" lon="3.06913">
        <ele>47.8</ele>
        <time>2020-06-26T16:04:05Z</time>
      </trkpt>
      <trkpt lat="43.28578" lon="3.06914">
        <ele>47.8</ele>
        <time>2020-06-26T16:04:04Z</time>
      </trkpt>
      <trkpt lat="43.28579" lon="3.06916">
        <ele>47.8</ele>
        <time>2020-06-26T16:04:03Z</time>
      </trkpt>
      <trkpt lat="43.2858" lon="3.06918">
        <ele>47.6</ele>
        <time>2020-06-26T16:04:02Z</time>
      </trkpt>
      <trkpt lat="43.28582" lon="3.0692">
        <ele>47.4</ele>
        <time>2020-06-26T16:04:01Z</time>
      </trkpt>
      <trkpt lat="43.28583" lon="3.06923">
        <ele>47.4</ele>
        <time>2020-06-26T16:04:00Z</time>
      </trkpt>
      <trkpt lat="43.28584" lon="3.06925">
        <ele>47.2</ele>
        <time>2020-06-26T16:03:59Z</time>
      </trkpt>
      <trkpt lat="43.28587" lon="3.06927">
        <ele>47.2</ele>
        <time>2020-06-26T16:03:58Z</time>
      </trkpt>
      <trkpt lat="43.28587" lon="3.06929">
        <ele>47.2</ele>
        <time>2020-06-26T16:03:57Z</time>
      </trkpt>
      <trkpt lat="43.28589" lon="3.06931">
        <ele>47</ele>
        <time>2020-06-26T16:03:56Z</time>
      </trkpt>
      <trkpt lat="43.2859" lon="3.06932">
        <ele>47</ele>
        <time>2020-06-26T16:03:55Z</time>
      </trkpt>
      <trkpt lat="43.28592" lon="3.06933">
        <ele>46.8</ele>
        <time>2020-06-26T16:03:54Z</time>
      </trkpt>
      <trkpt lat="43.28594" lon="3.06933">
        <ele>46.6</ele>
        <time>2020-06-26T16:03:53Z</time>
      </trkpt>
      <trkpt lat="43.28596" lon="3.06933">
        <ele>46.6</ele>
        <time>2020-06-26T16:03:52Z</time>
      </trkpt>
      <trkpt lat="43.28597" lon="3.06934">
        <ele>46.6</ele>
        <time>2020-06-26T16:03:51Z</time>
      </trkpt>
      <trkpt lat="43.28598" lon="3.06934">
        <ele>46.2</ele>
        <time>2020-06-26T16:03:50Z</time>
      </trkpt>
      <trkpt lat="43.286" lon="3.06935">
        <ele>46.2</ele>
        <time>2020-06-26T16:03:49Z</time>
      </trkpt>
      <trkpt lat="43.28602" lon="3.06935">
        <ele>46</ele>
        <time>2020-06-26T16:03:48Z</time>
      </trkpt>
      <trkpt lat="43.28603" lon="3.06936">
        <ele>45.8</ele>
        <time>2020-06-26T16:03:47Z</time>
      </trkpt>
      <trkpt lat="43.28604" lon="3.06936">
        <ele>45.8</ele>
        <time>2020-06-26T16:03:46Z</time>
      </trkpt>
      <trkpt lat="43.28606" lon="3.06936">
        <ele>45.8</ele>
        <time>2020-06-26T16:03:45Z</time>
      </trkpt>
      <trkpt lat="43.28608" lon="3.06935">
        <ele>45.8</ele>
        <time>2020-06-26T16:03:44Z</time>
      </trkpt>
      <trkpt lat="43.28608" lon="3.06936">
        <ele>45.4</ele>
        <time>2020-06-26T16:03:43Z</time>
      </trkpt>
      <trkpt lat="43.2861" lon="3.06937">
        <ele>45.2</ele>
        <time>2020-06-26T16:03:42Z</time>
      </trkpt>
      <trkpt lat="43.28612" lon="3.06936">
        <ele>45.2</ele>
        <time>2020-06-26T16:03:41Z</time>
      </trkpt>
      <trkpt lat="43.28614" lon="3.06936">
        <ele>45</ele>
        <time>2020-06-26T16:03:40Z</time>
      </trkpt>
      <trkpt lat="43.28616" lon="3.06935">
        <ele>45</ele>
        <time>2020-06-26T16:03:39Z</time>
      </trkpt>
      <trkpt lat="43.28617" lon="3.06935">
        <ele>44.8</ele>
        <time>2020-06-26T16:03:38Z</time>
      </trkpt>
      <trkpt lat="43.28619" lon="3.06935">
        <ele>44.8</ele>
        <time>2020-06-26T16:03:37Z</time>
      </trkpt>
      <trkpt lat="43.28621" lon="3.06934">
        <ele>44.6</ele>
        <time>2020-06-26T16:03:36Z</time>
      </trkpt>
      <trkpt lat="43.28622" lon="3.06933">
        <ele>44.6</ele>
        <time>2020-06-26T16:03:35Z</time>
      </trkpt>
      <trkpt lat="43.28623" lon="3.06934">
        <ele>44.4</ele>
        <time>2020-06-26T16:03:34Z</time>
      </trkpt>
      <trkpt lat="43.28626" lon="3.06933">
        <ele>44.4</ele>
        <time>2020-06-26T16:03:33Z</time>
      </trkpt>
      <trkpt lat="43.28628" lon="3.06934">
        <ele>44.2</ele>
        <time>2020-06-26T16:03:32Z</time>
      </trkpt>
      <trkpt lat="43.28631" lon="3.06934">
        <ele>43.8</ele>
        <time>2020-06-26T16:03:31Z</time>
      </trkpt>
      <trkpt lat="43.28633" lon="3.06933">
        <ele>43.8</ele>
        <time>2020-06-26T16:03:30Z</time>
      </trkpt>
      <trkpt lat="43.28634" lon="3.06932">
        <ele>43.6</ele>
        <time>2020-06-26T16:03:29Z</time>
      </trkpt>
      <trkpt lat="43.28636" lon="3.06931">
        <ele>43.6</ele>
        <time>2020-06-26T16:03:28Z</time>
      </trkpt>
      <trkpt lat="43.28638" lon="3.0693">
        <ele>43.4</ele>
        <time>2020-06-26T16:03:27Z</time>
      </trkpt>
      <trkpt lat="43.2864" lon="3.0693">
        <ele>43.4</ele>
        <time>2020-06-26T16:03:26Z</time>
      </trkpt>
      <trkpt lat="43.28642" lon="3.0693">
        <ele>43.2</ele>
        <time>2020-06-26T16:03:25Z</time>
      </trkpt>
      <trkpt lat="43.28646" lon="3.0693">
        <ele>43</ele>
        <time>2020-06-26T16:03:24Z</time>
      </trkpt>
      <trkpt lat="43.28649" lon="3.0693">
        <ele>43</ele>
        <time>2020-06-26T16:03:23Z</time>
      </trkpt>
      <trkpt lat="43.28651" lon="3.06929">
        <ele>42.8</ele>
        <time>2020-06-26T16:03:22Z</time>
      </trkpt>
      <trkpt lat="43.28652" lon="3.06928">
        <ele>42.6</ele>
        <time>2020-06-26T16:03:21Z</time>
      </trkpt>
      <trkpt lat="43.28655" lon="3.06929">
        <ele>42.4</ele>
        <time>2020-06-26T16:03:20Z</time>
      </trkpt>
      <trkpt lat="43.28656" lon="3.06929">
        <ele>42.4</ele>
        <time>2020-06-26T16:03:19Z</time>
      </trkpt>
      <trkpt lat="43.28657" lon="3.06929">
        <ele>42.4</ele>
        <time>2020-06-26T16:03:18Z</time>
      </trkpt>
      <trkpt lat="43.2866" lon="3.06929">
        <ele>42.2</ele>
        <time>2020-06-26T16:03:17Z</time>
      </trkpt>
      <trkpt lat="43.28662" lon="3.06929">
        <ele>42</ele>
        <time>2020-06-26T16:03:16Z</time>
      </trkpt>
      <trkpt lat="43.28664" lon="3.0693">
        <ele>41.8</ele>
        <time>2020-06-26T16:03:15Z</time>
      </trkpt>
      <trkpt lat="43.28666" lon="3.06929">
        <ele>41.8</ele>
        <time>2020-06-26T16:03:14Z</time>
      </trkpt>
      <trkpt lat="43.28668" lon="3.06928">
        <ele>41.8</ele>
        <time>2020-06-26T16:03:13Z</time>
      </trkpt>
      <trkpt lat="43.28671" lon="3.06929">
        <ele>41.6</ele>
        <time>2020-06-26T16:03:12Z</time>
      </trkpt>
      <trkpt lat="43.28674" lon="3.0693">
        <ele>41.6</ele>
        <time>2020-06-26T16:03:11Z</time>
      </trkpt>
      <trkpt lat="43.28677" lon="3.06931">
        <ele>41.4</ele>
        <time>2020-06-26T16:03:10Z</time>
      </trkpt>
      <trkpt lat="43.28679" lon="3.06931">
        <ele>41.4</ele>
        <time>2020-06-26T16:03:09Z</time>
      </trkpt>
      <trkpt lat="43.28681" lon="3.06931">
        <ele>41.4</ele>
        <time>2020-06-26T16:03:08Z</time>
      </trkpt>
      <trkpt lat="43.28683" lon="3.06932">
        <ele>41.2</ele>
        <time>2020-06-26T16:03:07Z</time>
      </trkpt>
      <trkpt lat="43.28685" lon="3.06931">
        <ele>41</ele>
        <time>2020-06-26T16:03:06Z</time>
      </trkpt>
      <trkpt lat="43.28688" lon="3.06931">
        <ele>41</ele>
        <time>2020-06-26T16:03:05Z</time>
      </trkpt>
      <trkpt lat="43.28691" lon="3.06931">
        <ele>40.8</ele>
        <time>2020-06-26T16:03:04Z</time>
      </trkpt>
      <trkpt lat="43.28693" lon="3.06929">
        <ele>40.8</ele>
        <time>2020-06-26T16:03:03Z</time>
      </trkpt>
      <trkpt lat="43.28696" lon="3.06928">
        <ele>40.8</ele>
        <time>2020-06-26T16:03:02Z</time>
      </trkpt>
      <trkpt lat="43.28698" lon="3.06928">
        <ele>40.4</ele>
        <time>2020-06-26T16:03:01Z</time>
      </trkpt>
      <trkpt lat="43.28701" lon="3.06928">
        <ele>40.4</ele>
        <time>2020-06-26T16:03:00Z</time>
      </trkpt>
      <trkpt lat="43.28704" lon="3.06929">
        <ele>40.4</ele>
        <time>2020-06-26T16:02:59Z</time>
      </trkpt>
      <trkpt lat="43.28706" lon="3.06928">
        <ele>40.6</ele>
        <time>2020-06-26T16:02:58Z</time>
      </trkpt>
      <trkpt lat="43.28709" lon="3.06928">
        <ele>40.6</ele>
        <time>2020-06-26T16:02:57Z</time>
      </trkpt>
      <trkpt lat="43.28711" lon="3.06927">
        <ele>40.6</ele>
        <time>2020-06-26T16:02:56Z</time>
      </trkpt>
      <trkpt lat="43.28713" lon="3.06927">
        <ele>40.2</ele>
        <time>2020-06-26T16:02:55Z</time>
      </trkpt>
      <trkpt lat="43.28716" lon="3.06927">
        <ele>40</ele>
        <time>2020-06-26T16:02:54Z</time>
      </trkpt>
      <trkpt lat="43.2872" lon="3.06927">
        <ele>40.2</ele>
        <time>2020-06-26T16:02:53Z</time>
      </trkpt>
      <trkpt lat="43.28723" lon="3.06926">
        <ele>40</ele>
        <time>2020-06-26T16:02:52Z</time>
      </trkpt>
      <trkpt lat="43.28726" lon="3.06926">
        <ele>39.8</ele>
        <time>2020-06-26T16:02:51Z</time>
      </trkpt>
      <trkpt lat="43.28729" lon="3.06926">
        <ele>39.8</ele>
        <time>2020-06-26T16:02:50Z</time>
      </trkpt>
      <trkpt lat="43.28731" lon="3.06925">
        <ele>39.6</ele>
        <time>2020-06-26T16:02:49Z</time>
      </trkpt>
      <trkpt lat="43.28735" lon="3.06925">
        <ele>39.8</ele>
        <time>2020-06-26T16:02:48Z</time>
      </trkpt>
      <trkpt lat="43.28738" lon="3.06924">
        <ele>39.6</ele>
        <time>2020-06-26T16:02:47Z</time>
      </trkpt>
      <trkpt lat="43.28741" lon="3.06924">
        <ele>39.6</ele>
        <time>2020-06-26T16:02:46Z</time>
      </trkpt>
      <trkpt lat="43.28744" lon="3.06923">
        <ele>39.4</ele>
        <time>2020-06-26T16:02:45Z</time>
      </trkpt>
      <trkpt lat="43.28747" lon="3.06921">
        <ele>39.4</ele>
        <time>2020-06-26T16:02:44Z</time>
      </trkpt>
      <trkpt lat="43.28749" lon="3.06921">
        <ele>39.4</ele>
        <time>2020-06-26T16:02:43Z</time>
      </trkpt>
      <trkpt lat="43.28752" lon="3.06922">
        <ele>39.4</ele>
        <time>2020-06-26T16:02:42Z</time>
      </trkpt>
      <trkpt lat="43.28755" lon="3.06922">
        <ele>39.2</ele>
        <time>2020-06-26T16:02:41Z</time>
      </trkpt>
      <trkpt lat="43.28758" lon="3.06922">
        <ele>39.2</ele>
        <time>2020-06-26T16:02:40Z</time>
      </trkpt>
      <trkpt lat="43.28761" lon="3.06922">
        <ele>39.4</ele>
        <time>2020-06-26T16:02:39Z</time>
      </trkpt>
      <trkpt lat="43.28764" lon="3.06921">
        <ele>39.2</ele>
        <time>2020-06-26T16:02:38Z</time>
      </trkpt>
      <trkpt lat="43.28767" lon="3.0692">
        <ele>39.2</ele>
        <time>2020-06-26T16:02:37Z</time>
      </trkpt>
      <trkpt lat="43.28769" lon="3.06919">
        <ele>39.2</ele>
        <time>2020-06-26T16:02:36Z</time>
      </trkpt>
      <trkpt lat="43.28773" lon="3.06919">
        <ele>39</ele>
        <time>2020-06-26T16:02:35Z</time>
      </trkpt>
      <trkpt lat="43.28775" lon="3.06919">
        <ele>39.2</ele>
        <time>2020-06-26T16:02:34Z</time>
      </trkpt>
      <trkpt lat="43.28777" lon="3.06918">
        <ele>39</ele>
        <time>2020-06-26T16:02:33Z</time>
      </trkpt>
      <trkpt lat="43.2878" lon="3.06917">
        <ele>38.8</ele>
        <time>2020-06-26T16:02:32Z</time>
      </trkpt>
      <trkpt lat="43.28783" lon="3.06917">
        <ele>38.8</ele>
        <time>2020-06-26T16:02:31Z</time>
      </trkpt>
      <trkpt lat="43.28785" lon="3.06916">
        <ele>38.8</ele>
        <time>2020-06-26T16:02:30Z</time>
      </trkpt>
      <trkpt lat="43.28788" lon="3.06916">
        <ele>38.8</ele>
        <time>2020-06-26T16:02:29Z</time>
      </trkpt>
      <trkpt lat="43.2879" lon="3.06915">
        <ele>38.6</ele>
        <time>2020-06-26T16:02:28Z</time>
      </trkpt>
      <trkpt lat="43.28793" lon="3.06914">
        <ele>38.6</ele>
        <time>2020-06-26T16:02:27Z</time>
      </trkpt>
      <trkpt lat="43.28796" lon="3.06914">
        <ele>38.6</ele>
        <time>2020-06-26T16:02:26Z</time>
      </trkpt>
      <trkpt lat="43.28799" lon="3.06914">
        <ele>38.6</ele>
        <time>2020-06-26T16:02:25Z</time>
      </trkpt>
      <trkpt lat="43.28801" lon="3.06914">
        <ele>38.6</ele>
        <time>2020-06-26T16:02:24Z</time>
      </trkpt>
      <trkpt lat="43.28805" lon="3.06913">
        <ele>38.6</ele>
        <time>2020-06-26T16:02:23Z</time>
      </trkpt>
      <trkpt lat="43.28808" lon="3.06913">
        <ele>38.4</ele>
        <time>2020-06-26T16:02:22Z</time>
      </trkpt>
      <trkpt lat="43.28812" lon="3.06912">
        <ele>38.6</ele>
        <time>2020-06-26T16:02:21Z</time>
      </trkpt>
      <trkpt lat="43.28815" lon="3.06911">
        <ele>38.2</ele>
        <time>2020-06-26T16:02:20Z</time>
      </trkpt>
      <trkpt lat="43.28819" lon="3.0691">
        <ele>38.4</ele>
        <time>2020-06-26T16:02:19Z</time>
      </trkpt>
      <trkpt lat="43.28823" lon="3.06909">
        <ele>38.4</ele>
        <time>2020-06-26T16:02:18Z</time>
      </trkpt>
      <trkpt lat="43.28826" lon="3.06909">
        <ele>38.2</ele>
        <time>2020-06-26T16:02:17Z</time>
      </trkpt>
      <trkpt lat="43.2883" lon="3.06909">
        <ele>38.2</ele>
        <time>2020-06-26T16:02:16Z</time>
      </trkpt>
      <trkpt lat="43.28832" lon="3.06908">
        <ele>38.2</ele>
        <time>2020-06-26T16:02:15Z</time>
      </trkpt>
      <trkpt lat="43.28836" lon="3.06907">
        <ele>38.2</ele>
        <time>2020-06-26T16:02:14Z</time>
      </trkpt>
      <trkpt lat="43.28838" lon="3.06906">
        <ele>38.2</ele>
        <time>2020-06-26T16:02:13Z</time>
      </trkpt>
      <trkpt lat="43.28842" lon="3.06907">
        <ele>38</ele>
        <time>2020-06-26T16:02:12Z</time>
      </trkpt>
      <trkpt lat="43.28845" lon="3.06906">
        <ele>38</ele>
        <time>2020-06-26T16:02:11Z</time>
      </trkpt>
      <trkpt lat="43.28847" lon="3.06906">
        <ele>38</ele>
        <time>2020-06-26T16:02:10Z</time>
      </trkpt>
      <trkpt lat="43.28851" lon="3.06904">
        <ele>38</ele>
        <time>2020-06-26T16:02:09Z</time>
      </trkpt>
      <trkpt lat="43.28854" lon="3.06902">
        <ele>37.8</ele>
        <time>2020-06-26T16:02:08Z</time>
      </trkpt>
      <trkpt lat="43.28857" lon="3.069">
        <ele>37.8</ele>
        <time>2020-06-26T16:02:07Z</time>
      </trkpt>
      <trkpt lat="43.28861" lon="3.06898">
        <ele>37.8</ele>
        <time>2020-06-26T16:02:06Z</time>
      </trkpt>
      <trkpt lat="43.28865" lon="3.06895">
        <ele>37.8</ele>
        <time>2020-06-26T16:02:05Z</time>
      </trkpt>
      <trkpt lat="43.28869" lon="3.06896">
        <ele>37.8</ele>
        <time>2020-06-26T16:02:04Z</time>
      </trkpt>
      <trkpt lat="43.28871" lon="3.06895">
        <ele>37.6</ele>
        <time>2020-06-26T16:02:03Z</time>
      </trkpt>
      <trkpt lat="43.28874" lon="3.06892">
        <ele>37.6</ele>
        <time>2020-06-26T16:02:02Z</time>
      </trkpt>
      <trkpt lat="43.28877" lon="3.06892">
        <ele>37.6</ele>
        <time>2020-06-26T16:02:01Z</time>
      </trkpt>
      <trkpt lat="43.28881" lon="3.06891">
        <ele>37.6</ele>
        <time>2020-06-26T16:02:00Z</time>
      </trkpt>
      <trkpt lat="43.28884" lon="3.06891">
        <ele>37.6</ele>
        <time>2020-06-26T16:01:59Z</time>
      </trkpt>
      <trkpt lat="43.28888" lon="3.06892">
        <ele>37.8</ele>
        <time>2020-06-26T16:01:58Z</time>
      </trkpt>
      <trkpt lat="43.28891" lon="3.06893">
        <ele>37.8</ele>
        <time>2020-06-26T16:01:57Z</time>
      </trkpt>
      <trkpt lat="43.28895" lon="3.06895">
        <ele>37.8</ele>
        <time>2020-06-26T16:01:56Z</time>
      </trkpt>
      <trkpt lat="43.28899" lon="3.06896">
        <ele>37.8</ele>
        <time>2020-06-26T16:01:55Z</time>
      </trkpt>
      <trkpt lat="43.28902" lon="3.06897">
        <ele>37.8</ele>
        <time>2020-06-26T16:01:54Z</time>
      </trkpt>
      <trkpt lat="43.28906" lon="3.06897">
        <ele>37.8</ele>
        <time>2020-06-26T16:01:53Z</time>
      </trkpt>
      <trkpt lat="43.28909" lon="3.06899">
        <ele>37.8</ele>
        <time>2020-06-26T16:01:52Z</time>
      </trkpt>
      <trkpt lat="43.28913" lon="3.069">
        <ele>37.6</ele>
        <time>2020-06-26T16:01:51Z</time>
      </trkpt>
      <trkpt lat="43.28916" lon="3.069">
        <ele>37.6</ele>
        <time>2020-06-26T16:01:50Z</time>
      </trkpt>
      <trkpt lat="43.2892" lon="3.06901">
        <ele>37.6</ele>
        <time>2020-06-26T16:01:49Z</time>
      </trkpt>
      <trkpt lat="43.28924" lon="3.06902">
        <ele>37.6</ele>
        <time>2020-06-26T16:01:48Z</time>
      </trkpt>
      <trkpt lat="43.28928" lon="3.06902">
        <ele>37.6</ele>
        <time>2020-06-26T16:01:47Z</time>
      </trkpt>
      <trkpt lat="43.28932" lon="3.06902">
        <ele>37.6</ele>
        <time>2020-06-26T16:01:46Z</time>
      </trkpt>
      <trkpt lat="43.28937" lon="3.06901">
        <ele>37.6</ele>
        <time>2020-06-26T16:01:45Z</time>
      </trkpt>
      <trkpt lat="43.28941" lon="3.06901">
        <ele>37.8</ele>
        <time>2020-06-26T16:01:44Z</time>
      </trkpt>
      <trkpt lat="43.28944" lon="3.06901">
        <ele>37.6</ele>
        <time>2020-06-26T16:01:43Z</time>
      </trkpt>
      <trkpt lat="43.28949" lon="3.06902">
        <ele>37.6</ele>
        <time>2020-06-26T16:01:42Z</time>
      </trkpt>
      <trkpt lat="43.28952" lon="3.06904">
        <ele>37.4</ele>
        <time>2020-06-26T16:01:41Z</time>
      </trkpt>
      <trkpt lat="43.28957" lon="3.06904">
        <ele>37.4</ele>
        <time>2020-06-26T16:01:40Z</time>
      </trkpt>
      <trkpt lat="43.28962" lon="3.06905">
        <ele>37.6</ele>
        <time>2020-06-26T16:01:39Z</time>
      </trkpt>
      <trkpt lat="43.28967" lon="3.06904">
        <ele>37.6</ele>
        <time>2020-06-26T16:01:38Z</time>
      </trkpt>
      <trkpt lat="43.28971" lon="3.06903">
        <ele>37.8</ele>
        <time>2020-06-26T16:01:37Z</time>
      </trkpt>
      <trkpt lat="43.28974" lon="3.06904">
        <ele>37.6</ele>
        <time>2020-06-26T16:01:36Z</time>
      </trkpt>
      <trkpt lat="43.28978" lon="3.06905">
        <ele>37.6</ele>
        <time>2020-06-26T16:01:35Z</time>
      </trkpt>
      <trkpt lat="43.28983" lon="3.06906">
        <ele>37.8</ele>
        <time>2020-06-26T16:01:34Z</time>
      </trkpt>
      <trkpt lat="43.28987" lon="3.06908">
        <ele>37.8</ele>
        <time>2020-06-26T16:01:33Z</time>
      </trkpt>
      <trkpt lat="43.28991" lon="3.06909">
        <ele>37.6</ele>
        <time>2020-06-26T16:01:32Z</time>
      </trkpt>
      <trkpt lat="43.28994" lon="3.06913">
        <ele>37.6</ele>
        <time>2020-06-26T16:01:31Z</time>
      </trkpt>
      <trkpt lat="43.28997" lon="3.06915">
        <ele>37.4</ele>
        <time>2020-06-26T16:01:30Z</time>
      </trkpt>
      <trkpt lat="43.29002" lon="3.06915">
        <ele>37.6</ele>
        <time>2020-06-26T16:01:29Z</time>
      </trkpt>
      <trkpt lat="43.29006" lon="3.06918">
        <ele>37.6</ele>
        <time>2020-06-26T16:01:28Z</time>
      </trkpt>
      <trkpt lat="43.2901" lon="3.0692">
        <ele>37.6</ele>
        <time>2020-06-26T16:01:27Z</time>
      </trkpt>
      <trkpt lat="43.29014" lon="3.06921">
        <ele>37.6</ele>
        <time>2020-06-26T16:01:26Z</time>
      </trkpt>
      <trkpt lat="43.29018" lon="3.06923">
        <ele>37.6</ele>
        <time>2020-06-26T16:01:25Z</time>
      </trkpt>
      <trkpt lat="43.29022" lon="3.06925">
        <ele>37.8</ele>
        <time>2020-06-26T16:01:24Z</time>
      </trkpt>
      <trkpt lat="43.29028" lon="3.06925">
        <ele>37.8</ele>
        <time>2020-06-26T16:01:23Z</time>
      </trkpt>
      <trkpt lat="43.29032" lon="3.06923">
        <ele>38</ele>
        <time>2020-06-26T16:01:22Z</time>
      </trkpt>
      <trkpt lat="43.29038" lon="3.06924">
        <ele>38</ele>
        <time>2020-06-26T16:01:21Z</time>
      </trkpt>
      <trkpt lat="43.29043" lon="3.06922">
        <ele>37.8</ele>
        <time>2020-06-26T16:01:20Z</time>
      </trkpt>
      <trkpt lat="43.29047" lon="3.06923">
        <ele>38</ele>
        <time>2020-06-26T16:01:19Z</time>
      </trkpt>
      <trkpt lat="43.29052" lon="3.06924">
        <ele>38.2</ele>
        <time>2020-06-26T16:01:18Z</time>
      </trkpt>
      <trkpt lat="43.29057" lon="3.06924">
        <ele>38.4</ele>
        <time>2020-06-26T16:01:17Z</time>
      </trkpt>
      <trkpt lat="43.29062" lon="3.06922">
        <ele>38.6</ele>
        <time>2020-06-26T16:01:16Z</time>
      </trkpt>
      <trkpt lat="43.29069" lon="3.06922">
        <ele>38.6</ele>
        <time>2020-06-26T16:01:15Z</time>
      </trkpt>
      <trkpt lat="43.29074" lon="3.06922">
        <ele>39.2</ele>
        <time>2020-06-26T16:01:14Z</time>
      </trkpt>
      <trkpt lat="43.29081" lon="3.0692">
        <ele>39.4</ele>
        <time>2020-06-26T16:01:13Z</time>
      </trkpt>
      <trkpt lat="43.29087" lon="3.06919">
        <ele>39.8</ele>
        <time>2020-06-26T16:01:12Z</time>
      </trkpt>
      <trkpt lat="43.29093" lon="3.06919">
        <ele>39.8</ele>
        <time>2020-06-26T16:01:11Z</time>
      </trkpt>
      <trkpt lat="43.29097" lon="3.06919">
        <ele>39.8</ele>
        <time>2020-06-26T16:01:10Z</time>
      </trkpt>
      <trkpt lat="43.29102" lon="3.0692">
        <ele>40</ele>
        <time>2020-06-26T16:01:09Z</time>
      </trkpt>
      <trkpt lat="43.29107" lon="3.06922">
        <ele>40</ele>
        <time>2020-06-26T16:01:08Z</time>
      </trkpt>
      <trkpt lat="43.2911" lon="3.06927">
        <ele>40.2</ele>
        <time>2020-06-26T16:01:07Z</time>
      </trkpt>
      <trkpt lat="43.29114" lon="3.06936">
        <ele>40.8</ele>
        <time>2020-06-26T16:01:06Z</time>
      </trkpt>
      <trkpt lat="43.29114" lon="3.06945">
        <ele>41.4</ele>
        <time>2020-06-26T16:01:05Z</time>
      </trkpt>
      <trkpt lat="43.29115" lon="3.06953">
        <ele>41.8</ele>
        <time>2020-06-26T16:01:04Z</time>
      </trkpt>
      <trkpt lat="43.29115" lon="3.06961">
        <ele>42.2</ele>
        <time>2020-06-26T16:01:03Z</time>
      </trkpt>
      <trkpt lat="43.29115" lon="3.0697">
        <ele>42.6</ele>
        <time>2020-06-26T16:01:02Z</time>
      </trkpt>
      <trkpt lat="43.29115" lon="3.06979">
        <ele>43</ele>
        <time>2020-06-26T16:01:01Z</time>
      </trkpt>
      <trkpt lat="43.29116" lon="3.06989">
        <ele>43.6</ele>
        <time>2020-06-26T16:01:00Z</time>
      </trkpt>
      <trkpt lat="43.29116" lon="3.06999">
        <ele>44</ele>
        <time>2020-06-26T16:00:59Z</time>
      </trkpt>
      <trkpt lat="43.29115" lon="3.07006">
        <ele>44.4</ele>
        <time>2020-06-26T16:00:58Z</time>
      </trkpt>
      <trkpt lat="43.29114" lon="3.07013">
        <ele>44.8</ele>
        <time>2020-06-26T16:00:57Z</time>
      </trkpt>
      <trkpt lat="43.29112" lon="3.0702">
        <ele>45</ele>
        <time>2020-06-26T16:00:56Z</time>
      </trkpt>
      <trkpt lat="43.29111" lon="3.07025">
        <ele>45.2</ele>
        <time>2020-06-26T16:00:55Z</time>
      </trkpt>
      <trkpt lat="43.29111" lon="3.07031">
        <ele>45.6</ele>
        <time>2020-06-26T16:00:54Z</time>
      </trkpt>
      <trkpt lat="43.29111" lon="3.07035">
        <ele>45.8</ele>
        <time>2020-06-26T16:00:53Z</time>
      </trkpt>
      <trkpt lat="43.29112" lon="3.0704">
        <ele>46</ele>
        <time>2020-06-26T16:00:52Z</time>
      </trkpt>
      <trkpt lat="43.29112" lon="3.07043">
        <ele>46.2</ele>
        <time>2020-06-26T16:00:51Z</time>
      </trkpt>
      <trkpt lat="43.29111" lon="3.07047">
        <ele>46.2</ele>
        <time>2020-06-26T16:00:50Z</time>
      </trkpt>
      <trkpt lat="43.2911" lon="3.07049">
        <ele>46.4</ele>
        <time>2020-06-26T16:00:49Z</time>
      </trkpt>
      <trkpt lat="43.2911" lon="3.07051">
        <ele>46.4</ele>
        <time>2020-06-26T16:00:48Z</time>
      </trkpt>
      <trkpt lat="43.2911" lon="3.07053">
        <ele>46.6</ele>
        <time>2020-06-26T16:00:47Z</time>
      </trkpt>
      <trkpt lat="43.29111" lon="3.07054">
        <ele>46.6</ele>
        <time>2020-06-26T16:00:46Z</time>
      </trkpt>
      <trkpt lat="43.29111" lon="3.07056">
        <ele>46.6</ele>
        <time>2020-06-26T16:00:37Z</time>
      </trkpt>
      <trkpt lat="43.29111" lon="3.07056">
        <ele>46.6</ele>
        <time>2020-06-26T16:00:36Z</time>
      </trkpt>
      <trkpt lat="43.29111" lon="3.07056">
        <ele>46.6</ele>
        <time>2020-06-26T16:00:35Z</time>
      </trkpt>
      <trkpt lat="43.29111" lon="3.07056">
        <ele>46.6</ele>
        <time>2020-06-26T16:00:34Z</time>
      </trkpt>
      <trkpt lat="43.29111" lon="3.07057">
        <ele>46.6</ele>
        <time>2020-06-26T16:00:33Z</time>
      </trkpt>
      <trkpt lat="43.29111" lon="3.07057">
        <ele>46.6</ele>
        <time>2020-06-26T16:00:32Z</time>
      </trkpt>
      <trkpt lat="43.29111" lon="3.07057">
        <ele>46.6</ele>
        <time>2020-06-26T16:00:31Z</time>
      </trkpt>
      <trkpt lat="43.29111" lon="3.07057">
        <ele>46.6</ele>
        <time>2020-06-26T16:00:30Z</time>
      </trkpt>
      <trkpt lat="43.29111" lon="3.07057">
        <ele>46.8</ele>
        <time>2020-06-26T16:00:29Z</time>
      </trkpt>
      <trkpt lat="43.29111" lon="3.07057">
        <ele>46.8</ele>
        <time>2020-06-26T16:00:28Z</time>
      </trkpt>
      <trkpt lat="43.29111" lon="3.07057">
        <ele>46.8</ele>
        <time>2020-06-26T16:00:27Z</time>
      </trkpt>
      <trkpt lat="43.2911" lon="3.07058">
        <ele>46.8</ele>
        <time>2020-06-26T16:00:26Z</time>
      </trkpt>
      <trkpt lat="43.2911" lon="3.07059">
        <ele>47</ele>
        <time>2020-06-26T16:00:25Z</time>
      </trkpt>
      <trkpt lat="43.2911" lon="3.0706">
        <ele>47</ele>
        <time>2020-06-26T16:00:24Z</time>
      </trkpt>
      <trkpt lat="43.29108" lon="3.07054">
        <ele>46.4</ele>
        <time>2020-06-26T15:52:23Z</time>
      </trkpt>
      <trkpt lat="43.29107" lon="3.07056">
        <ele>46.4</ele>
        <time>2020-06-26T15:52:22Z</time>
      </trkpt>
      <trkpt lat="43.29106" lon="3.07055">
        <ele>46.4</ele>
        <time>2020-06-26T15:52:21Z</time>
      </trkpt>
      <trkpt lat="43.29106" lon="3.07054">
        <ele>46.4</ele>
        <time>2020-06-26T15:52:20Z</time>
      </trkpt>
      <trkpt lat="43.29104" lon="3.07051">
        <ele>46.4</ele>
        <time>2020-06-26T15:52:19Z</time>
      </trkpt>
      <trkpt lat="43.29103" lon="3.07053">
        <ele>46.2</ele>
        <time>2020-06-26T15:52:18Z</time>
      </trkpt>
      <trkpt lat="43.29103" lon="3.07054">
        <ele>46.2</ele>
        <time>2020-06-26T15:52:17Z</time>
      </trkpt>
      <trkpt lat="43.29103" lon="3.07053">
        <ele>46.2</ele>
        <time>2020-06-26T15:52:16Z</time>
      </trkpt>
      <trkpt lat="43.29105" lon="3.07053">
        <ele>46.2</ele>
        <time>2020-06-26T15:52:15Z</time>
      </trkpt>
      <trkpt lat="43.29104" lon="3.07052">
        <ele>46.2</ele>
        <time>2020-06-26T15:52:14Z</time>
      </trkpt>
      <trkpt lat="43.29106" lon="3.07053">
        <ele>46.2</ele>
        <time>2020-06-26T15:52:13Z</time>
      </trkpt>
      <trkpt lat="43.29105" lon="3.07054">
        <ele>46.2</ele>
        <time>2020-06-26T15:52:12Z</time>
      </trkpt>
      <trkpt lat="43.29106" lon="3.07055">
        <ele>46.2</ele>
        <time>2020-06-26T15:52:11Z</time>
      </trkpt>
      <trkpt lat="43.29106" lon="3.07056">
        <ele>46.2</ele>
        <time>2020-06-26T15:52:10Z</time>
      </trkpt>
      <trkpt lat="43.29106" lon="3.0706">
        <ele>46.4</ele>
        <time>2020-06-26T15:52:09Z</time>
      </trkpt>
      <trkpt lat="43.29107" lon="3.07062">
        <ele>46.6</ele>
        <time>2020-06-26T15:52:08Z</time>
      </trkpt>
      <trkpt lat="43.29109" lon="3.07065">
        <ele>46.6</ele>
        <time>2020-06-26T15:52:07Z</time>
      </trkpt>
      <trkpt lat="43.29109" lon="3.07067">
        <ele>47</ele>
        <time>2020-06-26T15:52:06Z</time>
      </trkpt>
      <trkpt lat="43.29109" lon="3.07073">
        <ele>47.2</ele>
        <time>2020-06-26T15:52:05Z</time>
      </trkpt>
      <trkpt lat="43.29111" lon="3.07076">
        <ele>47.4</ele>
        <time>2020-06-26T15:52:04Z</time>
      </trkpt>
      <trkpt lat="43.29111" lon="3.07079">
        <ele>47.6</ele>
        <time>2020-06-26T15:52:03Z</time>
      </trkpt>
      <trkpt lat="43.29111" lon="3.07084">
        <ele>47.6</ele>
        <time>2020-06-26T15:52:02Z</time>
      </trkpt>
      <trkpt lat="43.2911" lon="3.07088">
        <ele>47.8</ele>
        <time>2020-06-26T15:52:01Z</time>
      </trkpt>
      <trkpt lat="43.29112" lon="3.0709">
        <ele>47.6</ele>
        <time>2020-06-26T15:51:56Z</time>
      </trkpt>
      <trkpt lat="43.29112" lon="3.07085">
        <ele>47.8</ele>
        <time>2020-06-26T15:51:55Z</time>
      </trkpt>
      <trkpt lat="43.29112" lon="3.07084">
        <ele>47.8</ele>
        <time>2020-06-26T15:51:54Z</time>
      </trkpt>
      <trkpt lat="43.29111" lon="3.07084">
        <ele>47.8</ele>
        <time>2020-06-26T15:51:53Z</time>
      </trkpt>
      <trkpt lat="43.29112" lon="3.07083">
        <ele>47.8</ele>
        <time>2020-06-26T15:51:52Z</time>
      </trkpt>
      <trkpt lat="43.29111" lon="3.07085">
        <ele>47.8</ele>
        <time>2020-06-26T15:51:51Z</time>
      </trkpt>
      <trkpt lat="43.29113" lon="3.07085">
        <ele>47.8</ele>
        <time>2020-06-26T15:51:50Z</time>
      </trkpt>
      <trkpt lat="43.29113" lon="3.07083">
        <ele>47.8</ele>
        <time>2020-06-26T15:51:49Z</time>
      </trkpt>
      <trkpt lat="43.29114" lon="3.0708">
        <ele>47.8</ele>
        <time>2020-06-26T15:51:48Z</time>
      </trkpt>
      <trkpt lat="43.29116" lon="3.07081">
        <ele>47.8</ele>
        <time>2020-06-26T15:51:47Z</time>
      </trkpt>
      <trkpt lat="43.29116" lon="3.0708">
        <ele>47.8</ele>
        <time>2020-06-26T15:51:46Z</time>
      </trkpt>
      <trkpt lat="43.29116" lon="3.07084">
        <ele>47.2</ele>
        <time>2020-06-26T15:49:39Z</time>
      </trkpt>
      <trkpt lat="43.29119" lon="3.07089">
        <ele>47.2</ele>
        <time>2020-06-26T15:49:38Z</time>
      </trkpt>
      <trkpt lat="43.29118" lon="3.07092">
        <ele>47.4</ele>
        <time>2020-06-26T15:49:37Z</time>
      </trkpt>
      <trkpt lat="43.29118" lon="3.07087">
        <ele>47.2</ele>
        <time>2020-06-26T15:49:36Z</time>
      </trkpt>
      <trkpt lat="43.29119" lon="3.07087">
        <ele>47.2</ele>
        <time>2020-06-26T15:49:35Z</time>
      </trkpt>
      <trkpt lat="43.29118" lon="3.07088">
        <ele>47.4</ele>
        <time>2020-06-26T15:49:34Z</time>
      </trkpt>
      <trkpt lat="43.29118" lon="3.07088">
        <ele>47.4</ele>
        <time>2020-06-26T15:49:33Z</time>
      </trkpt>
      <trkpt lat="43.29117" lon="3.07088">
        <ele>47.6</ele>
        <time>2020-06-26T15:49:32Z</time>
      </trkpt>
      <trkpt lat="43.29117" lon="3.07089">
        <ele>47</ele>
        <time>2020-06-26T15:49:31Z</time>
      </trkpt>
      <trkpt lat="43.29118" lon="3.07089">
        <ele>47.4</ele>
        <time>2020-06-26T15:49:30Z</time>
      </trkpt>
      <trkpt lat="43.29118" lon="3.07089">
        <ele>47.4</ele>
        <time>2020-06-26T15:49:29Z</time>
      </trkpt>
      <trkpt lat="43.29118" lon="3.07089">
        <ele>47.6</ele>
        <time>2020-06-26T15:49:28Z</time>
      </trkpt>
      <trkpt lat="43.29119" lon="3.07087">
        <ele>47.6</ele>
        <time>2020-06-26T15:49:27Z</time>
      </trkpt>
      <trkpt lat="43.29117" lon="3.0709">
        <ele>47.4</ele>
        <time>2020-06-26T15:49:26Z</time>
      </trkpt>
      <trkpt lat="43.29119" lon="3.07085">
        <ele>47.6</ele>
        <time>2020-06-26T15:49:25Z</time>
      </trkpt>
      <trkpt lat="43.29121" lon="3.07085">
        <ele>47.8</ele>
        <time>2020-06-26T15:49:24Z</time>
      </trkpt>
      <trkpt lat="43.29123" lon="3.07088">
        <ele>48</ele>
        <time>2020-06-26T15:49:23Z</time>
      </trkpt>
      <trkpt lat="43.29125" lon="3.07089">
        <ele>48.2</ele>
        <time>2020-06-26T15:49:22Z</time>
      </trkpt>
      <trkpt lat="43.29127" lon="3.07089">
        <ele>48.2</ele>
        <time>2020-06-26T15:49:21Z</time>
      </trkpt>
      <trkpt lat="43.29129" lon="3.07087">
        <ele>48.8</ele>
        <time>2020-06-26T15:49:20Z</time>
      </trkpt>
      <trkpt lat="43.2913" lon="3.07087">
        <ele>48.8</ele>
        <time>2020-06-26T15:49:19Z</time>
      </trkpt>
      <trkpt lat="43.29131" lon="3.07088">
        <ele>48.8</ele>
        <time>2020-06-26T15:49:18Z</time>
      </trkpt>
      <trkpt lat="43.29133" lon="3.07089">
        <ele>48.8</ele>
        <time>2020-06-26T15:49:17Z</time>
      </trkpt>
      <trkpt lat="43.29134" lon="3.0709">
        <ele>49</ele>
        <time>2020-06-26T15:49:16Z</time>
      </trkpt>
      <trkpt lat="43.29137" lon="3.07088">
        <ele>49</ele>
        <time>2020-06-26T15:49:15Z</time>
      </trkpt>
      <trkpt lat="43.29139" lon="3.07089">
        <ele>49.2</ele>
        <time>2020-06-26T15:49:14Z</time>
      </trkpt>
      <trkpt lat="43.29138" lon="3.07091">
        <ele>49.4</ele>
        <time>2020-06-26T15:49:13Z</time>
      </trkpt>
      <trkpt lat="43.29141" lon="3.07091">
        <ele>49.4</ele>
        <time>2020-06-26T15:49:12Z</time>
      </trkpt>
      <trkpt lat="43.29142" lon="3.07094">
        <ele>49.4</ele>
        <time>2020-06-26T15:49:11Z</time>
      </trkpt>
      <trkpt lat="43.29144" lon="3.07093">
        <ele>49.4</ele>
        <time>2020-06-26T15:49:10Z</time>
      </trkpt>
      <trkpt lat="43.29146" lon="3.07093">
        <ele>49.4</ele>
        <time>2020-06-26T15:49:09Z</time>
      </trkpt>
      <trkpt lat="43.29147" lon="3.07094">
        <ele>49.4</ele>
        <time>2020-06-26T15:49:08Z</time>
      </trkpt>
      <trkpt lat="43.29148" lon="3.07095">
        <ele>49.4</ele>
        <time>2020-06-26T15:49:07Z</time>
      </trkpt>
      <trkpt lat="43.29149" lon="3.07095">
        <ele>49.2</ele>
        <time>2020-06-26T15:49:06Z</time>
      </trkpt>
      <trkpt lat="43.29151" lon="3.07097">
        <ele>49.2</ele>
        <time>2020-06-26T15:49:05Z</time>
      </trkpt>
      <trkpt lat="43.29152" lon="3.07099">
        <ele>49</ele>
        <time>2020-06-26T15:49:04Z</time>
      </trkpt>
      <trkpt lat="43.29152" lon="3.07102">
        <ele>48.8</ele>
        <time>2020-06-26T15:49:03Z</time>
      </trkpt>
      <trkpt lat="43.29153" lon="3.07106">
        <ele>48.8</ele>
        <time>2020-06-26T15:49:02Z</time>
      </trkpt>
      <trkpt lat="43.29152" lon="3.07108">
        <ele>48.8</ele>
        <time>2020-06-26T15:49:01Z</time>
      </trkpt>
      <trkpt lat="43.29152" lon="3.07111">
        <ele>48.6</ele>
        <time>2020-06-26T15:49:00Z</time>
      </trkpt>
      <trkpt lat="43.29152" lon="3.07114">
        <ele>48.6</ele>
        <time>2020-06-26T15:48:59Z</time>
      </trkpt>
      <trkpt lat="43.29152" lon="3.07115">
        <ele>48.4</ele>
        <time>2020-06-26T15:48:58Z</time>
      </trkpt>
      <trkpt lat="43.2915" lon="3.07119">
        <ele>48.2</ele>
        <time>2020-06-26T15:48:57Z</time>
      </trkpt>
      <trkpt lat="43.2915" lon="3.07124">
        <ele>48</ele>
        <time>2020-06-26T15:48:56Z</time>
      </trkpt>
      <trkpt lat="43.29151" lon="3.07127">
        <ele>47.8</ele>
        <time>2020-06-26T15:48:55Z</time>
      </trkpt>
      <trkpt lat="43.2915" lon="3.07129">
        <ele>47.6</ele>
        <time>2020-06-26T15:48:54Z</time>
      </trkpt>
      <trkpt lat="43.2915" lon="3.07133">
        <ele>47.4</ele>
        <time>2020-06-26T15:48:53Z</time>
      </trkpt>
      <trkpt lat="43.29151" lon="3.07137">
        <ele>47.2</ele>
        <time>2020-06-26T15:48:52Z</time>
      </trkpt>
      <trkpt lat="43.2915" lon="3.07142">
        <ele>47</ele>
        <time>2020-06-26T15:48:51Z</time>
      </trkpt>
      <trkpt lat="43.29149" lon="3.07145">
        <ele>46.8</ele>
        <time>2020-06-26T15:48:50Z</time>
      </trkpt>
      <trkpt lat="43.29148" lon="3.0715">
        <ele>46.8</ele>
        <time>2020-06-26T15:48:49Z</time>
      </trkpt>
      <trkpt lat="43.29146" lon="3.07155">
        <ele>46.6</ele>
        <time>2020-06-26T15:48:48Z</time>
      </trkpt>
      <trkpt lat="43.29146" lon="3.0716">
        <ele>46.6</ele>
        <time>2020-06-26T15:48:47Z</time>
      </trkpt>
      <trkpt lat="43.29145" lon="3.07166">
        <ele>46.4</ele>
        <time>2020-06-26T15:48:46Z</time>
      </trkpt>
      <trkpt lat="43.29143" lon="3.0717">
        <ele>46.4</ele>
        <time>2020-06-26T15:48:45Z</time>
      </trkpt>
      <trkpt lat="43.29142" lon="3.07174">
        <ele>46.4</ele>
        <time>2020-06-26T15:48:44Z</time>
      </trkpt>
      <trkpt lat="43.29142" lon="3.07178">
        <ele>46.2</ele>
        <time>2020-06-26T15:48:43Z</time>
      </trkpt>
      <trkpt lat="43.29141" lon="3.07182">
        <ele>46.2</ele>
        <time>2020-06-26T15:48:42Z</time>
      </trkpt>
      <trkpt lat="43.29141" lon="3.07184">
        <ele>46.2</ele>
        <time>2020-06-26T15:48:41Z</time>
      </trkpt>
      <trkpt lat="43.29141" lon="3.07186">
        <ele>46.2</ele>
        <time>2020-06-26T15:48:40Z</time>
      </trkpt>
      <trkpt lat="43.29141" lon="3.07189">
        <ele>46.2</ele>
        <time>2020-06-26T15:48:39Z</time>
      </trkpt>
      <trkpt lat="43.2914" lon="3.07194">
        <ele>46.2</ele>
        <time>2020-06-26T15:48:38Z</time>
      </trkpt>
      <trkpt lat="43.2914" lon="3.07197">
        <ele>46</ele>
        <time>2020-06-26T15:48:37Z</time>
      </trkpt>
      <trkpt lat="43.2914" lon="3.07201">
        <ele>46</ele>
        <time>2020-06-26T15:48:36Z</time>
      </trkpt>
      <trkpt lat="43.2914" lon="3.07206">
        <ele>46</ele>
        <time>2020-06-26T15:48:35Z</time>
      </trkpt>
      <trkpt lat="43.29139" lon="3.07212">
        <ele>46</ele>
        <time>2020-06-26T15:48:34Z</time>
      </trkpt>
      <trkpt lat="43.29138" lon="3.07219">
        <ele>46</ele>
        <time>2020-06-26T15:48:33Z</time>
      </trkpt>
      <trkpt lat="43.29137" lon="3.07225">
        <ele>46</ele>
        <time>2020-06-26T15:48:32Z</time>
      </trkpt>
      <trkpt lat="43.29135" lon="3.07234">
        <ele>46</ele>
        <time>2020-06-26T15:48:31Z</time>
      </trkpt>
      <trkpt lat="43.29135" lon="3.0724">
        <ele>45.8</ele>
        <time>2020-06-26T15:48:30Z</time>
      </trkpt>
      <trkpt lat="43.29135" lon="3.07247">
        <ele>45.8</ele>
        <time>2020-06-26T15:48:29Z</time>
      </trkpt>
      <trkpt lat="43.29134" lon="3.07253">
        <ele>45.6</ele>
        <time>2020-06-26T15:48:28Z</time>
      </trkpt>
      <trkpt lat="43.29133" lon="3.07258">
        <ele>45.6</ele>
        <time>2020-06-26T15:48:27Z</time>
      </trkpt>
      <trkpt lat="43.29132" lon="3.07262">
        <ele>45.8</ele>
        <time>2020-06-26T15:48:26Z</time>
      </trkpt>
      <trkpt lat="43.2913" lon="3.07268">
        <ele>45.8</ele>
        <time>2020-06-26T15:48:25Z</time>
      </trkpt>
      <trkpt lat="43.2913" lon="3.07274">
        <ele>45.8</ele>
        <time>2020-06-26T15:48:24Z</time>
      </trkpt>
      <trkpt lat="43.29129" lon="3.0728">
        <ele>45.8</ele>
        <time>2020-06-26T15:48:23Z</time>
      </trkpt>
      <trkpt lat="43.29128" lon="3.07285">
        <ele>45.8</ele>
        <time>2020-06-26T15:48:22Z</time>
      </trkpt>
      <trkpt lat="43.29128" lon="3.0729">
        <ele>45.8</ele>
        <time>2020-06-26T15:48:21Z</time>
      </trkpt>
      <trkpt lat="43.29127" lon="3.07296">
        <ele>45.8</ele>
        <time>2020-06-26T15:48:20Z</time>
      </trkpt>
      <trkpt lat="43.29126" lon="3.07304">
        <ele>45.8</ele>
        <time>2020-06-26T15:48:19Z</time>
      </trkpt>
      <trkpt lat="43.29125" lon="3.0731">
        <ele>45.8</ele>
        <time>2020-06-26T15:48:18Z</time>
      </trkpt>
      <trkpt lat="43.29124" lon="3.07315">
        <ele>45.8</ele>
        <time>2020-06-26T15:48:17Z</time>
      </trkpt>
      <trkpt lat="43.29123" lon="3.07322">
        <ele>45.8</ele>
        <time>2020-06-26T15:48:16Z</time>
      </trkpt>
      <trkpt lat="43.29122" lon="3.07327">
        <ele>45.8</ele>
        <time>2020-06-26T15:48:15Z</time>
      </trkpt>
      <trkpt lat="43.29121" lon="3.07333">
        <ele>45.8</ele>
        <time>2020-06-26T15:48:14Z</time>
      </trkpt>
      <trkpt lat="43.29122" lon="3.07339">
        <ele>45.8</ele>
        <time>2020-06-26T15:48:13Z</time>
      </trkpt>
      <trkpt lat="43.29122" lon="3.07345">
        <ele>45.8</ele>
        <time>2020-06-26T15:48:12Z</time>
      </trkpt>
      <trkpt lat="43.29122" lon="3.07351">
        <ele>45.6</ele>
        <time>2020-06-26T15:48:11Z</time>
      </trkpt>
      <trkpt lat="43.29121" lon="3.07358">
        <ele>45.8</ele>
        <time>2020-06-26T15:48:10Z</time>
      </trkpt>
      <trkpt lat="43.2912" lon="3.07364">
        <ele>45.8</ele>
        <time>2020-06-26T15:48:09Z</time>
      </trkpt>
      <trkpt lat="43.2912" lon="3.07368">
        <ele>45.8</ele>
        <time>2020-06-26T15:48:08Z</time>
      </trkpt>
      <trkpt lat="43.29119" lon="3.07374">
        <ele>45.8</ele>
        <time>2020-06-26T15:48:07Z</time>
      </trkpt>
      <trkpt lat="43.29118" lon="3.07379">
        <ele>45.6</ele>
        <time>2020-06-26T15:48:06Z</time>
      </trkpt>
      <trkpt lat="43.29118" lon="3.07387">
        <ele>45.6</ele>
        <time>2020-06-26T15:48:05Z</time>
      </trkpt>
      <trkpt lat="43.29117" lon="3.07391">
        <ele>45.6</ele>
        <time>2020-06-26T15:48:04Z</time>
      </trkpt>
      <trkpt lat="43.29116" lon="3.07397">
        <ele>45.6</ele>
        <time>2020-06-26T15:48:03Z</time>
      </trkpt>
      <trkpt lat="43.29114" lon="3.07402">
        <ele>45.6</ele>
        <time>2020-06-26T15:48:02Z</time>
      </trkpt>
      <trkpt lat="43.29114" lon="3.07408">
        <ele>45.6</ele>
        <time>2020-06-26T15:48:01Z</time>
      </trkpt>
      <trkpt lat="43.29114" lon="3.07414">
        <ele>45.4</ele>
        <time>2020-06-26T15:48:00Z</time>
      </trkpt>
      <trkpt lat="43.29113" lon="3.07419">
        <ele>45.4</ele>
        <time>2020-06-26T15:47:59Z</time>
      </trkpt>
      <trkpt lat="43.29113" lon="3.07424">
        <ele>45.4</ele>
        <time>2020-06-26T15:47:58Z</time>
      </trkpt>
      <trkpt lat="43.29112" lon="3.0743">
        <ele>45.2</ele>
        <time>2020-06-26T15:47:57Z</time>
      </trkpt>
      <trkpt lat="43.29111" lon="3.07435">
        <ele>45.2</ele>
        <time>2020-06-26T15:47:56Z</time>
      </trkpt>
      <trkpt lat="43.29109" lon="3.07441">
        <ele>45.2</ele>
        <time>2020-06-26T15:47:55Z</time>
      </trkpt>
      <trkpt lat="43.29108" lon="3.07448">
        <ele>45.2</ele>
        <time>2020-06-26T15:47:54Z</time>
      </trkpt>
      <trkpt lat="43.29106" lon="3.07453">
        <ele>45</ele>
        <time>2020-06-26T15:47:53Z</time>
      </trkpt>
      <trkpt lat="43.29106" lon="3.07459">
        <ele>45</ele>
        <time>2020-06-26T15:47:52Z</time>
      </trkpt>
      <trkpt lat="43.29105" lon="3.07464">
        <ele>44.8</ele>
        <time>2020-06-26T15:47:51Z</time>
      </trkpt>
      <trkpt lat="43.29104" lon="3.07469">
        <ele>44.8</ele>
        <time>2020-06-26T15:47:50Z</time>
      </trkpt>
      <trkpt lat="43.29104" lon="3.07474">
        <ele>44.8</ele>
        <time>2020-06-26T15:47:49Z</time>
      </trkpt>
      <trkpt lat="43.29103" lon="3.07478">
        <ele>44.8</ele>
        <time>2020-06-26T15:47:48Z</time>
      </trkpt>
      <trkpt lat="43.29102" lon="3.07484">
        <ele>44.8</ele>
        <time>2020-06-26T15:47:47Z</time>
      </trkpt>
      <trkpt lat="43.29101" lon="3.07489">
        <ele>44.6</ele>
        <time>2020-06-26T15:47:46Z</time>
      </trkpt>
      <trkpt lat="43.291" lon="3.07495">
        <ele>44.6</ele>
        <time>2020-06-26T15:47:45Z</time>
      </trkpt>
      <trkpt lat="43.291" lon="3.07502">
        <ele>44.6</ele>
        <time>2020-06-26T15:47:44Z</time>
      </trkpt>
      <trkpt lat="43.29098" lon="3.07506">
        <ele>44.6</ele>
        <time>2020-06-26T15:47:43Z</time>
      </trkpt>
      <trkpt lat="43.29097" lon="3.07512">
        <ele>44.4</ele>
        <time>2020-06-26T15:47:42Z</time>
      </trkpt>
      <trkpt lat="43.29097" lon="3.07519">
        <ele>44.4</ele>
        <time>2020-06-26T15:47:41Z</time>
      </trkpt>
      <trkpt lat="43.29097" lon="3.07523">
        <ele>44.4</ele>
        <time>2020-06-26T15:47:40Z</time>
      </trkpt>
      <trkpt lat="43.29096" lon="3.07529">
        <ele>44.4</ele>
        <time>2020-06-26T15:47:39Z</time>
      </trkpt>
      <trkpt lat="43.29096" lon="3.07534">
        <ele>44.4</ele>
        <time>2020-06-26T15:47:38Z</time>
      </trkpt>
      <trkpt lat="43.29096" lon="3.07539">
        <ele>44.4</ele>
        <time>2020-06-26T15:47:37Z</time>
      </trkpt>
      <trkpt lat="43.29095" lon="3.07545">
        <ele>44.4</ele>
        <time>2020-06-26T15:47:36Z</time>
      </trkpt>
      <trkpt lat="43.29094" lon="3.07551">
        <ele>44.2</ele>
        <time>2020-06-26T15:47:35Z</time>
      </trkpt>
      <trkpt lat="43.29093" lon="3.07556">
        <ele>44.2</ele>
        <time>2020-06-26T15:47:34Z</time>
      </trkpt>
      <trkpt lat="43.29093" lon="3.0756">
        <ele>44.2</ele>
        <time>2020-06-26T15:47:33Z</time>
      </trkpt>
      <trkpt lat="43.29093" lon="3.07564">
        <ele>44.2</ele>
        <time>2020-06-26T15:47:32Z</time>
      </trkpt>
      <trkpt lat="43.29092" lon="3.0757">
        <ele>44.2</ele>
        <time>2020-06-26T15:47:31Z</time>
      </trkpt>
      <trkpt lat="43.29091" lon="3.07574">
        <ele>44</ele>
        <time>2020-06-26T15:47:30Z</time>
      </trkpt>
      <trkpt lat="43.29091" lon="3.07577">
        <ele>44</ele>
        <time>2020-06-26T15:47:29Z</time>
      </trkpt>
      <trkpt lat="43.29091" lon="3.07581">
        <ele>44</ele>
        <time>2020-06-26T15:47:28Z</time>
      </trkpt>
      <trkpt lat="43.29089" lon="3.07585">
        <ele>43.8</ele>
        <time>2020-06-26T15:47:27Z</time>
      </trkpt>
      <trkpt lat="43.29088" lon="3.07587">
        <ele>43.8</ele>
        <time>2020-06-26T15:47:26Z</time>
      </trkpt>
      <trkpt lat="43.29087" lon="3.07589">
        <ele>43.6</ele>
        <time>2020-06-26T15:47:25Z</time>
      </trkpt>
      <trkpt lat="43.29087" lon="3.07593">
        <ele>43.4</ele>
        <time>2020-06-26T15:47:24Z</time>
      </trkpt>
      <trkpt lat="43.29087" lon="3.07597">
        <ele>43.2</ele>
        <time>2020-06-26T15:47:23Z</time>
      </trkpt>
      <trkpt lat="43.29086" lon="3.07602">
        <ele>43.2</ele>
        <time>2020-06-26T15:47:22Z</time>
      </trkpt>
      <trkpt lat="43.29085" lon="3.07606">
        <ele>43</ele>
        <time>2020-06-26T15:47:21Z</time>
      </trkpt>
      <trkpt lat="43.29084" lon="3.07609">
        <ele>43</ele>
        <time>2020-06-26T15:47:20Z</time>
      </trkpt>
      <trkpt lat="43.29084" lon="3.07615">
        <ele>43</ele>
        <time>2020-06-26T15:47:19Z</time>
      </trkpt>
      <trkpt lat="43.29084" lon="3.0762">
        <ele>43</ele>
        <time>2020-06-26T15:47:18Z</time>
      </trkpt>
      <trkpt lat="43.29084" lon="3.07624">
        <ele>42.8</ele>
        <time>2020-06-26T15:47:17Z</time>
      </trkpt>
      <trkpt lat="43.29083" lon="3.07631">
        <ele>42.8</ele>
        <time>2020-06-26T15:47:16Z</time>
      </trkpt>
      <trkpt lat="43.29082" lon="3.07637">
        <ele>42.8</ele>
        <time>2020-06-26T15:47:15Z</time>
      </trkpt>
      <trkpt lat="43.29082" lon="3.07641">
        <ele>42.6</ele>
        <time>2020-06-26T15:47:14Z</time>
      </trkpt>
      <trkpt lat="43.29082" lon="3.07645">
        <ele>42.6</ele>
        <time>2020-06-26T15:47:13Z</time>
      </trkpt>
      <trkpt lat="43.2908" lon="3.07651">
        <ele>42.6</ele>
        <time>2020-06-26T15:47:12Z</time>
      </trkpt>
      <trkpt lat="43.2908" lon="3.07656">
        <ele>42.6</ele>
        <time>2020-06-26T15:47:11Z</time>
      </trkpt>
      <trkpt lat="43.29079" lon="3.0766">
        <ele>42.6</ele>
        <time>2020-06-26T15:47:10Z</time>
      </trkpt>
      <trkpt lat="43.29079" lon="3.07666">
        <ele>42.4</ele>
        <time>2020-06-26T15:47:09Z</time>
      </trkpt>
      <trkpt lat="43.29078" lon="3.07672">
        <ele>42.4</ele>
        <time>2020-06-26T15:47:08Z</time>
      </trkpt>
      <trkpt lat="43.29077" lon="3.07677">
        <ele>42.4</ele>
        <time>2020-06-26T15:47:07Z</time>
      </trkpt>
      <trkpt lat="43.29076" lon="3.07681">
        <ele>42.2</ele>
        <time>2020-06-26T15:47:06Z</time>
      </trkpt>
      <trkpt lat="43.29076" lon="3.07684">
        <ele>42.2</ele>
        <time>2020-06-26T15:47:05Z</time>
      </trkpt>
      <trkpt lat="43.29076" lon="3.07688">
        <ele>42.2</ele>
        <time>2020-06-26T15:47:04Z</time>
      </trkpt>
      <trkpt lat="43.29075" lon="3.07692">
        <ele>42</ele>
        <time>2020-06-26T15:47:03Z</time>
      </trkpt>
      <trkpt lat="43.29075" lon="3.07695">
        <ele>41.8</ele>
        <time>2020-06-26T15:47:02Z</time>
      </trkpt>
      <trkpt lat="43.29074" lon="3.07699">
        <ele>41.8</ele>
        <time>2020-06-26T15:47:01Z</time>
      </trkpt>
      <trkpt lat="43.29074" lon="3.07702">
        <ele>41.6</ele>
        <time>2020-06-26T15:47:00Z</time>
      </trkpt>
      <trkpt lat="43.29074" lon="3.07704">
        <ele>41.4</ele>
        <time>2020-06-26T15:46:59Z</time>
      </trkpt>
      <trkpt lat="43.29073" lon="3.07707">
        <ele>41.4</ele>
        <time>2020-06-26T15:46:58Z</time>
      </trkpt>
      <trkpt lat="43.29073" lon="3.0771">
        <ele>41.2</ele>
        <time>2020-06-26T15:46:57Z</time>
      </trkpt>
      <trkpt lat="43.29073" lon="3.07714">
        <ele>41</ele>
        <time>2020-06-26T15:46:56Z</time>
      </trkpt>
      <trkpt lat="43.29071" lon="3.07718">
        <ele>40.8</ele>
        <time>2020-06-26T15:46:55Z</time>
      </trkpt>
      <trkpt lat="43.29071" lon="3.07723">
        <ele>40.8</ele>
        <time>2020-06-26T15:46:54Z</time>
      </trkpt>
      <trkpt lat="43.2907" lon="3.07727">
        <ele>40.6</ele>
        <time>2020-06-26T15:46:53Z</time>
      </trkpt>
      <trkpt lat="43.29068" lon="3.07733">
        <ele>40.6</ele>
        <time>2020-06-26T15:46:52Z</time>
      </trkpt>
      <trkpt lat="43.29067" lon="3.07736">
        <ele>40.4</ele>
        <time>2020-06-26T15:46:51Z</time>
      </trkpt>
      <trkpt lat="43.29067" lon="3.07741">
        <ele>40</ele>
        <time>2020-06-26T15:46:50Z</time>
      </trkpt>
      <trkpt lat="43.29066" lon="3.07745">
        <ele>39.8</ele>
        <time>2020-06-26T15:46:49Z</time>
      </trkpt>
      <trkpt lat="43.29065" lon="3.07748">
        <ele>39.8</ele>
        <time>2020-06-26T15:46:48Z</time>
      </trkpt>
      <trkpt lat="43.29065" lon="3.07751">
        <ele>39.8</ele>
        <time>2020-06-26T15:46:47Z</time>
      </trkpt>
      <trkpt lat="43.29065" lon="3.07754">
        <ele>39.6</ele>
        <time>2020-06-26T15:46:46Z</time>
      </trkpt>
      <trkpt lat="43.29064" lon="3.07758">
        <ele>39.4</ele>
        <time>2020-06-26T15:46:45Z</time>
      </trkpt>
      <trkpt lat="43.29064" lon="3.07765">
        <ele>39.2</ele>
        <time>2020-06-26T15:46:44Z</time>
      </trkpt>
      <trkpt lat="43.29064" lon="3.0777">
        <ele>39</ele>
        <time>2020-06-26T15:46:43Z</time>
      </trkpt>
      <trkpt lat="43.29064" lon="3.07775">
        <ele>38.8</ele>
        <time>2020-06-26T15:46:42Z</time>
      </trkpt>
      <trkpt lat="43.29063" lon="3.0778">
        <ele>38.8</ele>
        <time>2020-06-26T15:46:41Z</time>
      </trkpt>
      <trkpt lat="43.29062" lon="3.07786">
        <ele>38.8</ele>
        <time>2020-06-26T15:46:40Z</time>
      </trkpt>
      <trkpt lat="43.29062" lon="3.07792">
        <ele>38.6</ele>
        <time>2020-06-26T15:46:39Z</time>
      </trkpt>
      <trkpt lat="43.29061" lon="3.07797">
        <ele>38.4</ele>
        <time>2020-06-26T15:46:38Z</time>
      </trkpt>
      <trkpt lat="43.2906" lon="3.07805">
        <ele>38.4</ele>
        <time>2020-06-26T15:46:37Z</time>
      </trkpt>
      <trkpt lat="43.29059" lon="3.07811">
        <ele>38.2</ele>
        <time>2020-06-26T15:46:36Z</time>
      </trkpt>
      <trkpt lat="43.29058" lon="3.07817">
        <ele>38</ele>
        <time>2020-06-26T15:46:35Z</time>
      </trkpt>
      <trkpt lat="43.29058" lon="3.07823">
        <ele>37.8</ele>
        <time>2020-06-26T15:46:34Z</time>
      </trkpt>
      <trkpt lat="43.29057" lon="3.07828">
        <ele>37.8</ele>
        <time>2020-06-26T15:46:33Z</time>
      </trkpt>
      <trkpt lat="43.29056" lon="3.07834">
        <ele>37.8</ele>
        <time>2020-06-26T15:46:32Z</time>
      </trkpt>
      <trkpt lat="43.29055" lon="3.0784">
        <ele>37.6</ele>
        <time>2020-06-26T15:46:31Z</time>
      </trkpt>
      <trkpt lat="43.29056" lon="3.07845">
        <ele>37.6</ele>
        <time>2020-06-26T15:46:30Z</time>
      </trkpt>
      <trkpt lat="43.29056" lon="3.07851">
        <ele>37.4</ele>
        <time>2020-06-26T15:46:29Z</time>
      </trkpt>
      <trkpt lat="43.29055" lon="3.07857">
        <ele>37.4</ele>
        <time>2020-06-26T15:46:28Z</time>
      </trkpt>
      <trkpt lat="43.29053" lon="3.07864">
        <ele>37.4</ele>
        <time>2020-06-26T15:46:27Z</time>
      </trkpt>
      <trkpt lat="43.29053" lon="3.0787">
        <ele>37.2</ele>
        <time>2020-06-26T15:46:26Z</time>
      </trkpt>
      <trkpt lat="43.29052" lon="3.07875">
        <ele>37.2</ele>
        <time>2020-06-26T15:46:25Z</time>
      </trkpt>
      <trkpt lat="43.2905" lon="3.07881">
        <ele>37</ele>
        <time>2020-06-26T15:46:24Z</time>
      </trkpt>
      <trkpt lat="43.2905" lon="3.07887">
        <ele>37</ele>
        <time>2020-06-26T15:46:23Z</time>
      </trkpt>
      <trkpt lat="43.29049" lon="3.07892">
        <ele>37</ele>
        <time>2020-06-26T15:46:22Z</time>
      </trkpt>
      <trkpt lat="43.29048" lon="3.079">
        <ele>37</ele>
        <time>2020-06-26T15:46:21Z</time>
      </trkpt>
      <trkpt lat="43.29047" lon="3.07905">
        <ele>36.8</ele>
        <time>2020-06-26T15:46:20Z</time>
      </trkpt>
      <trkpt lat="43.29045" lon="3.07912">
        <ele>36.8</ele>
        <time>2020-06-26T15:46:19Z</time>
      </trkpt>
      <trkpt lat="43.29045" lon="3.07919">
        <ele>36.8</ele>
        <time>2020-06-26T15:46:18Z</time>
      </trkpt>
      <trkpt lat="43.29044" lon="3.07926">
        <ele>36.6</ele>
        <time>2020-06-26T15:46:17Z</time>
      </trkpt>
      <trkpt lat="43.29043" lon="3.07931">
        <ele>36.6</ele>
        <time>2020-06-26T15:46:16Z</time>
      </trkpt>
      <trkpt lat="43.29043" lon="3.07939">
        <ele>36.6</ele>
        <time>2020-06-26T15:46:15Z</time>
      </trkpt>
      <trkpt lat="43.29042" lon="3.07945">
        <ele>36.6</ele>
        <time>2020-06-26T15:46:14Z</time>
      </trkpt>
      <trkpt lat="43.29042" lon="3.07952">
        <ele>36.6</ele>
        <time>2020-06-26T15:46:13Z</time>
      </trkpt>
      <trkpt lat="43.29041" lon="3.07959">
        <ele>36.4</ele>
        <time>2020-06-26T15:46:12Z</time>
      </trkpt>
      <trkpt lat="43.29041" lon="3.07965">
        <ele>36.4</ele>
        <time>2020-06-26T15:46:11Z</time>
      </trkpt>
      <trkpt lat="43.2904" lon="3.07973">
        <ele>36.4</ele>
        <time>2020-06-26T15:46:10Z</time>
      </trkpt>
      <trkpt lat="43.2904" lon="3.0798">
        <ele>36.2</ele>
        <time>2020-06-26T15:46:09Z</time>
      </trkpt>
      <trkpt lat="43.29039" lon="3.07985">
        <ele>36.2</ele>
        <time>2020-06-26T15:46:08Z</time>
      </trkpt>
      <trkpt lat="43.29037" lon="3.07993">
        <ele>36.2</ele>
        <time>2020-06-26T15:46:07Z</time>
      </trkpt>
      <trkpt lat="43.29035" lon="3.07999">
        <ele>36.2</ele>
        <time>2020-06-26T15:46:06Z</time>
      </trkpt>
      <trkpt lat="43.29034" lon="3.08005">
        <ele>36.2</ele>
        <time>2020-06-26T15:46:05Z</time>
      </trkpt>
      <trkpt lat="43.29033" lon="3.08012">
        <ele>36</ele>
        <time>2020-06-26T15:46:04Z</time>
      </trkpt>
      <trkpt lat="43.29032" lon="3.0802">
        <ele>36</ele>
        <time>2020-06-26T15:46:03Z</time>
      </trkpt>
      <trkpt lat="43.29031" lon="3.08025">
        <ele>36</ele>
        <time>2020-06-26T15:46:02Z</time>
      </trkpt>
      <trkpt lat="43.29031" lon="3.08032">
        <ele>36</ele>
        <time>2020-06-26T15:46:01Z</time>
      </trkpt>
      <trkpt lat="43.2903" lon="3.08038">
        <ele>36</ele>
        <time>2020-06-26T15:46:00Z</time>
      </trkpt>
      <trkpt lat="43.29029" lon="3.08045">
        <ele>36</ele>
        <time>2020-06-26T15:45:59Z</time>
      </trkpt>
      <trkpt lat="43.29028" lon="3.08052">
        <ele>36</ele>
        <time>2020-06-26T15:45:58Z</time>
      </trkpt>
      <trkpt lat="43.29027" lon="3.08059">
        <ele>35.8</ele>
        <time>2020-06-26T15:45:57Z</time>
      </trkpt>
      <trkpt lat="43.29026" lon="3.08065">
        <ele>35.8</ele>
        <time>2020-06-26T15:45:56Z</time>
      </trkpt>
      <trkpt lat="43.29024" lon="3.08071">
        <ele>35.8</ele>
        <time>2020-06-26T15:45:55Z</time>
      </trkpt>
      <trkpt lat="43.29022" lon="3.08079">
        <ele>35.8</ele>
        <time>2020-06-26T15:45:54Z</time>
      </trkpt>
      <trkpt lat="43.29022" lon="3.08085">
        <ele>35.8</ele>
        <time>2020-06-26T15:45:53Z</time>
      </trkpt>
      <trkpt lat="43.29021" lon="3.08091">
        <ele>36</ele>
        <time>2020-06-26T15:45:52Z</time>
      </trkpt>
      <trkpt lat="43.2902" lon="3.08097">
        <ele>36</ele>
        <time>2020-06-26T15:45:51Z</time>
      </trkpt>
      <trkpt lat="43.29019" lon="3.08103">
        <ele>36</ele>
        <time>2020-06-26T15:45:50Z</time>
      </trkpt>
      <trkpt lat="43.29019" lon="3.0811">
        <ele>35.8</ele>
        <time>2020-06-26T15:45:49Z</time>
      </trkpt>
      <trkpt lat="43.29019" lon="3.08118">
        <ele>35.8</ele>
        <time>2020-06-26T15:45:48Z</time>
      </trkpt>
      <trkpt lat="43.29019" lon="3.08124">
        <ele>35.8</ele>
        <time>2020-06-26T15:45:47Z</time>
      </trkpt>
      <trkpt lat="43.29018" lon="3.0813">
        <ele>35.8</ele>
        <time>2020-06-26T15:45:46Z</time>
      </trkpt>
      <trkpt lat="43.29017" lon="3.08136">
        <ele>35.8</ele>
        <time>2020-06-26T15:45:45Z</time>
      </trkpt>
      <trkpt lat="43.29016" lon="3.08142">
        <ele>35.8</ele>
        <time>2020-06-26T15:45:44Z</time>
      </trkpt>
      <trkpt lat="43.29015" lon="3.08148">
        <ele>35.8</ele>
        <time>2020-06-26T15:45:43Z</time>
      </trkpt>
      <trkpt lat="43.29014" lon="3.08153">
        <ele>35.8</ele>
        <time>2020-06-26T15:45:42Z</time>
      </trkpt>
      <trkpt lat="43.29014" lon="3.08158">
        <ele>35.6</ele>
        <time>2020-06-26T15:45:41Z</time>
      </trkpt>
      <trkpt lat="43.29014" lon="3.08162">
        <ele>35.6</ele>
        <time>2020-06-26T15:45:40Z</time>
      </trkpt>
      <trkpt lat="43.29013" lon="3.08168">
        <ele>35.6</ele>
        <time>2020-06-26T15:45:39Z</time>
      </trkpt>
      <trkpt lat="43.29012" lon="3.08172">
        <ele>35.6</ele>
        <time>2020-06-26T15:45:38Z</time>
      </trkpt>
      <trkpt lat="43.29011" lon="3.08177">
        <ele>35.6</ele>
        <time>2020-06-26T15:45:37Z</time>
      </trkpt>
      <trkpt lat="43.2901" lon="3.08185">
        <ele>35.6</ele>
        <time>2020-06-26T15:45:36Z</time>
      </trkpt>
      <trkpt lat="43.29009" lon="3.08189">
        <ele>35.6</ele>
        <time>2020-06-26T15:45:35Z</time>
      </trkpt>
      <trkpt lat="43.29008" lon="3.08192">
        <ele>35.6</ele>
        <time>2020-06-26T15:45:34Z</time>
      </trkpt>
      <trkpt lat="43.29008" lon="3.08197">
        <ele>35.6</ele>
        <time>2020-06-26T15:45:33Z</time>
      </trkpt>
      <trkpt lat="43.29008" lon="3.082">
        <ele>35.6</ele>
        <time>2020-06-26T15:45:32Z</time>
      </trkpt>
      <trkpt lat="43.29007" lon="3.08204">
        <ele>35.6</ele>
        <time>2020-06-26T15:45:31Z</time>
      </trkpt>
      <trkpt lat="43.29005" lon="3.08206">
        <ele>35.6</ele>
        <time>2020-06-26T15:45:30Z</time>
      </trkpt>
      <trkpt lat="43.29005" lon="3.08209">
        <ele>35.6</ele>
        <time>2020-06-26T15:45:29Z</time>
      </trkpt>
      <trkpt lat="43.29004" lon="3.0821">
        <ele>35.8</ele>
        <time>2020-06-26T15:45:28Z</time>
      </trkpt>
      <trkpt lat="43.29002" lon="3.0821">
        <ele>35.8</ele>
        <time>2020-06-26T15:45:27Z</time>
      </trkpt>
      <trkpt lat="43.29001" lon="3.08208">
        <ele>35.6</ele>
        <time>2020-06-26T15:45:26Z</time>
      </trkpt>
      <trkpt lat="43.29" lon="3.08207">
        <ele>35.4</ele>
        <time>2020-06-26T15:45:25Z</time>
      </trkpt>
      <trkpt lat="43.29" lon="3.08205">
        <ele>35.6</ele>
        <time>2020-06-26T15:45:24Z</time>
      </trkpt>
      <trkpt lat="43.28999" lon="3.08204">
        <ele>35.6</ele>
        <time>2020-06-26T15:45:23Z</time>
      </trkpt>
      <trkpt lat="43.28999" lon="3.08202">
        <ele>35.4</ele>
        <time>2020-06-26T15:45:22Z</time>
      </trkpt>
      <trkpt lat="43.28999" lon="3.08198">
        <ele>35.6</ele>
        <time>2020-06-26T15:45:21Z</time>
      </trkpt>
      <trkpt lat="43.28998" lon="3.08196">
        <ele>35.4</ele>
        <time>2020-06-26T15:45:20Z</time>
      </trkpt>
      <trkpt lat="43.28998" lon="3.08196">
        <ele>35.4</ele>
        <time>2020-06-26T15:45:19Z</time>
      </trkpt>
      <trkpt lat="43.28997" lon="3.08193">
        <ele>35.6</ele>
        <time>2020-06-26T15:45:18Z</time>
      </trkpt>
      <trkpt lat="43.28997" lon="3.08192">
        <ele>35.8</ele>
        <time>2020-06-26T15:45:17Z</time>
      </trkpt>
      <trkpt lat="43.28996" lon="3.08191">
        <ele>35.8</ele>
        <time>2020-06-26T15:45:16Z</time>
      </trkpt>
      <trkpt lat="43.28995" lon="3.08191">
        <ele>35.6</ele>
        <time>2020-06-26T15:45:15Z</time>
      </trkpt>
      <trkpt lat="43.28995" lon="3.08192">
        <ele>35.6</ele>
        <time>2020-06-26T15:45:13Z</time>
      </trkpt>
      <trkpt lat="43.28994" lon="3.08191">
        <ele>35.8</ele>
        <time>2020-06-26T15:45:12Z</time>
      </trkpt>
      <trkpt lat="43.28994" lon="3.08194">
        <ele>36</ele>
        <time>2020-06-26T15:45:11Z</time>
      </trkpt>
      <trkpt lat="43.28994" lon="3.08192">
        <ele>35.8</ele>
        <time>2020-06-26T15:45:10Z</time>
      </trkpt>
      <trkpt lat="43.28994" lon="3.08191">
        <ele>35.8</ele>
        <time>2020-06-26T15:45:09Z</time>
      </trkpt>
      <trkpt lat="43.28994" lon="3.0819">
        <ele>35.8</ele>
        <time>2020-06-26T15:45:08Z</time>
      </trkpt>
      <trkpt lat="43.28995" lon="3.08189">
        <ele>35.6</ele>
        <time>2020-06-26T15:45:07Z</time>
      </trkpt>
      <trkpt lat="43.28995" lon="3.08188">
        <ele>35.8</ele>
        <time>2020-06-26T15:45:06Z</time>
      </trkpt>
      <trkpt lat="43.28995" lon="3.08187">
        <ele>35.8</ele>
        <time>2020-06-26T15:45:05Z</time>
      </trkpt>
      <trkpt lat="43.28995" lon="3.08187">
        <ele>35.6</ele>
        <time>2020-06-26T15:45:04Z</time>
      </trkpt>
      <trkpt lat="43.28996" lon="3.08188">
        <ele>35.8</ele>
        <time>2020-06-26T15:45:03Z</time>
      </trkpt>
      <trkpt lat="43.28995" lon="3.08187">
        <ele>35.6</ele>
        <time>2020-06-26T15:45:02Z</time>
      </trkpt>
      <trkpt lat="43.28996" lon="3.08189">
        <ele>35.8</ele>
        <time>2020-06-26T15:45:01Z</time>
      </trkpt>
      <trkpt lat="43.28997" lon="3.08191">
        <ele>36</ele>
        <time>2020-06-26T15:45:00Z</time>
      </trkpt>
      <trkpt lat="43.28998" lon="3.08195">
        <ele>36</ele>
        <time>2020-06-26T15:44:59Z</time>
      </trkpt>
      <trkpt lat="43.28999" lon="3.08197">
        <ele>35.8</ele>
        <time>2020-06-26T15:44:58Z</time>
      </trkpt>
      <trkpt lat="43.29" lon="3.082">
        <ele>35.8</ele>
        <time>2020-06-26T15:44:57Z</time>
      </trkpt>
      <trkpt lat="43.29" lon="3.08205">
        <ele>35.8</ele>
        <time>2020-06-26T15:44:56Z</time>
      </trkpt>
      <trkpt lat="43.29001" lon="3.0821">
        <ele>36</ele>
        <time>2020-06-26T15:44:55Z</time>
      </trkpt>
      <trkpt lat="43.29003" lon="3.08213">
        <ele>35.8</ele>
        <time>2020-06-26T15:44:54Z</time>
      </trkpt>
      <trkpt lat="43.29004" lon="3.08219">
        <ele>35.6</ele>
        <time>2020-06-26T15:44:53Z</time>
      </trkpt>
      <trkpt lat="43.29006" lon="3.08225">
        <ele>35.6</ele>
        <time>2020-06-26T15:44:52Z</time>
      </trkpt>
      <trkpt lat="43.29007" lon="3.08229">
        <ele>35.6</ele>
        <time>2020-06-26T15:44:51Z</time>
      </trkpt>
      <trkpt lat="43.29009" lon="3.08236">
        <ele>35.4</ele>
        <time>2020-06-26T15:44:50Z</time>
      </trkpt>
      <trkpt lat="43.29012" lon="3.08242">
        <ele>35.6</ele>
        <time>2020-06-26T15:44:49Z</time>
      </trkpt>
      <trkpt lat="43.29014" lon="3.08248">
        <ele>35.6</ele>
        <time>2020-06-26T15:44:48Z</time>
      </trkpt>
      <trkpt lat="43.29016" lon="3.08255">
        <ele>35.8</ele>
        <time>2020-06-26T15:44:47Z</time>
      </trkpt>
      <trkpt lat="43.29018" lon="3.08261">
        <ele>35.6</ele>
        <time>2020-06-26T15:44:46Z</time>
      </trkpt>
      <trkpt lat="43.29021" lon="3.08268">
        <ele>35.6</ele>
        <time>2020-06-26T15:44:45Z</time>
      </trkpt>
      <trkpt lat="43.29023" lon="3.08274">
        <ele>35.8</ele>
        <time>2020-06-26T15:44:44Z</time>
      </trkpt>
      <trkpt lat="43.29027" lon="3.08281">
        <ele>35.8</ele>
        <time>2020-06-26T15:44:43Z</time>
      </trkpt>
      <trkpt lat="43.29029" lon="3.08288">
        <ele>35.8</ele>
        <time>2020-06-26T15:44:42Z</time>
      </trkpt>
      <trkpt lat="43.29031" lon="3.08294">
        <ele>35.8</ele>
        <time>2020-06-26T15:44:41Z</time>
      </trkpt>
      <trkpt lat="43.29034" lon="3.083">
        <ele>35.8</ele>
        <time>2020-06-26T15:44:40Z</time>
      </trkpt>
      <trkpt lat="43.29036" lon="3.08307">
        <ele>35.6</ele>
        <time>2020-06-26T15:44:39Z</time>
      </trkpt>
      <trkpt lat="43.29039" lon="3.08313">
        <ele>35.8</ele>
        <time>2020-06-26T15:44:38Z</time>
      </trkpt>
      <trkpt lat="43.29041" lon="3.08317">
        <ele>35.8</ele>
        <time>2020-06-26T15:44:37Z</time>
      </trkpt>
      <trkpt lat="43.29045" lon="3.08323">
        <ele>35.8</ele>
        <time>2020-06-26T15:44:36Z</time>
      </trkpt>
      <trkpt lat="43.29048" lon="3.08329">
        <ele>35.8</ele>
        <time>2020-06-26T15:44:35Z</time>
      </trkpt>
      <trkpt lat="43.29051" lon="3.08337">
        <ele>35.8</ele>
        <time>2020-06-26T15:44:34Z</time>
      </trkpt>
      <trkpt lat="43.29054" lon="3.0834">
        <ele>35.8</ele>
        <time>2020-06-26T15:44:33Z</time>
      </trkpt>
      <trkpt lat="43.29057" lon="3.08348">
        <ele>35.8</ele>
        <time>2020-06-26T15:44:32Z</time>
      </trkpt>
      <trkpt lat="43.29058" lon="3.08355">
        <ele>35.8</ele>
        <time>2020-06-26T15:44:31Z</time>
      </trkpt>
      <trkpt lat="43.29063" lon="3.08359">
        <ele>36</ele>
        <time>2020-06-26T15:44:30Z</time>
      </trkpt>
      <trkpt lat="43.29065" lon="3.08364">
        <ele>36</ele>
        <time>2020-06-26T15:44:29Z</time>
      </trkpt>
      <trkpt lat="43.29067" lon="3.08375">
        <ele>36</ele>
        <time>2020-06-26T15:44:28Z</time>
      </trkpt>
      <trkpt lat="43.2907" lon="3.0838">
        <ele>36</ele>
        <time>2020-06-26T15:44:27Z</time>
      </trkpt>
      <trkpt lat="43.29072" lon="3.08385">
        <ele>36</ele>
        <time>2020-06-26T15:44:26Z</time>
      </trkpt>
      <trkpt lat="43.29075" lon="3.08391">
        <ele>36</ele>
        <time>2020-06-26T15:44:25Z</time>
      </trkpt>
      <trkpt lat="43.29077" lon="3.08398">
        <ele>36</ele>
        <time>2020-06-26T15:44:24Z</time>
      </trkpt>
      <trkpt lat="43.29078" lon="3.08403">
        <ele>36</ele>
        <time>2020-06-26T15:44:23Z</time>
      </trkpt>
      <trkpt lat="43.29082" lon="3.08409">
        <ele>36</ele>
        <time>2020-06-26T15:44:22Z</time>
      </trkpt>
      <trkpt lat="43.29083" lon="3.08419">
        <ele>36</ele>
        <time>2020-06-26T15:44:21Z</time>
      </trkpt>
      <trkpt lat="43.29085" lon="3.08426">
        <ele>36</ele>
        <time>2020-06-26T15:44:20Z</time>
      </trkpt>
      <trkpt lat="43.29087" lon="3.0843">
        <ele>36</ele>
        <time>2020-06-26T15:44:19Z</time>
      </trkpt>
      <trkpt lat="43.29089" lon="3.08436">
        <ele>36</ele>
        <time>2020-06-26T15:44:18Z</time>
      </trkpt>
      <trkpt lat="43.29091" lon="3.0844">
        <ele>36</ele>
        <time>2020-06-26T15:44:17Z</time>
      </trkpt>
      <trkpt lat="43.29093" lon="3.08447">
        <ele>36</ele>
        <time>2020-06-26T15:44:16Z</time>
      </trkpt>
      <trkpt lat="43.29096" lon="3.0845">
        <ele>35.8</ele>
        <time>2020-06-26T15:44:15Z</time>
      </trkpt>
      <trkpt lat="43.291" lon="3.08453">
        <ele>35.8</ele>
        <time>2020-06-26T15:44:14Z</time>
      </trkpt>
      <trkpt lat="43.29101" lon="3.08458">
        <ele>35.8</ele>
        <time>2020-06-26T15:44:13Z</time>
      </trkpt>
      <trkpt lat="43.29103" lon="3.08462">
        <ele>35.6</ele>
        <time>2020-06-26T15:44:12Z</time>
      </trkpt>
      <trkpt lat="43.29106" lon="3.08468">
        <ele>35.6</ele>
        <time>2020-06-26T15:44:11Z</time>
      </trkpt>
      <trkpt lat="43.29108" lon="3.08474">
        <ele>35.6</ele>
        <time>2020-06-26T15:44:10Z</time>
      </trkpt>
      <trkpt lat="43.29111" lon="3.0848">
        <ele>35.6</ele>
        <time>2020-06-26T15:44:09Z</time>
      </trkpt>
      <trkpt lat="43.29113" lon="3.08485">
        <ele>35.6</ele>
        <time>2020-06-26T15:44:08Z</time>
      </trkpt>
      <trkpt lat="43.29114" lon="3.08492">
        <ele>35.6</ele>
        <time>2020-06-26T15:44:07Z</time>
      </trkpt>
      <trkpt lat="43.29117" lon="3.08498">
        <ele>35.4</ele>
        <time>2020-06-26T15:44:06Z</time>
      </trkpt>
      <trkpt lat="43.29119" lon="3.08503">
        <ele>35.2</ele>
        <time>2020-06-26T15:44:05Z</time>
      </trkpt>
      <trkpt lat="43.29122" lon="3.08509">
        <ele>35</ele>
        <time>2020-06-26T15:44:04Z</time>
      </trkpt>
      <trkpt lat="43.29125" lon="3.08515">
        <ele>35</ele>
        <time>2020-06-26T15:44:03Z</time>
      </trkpt>
      <trkpt lat="43.29128" lon="3.08522">
        <ele>35</ele>
        <time>2020-06-26T15:44:02Z</time>
      </trkpt>
      <trkpt lat="43.29131" lon="3.08529">
        <ele>35</ele>
        <time>2020-06-26T15:44:01Z</time>
      </trkpt>
      <trkpt lat="43.29134" lon="3.08536">
        <ele>35</ele>
        <time>2020-06-26T15:44:00Z</time>
      </trkpt>
      <trkpt lat="43.29137" lon="3.08542">
        <ele>35</ele>
        <time>2020-06-26T15:43:59Z</time>
      </trkpt>
      <trkpt lat="43.29141" lon="3.08549">
        <ele>35</ele>
        <time>2020-06-26T15:43:58Z</time>
      </trkpt>
      <trkpt lat="43.29144" lon="3.08553">
        <ele>35</ele>
        <time>2020-06-26T15:43:57Z</time>
      </trkpt>
      <trkpt lat="43.29147" lon="3.0856">
        <ele>35</ele>
        <time>2020-06-26T15:43:56Z</time>
      </trkpt>
      <trkpt lat="43.29149" lon="3.08566">
        <ele>35</ele>
        <time>2020-06-26T15:43:55Z</time>
      </trkpt>
      <trkpt lat="43.29151" lon="3.08572">
        <ele>35</ele>
        <time>2020-06-26T15:43:54Z</time>
      </trkpt>
      <trkpt lat="43.29153" lon="3.08577">
        <ele>35</ele>
        <time>2020-06-26T15:43:53Z</time>
      </trkpt>
      <trkpt lat="43.29156" lon="3.08584">
        <ele>35.2</ele>
        <time>2020-06-26T15:43:52Z</time>
      </trkpt>
      <trkpt lat="43.29158" lon="3.08592">
        <ele>35</ele>
        <time>2020-06-26T15:43:51Z</time>
      </trkpt>
      <trkpt lat="43.2916" lon="3.08599">
        <ele>35</ele>
        <time>2020-06-26T15:43:50Z</time>
      </trkpt>
      <trkpt lat="43.29162" lon="3.08606">
        <ele>35.2</ele>
        <time>2020-06-26T15:43:49Z</time>
      </trkpt>
      <trkpt lat="43.29164" lon="3.08613">
        <ele>35</ele>
        <time>2020-06-26T15:43:48Z</time>
      </trkpt>
      <trkpt lat="43.29167" lon="3.08619">
        <ele>34.8</ele>
        <time>2020-06-26T15:43:47Z</time>
      </trkpt>
      <trkpt lat="43.29169" lon="3.08628">
        <ele>34.8</ele>
        <time>2020-06-26T15:43:46Z</time>
      </trkpt>
      <trkpt lat="43.29172" lon="3.08633">
        <ele>34.8</ele>
        <time>2020-06-26T15:43:45Z</time>
      </trkpt>
      <trkpt lat="43.29175" lon="3.0864">
        <ele>34.8</ele>
        <time>2020-06-26T15:43:44Z</time>
      </trkpt>
      <trkpt lat="43.29178" lon="3.08647">
        <ele>34.8</ele>
        <time>2020-06-26T15:43:43Z</time>
      </trkpt>
      <trkpt lat="43.2918" lon="3.08653">
        <ele>34.8</ele>
        <time>2020-06-26T15:43:42Z</time>
      </trkpt>
      <trkpt lat="43.29184" lon="3.08659">
        <ele>34.8</ele>
        <time>2020-06-26T15:43:41Z</time>
      </trkpt>
      <trkpt lat="43.29187" lon="3.08665">
        <ele>34.6</ele>
        <time>2020-06-26T15:43:40Z</time>
      </trkpt>
      <trkpt lat="43.2919" lon="3.0867">
        <ele>34.6</ele>
        <time>2020-06-26T15:43:39Z</time>
      </trkpt>
      <trkpt lat="43.29191" lon="3.08677">
        <ele>34.6</ele>
        <time>2020-06-26T15:43:38Z</time>
      </trkpt>
      <trkpt lat="43.29193" lon="3.08684">
        <ele>34.6</ele>
        <time>2020-06-26T15:43:37Z</time>
      </trkpt>
      <trkpt lat="43.29196" lon="3.08689">
        <ele>34.6</ele>
        <time>2020-06-26T15:43:36Z</time>
      </trkpt>
      <trkpt lat="43.29199" lon="3.08696">
        <ele>34.6</ele>
        <time>2020-06-26T15:43:35Z</time>
      </trkpt>
      <trkpt lat="43.29202" lon="3.08702">
        <ele>34.6</ele>
        <time>2020-06-26T15:43:34Z</time>
      </trkpt>
      <trkpt lat="43.29207" lon="3.08711">
        <ele>34.6</ele>
        <time>2020-06-26T15:43:33Z</time>
      </trkpt>
      <trkpt lat="43.2921" lon="3.08719">
        <ele>34.6</ele>
        <time>2020-06-26T15:43:32Z</time>
      </trkpt>
      <trkpt lat="43.29214" lon="3.08725">
        <ele>34.6</ele>
        <time>2020-06-26T15:43:31Z</time>
      </trkpt>
      <trkpt lat="43.29218" lon="3.08732">
        <ele>34.6</ele>
        <time>2020-06-26T15:43:30Z</time>
      </trkpt>
      <trkpt lat="43.29221" lon="3.08739">
        <ele>34.6</ele>
        <time>2020-06-26T15:43:29Z</time>
      </trkpt>
      <trkpt lat="43.29224" lon="3.08745">
        <ele>34.6</ele>
        <time>2020-06-26T15:43:28Z</time>
      </trkpt>
      <trkpt lat="43.29227" lon="3.0875">
        <ele>34.8</ele>
        <time>2020-06-26T15:43:27Z</time>
      </trkpt>
      <trkpt lat="43.2923" lon="3.08756">
        <ele>34.8</ele>
        <time>2020-06-26T15:43:26Z</time>
      </trkpt>
      <trkpt lat="43.29232" lon="3.08761">
        <ele>34.8</ele>
        <time>2020-06-26T15:43:25Z</time>
      </trkpt>
      <trkpt lat="43.29234" lon="3.08767">
        <ele>34.8</ele>
        <time>2020-06-26T15:43:24Z</time>
      </trkpt>
      <trkpt lat="43.29236" lon="3.08774">
        <ele>34.8</ele>
        <time>2020-06-26T15:43:23Z</time>
      </trkpt>
      <trkpt lat="43.2924" lon="3.0878">
        <ele>34.8</ele>
        <time>2020-06-26T15:43:22Z</time>
      </trkpt>
      <trkpt lat="43.29243" lon="3.08788">
        <ele>34.8</ele>
        <time>2020-06-26T15:43:21Z</time>
      </trkpt>
      <trkpt lat="43.29247" lon="3.08794">
        <ele>34.8</ele>
        <time>2020-06-26T15:43:20Z</time>
      </trkpt>
      <trkpt lat="43.29251" lon="3.08801">
        <ele>34.8</ele>
        <time>2020-06-26T15:43:19Z</time>
      </trkpt>
      <trkpt lat="43.29254" lon="3.08808">
        <ele>34.6</ele>
        <time>2020-06-26T15:43:18Z</time>
      </trkpt>
      <trkpt lat="43.29258" lon="3.08815">
        <ele>34.8</ele>
        <time>2020-06-26T15:43:17Z</time>
      </trkpt>
      <trkpt lat="43.2926" lon="3.08822">
        <ele>34.8</ele>
        <time>2020-06-26T15:43:16Z</time>
      </trkpt>
      <trkpt lat="43.29262" lon="3.08828">
        <ele>34.8</ele>
        <time>2020-06-26T15:43:15Z</time>
      </trkpt>
      <trkpt lat="43.29265" lon="3.08835">
        <ele>34.8</ele>
        <time>2020-06-26T15:43:14Z</time>
      </trkpt>
      <trkpt lat="43.29268" lon="3.08841">
        <ele>34.8</ele>
        <time>2020-06-26T15:43:13Z</time>
      </trkpt>
      <trkpt lat="43.29271" lon="3.08847">
        <ele>34.8</ele>
        <time>2020-06-26T15:43:12Z</time>
      </trkpt>
      <trkpt lat="43.29275" lon="3.08854">
        <ele>34.8</ele>
        <time>2020-06-26T15:43:11Z</time>
      </trkpt>
      <trkpt lat="43.29278" lon="3.08861">
        <ele>34.6</ele>
        <time>2020-06-26T15:43:10Z</time>
      </trkpt>
      <trkpt lat="43.29281" lon="3.08868">
        <ele>34.6</ele>
        <time>2020-06-26T15:43:09Z</time>
      </trkpt>
      <trkpt lat="43.29284" lon="3.08876">
        <ele>34.6</ele>
        <time>2020-06-26T15:43:08Z</time>
      </trkpt>
      <trkpt lat="43.29288" lon="3.08883">
        <ele>34.6</ele>
        <time>2020-06-26T15:43:07Z</time>
      </trkpt>
      <trkpt lat="43.2929" lon="3.0889">
        <ele>34.6</ele>
        <time>2020-06-26T15:43:06Z</time>
      </trkpt>
      <trkpt lat="43.29293" lon="3.08897">
        <ele>34.6</ele>
        <time>2020-06-26T15:43:05Z</time>
      </trkpt>
      <trkpt lat="43.29296" lon="3.08904">
        <ele>34.6</ele>
        <time>2020-06-26T15:43:04Z</time>
      </trkpt>
      <trkpt lat="43.29299" lon="3.08912">
        <ele>34.6</ele>
        <time>2020-06-26T15:43:03Z</time>
      </trkpt>
      <trkpt lat="43.29303" lon="3.08919">
        <ele>34.8</ele>
        <time>2020-06-26T15:43:02Z</time>
      </trkpt>
      <trkpt lat="43.29304" lon="3.08925">
        <ele>34.8</ele>
        <time>2020-06-26T15:43:01Z</time>
      </trkpt>
      <trkpt lat="43.29308" lon="3.08932">
        <ele>34.8</ele>
        <time>2020-06-26T15:43:00Z</time>
      </trkpt>
      <trkpt lat="43.29311" lon="3.08939">
        <ele>34.8</ele>
        <time>2020-06-26T15:42:59Z</time>
      </trkpt>
      <trkpt lat="43.29314" lon="3.08947">
        <ele>35</ele>
        <time>2020-06-26T15:42:58Z</time>
      </trkpt>
      <trkpt lat="43.29318" lon="3.08953">
        <ele>35</ele>
        <time>2020-06-26T15:42:57Z</time>
      </trkpt>
      <trkpt lat="43.29321" lon="3.0896">
        <ele>35</ele>
        <time>2020-06-26T15:42:56Z</time>
      </trkpt>
      <trkpt lat="43.29324" lon="3.08967">
        <ele>35</ele>
        <time>2020-06-26T15:42:55Z</time>
      </trkpt>
      <trkpt lat="43.29327" lon="3.08974">
        <ele>35</ele>
        <time>2020-06-26T15:42:54Z</time>
      </trkpt>
      <trkpt lat="43.29331" lon="3.08981">
        <ele>35</ele>
        <time>2020-06-26T15:42:53Z</time>
      </trkpt>
      <trkpt lat="43.29333" lon="3.08988">
        <ele>35</ele>
        <time>2020-06-26T15:42:52Z</time>
      </trkpt>
      <trkpt lat="43.29337" lon="3.08997">
        <ele>35</ele>
        <time>2020-06-26T15:42:51Z</time>
      </trkpt>
      <trkpt lat="43.29341" lon="3.09005">
        <ele>35</ele>
        <time>2020-06-26T15:42:50Z</time>
      </trkpt>
      <trkpt lat="43.29345" lon="3.09013">
        <ele>35</ele>
        <time>2020-06-26T15:42:49Z</time>
      </trkpt>
      <trkpt lat="43.29348" lon="3.09018">
        <ele>35</ele>
        <time>2020-06-26T15:42:48Z</time>
      </trkpt>
      <trkpt lat="43.29352" lon="3.09024">
        <ele>35.2</ele>
        <time>2020-06-26T15:42:47Z</time>
      </trkpt>
      <trkpt lat="43.29356" lon="3.09031">
        <ele>35.2</ele>
        <time>2020-06-26T15:42:46Z</time>
      </trkpt>
      <trkpt lat="43.29359" lon="3.09038">
        <ele>35.4</ele>
        <time>2020-06-26T15:42:45Z</time>
      </trkpt>
      <trkpt lat="43.29364" lon="3.09045">
        <ele>35.6</ele>
        <time>2020-06-26T15:42:44Z</time>
      </trkpt>
      <trkpt lat="43.29368" lon="3.09052">
        <ele>35.6</ele>
        <time>2020-06-26T15:42:43Z</time>
      </trkpt>
      <trkpt lat="43.29372" lon="3.09057">
        <ele>35.8</ele>
        <time>2020-06-26T15:42:42Z</time>
      </trkpt>
      <trkpt lat="43.29377" lon="3.09063">
        <ele>35.8</ele>
        <time>2020-06-26T15:42:41Z</time>
      </trkpt>
      <trkpt lat="43.29381" lon="3.09069">
        <ele>35.8</ele>
        <time>2020-06-26T15:42:40Z</time>
      </trkpt>
      <trkpt lat="43.29384" lon="3.09076">
        <ele>36</ele>
        <time>2020-06-26T15:42:39Z</time>
      </trkpt>
      <trkpt lat="43.29387" lon="3.09082">
        <ele>35.8</ele>
        <time>2020-06-26T15:42:38Z</time>
      </trkpt>
      <trkpt lat="43.2939" lon="3.09087">
        <ele>35.6</ele>
        <time>2020-06-26T15:42:37Z</time>
      </trkpt>
      <trkpt lat="43.29395" lon="3.09095">
        <ele>35.4</ele>
        <time>2020-06-26T15:42:36Z</time>
      </trkpt>
      <trkpt lat="43.29398" lon="3.09102">
        <ele>35.4</ele>
        <time>2020-06-26T15:42:35Z</time>
      </trkpt>
      <trkpt lat="43.29401" lon="3.09111">
        <ele>35.4</ele>
        <time>2020-06-26T15:42:34Z</time>
      </trkpt>
      <trkpt lat="43.29404" lon="3.09117">
        <ele>35.2</ele>
        <time>2020-06-26T15:42:33Z</time>
      </trkpt>
      <trkpt lat="43.29407" lon="3.09125">
        <ele>35.4</ele>
        <time>2020-06-26T15:42:32Z</time>
      </trkpt>
      <trkpt lat="43.2941" lon="3.09133">
        <ele>35.4</ele>
        <time>2020-06-26T15:42:31Z</time>
      </trkpt>
      <trkpt lat="43.29414" lon="3.0914">
        <ele>35.4</ele>
        <time>2020-06-26T15:42:30Z</time>
      </trkpt>
      <trkpt lat="43.29416" lon="3.09148">
        <ele>35.4</ele>
        <time>2020-06-26T15:42:29Z</time>
      </trkpt>
      <trkpt lat="43.29418" lon="3.09156">
        <ele>35.4</ele>
        <time>2020-06-26T15:42:28Z</time>
      </trkpt>
      <trkpt lat="43.2942" lon="3.09163">
        <ele>35.2</ele>
        <time>2020-06-26T15:42:27Z</time>
      </trkpt>
      <trkpt lat="43.29423" lon="3.09171">
        <ele>35.4</ele>
        <time>2020-06-26T15:42:26Z</time>
      </trkpt>
      <trkpt lat="43.29427" lon="3.09178">
        <ele>35.4</ele>
        <time>2020-06-26T15:42:25Z</time>
      </trkpt>
      <trkpt lat="43.29429" lon="3.09186">
        <ele>35.4</ele>
        <time>2020-06-26T15:42:24Z</time>
      </trkpt>
      <trkpt lat="43.29433" lon="3.09193">
        <ele>35.2</ele>
        <time>2020-06-26T15:42:23Z</time>
      </trkpt>
      <trkpt lat="43.29436" lon="3.092">
        <ele>35.2</ele>
        <time>2020-06-26T15:42:22Z</time>
      </trkpt>
      <trkpt lat="43.29438" lon="3.09207">
        <ele>35.2</ele>
        <time>2020-06-26T15:42:21Z</time>
      </trkpt>
      <trkpt lat="43.29442" lon="3.09214">
        <ele>35.2</ele>
        <time>2020-06-26T15:42:20Z</time>
      </trkpt>
      <trkpt lat="43.29446" lon="3.09221">
        <ele>35.2</ele>
        <time>2020-06-26T15:42:19Z</time>
      </trkpt>
      <trkpt lat="43.29449" lon="3.09229">
        <ele>35.2</ele>
        <time>2020-06-26T15:42:18Z</time>
      </trkpt>
      <trkpt lat="43.29452" lon="3.09236">
        <ele>35</ele>
        <time>2020-06-26T15:42:17Z</time>
      </trkpt>
      <trkpt lat="43.29456" lon="3.09244">
        <ele>35.2</ele>
        <time>2020-06-26T15:42:16Z</time>
      </trkpt>
      <trkpt lat="43.29458" lon="3.09251">
        <ele>35.2</ele>
        <time>2020-06-26T15:42:15Z</time>
      </trkpt>
      <trkpt lat="43.29461" lon="3.09258">
        <ele>35.2</ele>
        <time>2020-06-26T15:42:14Z</time>
      </trkpt>
      <trkpt lat="43.29463" lon="3.09266">
        <ele>35.2</ele>
        <time>2020-06-26T15:42:13Z</time>
      </trkpt>
      <trkpt lat="43.29465" lon="3.09275">
        <ele>35</ele>
        <time>2020-06-26T15:42:12Z</time>
      </trkpt>
      <trkpt lat="43.29469" lon="3.09282">
        <ele>35</ele>
        <time>2020-06-26T15:42:11Z</time>
      </trkpt>
      <trkpt lat="43.29471" lon="3.0929">
        <ele>35</ele>
        <time>2020-06-26T15:42:10Z</time>
      </trkpt>
      <trkpt lat="43.29474" lon="3.09299">
        <ele>35</ele>
        <time>2020-06-26T15:42:09Z</time>
      </trkpt>
      <trkpt lat="43.29476" lon="3.09308">
        <ele>35</ele>
        <time>2020-06-26T15:42:08Z</time>
      </trkpt>
      <trkpt lat="43.29479" lon="3.09315">
        <ele>35</ele>
        <time>2020-06-26T15:42:07Z</time>
      </trkpt>
      <trkpt lat="43.29482" lon="3.09324">
        <ele>35.2</ele>
        <time>2020-06-26T15:42:06Z</time>
      </trkpt>
      <trkpt lat="43.29485" lon="3.09332">
        <ele>35</ele>
        <time>2020-06-26T15:42:05Z</time>
      </trkpt>
      <trkpt lat="43.29486" lon="3.0934">
        <ele>35</ele>
        <time>2020-06-26T15:42:04Z</time>
      </trkpt>
      <trkpt lat="43.29488" lon="3.09348">
        <ele>35.2</ele>
        <time>2020-06-26T15:42:03Z</time>
      </trkpt>
      <trkpt lat="43.2949" lon="3.09355">
        <ele>35.2</ele>
        <time>2020-06-26T15:42:02Z</time>
      </trkpt>
      <trkpt lat="43.29492" lon="3.09364">
        <ele>35.2</ele>
        <time>2020-06-26T15:42:01Z</time>
      </trkpt>
      <trkpt lat="43.29496" lon="3.09371">
        <ele>35.2</ele>
        <time>2020-06-26T15:42:00Z</time>
      </trkpt>
      <trkpt lat="43.29499" lon="3.09379">
        <ele>35.2</ele>
        <time>2020-06-26T15:41:59Z</time>
      </trkpt>
      <trkpt lat="43.29501" lon="3.09387">
        <ele>35</ele>
        <time>2020-06-26T15:41:58Z</time>
      </trkpt>
      <trkpt lat="43.29504" lon="3.09393">
        <ele>35.2</ele>
        <time>2020-06-26T15:41:57Z</time>
      </trkpt>
      <trkpt lat="43.29506" lon="3.094">
        <ele>35.2</ele>
        <time>2020-06-26T15:41:56Z</time>
      </trkpt>
      <trkpt lat="43.29508" lon="3.09406">
        <ele>35.2</ele>
        <time>2020-06-26T15:41:55Z</time>
      </trkpt>
      <trkpt lat="43.2951" lon="3.09414">
        <ele>35.2</ele>
        <time>2020-06-26T15:41:54Z</time>
      </trkpt>
      <trkpt lat="43.29512" lon="3.0942">
        <ele>35.2</ele>
        <time>2020-06-26T15:41:53Z</time>
      </trkpt>
      <trkpt lat="43.29515" lon="3.09428">
        <ele>35</ele>
        <time>2020-06-26T15:41:52Z</time>
      </trkpt>
      <trkpt lat="43.29517" lon="3.09435">
        <ele>35</ele>
        <time>2020-06-26T15:41:51Z</time>
      </trkpt>
      <trkpt lat="43.29519" lon="3.09441">
        <ele>35</ele>
        <time>2020-06-26T15:41:50Z</time>
      </trkpt>
      <trkpt lat="43.29523" lon="3.09447">
        <ele>35</ele>
        <time>2020-06-26T15:41:49Z</time>
      </trkpt>
      <trkpt lat="43.29527" lon="3.09452">
        <ele>35.2</ele>
        <time>2020-06-26T15:41:48Z</time>
      </trkpt>
      <trkpt lat="43.29531" lon="3.09457">
        <ele>35.2</ele>
        <time>2020-06-26T15:41:47Z</time>
      </trkpt>
      <trkpt lat="43.29534" lon="3.09463">
        <ele>35.4</ele>
        <time>2020-06-26T15:41:46Z</time>
      </trkpt>
      <trkpt lat="43.29537" lon="3.09469">
        <ele>35.6</ele>
        <time>2020-06-26T15:41:45Z</time>
      </trkpt>
      <trkpt lat="43.29541" lon="3.09472">
        <ele>35.6</ele>
        <time>2020-06-26T15:41:44Z</time>
      </trkpt>
      <trkpt lat="43.29544" lon="3.09478">
        <ele>35.4</ele>
        <time>2020-06-26T15:41:43Z</time>
      </trkpt>
      <trkpt lat="43.29545" lon="3.09484">
        <ele>35.2</ele>
        <time>2020-06-26T15:41:42Z</time>
      </trkpt>
      <trkpt lat="43.29546" lon="3.09492">
        <ele>35.2</ele>
        <time>2020-06-26T15:41:41Z</time>
      </trkpt>
      <trkpt lat="43.29548" lon="3.09497">
        <ele>35.4</ele>
        <time>2020-06-26T15:41:40Z</time>
      </trkpt>
      <trkpt lat="43.2955" lon="3.09504">
        <ele>35.2</ele>
        <time>2020-06-26T15:41:39Z</time>
      </trkpt>
      <trkpt lat="43.29552" lon="3.09512">
        <ele>35.2</ele>
        <time>2020-06-26T15:41:38Z</time>
      </trkpt>
      <trkpt lat="43.29554" lon="3.09519">
        <ele>35.2</ele>
        <time>2020-06-26T15:41:37Z</time>
      </trkpt>
      <trkpt lat="43.29555" lon="3.09525">
        <ele>35.2</ele>
        <time>2020-06-26T15:41:36Z</time>
      </trkpt>
      <trkpt lat="43.29558" lon="3.09531">
        <ele>35.2</ele>
        <time>2020-06-26T15:41:35Z</time>
      </trkpt>
      <trkpt lat="43.29561" lon="3.09538">
        <ele>35.2</ele>
        <time>2020-06-26T15:41:34Z</time>
      </trkpt>
      <trkpt lat="43.29564" lon="3.09545">
        <ele>35.2</ele>
        <time>2020-06-26T15:41:33Z</time>
      </trkpt>
      <trkpt lat="43.29567" lon="3.09552">
        <ele>35.2</ele>
        <time>2020-06-26T15:41:32Z</time>
      </trkpt>
      <trkpt lat="43.29571" lon="3.0956">
        <ele>35.4</ele>
        <time>2020-06-26T15:41:31Z</time>
      </trkpt>
      <trkpt lat="43.29573" lon="3.09568">
        <ele>35.2</ele>
        <time>2020-06-26T15:41:30Z</time>
      </trkpt>
      <trkpt lat="43.29575" lon="3.09575">
        <ele>35.4</ele>
        <time>2020-06-26T15:41:29Z</time>
      </trkpt>
      <trkpt lat="43.29578" lon="3.09582">
        <ele>35.4</ele>
        <time>2020-06-26T15:41:28Z</time>
      </trkpt>
      <trkpt lat="43.29581" lon="3.09589">
        <ele>35.4</ele>
        <time>2020-06-26T15:41:27Z</time>
      </trkpt>
      <trkpt lat="43.29584" lon="3.09596">
        <ele>35.4</ele>
        <time>2020-06-26T15:41:26Z</time>
      </trkpt>
      <trkpt lat="43.29587" lon="3.09604">
        <ele>35.4</ele>
        <time>2020-06-26T15:41:25Z</time>
      </trkpt>
      <trkpt lat="43.29589" lon="3.09613">
        <ele>35.4</ele>
        <time>2020-06-26T15:41:24Z</time>
      </trkpt>
      <trkpt lat="43.29591" lon="3.09621">
        <ele>35.4</ele>
        <time>2020-06-26T15:41:23Z</time>
      </trkpt>
      <trkpt lat="43.29593" lon="3.09629">
        <ele>35.4</ele>
        <time>2020-06-26T15:41:22Z</time>
      </trkpt>
      <trkpt lat="43.29597" lon="3.09636">
        <ele>35.4</ele>
        <time>2020-06-26T15:41:21Z</time>
      </trkpt>
      <trkpt lat="43.29599" lon="3.09644">
        <ele>35.4</ele>
        <time>2020-06-26T15:41:20Z</time>
      </trkpt>
      <trkpt lat="43.29602" lon="3.09652">
        <ele>35.4</ele>
        <time>2020-06-26T15:41:19Z</time>
      </trkpt>
      <trkpt lat="43.29605" lon="3.0966">
        <ele>35.4</ele>
        <time>2020-06-26T15:41:18Z</time>
      </trkpt>
      <trkpt lat="43.29607" lon="3.09669">
        <ele>35.4</ele>
        <time>2020-06-26T15:41:17Z</time>
      </trkpt>
      <trkpt lat="43.2961" lon="3.09676">
        <ele>35.6</ele>
        <time>2020-06-26T15:41:16Z</time>
      </trkpt>
      <trkpt lat="43.29613" lon="3.09685">
        <ele>35.6</ele>
        <time>2020-06-26T15:41:15Z</time>
      </trkpt>
      <trkpt lat="43.29617" lon="3.09693">
        <ele>35.6</ele>
        <time>2020-06-26T15:41:14Z</time>
      </trkpt>
      <trkpt lat="43.2962" lon="3.09701">
        <ele>35.6</ele>
        <time>2020-06-26T15:41:13Z</time>
      </trkpt>
      <trkpt lat="43.29623" lon="3.09709">
        <ele>35.6</ele>
        <time>2020-06-26T15:41:12Z</time>
      </trkpt>
      <trkpt lat="43.29625" lon="3.09717">
        <ele>35.6</ele>
        <time>2020-06-26T15:41:11Z</time>
      </trkpt>
      <trkpt lat="43.29629" lon="3.09726">
        <ele>35.6</ele>
        <time>2020-06-26T15:41:10Z</time>
      </trkpt>
      <trkpt lat="43.29631" lon="3.09735">
        <ele>35.6</ele>
        <time>2020-06-26T15:41:09Z</time>
      </trkpt>
      <trkpt lat="43.29634" lon="3.09744">
        <ele>35.6</ele>
        <time>2020-06-26T15:41:08Z</time>
      </trkpt>
      <trkpt lat="43.29636" lon="3.09753">
        <ele>35.6</ele>
        <time>2020-06-26T15:41:07Z</time>
      </trkpt>
      <trkpt lat="43.29639" lon="3.09759">
        <ele>35.6</ele>
        <time>2020-06-26T15:41:06Z</time>
      </trkpt>
      <trkpt lat="43.29643" lon="3.09768">
        <ele>35.6</ele>
        <time>2020-06-26T15:41:05Z</time>
      </trkpt>
      <trkpt lat="43.29645" lon="3.09777">
        <ele>35.6</ele>
        <time>2020-06-26T15:41:04Z</time>
      </trkpt>
      <trkpt lat="43.29648" lon="3.09784">
        <ele>35.6</ele>
        <time>2020-06-26T15:41:03Z</time>
      </trkpt>
      <trkpt lat="43.2965" lon="3.09792">
        <ele>35.6</ele>
        <time>2020-06-26T15:41:02Z</time>
      </trkpt>
      <trkpt lat="43.29653" lon="3.098">
        <ele>35.6</ele>
        <time>2020-06-26T15:41:01Z</time>
      </trkpt>
      <trkpt lat="43.29655" lon="3.09808">
        <ele>35.6</ele>
        <time>2020-06-26T15:41:00Z</time>
      </trkpt>
      <trkpt lat="43.29658" lon="3.09814">
        <ele>35.6</ele>
        <time>2020-06-26T15:40:59Z</time>
      </trkpt>
      <trkpt lat="43.29661" lon="3.09823">
        <ele>35.6</ele>
        <time>2020-06-26T15:40:58Z</time>
      </trkpt>
      <trkpt lat="43.29664" lon="3.0983">
        <ele>35.6</ele>
        <time>2020-06-26T15:40:57Z</time>
      </trkpt>
      <trkpt lat="43.29666" lon="3.09838">
        <ele>35.6</ele>
        <time>2020-06-26T15:40:56Z</time>
      </trkpt>
      <trkpt lat="43.2967" lon="3.09845">
        <ele>35.4</ele>
        <time>2020-06-26T15:40:55Z</time>
      </trkpt>
      <trkpt lat="43.29672" lon="3.09851">
        <ele>35.4</ele>
        <time>2020-06-26T15:40:54Z</time>
      </trkpt>
      <trkpt lat="43.29675" lon="3.09858">
        <ele>35.4</ele>
        <time>2020-06-26T15:40:53Z</time>
      </trkpt>
      <trkpt lat="43.29678" lon="3.09866">
        <ele>35.6</ele>
        <time>2020-06-26T15:40:52Z</time>
      </trkpt>
      <trkpt lat="43.29681" lon="3.09874">
        <ele>35.6</ele>
        <time>2020-06-26T15:40:51Z</time>
      </trkpt>
      <trkpt lat="43.29684" lon="3.09882">
        <ele>35.6</ele>
        <time>2020-06-26T15:40:50Z</time>
      </trkpt>
      <trkpt lat="43.29688" lon="3.09891">
        <ele>35.6</ele>
        <time>2020-06-26T15:40:49Z</time>
      </trkpt>
      <trkpt lat="43.2969" lon="3.09898">
        <ele>35.6</ele>
        <time>2020-06-26T15:40:48Z</time>
      </trkpt>
      <trkpt lat="43.29693" lon="3.09905">
        <ele>35.6</ele>
        <time>2020-06-26T15:40:47Z</time>
      </trkpt>
      <trkpt lat="43.29695" lon="3.09912">
        <ele>35.6</ele>
        <time>2020-06-26T15:40:46Z</time>
      </trkpt>
      <trkpt lat="43.29698" lon="3.09921">
        <ele>35.6</ele>
        <time>2020-06-26T15:40:45Z</time>
      </trkpt>
      <trkpt lat="43.29699" lon="3.0993">
        <ele>35.6</ele>
        <time>2020-06-26T15:40:44Z</time>
      </trkpt>
      <trkpt lat="43.29702" lon="3.09937">
        <ele>35.6</ele>
        <time>2020-06-26T15:40:43Z</time>
      </trkpt>
      <trkpt lat="43.29704" lon="3.09945">
        <ele>35.6</ele>
        <time>2020-06-26T15:40:42Z</time>
      </trkpt>
      <trkpt lat="43.29706" lon="3.09953">
        <ele>35.6</ele>
        <time>2020-06-26T15:40:41Z</time>
      </trkpt>
      <trkpt lat="43.29709" lon="3.0996">
        <ele>35.6</ele>
        <time>2020-06-26T15:40:40Z</time>
      </trkpt>
      <trkpt lat="43.29713" lon="3.09966">
        <ele>35.8</ele>
        <time>2020-06-26T15:40:39Z</time>
      </trkpt>
      <trkpt lat="43.29716" lon="3.09974">
        <ele>35.8</ele>
        <time>2020-06-26T15:40:38Z</time>
      </trkpt>
      <trkpt lat="43.29719" lon="3.0998">
        <ele>35.6</ele>
        <time>2020-06-26T15:40:37Z</time>
      </trkpt>
      <trkpt lat="43.29722" lon="3.09987">
        <ele>35.6</ele>
        <time>2020-06-26T15:40:36Z</time>
      </trkpt>
      <trkpt lat="43.29725" lon="3.09994">
        <ele>35.6</ele>
        <time>2020-06-26T15:40:35Z</time>
      </trkpt>
      <trkpt lat="43.29728" lon="3.10001">
        <ele>35.6</ele>
        <time>2020-06-26T15:40:34Z</time>
      </trkpt>
      <trkpt lat="43.29731" lon="3.10009">
        <ele>35.8</ele>
        <time>2020-06-26T15:40:33Z</time>
      </trkpt>
      <trkpt lat="43.29733" lon="3.10015">
        <ele>35.8</ele>
        <time>2020-06-26T15:40:32Z</time>
      </trkpt>
      <trkpt lat="43.29736" lon="3.10023">
        <ele>35.8</ele>
        <time>2020-06-26T15:40:31Z</time>
      </trkpt>
      <trkpt lat="43.29738" lon="3.1003">
        <ele>35.8</ele>
        <time>2020-06-26T15:40:30Z</time>
      </trkpt>
      <trkpt lat="43.29741" lon="3.10038">
        <ele>35.8</ele>
        <time>2020-06-26T15:40:29Z</time>
      </trkpt>
      <trkpt lat="43.29743" lon="3.10045">
        <ele>35.8</ele>
        <time>2020-06-26T15:40:28Z</time>
      </trkpt>
      <trkpt lat="43.29746" lon="3.10052">
        <ele>35.8</ele>
        <time>2020-06-26T15:40:27Z</time>
      </trkpt>
      <trkpt lat="43.29749" lon="3.10058">
        <ele>35.8</ele>
        <time>2020-06-26T15:40:26Z</time>
      </trkpt>
      <trkpt lat="43.2975" lon="3.10066">
        <ele>35.8</ele>
        <time>2020-06-26T15:40:25Z</time>
      </trkpt>
      <trkpt lat="43.29752" lon="3.10073">
        <ele>36</ele>
        <time>2020-06-26T15:40:24Z</time>
      </trkpt>
      <trkpt lat="43.29754" lon="3.1008">
        <ele>36</ele>
        <time>2020-06-26T15:40:23Z</time>
      </trkpt>
      <trkpt lat="43.29755" lon="3.10086">
        <ele>36</ele>
        <time>2020-06-26T15:40:22Z</time>
      </trkpt>
      <trkpt lat="43.29757" lon="3.10091">
        <ele>36.2</ele>
        <time>2020-06-26T15:40:21Z</time>
      </trkpt>
      <trkpt lat="43.29758" lon="3.10097">
        <ele>36.2</ele>
        <time>2020-06-26T15:40:20Z</time>
      </trkpt>
      <trkpt lat="43.29759" lon="3.10104">
        <ele>36.2</ele>
        <time>2020-06-26T15:40:19Z</time>
      </trkpt>
      <trkpt lat="43.2976" lon="3.10109">
        <ele>36.2</ele>
        <time>2020-06-26T15:40:18Z</time>
      </trkpt>
      <trkpt lat="43.2976" lon="3.10117">
        <ele>36.2</ele>
        <time>2020-06-26T15:40:17Z</time>
      </trkpt>
      <trkpt lat="43.29761" lon="3.10122">
        <ele>36.2</ele>
        <time>2020-06-26T15:40:16Z</time>
      </trkpt>
      <trkpt lat="43.29762" lon="3.10127">
        <ele>36.2</ele>
        <time>2020-06-26T15:40:15Z</time>
      </trkpt>
      <trkpt lat="43.29763" lon="3.10133">
        <ele>36.2</ele>
        <time>2020-06-26T15:40:14Z</time>
      </trkpt>
      <trkpt lat="43.29764" lon="3.1014">
        <ele>36.4</ele>
        <time>2020-06-26T15:40:13Z</time>
      </trkpt>
      <trkpt lat="43.29764" lon="3.10147">
        <ele>36.4</ele>
        <time>2020-06-26T15:40:12Z</time>
      </trkpt>
      <trkpt lat="43.29765" lon="3.10154">
        <ele>36.4</ele>
        <time>2020-06-26T15:40:11Z</time>
      </trkpt>
      <trkpt lat="43.29766" lon="3.1016">
        <ele>36.4</ele>
        <time>2020-06-26T15:40:10Z</time>
      </trkpt>
      <trkpt lat="43.29766" lon="3.10164">
        <ele>36.6</ele>
        <time>2020-06-26T15:40:09Z</time>
      </trkpt>
      <trkpt lat="43.29765" lon="3.10169">
        <ele>36.6</ele>
        <time>2020-06-26T15:40:08Z</time>
      </trkpt>
      <trkpt lat="43.29765" lon="3.10174">
        <ele>36.6</ele>
        <time>2020-06-26T15:40:07Z</time>
      </trkpt>
      <trkpt lat="43.29766" lon="3.10177">
        <ele>36.6</ele>
        <time>2020-06-26T15:40:06Z</time>
      </trkpt>
      <trkpt lat="43.29765" lon="3.10181">
        <ele>36.6</ele>
        <time>2020-06-26T15:40:05Z</time>
      </trkpt>
      <trkpt lat="43.29764" lon="3.10182">
        <ele>36.6</ele>
        <time>2020-06-26T15:40:04Z</time>
      </trkpt>
      <trkpt lat="43.29764" lon="3.10187">
        <ele>36.6</ele>
        <time>2020-06-26T15:40:03Z</time>
      </trkpt>
      <trkpt lat="43.29765" lon="3.10189">
        <ele>36.4</ele>
        <time>2020-06-26T15:40:02Z</time>
      </trkpt>
      <trkpt lat="43.29766" lon="3.1019">
        <ele>36.2</ele>
        <time>2020-06-26T15:40:01Z</time>
      </trkpt>
      <trkpt lat="43.29765" lon="3.10194">
        <ele>36.2</ele>
        <time>2020-06-26T15:40:00Z</time>
      </trkpt>
      <trkpt lat="43.29767" lon="3.10196">
        <ele>36.2</ele>
        <time>2020-06-26T15:39:59Z</time>
      </trkpt>
      <trkpt lat="43.29767" lon="3.10198">
        <ele>36.2</ele>
        <time>2020-06-26T15:39:58Z</time>
      </trkpt>
      <trkpt lat="43.29767" lon="3.10198">
        <ele>36.4</ele>
        <time>2020-06-26T15:39:57Z</time>
      </trkpt>
      <trkpt lat="43.29768" lon="3.10198">
        <ele>36.4</ele>
        <time>2020-06-26T15:39:56Z</time>
      </trkpt>
      <trkpt lat="43.29768" lon="3.10199">
        <ele>36.4</ele>
        <time>2020-06-26T15:39:55Z</time>
      </trkpt>
      <trkpt lat="43.29767" lon="3.10199">
        <ele>36.6</ele>
        <time>2020-06-26T15:39:54Z</time>
      </trkpt>
      <trkpt lat="43.29766" lon="3.10201">
        <ele>36.6</ele>
        <time>2020-06-26T15:39:53Z</time>
      </trkpt>
      <trkpt lat="43.29767" lon="3.10201">
        <ele>36.2</ele>
        <time>2020-06-26T15:39:52Z</time>
      </trkpt>
      <trkpt lat="43.29768" lon="3.102">
        <ele>36</ele>
        <time>2020-06-26T15:39:51Z</time>
      </trkpt>
      <trkpt lat="43.29769" lon="3.10201">
        <ele>36.2</ele>
        <time>2020-06-26T15:39:50Z</time>
      </trkpt>
      <trkpt lat="43.2977" lon="3.10201">
        <ele>36.4</ele>
        <time>2020-06-26T15:39:49Z</time>
      </trkpt>
      <trkpt lat="43.29771" lon="3.10202">
        <ele>36.4</ele>
        <time>2020-06-26T15:39:48Z</time>
      </trkpt>
      <trkpt lat="43.29773" lon="3.10204">
        <ele>36.6</ele>
        <time>2020-06-26T15:39:47Z</time>
      </trkpt>
      <trkpt lat="43.29775" lon="3.10205">
        <ele>36.4</ele>
        <time>2020-06-26T15:39:46Z</time>
      </trkpt>
      <trkpt lat="43.29777" lon="3.10204">
        <ele>36.4</ele>
        <time>2020-06-26T15:39:45Z</time>
      </trkpt>
      <trkpt lat="43.29779" lon="3.10203">
        <ele>36.4</ele>
        <time>2020-06-26T15:39:44Z</time>
      </trkpt>
      <trkpt lat="43.29781" lon="3.10202">
        <ele>36.6</ele>
        <time>2020-06-26T15:39:43Z</time>
      </trkpt>
      <trkpt lat="43.29782" lon="3.102">
        <ele>36.4</ele>
        <time>2020-06-26T15:39:42Z</time>
      </trkpt>
      <trkpt lat="43.29783" lon="3.10199">
        <ele>36.2</ele>
        <time>2020-06-26T15:39:41Z</time>
      </trkpt>
      <trkpt lat="43.29785" lon="3.10197">
        <ele>36.2</ele>
        <time>2020-06-26T15:39:40Z</time>
      </trkpt>
      <trkpt lat="43.29785" lon="3.10197">
        <ele>36.2</ele>
        <time>2020-06-26T15:39:39Z</time>
      </trkpt>
      <trkpt lat="43.29785" lon="3.10196">
        <ele>36.2</ele>
        <time>2020-06-26T15:39:38Z</time>
      </trkpt>
      <trkpt lat="43.29785" lon="3.10196">
        <ele>36.4</ele>
        <time>2020-06-26T15:39:37Z</time>
      </trkpt>
      <trkpt lat="43.29787" lon="3.10195">
        <ele>36.4</ele>
        <time>2020-06-26T15:39:36Z</time>
      </trkpt>
      <trkpt lat="43.29789" lon="3.10193">
        <ele>36.4</ele>
        <time>2020-06-26T15:39:35Z</time>
      </trkpt>
      <trkpt lat="43.29788" lon="3.10191">
        <ele>36.4</ele>
        <time>2020-06-26T15:38:33Z</time>
      </trkpt>
      <trkpt lat="43.29788" lon="3.10191">
        <ele>36.6</ele>
        <time>2020-06-26T15:38:32Z</time>
      </trkpt>
      <trkpt lat="43.29787" lon="3.10191">
        <ele>36.4</ele>
        <time>2020-06-26T15:38:31Z</time>
      </trkpt>
      <trkpt lat="43.29786" lon="3.10191">
        <ele>36.6</ele>
        <time>2020-06-26T15:38:30Z</time>
      </trkpt>
      <trkpt lat="43.29786" lon="3.10193">
        <ele>36.6</ele>
        <time>2020-06-26T15:38:29Z</time>
      </trkpt>
      <trkpt lat="43.29787" lon="3.10192">
        <ele>36.6</ele>
        <time>2020-06-26T15:38:28Z</time>
      </trkpt>
      <trkpt lat="43.29787" lon="3.10192">
        <ele>36.6</ele>
        <time>2020-06-26T15:38:27Z</time>
      </trkpt>
      <trkpt lat="43.29787" lon="3.10192">
        <ele>36.4</ele>
        <time>2020-06-26T15:38:26Z</time>
      </trkpt>
      <trkpt lat="43.29787" lon="3.10192">
        <ele>36.6</ele>
        <time>2020-06-26T15:38:25Z</time>
      </trkpt>
      <trkpt lat="43.29786" lon="3.10192">
        <ele>36.6</ele>
        <time>2020-06-26T15:38:24Z</time>
      </trkpt>
      <trkpt lat="43.29787" lon="3.1019">
        <ele>36.6</ele>
        <time>2020-06-26T15:38:23Z</time>
      </trkpt>
      <trkpt lat="43.29787" lon="3.1019">
        <ele>36.4</ele>
        <time>2020-06-26T15:38:22Z</time>
      </trkpt>
      <trkpt lat="43.29788" lon="3.10189">
        <ele>36.6</ele>
        <time>2020-06-26T15:38:21Z</time>
      </trkpt>
      <trkpt lat="43.2979" lon="3.10189">
        <ele>36.8</ele>
        <time>2020-06-26T15:38:20Z</time>
      </trkpt>
      <trkpt lat="43.29791" lon="3.1019">
        <ele>36.8</ele>
        <time>2020-06-26T15:38:19Z</time>
      </trkpt>
      <trkpt lat="43.29791" lon="3.10189">
        <ele>36.8</ele>
        <time>2020-06-26T15:38:18Z</time>
      </trkpt>
      <trkpt lat="43.29793" lon="3.10193">
        <ele>37</ele>
        <time>2020-06-26T15:37:18Z</time>
      </trkpt>
      <trkpt lat="43.29794" lon="3.10194">
        <ele>36.6</ele>
        <time>2020-06-26T15:37:17Z</time>
      </trkpt>
      <trkpt lat="43.29794" lon="3.10192">
        <ele>36.8</ele>
        <time>2020-06-26T15:37:16Z</time>
      </trkpt>
      <trkpt lat="43.29794" lon="3.10191">
        <ele>36.8</ele>
        <time>2020-06-26T15:37:15Z</time>
      </trkpt>
      <trkpt lat="43.29794" lon="3.10191">
        <ele>36.8</ele>
        <time>2020-06-26T15:37:14Z</time>
      </trkpt>
      <trkpt lat="43.29794" lon="3.10189">
        <ele>36.8</ele>
        <time>2020-06-26T15:37:13Z</time>
      </trkpt>
      <trkpt lat="43.29794" lon="3.1019">
        <ele>36.6</ele>
        <time>2020-06-26T15:37:12Z</time>
      </trkpt>
      <trkpt lat="43.29795" lon="3.10189">
        <ele>36.4</ele>
        <time>2020-06-26T15:37:11Z</time>
      </trkpt>
      <trkpt lat="43.29795" lon="3.1019">
        <ele>36.6</ele>
        <time>2020-06-26T15:37:10Z</time>
      </trkpt>
      <trkpt lat="43.29795" lon="3.1019">
        <ele>36.6</ele>
        <time>2020-06-26T15:37:09Z</time>
      </trkpt>
      <trkpt lat="43.29794" lon="3.1019">
        <ele>36.6</ele>
        <time>2020-06-26T15:37:08Z</time>
      </trkpt>
      <trkpt lat="43.29795" lon="3.1019">
        <ele>36.8</ele>
        <time>2020-06-26T15:37:07Z</time>
      </trkpt>
      <trkpt lat="43.29796" lon="3.10192">
        <ele>36.8</ele>
        <time>2020-06-26T15:37:06Z</time>
      </trkpt>
      <trkpt lat="43.29797" lon="3.10193">
        <ele>36.8</ele>
        <time>2020-06-26T15:37:05Z</time>
      </trkpt>
      <trkpt lat="43.29799" lon="3.10196">
        <ele>36.8</ele>
        <time>2020-06-26T15:37:04Z</time>
      </trkpt>
      <trkpt lat="43.29802" lon="3.10199">
        <ele>36.8</ele>
        <time>2020-06-26T15:37:03Z</time>
      </trkpt>
      <trkpt lat="43.29804" lon="3.10203">
        <ele>37</ele>
        <time>2020-06-26T15:37:02Z</time>
      </trkpt>
      <trkpt lat="43.29807" lon="3.10206">
        <ele>37</ele>
        <time>2020-06-26T15:37:01Z</time>
      </trkpt>
      <trkpt lat="43.2981" lon="3.10212">
        <ele>37</ele>
        <time>2020-06-26T15:37:00Z</time>
      </trkpt>
      <trkpt lat="43.29811" lon="3.10219">
        <ele>37</ele>
        <time>2020-06-26T15:36:59Z</time>
      </trkpt>
      <trkpt lat="43.29815" lon="3.10226">
        <ele>37.2</ele>
        <time>2020-06-26T15:36:58Z</time>
      </trkpt>
      <trkpt lat="43.29818" lon="3.10233">
        <ele>37.2</ele>
        <time>2020-06-26T15:36:57Z</time>
      </trkpt>
      <trkpt lat="43.2982" lon="3.10242">
        <ele>37.2</ele>
        <time>2020-06-26T15:36:56Z</time>
      </trkpt>
      <trkpt lat="43.29822" lon="3.10247">
        <ele>37.2</ele>
        <time>2020-06-26T15:36:55Z</time>
      </trkpt>
      <trkpt lat="43.29825" lon="3.10256">
        <ele>37.2</ele>
        <time>2020-06-26T15:36:54Z</time>
      </trkpt>
      <trkpt lat="43.29827" lon="3.10263">
        <ele>37.2</ele>
        <time>2020-06-26T15:36:53Z</time>
      </trkpt>
      <trkpt lat="43.2983" lon="3.1027">
        <ele>37.4</ele>
        <time>2020-06-26T15:36:52Z</time>
      </trkpt>
      <trkpt lat="43.29834" lon="3.10278">
        <ele>37.4</ele>
        <time>2020-06-26T15:36:51Z</time>
      </trkpt>
      <trkpt lat="43.29836" lon="3.10286">
        <ele>37.4</ele>
        <time>2020-06-26T15:36:50Z</time>
      </trkpt>
      <trkpt lat="43.29839" lon="3.10295">
        <ele>37.2</ele>
        <time>2020-06-26T15:36:49Z</time>
      </trkpt>
      <trkpt lat="43.29842" lon="3.10305">
        <ele>37.2</ele>
        <time>2020-06-26T15:36:48Z</time>
      </trkpt>
      <trkpt lat="43.29844" lon="3.10313">
        <ele>37.4</ele>
        <time>2020-06-26T15:36:47Z</time>
      </trkpt>
      <trkpt lat="43.29848" lon="3.10321">
        <ele>37.4</ele>
        <time>2020-06-26T15:36:46Z</time>
      </trkpt>
      <trkpt lat="43.29851" lon="3.10328">
        <ele>37.6</ele>
        <time>2020-06-26T15:36:45Z</time>
      </trkpt>
      <trkpt lat="43.29854" lon="3.10335">
        <ele>37.8</ele>
        <time>2020-06-26T15:36:44Z</time>
      </trkpt>
      <trkpt lat="43.29856" lon="3.10343">
        <ele>38</ele>
        <time>2020-06-26T15:36:43Z</time>
      </trkpt>
      <trkpt lat="43.29859" lon="3.1035">
        <ele>38</ele>
        <time>2020-06-26T15:36:42Z</time>
      </trkpt>
      <trkpt lat="43.29862" lon="3.10358">
        <ele>38</ele>
        <time>2020-06-26T15:36:41Z</time>
      </trkpt>
      <trkpt lat="43.29865" lon="3.10366">
        <ele>38</ele>
        <time>2020-06-26T15:36:40Z</time>
      </trkpt>
      <trkpt lat="43.29868" lon="3.10375">
        <ele>38</ele>
        <time>2020-06-26T15:36:39Z</time>
      </trkpt>
      <trkpt lat="43.2987" lon="3.10384">
        <ele>38.2</ele>
        <time>2020-06-26T15:36:38Z</time>
      </trkpt>
      <trkpt lat="43.29874" lon="3.10391">
        <ele>38</ele>
        <time>2020-06-26T15:36:37Z</time>
      </trkpt>
      <trkpt lat="43.29876" lon="3.10398">
        <ele>38</ele>
        <time>2020-06-26T15:36:36Z</time>
      </trkpt>
      <trkpt lat="43.29878" lon="3.10406">
        <ele>38.2</ele>
        <time>2020-06-26T15:36:35Z</time>
      </trkpt>
      <trkpt lat="43.29882" lon="3.10415">
        <ele>38.2</ele>
        <time>2020-06-26T15:36:34Z</time>
      </trkpt>
      <trkpt lat="43.29884" lon="3.10422">
        <ele>38.2</ele>
        <time>2020-06-26T15:36:33Z</time>
      </trkpt>
      <trkpt lat="43.29888" lon="3.1043">
        <ele>38.2</ele>
        <time>2020-06-26T15:36:32Z</time>
      </trkpt>
      <trkpt lat="43.2989" lon="3.10439">
        <ele>38.2</ele>
        <time>2020-06-26T15:36:31Z</time>
      </trkpt>
      <trkpt lat="43.29893" lon="3.10447">
        <ele>38.2</ele>
        <time>2020-06-26T15:36:30Z</time>
      </trkpt>
      <trkpt lat="43.29895" lon="3.10454">
        <ele>38.2</ele>
        <time>2020-06-26T15:36:29Z</time>
      </trkpt>
      <trkpt lat="43.29897" lon="3.10461">
        <ele>38.2</ele>
        <time>2020-06-26T15:36:28Z</time>
      </trkpt>
      <trkpt lat="43.299" lon="3.10469">
        <ele>38.2</ele>
        <time>2020-06-26T15:36:27Z</time>
      </trkpt>
      <trkpt lat="43.29903" lon="3.10476">
        <ele>38.4</ele>
        <time>2020-06-26T15:36:26Z</time>
      </trkpt>
      <trkpt lat="43.29906" lon="3.10484">
        <ele>38.4</ele>
        <time>2020-06-26T15:36:25Z</time>
      </trkpt>
      <trkpt lat="43.29909" lon="3.10492">
        <ele>38.4</ele>
        <time>2020-06-26T15:36:24Z</time>
      </trkpt>
      <trkpt lat="43.29912" lon="3.10501">
        <ele>38.6</ele>
        <time>2020-06-26T15:36:23Z</time>
      </trkpt>
      <trkpt lat="43.29915" lon="3.10509">
        <ele>38.6</ele>
        <time>2020-06-26T15:36:22Z</time>
      </trkpt>
      <trkpt lat="43.29918" lon="3.10518">
        <ele>38.8</ele>
        <time>2020-06-26T15:36:21Z</time>
      </trkpt>
      <trkpt lat="43.2992" lon="3.10525">
        <ele>38.8</ele>
        <time>2020-06-26T15:36:20Z</time>
      </trkpt>
      <trkpt lat="43.29923" lon="3.10533">
        <ele>38.8</ele>
        <time>2020-06-26T15:36:19Z</time>
      </trkpt>
      <trkpt lat="43.29926" lon="3.10539">
        <ele>39</ele>
        <time>2020-06-26T15:36:18Z</time>
      </trkpt>
      <trkpt lat="43.29929" lon="3.10548">
        <ele>39.2</ele>
        <time>2020-06-26T15:36:17Z</time>
      </trkpt>
      <trkpt lat="43.29931" lon="3.10555">
        <ele>39.2</ele>
        <time>2020-06-26T15:36:16Z</time>
      </trkpt>
      <trkpt lat="43.29934" lon="3.10561">
        <ele>39.2</ele>
        <time>2020-06-26T15:36:15Z</time>
      </trkpt>
      <trkpt lat="43.29936" lon="3.1057">
        <ele>39.4</ele>
        <time>2020-06-26T15:36:14Z</time>
      </trkpt>
      <trkpt lat="43.29939" lon="3.10579">
        <ele>39.4</ele>
        <time>2020-06-26T15:36:13Z</time>
      </trkpt>
      <trkpt lat="43.29942" lon="3.10586">
        <ele>39.4</ele>
        <time>2020-06-26T15:36:12Z</time>
      </trkpt>
      <trkpt lat="43.29946" lon="3.10595">
        <ele>39.4</ele>
        <time>2020-06-26T15:36:11Z</time>
      </trkpt>
      <trkpt lat="43.29948" lon="3.10602">
        <ele>39.4</ele>
        <time>2020-06-26T15:36:10Z</time>
      </trkpt>
      <trkpt lat="43.29951" lon="3.10609">
        <ele>39.4</ele>
        <time>2020-06-26T15:36:09Z</time>
      </trkpt>
      <trkpt lat="43.29953" lon="3.10617">
        <ele>39.6</ele>
        <time>2020-06-26T15:36:08Z</time>
      </trkpt>
      <trkpt lat="43.29957" lon="3.10625">
        <ele>39.6</ele>
        <time>2020-06-26T15:36:07Z</time>
      </trkpt>
      <trkpt lat="43.29961" lon="3.10632">
        <ele>39.8</ele>
        <time>2020-06-26T15:36:06Z</time>
      </trkpt>
      <trkpt lat="43.29965" lon="3.10639">
        <ele>39.8</ele>
        <time>2020-06-26T15:36:05Z</time>
      </trkpt>
      <trkpt lat="43.29967" lon="3.10648">
        <ele>40</ele>
        <time>2020-06-26T15:36:04Z</time>
      </trkpt>
      <trkpt lat="43.2997" lon="3.10655">
        <ele>40.2</ele>
        <time>2020-06-26T15:36:03Z</time>
      </trkpt>
      <trkpt lat="43.29972" lon="3.10662">
        <ele>40.2</ele>
        <time>2020-06-26T15:36:02Z</time>
      </trkpt>
      <trkpt lat="43.29975" lon="3.10669">
        <ele>40.4</ele>
        <time>2020-06-26T15:36:01Z</time>
      </trkpt>
      <trkpt lat="43.29978" lon="3.10676">
        <ele>40.4</ele>
        <time>2020-06-26T15:36:00Z</time>
      </trkpt>
      <trkpt lat="43.2998" lon="3.10684">
        <ele>40.4</ele>
        <time>2020-06-26T15:35:59Z</time>
      </trkpt>
      <trkpt lat="43.29983" lon="3.10691">
        <ele>40.4</ele>
        <time>2020-06-26T15:35:58Z</time>
      </trkpt>
      <trkpt lat="43.29986" lon="3.10698">
        <ele>40.4</ele>
        <time>2020-06-26T15:35:57Z</time>
      </trkpt>
      <trkpt lat="43.29988" lon="3.10705">
        <ele>40.6</ele>
        <time>2020-06-26T15:35:56Z</time>
      </trkpt>
      <trkpt lat="43.29991" lon="3.10714">
        <ele>40.6</ele>
        <time>2020-06-26T15:35:55Z</time>
      </trkpt>
      <trkpt lat="43.29994" lon="3.10722">
        <ele>40.4</ele>
        <time>2020-06-26T15:35:54Z</time>
      </trkpt>
      <trkpt lat="43.29998" lon="3.10731">
        <ele>40.6</ele>
        <time>2020-06-26T15:35:53Z</time>
      </trkpt>
      <trkpt lat="43.30002" lon="3.1074">
        <ele>40.6</ele>
        <time>2020-06-26T15:35:52Z</time>
      </trkpt>
      <trkpt lat="43.30005" lon="3.10748">
        <ele>41</ele>
        <time>2020-06-26T15:35:51Z</time>
      </trkpt>
      <trkpt lat="43.30008" lon="3.10756">
        <ele>41</ele>
        <time>2020-06-26T15:35:50Z</time>
      </trkpt>
      <trkpt lat="43.30011" lon="3.10766">
        <ele>41</ele>
        <time>2020-06-26T15:35:49Z</time>
      </trkpt>
      <trkpt lat="43.30013" lon="3.10775">
        <ele>41.2</ele>
        <time>2020-06-26T15:35:48Z</time>
      </trkpt>
      <trkpt lat="43.30016" lon="3.10783">
        <ele>41.4</ele>
        <time>2020-06-26T15:35:47Z</time>
      </trkpt>
      <trkpt lat="43.3002" lon="3.10792">
        <ele>41.2</ele>
        <time>2020-06-26T15:35:46Z</time>
      </trkpt>
      <trkpt lat="43.30022" lon="3.108">
        <ele>41.4</ele>
        <time>2020-06-26T15:35:45Z</time>
      </trkpt>
      <trkpt lat="43.30026" lon="3.10808">
        <ele>41.4</ele>
        <time>2020-06-26T15:35:44Z</time>
      </trkpt>
      <trkpt lat="43.30028" lon="3.10816">
        <ele>41.6</ele>
        <time>2020-06-26T15:35:43Z</time>
      </trkpt>
      <trkpt lat="43.30031" lon="3.10824">
        <ele>41.6</ele>
        <time>2020-06-26T15:35:42Z</time>
      </trkpt>
      <trkpt lat="43.30034" lon="3.10831">
        <ele>41.6</ele>
        <time>2020-06-26T15:35:41Z</time>
      </trkpt>
      <trkpt lat="43.30037" lon="3.10838">
        <ele>41.8</ele>
        <time>2020-06-26T15:35:40Z</time>
      </trkpt>
      <trkpt lat="43.30039" lon="3.10845">
        <ele>42</ele>
        <time>2020-06-26T15:35:39Z</time>
      </trkpt>
      <trkpt lat="43.30042" lon="3.10852">
        <ele>42</ele>
        <time>2020-06-26T15:35:38Z</time>
      </trkpt>
      <trkpt lat="43.30045" lon="3.10859">
        <ele>42</ele>
        <time>2020-06-26T15:35:37Z</time>
      </trkpt>
      <trkpt lat="43.30048" lon="3.10868">
        <ele>42</ele>
        <time>2020-06-26T15:35:36Z</time>
      </trkpt>
      <trkpt lat="43.30052" lon="3.10878">
        <ele>42</ele>
        <time>2020-06-26T15:35:35Z</time>
      </trkpt>
      <trkpt lat="43.30055" lon="3.10886">
        <ele>42.2</ele>
        <time>2020-06-26T15:35:34Z</time>
      </trkpt>
      <trkpt lat="43.30057" lon="3.10893">
        <ele>42.2</ele>
        <time>2020-06-26T15:35:33Z</time>
      </trkpt>
      <trkpt lat="43.30061" lon="3.10902">
        <ele>42.4</ele>
        <time>2020-06-26T15:35:32Z</time>
      </trkpt>
      <trkpt lat="43.30065" lon="3.1091">
        <ele>42.6</ele>
        <time>2020-06-26T15:35:31Z</time>
      </trkpt>
      <trkpt lat="43.30069" lon="3.10918">
        <ele>42.6</ele>
        <time>2020-06-26T15:35:30Z</time>
      </trkpt>
      <trkpt lat="43.30071" lon="3.10927">
        <ele>42.8</ele>
        <time>2020-06-26T15:35:29Z</time>
      </trkpt>
      <trkpt lat="43.30074" lon="3.10935">
        <ele>43</ele>
        <time>2020-06-26T15:35:28Z</time>
      </trkpt>
      <trkpt lat="43.30076" lon="3.10943">
        <ele>43</ele>
        <time>2020-06-26T15:35:27Z</time>
      </trkpt>
      <trkpt lat="43.3008" lon="3.10951">
        <ele>43.2</ele>
        <time>2020-06-26T15:35:26Z</time>
      </trkpt>
      <trkpt lat="43.30081" lon="3.10959">
        <ele>43.2</ele>
        <time>2020-06-26T15:35:25Z</time>
      </trkpt>
      <trkpt lat="43.30082" lon="3.10966">
        <ele>43.4</ele>
        <time>2020-06-26T15:35:24Z</time>
      </trkpt>
      <trkpt lat="43.30084" lon="3.10974">
        <ele>43.4</ele>
        <time>2020-06-26T15:35:23Z</time>
      </trkpt>
      <trkpt lat="43.30087" lon="3.10981">
        <ele>43.4</ele>
        <time>2020-06-26T15:35:22Z</time>
      </trkpt>
      <trkpt lat="43.30089" lon="3.10988">
        <ele>43.6</ele>
        <time>2020-06-26T15:35:21Z</time>
      </trkpt>
      <trkpt lat="43.30092" lon="3.10996">
        <ele>43.4</ele>
        <time>2020-06-26T15:35:20Z</time>
      </trkpt>
      <trkpt lat="43.30096" lon="3.11004">
        <ele>43.6</ele>
        <time>2020-06-26T15:35:19Z</time>
      </trkpt>
      <trkpt lat="43.30098" lon="3.11012">
        <ele>43.8</ele>
        <time>2020-06-26T15:35:18Z</time>
      </trkpt>
      <trkpt lat="43.301" lon="3.11021">
        <ele>43.8</ele>
        <time>2020-06-26T15:35:17Z</time>
      </trkpt>
      <trkpt lat="43.30102" lon="3.11028">
        <ele>43.8</ele>
        <time>2020-06-26T15:35:16Z</time>
      </trkpt>
      <trkpt lat="43.30106" lon="3.11036">
        <ele>44</ele>
        <time>2020-06-26T15:35:15Z</time>
      </trkpt>
      <trkpt lat="43.30108" lon="3.11048">
        <ele>44</ele>
        <time>2020-06-26T15:35:14Z</time>
      </trkpt>
      <trkpt lat="43.30111" lon="3.11057">
        <ele>44</ele>
        <time>2020-06-26T15:35:13Z</time>
      </trkpt>
      <trkpt lat="43.30113" lon="3.11064">
        <ele>44.2</ele>
        <time>2020-06-26T15:35:12Z</time>
      </trkpt>
      <trkpt lat="43.30114" lon="3.11071">
        <ele>44.2</ele>
        <time>2020-06-26T15:35:11Z</time>
      </trkpt>
      <trkpt lat="43.30117" lon="3.11078">
        <ele>44.4</ele>
        <time>2020-06-26T15:35:10Z</time>
      </trkpt>
      <trkpt lat="43.30119" lon="3.11085">
        <ele>44.4</ele>
        <time>2020-06-26T15:35:09Z</time>
      </trkpt>
      <trkpt lat="43.30122" lon="3.11093">
        <ele>44.6</ele>
        <time>2020-06-26T15:35:08Z</time>
      </trkpt>
      <trkpt lat="43.30124" lon="3.111">
        <ele>44.6</ele>
        <time>2020-06-26T15:35:07Z</time>
      </trkpt>
      <trkpt lat="43.30125" lon="3.11109">
        <ele>44.6</ele>
        <time>2020-06-26T15:35:06Z</time>
      </trkpt>
      <trkpt lat="43.30128" lon="3.11116">
        <ele>44.8</ele>
        <time>2020-06-26T15:35:05Z</time>
      </trkpt>
      <trkpt lat="43.30129" lon="3.11124">
        <ele>44.8</ele>
        <time>2020-06-26T15:35:04Z</time>
      </trkpt>
      <trkpt lat="43.30131" lon="3.11132">
        <ele>44.8</ele>
        <time>2020-06-26T15:35:03Z</time>
      </trkpt>
      <trkpt lat="43.3013" lon="3.11139">
        <ele>44.8</ele>
        <time>2020-06-26T15:35:02Z</time>
      </trkpt>
      <trkpt lat="43.3013" lon="3.11148">
        <ele>44.6</ele>
        <time>2020-06-26T15:35:01Z</time>
      </trkpt>
      <trkpt lat="43.30128" lon="3.11155">
        <ele>44.8</ele>
        <time>2020-06-26T15:35:00Z</time>
      </trkpt>
      <trkpt lat="43.30125" lon="3.11163">
        <ele>45</ele>
        <time>2020-06-26T15:34:59Z</time>
      </trkpt>
      <trkpt lat="43.30124" lon="3.11172">
        <ele>45</ele>
        <time>2020-06-26T15:34:58Z</time>
      </trkpt>
      <trkpt lat="43.30121" lon="3.1118">
        <ele>45</ele>
        <time>2020-06-26T15:34:57Z</time>
      </trkpt>
      <trkpt lat="43.30119" lon="3.11188">
        <ele>45</ele>
        <time>2020-06-26T15:34:56Z</time>
      </trkpt>
      <trkpt lat="43.30119" lon="3.11194">
        <ele>45</ele>
        <time>2020-06-26T15:34:55Z</time>
      </trkpt>
      <trkpt lat="43.30118" lon="3.11203">
        <ele>45.2</ele>
        <time>2020-06-26T15:34:54Z</time>
      </trkpt>
      <trkpt lat="43.30114" lon="3.11212">
        <ele>45.2</ele>
        <time>2020-06-26T15:34:53Z</time>
      </trkpt>
      <trkpt lat="43.30113" lon="3.1122">
        <ele>45.2</ele>
        <time>2020-06-26T15:34:52Z</time>
      </trkpt>
      <trkpt lat="43.3011" lon="3.11228">
        <ele>45.4</ele>
        <time>2020-06-26T15:34:51Z</time>
      </trkpt>
      <trkpt lat="43.30108" lon="3.11236">
        <ele>45.4</ele>
        <time>2020-06-26T15:34:50Z</time>
      </trkpt>
      <trkpt lat="43.30106" lon="3.11242">
        <ele>45.4</ele>
        <time>2020-06-26T15:34:49Z</time>
      </trkpt>
      <trkpt lat="43.30104" lon="3.11251">
        <ele>45.4</ele>
        <time>2020-06-26T15:34:48Z</time>
      </trkpt>
      <trkpt lat="43.30101" lon="3.11258">
        <ele>45.6</ele>
        <time>2020-06-26T15:34:47Z</time>
      </trkpt>
      <trkpt lat="43.30098" lon="3.11266">
        <ele>45.6</ele>
        <time>2020-06-26T15:34:46Z</time>
      </trkpt>
      <trkpt lat="43.30096" lon="3.11275">
        <ele>45.8</ele>
        <time>2020-06-26T15:34:45Z</time>
      </trkpt>
      <trkpt lat="43.30094" lon="3.11283">
        <ele>45.8</ele>
        <time>2020-06-26T15:34:44Z</time>
      </trkpt>
      <trkpt lat="43.30092" lon="3.11293">
        <ele>45.8</ele>
        <time>2020-06-26T15:34:43Z</time>
      </trkpt>
      <trkpt lat="43.3009" lon="3.11303">
        <ele>46</ele>
        <time>2020-06-26T15:34:42Z</time>
      </trkpt>
      <trkpt lat="43.30089" lon="3.11313">
        <ele>46</ele>
        <time>2020-06-26T15:34:41Z</time>
      </trkpt>
      <trkpt lat="43.30086" lon="3.11321">
        <ele>46.2</ele>
        <time>2020-06-26T15:34:40Z</time>
      </trkpt>
      <trkpt lat="43.30084" lon="3.11328">
        <ele>46.4</ele>
        <time>2020-06-26T15:34:39Z</time>
      </trkpt>
      <trkpt lat="43.30082" lon="3.11336">
        <ele>46.6</ele>
        <time>2020-06-26T15:34:38Z</time>
      </trkpt>
      <trkpt lat="43.3008" lon="3.11345">
        <ele>46.8</ele>
        <time>2020-06-26T15:34:37Z</time>
      </trkpt>
      <trkpt lat="43.30077" lon="3.11354">
        <ele>46.8</ele>
        <time>2020-06-26T15:34:36Z</time>
      </trkpt>
      <trkpt lat="43.30076" lon="3.11364">
        <ele>46.8</ele>
        <time>2020-06-26T15:34:35Z</time>
      </trkpt>
      <trkpt lat="43.30073" lon="3.11373">
        <ele>47</ele>
        <time>2020-06-26T15:34:34Z</time>
      </trkpt>
      <trkpt lat="43.30072" lon="3.11381">
        <ele>47.2</ele>
        <time>2020-06-26T15:34:33Z</time>
      </trkpt>
      <trkpt lat="43.30071" lon="3.11388">
        <ele>47.4</ele>
        <time>2020-06-26T15:34:32Z</time>
      </trkpt>
      <trkpt lat="43.3007" lon="3.11397">
        <ele>47.4</ele>
        <time>2020-06-26T15:34:31Z</time>
      </trkpt>
      <trkpt lat="43.30069" lon="3.11405">
        <ele>47.6</ele>
        <time>2020-06-26T15:34:30Z</time>
      </trkpt>
      <trkpt lat="43.30068" lon="3.11414">
        <ele>47.6</ele>
        <time>2020-06-26T15:34:29Z</time>
      </trkpt>
      <trkpt lat="43.30067" lon="3.11422">
        <ele>47.6</ele>
        <time>2020-06-26T15:34:28Z</time>
      </trkpt>
      <trkpt lat="43.30066" lon="3.11431">
        <ele>47.8</ele>
        <time>2020-06-26T15:34:27Z</time>
      </trkpt>
      <trkpt lat="43.30065" lon="3.1144">
        <ele>47.8</ele>
        <time>2020-06-26T15:34:26Z</time>
      </trkpt>
      <trkpt lat="43.30064" lon="3.11447">
        <ele>48</ele>
        <time>2020-06-26T15:34:25Z</time>
      </trkpt>
      <trkpt lat="43.30064" lon="3.11456">
        <ele>48</ele>
        <time>2020-06-26T15:34:24Z</time>
      </trkpt>
      <trkpt lat="43.30061" lon="3.11465">
        <ele>48.2</ele>
        <time>2020-06-26T15:34:23Z</time>
      </trkpt>
      <trkpt lat="43.3006" lon="3.11474">
        <ele>48.2</ele>
        <time>2020-06-26T15:34:22Z</time>
      </trkpt>
      <trkpt lat="43.30058" lon="3.11483">
        <ele>48.4</ele>
        <time>2020-06-26T15:34:21Z</time>
      </trkpt>
      <trkpt lat="43.30057" lon="3.11491">
        <ele>48.6</ele>
        <time>2020-06-26T15:34:20Z</time>
      </trkpt>
      <trkpt lat="43.30056" lon="3.11498">
        <ele>48.6</ele>
        <time>2020-06-26T15:34:19Z</time>
      </trkpt>
      <trkpt lat="43.30055" lon="3.11505">
        <ele>48.6</ele>
        <time>2020-06-26T15:34:18Z</time>
      </trkpt>
      <trkpt lat="43.30054" lon="3.11513">
        <ele>48.8</ele>
        <time>2020-06-26T15:34:17Z</time>
      </trkpt>
      <trkpt lat="43.30054" lon="3.11522">
        <ele>49</ele>
        <time>2020-06-26T15:34:16Z</time>
      </trkpt>
      <trkpt lat="43.30052" lon="3.11529">
        <ele>49.2</ele>
        <time>2020-06-26T15:34:15Z</time>
      </trkpt>
      <trkpt lat="43.30052" lon="3.11536">
        <ele>49.4</ele>
        <time>2020-06-26T15:34:14Z</time>
      </trkpt>
      <trkpt lat="43.3005" lon="3.11542">
        <ele>49.4</ele>
        <time>2020-06-26T15:34:13Z</time>
      </trkpt>
      <trkpt lat="43.30048" lon="3.11547">
        <ele>49.6</ele>
        <time>2020-06-26T15:34:12Z</time>
      </trkpt>
      <trkpt lat="43.30047" lon="3.11555">
        <ele>49.8</ele>
        <time>2020-06-26T15:34:11Z</time>
      </trkpt>
      <trkpt lat="43.30044" lon="3.11563">
        <ele>49.8</ele>
        <time>2020-06-26T15:34:10Z</time>
      </trkpt>
      <trkpt lat="43.30042" lon="3.11571">
        <ele>50</ele>
        <time>2020-06-26T15:34:09Z</time>
      </trkpt>
      <trkpt lat="43.3004" lon="3.11578">
        <ele>50</ele>
        <time>2020-06-26T15:34:08Z</time>
      </trkpt>
      <trkpt lat="43.30039" lon="3.11585">
        <ele>50</ele>
        <time>2020-06-26T15:34:07Z</time>
      </trkpt>
      <trkpt lat="43.30037" lon="3.11592">
        <ele>50.2</ele>
        <time>2020-06-26T15:34:06Z</time>
      </trkpt>
      <trkpt lat="43.30035" lon="3.11599">
        <ele>50.2</ele>
        <time>2020-06-26T15:34:05Z</time>
      </trkpt>
      <trkpt lat="43.30034" lon="3.11607">
        <ele>50.4</ele>
        <time>2020-06-26T15:34:04Z</time>
      </trkpt>
      <trkpt lat="43.30032" lon="3.11615">
        <ele>50.6</ele>
        <time>2020-06-26T15:34:03Z</time>
      </trkpt>
      <trkpt lat="43.3003" lon="3.11622">
        <ele>50.6</ele>
        <time>2020-06-26T15:34:02Z</time>
      </trkpt>
      <trkpt lat="43.3003" lon="3.11628">
        <ele>50.6</ele>
        <time>2020-06-26T15:34:01Z</time>
      </trkpt>
      <trkpt lat="43.30028" lon="3.11634">
        <ele>50.6</ele>
        <time>2020-06-26T15:34:00Z</time>
      </trkpt>
      <trkpt lat="43.30026" lon="3.1164">
        <ele>50.6</ele>
        <time>2020-06-26T15:33:59Z</time>
      </trkpt>
      <trkpt lat="43.30025" lon="3.11649">
        <ele>50.6</ele>
        <time>2020-06-26T15:33:58Z</time>
      </trkpt>
      <trkpt lat="43.30024" lon="3.11654">
        <ele>50.6</ele>
        <time>2020-06-26T15:33:57Z</time>
      </trkpt>
      <trkpt lat="43.30023" lon="3.11661">
        <ele>50.6</ele>
        <time>2020-06-26T15:33:56Z</time>
      </trkpt>
      <trkpt lat="43.30021" lon="3.11666">
        <ele>50.6</ele>
        <time>2020-06-26T15:33:55Z</time>
      </trkpt>
      <trkpt lat="43.3002" lon="3.11671">
        <ele>50.4</ele>
        <time>2020-06-26T15:33:54Z</time>
      </trkpt>
      <trkpt lat="43.30019" lon="3.11677">
        <ele>50.2</ele>
        <time>2020-06-26T15:33:53Z</time>
      </trkpt>
      <trkpt lat="43.30017" lon="3.11683">
        <ele>50.2</ele>
        <time>2020-06-26T15:33:52Z</time>
      </trkpt>
      <trkpt lat="43.30015" lon="3.11688">
        <ele>50.2</ele>
        <time>2020-06-26T15:33:51Z</time>
      </trkpt>
      <trkpt lat="43.30015" lon="3.11693">
        <ele>50.2</ele>
        <time>2020-06-26T15:33:50Z</time>
      </trkpt>
      <trkpt lat="43.30014" lon="3.117">
        <ele>50.2</ele>
        <time>2020-06-26T15:33:49Z</time>
      </trkpt>
      <trkpt lat="43.30012" lon="3.11707">
        <ele>50.2</ele>
        <time>2020-06-26T15:33:48Z</time>
      </trkpt>
      <trkpt lat="43.30013" lon="3.11714">
        <ele>50.2</ele>
        <time>2020-06-26T15:33:47Z</time>
      </trkpt>
      <trkpt lat="43.30013" lon="3.11721">
        <ele>50.2</ele>
        <time>2020-06-26T15:33:46Z</time>
      </trkpt>
      <trkpt lat="43.30013" lon="3.11725">
        <ele>50</ele>
        <time>2020-06-26T15:33:45Z</time>
      </trkpt>
      <trkpt lat="43.30014" lon="3.11729">
        <ele>50</ele>
        <time>2020-06-26T15:33:44Z</time>
      </trkpt>
      <trkpt lat="43.30014" lon="3.11735">
        <ele>50</ele>
        <time>2020-06-26T15:33:43Z</time>
      </trkpt>
      <trkpt lat="43.30014" lon="3.11742">
        <ele>49.8</ele>
        <time>2020-06-26T15:33:42Z</time>
      </trkpt>
      <trkpt lat="43.30014" lon="3.11751">
        <ele>49.8</ele>
        <time>2020-06-26T15:33:41Z</time>
      </trkpt>
      <trkpt lat="43.30014" lon="3.11758">
        <ele>49.8</ele>
        <time>2020-06-26T15:33:40Z</time>
      </trkpt>
      <trkpt lat="43.30013" lon="3.11764">
        <ele>49.8</ele>
        <time>2020-06-26T15:33:39Z</time>
      </trkpt>
      <trkpt lat="43.30012" lon="3.11771">
        <ele>49.8</ele>
        <time>2020-06-26T15:33:38Z</time>
      </trkpt>
      <trkpt lat="43.30011" lon="3.11777">
        <ele>49.8</ele>
        <time>2020-06-26T15:33:37Z</time>
      </trkpt>
      <trkpt lat="43.3001" lon="3.11783">
        <ele>49.6</ele>
        <time>2020-06-26T15:33:36Z</time>
      </trkpt>
      <trkpt lat="43.3001" lon="3.11789">
        <ele>49.6</ele>
        <time>2020-06-26T15:33:35Z</time>
      </trkpt>
      <trkpt lat="43.3001" lon="3.11796">
        <ele>49.6</ele>
        <time>2020-06-26T15:33:34Z</time>
      </trkpt>
      <trkpt lat="43.3001" lon="3.11803">
        <ele>49.4</ele>
        <time>2020-06-26T15:33:33Z</time>
      </trkpt>
      <trkpt lat="43.30009" lon="3.11809">
        <ele>49.4</ele>
        <time>2020-06-26T15:33:32Z</time>
      </trkpt>
      <trkpt lat="43.30009" lon="3.11816">
        <ele>49.4</ele>
        <time>2020-06-26T15:33:31Z</time>
      </trkpt>
      <trkpt lat="43.3001" lon="3.11822">
        <ele>49.2</ele>
        <time>2020-06-26T15:33:30Z</time>
      </trkpt>
      <trkpt lat="43.30009" lon="3.11828">
        <ele>49.2</ele>
        <time>2020-06-26T15:33:29Z</time>
      </trkpt>
      <trkpt lat="43.30008" lon="3.11833">
        <ele>49.2</ele>
        <time>2020-06-26T15:33:28Z</time>
      </trkpt>
      <trkpt lat="43.30008" lon="3.11838">
        <ele>49</ele>
        <time>2020-06-26T15:33:27Z</time>
      </trkpt>
      <trkpt lat="43.30007" lon="3.11844">
        <ele>48.8</ele>
        <time>2020-06-26T15:33:26Z</time>
      </trkpt>
      <trkpt lat="43.30007" lon="3.11851">
        <ele>48.8</ele>
        <time>2020-06-26T15:33:25Z</time>
      </trkpt>
      <trkpt lat="43.30007" lon="3.11857">
        <ele>49</ele>
        <time>2020-06-26T15:33:24Z</time>
      </trkpt>
      <trkpt lat="43.30006" lon="3.11861">
        <ele>49</ele>
        <time>2020-06-26T15:33:23Z</time>
      </trkpt>
      <trkpt lat="43.30006" lon="3.11867">
        <ele>48.8</ele>
        <time>2020-06-26T15:33:22Z</time>
      </trkpt>
      <trkpt lat="43.30006" lon="3.11872">
        <ele>48.8</ele>
        <time>2020-06-26T15:33:21Z</time>
      </trkpt>
      <trkpt lat="43.30007" lon="3.11875">
        <ele>49</ele>
        <time>2020-06-26T15:33:20Z</time>
      </trkpt>
      <trkpt lat="43.30007" lon="3.11877">
        <ele>49</ele>
        <time>2020-06-26T15:33:19Z</time>
      </trkpt>
      <trkpt lat="43.30007" lon="3.1188">
        <ele>49</ele>
        <time>2020-06-26T15:33:18Z</time>
      </trkpt>
      <trkpt lat="43.30007" lon="3.11883">
        <ele>49</ele>
        <time>2020-06-26T15:33:17Z</time>
      </trkpt>
      <trkpt lat="43.30006" lon="3.11887">
        <ele>49.2</ele>
        <time>2020-06-26T15:33:16Z</time>
      </trkpt>
      <trkpt lat="43.30005" lon="3.11891">
        <ele>49.2</ele>
        <time>2020-06-26T15:33:15Z</time>
      </trkpt>
      <trkpt lat="43.30006" lon="3.11894">
        <ele>49.2</ele>
        <time>2020-06-26T15:33:14Z</time>
      </trkpt>
      <trkpt lat="43.30006" lon="3.11898">
        <ele>49.2</ele>
        <time>2020-06-26T15:33:13Z</time>
      </trkpt>
      <trkpt lat="43.30006" lon="3.11901">
        <ele>49.4</ele>
        <time>2020-06-26T15:33:12Z</time>
      </trkpt>
      <trkpt lat="43.30006" lon="3.11905">
        <ele>49.2</ele>
        <time>2020-06-26T15:33:11Z</time>
      </trkpt>
      <trkpt lat="43.30006" lon="3.11908">
        <ele>49.2</ele>
        <time>2020-06-26T15:33:10Z</time>
      </trkpt>
      <trkpt lat="43.30005" lon="3.11913">
        <ele>49.2</ele>
        <time>2020-06-26T15:33:09Z</time>
      </trkpt>
      <trkpt lat="43.30005" lon="3.11916">
        <ele>49.4</ele>
        <time>2020-06-26T15:33:08Z</time>
      </trkpt>
      <trkpt lat="43.30005" lon="3.1192">
        <ele>49.2</ele>
        <time>2020-06-26T15:33:07Z</time>
      </trkpt>
      <trkpt lat="43.30005" lon="3.11922">
        <ele>49.2</ele>
        <time>2020-06-26T15:33:06Z</time>
      </trkpt>
      <trkpt lat="43.30005" lon="3.11925">
        <ele>49.2</ele>
        <time>2020-06-26T15:33:05Z</time>
      </trkpt>
      <trkpt lat="43.30005" lon="3.11928">
        <ele>49.2</ele>
        <time>2020-06-26T15:33:04Z</time>
      </trkpt>
      <trkpt lat="43.30005" lon="3.11933">
        <ele>49.2</ele>
        <time>2020-06-26T15:33:03Z</time>
      </trkpt>
      <trkpt lat="43.30006" lon="3.11936">
        <ele>49.2</ele>
        <time>2020-06-26T15:33:02Z</time>
      </trkpt>
      <trkpt lat="43.30006" lon="3.11938">
        <ele>49.2</ele>
        <time>2020-06-26T15:33:01Z</time>
      </trkpt>
      <trkpt lat="43.30006" lon="3.11942">
        <ele>49.2</ele>
        <time>2020-06-26T15:33:00Z</time>
      </trkpt>
      <trkpt lat="43.30007" lon="3.11946">
        <ele>49.2</ele>
        <time>2020-06-26T15:32:59Z</time>
      </trkpt>
      <trkpt lat="43.30007" lon="3.11949">
        <ele>49.2</ele>
        <time>2020-06-26T15:32:58Z</time>
      </trkpt>
      <trkpt lat="43.30006" lon="3.11952">
        <ele>49.2</ele>
        <time>2020-06-26T15:32:57Z</time>
      </trkpt>
      <trkpt lat="43.30007" lon="3.11955">
        <ele>49.2</ele>
        <time>2020-06-26T15:32:56Z</time>
      </trkpt>
      <trkpt lat="43.30007" lon="3.11958">
        <ele>49.2</ele>
        <time>2020-06-26T15:32:55Z</time>
      </trkpt>
      <trkpt lat="43.30008" lon="3.1196">
        <ele>49.2</ele>
        <time>2020-06-26T15:32:54Z</time>
      </trkpt>
      <trkpt lat="43.30009" lon="3.11961">
        <ele>49.2</ele>
        <time>2020-06-26T15:32:53Z</time>
      </trkpt>
      <trkpt lat="43.30007" lon="3.11964">
        <ele>49.2</ele>
        <time>2020-06-26T15:32:52Z</time>
      </trkpt>
      <trkpt lat="43.30007" lon="3.11965">
        <ele>49.2</ele>
        <time>2020-06-26T15:32:51Z</time>
      </trkpt>
      <trkpt lat="43.30007" lon="3.11967">
        <ele>49.2</ele>
        <time>2020-06-26T15:32:50Z</time>
      </trkpt>
      <trkpt lat="43.30008" lon="3.1197">
        <ele>49.2</ele>
        <time>2020-06-26T15:32:49Z</time>
      </trkpt>
      <trkpt lat="43.30009" lon="3.11973">
        <ele>49.2</ele>
        <time>2020-06-26T15:32:48Z</time>
      </trkpt>
      <trkpt lat="43.30009" lon="3.11976">
        <ele>49.4</ele>
        <time>2020-06-26T15:32:47Z</time>
      </trkpt>
      <trkpt lat="43.30007" lon="3.11978">
        <ele>49.2</ele>
        <time>2020-06-26T15:32:46Z</time>
      </trkpt>
      <trkpt lat="43.30007" lon="3.1198">
        <ele>49.2</ele>
        <time>2020-06-26T15:32:45Z</time>
      </trkpt>
      <trkpt lat="43.30007" lon="3.11982">
        <ele>49.2</ele>
        <time>2020-06-26T15:32:44Z</time>
      </trkpt>
      <trkpt lat="43.30006" lon="3.11983">
        <ele>49.4</ele>
        <time>2020-06-26T15:32:43Z</time>
      </trkpt>
      <trkpt lat="43.30006" lon="3.11985">
        <ele>49.4</ele>
        <time>2020-06-26T15:32:42Z</time>
      </trkpt>
      <trkpt lat="43.30006" lon="3.11987">
        <ele>49.4</ele>
        <time>2020-06-26T15:32:41Z</time>
      </trkpt>
      <trkpt lat="43.30005" lon="3.11989">
        <ele>49.4</ele>
        <time>2020-06-26T15:32:40Z</time>
      </trkpt>
      <trkpt lat="43.30005" lon="3.11992">
        <ele>49.4</ele>
        <time>2020-06-26T15:32:39Z</time>
      </trkpt>
      <trkpt lat="43.30004" lon="3.11994">
        <ele>49.4</ele>
        <time>2020-06-26T15:32:38Z</time>
      </trkpt>
      <trkpt lat="43.30004" lon="3.11996">
        <ele>49.6</ele>
        <time>2020-06-26T15:32:37Z</time>
      </trkpt>
      <trkpt lat="43.30003" lon="3.11996">
        <ele>49.6</ele>
        <time>2020-06-26T15:32:36Z</time>
      </trkpt>
      <trkpt lat="43.30005" lon="3.12">
        <ele>49.4</ele>
        <time>2020-06-26T15:31:21Z</time>
      </trkpt>
      <trkpt lat="43.30005" lon="3.12">
        <ele>49.4</ele>
        <time>2020-06-26T15:31:20Z</time>
      </trkpt>
      <trkpt lat="43.30004" lon="3.12">
        <ele>49.4</ele>
        <time>2020-06-26T15:31:19Z</time>
      </trkpt>
      <trkpt lat="43.30004" lon="3.11998">
        <ele>49.4</ele>
        <time>2020-06-26T15:31:18Z</time>
      </trkpt>
      <trkpt lat="43.30004" lon="3.11999">
        <ele>49.2</ele>
        <time>2020-06-26T15:31:17Z</time>
      </trkpt>
      <trkpt lat="43.30003" lon="3.11999">
        <ele>49.2</ele>
        <time>2020-06-26T15:31:16Z</time>
      </trkpt>
      <trkpt lat="43.30003" lon="3.11999">
        <ele>49.2</ele>
        <time>2020-06-26T15:31:15Z</time>
      </trkpt>
      <trkpt lat="43.30003" lon="3.11999">
        <ele>49.2</ele>
        <time>2020-06-26T15:31:14Z</time>
      </trkpt>
      <trkpt lat="43.30003" lon="3.11999">
        <ele>49</ele>
        <time>2020-06-26T15:31:13Z</time>
      </trkpt>
      <trkpt lat="43.30004" lon="3.11998">
        <ele>49</ele>
        <time>2020-06-26T15:31:12Z</time>
      </trkpt>
      <trkpt lat="43.30004" lon="3.11998">
        <ele>49</ele>
        <time>2020-06-26T15:31:11Z</time>
      </trkpt>
      <trkpt lat="43.30004" lon="3.11999">
        <ele>49.2</ele>
        <time>2020-06-26T15:31:10Z</time>
      </trkpt>
      <trkpt lat="43.30004" lon="3.12002">
        <ele>49.2</ele>
        <time>2020-06-26T15:31:09Z</time>
      </trkpt>
      <trkpt lat="43.30003" lon="3.12004">
        <ele>49.2</ele>
        <time>2020-06-26T15:31:08Z</time>
      </trkpt>
      <trkpt lat="43.30002" lon="3.12009">
        <ele>49.4</ele>
        <time>2020-06-26T15:31:07Z</time>
      </trkpt>
      <trkpt lat="43.30003" lon="3.12015">
        <ele>49.6</ele>
        <time>2020-06-26T15:31:06Z</time>
      </trkpt>
      <trkpt lat="43.30005" lon="3.12021">
        <ele>49.6</ele>
        <time>2020-06-26T15:31:05Z</time>
      </trkpt>
      <trkpt lat="43.30006" lon="3.12027">
        <ele>49.6</ele>
        <time>2020-06-26T15:31:04Z</time>
      </trkpt>
      <trkpt lat="43.30007" lon="3.12034">
        <ele>49.8</ele>
        <time>2020-06-26T15:31:03Z</time>
      </trkpt>
      <trkpt lat="43.30007" lon="3.12042">
        <ele>49.8</ele>
        <time>2020-06-26T15:31:02Z</time>
      </trkpt>
      <trkpt lat="43.30009" lon="3.12048">
        <ele>50</ele>
        <time>2020-06-26T15:31:01Z</time>
      </trkpt>
      <trkpt lat="43.30009" lon="3.12055">
        <ele>50</ele>
        <time>2020-06-26T15:31:00Z</time>
      </trkpt>
      <trkpt lat="43.3001" lon="3.12063">
        <ele>50.2</ele>
        <time>2020-06-26T15:30:59Z</time>
      </trkpt>
      <trkpt lat="43.30011" lon="3.1207">
        <ele>50.4</ele>
        <time>2020-06-26T15:30:58Z</time>
      </trkpt>
      <trkpt lat="43.30014" lon="3.12077">
        <ele>50.4</ele>
        <time>2020-06-26T15:30:57Z</time>
      </trkpt>
      <trkpt lat="43.30016" lon="3.12083">
        <ele>50.6</ele>
        <time>2020-06-26T15:30:56Z</time>
      </trkpt>
      <trkpt lat="43.30021" lon="3.12089">
        <ele>50.6</ele>
        <time>2020-06-26T15:30:55Z</time>
      </trkpt>
      <trkpt lat="43.30026" lon="3.12095">
        <ele>50.8</ele>
        <time>2020-06-26T15:30:54Z</time>
      </trkpt>
      <trkpt lat="43.3003" lon="3.121">
        <ele>51.2</ele>
        <time>2020-06-26T15:30:53Z</time>
      </trkpt>
      <trkpt lat="43.30035" lon="3.12104">
        <ele>51.2</ele>
        <time>2020-06-26T15:30:52Z</time>
      </trkpt>
      <trkpt lat="43.30041" lon="3.12108">
        <ele>51.4</ele>
        <time>2020-06-26T15:30:51Z</time>
      </trkpt>
      <trkpt lat="43.30046" lon="3.12113">
        <ele>51.6</ele>
        <time>2020-06-26T15:30:50Z</time>
      </trkpt>
      <trkpt lat="43.30052" lon="3.12116">
        <ele>51.6</ele>
        <time>2020-06-26T15:30:49Z</time>
      </trkpt>
      <trkpt lat="43.30057" lon="3.1212">
        <ele>51.6</ele>
        <time>2020-06-26T15:30:48Z</time>
      </trkpt>
      <trkpt lat="43.30063" lon="3.12123">
        <ele>51.8</ele>
        <time>2020-06-26T15:30:47Z</time>
      </trkpt>
      <trkpt lat="43.30067" lon="3.12127">
        <ele>52</ele>
        <time>2020-06-26T15:30:46Z</time>
      </trkpt>
      <trkpt lat="43.30072" lon="3.12131">
        <ele>52</ele>
        <time>2020-06-26T15:30:45Z</time>
      </trkpt>
      <trkpt lat="43.30076" lon="3.12136">
        <ele>52</ele>
        <time>2020-06-26T15:30:44Z</time>
      </trkpt>
      <trkpt lat="43.3008" lon="3.12141">
        <ele>52.2</ele>
        <time>2020-06-26T15:30:43Z</time>
      </trkpt>
      <trkpt lat="43.30086" lon="3.12146">
        <ele>52.2</ele>
        <time>2020-06-26T15:30:42Z</time>
      </trkpt>
      <trkpt lat="43.30091" lon="3.1215">
        <ele>52.2</ele>
        <time>2020-06-26T15:30:41Z</time>
      </trkpt>
      <trkpt lat="43.30096" lon="3.12154">
        <ele>52.4</ele>
        <time>2020-06-26T15:30:40Z</time>
      </trkpt>
      <trkpt lat="43.301" lon="3.12158">
        <ele>52.6</ele>
        <time>2020-06-26T15:30:39Z</time>
      </trkpt>
      <trkpt lat="43.30105" lon="3.12162">
        <ele>52.8</ele>
        <time>2020-06-26T15:30:38Z</time>
      </trkpt>
      <trkpt lat="43.3011" lon="3.12166">
        <ele>52.8</ele>
        <time>2020-06-26T15:30:37Z</time>
      </trkpt>
      <trkpt lat="43.30115" lon="3.1217">
        <ele>52.8</ele>
        <time>2020-06-26T15:30:36Z</time>
      </trkpt>
      <trkpt lat="43.3012" lon="3.12174">
        <ele>52.8</ele>
        <time>2020-06-26T15:30:35Z</time>
      </trkpt>
      <trkpt lat="43.30125" lon="3.12178">
        <ele>53</ele>
        <time>2020-06-26T15:30:34Z</time>
      </trkpt>
      <trkpt lat="43.3013" lon="3.12183">
        <ele>53</ele>
        <time>2020-06-26T15:30:33Z</time>
      </trkpt>
      <trkpt lat="43.30135" lon="3.12187">
        <ele>53.2</ele>
        <time>2020-06-26T15:30:32Z</time>
      </trkpt>
      <trkpt lat="43.3014" lon="3.12191">
        <ele>53.4</ele>
        <time>2020-06-26T15:30:31Z</time>
      </trkpt>
      <trkpt lat="43.30144" lon="3.12195">
        <ele>53.4</ele>
        <time>2020-06-26T15:30:30Z</time>
      </trkpt>
      <trkpt lat="43.30149" lon="3.12199">
        <ele>53.6</ele>
        <time>2020-06-26T15:30:29Z</time>
      </trkpt>
      <trkpt lat="43.30154" lon="3.12203">
        <ele>53.6</ele>
        <time>2020-06-26T15:30:28Z</time>
      </trkpt>
      <trkpt lat="43.30159" lon="3.12207">
        <ele>53.6</ele>
        <time>2020-06-26T15:30:27Z</time>
      </trkpt>
      <trkpt lat="43.30164" lon="3.12211">
        <ele>53.8</ele>
        <time>2020-06-26T15:30:26Z</time>
      </trkpt>
      <trkpt lat="43.30169" lon="3.12214">
        <ele>53.8</ele>
        <time>2020-06-26T15:30:25Z</time>
      </trkpt>
      <trkpt lat="43.30174" lon="3.12218">
        <ele>53.8</ele>
        <time>2020-06-26T15:30:24Z</time>
      </trkpt>
      <trkpt lat="43.30179" lon="3.12222">
        <ele>54</ele>
        <time>2020-06-26T15:30:23Z</time>
      </trkpt>
      <trkpt lat="43.30184" lon="3.12226">
        <ele>54.2</ele>
        <time>2020-06-26T15:30:22Z</time>
      </trkpt>
      <trkpt lat="43.30189" lon="3.1223">
        <ele>54.4</ele>
        <time>2020-06-26T15:30:21Z</time>
      </trkpt>
      <trkpt lat="43.30194" lon="3.12234">
        <ele>54.4</ele>
        <time>2020-06-26T15:30:20Z</time>
      </trkpt>
      <trkpt lat="43.30199" lon="3.12238">
        <ele>54.4</ele>
        <time>2020-06-26T15:30:19Z</time>
      </trkpt>
      <trkpt lat="43.30204" lon="3.12241">
        <ele>54.6</ele>
        <time>2020-06-26T15:30:18Z</time>
      </trkpt>
      <trkpt lat="43.30209" lon="3.12245">
        <ele>54.8</ele>
        <time>2020-06-26T15:30:17Z</time>
      </trkpt>
      <trkpt lat="43.30214" lon="3.12248">
        <ele>54.8</ele>
        <time>2020-06-26T15:30:16Z</time>
      </trkpt>
      <trkpt lat="43.30218" lon="3.12252">
        <ele>55</ele>
        <time>2020-06-26T15:30:15Z</time>
      </trkpt>
      <trkpt lat="43.30223" lon="3.12255">
        <ele>55</ele>
        <time>2020-06-26T15:30:14Z</time>
      </trkpt>
      <trkpt lat="43.30227" lon="3.12258">
        <ele>55.2</ele>
        <time>2020-06-26T15:30:13Z</time>
      </trkpt>
      <trkpt lat="43.30232" lon="3.12261">
        <ele>55.2</ele>
        <time>2020-06-26T15:30:12Z</time>
      </trkpt>
      <trkpt lat="43.30236" lon="3.12264">
        <ele>55.4</ele>
        <time>2020-06-26T15:30:11Z</time>
      </trkpt>
      <trkpt lat="43.30241" lon="3.12267">
        <ele>55.6</ele>
        <time>2020-06-26T15:30:10Z</time>
      </trkpt>
      <trkpt lat="43.30245" lon="3.12269">
        <ele>55.6</ele>
        <time>2020-06-26T15:30:09Z</time>
      </trkpt>
      <trkpt lat="43.30249" lon="3.12271">
        <ele>56</ele>
        <time>2020-06-26T15:30:08Z</time>
      </trkpt>
      <trkpt lat="43.30253" lon="3.12273">
        <ele>56.2</ele>
        <time>2020-06-26T15:30:07Z</time>
      </trkpt>
      <trkpt lat="43.30257" lon="3.12275">
        <ele>56.6</ele>
        <time>2020-06-26T15:30:06Z</time>
      </trkpt>
      <trkpt lat="43.30261" lon="3.12277">
        <ele>56.8</ele>
        <time>2020-06-26T15:30:05Z</time>
      </trkpt>
      <trkpt lat="43.30265" lon="3.12279">
        <ele>57</ele>
        <time>2020-06-26T15:30:04Z</time>
      </trkpt>
      <trkpt lat="43.30269" lon="3.12282">
        <ele>57</ele>
        <time>2020-06-26T15:30:03Z</time>
      </trkpt>
      <trkpt lat="43.30271" lon="3.12286">
        <ele>57</ele>
        <time>2020-06-26T15:30:02Z</time>
      </trkpt>
      <trkpt lat="43.30276" lon="3.12289">
        <ele>57.2</ele>
        <time>2020-06-26T15:30:01Z</time>
      </trkpt>
      <trkpt lat="43.30278" lon="3.12293">
        <ele>57.2</ele>
        <time>2020-06-26T15:30:00Z</time>
      </trkpt>
      <trkpt lat="43.3028" lon="3.12295">
        <ele>57.4</ele>
        <time>2020-06-26T15:29:59Z</time>
      </trkpt>
      <trkpt lat="43.30282" lon="3.12296">
        <ele>57.4</ele>
        <time>2020-06-26T15:29:58Z</time>
      </trkpt>
      <trkpt lat="43.30285" lon="3.12297">
        <ele>57.2</ele>
        <time>2020-06-26T15:29:57Z</time>
      </trkpt>
      <trkpt lat="43.30291" lon="3.12298">
        <ele>56.2</ele>
        <time>2020-06-26T15:27:39Z</time>
      </trkpt>
      <trkpt lat="43.30291" lon="3.12297">
        <ele>56.2</ele>
        <time>2020-06-26T15:27:38Z</time>
      </trkpt>
      <trkpt lat="43.30291" lon="3.12297">
        <ele>56.2</ele>
        <time>2020-06-26T15:27:37Z</time>
      </trkpt>
      <trkpt lat="43.30289" lon="3.12296">
        <ele>56</ele>
        <time>2020-06-26T15:27:36Z</time>
      </trkpt>
      <trkpt lat="43.30289" lon="3.12294">
        <ele>56</ele>
        <time>2020-06-26T15:27:35Z</time>
      </trkpt>
      <trkpt lat="43.30288" lon="3.12293">
        <ele>56.2</ele>
        <time>2020-06-26T15:27:34Z</time>
      </trkpt>
      <trkpt lat="43.30288" lon="3.12294">
        <ele>56</ele>
        <time>2020-06-26T15:27:33Z</time>
      </trkpt>
      <trkpt lat="43.30288" lon="3.12294">
        <ele>56.2</ele>
        <time>2020-06-26T15:27:32Z</time>
      </trkpt>
      <trkpt lat="43.30289" lon="3.12296">
        <ele>56</ele>
        <time>2020-06-26T15:27:31Z</time>
      </trkpt>
      <trkpt lat="43.30289" lon="3.12298">
        <ele>56</ele>
        <time>2020-06-26T15:27:30Z</time>
      </trkpt>
      <trkpt lat="43.3029" lon="3.12298">
        <ele>56</ele>
        <time>2020-06-26T15:27:29Z</time>
      </trkpt>
      <trkpt lat="43.30288" lon="3.12297">
        <ele>56.2</ele>
        <time>2020-06-26T15:27:28Z</time>
      </trkpt>
      <trkpt lat="43.30288" lon="3.12297">
        <ele>56.4</ele>
        <time>2020-06-26T15:27:27Z</time>
      </trkpt>
      <trkpt lat="43.3029" lon="3.12299">
        <ele>56.4</ele>
        <time>2020-06-26T15:27:26Z</time>
      </trkpt>
      <trkpt lat="43.3029" lon="3.123">
        <ele>56.4</ele>
        <time>2020-06-26T15:27:25Z</time>
      </trkpt>
      <trkpt lat="43.30292" lon="3.123">
        <ele>56.4</ele>
        <time>2020-06-26T15:27:24Z</time>
      </trkpt>
      <trkpt lat="43.30294" lon="3.12303">
        <ele>56.4</ele>
        <time>2020-06-26T15:27:23Z</time>
      </trkpt>
      <trkpt lat="43.30297" lon="3.12303">
        <ele>56.4</ele>
        <time>2020-06-26T15:27:22Z</time>
      </trkpt>
      <trkpt lat="43.30298" lon="3.12305">
        <ele>56.4</ele>
        <time>2020-06-26T15:27:21Z</time>
      </trkpt>
      <trkpt lat="43.30302" lon="3.12304">
        <ele>56.6</ele>
        <time>2020-06-26T15:27:20Z</time>
      </trkpt>
      <trkpt lat="43.30304" lon="3.12307">
        <ele>56.4</ele>
        <time>2020-06-26T15:27:19Z</time>
      </trkpt>
      <trkpt lat="43.30305" lon="3.12308">
        <ele>56.4</ele>
        <time>2020-06-26T15:27:18Z</time>
      </trkpt>
      <trkpt lat="43.30306" lon="3.12308">
        <ele>56.4</ele>
        <time>2020-06-26T15:27:17Z</time>
      </trkpt>
      <trkpt lat="43.30306" lon="3.12309">
        <ele>56.4</ele>
        <time>2020-06-26T15:27:16Z</time>
      </trkpt>
      <trkpt lat="43.30308" lon="3.12309">
        <ele>56.6</ele>
        <time>2020-06-26T15:27:15Z</time>
      </trkpt>
      <trkpt lat="43.3031" lon="3.1231">
        <ele>56.8</ele>
        <time>2020-06-26T15:27:14Z</time>
      </trkpt>
      <trkpt lat="43.30312" lon="3.12312">
        <ele>56.8</ele>
        <time>2020-06-26T15:27:13Z</time>
      </trkpt>
      <trkpt lat="43.30313" lon="3.12312">
        <ele>56.6</ele>
        <time>2020-06-26T15:27:12Z</time>
      </trkpt>
      <trkpt lat="43.30313" lon="3.12312">
        <ele>56.6</ele>
        <time>2020-06-26T15:27:11Z</time>
      </trkpt>
      <trkpt lat="43.30315" lon="3.12314">
        <ele>56.6</ele>
        <time>2020-06-26T15:27:10Z</time>
      </trkpt>
      <trkpt lat="43.30317" lon="3.12315">
        <ele>56.6</ele>
        <time>2020-06-26T15:27:09Z</time>
      </trkpt>
      <trkpt lat="43.30319" lon="3.12316">
        <ele>56.6</ele>
        <time>2020-06-26T15:27:08Z</time>
      </trkpt>
      <trkpt lat="43.30323" lon="3.12317">
        <ele>56.6</ele>
        <time>2020-06-26T15:27:07Z</time>
      </trkpt>
      <trkpt lat="43.30325" lon="3.12319">
        <ele>56.8</ele>
        <time>2020-06-26T15:27:06Z</time>
      </trkpt>
      <trkpt lat="43.3033" lon="3.12322">
        <ele>57.2</ele>
        <time>2020-06-26T15:27:05Z</time>
      </trkpt>
      <trkpt lat="43.30334" lon="3.12328">
        <ele>57.4</ele>
        <time>2020-06-26T15:27:04Z</time>
      </trkpt>
      <trkpt lat="43.30338" lon="3.12332">
        <ele>57.4</ele>
        <time>2020-06-26T15:27:03Z</time>
      </trkpt>
      <trkpt lat="43.30342" lon="3.12335">
        <ele>57.6</ele>
        <time>2020-06-26T15:27:02Z</time>
      </trkpt>
      <trkpt lat="43.30347" lon="3.12339">
        <ele>57.8</ele>
        <time>2020-06-26T15:27:01Z</time>
      </trkpt>
      <trkpt lat="43.30352" lon="3.12343">
        <ele>58</ele>
        <time>2020-06-26T15:27:00Z</time>
      </trkpt>
      <trkpt lat="43.30357" lon="3.12348">
        <ele>58</ele>
        <time>2020-06-26T15:26:59Z</time>
      </trkpt>
      <trkpt lat="43.30362" lon="3.1235">
        <ele>58.4</ele>
        <time>2020-06-26T15:26:58Z</time>
      </trkpt>
      <trkpt lat="43.30368" lon="3.12354">
        <ele>58.2</ele>
        <time>2020-06-26T15:26:57Z</time>
      </trkpt>
      <trkpt lat="43.30373" lon="3.12356">
        <ele>58.6</ele>
        <time>2020-06-26T15:26:56Z</time>
      </trkpt>
      <trkpt lat="43.30379" lon="3.12359">
        <ele>58.8</ele>
        <time>2020-06-26T15:26:55Z</time>
      </trkpt>
      <trkpt lat="43.30384" lon="3.12362">
        <ele>59</ele>
        <time>2020-06-26T15:26:54Z</time>
      </trkpt>
      <trkpt lat="43.30389" lon="3.12363">
        <ele>59</ele>
        <time>2020-06-26T15:26:53Z</time>
      </trkpt>
      <trkpt lat="43.30395" lon="3.12367">
        <ele>59.2</ele>
        <time>2020-06-26T15:26:52Z</time>
      </trkpt>
      <trkpt lat="43.30399" lon="3.12372">
        <ele>59.4</ele>
        <time>2020-06-26T15:26:51Z</time>
      </trkpt>
      <trkpt lat="43.30404" lon="3.12377">
        <ele>59.8</ele>
        <time>2020-06-26T15:26:50Z</time>
      </trkpt>
      <trkpt lat="43.3041" lon="3.12379">
        <ele>59.8</ele>
        <time>2020-06-26T15:26:49Z</time>
      </trkpt>
      <trkpt lat="43.30415" lon="3.12382">
        <ele>60</ele>
        <time>2020-06-26T15:26:48Z</time>
      </trkpt>
      <trkpt lat="43.30423" lon="3.12385">
        <ele>60.2</ele>
        <time>2020-06-26T15:26:47Z</time>
      </trkpt>
      <trkpt lat="43.30429" lon="3.12387">
        <ele>60.4</ele>
        <time>2020-06-26T15:26:46Z</time>
      </trkpt>
      <trkpt lat="43.30433" lon="3.1239">
        <ele>60.6</ele>
        <time>2020-06-26T15:26:45Z</time>
      </trkpt>
      <trkpt lat="43.30437" lon="3.12393">
        <ele>61</ele>
        <time>2020-06-26T15:26:44Z</time>
      </trkpt>
      <trkpt lat="43.3044" lon="3.12396">
        <ele>61.2</ele>
        <time>2020-06-26T15:26:43Z</time>
      </trkpt>
      <trkpt lat="43.30443" lon="3.12402">
        <ele>61.2</ele>
        <time>2020-06-26T15:26:42Z</time>
      </trkpt>
      <trkpt lat="43.30445" lon="3.12405">
        <ele>61.4</ele>
        <time>2020-06-26T15:26:41Z</time>
      </trkpt>
      <trkpt lat="43.30446" lon="3.1241">
        <ele>61.8</ele>
        <time>2020-06-26T15:26:40Z</time>
      </trkpt>
      <trkpt lat="43.30447" lon="3.12412">
        <ele>62</ele>
        <time>2020-06-26T15:26:39Z</time>
      </trkpt>
      <trkpt lat="43.30446" lon="3.12414">
        <ele>62</ele>
        <time>2020-06-26T15:26:38Z</time>
      </trkpt>
      <trkpt lat="43.30446" lon="3.12416">
        <ele>62</ele>
        <time>2020-06-26T15:26:37Z</time>
      </trkpt>
      <trkpt lat="43.30447" lon="3.12419">
        <ele>62.2</ele>
        <time>2020-06-26T15:26:36Z</time>
      </trkpt>
      <trkpt lat="43.30446" lon="3.1242">
        <ele>62.2</ele>
        <time>2020-06-26T15:26:35Z</time>
      </trkpt>
      <trkpt lat="43.30446" lon="3.12421">
        <ele>62</ele>
        <time>2020-06-26T15:26:34Z</time>
      </trkpt>
      <trkpt lat="43.30446" lon="3.12422">
        <ele>62.2</ele>
        <time>2020-06-26T15:26:33Z</time>
      </trkpt>
      <trkpt lat="43.30447" lon="3.12422">
        <ele>62.4</ele>
        <time>2020-06-26T15:26:32Z</time>
      </trkpt>
      <trkpt lat="43.30446" lon="3.12419">
        <ele>62.2</ele>
        <time>2020-06-26T15:26:25Z</time>
      </trkpt>
      <trkpt lat="43.30446" lon="3.12419">
        <ele>62.4</ele>
        <time>2020-06-26T15:26:24Z</time>
      </trkpt>
      <trkpt lat="43.30445" lon="3.12419">
        <ele>62.4</ele>
        <time>2020-06-26T15:26:23Z</time>
      </trkpt>
      <trkpt lat="43.30446" lon="3.1242">
        <ele>62.4</ele>
        <time>2020-06-26T15:26:22Z</time>
      </trkpt>
      <trkpt lat="43.30446" lon="3.12421">
        <ele>62.4</ele>
        <time>2020-06-26T15:26:21Z</time>
      </trkpt>
      <trkpt lat="43.30446" lon="3.12422">
        <ele>62.2</ele>
        <time>2020-06-26T15:26:20Z</time>
      </trkpt>
      <trkpt lat="43.30445" lon="3.12423">
        <ele>62.2</ele>
        <time>2020-06-26T15:26:19Z</time>
      </trkpt>
      <trkpt lat="43.30445" lon="3.12425">
        <ele>62.2</ele>
        <time>2020-06-26T15:26:18Z</time>
      </trkpt>
      <trkpt lat="43.30445" lon="3.12426">
        <ele>62.2</ele>
        <time>2020-06-26T15:26:17Z</time>
      </trkpt>
      <trkpt lat="43.30446" lon="3.12426">
        <ele>62.4</ele>
        <time>2020-06-26T15:26:16Z</time>
      </trkpt>
      <trkpt lat="43.30447" lon="3.12425">
        <ele>62.6</ele>
        <time>2020-06-26T15:26:15Z</time>
      </trkpt>
      <trkpt lat="43.30447" lon="3.12425">
        <ele>62.6</ele>
        <time>2020-06-26T15:26:14Z</time>
      </trkpt>
      <trkpt lat="43.30451" lon="3.12427">
        <ele>62.6</ele>
        <time>2020-06-26T15:26:13Z</time>
      </trkpt>
      <trkpt lat="43.30454" lon="3.12426">
        <ele>62.6</ele>
        <time>2020-06-26T15:26:12Z</time>
      </trkpt>
      <trkpt lat="43.30456" lon="3.12423">
        <ele>63</ele>
        <time>2020-06-26T15:26:11Z</time>
      </trkpt>
      <trkpt lat="43.30458" lon="3.12421">
        <ele>63.2</ele>
        <time>2020-06-26T15:26:10Z</time>
      </trkpt>
      <trkpt lat="43.30462" lon="3.12421">
        <ele>63.4</ele>
        <time>2020-06-26T15:26:09Z</time>
      </trkpt>
      <trkpt lat="43.30467" lon="3.12421">
        <ele>63.8</ele>
        <time>2020-06-26T15:26:08Z</time>
      </trkpt>
      <trkpt lat="43.3047" lon="3.12419">
        <ele>64.2</ele>
        <time>2020-06-26T15:26:07Z</time>
      </trkpt>
      <trkpt lat="43.30475" lon="3.12417">
        <ele>64.8</ele>
        <time>2020-06-26T15:26:06Z</time>
      </trkpt>
      <trkpt lat="43.30479" lon="3.12415">
        <ele>65</ele>
        <time>2020-06-26T15:26:05Z</time>
      </trkpt>
      <trkpt lat="43.30483" lon="3.12415">
        <ele>65.2</ele>
        <time>2020-06-26T15:26:04Z</time>
      </trkpt>
      <trkpt lat="43.3049" lon="3.12415">
        <ele>65.6</ele>
        <time>2020-06-26T15:26:03Z</time>
      </trkpt>
      <trkpt lat="43.30496" lon="3.12413">
        <ele>66</ele>
        <time>2020-06-26T15:26:02Z</time>
      </trkpt>
      <trkpt lat="43.30501" lon="3.12411">
        <ele>66.2</ele>
        <time>2020-06-26T15:26:01Z</time>
      </trkpt>
      <trkpt lat="43.30509" lon="3.12411">
        <ele>66.4</ele>
        <time>2020-06-26T15:26:00Z</time>
      </trkpt>
      <trkpt lat="43.30512" lon="3.12414">
        <ele>66.6</ele>
        <time>2020-06-26T15:25:59Z</time>
      </trkpt>
      <trkpt lat="43.30516" lon="3.12418">
        <ele>66.8</ele>
        <time>2020-06-26T15:25:58Z</time>
      </trkpt>
      <trkpt lat="43.3052" lon="3.12422">
        <ele>67.2</ele>
        <time>2020-06-26T15:25:57Z</time>
      </trkpt>
      <trkpt lat="43.30525" lon="3.12425">
        <ele>67.4</ele>
        <time>2020-06-26T15:25:56Z</time>
      </trkpt>
      <trkpt lat="43.3053" lon="3.12434">
        <ele>67.6</ele>
        <time>2020-06-26T15:25:55Z</time>
      </trkpt>
      <trkpt lat="43.30536" lon="3.1244">
        <ele>68</ele>
        <time>2020-06-26T15:25:54Z</time>
      </trkpt>
      <trkpt lat="43.30541" lon="3.12449">
        <ele>68.2</ele>
        <time>2020-06-26T15:25:53Z</time>
      </trkpt>
      <trkpt lat="43.30545" lon="3.12456">
        <ele>68.2</ele>
        <time>2020-06-26T15:25:52Z</time>
      </trkpt>
      <trkpt lat="43.30549" lon="3.12465">
        <ele>68.6</ele>
        <time>2020-06-26T15:25:51Z</time>
      </trkpt>
      <trkpt lat="43.30553" lon="3.12469">
        <ele>69</ele>
        <time>2020-06-26T15:25:50Z</time>
      </trkpt>
      <trkpt lat="43.30559" lon="3.12474">
        <ele>69.2</ele>
        <time>2020-06-26T15:25:49Z</time>
      </trkpt>
      <trkpt lat="43.30564" lon="3.1248">
        <ele>69.4</ele>
        <time>2020-06-26T15:25:48Z</time>
      </trkpt>
      <trkpt lat="43.30568" lon="3.12486">
        <ele>69.4</ele>
        <time>2020-06-26T15:25:47Z</time>
      </trkpt>
      <trkpt lat="43.30572" lon="3.12493">
        <ele>69.6</ele>
        <time>2020-06-26T15:25:46Z</time>
      </trkpt>
      <trkpt lat="43.30576" lon="3.12501">
        <ele>69.8</ele>
        <time>2020-06-26T15:25:45Z</time>
      </trkpt>
      <trkpt lat="43.30581" lon="3.12508">
        <ele>70</ele>
        <time>2020-06-26T15:25:44Z</time>
      </trkpt>
      <trkpt lat="43.30585" lon="3.12513">
        <ele>70.2</ele>
        <time>2020-06-26T15:25:43Z</time>
      </trkpt>
      <trkpt lat="43.30589" lon="3.12518">
        <ele>70.4</ele>
        <time>2020-06-26T15:25:42Z</time>
      </trkpt>
      <trkpt lat="43.30593" lon="3.12523">
        <ele>70.6</ele>
        <time>2020-06-26T15:25:41Z</time>
      </trkpt>
      <trkpt lat="43.30596" lon="3.12528">
        <ele>70.8</ele>
        <time>2020-06-26T15:25:40Z</time>
      </trkpt>
      <trkpt lat="43.30601" lon="3.12533">
        <ele>71</ele>
        <time>2020-06-26T15:25:39Z</time>
      </trkpt>
      <trkpt lat="43.30607" lon="3.12539">
        <ele>71</ele>
        <time>2020-06-26T15:25:38Z</time>
      </trkpt>
      <trkpt lat="43.30608" lon="3.12543">
        <ele>71.2</ele>
        <time>2020-06-26T15:25:37Z</time>
      </trkpt>
      <trkpt lat="43.30613" lon="3.12547">
        <ele>71.4</ele>
        <time>2020-06-26T15:25:36Z</time>
      </trkpt>
      <trkpt lat="43.30619" lon="3.12549">
        <ele>71.6</ele>
        <time>2020-06-26T15:25:35Z</time>
      </trkpt>
      <trkpt lat="43.30623" lon="3.1255">
        <ele>71.6</ele>
        <time>2020-06-26T15:25:34Z</time>
      </trkpt>
      <trkpt lat="43.30627" lon="3.12551">
        <ele>72.2</ele>
        <time>2020-06-26T15:25:33Z</time>
      </trkpt>
      <trkpt lat="43.30631" lon="3.12553">
        <ele>72.4</ele>
        <time>2020-06-26T15:25:32Z</time>
      </trkpt>
      <trkpt lat="43.30637" lon="3.12553">
        <ele>72.4</ele>
        <time>2020-06-26T15:25:31Z</time>
      </trkpt>
      <trkpt lat="43.3064" lon="3.12552">
        <ele>72.4</ele>
        <time>2020-06-26T15:25:30Z</time>
      </trkpt>
      <trkpt lat="43.30646" lon="3.12552">
        <ele>72.6</ele>
        <time>2020-06-26T15:25:29Z</time>
      </trkpt>
      <trkpt lat="43.3065" lon="3.12551">
        <ele>72.6</ele>
        <time>2020-06-26T15:25:28Z</time>
      </trkpt>
      <trkpt lat="43.30655" lon="3.12554">
        <ele>72.8</ele>
        <time>2020-06-26T15:25:27Z</time>
      </trkpt>
      <trkpt lat="43.30659" lon="3.12559">
        <ele>73.2</ele>
        <time>2020-06-26T15:25:26Z</time>
      </trkpt>
      <trkpt lat="43.30662" lon="3.12563">
        <ele>73.4</ele>
        <time>2020-06-26T15:25:25Z</time>
      </trkpt>
      <trkpt lat="43.30666" lon="3.12568">
        <ele>73.6</ele>
        <time>2020-06-26T15:25:24Z</time>
      </trkpt>
      <trkpt lat="43.30669" lon="3.12573">
        <ele>73.8</ele>
        <time>2020-06-26T15:25:23Z</time>
      </trkpt>
      <trkpt lat="43.30673" lon="3.12578">
        <ele>74.2</ele>
        <time>2020-06-26T15:25:22Z</time>
      </trkpt>
      <trkpt lat="43.30677" lon="3.12582">
        <ele>74.4</ele>
        <time>2020-06-26T15:25:21Z</time>
      </trkpt>
      <trkpt lat="43.3068" lon="3.12588">
        <ele>75</ele>
        <time>2020-06-26T15:25:20Z</time>
      </trkpt>
      <trkpt lat="43.30684" lon="3.12594">
        <ele>75.8</ele>
        <time>2020-06-26T15:25:19Z</time>
      </trkpt>
      <trkpt lat="43.30688" lon="3.12601">
        <ele>76.2</ele>
        <time>2020-06-26T15:25:18Z</time>
      </trkpt>
      <trkpt lat="43.30691" lon="3.12606">
        <ele>76.2</ele>
        <time>2020-06-26T15:25:17Z</time>
      </trkpt>
      <trkpt lat="43.30694" lon="3.12613">
        <ele>76.4</ele>
        <time>2020-06-26T15:25:16Z</time>
      </trkpt>
      <trkpt lat="43.30697" lon="3.12618">
        <ele>76.6</ele>
        <time>2020-06-26T15:25:15Z</time>
      </trkpt>
      <trkpt lat="43.30699" lon="3.12621">
        <ele>76.8</ele>
        <time>2020-06-26T15:25:14Z</time>
      </trkpt>
      <trkpt lat="43.30702" lon="3.12625">
        <ele>77</ele>
        <time>2020-06-26T15:25:13Z</time>
      </trkpt>
      <trkpt lat="43.30704" lon="3.12629">
        <ele>77</ele>
        <time>2020-06-26T15:25:12Z</time>
      </trkpt>
      <trkpt lat="43.30705" lon="3.12633">
        <ele>77.2</ele>
        <time>2020-06-26T15:25:11Z</time>
      </trkpt>
      <trkpt lat="43.30707" lon="3.12635">
        <ele>77.2</ele>
        <time>2020-06-26T15:25:10Z</time>
      </trkpt>
      <trkpt lat="43.3071" lon="3.12636">
        <ele>77.2</ele>
        <time>2020-06-26T15:25:09Z</time>
      </trkpt>
      <trkpt lat="43.30709" lon="3.12636">
        <ele>77.4</ele>
        <time>2020-06-26T15:25:08Z</time>
      </trkpt>
      <trkpt lat="43.30712" lon="3.1264">
        <ele>77.4</ele>
        <time>2020-06-26T15:25:07Z</time>
      </trkpt>
      <trkpt lat="43.30713" lon="3.12643">
        <ele>77.4</ele>
        <time>2020-06-26T15:25:06Z</time>
      </trkpt>
      <trkpt lat="43.30714" lon="3.12647">
        <ele>77.4</ele>
        <time>2020-06-26T15:25:05Z</time>
      </trkpt>
      <trkpt lat="43.30713" lon="3.12648">
        <ele>77.4</ele>
        <time>2020-06-26T15:25:04Z</time>
      </trkpt>
      <trkpt lat="43.30715" lon="3.12651">
        <ele>77.2</ele>
        <time>2020-06-26T15:25:03Z</time>
      </trkpt>
      <trkpt lat="43.30715" lon="3.12654">
        <ele>77.2</ele>
        <time>2020-06-26T15:25:02Z</time>
      </trkpt>
      <trkpt lat="43.30717" lon="3.12655">
        <ele>77.2</ele>
        <time>2020-06-26T15:25:01Z</time>
      </trkpt>
      <trkpt lat="43.30717" lon="3.12658">
        <ele>77.2</ele>
        <time>2020-06-26T15:25:00Z</time>
      </trkpt>
      <trkpt lat="43.30716" lon="3.12659">
        <ele>77.4</ele>
        <time>2020-06-26T15:24:59Z</time>
      </trkpt>
      <trkpt lat="43.30718" lon="3.1266">
        <ele>77.4</ele>
        <time>2020-06-26T15:24:58Z</time>
      </trkpt>
      <trkpt lat="43.30722" lon="3.12659">
        <ele>77.4</ele>
        <time>2020-06-26T15:24:57Z</time>
      </trkpt>
      <trkpt lat="43.30722" lon="3.12659">
        <ele>77.6</ele>
        <time>2020-06-26T15:24:56Z</time>
      </trkpt>
      <trkpt lat="43.30724" lon="3.12658">
        <ele>77.6</ele>
        <time>2020-06-26T15:24:55Z</time>
      </trkpt>
      <trkpt lat="43.30725" lon="3.12661">
        <ele>77.8</ele>
        <time>2020-06-26T15:24:54Z</time>
      </trkpt>
      <trkpt lat="43.30725" lon="3.12658">
        <ele>77.8</ele>
        <time>2020-06-26T15:24:53Z</time>
      </trkpt>
      <trkpt lat="43.30725" lon="3.12661">
        <ele>77.8</ele>
        <time>2020-06-26T15:24:52Z</time>
      </trkpt>
      <trkpt lat="43.30725" lon="3.12659">
        <ele>77.8</ele>
        <time>2020-06-26T15:24:51Z</time>
      </trkpt>
      <trkpt lat="43.30725" lon="3.12658">
        <ele>77.8</ele>
        <time>2020-06-26T15:24:50Z</time>
      </trkpt>
      <trkpt lat="43.30725" lon="3.12656">
        <ele>77.8</ele>
        <time>2020-06-26T15:24:49Z</time>
      </trkpt>
      <trkpt lat="43.30725" lon="3.12657">
        <ele>77.8</ele>
        <time>2020-06-26T15:24:48Z</time>
      </trkpt>
      <trkpt lat="43.30728" lon="3.12659">
        <ele>77.8</ele>
        <time>2020-06-26T15:24:47Z</time>
      </trkpt>
      <trkpt lat="43.30727" lon="3.12659">
        <ele>77.6</ele>
        <time>2020-06-26T15:24:46Z</time>
      </trkpt>
      <trkpt lat="43.3073" lon="3.12655">
        <ele>77.6</ele>
        <time>2020-06-26T15:24:45Z</time>
      </trkpt>
      <trkpt lat="43.3073" lon="3.12653">
        <ele>77.8</ele>
        <time>2020-06-26T15:24:44Z</time>
      </trkpt>
      <trkpt lat="43.3073" lon="3.12652">
        <ele>77.8</ele>
        <time>2020-06-26T15:24:43Z</time>
      </trkpt>
      <trkpt lat="43.30729" lon="3.12651">
        <ele>77.8</ele>
        <time>2020-06-26T15:24:42Z</time>
      </trkpt>
      <trkpt lat="43.30728" lon="3.12651">
        <ele>77.6</ele>
        <time>2020-06-26T15:24:41Z</time>
      </trkpt>
      <trkpt lat="43.30728" lon="3.12651">
        <ele>77.4</ele>
        <time>2020-06-26T15:24:40Z</time>
      </trkpt>
      <trkpt lat="43.30728" lon="3.12648">
        <ele>77.4</ele>
        <time>2020-06-26T15:24:39Z</time>
      </trkpt>
      <trkpt lat="43.30729" lon="3.12647">
        <ele>77.6</ele>
        <time>2020-06-26T15:24:38Z</time>
      </trkpt>
      <trkpt lat="43.30729" lon="3.12646">
        <ele>77.8</ele>
        <time>2020-06-26T15:24:37Z</time>
      </trkpt>
      <trkpt lat="43.3073" lon="3.12645">
        <ele>77.8</ele>
        <time>2020-06-26T15:24:36Z</time>
      </trkpt>
      <trkpt lat="43.3073" lon="3.12644">
        <ele>77.6</ele>
        <time>2020-06-26T15:24:35Z</time>
      </trkpt>
      <trkpt lat="43.3073" lon="3.12643">
        <ele>77.6</ele>
        <time>2020-06-26T15:24:34Z</time>
      </trkpt>
      <trkpt lat="43.3073" lon="3.12645">
        <ele>77.6</ele>
        <time>2020-06-26T15:24:33Z</time>
      </trkpt>
      <trkpt lat="43.30729" lon="3.12644">
        <ele>77.6</ele>
        <time>2020-06-26T15:24:32Z</time>
      </trkpt>
      <trkpt lat="43.30728" lon="3.12643">
        <ele>77.6</ele>
        <time>2020-06-26T15:24:31Z</time>
      </trkpt>
      <trkpt lat="43.30728" lon="3.12643">
        <ele>77.6</ele>
        <time>2020-06-26T15:24:30Z</time>
      </trkpt>
      <trkpt lat="43.30729" lon="3.12639">
        <ele>77.4</ele>
        <time>2020-06-26T15:24:29Z</time>
      </trkpt>
      <trkpt lat="43.30728" lon="3.1264">
        <ele>77.2</ele>
        <time>2020-06-26T15:24:28Z</time>
      </trkpt>
      <trkpt lat="43.30728" lon="3.12641">
        <ele>77.2</ele>
        <time>2020-06-26T15:24:27Z</time>
      </trkpt>
      <trkpt lat="43.30729" lon="3.1264">
        <ele>77.4</ele>
        <time>2020-06-26T15:24:26Z</time>
      </trkpt>
      <trkpt lat="43.30728" lon="3.12641">
        <ele>77.4</ele>
        <time>2020-06-26T15:24:25Z</time>
      </trkpt>
      <trkpt lat="43.30729" lon="3.12641">
        <ele>77.4</ele>
        <time>2020-06-26T15:24:24Z</time>
      </trkpt>
      <trkpt lat="43.30727" lon="3.12642">
        <ele>77.6</ele>
        <time>2020-06-26T15:24:23Z</time>
      </trkpt>
      <trkpt lat="43.30728" lon="3.12642">
        <ele>77.8</ele>
        <time>2020-06-26T15:24:22Z</time>
      </trkpt>
      <trkpt lat="43.30728" lon="3.12641">
        <ele>77.8</ele>
        <time>2020-06-26T15:24:21Z</time>
      </trkpt>
      <trkpt lat="43.30728" lon="3.12642">
        <ele>77.8</ele>
        <time>2020-06-26T15:24:20Z</time>
      </trkpt>
      <trkpt lat="43.30729" lon="3.12639">
        <ele>78</ele>
        <time>2020-06-26T15:24:19Z</time>
      </trkpt>
      <trkpt lat="43.3073" lon="3.12635">
        <ele>77.8</ele>
        <time>2020-06-26T15:24:18Z</time>
      </trkpt>
      <trkpt lat="43.30734" lon="3.12632">
        <ele>77.4</ele>
        <time>2020-06-26T15:21:50Z</time>
      </trkpt>
      <trkpt lat="43.30734" lon="3.12633">
        <ele>77.4</ele>
        <time>2020-06-26T15:21:49Z</time>
      </trkpt>
      <trkpt lat="43.30733" lon="3.12634">
        <ele>77.2</ele>
        <time>2020-06-26T15:21:48Z</time>
      </trkpt>
      <trkpt lat="43.30734" lon="3.12635">
        <ele>77.2</ele>
        <time>2020-06-26T15:21:47Z</time>
      </trkpt>
      <trkpt lat="43.30735" lon="3.12636">
        <ele>77</ele>
        <time>2020-06-26T15:21:46Z</time>
      </trkpt>
      <trkpt lat="43.30735" lon="3.12636">
        <ele>77.4</ele>
        <time>2020-06-26T15:21:45Z</time>
      </trkpt>
      <trkpt lat="43.30734" lon="3.12636">
        <ele>77.2</ele>
        <time>2020-06-26T15:21:44Z</time>
      </trkpt>
      <trkpt lat="43.30734" lon="3.12636">
        <ele>77.4</ele>
        <time>2020-06-26T15:21:43Z</time>
      </trkpt>
      <trkpt lat="43.30735" lon="3.12636">
        <ele>77.4</ele>
        <time>2020-06-26T15:21:42Z</time>
      </trkpt>
      <trkpt lat="43.30734" lon="3.12636">
        <ele>77.4</ele>
        <time>2020-06-26T15:21:41Z</time>
      </trkpt>
      <trkpt lat="43.30734" lon="3.12637">
        <ele>77.2</ele>
        <time>2020-06-26T15:21:40Z</time>
      </trkpt>
      <trkpt lat="43.30735" lon="3.12638">
        <ele>77.2</ele>
        <time>2020-06-26T15:21:39Z</time>
      </trkpt>
      <trkpt lat="43.30734" lon="3.12639">
        <ele>77.2</ele>
        <time>2020-06-26T15:21:38Z</time>
      </trkpt>
      <trkpt lat="43.30734" lon="3.12639">
        <ele>77.2</ele>
        <time>2020-06-26T15:21:37Z</time>
      </trkpt>
      <trkpt lat="43.30733" lon="3.12644">
        <ele>77</ele>
        <time>2020-06-26T15:21:36Z</time>
      </trkpt>
      <trkpt lat="43.30733" lon="3.12644">
        <ele>77</ele>
        <time>2020-06-26T15:21:35Z</time>
      </trkpt>
      <trkpt lat="43.30733" lon="3.12644">
        <ele>77.2</ele>
        <time>2020-06-26T15:21:34Z</time>
      </trkpt>
      <trkpt lat="43.30732" lon="3.12647">
        <ele>77.2</ele>
        <time>2020-06-26T15:21:33Z</time>
      </trkpt>
      <trkpt lat="43.3073" lon="3.1265">
        <ele>77.2</ele>
        <time>2020-06-26T15:21:32Z</time>
      </trkpt>
      <trkpt lat="43.3073" lon="3.1265">
        <ele>77.2</ele>
        <time>2020-06-26T15:21:31Z</time>
      </trkpt>
      <trkpt lat="43.30728" lon="3.12652">
        <ele>77.2</ele>
        <time>2020-06-26T15:21:30Z</time>
      </trkpt>
      <trkpt lat="43.30727" lon="3.12654">
        <ele>77.2</ele>
        <time>2020-06-26T15:21:29Z</time>
      </trkpt>
      <trkpt lat="43.30725" lon="3.12655">
        <ele>77.4</ele>
        <time>2020-06-26T15:21:28Z</time>
      </trkpt>
      <trkpt lat="43.30723" lon="3.12656">
        <ele>77.4</ele>
        <time>2020-06-26T15:21:27Z</time>
      </trkpt>
      <trkpt lat="43.30724" lon="3.12656">
        <ele>77.4</ele>
        <time>2020-06-26T15:21:26Z</time>
      </trkpt>
      <trkpt lat="43.30725" lon="3.12655">
        <ele>77.4</ele>
        <time>2020-06-26T15:21:25Z</time>
      </trkpt>
      <trkpt lat="43.30724" lon="3.12655">
        <ele>77.6</ele>
        <time>2020-06-26T15:21:24Z</time>
      </trkpt>
      <trkpt lat="43.30724" lon="3.12656">
        <ele>77.4</ele>
        <time>2020-06-26T15:21:22Z</time>
      </trkpt>
      <trkpt lat="43.30721" lon="3.12657">
        <ele>77.4</ele>
        <time>2020-06-26T15:21:21Z</time>
      </trkpt>
      <trkpt lat="43.30721" lon="3.12662">
        <ele>77.4</ele>
        <time>2020-06-26T15:21:20Z</time>
      </trkpt>
      <trkpt lat="43.3072" lon="3.12665">
        <ele>77.4</ele>
        <time>2020-06-26T15:21:19Z</time>
      </trkpt>
      <trkpt lat="43.30718" lon="3.1267">
        <ele>77.4</ele>
        <time>2020-06-26T15:21:18Z</time>
      </trkpt>
      <trkpt lat="43.30716" lon="3.12674">
        <ele>77.2</ele>
        <time>2020-06-26T15:21:17Z</time>
      </trkpt>
      <trkpt lat="43.30716" lon="3.12681">
        <ele>77.4</ele>
        <time>2020-06-26T15:21:16Z</time>
      </trkpt>
      <trkpt lat="43.30715" lon="3.12685">
        <ele>77.4</ele>
        <time>2020-06-26T15:21:15Z</time>
      </trkpt>
      <trkpt lat="43.30715" lon="3.12688">
        <ele>77.4</ele>
        <time>2020-06-26T15:21:14Z</time>
      </trkpt>
      <trkpt lat="43.30715" lon="3.12688">
        <ele>77.4</ele>
        <time>2020-06-26T15:21:13Z</time>
      </trkpt>
      <trkpt lat="43.30715" lon="3.12697">
        <ele>77.4</ele>
        <time>2020-06-26T15:21:12Z</time>
      </trkpt>
      <trkpt lat="43.30715" lon="3.12697">
        <ele>77.6</ele>
        <time>2020-06-26T15:21:11Z</time>
      </trkpt>
      <trkpt lat="43.30715" lon="3.12704">
        <ele>77.6</ele>
        <time>2020-06-26T15:21:10Z</time>
      </trkpt>
      <trkpt lat="43.30714" lon="3.12707">
        <ele>77.6</ele>
        <time>2020-06-26T15:21:09Z</time>
      </trkpt>
      <trkpt lat="43.30711" lon="3.12711">
        <ele>77.4</ele>
        <time>2020-06-26T15:21:08Z</time>
      </trkpt>
      <trkpt lat="43.30711" lon="3.12711">
        <ele>77.4</ele>
        <time>2020-06-26T15:21:07Z</time>
      </trkpt>
      <trkpt lat="43.30713" lon="3.12711">
        <ele>77.2</ele>
        <time>2020-06-26T15:21:06Z</time>
      </trkpt>
      <trkpt lat="43.30714" lon="3.12716">
        <ele>77</ele>
        <time>2020-06-26T15:21:05Z</time>
      </trkpt>
      <trkpt lat="43.30716" lon="3.1272">
        <ele>77</ele>
        <time>2020-06-26T15:21:04Z</time>
      </trkpt>
      <trkpt lat="43.30716" lon="3.12722">
        <ele>76.8</ele>
        <time>2020-06-26T15:21:03Z</time>
      </trkpt>
      <trkpt lat="43.30719" lon="3.12727">
        <ele>76.6</ele>
        <time>2020-06-26T15:21:02Z</time>
      </trkpt>
      <trkpt lat="43.3072" lon="3.12729">
        <ele>76.4</ele>
        <time>2020-06-26T15:21:01Z</time>
      </trkpt>
      <trkpt lat="43.30724" lon="3.12733">
        <ele>76.4</ele>
        <time>2020-06-26T15:21:00Z</time>
      </trkpt>
      <trkpt lat="43.30723" lon="3.12736">
        <ele>76.2</ele>
        <time>2020-06-26T15:20:59Z</time>
      </trkpt>
      <trkpt lat="43.30724" lon="3.1274">
        <ele>76</ele>
        <time>2020-06-26T15:20:58Z</time>
      </trkpt>
      <trkpt lat="43.30724" lon="3.12743">
        <ele>76</ele>
        <time>2020-06-26T15:20:57Z</time>
      </trkpt>
      <trkpt lat="43.30725" lon="3.12744">
        <ele>75.8</ele>
        <time>2020-06-26T15:20:56Z</time>
      </trkpt>
      <trkpt lat="43.30726" lon="3.12745">
        <ele>75.6</ele>
        <time>2020-06-26T15:20:55Z</time>
      </trkpt>
      <trkpt lat="43.30726" lon="3.12745">
        <ele>75.6</ele>
        <time>2020-06-26T15:20:54Z</time>
      </trkpt>
      <trkpt lat="43.30728" lon="3.12752">
        <ele>75.6</ele>
        <time>2020-06-26T15:20:53Z</time>
      </trkpt>
      <trkpt lat="43.30728" lon="3.12752">
        <ele>75.4</ele>
        <time>2020-06-26T15:20:52Z</time>
      </trkpt>
      <trkpt lat="43.3073" lon="3.12759">
        <ele>75.2</ele>
        <time>2020-06-26T15:20:51Z</time>
      </trkpt>
      <trkpt lat="43.3073" lon="3.12759">
        <ele>75.2</ele>
        <time>2020-06-26T15:20:50Z</time>
      </trkpt>
      <trkpt lat="43.30732" lon="3.12766">
        <ele>75.2</ele>
        <time>2020-06-26T15:20:49Z</time>
      </trkpt>
      <trkpt lat="43.30732" lon="3.12766">
        <ele>75</ele>
        <time>2020-06-26T15:20:48Z</time>
      </trkpt>
      <trkpt lat="43.30734" lon="3.1277">
        <ele>75</ele>
        <time>2020-06-26T15:20:47Z</time>
      </trkpt>
      <trkpt lat="43.30736" lon="3.12772">
        <ele>75</ele>
        <time>2020-06-26T15:20:46Z</time>
      </trkpt>
      <trkpt lat="43.30736" lon="3.12772">
        <ele>74.8</ele>
        <time>2020-06-26T15:20:45Z</time>
      </trkpt>
      <trkpt lat="43.30736" lon="3.12774">
        <ele>74.8</ele>
        <time>2020-06-26T15:20:44Z</time>
      </trkpt>
      <trkpt lat="43.30739" lon="3.12777">
        <ele>74.6</ele>
        <time>2020-06-26T15:20:43Z</time>
      </trkpt>
      <trkpt lat="43.3074" lon="3.12778">
        <ele>74.4</ele>
        <time>2020-06-26T15:20:42Z</time>
      </trkpt>
      <trkpt lat="43.30743" lon="3.12781">
        <ele>74.2</ele>
        <time>2020-06-26T15:20:41Z</time>
      </trkpt>
      <trkpt lat="43.30743" lon="3.12781">
        <ele>74</ele>
        <time>2020-06-26T15:20:40Z</time>
      </trkpt>
      <trkpt lat="43.30746" lon="3.12785">
        <ele>74</ele>
        <time>2020-06-26T15:20:39Z</time>
      </trkpt>
      <trkpt lat="43.30746" lon="3.12785">
        <ele>74</ele>
        <time>2020-06-26T15:20:38Z</time>
      </trkpt>
      <trkpt lat="43.30747" lon="3.12791">
        <ele>73.8</ele>
        <time>2020-06-26T15:20:37Z</time>
      </trkpt>
      <trkpt lat="43.30751" lon="3.12792">
        <ele>73.6</ele>
        <time>2020-06-26T15:20:36Z</time>
      </trkpt>
      <trkpt lat="43.30755" lon="3.12793">
        <ele>73.4</ele>
        <time>2020-06-26T15:20:35Z</time>
      </trkpt>
      <trkpt lat="43.30758" lon="3.12795">
        <ele>73.4</ele>
        <time>2020-06-26T15:20:34Z</time>
      </trkpt>
      <trkpt lat="43.30759" lon="3.12796">
        <ele>73.2</ele>
        <time>2020-06-26T15:20:33Z</time>
      </trkpt>
      <trkpt lat="43.3076" lon="3.12798">
        <ele>73.2</ele>
        <time>2020-06-26T15:20:32Z</time>
      </trkpt>
      <trkpt lat="43.3076" lon="3.12798">
        <ele>73.2</ele>
        <time>2020-06-26T15:20:31Z</time>
      </trkpt>
      <trkpt lat="43.30762" lon="3.12801">
        <ele>73</ele>
        <time>2020-06-26T15:20:30Z</time>
      </trkpt>
      <trkpt lat="43.30765" lon="3.12805">
        <ele>73</ele>
        <time>2020-06-26T15:20:29Z</time>
      </trkpt>
      <trkpt lat="43.30767" lon="3.12807">
        <ele>72.8</ele>
        <time>2020-06-26T15:20:28Z</time>
      </trkpt>
      <trkpt lat="43.30767" lon="3.12807">
        <ele>72.8</ele>
        <time>2020-06-26T15:20:27Z</time>
      </trkpt>
      <trkpt lat="43.30767" lon="3.12809">
        <ele>72.6</ele>
        <time>2020-06-26T15:20:26Z</time>
      </trkpt>
      <trkpt lat="43.3077" lon="3.12818">
        <ele>72.4</ele>
        <time>2020-06-26T15:20:25Z</time>
      </trkpt>
      <trkpt lat="43.3077" lon="3.12818">
        <ele>72.4</ele>
        <time>2020-06-26T15:20:24Z</time>
      </trkpt>
      <trkpt lat="43.30776" lon="3.12822">
        <ele>72.2</ele>
        <time>2020-06-26T15:20:23Z</time>
      </trkpt>
      <trkpt lat="43.30778" lon="3.12824">
        <ele>72</ele>
        <time>2020-06-26T15:20:22Z</time>
      </trkpt>
      <trkpt lat="43.30776" lon="3.1283">
        <ele>72</ele>
        <time>2020-06-26T15:20:21Z</time>
      </trkpt>
      <trkpt lat="43.30778" lon="3.1283">
        <ele>71.8</ele>
        <time>2020-06-26T15:20:20Z</time>
      </trkpt>
      <trkpt lat="43.30779" lon="3.12831">
        <ele>71.8</ele>
        <time>2020-06-26T15:20:19Z</time>
      </trkpt>
      <trkpt lat="43.30778" lon="3.12835">
        <ele>71.6</ele>
        <time>2020-06-26T15:20:18Z</time>
      </trkpt>
      <trkpt lat="43.30781" lon="3.12837">
        <ele>71.6</ele>
        <time>2020-06-26T15:20:17Z</time>
      </trkpt>
      <trkpt lat="43.30782" lon="3.12839">
        <ele>71.4</ele>
        <time>2020-06-26T15:20:16Z</time>
      </trkpt>
      <trkpt lat="43.30783" lon="3.12839">
        <ele>71.4</ele>
        <time>2020-06-26T15:20:15Z</time>
      </trkpt>
      <trkpt lat="43.30783" lon="3.12845">
        <ele>71.2</ele>
        <time>2020-06-26T15:20:14Z</time>
      </trkpt>
      <trkpt lat="43.30784" lon="3.12847">
        <ele>71.2</ele>
        <time>2020-06-26T15:20:13Z</time>
      </trkpt>
      <trkpt lat="43.30787" lon="3.12849">
        <ele>71</ele>
        <time>2020-06-26T15:20:12Z</time>
      </trkpt>
      <trkpt lat="43.30789" lon="3.12852">
        <ele>71</ele>
        <time>2020-06-26T15:20:11Z</time>
      </trkpt>
      <trkpt lat="43.3079" lon="3.12856">
        <ele>70.8</ele>
        <time>2020-06-26T15:20:10Z</time>
      </trkpt>
      <trkpt lat="43.30793" lon="3.12858">
        <ele>70.6</ele>
        <time>2020-06-26T15:20:09Z</time>
      </trkpt>
      <trkpt lat="43.30793" lon="3.12858">
        <ele>70.6</ele>
        <time>2020-06-26T15:20:08Z</time>
      </trkpt>
      <trkpt lat="43.30797" lon="3.12862">
        <ele>70.4</ele>
        <time>2020-06-26T15:20:07Z</time>
      </trkpt>
      <trkpt lat="43.30799" lon="3.12865">
        <ele>70.2</ele>
        <time>2020-06-26T15:20:06Z</time>
      </trkpt>
      <trkpt lat="43.30799" lon="3.12865">
        <ele>70.2</ele>
        <time>2020-06-26T15:20:05Z</time>
      </trkpt>
      <trkpt lat="43.30801" lon="3.12868">
        <ele>70</ele>
        <time>2020-06-26T15:20:04Z</time>
      </trkpt>
      <trkpt lat="43.30802" lon="3.12874">
        <ele>70</ele>
        <time>2020-06-26T15:20:03Z</time>
      </trkpt>
      <trkpt lat="43.30802" lon="3.12874">
        <ele>69.8</ele>
        <time>2020-06-26T15:20:02Z</time>
      </trkpt>
      <trkpt lat="43.30805" lon="3.12881">
        <ele>69.6</ele>
        <time>2020-06-26T15:20:01Z</time>
      </trkpt>
      <trkpt lat="43.30802" lon="3.12886">
        <ele>69.4</ele>
        <time>2020-06-26T15:20:00Z</time>
      </trkpt>
      <trkpt lat="43.30803" lon="3.1289">
        <ele>69.2</ele>
        <time>2020-06-26T15:19:59Z</time>
      </trkpt>
      <trkpt lat="43.30803" lon="3.1289">
        <ele>69</ele>
        <time>2020-06-26T15:19:58Z</time>
      </trkpt>
      <trkpt lat="43.30803" lon="3.12893">
        <ele>69</ele>
        <time>2020-06-26T15:19:57Z</time>
      </trkpt>
      <trkpt lat="43.30801" lon="3.12899">
        <ele>68.8</ele>
        <time>2020-06-26T15:19:56Z</time>
      </trkpt>
      <trkpt lat="43.30801" lon="3.12899">
        <ele>68.6</ele>
        <time>2020-06-26T15:19:55Z</time>
      </trkpt>
      <trkpt lat="43.30802" lon="3.12905">
        <ele>68.6</ele>
        <time>2020-06-26T15:19:54Z</time>
      </trkpt>
      <trkpt lat="43.30802" lon="3.12905">
        <ele>68.6</ele>
        <time>2020-06-26T15:19:53Z</time>
      </trkpt>
      <trkpt lat="43.30806" lon="3.12914">
        <ele>68.4</ele>
        <time>2020-06-26T15:19:52Z</time>
      </trkpt>
      <trkpt lat="43.30808" lon="3.12918">
        <ele>68.2</ele>
        <time>2020-06-26T15:19:51Z</time>
      </trkpt>
      <trkpt lat="43.30808" lon="3.12922">
        <ele>68</ele>
        <time>2020-06-26T15:19:50Z</time>
      </trkpt>
      <trkpt lat="43.30808" lon="3.12922">
        <ele>67.8</ele>
        <time>2020-06-26T15:19:49Z</time>
      </trkpt>
      <trkpt lat="43.30811" lon="3.12931">
        <ele>67.4</ele>
        <time>2020-06-26T15:19:48Z</time>
      </trkpt>
      <trkpt lat="43.30811" lon="3.12936">
        <ele>67.4</ele>
        <time>2020-06-26T15:19:47Z</time>
      </trkpt>
      <trkpt lat="43.30811" lon="3.1294">
        <ele>67.4</ele>
        <time>2020-06-26T15:19:46Z</time>
      </trkpt>
      <trkpt lat="43.30811" lon="3.1294">
        <ele>67.2</ele>
        <time>2020-06-26T15:19:45Z</time>
      </trkpt>
      <trkpt lat="43.30814" lon="3.12944">
        <ele>67.2</ele>
        <time>2020-06-26T15:19:44Z</time>
      </trkpt>
      <trkpt lat="43.30817" lon="3.12951">
        <ele>67</ele>
        <time>2020-06-26T15:19:43Z</time>
      </trkpt>
      <trkpt lat="43.30817" lon="3.12951">
        <ele>67</ele>
        <time>2020-06-26T15:19:42Z</time>
      </trkpt>
      <trkpt lat="43.3082" lon="3.1296">
        <ele>66.8</ele>
        <time>2020-06-26T15:19:41Z</time>
      </trkpt>
      <trkpt lat="43.30821" lon="3.12966">
        <ele>66.8</ele>
        <time>2020-06-26T15:19:40Z</time>
      </trkpt>
      <trkpt lat="43.30821" lon="3.12966">
        <ele>66.6</ele>
        <time>2020-06-26T15:19:39Z</time>
      </trkpt>
      <trkpt lat="43.30821" lon="3.12971">
        <ele>66.4</ele>
        <time>2020-06-26T15:19:38Z</time>
      </trkpt>
      <trkpt lat="43.30823" lon="3.12978">
        <ele>66.4</ele>
        <time>2020-06-26T15:19:37Z</time>
      </trkpt>
      <trkpt lat="43.30824" lon="3.12983">
        <ele>66.2</ele>
        <time>2020-06-26T15:19:36Z</time>
      </trkpt>
      <trkpt lat="43.30827" lon="3.12987">
        <ele>66.2</ele>
        <time>2020-06-26T15:19:35Z</time>
      </trkpt>
      <trkpt lat="43.30829" lon="3.12992">
        <ele>66</ele>
        <time>2020-06-26T15:19:34Z</time>
      </trkpt>
      <trkpt lat="43.30829" lon="3.12992">
        <ele>66</ele>
        <time>2020-06-26T15:19:33Z</time>
      </trkpt>
      <trkpt lat="43.30831" lon="3.12996">
        <ele>65.6</ele>
        <time>2020-06-26T15:19:32Z</time>
      </trkpt>
      <trkpt lat="43.30832" lon="3.13004">
        <ele>65.6</ele>
        <time>2020-06-26T15:19:31Z</time>
      </trkpt>
      <trkpt lat="43.30835" lon="3.13007">
        <ele>65.4</ele>
        <time>2020-06-26T15:19:30Z</time>
      </trkpt>
      <trkpt lat="43.30835" lon="3.13011">
        <ele>65.4</ele>
        <time>2020-06-26T15:19:29Z</time>
      </trkpt>
      <trkpt lat="43.30837" lon="3.13015">
        <ele>65</ele>
        <time>2020-06-26T15:19:28Z</time>
      </trkpt>
      <trkpt lat="43.30838" lon="3.1302">
        <ele>65.2</ele>
        <time>2020-06-26T15:19:27Z</time>
      </trkpt>
      <trkpt lat="43.30839" lon="3.13023">
        <ele>65</ele>
        <time>2020-06-26T15:19:26Z</time>
      </trkpt>
      <trkpt lat="43.30841" lon="3.13027">
        <ele>64.8</ele>
        <time>2020-06-26T15:19:25Z</time>
      </trkpt>
      <trkpt lat="43.30841" lon="3.1303">
        <ele>64.6</ele>
        <time>2020-06-26T15:19:24Z</time>
      </trkpt>
      <trkpt lat="43.30842" lon="3.13032">
        <ele>64.6</ele>
        <time>2020-06-26T15:19:23Z</time>
      </trkpt>
      <trkpt lat="43.30844" lon="3.13036">
        <ele>64.4</ele>
        <time>2020-06-26T15:19:22Z</time>
      </trkpt>
      <trkpt lat="43.30845" lon="3.13041">
        <ele>64.4</ele>
        <time>2020-06-26T15:19:21Z</time>
      </trkpt>
      <trkpt lat="43.30848" lon="3.13045">
        <ele>64.2</ele>
        <time>2020-06-26T15:19:20Z</time>
      </trkpt>
      <trkpt lat="43.30852" lon="3.1305">
        <ele>64</ele>
        <time>2020-06-26T15:19:19Z</time>
      </trkpt>
      <trkpt lat="43.30854" lon="3.13056">
        <ele>64</ele>
        <time>2020-06-26T15:19:18Z</time>
      </trkpt>
      <trkpt lat="43.30857" lon="3.13062">
        <ele>63.8</ele>
        <time>2020-06-26T15:19:17Z</time>
      </trkpt>
      <trkpt lat="43.30858" lon="3.13068">
        <ele>63.8</ele>
        <time>2020-06-26T15:19:16Z</time>
      </trkpt>
      <trkpt lat="43.3086" lon="3.13073">
        <ele>63.8</ele>
        <time>2020-06-26T15:19:15Z</time>
      </trkpt>
      <trkpt lat="43.3086" lon="3.13073">
        <ele>63.6</ele>
        <time>2020-06-26T15:19:14Z</time>
      </trkpt>
      <trkpt lat="43.30864" lon="3.13084">
        <ele>63.6</ele>
        <time>2020-06-26T15:19:13Z</time>
      </trkpt>
      <trkpt lat="43.30866" lon="3.13087">
        <ele>63.4</ele>
        <time>2020-06-26T15:19:12Z</time>
      </trkpt>
      <trkpt lat="43.30869" lon="3.1309">
        <ele>63.4</ele>
        <time>2020-06-26T15:19:11Z</time>
      </trkpt>
      <trkpt lat="43.30872" lon="3.13093">
        <ele>63.6</ele>
        <time>2020-06-26T15:19:10Z</time>
      </trkpt>
      <trkpt lat="43.30874" lon="3.13099">
        <ele>63.4</ele>
        <time>2020-06-26T15:19:09Z</time>
      </trkpt>
      <trkpt lat="43.30875" lon="3.13101">
        <ele>63</ele>
        <time>2020-06-26T15:19:08Z</time>
      </trkpt>
      <trkpt lat="43.30876" lon="3.13105">
        <ele>62.8</ele>
        <time>2020-06-26T15:19:07Z</time>
      </trkpt>
      <trkpt lat="43.30876" lon="3.13105">
        <ele>62.8</ele>
        <time>2020-06-26T15:19:06Z</time>
      </trkpt>
      <trkpt lat="43.30881" lon="3.13113">
        <ele>62.8</ele>
        <time>2020-06-26T15:19:05Z</time>
      </trkpt>
      <trkpt lat="43.30882" lon="3.13116">
        <ele>62.6</ele>
        <time>2020-06-26T15:19:04Z</time>
      </trkpt>
      <trkpt lat="43.30886" lon="3.13121">
        <ele>62.6</ele>
        <time>2020-06-26T15:19:03Z</time>
      </trkpt>
      <trkpt lat="43.30887" lon="3.13124">
        <ele>62.6</ele>
        <time>2020-06-26T15:19:02Z</time>
      </trkpt>
      <trkpt lat="43.30889" lon="3.13127">
        <ele>62.6</ele>
        <time>2020-06-26T15:19:01Z</time>
      </trkpt>
      <trkpt lat="43.30893" lon="3.1313">
        <ele>62.6</ele>
        <time>2020-06-26T15:19:00Z</time>
      </trkpt>
      <trkpt lat="43.30897" lon="3.13132">
        <ele>62.4</ele>
        <time>2020-06-26T15:18:59Z</time>
      </trkpt>
      <trkpt lat="43.30902" lon="3.13132">
        <ele>62.4</ele>
        <time>2020-06-26T15:18:58Z</time>
      </trkpt>
      <trkpt lat="43.30908" lon="3.13136">
        <ele>62.4</ele>
        <time>2020-06-26T15:18:57Z</time>
      </trkpt>
      <trkpt lat="43.30913" lon="3.13139">
        <ele>62.4</ele>
        <time>2020-06-26T15:18:56Z</time>
      </trkpt>
      <trkpt lat="43.30917" lon="3.13141">
        <ele>62.4</ele>
        <time>2020-06-26T15:18:55Z</time>
      </trkpt>
      <trkpt lat="43.30921" lon="3.13144">
        <ele>62.4</ele>
        <time>2020-06-26T15:18:54Z</time>
      </trkpt>
      <trkpt lat="43.30926" lon="3.13148">
        <ele>62.2</ele>
        <time>2020-06-26T15:18:53Z</time>
      </trkpt>
      <trkpt lat="43.30928" lon="3.13151">
        <ele>62.2</ele>
        <time>2020-06-26T15:18:52Z</time>
      </trkpt>
      <trkpt lat="43.30931" lon="3.13153">
        <ele>62.4</ele>
        <time>2020-06-26T15:18:51Z</time>
      </trkpt>
      <trkpt lat="43.30935" lon="3.13157">
        <ele>62.2</ele>
        <time>2020-06-26T15:18:50Z</time>
      </trkpt>
      <trkpt lat="43.30938" lon="3.13161">
        <ele>62</ele>
        <time>2020-06-26T15:18:49Z</time>
      </trkpt>
      <trkpt lat="43.3094" lon="3.13165">
        <ele>61.8</ele>
        <time>2020-06-26T15:18:48Z</time>
      </trkpt>
      <trkpt lat="43.3094" lon="3.13169">
        <ele>61.8</ele>
        <time>2020-06-26T15:18:47Z</time>
      </trkpt>
      <trkpt lat="43.30942" lon="3.13173">
        <ele>61.8</ele>
        <time>2020-06-26T15:18:46Z</time>
      </trkpt>
      <trkpt lat="43.30945" lon="3.13177">
        <ele>61.8</ele>
        <time>2020-06-26T15:18:45Z</time>
      </trkpt>
      <trkpt lat="43.30947" lon="3.13181">
        <ele>62</ele>
        <time>2020-06-26T15:18:44Z</time>
      </trkpt>
      <trkpt lat="43.30952" lon="3.13185">
        <ele>62</ele>
        <time>2020-06-26T15:18:43Z</time>
      </trkpt>
      <trkpt lat="43.30955" lon="3.13191">
        <ele>62</ele>
        <time>2020-06-26T15:18:42Z</time>
      </trkpt>
      <trkpt lat="43.3096" lon="3.1319">
        <ele>62.2</ele>
        <time>2020-06-26T15:18:41Z</time>
      </trkpt>
      <trkpt lat="43.30962" lon="3.13193">
        <ele>62.2</ele>
        <time>2020-06-26T15:18:40Z</time>
      </trkpt>
      <trkpt lat="43.30965" lon="3.13196">
        <ele>62.2</ele>
        <time>2020-06-26T15:18:39Z</time>
      </trkpt>
      <trkpt lat="43.30968" lon="3.13196">
        <ele>62.2</ele>
        <time>2020-06-26T15:18:38Z</time>
      </trkpt>
      <trkpt lat="43.30974" lon="3.13198">
        <ele>62</ele>
        <time>2020-06-26T15:18:37Z</time>
      </trkpt>
      <trkpt lat="43.30978" lon="3.132">
        <ele>62</ele>
        <time>2020-06-26T15:18:36Z</time>
      </trkpt>
      <trkpt lat="43.30983" lon="3.13202">
        <ele>62</ele>
        <time>2020-06-26T15:18:35Z</time>
      </trkpt>
      <trkpt lat="43.30986" lon="3.13205">
        <ele>62</ele>
        <time>2020-06-26T15:18:34Z</time>
      </trkpt>
      <trkpt lat="43.30989" lon="3.13206">
        <ele>62</ele>
        <time>2020-06-26T15:18:33Z</time>
      </trkpt>
      <trkpt lat="43.30993" lon="3.13208">
        <ele>62</ele>
        <time>2020-06-26T15:18:32Z</time>
      </trkpt>
      <trkpt lat="43.30998" lon="3.13213">
        <ele>62</ele>
        <time>2020-06-26T15:18:31Z</time>
      </trkpt>
      <trkpt lat="43.31003" lon="3.13216">
        <ele>61.8</ele>
        <time>2020-06-26T15:18:30Z</time>
      </trkpt>
      <trkpt lat="43.31006" lon="3.13218">
        <ele>61.8</ele>
        <time>2020-06-26T15:18:29Z</time>
      </trkpt>
      <trkpt lat="43.3101" lon="3.13221">
        <ele>62</ele>
        <time>2020-06-26T15:18:28Z</time>
      </trkpt>
      <trkpt lat="43.31016" lon="3.13224">
        <ele>62</ele>
        <time>2020-06-26T15:18:27Z</time>
      </trkpt>
      <trkpt lat="43.3102" lon="3.13229">
        <ele>61.8</ele>
        <time>2020-06-26T15:18:26Z</time>
      </trkpt>
      <trkpt lat="43.31024" lon="3.13233">
        <ele>62</ele>
        <time>2020-06-26T15:18:25Z</time>
      </trkpt>
      <trkpt lat="43.3103" lon="3.13238">
        <ele>62</ele>
        <time>2020-06-26T15:18:24Z</time>
      </trkpt>
      <trkpt lat="43.31035" lon="3.13243">
        <ele>62</ele>
        <time>2020-06-26T15:18:23Z</time>
      </trkpt>
      <trkpt lat="43.31041" lon="3.13248">
        <ele>62</ele>
        <time>2020-06-26T15:18:22Z</time>
      </trkpt>
      <trkpt lat="43.31045" lon="3.13251">
        <ele>62</ele>
        <time>2020-06-26T15:18:21Z</time>
      </trkpt>
      <trkpt lat="43.31048" lon="3.13254">
        <ele>62</ele>
        <time>2020-06-26T15:18:20Z</time>
      </trkpt>
      <trkpt lat="43.31052" lon="3.13258">
        <ele>62</ele>
        <time>2020-06-26T15:18:19Z</time>
      </trkpt>
      <trkpt lat="43.31056" lon="3.13261">
        <ele>62</ele>
        <time>2020-06-26T15:18:18Z</time>
      </trkpt>
      <trkpt lat="43.3106" lon="3.13265">
        <ele>62</ele>
        <time>2020-06-26T15:18:17Z</time>
      </trkpt>
      <trkpt lat="43.31063" lon="3.13269">
        <ele>62</ele>
        <time>2020-06-26T15:18:16Z</time>
      </trkpt>
      <trkpt lat="43.31068" lon="3.13274">
        <ele>61.8</ele>
        <time>2020-06-26T15:18:15Z</time>
      </trkpt>
      <trkpt lat="43.31071" lon="3.13277">
        <ele>61.8</ele>
        <time>2020-06-26T15:18:14Z</time>
      </trkpt>
      <trkpt lat="43.31074" lon="3.13282">
        <ele>61.8</ele>
        <time>2020-06-26T15:18:13Z</time>
      </trkpt>
      <trkpt lat="43.31078" lon="3.13286">
        <ele>61.8</ele>
        <time>2020-06-26T15:18:12Z</time>
      </trkpt>
      <trkpt lat="43.31081" lon="3.1329">
        <ele>61.8</ele>
        <time>2020-06-26T15:18:11Z</time>
      </trkpt>
      <trkpt lat="43.31084" lon="3.13296">
        <ele>61.8</ele>
        <time>2020-06-26T15:18:10Z</time>
      </trkpt>
      <trkpt lat="43.31088" lon="3.13302">
        <ele>61.8</ele>
        <time>2020-06-26T15:18:09Z</time>
      </trkpt>
      <trkpt lat="43.31092" lon="3.13307">
        <ele>61.8</ele>
        <time>2020-06-26T15:18:08Z</time>
      </trkpt>
      <trkpt lat="43.31097" lon="3.13313">
        <ele>61.8</ele>
        <time>2020-06-26T15:18:07Z</time>
      </trkpt>
      <trkpt lat="43.311" lon="3.1332">
        <ele>61.8</ele>
        <time>2020-06-26T15:18:06Z</time>
      </trkpt>
      <trkpt lat="43.31103" lon="3.13326">
        <ele>61.6</ele>
        <time>2020-06-26T15:18:05Z</time>
      </trkpt>
      <trkpt lat="43.31108" lon="3.1333">
        <ele>61.6</ele>
        <time>2020-06-26T15:18:04Z</time>
      </trkpt>
      <trkpt lat="43.31111" lon="3.13334">
        <ele>61.6</ele>
        <time>2020-06-26T15:18:03Z</time>
      </trkpt>
      <trkpt lat="43.31116" lon="3.1334">
        <ele>61.6</ele>
        <time>2020-06-26T15:18:02Z</time>
      </trkpt>
      <trkpt lat="43.31119" lon="3.13346">
        <ele>61.8</ele>
        <time>2020-06-26T15:18:01Z</time>
      </trkpt>
      <trkpt lat="43.3112" lon="3.13351">
        <ele>61.8</ele>
        <time>2020-06-26T15:18:00Z</time>
      </trkpt>
      <trkpt lat="43.31124" lon="3.13356">
        <ele>61.6</ele>
        <time>2020-06-26T15:17:59Z</time>
      </trkpt>
      <trkpt lat="43.31125" lon="3.13363">
        <ele>61.6</ele>
        <time>2020-06-26T15:17:58Z</time>
      </trkpt>
      <trkpt lat="43.31129" lon="3.13369">
        <ele>61.6</ele>
        <time>2020-06-26T15:17:57Z</time>
      </trkpt>
      <trkpt lat="43.31132" lon="3.13373">
        <ele>61.6</ele>
        <time>2020-06-26T15:17:56Z</time>
      </trkpt>
      <trkpt lat="43.31137" lon="3.1338">
        <ele>61.8</ele>
        <time>2020-06-26T15:17:55Z</time>
      </trkpt>
      <trkpt lat="43.31142" lon="3.13387">
        <ele>61.8</ele>
        <time>2020-06-26T15:17:54Z</time>
      </trkpt>
      <trkpt lat="43.31146" lon="3.13394">
        <ele>61.8</ele>
        <time>2020-06-26T15:17:53Z</time>
      </trkpt>
      <trkpt lat="43.31149" lon="3.134">
        <ele>61.8</ele>
        <time>2020-06-26T15:17:52Z</time>
      </trkpt>
      <trkpt lat="43.31153" lon="3.13406">
        <ele>62</ele>
        <time>2020-06-26T15:17:51Z</time>
      </trkpt>
      <trkpt lat="43.31155" lon="3.13413">
        <ele>62.2</ele>
        <time>2020-06-26T15:17:50Z</time>
      </trkpt>
      <trkpt lat="43.31157" lon="3.13419">
        <ele>62</ele>
        <time>2020-06-26T15:17:49Z</time>
      </trkpt>
      <trkpt lat="43.31159" lon="3.13424">
        <ele>61.8</ele>
        <time>2020-06-26T15:17:48Z</time>
      </trkpt>
      <trkpt lat="43.31164" lon="3.13431">
        <ele>61.6</ele>
        <time>2020-06-26T15:17:47Z</time>
      </trkpt>
      <trkpt lat="43.31165" lon="3.13437">
        <ele>61.6</ele>
        <time>2020-06-26T15:17:46Z</time>
      </trkpt>
      <trkpt lat="43.31167" lon="3.13442">
        <ele>61.8</ele>
        <time>2020-06-26T15:17:45Z</time>
      </trkpt>
      <trkpt lat="43.3117" lon="3.1345">
        <ele>61.8</ele>
        <time>2020-06-26T15:17:44Z</time>
      </trkpt>
      <trkpt lat="43.31172" lon="3.13455">
        <ele>61.8</ele>
        <time>2020-06-26T15:17:43Z</time>
      </trkpt>
      <trkpt lat="43.31176" lon="3.13461">
        <ele>61.8</ele>
        <time>2020-06-26T15:17:42Z</time>
      </trkpt>
      <trkpt lat="43.31179" lon="3.13467">
        <ele>62</ele>
        <time>2020-06-26T15:17:41Z</time>
      </trkpt>
      <trkpt lat="43.31183" lon="3.13472">
        <ele>62</ele>
        <time>2020-06-26T15:17:40Z</time>
      </trkpt>
      <trkpt lat="43.31185" lon="3.13479">
        <ele>61.8</ele>
        <time>2020-06-26T15:17:39Z</time>
      </trkpt>
      <trkpt lat="43.31189" lon="3.13485">
        <ele>61.8</ele>
        <time>2020-06-26T15:17:38Z</time>
      </trkpt>
      <trkpt lat="43.31192" lon="3.13491">
        <ele>61.8</ele>
        <time>2020-06-26T15:17:37Z</time>
      </trkpt>
      <trkpt lat="43.31196" lon="3.13496">
        <ele>62</ele>
        <time>2020-06-26T15:17:36Z</time>
      </trkpt>
      <trkpt lat="43.312" lon="3.13504">
        <ele>62</ele>
        <time>2020-06-26T15:17:35Z</time>
      </trkpt>
      <trkpt lat="43.31204" lon="3.13508">
        <ele>62.2</ele>
        <time>2020-06-26T15:17:34Z</time>
      </trkpt>
      <trkpt lat="43.31208" lon="3.13514">
        <ele>62</ele>
        <time>2020-06-26T15:17:33Z</time>
      </trkpt>
      <trkpt lat="43.31213" lon="3.13521">
        <ele>62</ele>
        <time>2020-06-26T15:17:32Z</time>
      </trkpt>
      <trkpt lat="43.31216" lon="3.13524">
        <ele>62</ele>
        <time>2020-06-26T15:17:31Z</time>
      </trkpt>
      <trkpt lat="43.3122" lon="3.13529">
        <ele>62</ele>
        <time>2020-06-26T15:17:30Z</time>
      </trkpt>
      <trkpt lat="43.31223" lon="3.13535">
        <ele>62</ele>
        <time>2020-06-26T15:17:29Z</time>
      </trkpt>
      <trkpt lat="43.31226" lon="3.13541">
        <ele>62.2</ele>
        <time>2020-06-26T15:17:28Z</time>
      </trkpt>
      <trkpt lat="43.31232" lon="3.13547">
        <ele>62</ele>
        <time>2020-06-26T15:17:27Z</time>
      </trkpt>
      <trkpt lat="43.31236" lon="3.13553">
        <ele>62.2</ele>
        <time>2020-06-26T15:17:26Z</time>
      </trkpt>
      <trkpt lat="43.31239" lon="3.13556">
        <ele>62.2</ele>
        <time>2020-06-26T15:17:25Z</time>
      </trkpt>
      <trkpt lat="43.31245" lon="3.13561">
        <ele>62.4</ele>
        <time>2020-06-26T15:17:24Z</time>
      </trkpt>
      <trkpt lat="43.31248" lon="3.13566">
        <ele>62.6</ele>
        <time>2020-06-26T15:17:23Z</time>
      </trkpt>
      <trkpt lat="43.3125" lon="3.13571">
        <ele>62.4</ele>
        <time>2020-06-26T15:17:22Z</time>
      </trkpt>
      <trkpt lat="43.31253" lon="3.13573">
        <ele>62.6</ele>
        <time>2020-06-26T15:17:21Z</time>
      </trkpt>
      <trkpt lat="43.31259" lon="3.13579">
        <ele>62.4</ele>
        <time>2020-06-26T15:17:20Z</time>
      </trkpt>
      <trkpt lat="43.31263" lon="3.13584">
        <ele>62.2</ele>
        <time>2020-06-26T15:17:19Z</time>
      </trkpt>
      <trkpt lat="43.31264" lon="3.13587">
        <ele>62.2</ele>
        <time>2020-06-26T15:17:18Z</time>
      </trkpt>
      <trkpt lat="43.31266" lon="3.13592">
        <ele>62.2</ele>
        <time>2020-06-26T15:17:17Z</time>
      </trkpt>
      <trkpt lat="43.31268" lon="3.13597">
        <ele>62</ele>
        <time>2020-06-26T15:17:16Z</time>
      </trkpt>
      <trkpt lat="43.3127" lon="3.13603">
        <ele>62</ele>
        <time>2020-06-26T15:17:15Z</time>
      </trkpt>
      <trkpt lat="43.31273" lon="3.13607">
        <ele>62.2</ele>
        <time>2020-06-26T15:17:14Z</time>
      </trkpt>
      <trkpt lat="43.31277" lon="3.1361">
        <ele>62.2</ele>
        <time>2020-06-26T15:17:13Z</time>
      </trkpt>
      <trkpt lat="43.3128" lon="3.13615">
        <ele>62.2</ele>
        <time>2020-06-26T15:17:12Z</time>
      </trkpt>
      <trkpt lat="43.31284" lon="3.1362">
        <ele>62.4</ele>
        <time>2020-06-26T15:17:11Z</time>
      </trkpt>
      <trkpt lat="43.31287" lon="3.13623">
        <ele>62.4</ele>
        <time>2020-06-26T15:17:10Z</time>
      </trkpt>
      <trkpt lat="43.3129" lon="3.13627">
        <ele>62.4</ele>
        <time>2020-06-26T15:17:09Z</time>
      </trkpt>
      <trkpt lat="43.31293" lon="3.13634">
        <ele>62.6</ele>
        <time>2020-06-26T15:17:08Z</time>
      </trkpt>
      <trkpt lat="43.31294" lon="3.1364">
        <ele>62.6</ele>
        <time>2020-06-26T15:17:07Z</time>
      </trkpt>
      <trkpt lat="43.31297" lon="3.13645">
        <ele>62.6</ele>
        <time>2020-06-26T15:17:06Z</time>
      </trkpt>
      <trkpt lat="43.313" lon="3.13651">
        <ele>62.6</ele>
        <time>2020-06-26T15:17:05Z</time>
      </trkpt>
      <trkpt lat="43.31303" lon="3.13655">
        <ele>62.6</ele>
        <time>2020-06-26T15:17:04Z</time>
      </trkpt>
      <trkpt lat="43.31305" lon="3.13663">
        <ele>62.6</ele>
        <time>2020-06-26T15:17:03Z</time>
      </trkpt>
      <trkpt lat="43.31309" lon="3.13668">
        <ele>62.6</ele>
        <time>2020-06-26T15:17:02Z</time>
      </trkpt>
      <trkpt lat="43.31312" lon="3.13674">
        <ele>62.6</ele>
        <time>2020-06-26T15:17:01Z</time>
      </trkpt>
      <trkpt lat="43.31316" lon="3.13681">
        <ele>62.6</ele>
        <time>2020-06-26T15:17:00Z</time>
      </trkpt>
      <trkpt lat="43.3132" lon="3.13685">
        <ele>62.8</ele>
        <time>2020-06-26T15:16:59Z</time>
      </trkpt>
      <trkpt lat="43.31321" lon="3.1369">
        <ele>62.8</ele>
        <time>2020-06-26T15:16:58Z</time>
      </trkpt>
      <trkpt lat="43.31327" lon="3.13697">
        <ele>62.8</ele>
        <time>2020-06-26T15:16:57Z</time>
      </trkpt>
      <trkpt lat="43.3133" lon="3.13702">
        <ele>62.8</ele>
        <time>2020-06-26T15:16:56Z</time>
      </trkpt>
      <trkpt lat="43.31334" lon="3.13708">
        <ele>62.6</ele>
        <time>2020-06-26T15:16:55Z</time>
      </trkpt>
      <trkpt lat="43.31338" lon="3.13716">
        <ele>62.8</ele>
        <time>2020-06-26T15:16:54Z</time>
      </trkpt>
      <trkpt lat="43.31342" lon="3.13721">
        <ele>62.8</ele>
        <time>2020-06-26T15:16:53Z</time>
      </trkpt>
      <trkpt lat="43.31344" lon="3.13726">
        <ele>63</ele>
        <time>2020-06-26T15:16:52Z</time>
      </trkpt>
      <trkpt lat="43.31349" lon="3.13729">
        <ele>63</ele>
        <time>2020-06-26T15:16:51Z</time>
      </trkpt>
      <trkpt lat="43.31354" lon="3.13733">
        <ele>63</ele>
        <time>2020-06-26T15:16:50Z</time>
      </trkpt>
      <trkpt lat="43.31359" lon="3.13739">
        <ele>63</ele>
        <time>2020-06-26T15:16:49Z</time>
      </trkpt>
      <trkpt lat="43.31363" lon="3.13744">
        <ele>63.2</ele>
        <time>2020-06-26T15:16:48Z</time>
      </trkpt>
      <trkpt lat="43.31367" lon="3.13751">
        <ele>63.4</ele>
        <time>2020-06-26T15:16:47Z</time>
      </trkpt>
      <trkpt lat="43.31373" lon="3.13756">
        <ele>63.4</ele>
        <time>2020-06-26T15:16:46Z</time>
      </trkpt>
      <trkpt lat="43.31377" lon="3.13759">
        <ele>63.6</ele>
        <time>2020-06-26T15:16:45Z</time>
      </trkpt>
      <trkpt lat="43.31381" lon="3.13765">
        <ele>63.6</ele>
        <time>2020-06-26T15:16:44Z</time>
      </trkpt>
      <trkpt lat="43.31384" lon="3.13767">
        <ele>63.6</ele>
        <time>2020-06-26T15:16:43Z</time>
      </trkpt>
      <trkpt lat="43.31385" lon="3.1377">
        <ele>63.8</ele>
        <time>2020-06-26T15:16:42Z</time>
      </trkpt>
      <trkpt lat="43.31389" lon="3.13773">
        <ele>63.8</ele>
        <time>2020-06-26T15:16:41Z</time>
      </trkpt>
      <trkpt lat="43.31393" lon="3.13775">
        <ele>63.8</ele>
        <time>2020-06-26T15:16:40Z</time>
      </trkpt>
      <trkpt lat="43.31396" lon="3.13778">
        <ele>63.8</ele>
        <time>2020-06-26T15:16:39Z</time>
      </trkpt>
      <trkpt lat="43.31399" lon="3.13782">
        <ele>63.8</ele>
        <time>2020-06-26T15:16:38Z</time>
      </trkpt>
      <trkpt lat="43.31402" lon="3.13785">
        <ele>63.8</ele>
        <time>2020-06-26T15:16:37Z</time>
      </trkpt>
      <trkpt lat="43.31406" lon="3.13789">
        <ele>64</ele>
        <time>2020-06-26T15:16:36Z</time>
      </trkpt>
      <trkpt lat="43.3141" lon="3.13789">
        <ele>64.2</ele>
        <time>2020-06-26T15:16:35Z</time>
      </trkpt>
      <trkpt lat="43.31412" lon="3.13791">
        <ele>64.2</ele>
        <time>2020-06-26T15:16:34Z</time>
      </trkpt>
      <trkpt lat="43.31417" lon="3.13793">
        <ele>64.4</ele>
        <time>2020-06-26T15:16:33Z</time>
      </trkpt>
      <trkpt lat="43.31421" lon="3.13798">
        <ele>64.4</ele>
        <time>2020-06-26T15:16:32Z</time>
      </trkpt>
      <trkpt lat="43.31425" lon="3.13801">
        <ele>64.4</ele>
        <time>2020-06-26T15:16:31Z</time>
      </trkpt>
      <trkpt lat="43.31428" lon="3.13806">
        <ele>64.4</ele>
        <time>2020-06-26T15:16:30Z</time>
      </trkpt>
      <trkpt lat="43.31432" lon="3.13807">
        <ele>64.4</ele>
        <time>2020-06-26T15:16:29Z</time>
      </trkpt>
      <trkpt lat="43.31434" lon="3.1381">
        <ele>64.4</ele>
        <time>2020-06-26T15:16:28Z</time>
      </trkpt>
      <trkpt lat="43.31436" lon="3.13812">
        <ele>64.4</ele>
        <time>2020-06-26T15:16:27Z</time>
      </trkpt>
      <trkpt lat="43.31439" lon="3.13815">
        <ele>64.6</ele>
        <time>2020-06-26T15:16:26Z</time>
      </trkpt>
      <trkpt lat="43.31442" lon="3.13819">
        <ele>64.8</ele>
        <time>2020-06-26T15:16:25Z</time>
      </trkpt>
      <trkpt lat="43.31443" lon="3.13821">
        <ele>65</ele>
        <time>2020-06-26T15:16:24Z</time>
      </trkpt>
      <trkpt lat="43.31446" lon="3.13826">
        <ele>65.2</ele>
        <time>2020-06-26T15:16:23Z</time>
      </trkpt>
      <trkpt lat="43.31448" lon="3.13826">
        <ele>65.2</ele>
        <time>2020-06-26T15:16:22Z</time>
      </trkpt>
      <trkpt lat="43.3145" lon="3.13824">
        <ele>65.4</ele>
        <time>2020-06-26T15:16:21Z</time>
      </trkpt>
      <trkpt lat="43.31451" lon="3.13824">
        <ele>65.4</ele>
        <time>2020-06-26T15:16:20Z</time>
      </trkpt>
      <trkpt lat="43.31451" lon="3.13821">
        <ele>65.4</ele>
        <time>2020-06-26T15:16:19Z</time>
      </trkpt>
      <trkpt lat="43.31452" lon="3.13821">
        <ele>65.6</ele>
        <time>2020-06-26T15:16:18Z</time>
      </trkpt>
      <trkpt lat="43.31453" lon="3.13823">
        <ele>65</ele>
        <time>2020-06-26T15:16:12Z</time>
      </trkpt>
      <trkpt lat="43.31452" lon="3.13823">
        <ele>65</ele>
        <time>2020-06-26T15:16:11Z</time>
      </trkpt>
      <trkpt lat="43.31453" lon="3.13823">
        <ele>65.2</ele>
        <time>2020-06-26T15:16:10Z</time>
      </trkpt>
      <trkpt lat="43.31453" lon="3.13823">
        <ele>65.2</ele>
        <time>2020-06-26T15:16:09Z</time>
      </trkpt>
      <trkpt lat="43.31453" lon="3.13823">
        <ele>65</ele>
        <time>2020-06-26T15:16:08Z</time>
      </trkpt>
      <trkpt lat="43.31453" lon="3.13823">
        <ele>65.2</ele>
        <time>2020-06-26T15:16:07Z</time>
      </trkpt>
      <trkpt lat="43.31452" lon="3.13822">
        <ele>65.2</ele>
        <time>2020-06-26T15:16:06Z</time>
      </trkpt>
      <trkpt lat="43.31452" lon="3.13822">
        <ele>65</ele>
        <time>2020-06-26T15:16:05Z</time>
      </trkpt>
      <trkpt lat="43.3145" lon="3.13821">
        <ele>65</ele>
        <time>2020-06-26T15:16:04Z</time>
      </trkpt>
      <trkpt lat="43.3145" lon="3.13819">
        <ele>65</ele>
        <time>2020-06-26T15:16:03Z</time>
      </trkpt>
      <trkpt lat="43.3145" lon="3.13815">
        <ele>65</ele>
        <time>2020-06-26T15:16:02Z</time>
      </trkpt>
      <trkpt lat="43.3145" lon="3.1381">
        <ele>65.2</ele>
        <time>2020-06-26T15:16:01Z</time>
      </trkpt>
      <trkpt lat="43.31451" lon="3.1381">
        <ele>65.2</ele>
        <time>2020-06-26T15:16:00Z</time>
      </trkpt>
      <trkpt lat="43.31452" lon="3.1381">
        <ele>65.2</ele>
        <time>2020-06-26T15:15:59Z</time>
      </trkpt>
      <trkpt lat="43.31458" lon="3.13812">
        <ele>65.2</ele>
        <time>2020-06-26T15:15:41Z</time>
      </trkpt>
      <trkpt lat="43.31456" lon="3.1381">
        <ele>65.2</ele>
        <time>2020-06-26T15:15:40Z</time>
      </trkpt>
      <trkpt lat="43.31456" lon="3.13811">
        <ele>65.2</ele>
        <time>2020-06-26T15:15:39Z</time>
      </trkpt>
      <trkpt lat="43.31456" lon="3.13811">
        <ele>65.2</ele>
        <time>2020-06-26T15:15:38Z</time>
      </trkpt>
      <trkpt lat="43.31456" lon="3.13812">
        <ele>65.2</ele>
        <time>2020-06-26T15:15:37Z</time>
      </trkpt>
      <trkpt lat="43.31457" lon="3.13814">
        <ele>65.2</ele>
        <time>2020-06-26T15:15:36Z</time>
      </trkpt>
      <trkpt lat="43.31457" lon="3.13814">
        <ele>65.2</ele>
        <time>2020-06-26T15:15:35Z</time>
      </trkpt>
      <trkpt lat="43.31457" lon="3.13814">
        <ele>65.2</ele>
        <time>2020-06-26T15:15:34Z</time>
      </trkpt>
      <trkpt lat="43.31456" lon="3.13816">
        <ele>65.2</ele>
        <time>2020-06-26T15:15:33Z</time>
      </trkpt>
      <trkpt lat="43.31456" lon="3.13818">
        <ele>65.2</ele>
        <time>2020-06-26T15:15:32Z</time>
      </trkpt>
      <trkpt lat="43.31454" lon="3.13818">
        <ele>65.2</ele>
        <time>2020-06-26T15:15:31Z</time>
      </trkpt>
      <trkpt lat="43.31454" lon="3.13818">
        <ele>65</ele>
        <time>2020-06-26T15:15:30Z</time>
      </trkpt>
      <trkpt lat="43.31451" lon="3.13822">
        <ele>65</ele>
        <time>2020-06-26T15:15:29Z</time>
      </trkpt>
      <trkpt lat="43.31451" lon="3.13824">
        <ele>65</ele>
        <time>2020-06-26T15:15:28Z</time>
      </trkpt>
      <trkpt lat="43.3145" lon="3.13827">
        <ele>65</ele>
        <time>2020-06-26T15:15:27Z</time>
      </trkpt>
      <trkpt lat="43.31449" lon="3.13831">
        <ele>65</ele>
        <time>2020-06-26T15:15:26Z</time>
      </trkpt>
      <trkpt lat="43.31452" lon="3.13833">
        <ele>65</ele>
        <time>2020-06-26T15:15:25Z</time>
      </trkpt>
      <trkpt lat="43.31455" lon="3.13837">
        <ele>65</ele>
        <time>2020-06-26T15:15:24Z</time>
      </trkpt>
      <trkpt lat="43.31454" lon="3.13839">
        <ele>65</ele>
        <time>2020-06-26T15:15:23Z</time>
      </trkpt>
      <trkpt lat="43.31452" lon="3.13842">
        <ele>65</ele>
        <time>2020-06-26T15:15:22Z</time>
      </trkpt>
      <trkpt lat="43.31449" lon="3.13847">
        <ele>65</ele>
        <time>2020-06-26T15:15:21Z</time>
      </trkpt>
      <trkpt lat="43.3145" lon="3.13851">
        <ele>65</ele>
        <time>2020-06-26T15:15:20Z</time>
      </trkpt>
      <trkpt lat="43.31448" lon="3.13855">
        <ele>65.2</ele>
        <time>2020-06-26T15:15:19Z</time>
      </trkpt>
      <trkpt lat="43.31447" lon="3.1386">
        <ele>65.2</ele>
        <time>2020-06-26T15:15:18Z</time>
      </trkpt>
      <trkpt lat="43.31446" lon="3.13864">
        <ele>65.2</ele>
        <time>2020-06-26T15:15:17Z</time>
      </trkpt>
      <trkpt lat="43.31444" lon="3.13868">
        <ele>65.4</ele>
        <time>2020-06-26T15:15:16Z</time>
      </trkpt>
      <trkpt lat="43.31441" lon="3.13872">
        <ele>65.4</ele>
        <time>2020-06-26T15:15:15Z</time>
      </trkpt>
      <trkpt lat="43.31442" lon="3.13879">
        <ele>65.4</ele>
        <time>2020-06-26T15:15:14Z</time>
      </trkpt>
      <trkpt lat="43.31438" lon="3.13882">
        <ele>65.6</ele>
        <time>2020-06-26T15:15:13Z</time>
      </trkpt>
      <trkpt lat="43.31438" lon="3.13888">
        <ele>65.6</ele>
        <time>2020-06-26T15:15:12Z</time>
      </trkpt>
      <trkpt lat="43.31435" lon="3.13893">
        <ele>65.6</ele>
        <time>2020-06-26T15:15:11Z</time>
      </trkpt>
      <trkpt lat="43.31431" lon="3.139">
        <ele>65.8</ele>
        <time>2020-06-26T15:15:09Z</time>
      </trkpt>
      <trkpt lat="43.31427" lon="3.13902">
        <ele>65.8</ele>
        <time>2020-06-26T15:15:08Z</time>
      </trkpt>
      <trkpt lat="43.3143" lon="3.13909">
        <ele>65.8</ele>
        <time>2020-06-26T15:15:07Z</time>
      </trkpt>
      <trkpt lat="43.31427" lon="3.13911">
        <ele>65.8</ele>
        <time>2020-06-26T15:15:06Z</time>
      </trkpt>
      <trkpt lat="43.31425" lon="3.13918">
        <ele>66</ele>
        <time>2020-06-26T15:15:05Z</time>
      </trkpt>
      <trkpt lat="43.31423" lon="3.13922">
        <ele>65.8</ele>
        <time>2020-06-26T15:15:04Z</time>
      </trkpt>
      <trkpt lat="43.31422" lon="3.13925">
        <ele>66</ele>
        <time>2020-06-26T15:15:03Z</time>
      </trkpt>
      <trkpt lat="43.3142" lon="3.13928">
        <ele>66</ele>
        <time>2020-06-26T15:15:02Z</time>
      </trkpt>
      <trkpt lat="43.3142" lon="3.1393">
        <ele>66</ele>
        <time>2020-06-26T15:15:01Z</time>
      </trkpt>
      <trkpt lat="43.31419" lon="3.13932">
        <ele>66</ele>
        <time>2020-06-26T15:15:00Z</time>
      </trkpt>
      <trkpt lat="43.31416" lon="3.13932">
        <ele>66</ele>
        <time>2020-06-26T15:14:59Z</time>
      </trkpt>
      <trkpt lat="43.31415" lon="3.13937">
        <ele>66.2</ele>
        <time>2020-06-26T15:14:58Z</time>
      </trkpt>
      <trkpt lat="43.31415" lon="3.1394">
        <ele>66.2</ele>
        <time>2020-06-26T15:14:57Z</time>
      </trkpt>
      <trkpt lat="43.31414" lon="3.13943">
        <ele>66.2</ele>
        <time>2020-06-26T15:14:56Z</time>
      </trkpt>
      <trkpt lat="43.31413" lon="3.13945">
        <ele>66.2</ele>
        <time>2020-06-26T15:14:55Z</time>
      </trkpt>
      <trkpt lat="43.31412" lon="3.13946">
        <ele>66.4</ele>
        <time>2020-06-26T15:14:54Z</time>
      </trkpt>
      <trkpt lat="43.31409" lon="3.13951">
        <ele>66.2</ele>
        <time>2020-06-26T15:14:53Z</time>
      </trkpt>
      <trkpt lat="43.31409" lon="3.13952">
        <ele>66.4</ele>
        <time>2020-06-26T15:14:52Z</time>
      </trkpt>
      <trkpt lat="43.31404" lon="3.13956">
        <ele>66.4</ele>
        <time>2020-06-26T15:14:51Z</time>
      </trkpt>
      <trkpt lat="43.31407" lon="3.13955">
        <ele>66.6</ele>
        <time>2020-06-26T15:14:50Z</time>
      </trkpt>
      <trkpt lat="43.31404" lon="3.1396">
        <ele>66.6</ele>
        <time>2020-06-26T15:14:49Z</time>
      </trkpt>
      <trkpt lat="43.31404" lon="3.1396">
        <ele>66.6</ele>
        <time>2020-06-26T15:14:48Z</time>
      </trkpt>
      <trkpt lat="43.31406" lon="3.13964">
        <ele>66.8</ele>
        <time>2020-06-26T15:14:47Z</time>
      </trkpt>
      <trkpt lat="43.31405" lon="3.13965">
        <ele>66.4</ele>
        <time>2020-06-26T15:14:46Z</time>
      </trkpt>
      <trkpt lat="43.31406" lon="3.13966">
        <ele>66.4</ele>
        <time>2020-06-26T15:14:45Z</time>
      </trkpt>
      <trkpt lat="43.31406" lon="3.13967">
        <ele>66.6</ele>
        <time>2020-06-26T15:14:44Z</time>
      </trkpt>
      <trkpt lat="43.31407" lon="3.1397">
        <ele>66.6</ele>
        <time>2020-06-26T15:14:43Z</time>
      </trkpt>
      <trkpt lat="43.31406" lon="3.13974">
        <ele>66.6</ele>
        <time>2020-06-26T15:14:42Z</time>
      </trkpt>
      <trkpt lat="43.31406" lon="3.13975">
        <ele>66.6</ele>
        <time>2020-06-26T15:14:41Z</time>
      </trkpt>
      <trkpt lat="43.31409" lon="3.13977">
        <ele>66.6</ele>
        <time>2020-06-26T15:14:40Z</time>
      </trkpt>
      <trkpt lat="43.31411" lon="3.1398">
        <ele>66.4</ele>
        <time>2020-06-26T15:14:39Z</time>
      </trkpt>
      <trkpt lat="43.31411" lon="3.13984">
        <ele>66.6</ele>
        <time>2020-06-26T15:14:38Z</time>
      </trkpt>
      <trkpt lat="43.31412" lon="3.13991">
        <ele>66.6</ele>
        <time>2020-06-26T15:14:37Z</time>
      </trkpt>
      <trkpt lat="43.31414" lon="3.13993">
        <ele>66.6</ele>
        <time>2020-06-26T15:14:36Z</time>
      </trkpt>
      <trkpt lat="43.31414" lon="3.13996">
        <ele>66.4</ele>
        <time>2020-06-26T15:14:35Z</time>
      </trkpt>
      <trkpt lat="43.31412" lon="3.13998">
        <ele>66.6</ele>
        <time>2020-06-26T15:14:34Z</time>
      </trkpt>
      <trkpt lat="43.31411" lon="3.14003">
        <ele>66.4</ele>
        <time>2020-06-26T15:14:33Z</time>
      </trkpt>
      <trkpt lat="43.31408" lon="3.14007">
        <ele>66.4</ele>
        <time>2020-06-26T15:14:32Z</time>
      </trkpt>
      <trkpt lat="43.31408" lon="3.14011">
        <ele>66.2</ele>
        <time>2020-06-26T15:14:31Z</time>
      </trkpt>
      <trkpt lat="43.31408" lon="3.14014">
        <ele>66</ele>
        <time>2020-06-26T15:14:30Z</time>
      </trkpt>
      <trkpt lat="43.31409" lon="3.14016">
        <ele>66</ele>
        <time>2020-06-26T15:14:29Z</time>
      </trkpt>
      <trkpt lat="43.31409" lon="3.14018">
        <ele>65.8</ele>
        <time>2020-06-26T15:14:28Z</time>
      </trkpt>
      <trkpt lat="43.31409" lon="3.14019">
        <ele>65.6</ele>
        <time>2020-06-26T15:14:27Z</time>
      </trkpt>
      <trkpt lat="43.31409" lon="3.14022">
        <ele>65.8</ele>
        <time>2020-06-26T15:14:26Z</time>
      </trkpt>
      <trkpt lat="43.31409" lon="3.14025">
        <ele>65.8</ele>
        <time>2020-06-26T15:14:25Z</time>
      </trkpt>
      <trkpt lat="43.3141" lon="3.14027">
        <ele>65.8</ele>
        <time>2020-06-26T15:14:24Z</time>
      </trkpt>
      <trkpt lat="43.31411" lon="3.14031">
        <ele>65.6</ele>
        <time>2020-06-26T15:14:23Z</time>
      </trkpt>
      <trkpt lat="43.3141" lon="3.14034">
        <ele>65.4</ele>
        <time>2020-06-26T15:14:22Z</time>
      </trkpt>
      <trkpt lat="43.3141" lon="3.14038">
        <ele>65.2</ele>
        <time>2020-06-26T15:14:21Z</time>
      </trkpt>
      <trkpt lat="43.31409" lon="3.14041">
        <ele>65</ele>
        <time>2020-06-26T15:14:20Z</time>
      </trkpt>
      <trkpt lat="43.31411" lon="3.14046">
        <ele>65</ele>
        <time>2020-06-26T15:14:19Z</time>
      </trkpt>
      <trkpt lat="43.31411" lon="3.1405">
        <ele>65</ele>
        <time>2020-06-26T15:14:18Z</time>
      </trkpt>
      <trkpt lat="43.3141" lon="3.14054">
        <ele>65</ele>
        <time>2020-06-26T15:14:17Z</time>
      </trkpt>
      <trkpt lat="43.31407" lon="3.14057">
        <ele>65</ele>
        <time>2020-06-26T15:14:16Z</time>
      </trkpt>
      <trkpt lat="43.31405" lon="3.14061">
        <ele>65</ele>
        <time>2020-06-26T15:14:15Z</time>
      </trkpt>
      <trkpt lat="43.31406" lon="3.14068">
        <ele>65</ele>
        <time>2020-06-26T15:14:14Z</time>
      </trkpt>
      <trkpt lat="43.31403" lon="3.14072">
        <ele>64.8</ele>
        <time>2020-06-26T15:14:13Z</time>
      </trkpt>
      <trkpt lat="43.31402" lon="3.14076">
        <ele>64.6</ele>
        <time>2020-06-26T15:14:12Z</time>
      </trkpt>
      <trkpt lat="43.31402" lon="3.1408">
        <ele>64.4</ele>
        <time>2020-06-26T15:14:11Z</time>
      </trkpt>
      <trkpt lat="43.31399" lon="3.14086">
        <ele>64.2</ele>
        <time>2020-06-26T15:14:10Z</time>
      </trkpt>
      <trkpt lat="43.31395" lon="3.14089">
        <ele>64.2</ele>
        <time>2020-06-26T15:14:09Z</time>
      </trkpt>
      <trkpt lat="43.31392" lon="3.14095">
        <ele>64.2</ele>
        <time>2020-06-26T15:14:08Z</time>
      </trkpt>
      <trkpt lat="43.31389" lon="3.14098">
        <ele>64</ele>
        <time>2020-06-26T15:14:07Z</time>
      </trkpt>
      <trkpt lat="43.31387" lon="3.14101">
        <ele>64</ele>
        <time>2020-06-26T15:14:06Z</time>
      </trkpt>
      <trkpt lat="43.31386" lon="3.14107">
        <ele>63.8</ele>
        <time>2020-06-26T15:14:05Z</time>
      </trkpt>
      <trkpt lat="43.31384" lon="3.14112">
        <ele>63.8</ele>
        <time>2020-06-26T15:14:04Z</time>
      </trkpt>
      <trkpt lat="43.31379" lon="3.14114">
        <ele>63.6</ele>
        <time>2020-06-26T15:14:03Z</time>
      </trkpt>
      <trkpt lat="43.3138" lon="3.14122">
        <ele>63.6</ele>
        <time>2020-06-26T15:14:02Z</time>
      </trkpt>
      <trkpt lat="43.31376" lon="3.14126">
        <ele>63.4</ele>
        <time>2020-06-26T15:14:01Z</time>
      </trkpt>
      <trkpt lat="43.31374" lon="3.1413">
        <ele>63.4</ele>
        <time>2020-06-26T15:14:00Z</time>
      </trkpt>
      <trkpt lat="43.31369" lon="3.14135">
        <ele>63.4</ele>
        <time>2020-06-26T15:13:59Z</time>
      </trkpt>
      <trkpt lat="43.31367" lon="3.14139">
        <ele>63.2</ele>
        <time>2020-06-26T15:13:58Z</time>
      </trkpt>
      <trkpt lat="43.31366" lon="3.14144">
        <ele>63.2</ele>
        <time>2020-06-26T15:13:57Z</time>
      </trkpt>
      <trkpt lat="43.31364" lon="3.1415">
        <ele>63</ele>
        <time>2020-06-26T15:13:56Z</time>
      </trkpt>
      <trkpt lat="43.31365" lon="3.14157">
        <ele>63</ele>
        <time>2020-06-26T15:13:55Z</time>
      </trkpt>
      <trkpt lat="43.31363" lon="3.14164">
        <ele>63</ele>
        <time>2020-06-26T15:13:54Z</time>
      </trkpt>
      <trkpt lat="43.31361" lon="3.14171">
        <ele>63</ele>
        <time>2020-06-26T15:13:53Z</time>
      </trkpt>
      <trkpt lat="43.31358" lon="3.14174">
        <ele>63</ele>
        <time>2020-06-26T15:13:52Z</time>
      </trkpt>
      <trkpt lat="43.31356" lon="3.1418">
        <ele>62.8</ele>
        <time>2020-06-26T15:13:51Z</time>
      </trkpt>
      <trkpt lat="43.31357" lon="3.14186">
        <ele>62.8</ele>
        <time>2020-06-26T15:13:50Z</time>
      </trkpt>
      <trkpt lat="43.31357" lon="3.14193">
        <ele>62.8</ele>
        <time>2020-06-26T15:13:49Z</time>
      </trkpt>
      <trkpt lat="43.31356" lon="3.14198">
        <ele>62.8</ele>
        <time>2020-06-26T15:13:48Z</time>
      </trkpt>
      <trkpt lat="43.31354" lon="3.14203">
        <ele>62.4</ele>
        <time>2020-06-26T15:13:47Z</time>
      </trkpt>
      <trkpt lat="43.31351" lon="3.14205">
        <ele>62.6</ele>
        <time>2020-06-26T15:13:46Z</time>
      </trkpt>
      <trkpt lat="43.31348" lon="3.14209">
        <ele>62.6</ele>
        <time>2020-06-26T15:13:45Z</time>
      </trkpt>
      <trkpt lat="43.31345" lon="3.14212">
        <ele>62.8</ele>
        <time>2020-06-26T15:13:44Z</time>
      </trkpt>
      <trkpt lat="43.31346" lon="3.14217">
        <ele>62.8</ele>
        <time>2020-06-26T15:13:43Z</time>
      </trkpt>
      <trkpt lat="43.31345" lon="3.14221">
        <ele>62.8</ele>
        <time>2020-06-26T15:13:42Z</time>
      </trkpt>
      <trkpt lat="43.31345" lon="3.14225">
        <ele>62.6</ele>
        <time>2020-06-26T15:13:41Z</time>
      </trkpt>
      <trkpt lat="43.31343" lon="3.1423">
        <ele>62.8</ele>
        <time>2020-06-26T15:13:40Z</time>
      </trkpt>
      <trkpt lat="43.31343" lon="3.14235">
        <ele>62.8</ele>
        <time>2020-06-26T15:13:39Z</time>
      </trkpt>
      <trkpt lat="43.31342" lon="3.14239">
        <ele>63</ele>
        <time>2020-06-26T15:13:38Z</time>
      </trkpt>
      <trkpt lat="43.3134" lon="3.14242">
        <ele>62.8</ele>
        <time>2020-06-26T15:13:37Z</time>
      </trkpt>
      <trkpt lat="43.3134" lon="3.14245">
        <ele>63</ele>
        <time>2020-06-26T15:13:36Z</time>
      </trkpt>
      <trkpt lat="43.31339" lon="3.14249">
        <ele>63</ele>
        <time>2020-06-26T15:13:35Z</time>
      </trkpt>
      <trkpt lat="43.31339" lon="3.14256">
        <ele>63</ele>
        <time>2020-06-26T15:13:33Z</time>
      </trkpt>
      <trkpt lat="43.3134" lon="3.14259">
        <ele>63</ele>
        <time>2020-06-26T15:13:32Z</time>
      </trkpt>
      <trkpt lat="43.31341" lon="3.14263">
        <ele>62.8</ele>
        <time>2020-06-26T15:13:31Z</time>
      </trkpt>
      <trkpt lat="43.31341" lon="3.14265">
        <ele>62.8</ele>
        <time>2020-06-26T15:13:29Z</time>
      </trkpt>
      <trkpt lat="43.31343" lon="3.14266">
        <ele>62.8</ele>
        <time>2020-06-26T15:13:28Z</time>
      </trkpt>
      <trkpt lat="43.31342" lon="3.14271">
        <ele>62.8</ele>
        <time>2020-06-26T15:13:27Z</time>
      </trkpt>
      <trkpt lat="43.31342" lon="3.14274">
        <ele>62.6</ele>
        <time>2020-06-26T15:13:26Z</time>
      </trkpt>
      <trkpt lat="43.31344" lon="3.14275">
        <ele>62.6</ele>
        <time>2020-06-26T15:13:25Z</time>
      </trkpt>
      <trkpt lat="43.31346" lon="3.14273">
        <ele>62.6</ele>
        <time>2020-06-26T15:13:23Z</time>
      </trkpt>
      <trkpt lat="43.31345" lon="3.14269">
        <ele>62.6</ele>
        <time>2020-06-26T15:13:22Z</time>
      </trkpt>
      <trkpt lat="43.31346" lon="3.14261">
        <ele>62.6</ele>
        <time>2020-06-26T15:13:21Z</time>
      </trkpt>
      <trkpt lat="43.31346" lon="3.14256">
        <ele>62.6</ele>
        <time>2020-06-26T15:13:20Z</time>
      </trkpt>
      <trkpt lat="43.31346" lon="3.14254">
        <ele>62.6</ele>
        <time>2020-06-26T15:13:19Z</time>
      </trkpt>
      <trkpt lat="43.31347" lon="3.14253">
        <ele>62.6</ele>
        <time>2020-06-26T15:13:18Z</time>
      </trkpt>
      <trkpt lat="43.31347" lon="3.1425">
        <ele>62.6</ele>
        <time>2020-06-26T15:13:17Z</time>
      </trkpt>
      <trkpt lat="43.31348" lon="3.14246">
        <ele>62.6</ele>
        <time>2020-06-26T15:13:15Z</time>
      </trkpt>
      <trkpt lat="43.31349" lon="3.14245">
        <ele>62.6</ele>
        <time>2020-06-26T15:13:14Z</time>
      </trkpt>
      <trkpt lat="43.31349" lon="3.14245">
        <ele>62.6</ele>
        <time>2020-06-26T15:13:13Z</time>
      </trkpt>
      <trkpt lat="43.31352" lon="3.1424">
        <ele>62.6</ele>
        <time>2020-06-26T15:13:12Z</time>
      </trkpt>
      <trkpt lat="43.31353" lon="3.14241">
        <ele>62.4</ele>
        <time>2020-06-26T15:13:11Z</time>
      </trkpt>
      <trkpt lat="43.31355" lon="3.14244">
        <ele>62.4</ele>
        <time>2020-06-26T15:13:10Z</time>
      </trkpt>
      <trkpt lat="43.31355" lon="3.14244">
        <ele>62.4</ele>
        <time>2020-06-26T15:13:09Z</time>
      </trkpt>
      <trkpt lat="43.31354" lon="3.14244">
        <ele>62.2</ele>
        <time>2020-06-26T15:13:08Z</time>
      </trkpt>
      <trkpt lat="43.31355" lon="3.14245">
        <ele>62.2</ele>
        <time>2020-06-26T15:13:06Z</time>
      </trkpt>
      <trkpt lat="43.31356" lon="3.14247">
        <ele>62.2</ele>
        <time>2020-06-26T15:13:05Z</time>
      </trkpt>
      <trkpt lat="43.31353" lon="3.14251">
        <ele>62.2</ele>
        <time>2020-06-26T15:13:04Z</time>
      </trkpt>
      <trkpt lat="43.3135" lon="3.14256">
        <ele>62.2</ele>
        <time>2020-06-26T15:13:03Z</time>
      </trkpt>
      <trkpt lat="43.31347" lon="3.14259">
        <ele>62.2</ele>
        <time>2020-06-26T15:13:01Z</time>
      </trkpt>
      <trkpt lat="43.31358" lon="3.14259">
        <ele>62.2</ele>
        <time>2020-06-26T15:12:15Z</time>
      </trkpt>
      <trkpt lat="43.31358" lon="3.1426">
        <ele>62.2</ele>
        <time>2020-06-26T15:12:14Z</time>
      </trkpt>
      <trkpt lat="43.31356" lon="3.1426">
        <ele>62.2</ele>
        <time>2020-06-26T15:12:13Z</time>
      </trkpt>
      <trkpt lat="43.31356" lon="3.14259">
        <ele>62.4</ele>
        <time>2020-06-26T15:12:12Z</time>
      </trkpt>
      <trkpt lat="43.31354" lon="3.14259">
        <ele>62.4</ele>
        <time>2020-06-26T15:12:11Z</time>
      </trkpt>
      <trkpt lat="43.31354" lon="3.14259">
        <ele>62.4</ele>
        <time>2020-06-26T15:12:10Z</time>
      </trkpt>
      <trkpt lat="43.31354" lon="3.14259">
        <ele>62.4</ele>
        <time>2020-06-26T15:12:09Z</time>
      </trkpt>
      <trkpt lat="43.31354" lon="3.14259">
        <ele>62.4</ele>
        <time>2020-06-26T15:12:08Z</time>
      </trkpt>
      <trkpt lat="43.31354" lon="3.14261">
        <ele>62.4</ele>
        <time>2020-06-26T15:12:07Z</time>
      </trkpt>
      <trkpt lat="43.31355" lon="3.1426">
        <ele>62.4</ele>
        <time>2020-06-26T15:12:06Z</time>
      </trkpt>
      <trkpt lat="43.31355" lon="3.14259">
        <ele>62.4</ele>
        <time>2020-06-26T15:12:05Z</time>
      </trkpt>
      <trkpt lat="43.31354" lon="3.14259">
        <ele>62.4</ele>
        <time>2020-06-26T15:12:04Z</time>
      </trkpt>
      <trkpt lat="43.31352" lon="3.14261">
        <ele>62.4</ele>
        <time>2020-06-26T15:12:03Z</time>
      </trkpt>
      <trkpt lat="43.31352" lon="3.14263">
        <ele>62.6</ele>
        <time>2020-06-26T15:12:02Z</time>
      </trkpt>
      <trkpt lat="43.31353" lon="3.14265">
        <ele>62.4</ele>
        <time>2020-06-26T15:12:01Z</time>
      </trkpt>
      <trkpt lat="43.3135" lon="3.14267">
        <ele>62.6</ele>
        <time>2020-06-26T15:12:00Z</time>
      </trkpt>
      <trkpt lat="43.31349" lon="3.14268">
        <ele>62.6</ele>
        <time>2020-06-26T15:11:59Z</time>
      </trkpt>
      <trkpt lat="43.31343" lon="3.14269">
        <ele>62.6</ele>
        <time>2020-06-26T15:11:58Z</time>
      </trkpt>
      <trkpt lat="43.31341" lon="3.14268">
        <ele>62.8</ele>
        <time>2020-06-26T15:11:56Z</time>
      </trkpt>
      <trkpt lat="43.3134" lon="3.14266">
        <ele>62.8</ele>
        <time>2020-06-26T15:11:55Z</time>
      </trkpt>
      <trkpt lat="43.31338" lon="3.14262">
        <ele>63.2</ele>
        <time>2020-06-26T15:11:54Z</time>
      </trkpt>
      <trkpt lat="43.31334" lon="3.14263">
        <ele>63.2</ele>
        <time>2020-06-26T15:11:53Z</time>
      </trkpt>
      <trkpt lat="43.3136" lon="3.14345">
        <ele>37.4</ele>
      </trkpt>
      <trkpt lat="43.31391" lon="3.1442">
        <ele>38</ele>
      </trkpt>
      <trkpt lat="43.31408" lon="3.14488">
        <ele>38</ele>
      </trkpt>
      <trkpt lat="43.31414" lon="3.14498">
        <ele>61.6</ele>
        <time>2020-06-26T15:10:20Z</time>
      </trkpt>
      <trkpt lat="43.31417" lon="3.14504">
        <ele>61.4</ele>
        <time>2020-06-26T15:10:19Z</time>
      </trkpt>
      <trkpt lat="43.3142" lon="3.14507">
        <ele>61.4</ele>
        <time>2020-06-26T15:10:18Z</time>
      </trkpt>
      <trkpt lat="43.31422" lon="3.14515">
        <ele>61.4</ele>
        <time>2020-06-26T15:10:17Z</time>
      </trkpt>
      <trkpt lat="43.31424" lon="3.14521">
        <ele>61.6</ele>
        <time>2020-06-26T15:10:16Z</time>
      </trkpt>
      <trkpt lat="43.31427" lon="3.14526">
        <ele>61.6</ele>
        <time>2020-06-26T15:10:15Z</time>
      </trkpt>
      <trkpt lat="43.31428" lon="3.14532">
        <ele>61.6</ele>
        <time>2020-06-26T15:10:14Z</time>
      </trkpt>
      <trkpt lat="43.3143" lon="3.14538">
        <ele>61.4</ele>
        <time>2020-06-26T15:10:13Z</time>
      </trkpt>
      <trkpt lat="43.31431" lon="3.14544">
        <ele>61.4</ele>
        <time>2020-06-26T15:10:12Z</time>
      </trkpt>
      <trkpt lat="43.31433" lon="3.14551">
        <ele>61.2</ele>
        <time>2020-06-26T15:10:11Z</time>
      </trkpt>
      <trkpt lat="43.31435" lon="3.14558">
        <ele>61.2</ele>
        <time>2020-06-26T15:10:10Z</time>
      </trkpt>
      <trkpt lat="43.31437" lon="3.14565">
        <ele>61.2</ele>
        <time>2020-06-26T15:10:09Z</time>
      </trkpt>
      <trkpt lat="43.31438" lon="3.14573">
        <ele>61.2</ele>
        <time>2020-06-26T15:10:08Z</time>
      </trkpt>
      <trkpt lat="43.31441" lon="3.1458">
        <ele>61.2</ele>
        <time>2020-06-26T15:10:07Z</time>
      </trkpt>
      <trkpt lat="43.31442" lon="3.14586">
        <ele>61.2</ele>
        <time>2020-06-26T15:10:06Z</time>
      </trkpt>
      <trkpt lat="43.31443" lon="3.14592">
        <ele>61.2</ele>
        <time>2020-06-26T15:10:05Z</time>
      </trkpt>
      <trkpt lat="43.31444" lon="3.14598">
        <ele>61.2</ele>
        <time>2020-06-26T15:10:04Z</time>
      </trkpt>
      <trkpt lat="43.31448" lon="3.14603">
        <ele>61.2</ele>
        <time>2020-06-26T15:10:03Z</time>
      </trkpt>
      <trkpt lat="43.3145" lon="3.14611">
        <ele>61.2</ele>
        <time>2020-06-26T15:10:02Z</time>
      </trkpt>
      <trkpt lat="43.31452" lon="3.14618">
        <ele>61.2</ele>
        <time>2020-06-26T15:10:01Z</time>
      </trkpt>
      <trkpt lat="43.31454" lon="3.14625">
        <ele>61.2</ele>
        <time>2020-06-26T15:10:00Z</time>
      </trkpt>
      <trkpt lat="43.31457" lon="3.14633">
        <ele>61.2</ele>
        <time>2020-06-26T15:09:59Z</time>
      </trkpt>
      <trkpt lat="43.31463" lon="3.14638">
        <ele>61.4</ele>
        <time>2020-06-26T15:09:58Z</time>
      </trkpt>
      <trkpt lat="43.31466" lon="3.14645">
        <ele>61.4</ele>
        <time>2020-06-26T15:09:57Z</time>
      </trkpt>
      <trkpt lat="43.31469" lon="3.14653">
        <ele>61.4</ele>
        <time>2020-06-26T15:09:56Z</time>
      </trkpt>
      <trkpt lat="43.31471" lon="3.1466">
        <ele>61.4</ele>
        <time>2020-06-26T15:09:55Z</time>
      </trkpt>
      <trkpt lat="43.31474" lon="3.14666">
        <ele>61.4</ele>
        <time>2020-06-26T15:09:54Z</time>
      </trkpt>
      <trkpt lat="43.31477" lon="3.14673">
        <ele>61.4</ele>
        <time>2020-06-26T15:09:53Z</time>
      </trkpt>
      <trkpt lat="43.3148" lon="3.14679">
        <ele>61.4</ele>
        <time>2020-06-26T15:09:52Z</time>
      </trkpt>
      <trkpt lat="43.31485" lon="3.14685">
        <ele>61.4</ele>
        <time>2020-06-26T15:09:51Z</time>
      </trkpt>
      <trkpt lat="43.31486" lon="3.14692">
        <ele>61.4</ele>
        <time>2020-06-26T15:09:50Z</time>
      </trkpt>
      <trkpt lat="43.31488" lon="3.147">
        <ele>61.4</ele>
        <time>2020-06-26T15:09:49Z</time>
      </trkpt>
      <trkpt lat="43.3149" lon="3.14706">
        <ele>61.6</ele>
        <time>2020-06-26T15:09:48Z</time>
      </trkpt>
      <trkpt lat="43.31491" lon="3.14713">
        <ele>61.6</ele>
        <time>2020-06-26T15:09:47Z</time>
      </trkpt>
      <trkpt lat="43.31494" lon="3.1472">
        <ele>61.8</ele>
        <time>2020-06-26T15:09:46Z</time>
      </trkpt>
      <trkpt lat="43.31497" lon="3.14726">
        <ele>61.6</ele>
        <time>2020-06-26T15:09:45Z</time>
      </trkpt>
      <trkpt lat="43.31499" lon="3.14732">
        <ele>61.6</ele>
        <time>2020-06-26T15:09:44Z</time>
      </trkpt>
      <trkpt lat="43.31502" lon="3.14738">
        <ele>61.8</ele>
        <time>2020-06-26T15:09:43Z</time>
      </trkpt>
      <trkpt lat="43.31505" lon="3.14743">
        <ele>61.8</ele>
        <time>2020-06-26T15:09:42Z</time>
      </trkpt>
      <trkpt lat="43.31507" lon="3.14749">
        <ele>61.6</ele>
        <time>2020-06-26T15:09:41Z</time>
      </trkpt>
      <trkpt lat="43.31508" lon="3.14756">
        <ele>61.4</ele>
        <time>2020-06-26T15:09:40Z</time>
      </trkpt>
      <trkpt lat="43.31511" lon="3.14763">
        <ele>61.2</ele>
        <time>2020-06-26T15:09:39Z</time>
      </trkpt>
      <trkpt lat="43.31512" lon="3.14768">
        <ele>61.4</ele>
        <time>2020-06-26T15:09:38Z</time>
      </trkpt>
      <trkpt lat="43.31514" lon="3.14774">
        <ele>61.4</ele>
        <time>2020-06-26T15:09:37Z</time>
      </trkpt>
      <trkpt lat="43.31515" lon="3.14781">
        <ele>61.2</ele>
        <time>2020-06-26T15:09:36Z</time>
      </trkpt>
      <trkpt lat="43.31517" lon="3.14787">
        <ele>61.2</ele>
        <time>2020-06-26T15:09:35Z</time>
      </trkpt>
      <trkpt lat="43.31518" lon="3.14794">
        <ele>61.2</ele>
        <time>2020-06-26T15:09:34Z</time>
      </trkpt>
      <trkpt lat="43.31519" lon="3.148">
        <ele>61</ele>
        <time>2020-06-26T15:09:33Z</time>
      </trkpt>
      <trkpt lat="43.31521" lon="3.14805">
        <ele>61.2</ele>
        <time>2020-06-26T15:09:32Z</time>
      </trkpt>
      <trkpt lat="43.31523" lon="3.1481">
        <ele>61.2</ele>
        <time>2020-06-26T15:09:31Z</time>
      </trkpt>
      <trkpt lat="43.31527" lon="3.14814">
        <ele>61.2</ele>
        <time>2020-06-26T15:09:30Z</time>
      </trkpt>
      <trkpt lat="43.31529" lon="3.1482">
        <ele>61.2</ele>
        <time>2020-06-26T15:09:29Z</time>
      </trkpt>
      <trkpt lat="43.31534" lon="3.14824">
        <ele>61.2</ele>
        <time>2020-06-26T15:09:28Z</time>
      </trkpt>
      <trkpt lat="43.31538" lon="3.1483">
        <ele>60.8</ele>
        <time>2020-06-26T15:09:27Z</time>
      </trkpt>
      <trkpt lat="43.3154" lon="3.14836">
        <ele>60.8</ele>
        <time>2020-06-26T15:09:26Z</time>
      </trkpt>
      <trkpt lat="43.31544" lon="3.1484">
        <ele>60.8</ele>
        <time>2020-06-26T15:09:25Z</time>
      </trkpt>
      <trkpt lat="43.31548" lon="3.14846">
        <ele>60.8</ele>
        <time>2020-06-26T15:09:24Z</time>
      </trkpt>
      <trkpt lat="43.31552" lon="3.14853">
        <ele>60.8</ele>
        <time>2020-06-26T15:09:23Z</time>
      </trkpt>
      <trkpt lat="43.31555" lon="3.14859">
        <ele>60.6</ele>
        <time>2020-06-26T15:09:22Z</time>
      </trkpt>
      <trkpt lat="43.31558" lon="3.14865">
        <ele>60.6</ele>
        <time>2020-06-26T15:09:21Z</time>
      </trkpt>
      <trkpt lat="43.31561" lon="3.14871">
        <ele>60.6</ele>
        <time>2020-06-26T15:09:20Z</time>
      </trkpt>
      <trkpt lat="43.31566" lon="3.14878">
        <ele>60.6</ele>
        <time>2020-06-26T15:09:19Z</time>
      </trkpt>
      <trkpt lat="43.31569" lon="3.14886">
        <ele>60.6</ele>
        <time>2020-06-26T15:09:18Z</time>
      </trkpt>
      <trkpt lat="43.31573" lon="3.14892">
        <ele>60.6</ele>
        <time>2020-06-26T15:09:17Z</time>
      </trkpt>
      <trkpt lat="43.31576" lon="3.14901">
        <ele>60.6</ele>
        <time>2020-06-26T15:09:16Z</time>
      </trkpt>
      <trkpt lat="43.3158" lon="3.14909">
        <ele>60.4</ele>
        <time>2020-06-26T15:09:15Z</time>
      </trkpt>
      <trkpt lat="43.31583" lon="3.14915">
        <ele>60.4</ele>
        <time>2020-06-26T15:09:14Z</time>
      </trkpt>
      <trkpt lat="43.31586" lon="3.1492">
        <ele>60.6</ele>
        <time>2020-06-26T15:09:13Z</time>
      </trkpt>
      <trkpt lat="43.31589" lon="3.14926">
        <ele>60.6</ele>
        <time>2020-06-26T15:09:12Z</time>
      </trkpt>
      <trkpt lat="43.31591" lon="3.14933">
        <ele>60.6</ele>
        <time>2020-06-26T15:09:11Z</time>
      </trkpt>
      <trkpt lat="43.31591" lon="3.14942">
        <ele>60.6</ele>
        <time>2020-06-26T15:09:10Z</time>
      </trkpt>
      <trkpt lat="43.31595" lon="3.14948">
        <ele>60.8</ele>
        <time>2020-06-26T15:09:09Z</time>
      </trkpt>
      <trkpt lat="43.31596" lon="3.14955">
        <ele>60.8</ele>
        <time>2020-06-26T15:09:08Z</time>
      </trkpt>
      <trkpt lat="43.31599" lon="3.14964">
        <ele>60.6</ele>
        <time>2020-06-26T15:09:07Z</time>
      </trkpt>
      <trkpt lat="43.31603" lon="3.14971">
        <ele>60.8</ele>
        <time>2020-06-26T15:09:06Z</time>
      </trkpt>
      <trkpt lat="43.31604" lon="3.14978">
        <ele>60.8</ele>
        <time>2020-06-26T15:09:05Z</time>
      </trkpt>
      <trkpt lat="43.31607" lon="3.14985">
        <ele>60.8</ele>
        <time>2020-06-26T15:09:04Z</time>
      </trkpt>
      <trkpt lat="43.31611" lon="3.14993">
        <ele>60.8</ele>
        <time>2020-06-26T15:09:03Z</time>
      </trkpt>
      <trkpt lat="43.31614" lon="3.15001">
        <ele>61</ele>
        <time>2020-06-26T15:09:02Z</time>
      </trkpt>
      <trkpt lat="43.31618" lon="3.15007">
        <ele>60.8</ele>
        <time>2020-06-26T15:09:01Z</time>
      </trkpt>
      <trkpt lat="43.31621" lon="3.15014">
        <ele>61</ele>
        <time>2020-06-26T15:09:00Z</time>
      </trkpt>
      <trkpt lat="43.31625" lon="3.15021">
        <ele>60.8</ele>
        <time>2020-06-26T15:08:59Z</time>
      </trkpt>
      <trkpt lat="43.31627" lon="3.15027">
        <ele>60.8</ele>
        <time>2020-06-26T15:08:58Z</time>
      </trkpt>
      <trkpt lat="43.31631" lon="3.15035">
        <ele>61</ele>
        <time>2020-06-26T15:08:57Z</time>
      </trkpt>
      <trkpt lat="43.31633" lon="3.15044">
        <ele>61.2</ele>
        <time>2020-06-26T15:08:56Z</time>
      </trkpt>
      <trkpt lat="43.31636" lon="3.15053">
        <ele>61.6</ele>
        <time>2020-06-26T15:08:55Z</time>
      </trkpt>
      <trkpt lat="43.31641" lon="3.15063">
        <ele>61.6</ele>
        <time>2020-06-26T15:08:54Z</time>
      </trkpt>
      <trkpt lat="43.31644" lon="3.1507">
        <ele>61.6</ele>
        <time>2020-06-26T15:08:53Z</time>
      </trkpt>
      <trkpt lat="43.31648" lon="3.15077">
        <ele>61.4</ele>
        <time>2020-06-26T15:08:52Z</time>
      </trkpt>
      <trkpt lat="43.3165" lon="3.15085">
        <ele>61.6</ele>
        <time>2020-06-26T15:08:51Z</time>
      </trkpt>
      <trkpt lat="43.31654" lon="3.15095">
        <ele>61.6</ele>
        <time>2020-06-26T15:08:50Z</time>
      </trkpt>
      <trkpt lat="43.31657" lon="3.15104">
        <ele>61.8</ele>
        <time>2020-06-26T15:08:49Z</time>
      </trkpt>
      <trkpt lat="43.3166" lon="3.1511">
        <ele>61.8</ele>
        <time>2020-06-26T15:08:48Z</time>
      </trkpt>
      <trkpt lat="43.31664" lon="3.15118">
        <ele>62</ele>
        <time>2020-06-26T15:08:47Z</time>
      </trkpt>
      <trkpt lat="43.31666" lon="3.15128">
        <ele>62</ele>
        <time>2020-06-26T15:08:46Z</time>
      </trkpt>
      <trkpt lat="43.31671" lon="3.15139">
        <ele>62</ele>
        <time>2020-06-26T15:08:45Z</time>
      </trkpt>
      <trkpt lat="43.31674" lon="3.15148">
        <ele>62.2</ele>
        <time>2020-06-26T15:08:44Z</time>
      </trkpt>
      <trkpt lat="43.31679" lon="3.15157">
        <ele>62.2</ele>
        <time>2020-06-26T15:08:43Z</time>
      </trkpt>
      <trkpt lat="43.31682" lon="3.15166">
        <ele>62.4</ele>
        <time>2020-06-26T15:08:42Z</time>
      </trkpt>
      <trkpt lat="43.31686" lon="3.15173">
        <ele>62.6</ele>
        <time>2020-06-26T15:08:41Z</time>
      </trkpt>
      <trkpt lat="43.3169" lon="3.15183">
        <ele>63</ele>
        <time>2020-06-26T15:08:40Z</time>
      </trkpt>
      <trkpt lat="43.31692" lon="3.15193">
        <ele>63.4</ele>
        <time>2020-06-26T15:08:39Z</time>
      </trkpt>
      <trkpt lat="43.31695" lon="3.15201">
        <ele>63.6</ele>
        <time>2020-06-26T15:08:38Z</time>
      </trkpt>
      <trkpt lat="43.31699" lon="3.1521">
        <ele>63.8</ele>
        <time>2020-06-26T15:08:37Z</time>
      </trkpt>
      <trkpt lat="43.31701" lon="3.15219">
        <ele>64</ele>
        <time>2020-06-26T15:08:36Z</time>
      </trkpt>
      <trkpt lat="43.31704" lon="3.15229">
        <ele>64.2</ele>
        <time>2020-06-26T15:08:35Z</time>
      </trkpt>
      <trkpt lat="43.31706" lon="3.15236">
        <ele>64.4</ele>
        <time>2020-06-26T15:08:34Z</time>
      </trkpt>
      <trkpt lat="43.31708" lon="3.15244">
        <ele>64.6</ele>
        <time>2020-06-26T15:08:33Z</time>
      </trkpt>
      <trkpt lat="43.3171" lon="3.15253">
        <ele>64.8</ele>
        <time>2020-06-26T15:08:32Z</time>
      </trkpt>
      <trkpt lat="43.31712" lon="3.1526">
        <ele>65</ele>
        <time>2020-06-26T15:08:31Z</time>
      </trkpt>
      <trkpt lat="43.31715" lon="3.15268">
        <ele>65.2</ele>
        <time>2020-06-26T15:08:30Z</time>
      </trkpt>
      <trkpt lat="43.31716" lon="3.15275">
        <ele>65.2</ele>
        <time>2020-06-26T15:08:29Z</time>
      </trkpt>
      <trkpt lat="43.31715" lon="3.15281">
        <ele>65.4</ele>
        <time>2020-06-26T15:08:28Z</time>
      </trkpt>
      <trkpt lat="43.31718" lon="3.15287">
        <ele>65.6</ele>
        <time>2020-06-26T15:08:27Z</time>
      </trkpt>
      <trkpt lat="43.3172" lon="3.15293">
        <ele>66</ele>
        <time>2020-06-26T15:08:26Z</time>
      </trkpt>
      <trkpt lat="43.31722" lon="3.15299">
        <ele>66.2</ele>
        <time>2020-06-26T15:08:25Z</time>
      </trkpt>
      <trkpt lat="43.31723" lon="3.15305">
        <ele>66.4</ele>
        <time>2020-06-26T15:08:24Z</time>
      </trkpt>
      <trkpt lat="43.31725" lon="3.15309">
        <ele>66.6</ele>
        <time>2020-06-26T15:08:23Z</time>
      </trkpt>
      <trkpt lat="43.31727" lon="3.15315">
        <ele>66.6</ele>
        <time>2020-06-26T15:08:22Z</time>
      </trkpt>
      <trkpt lat="43.31729" lon="3.15319">
        <ele>66.4</ele>
        <time>2020-06-26T15:08:21Z</time>
      </trkpt>
      <trkpt lat="43.3173" lon="3.15324">
        <ele>66.4</ele>
        <time>2020-06-26T15:08:20Z</time>
      </trkpt>
      <trkpt lat="43.31732" lon="3.15332">
        <ele>66.4</ele>
        <time>2020-06-26T15:08:19Z</time>
      </trkpt>
      <trkpt lat="43.31732" lon="3.15335">
        <ele>66.4</ele>
        <time>2020-06-26T15:08:18Z</time>
      </trkpt>
      <trkpt lat="43.31735" lon="3.1534">
        <ele>66.2</ele>
        <time>2020-06-26T15:08:17Z</time>
      </trkpt>
      <trkpt lat="43.31737" lon="3.15347">
        <ele>66</ele>
        <time>2020-06-26T15:08:16Z</time>
      </trkpt>
      <trkpt lat="43.31738" lon="3.15352">
        <ele>65.6</ele>
        <time>2020-06-26T15:08:15Z</time>
      </trkpt>
      <trkpt lat="43.3174" lon="3.15358">
        <ele>65.8</ele>
        <time>2020-06-26T15:08:14Z</time>
      </trkpt>
      <trkpt lat="43.31743" lon="3.15363">
        <ele>65.8</ele>
        <time>2020-06-26T15:08:13Z</time>
      </trkpt>
      <trkpt lat="43.31744" lon="3.15367">
        <ele>65.6</ele>
        <time>2020-06-26T15:08:12Z</time>
      </trkpt>
      <trkpt lat="43.31746" lon="3.15372">
        <ele>65.6</ele>
        <time>2020-06-26T15:08:11Z</time>
      </trkpt>
      <trkpt lat="43.31747" lon="3.15378">
        <ele>65.6</ele>
        <time>2020-06-26T15:08:10Z</time>
      </trkpt>
      <trkpt lat="43.3175" lon="3.15383">
        <ele>65.4</ele>
        <time>2020-06-26T15:08:09Z</time>
      </trkpt>
      <trkpt lat="43.31754" lon="3.15387">
        <ele>65.2</ele>
        <time>2020-06-26T15:08:08Z</time>
      </trkpt>
      <trkpt lat="43.31756" lon="3.15394">
        <ele>65.2</ele>
        <time>2020-06-26T15:08:07Z</time>
      </trkpt>
      <trkpt lat="43.31759" lon="3.15399">
        <ele>65.4</ele>
        <time>2020-06-26T15:08:06Z</time>
      </trkpt>
      <trkpt lat="43.3176" lon="3.15404">
        <ele>65.2</ele>
        <time>2020-06-26T15:08:05Z</time>
      </trkpt>
      <trkpt lat="43.31763" lon="3.15411">
        <ele>65.2</ele>
        <time>2020-06-26T15:08:04Z</time>
      </trkpt>
      <trkpt lat="43.31765" lon="3.15416">
        <ele>65.2</ele>
        <time>2020-06-26T15:08:03Z</time>
      </trkpt>
      <trkpt lat="43.31767" lon="3.15422">
        <ele>65</ele>
        <time>2020-06-26T15:08:02Z</time>
      </trkpt>
      <trkpt lat="43.31769" lon="3.15427">
        <ele>65</ele>
        <time>2020-06-26T15:08:01Z</time>
      </trkpt>
      <trkpt lat="43.3177" lon="3.15431">
        <ele>65</ele>
        <time>2020-06-26T15:08:00Z</time>
      </trkpt>
      <trkpt lat="43.31773" lon="3.15436">
        <ele>65.2</ele>
        <time>2020-06-26T15:07:59Z</time>
      </trkpt>
      <trkpt lat="43.31774" lon="3.15442">
        <ele>65.2</ele>
        <time>2020-06-26T15:07:58Z</time>
      </trkpt>
      <trkpt lat="43.31777" lon="3.15449">
        <ele>65.2</ele>
        <time>2020-06-26T15:07:57Z</time>
      </trkpt>
      <trkpt lat="43.31781" lon="3.15456">
        <ele>65.2</ele>
        <time>2020-06-26T15:07:56Z</time>
      </trkpt>
      <trkpt lat="43.31784" lon="3.15461">
        <ele>65.4</ele>
        <time>2020-06-26T15:07:55Z</time>
      </trkpt>
      <trkpt lat="43.31787" lon="3.15466">
        <ele>65</ele>
        <time>2020-06-26T15:07:54Z</time>
      </trkpt>
      <trkpt lat="43.3179" lon="3.1547">
        <ele>65</ele>
        <time>2020-06-26T15:07:53Z</time>
      </trkpt>
      <trkpt lat="43.31793" lon="3.15479">
        <ele>64.8</ele>
        <time>2020-06-26T15:07:52Z</time>
      </trkpt>
      <trkpt lat="43.31796" lon="3.15483">
        <ele>64.8</ele>
        <time>2020-06-26T15:07:51Z</time>
      </trkpt>
      <trkpt lat="43.31798" lon="3.15489">
        <ele>64.8</ele>
        <time>2020-06-26T15:07:50Z</time>
      </trkpt>
      <trkpt lat="43.31801" lon="3.15494">
        <ele>64.6</ele>
        <time>2020-06-26T15:07:49Z</time>
      </trkpt>
      <trkpt lat="43.31803" lon="3.15499">
        <ele>64.6</ele>
        <time>2020-06-26T15:07:48Z</time>
      </trkpt>
      <trkpt lat="43.31806" lon="3.15507">
        <ele>64.6</ele>
        <time>2020-06-26T15:07:47Z</time>
      </trkpt>
      <trkpt lat="43.31807" lon="3.15514">
        <ele>64.6</ele>
        <time>2020-06-26T15:07:46Z</time>
      </trkpt>
      <trkpt lat="43.3181" lon="3.1552">
        <ele>64.6</ele>
        <time>2020-06-26T15:07:45Z</time>
      </trkpt>
      <trkpt lat="43.31813" lon="3.15527">
        <ele>64.6</ele>
        <time>2020-06-26T15:07:44Z</time>
      </trkpt>
      <trkpt lat="43.31817" lon="3.15532">
        <ele>64.6</ele>
        <time>2020-06-26T15:07:43Z</time>
      </trkpt>
      <trkpt lat="43.31819" lon="3.15536">
        <ele>64.6</ele>
        <time>2020-06-26T15:07:42Z</time>
      </trkpt>
      <trkpt lat="43.31822" lon="3.15542">
        <ele>64.6</ele>
        <time>2020-06-26T15:07:41Z</time>
      </trkpt>
      <trkpt lat="43.31825" lon="3.15548">
        <ele>64.6</ele>
        <time>2020-06-26T15:07:40Z</time>
      </trkpt>
      <trkpt lat="43.31826" lon="3.15553">
        <ele>64.6</ele>
        <time>2020-06-26T15:07:39Z</time>
      </trkpt>
      <trkpt lat="43.31829" lon="3.15557">
        <ele>64.4</ele>
        <time>2020-06-26T15:07:38Z</time>
      </trkpt>
      <trkpt lat="43.31832" lon="3.15562">
        <ele>64.4</ele>
        <time>2020-06-26T15:07:37Z</time>
      </trkpt>
      <trkpt lat="43.31836" lon="3.15568">
        <ele>64.4</ele>
        <time>2020-06-26T15:07:36Z</time>
      </trkpt>
      <trkpt lat="43.31839" lon="3.15574">
        <ele>64.4</ele>
        <time>2020-06-26T15:07:35Z</time>
      </trkpt>
      <trkpt lat="43.3184" lon="3.1558">
        <ele>64.4</ele>
        <time>2020-06-26T15:07:34Z</time>
      </trkpt>
      <trkpt lat="43.31842" lon="3.15586">
        <ele>64.4</ele>
        <time>2020-06-26T15:07:33Z</time>
      </trkpt>
      <trkpt lat="43.31845" lon="3.15592">
        <ele>64.4</ele>
        <time>2020-06-26T15:07:32Z</time>
      </trkpt>
      <trkpt lat="43.31846" lon="3.15598">
        <ele>64.4</ele>
        <time>2020-06-26T15:07:31Z</time>
      </trkpt>
      <trkpt lat="43.3185" lon="3.15604">
        <ele>64.4</ele>
        <time>2020-06-26T15:07:30Z</time>
      </trkpt>
      <trkpt lat="43.31852" lon="3.1561">
        <ele>64.8</ele>
        <time>2020-06-26T15:07:29Z</time>
      </trkpt>
      <trkpt lat="43.31855" lon="3.15614">
        <ele>64</ele>
        <time>2020-06-26T15:07:28Z</time>
      </trkpt>
      <trkpt lat="43.31858" lon="3.1562">
        <ele>64</ele>
        <time>2020-06-26T15:07:27Z</time>
      </trkpt>
      <trkpt lat="43.31859" lon="3.15627">
        <ele>64</ele>
        <time>2020-06-26T15:07:26Z</time>
      </trkpt>
      <trkpt lat="43.31861" lon="3.15631">
        <ele>64</ele>
        <time>2020-06-26T15:07:25Z</time>
      </trkpt>
      <trkpt lat="43.31864" lon="3.15637">
        <ele>64</ele>
        <time>2020-06-26T15:07:24Z</time>
      </trkpt>
      <trkpt lat="43.31864" lon="3.15643">
        <ele>64.8</ele>
        <time>2020-06-26T15:07:23Z</time>
      </trkpt>
      <trkpt lat="43.31867" lon="3.15648">
        <ele>64</ele>
        <time>2020-06-26T15:07:22Z</time>
      </trkpt>
      <trkpt lat="43.31869" lon="3.15652">
        <ele>64</ele>
        <time>2020-06-26T15:07:21Z</time>
      </trkpt>
      <trkpt lat="43.3187" lon="3.15656">
        <ele>64</ele>
        <time>2020-06-26T15:07:20Z</time>
      </trkpt>
      <trkpt lat="43.31871" lon="3.15659">
        <ele>64</ele>
        <time>2020-06-26T15:07:19Z</time>
      </trkpt>
      <trkpt lat="43.31872" lon="3.15664">
        <ele>64.4</ele>
        <time>2020-06-26T15:07:18Z</time>
      </trkpt>
      <trkpt lat="43.31874" lon="3.15667">
        <ele>64.4</ele>
        <time>2020-06-26T15:07:17Z</time>
      </trkpt>
      <trkpt lat="43.31876" lon="3.15672">
        <ele>64.4</ele>
        <time>2020-06-26T15:07:16Z</time>
      </trkpt>
      <trkpt lat="43.31878" lon="3.15676">
        <ele>64.6</ele>
        <time>2020-06-26T15:07:15Z</time>
      </trkpt>
      <trkpt lat="43.31879" lon="3.15679">
        <ele>64.4</ele>
        <time>2020-06-26T15:07:14Z</time>
      </trkpt>
      <trkpt lat="43.3188" lon="3.15683">
        <ele>64.6</ele>
        <time>2020-06-26T15:07:13Z</time>
      </trkpt>
      <trkpt lat="43.31882" lon="3.15689">
        <ele>64.6</ele>
        <time>2020-06-26T15:07:12Z</time>
      </trkpt>
      <trkpt lat="43.31884" lon="3.15694">
        <ele>64.6</ele>
        <time>2020-06-26T15:07:11Z</time>
      </trkpt>
      <trkpt lat="43.31885" lon="3.15699">
        <ele>64.6</ele>
        <time>2020-06-26T15:07:10Z</time>
      </trkpt>
      <trkpt lat="43.31887" lon="3.15704">
        <ele>64.6</ele>
        <time>2020-06-26T15:07:09Z</time>
      </trkpt>
      <trkpt lat="43.31889" lon="3.15708">
        <ele>64.6</ele>
        <time>2020-06-26T15:07:08Z</time>
      </trkpt>
      <trkpt lat="43.31892" lon="3.15712">
        <ele>64.6</ele>
        <time>2020-06-26T15:07:07Z</time>
      </trkpt>
      <trkpt lat="43.31893" lon="3.15716">
        <ele>64.6</ele>
        <time>2020-06-26T15:07:06Z</time>
      </trkpt>
      <trkpt lat="43.31894" lon="3.15721">
        <ele>64.6</ele>
        <time>2020-06-26T15:07:05Z</time>
      </trkpt>
      <trkpt lat="43.31896" lon="3.15727">
        <ele>64.8</ele>
        <time>2020-06-26T15:07:04Z</time>
      </trkpt>
      <trkpt lat="43.31899" lon="3.15729">
        <ele>64.8</ele>
        <time>2020-06-26T15:07:03Z</time>
      </trkpt>
      <trkpt lat="43.31901" lon="3.15734">
        <ele>65</ele>
        <time>2020-06-26T15:07:02Z</time>
      </trkpt>
      <trkpt lat="43.31902" lon="3.1574">
        <ele>65</ele>
        <time>2020-06-26T15:07:01Z</time>
      </trkpt>
      <trkpt lat="43.31903" lon="3.15744">
        <ele>65.2</ele>
        <time>2020-06-26T15:07:00Z</time>
      </trkpt>
      <trkpt lat="43.31904" lon="3.15749">
        <ele>65.2</ele>
        <time>2020-06-26T15:06:59Z</time>
      </trkpt>
      <trkpt lat="43.31905" lon="3.15755">
        <ele>65.2</ele>
        <time>2020-06-26T15:06:58Z</time>
      </trkpt>
      <trkpt lat="43.31907" lon="3.15759">
        <ele>65.2</ele>
        <time>2020-06-26T15:06:57Z</time>
      </trkpt>
      <trkpt lat="43.31909" lon="3.15764">
        <ele>65.2</ele>
        <time>2020-06-26T15:06:56Z</time>
      </trkpt>
      <trkpt lat="43.3191" lon="3.15769">
        <ele>65.2</ele>
        <time>2020-06-26T15:06:55Z</time>
      </trkpt>
      <trkpt lat="43.31913" lon="3.15772">
        <ele>65.4</ele>
        <time>2020-06-26T15:06:54Z</time>
      </trkpt>
      <trkpt lat="43.31915" lon="3.15775">
        <ele>65.4</ele>
        <time>2020-06-26T15:06:53Z</time>
      </trkpt>
      <trkpt lat="43.31916" lon="3.15778">
        <ele>65.6</ele>
        <time>2020-06-26T15:06:52Z</time>
      </trkpt>
      <trkpt lat="43.31918" lon="3.15781">
        <ele>65.4</ele>
        <time>2020-06-26T15:06:51Z</time>
      </trkpt>
      <trkpt lat="43.3192" lon="3.15785">
        <ele>65.4</ele>
        <time>2020-06-26T15:06:50Z</time>
      </trkpt>
      <trkpt lat="43.31923" lon="3.15788">
        <ele>65.4</ele>
        <time>2020-06-26T15:06:49Z</time>
      </trkpt>
      <trkpt lat="43.31925" lon="3.15792">
        <ele>65.2</ele>
        <time>2020-06-26T15:06:48Z</time>
      </trkpt>
      <trkpt lat="43.31927" lon="3.15796">
        <ele>65</ele>
        <time>2020-06-26T15:06:47Z</time>
      </trkpt>
      <trkpt lat="43.31928" lon="3.15799">
        <ele>65</ele>
        <time>2020-06-26T15:06:46Z</time>
      </trkpt>
      <trkpt lat="43.31929" lon="3.15803">
        <ele>64.8</ele>
        <time>2020-06-26T15:06:45Z</time>
      </trkpt>
      <trkpt lat="43.31931" lon="3.15806">
        <ele>64.8</ele>
        <time>2020-06-26T15:06:44Z</time>
      </trkpt>
      <trkpt lat="43.31933" lon="3.15809">
        <ele>64.8</ele>
        <time>2020-06-26T15:06:43Z</time>
      </trkpt>
      <trkpt lat="43.31935" lon="3.15811">
        <ele>64.8</ele>
        <time>2020-06-26T15:06:42Z</time>
      </trkpt>
      <trkpt lat="43.31937" lon="3.15817">
        <ele>64.6</ele>
        <time>2020-06-26T15:06:41Z</time>
      </trkpt>
      <trkpt lat="43.31939" lon="3.15821">
        <ele>64.4</ele>
        <time>2020-06-26T15:06:40Z</time>
      </trkpt>
      <trkpt lat="43.3194" lon="3.15824">
        <ele>64.4</ele>
        <time>2020-06-26T15:06:39Z</time>
      </trkpt>
      <trkpt lat="43.31942" lon="3.1583">
        <ele>64.2</ele>
        <time>2020-06-26T15:06:38Z</time>
      </trkpt>
      <trkpt lat="43.31944" lon="3.15835">
        <ele>64</ele>
        <time>2020-06-26T15:06:37Z</time>
      </trkpt>
      <trkpt lat="43.31947" lon="3.15839">
        <ele>64</ele>
        <time>2020-06-26T15:06:36Z</time>
      </trkpt>
      <trkpt lat="43.31949" lon="3.15843">
        <ele>63.8</ele>
        <time>2020-06-26T15:06:35Z</time>
      </trkpt>
      <trkpt lat="43.31951" lon="3.15846">
        <ele>63.8</ele>
        <time>2020-06-26T15:06:34Z</time>
      </trkpt>
      <trkpt lat="43.31953" lon="3.15851">
        <ele>63.6</ele>
        <time>2020-06-26T15:06:33Z</time>
      </trkpt>
      <trkpt lat="43.31956" lon="3.15853">
        <ele>63.4</ele>
        <time>2020-06-26T15:06:32Z</time>
      </trkpt>
      <trkpt lat="43.31958" lon="3.15855">
        <ele>63.4</ele>
        <time>2020-06-26T15:06:31Z</time>
      </trkpt>
      <trkpt lat="43.31961" lon="3.15861">
        <ele>63.2</ele>
        <time>2020-06-26T15:06:30Z</time>
      </trkpt>
      <trkpt lat="43.31962" lon="3.15867">
        <ele>63</ele>
        <time>2020-06-26T15:06:29Z</time>
      </trkpt>
      <trkpt lat="43.31965" lon="3.15871">
        <ele>62.8</ele>
        <time>2020-06-26T15:06:28Z</time>
      </trkpt>
      <trkpt lat="43.31966" lon="3.15875">
        <ele>62.8</ele>
        <time>2020-06-26T15:06:27Z</time>
      </trkpt>
      <trkpt lat="43.31968" lon="3.15878">
        <ele>62.8</ele>
        <time>2020-06-26T15:06:26Z</time>
      </trkpt>
      <trkpt lat="43.3197" lon="3.15883">
        <ele>62.6</ele>
        <time>2020-06-26T15:06:25Z</time>
      </trkpt>
      <trkpt lat="43.31971" lon="3.15888">
        <ele>62.6</ele>
        <time>2020-06-26T15:06:24Z</time>
      </trkpt>
      <trkpt lat="43.31974" lon="3.15894">
        <ele>62.4</ele>
        <time>2020-06-26T15:06:23Z</time>
      </trkpt>
      <trkpt lat="43.31974" lon="3.15899">
        <ele>62.2</ele>
        <time>2020-06-26T15:06:22Z</time>
      </trkpt>
      <trkpt lat="43.31976" lon="3.15903">
        <ele>62.2</ele>
        <time>2020-06-26T15:06:21Z</time>
      </trkpt>
      <trkpt lat="43.31978" lon="3.15909">
        <ele>62.2</ele>
        <time>2020-06-26T15:06:20Z</time>
      </trkpt>
      <trkpt lat="43.31977" lon="3.15913">
        <ele>62</ele>
        <time>2020-06-26T15:06:19Z</time>
      </trkpt>
      <trkpt lat="43.31979" lon="3.15918">
        <ele>61.8</ele>
        <time>2020-06-26T15:06:18Z</time>
      </trkpt>
      <trkpt lat="43.31981" lon="3.15923">
        <ele>61.8</ele>
        <time>2020-06-26T15:06:17Z</time>
      </trkpt>
      <trkpt lat="43.31983" lon="3.15927">
        <ele>61.6</ele>
        <time>2020-06-26T15:06:16Z</time>
      </trkpt>
      <trkpt lat="43.31985" lon="3.15931">
        <ele>61.6</ele>
        <time>2020-06-26T15:06:15Z</time>
      </trkpt>
      <trkpt lat="43.31986" lon="3.15935">
        <ele>61.6</ele>
        <time>2020-06-26T15:06:14Z</time>
      </trkpt>
      <trkpt lat="43.31989" lon="3.15941">
        <ele>61.6</ele>
        <time>2020-06-26T15:06:13Z</time>
      </trkpt>
      <trkpt lat="43.31989" lon="3.15947">
        <ele>61.6</ele>
        <time>2020-06-26T15:06:12Z</time>
      </trkpt>
      <trkpt lat="43.31992" lon="3.15953">
        <ele>61.6</ele>
        <time>2020-06-26T15:06:11Z</time>
      </trkpt>
      <trkpt lat="43.31993" lon="3.15959">
        <ele>61.4</ele>
        <time>2020-06-26T15:06:10Z</time>
      </trkpt>
      <trkpt lat="43.31994" lon="3.15964">
        <ele>61.4</ele>
        <time>2020-06-26T15:06:09Z</time>
      </trkpt>
      <trkpt lat="43.31995" lon="3.15968">
        <ele>61.4</ele>
        <time>2020-06-26T15:06:08Z</time>
      </trkpt>
      <trkpt lat="43.31996" lon="3.15972">
        <ele>61.2</ele>
        <time>2020-06-26T15:06:07Z</time>
      </trkpt>
      <trkpt lat="43.31997" lon="3.15977">
        <ele>61.2</ele>
        <time>2020-06-26T15:06:06Z</time>
      </trkpt>
      <trkpt lat="43.31998" lon="3.15981">
        <ele>61.2</ele>
        <time>2020-06-26T15:06:05Z</time>
      </trkpt>
      <trkpt lat="43.32" lon="3.15987">
        <ele>61.2</ele>
        <time>2020-06-26T15:06:04Z</time>
      </trkpt>
      <trkpt lat="43.32003" lon="3.1599">
        <ele>61.2</ele>
        <time>2020-06-26T15:06:03Z</time>
      </trkpt>
      <trkpt lat="43.32005" lon="3.15994">
        <ele>61</ele>
        <time>2020-06-26T15:06:02Z</time>
      </trkpt>
      <trkpt lat="43.32007" lon="3.15995">
        <ele>61</ele>
        <time>2020-06-26T15:06:01Z</time>
      </trkpt>
      <trkpt lat="43.3201" lon="3.15998">
        <ele>61</ele>
        <time>2020-06-26T15:06:00Z</time>
      </trkpt>
      <trkpt lat="43.32012" lon="3.16">
        <ele>61</ele>
        <time>2020-06-26T15:05:59Z</time>
      </trkpt>
      <trkpt lat="43.32014" lon="3.16004">
        <ele>61</ele>
        <time>2020-06-26T15:05:58Z</time>
      </trkpt>
      <trkpt lat="43.32015" lon="3.16008">
        <ele>61</ele>
        <time>2020-06-26T15:05:57Z</time>
      </trkpt>
      <trkpt lat="43.32017" lon="3.16011">
        <ele>60.8</ele>
        <time>2020-06-26T15:05:56Z</time>
      </trkpt>
      <trkpt lat="43.32017" lon="3.16014">
        <ele>60.8</ele>
        <time>2020-06-26T15:05:55Z</time>
      </trkpt>
      <trkpt lat="43.32021" lon="3.16017">
        <ele>60.8</ele>
        <time>2020-06-26T15:05:54Z</time>
      </trkpt>
      <trkpt lat="43.32021" lon="3.16018">
        <ele>60.8</ele>
        <time>2020-06-26T15:05:53Z</time>
      </trkpt>
      <trkpt lat="43.32023" lon="3.16019">
        <ele>60.8</ele>
        <time>2020-06-26T15:05:52Z</time>
      </trkpt>
      <trkpt lat="43.32025" lon="3.16021">
        <ele>60.6</ele>
        <time>2020-06-26T15:05:51Z</time>
      </trkpt>
      <trkpt lat="43.32025" lon="3.16021">
        <ele>60.4</ele>
        <time>2020-06-26T15:05:50Z</time>
      </trkpt>
      <trkpt lat="43.32024" lon="3.16023">
        <ele>60.4</ele>
        <time>2020-06-26T15:05:49Z</time>
      </trkpt>
      <trkpt lat="43.32024" lon="3.16022">
        <ele>60.6</ele>
        <time>2020-06-26T15:05:48Z</time>
      </trkpt>
      <trkpt lat="43.32023" lon="3.16027">
        <ele>60.6</ele>
        <time>2020-06-26T15:05:47Z</time>
      </trkpt>
      <trkpt lat="43.32021" lon="3.16029">
        <ele>60.6</ele>
        <time>2020-06-26T15:05:46Z</time>
      </trkpt>
      <trkpt lat="43.3202" lon="3.16033">
        <ele>60.4</ele>
        <time>2020-06-26T15:05:45Z</time>
      </trkpt>
      <trkpt lat="43.32022" lon="3.16036">
        <ele>60.4</ele>
        <time>2020-06-26T15:05:44Z</time>
      </trkpt>
      <trkpt lat="43.32024" lon="3.16043">
        <ele>60.4</ele>
        <time>2020-06-26T15:05:43Z</time>
      </trkpt>
      <trkpt lat="43.32027" lon="3.16049">
        <ele>60.2</ele>
        <time>2020-06-26T15:05:42Z</time>
      </trkpt>
      <trkpt lat="43.32028" lon="3.16054">
        <ele>60.2</ele>
        <time>2020-06-26T15:05:41Z</time>
      </trkpt>
      <trkpt lat="43.3203" lon="3.1606">
        <ele>60</ele>
        <time>2020-06-26T15:05:40Z</time>
      </trkpt>
      <trkpt lat="43.32032" lon="3.16066">
        <ele>60</ele>
        <time>2020-06-26T15:05:39Z</time>
      </trkpt>
      <trkpt lat="43.32032" lon="3.16072">
        <ele>59.8</ele>
        <time>2020-06-26T15:05:38Z</time>
      </trkpt>
      <trkpt lat="43.32035" lon="3.16079">
        <ele>59.6</ele>
        <time>2020-06-26T15:05:37Z</time>
      </trkpt>
      <trkpt lat="43.32037" lon="3.16084">
        <ele>59.8</ele>
        <time>2020-06-26T15:05:36Z</time>
      </trkpt>
      <trkpt lat="43.32039" lon="3.1609">
        <ele>59.6</ele>
        <time>2020-06-26T15:05:35Z</time>
      </trkpt>
      <trkpt lat="43.32042" lon="3.16096">
        <ele>59.8</ele>
        <time>2020-06-26T15:05:34Z</time>
      </trkpt>
      <trkpt lat="43.32042" lon="3.16104">
        <ele>59.8</ele>
        <time>2020-06-26T15:05:33Z</time>
      </trkpt>
      <trkpt lat="43.32046" lon="3.16107">
        <ele>59.8</ele>
        <time>2020-06-26T15:05:32Z</time>
      </trkpt>
      <trkpt lat="43.32049" lon="3.16114">
        <ele>59.8</ele>
        <time>2020-06-26T15:05:31Z</time>
      </trkpt>
      <trkpt lat="43.32051" lon="3.16119">
        <ele>59.8</ele>
        <time>2020-06-26T15:05:30Z</time>
      </trkpt>
      <trkpt lat="43.32052" lon="3.16126">
        <ele>59.8</ele>
        <time>2020-06-26T15:05:29Z</time>
      </trkpt>
      <trkpt lat="43.32054" lon="3.16133">
        <ele>59.8</ele>
        <time>2020-06-26T15:05:28Z</time>
      </trkpt>
      <trkpt lat="43.32058" lon="3.1614">
        <ele>59.8</ele>
        <time>2020-06-26T15:05:27Z</time>
      </trkpt>
      <trkpt lat="43.3206" lon="3.16149">
        <ele>59.6</ele>
        <time>2020-06-26T15:05:26Z</time>
      </trkpt>
      <trkpt lat="43.32063" lon="3.16154">
        <ele>59.6</ele>
        <time>2020-06-26T15:05:25Z</time>
      </trkpt>
      <trkpt lat="43.32065" lon="3.1616">
        <ele>60</ele>
        <time>2020-06-26T15:05:24Z</time>
      </trkpt>
      <trkpt lat="43.32068" lon="3.16165">
        <ele>60</ele>
        <time>2020-06-26T15:05:23Z</time>
      </trkpt>
      <trkpt lat="43.3207" lon="3.1617">
        <ele>59.8</ele>
        <time>2020-06-26T15:05:22Z</time>
      </trkpt>
      <trkpt lat="43.32073" lon="3.16177">
        <ele>59.6</ele>
        <time>2020-06-26T15:05:21Z</time>
      </trkpt>
      <trkpt lat="43.32076" lon="3.16184">
        <ele>59.6</ele>
        <time>2020-06-26T15:05:20Z</time>
      </trkpt>
      <trkpt lat="43.3208" lon="3.16192">
        <ele>59.4</ele>
        <time>2020-06-26T15:05:19Z</time>
      </trkpt>
      <trkpt lat="43.32082" lon="3.16199">
        <ele>59.6</ele>
        <time>2020-06-26T15:05:18Z</time>
      </trkpt>
      <trkpt lat="43.32085" lon="3.16206">
        <ele>59.8</ele>
        <time>2020-06-26T15:05:17Z</time>
      </trkpt>
      <trkpt lat="43.32088" lon="3.16212">
        <ele>60</ele>
        <time>2020-06-26T15:05:16Z</time>
      </trkpt>
      <trkpt lat="43.32092" lon="3.16219">
        <ele>59.8</ele>
        <time>2020-06-26T15:05:15Z</time>
      </trkpt>
      <trkpt lat="43.32093" lon="3.16224">
        <ele>59.8</ele>
        <time>2020-06-26T15:05:14Z</time>
      </trkpt>
      <trkpt lat="43.32097" lon="3.1623">
        <ele>59.8</ele>
        <time>2020-06-26T15:05:13Z</time>
      </trkpt>
      <trkpt lat="43.321" lon="3.16236">
        <ele>60</ele>
        <time>2020-06-26T15:05:12Z</time>
      </trkpt>
      <trkpt lat="43.32103" lon="3.16243">
        <ele>60</ele>
        <time>2020-06-26T15:05:11Z</time>
      </trkpt>
      <trkpt lat="43.32106" lon="3.16251">
        <ele>60</ele>
        <time>2020-06-26T15:05:10Z</time>
      </trkpt>
      <trkpt lat="43.3211" lon="3.16259">
        <ele>60.2</ele>
        <time>2020-06-26T15:05:09Z</time>
      </trkpt>
      <trkpt lat="43.32113" lon="3.16266">
        <ele>60.4</ele>
        <time>2020-06-26T15:05:08Z</time>
      </trkpt>
      <trkpt lat="43.32116" lon="3.16274">
        <ele>60.2</ele>
        <time>2020-06-26T15:05:07Z</time>
      </trkpt>
      <trkpt lat="43.32119" lon="3.16282">
        <ele>60.2</ele>
        <time>2020-06-26T15:05:06Z</time>
      </trkpt>
      <trkpt lat="43.3212" lon="3.16288">
        <ele>60.2</ele>
        <time>2020-06-26T15:05:05Z</time>
      </trkpt>
      <trkpt lat="43.32124" lon="3.16296">
        <ele>60.2</ele>
        <time>2020-06-26T15:05:04Z</time>
      </trkpt>
      <trkpt lat="43.32128" lon="3.16303">
        <ele>60.2</ele>
        <time>2020-06-26T15:05:03Z</time>
      </trkpt>
      <trkpt lat="43.3213" lon="3.1631">
        <ele>60.2</ele>
        <time>2020-06-26T15:05:02Z</time>
      </trkpt>
      <trkpt lat="43.32134" lon="3.16316">
        <ele>60.2</ele>
        <time>2020-06-26T15:05:01Z</time>
      </trkpt>
      <trkpt lat="43.32136" lon="3.16323">
        <ele>60.2</ele>
        <time>2020-06-26T15:05:00Z</time>
      </trkpt>
      <trkpt lat="43.32138" lon="3.16328">
        <ele>60.2</ele>
        <time>2020-06-26T15:04:59Z</time>
      </trkpt>
      <trkpt lat="43.3214" lon="3.16333">
        <ele>60.2</ele>
        <time>2020-06-26T15:04:58Z</time>
      </trkpt>
      <trkpt lat="43.32143" lon="3.1634">
        <ele>60.2</ele>
        <time>2020-06-26T15:04:57Z</time>
      </trkpt>
      <trkpt lat="43.32144" lon="3.16347">
        <ele>60.4</ele>
        <time>2020-06-26T15:04:56Z</time>
      </trkpt>
      <trkpt lat="43.32145" lon="3.16352">
        <ele>60.4</ele>
        <time>2020-06-26T15:04:55Z</time>
      </trkpt>
      <trkpt lat="43.32147" lon="3.16359">
        <ele>60.2</ele>
        <time>2020-06-26T15:04:54Z</time>
      </trkpt>
      <trkpt lat="43.32149" lon="3.16367">
        <ele>60.4</ele>
        <time>2020-06-26T15:04:53Z</time>
      </trkpt>
      <trkpt lat="43.32152" lon="3.16373">
        <ele>60.4</ele>
        <time>2020-06-26T15:04:52Z</time>
      </trkpt>
      <trkpt lat="43.32154" lon="3.16379">
        <ele>60.4</ele>
        <time>2020-06-26T15:04:51Z</time>
      </trkpt>
      <trkpt lat="43.32157" lon="3.16385">
        <ele>60.4</ele>
        <time>2020-06-26T15:04:50Z</time>
      </trkpt>
      <trkpt lat="43.32159" lon="3.16391">
        <ele>60.2</ele>
        <time>2020-06-26T15:04:49Z</time>
      </trkpt>
      <trkpt lat="43.32162" lon="3.16396">
        <ele>60.2</ele>
        <time>2020-06-26T15:04:48Z</time>
      </trkpt>
      <trkpt lat="43.32163" lon="3.16402">
        <ele>60.2</ele>
        <time>2020-06-26T15:04:47Z</time>
      </trkpt>
      <trkpt lat="43.32166" lon="3.16409">
        <ele>60.2</ele>
        <time>2020-06-26T15:04:46Z</time>
      </trkpt>
      <trkpt lat="43.32169" lon="3.16414">
        <ele>60.2</ele>
        <time>2020-06-26T15:04:45Z</time>
      </trkpt>
      <trkpt lat="43.32173" lon="3.1642">
        <ele>60.2</ele>
        <time>2020-06-26T15:04:44Z</time>
      </trkpt>
      <trkpt lat="43.32175" lon="3.16426">
        <ele>60.2</ele>
        <time>2020-06-26T15:04:43Z</time>
      </trkpt>
      <trkpt lat="43.32177" lon="3.16431">
        <ele>60.4</ele>
        <time>2020-06-26T15:04:42Z</time>
      </trkpt>
      <trkpt lat="43.32179" lon="3.16438">
        <ele>60.4</ele>
        <time>2020-06-26T15:04:41Z</time>
      </trkpt>
      <trkpt lat="43.32181" lon="3.16444">
        <ele>60.2</ele>
        <time>2020-06-26T15:04:40Z</time>
      </trkpt>
      <trkpt lat="43.32183" lon="3.1645">
        <ele>60.2</ele>
        <time>2020-06-26T15:04:39Z</time>
      </trkpt>
      <trkpt lat="43.32185" lon="3.16456">
        <ele>60.2</ele>
        <time>2020-06-26T15:04:38Z</time>
      </trkpt>
      <trkpt lat="43.32189" lon="3.16462">
        <ele>60.4</ele>
        <time>2020-06-26T15:04:37Z</time>
      </trkpt>
      <trkpt lat="43.32192" lon="3.16468">
        <ele>60.4</ele>
        <time>2020-06-26T15:04:36Z</time>
      </trkpt>
      <trkpt lat="43.32194" lon="3.16472">
        <ele>60.4</ele>
        <time>2020-06-26T15:04:35Z</time>
      </trkpt>
      <trkpt lat="43.32196" lon="3.16477">
        <ele>60.4</ele>
        <time>2020-06-26T15:04:34Z</time>
      </trkpt>
      <trkpt lat="43.32199" lon="3.16482">
        <ele>60.4</ele>
        <time>2020-06-26T15:04:33Z</time>
      </trkpt>
      <trkpt lat="43.32202" lon="3.16487">
        <ele>60.2</ele>
        <time>2020-06-26T15:04:32Z</time>
      </trkpt>
      <trkpt lat="43.32204" lon="3.16495">
        <ele>60.2</ele>
        <time>2020-06-26T15:04:31Z</time>
      </trkpt>
      <trkpt lat="43.32207" lon="3.16502">
        <ele>60.2</ele>
        <time>2020-06-26T15:04:30Z</time>
      </trkpt>
      <trkpt lat="43.32208" lon="3.16507">
        <ele>60.2</ele>
        <time>2020-06-26T15:04:29Z</time>
      </trkpt>
      <trkpt lat="43.3221" lon="3.16511">
        <ele>60.2</ele>
        <time>2020-06-26T15:04:28Z</time>
      </trkpt>
      <trkpt lat="43.32211" lon="3.16518">
        <ele>60.2</ele>
        <time>2020-06-26T15:04:27Z</time>
      </trkpt>
      <trkpt lat="43.32214" lon="3.16525">
        <ele>60.2</ele>
        <time>2020-06-26T15:04:26Z</time>
      </trkpt>
      <trkpt lat="43.32217" lon="3.1653">
        <ele>60.2</ele>
        <time>2020-06-26T15:04:25Z</time>
      </trkpt>
      <trkpt lat="43.3222" lon="3.16536">
        <ele>60</ele>
        <time>2020-06-26T15:04:24Z</time>
      </trkpt>
      <trkpt lat="43.32221" lon="3.16542">
        <ele>60</ele>
        <time>2020-06-26T15:04:23Z</time>
      </trkpt>
      <trkpt lat="43.32224" lon="3.16548">
        <ele>60</ele>
        <time>2020-06-26T15:04:22Z</time>
      </trkpt>
      <trkpt lat="43.32226" lon="3.16555">
        <ele>60</ele>
        <time>2020-06-26T15:04:21Z</time>
      </trkpt>
      <trkpt lat="43.32227" lon="3.16561">
        <ele>60</ele>
        <time>2020-06-26T15:04:20Z</time>
      </trkpt>
      <trkpt lat="43.3223" lon="3.16566">
        <ele>60.2</ele>
        <time>2020-06-26T15:04:19Z</time>
      </trkpt>
      <trkpt lat="43.32232" lon="3.16571">
        <ele>60</ele>
        <time>2020-06-26T15:04:18Z</time>
      </trkpt>
      <trkpt lat="43.32235" lon="3.16577">
        <ele>60</ele>
        <time>2020-06-26T15:04:17Z</time>
      </trkpt>
      <trkpt lat="43.32237" lon="3.16583">
        <ele>59.8</ele>
        <time>2020-06-26T15:04:16Z</time>
      </trkpt>
      <trkpt lat="43.3224" lon="3.16589">
        <ele>59.6</ele>
        <time>2020-06-26T15:04:15Z</time>
      </trkpt>
      <trkpt lat="43.32242" lon="3.16595">
        <ele>59.6</ele>
        <time>2020-06-26T15:04:14Z</time>
      </trkpt>
      <trkpt lat="43.32244" lon="3.16599">
        <ele>59.6</ele>
        <time>2020-06-26T15:04:13Z</time>
      </trkpt>
      <trkpt lat="43.32246" lon="3.16607">
        <ele>59.6</ele>
        <time>2020-06-26T15:04:12Z</time>
      </trkpt>
      <trkpt lat="43.32248" lon="3.16612">
        <ele>59.6</ele>
        <time>2020-06-26T15:04:11Z</time>
      </trkpt>
      <trkpt lat="43.32252" lon="3.16619">
        <ele>59.6</ele>
        <time>2020-06-26T15:04:10Z</time>
      </trkpt>
      <trkpt lat="43.32254" lon="3.16625">
        <ele>59.6</ele>
        <time>2020-06-26T15:04:09Z</time>
      </trkpt>
      <trkpt lat="43.32257" lon="3.1663">
        <ele>59.6</ele>
        <time>2020-06-26T15:04:08Z</time>
      </trkpt>
      <trkpt lat="43.3226" lon="3.16637">
        <ele>59.6</ele>
        <time>2020-06-26T15:04:07Z</time>
      </trkpt>
      <trkpt lat="43.32263" lon="3.16643">
        <ele>59.6</ele>
        <time>2020-06-26T15:04:06Z</time>
      </trkpt>
      <trkpt lat="43.32266" lon="3.16648">
        <ele>59.6</ele>
        <time>2020-06-26T15:04:05Z</time>
      </trkpt>
      <trkpt lat="43.32267" lon="3.16654">
        <ele>59.6</ele>
        <time>2020-06-26T15:04:04Z</time>
      </trkpt>
      <trkpt lat="43.32269" lon="3.16659">
        <ele>59.6</ele>
        <time>2020-06-26T15:04:03Z</time>
      </trkpt>
      <trkpt lat="43.32271" lon="3.16665">
        <ele>59.6</ele>
        <time>2020-06-26T15:04:02Z</time>
      </trkpt>
      <trkpt lat="43.32272" lon="3.16671">
        <ele>59.4</ele>
        <time>2020-06-26T15:04:01Z</time>
      </trkpt>
      <trkpt lat="43.32274" lon="3.16677">
        <ele>59.4</ele>
        <time>2020-06-26T15:04:00Z</time>
      </trkpt>
      <trkpt lat="43.32277" lon="3.16682">
        <ele>59.4</ele>
        <time>2020-06-26T15:03:59Z</time>
      </trkpt>
      <trkpt lat="43.32279" lon="3.16688">
        <ele>59.4</ele>
        <time>2020-06-26T15:03:58Z</time>
      </trkpt>
      <trkpt lat="43.32282" lon="3.16694">
        <ele>59.4</ele>
        <time>2020-06-26T15:03:57Z</time>
      </trkpt>
      <trkpt lat="43.32285" lon="3.167">
        <ele>59.4</ele>
        <time>2020-06-26T15:03:56Z</time>
      </trkpt>
      <trkpt lat="43.32287" lon="3.16705">
        <ele>59.4</ele>
        <time>2020-06-26T15:03:55Z</time>
      </trkpt>
      <trkpt lat="43.32289" lon="3.1671">
        <ele>59.2</ele>
        <time>2020-06-26T15:03:54Z</time>
      </trkpt>
      <trkpt lat="43.32291" lon="3.16715">
        <ele>59.2</ele>
        <time>2020-06-26T15:03:53Z</time>
      </trkpt>
      <trkpt lat="43.32293" lon="3.16721">
        <ele>59</ele>
        <time>2020-06-26T15:03:52Z</time>
      </trkpt>
      <trkpt lat="43.32296" lon="3.16727">
        <ele>59</ele>
        <time>2020-06-26T15:03:51Z</time>
      </trkpt>
      <trkpt lat="43.32297" lon="3.16732">
        <ele>59</ele>
        <time>2020-06-26T15:03:50Z</time>
      </trkpt>
      <trkpt lat="43.32299" lon="3.16739">
        <ele>59</ele>
        <time>2020-06-26T15:03:49Z</time>
      </trkpt>
      <trkpt lat="43.32301" lon="3.16743">
        <ele>59</ele>
        <time>2020-06-26T15:03:48Z</time>
      </trkpt>
      <trkpt lat="43.32302" lon="3.16749">
        <ele>59</ele>
        <time>2020-06-26T15:03:47Z</time>
      </trkpt>
      <trkpt lat="43.32304" lon="3.16756">
        <ele>58.8</ele>
        <time>2020-06-26T15:03:46Z</time>
      </trkpt>
      <trkpt lat="43.32305" lon="3.16763">
        <ele>58.8</ele>
        <time>2020-06-26T15:03:45Z</time>
      </trkpt>
      <trkpt lat="43.32306" lon="3.1677">
        <ele>58.6</ele>
        <time>2020-06-26T15:03:44Z</time>
      </trkpt>
      <trkpt lat="43.32308" lon="3.16779">
        <ele>58.6</ele>
        <time>2020-06-26T15:03:43Z</time>
      </trkpt>
      <trkpt lat="43.32309" lon="3.16787">
        <ele>58.6</ele>
        <time>2020-06-26T15:03:42Z</time>
      </trkpt>
      <trkpt lat="43.32312" lon="3.16794">
        <ele>58.6</ele>
        <time>2020-06-26T15:03:41Z</time>
      </trkpt>
      <trkpt lat="43.32313" lon="3.168">
        <ele>58.4</ele>
        <time>2020-06-26T15:03:40Z</time>
      </trkpt>
      <trkpt lat="43.32314" lon="3.16808">
        <ele>58.6</ele>
        <time>2020-06-26T15:03:39Z</time>
      </trkpt>
      <trkpt lat="43.32316" lon="3.16814">
        <ele>58.6</ele>
        <time>2020-06-26T15:03:38Z</time>
      </trkpt>
      <trkpt lat="43.32319" lon="3.16822">
        <ele>58.6</ele>
        <time>2020-06-26T15:03:37Z</time>
      </trkpt>
      <trkpt lat="43.32321" lon="3.1683">
        <ele>58.6</ele>
        <time>2020-06-26T15:03:36Z</time>
      </trkpt>
      <trkpt lat="43.32323" lon="3.16838">
        <ele>58.6</ele>
        <time>2020-06-26T15:03:35Z</time>
      </trkpt>
      <trkpt lat="43.32326" lon="3.16846">
        <ele>58.8</ele>
        <time>2020-06-26T15:03:34Z</time>
      </trkpt>
      <trkpt lat="43.3233" lon="3.16853">
        <ele>58.8</ele>
        <time>2020-06-26T15:03:33Z</time>
      </trkpt>
      <trkpt lat="43.32332" lon="3.1686">
        <ele>59</ele>
        <time>2020-06-26T15:03:32Z</time>
      </trkpt>
      <trkpt lat="43.32334" lon="3.16867">
        <ele>59.2</ele>
        <time>2020-06-26T15:03:31Z</time>
      </trkpt>
      <trkpt lat="43.32336" lon="3.16874">
        <ele>59.2</ele>
        <time>2020-06-26T15:03:30Z</time>
      </trkpt>
      <trkpt lat="43.3234" lon="3.16881">
        <ele>59.4</ele>
        <time>2020-06-26T15:03:29Z</time>
      </trkpt>
      <trkpt lat="43.32342" lon="3.16888">
        <ele>59.4</ele>
        <time>2020-06-26T15:03:28Z</time>
      </trkpt>
      <trkpt lat="43.32344" lon="3.16895">
        <ele>59.4</ele>
        <time>2020-06-26T15:03:27Z</time>
      </trkpt>
      <trkpt lat="43.32345" lon="3.16901">
        <ele>59.6</ele>
        <time>2020-06-26T15:03:26Z</time>
      </trkpt>
      <trkpt lat="43.32347" lon="3.16907">
        <ele>59.8</ele>
        <time>2020-06-26T15:03:25Z</time>
      </trkpt>
      <trkpt lat="43.3235" lon="3.16914">
        <ele>59.6</ele>
        <time>2020-06-26T15:03:24Z</time>
      </trkpt>
      <trkpt lat="43.32353" lon="3.16921">
        <ele>59.6</ele>
        <time>2020-06-26T15:03:23Z</time>
      </trkpt>
      <trkpt lat="43.32354" lon="3.16928">
        <ele>59.6</ele>
        <time>2020-06-26T15:03:22Z</time>
      </trkpt>
      <trkpt lat="43.32354" lon="3.16935">
        <ele>59.4</ele>
        <time>2020-06-26T15:03:21Z</time>
      </trkpt>
      <trkpt lat="43.32357" lon="3.16941">
        <ele>59.4</ele>
        <time>2020-06-26T15:03:20Z</time>
      </trkpt>
      <trkpt lat="43.32361" lon="3.16947">
        <ele>59.4</ele>
        <time>2020-06-26T15:03:19Z</time>
      </trkpt>
      <trkpt lat="43.32364" lon="3.16954">
        <ele>59.4</ele>
        <time>2020-06-26T15:03:18Z</time>
      </trkpt>
      <trkpt lat="43.32366" lon="3.16961">
        <ele>59.4</ele>
        <time>2020-06-26T15:03:17Z</time>
      </trkpt>
      <trkpt lat="43.32369" lon="3.16968">
        <ele>59.4</ele>
        <time>2020-06-26T15:03:16Z</time>
      </trkpt>
      <trkpt lat="43.32372" lon="3.16975">
        <ele>59.4</ele>
        <time>2020-06-26T15:03:15Z</time>
      </trkpt>
      <trkpt lat="43.32376" lon="3.16982">
        <ele>59.4</ele>
        <time>2020-06-26T15:03:14Z</time>
      </trkpt>
      <trkpt lat="43.32379" lon="3.1699">
        <ele>59.4</ele>
        <time>2020-06-26T15:03:13Z</time>
      </trkpt>
      <trkpt lat="43.3238" lon="3.16996">
        <ele>59.4</ele>
        <time>2020-06-26T15:03:12Z</time>
      </trkpt>
      <trkpt lat="43.32381" lon="3.17001">
        <ele>59.4</ele>
        <time>2020-06-26T15:03:11Z</time>
      </trkpt>
      <trkpt lat="43.32383" lon="3.17008">
        <ele>59.4</ele>
        <time>2020-06-26T15:03:10Z</time>
      </trkpt>
      <trkpt lat="43.32386" lon="3.17014">
        <ele>59.2</ele>
        <time>2020-06-26T15:03:09Z</time>
      </trkpt>
      <trkpt lat="43.3239" lon="3.17021">
        <ele>59.4</ele>
        <time>2020-06-26T15:03:08Z</time>
      </trkpt>
      <trkpt lat="43.32393" lon="3.17027">
        <ele>59.4</ele>
        <time>2020-06-26T15:03:07Z</time>
      </trkpt>
      <trkpt lat="43.32395" lon="3.17033">
        <ele>59.4</ele>
        <time>2020-06-26T15:03:06Z</time>
      </trkpt>
      <trkpt lat="43.32396" lon="3.17038">
        <ele>59.4</ele>
        <time>2020-06-26T15:03:05Z</time>
      </trkpt>
      <trkpt lat="43.32397" lon="3.17044">
        <ele>59.4</ele>
        <time>2020-06-26T15:03:04Z</time>
      </trkpt>
      <trkpt lat="43.32399" lon="3.1705">
        <ele>59.4</ele>
        <time>2020-06-26T15:03:03Z</time>
      </trkpt>
      <trkpt lat="43.324" lon="3.17055">
        <ele>59.2</ele>
        <time>2020-06-26T15:03:02Z</time>
      </trkpt>
      <trkpt lat="43.32402" lon="3.1706">
        <ele>59.2</ele>
        <time>2020-06-26T15:03:01Z</time>
      </trkpt>
      <trkpt lat="43.32405" lon="3.17066">
        <ele>59.2</ele>
        <time>2020-06-26T15:03:00Z</time>
      </trkpt>
      <trkpt lat="43.32407" lon="3.17073">
        <ele>59</ele>
        <time>2020-06-26T15:02:59Z</time>
      </trkpt>
      <trkpt lat="43.32408" lon="3.17076">
        <ele>59</ele>
        <time>2020-06-26T15:02:58Z</time>
      </trkpt>
      <trkpt lat="43.32411" lon="3.17082">
        <ele>59</ele>
        <time>2020-06-26T15:02:57Z</time>
      </trkpt>
      <trkpt lat="43.32415" lon="3.17088">
        <ele>59</ele>
        <time>2020-06-26T15:02:56Z</time>
      </trkpt>
      <trkpt lat="43.32418" lon="3.17093">
        <ele>59</ele>
        <time>2020-06-26T15:02:55Z</time>
      </trkpt>
      <trkpt lat="43.32422" lon="3.17098">
        <ele>58.8</ele>
        <time>2020-06-26T15:02:54Z</time>
      </trkpt>
      <trkpt lat="43.32425" lon="3.17104">
        <ele>58.8</ele>
        <time>2020-06-26T15:02:53Z</time>
      </trkpt>
      <trkpt lat="43.32427" lon="3.1711">
        <ele>58.6</ele>
        <time>2020-06-26T15:02:52Z</time>
      </trkpt>
      <trkpt lat="43.32431" lon="3.17117">
        <ele>58.4</ele>
        <time>2020-06-26T15:02:51Z</time>
      </trkpt>
      <trkpt lat="43.32435" lon="3.17123">
        <ele>58.4</ele>
        <time>2020-06-26T15:02:50Z</time>
      </trkpt>
      <trkpt lat="43.32437" lon="3.17131">
        <ele>58.6</ele>
        <time>2020-06-26T15:02:49Z</time>
      </trkpt>
      <trkpt lat="43.3244" lon="3.17137">
        <ele>58.6</ele>
        <time>2020-06-26T15:02:48Z</time>
      </trkpt>
      <trkpt lat="43.32441" lon="3.17142">
        <ele>58.4</ele>
        <time>2020-06-26T15:02:47Z</time>
      </trkpt>
      <trkpt lat="43.32444" lon="3.17149">
        <ele>58.6</ele>
        <time>2020-06-26T15:02:46Z</time>
      </trkpt>
      <trkpt lat="43.32447" lon="3.17155">
        <ele>58.4</ele>
        <time>2020-06-26T15:02:45Z</time>
      </trkpt>
      <trkpt lat="43.32449" lon="3.17162">
        <ele>58.6</ele>
        <time>2020-06-26T15:02:44Z</time>
      </trkpt>
      <trkpt lat="43.32452" lon="3.17169">
        <ele>58.6</ele>
        <time>2020-06-26T15:02:43Z</time>
      </trkpt>
      <trkpt lat="43.32454" lon="3.17176">
        <ele>58.6</ele>
        <time>2020-06-26T15:02:42Z</time>
      </trkpt>
      <trkpt lat="43.32456" lon="3.17183">
        <ele>58.8</ele>
        <time>2020-06-26T15:02:41Z</time>
      </trkpt>
      <trkpt lat="43.32458" lon="3.1719">
        <ele>58.6</ele>
        <time>2020-06-26T15:02:40Z</time>
      </trkpt>
      <trkpt lat="43.32462" lon="3.17198">
        <ele>58.8</ele>
        <time>2020-06-26T15:02:39Z</time>
      </trkpt>
      <trkpt lat="43.32465" lon="3.17204">
        <ele>58.6</ele>
        <time>2020-06-26T15:02:38Z</time>
      </trkpt>
      <trkpt lat="43.32469" lon="3.17212">
        <ele>58.4</ele>
        <time>2020-06-26T15:02:37Z</time>
      </trkpt>
      <trkpt lat="43.32472" lon="3.17218">
        <ele>58.2</ele>
        <time>2020-06-26T15:02:36Z</time>
      </trkpt>
      <trkpt lat="43.32474" lon="3.17224">
        <ele>58.4</ele>
        <time>2020-06-26T15:02:35Z</time>
      </trkpt>
      <trkpt lat="43.32477" lon="3.17231">
        <ele>58.6</ele>
        <time>2020-06-26T15:02:34Z</time>
      </trkpt>
      <trkpt lat="43.3248" lon="3.17238">
        <ele>58.6</ele>
        <time>2020-06-26T15:02:33Z</time>
      </trkpt>
      <trkpt lat="43.32484" lon="3.17246">
        <ele>58.8</ele>
        <time>2020-06-26T15:02:32Z</time>
      </trkpt>
      <trkpt lat="43.32487" lon="3.17253">
        <ele>58.6</ele>
        <time>2020-06-26T15:02:31Z</time>
      </trkpt>
      <trkpt lat="43.3249" lon="3.1726">
        <ele>58.6</ele>
        <time>2020-06-26T15:02:30Z</time>
      </trkpt>
      <trkpt lat="43.32494" lon="3.17268">
        <ele>58.6</ele>
        <time>2020-06-26T15:02:29Z</time>
      </trkpt>
      <trkpt lat="43.32497" lon="3.17276">
        <ele>58.8</ele>
        <time>2020-06-26T15:02:28Z</time>
      </trkpt>
      <trkpt lat="43.32499" lon="3.17283">
        <ele>58.8</ele>
        <time>2020-06-26T15:02:27Z</time>
      </trkpt>
      <trkpt lat="43.32502" lon="3.17291">
        <ele>58.8</ele>
        <time>2020-06-26T15:02:26Z</time>
      </trkpt>
      <trkpt lat="43.32505" lon="3.17299">
        <ele>59</ele>
        <time>2020-06-26T15:02:25Z</time>
      </trkpt>
      <trkpt lat="43.32506" lon="3.17306">
        <ele>59</ele>
        <time>2020-06-26T15:02:24Z</time>
      </trkpt>
      <trkpt lat="43.3251" lon="3.17314">
        <ele>59.2</ele>
        <time>2020-06-26T15:02:23Z</time>
      </trkpt>
      <trkpt lat="43.32513" lon="3.17322">
        <ele>59.2</ele>
        <time>2020-06-26T15:02:22Z</time>
      </trkpt>
      <trkpt lat="43.32516" lon="3.1733">
        <ele>59.4</ele>
        <time>2020-06-26T15:02:21Z</time>
      </trkpt>
      <trkpt lat="43.3252" lon="3.17339">
        <ele>59.4</ele>
        <time>2020-06-26T15:02:20Z</time>
      </trkpt>
      <trkpt lat="43.32523" lon="3.17347">
        <ele>59.4</ele>
        <time>2020-06-26T15:02:19Z</time>
      </trkpt>
      <trkpt lat="43.32525" lon="3.17354">
        <ele>59.4</ele>
        <time>2020-06-26T15:02:18Z</time>
      </trkpt>
      <trkpt lat="43.32527" lon="3.17363">
        <ele>59.6</ele>
        <time>2020-06-26T15:02:17Z</time>
      </trkpt>
      <trkpt lat="43.32529" lon="3.17371">
        <ele>59.6</ele>
        <time>2020-06-26T15:02:16Z</time>
      </trkpt>
      <trkpt lat="43.32533" lon="3.17379">
        <ele>59.6</ele>
        <time>2020-06-26T15:02:15Z</time>
      </trkpt>
      <trkpt lat="43.32536" lon="3.17385">
        <ele>59.8</ele>
        <time>2020-06-26T15:02:14Z</time>
      </trkpt>
      <trkpt lat="43.32538" lon="3.17391">
        <ele>60</ele>
        <time>2020-06-26T15:02:13Z</time>
      </trkpt>
      <trkpt lat="43.32542" lon="3.17397">
        <ele>60</ele>
        <time>2020-06-26T15:02:12Z</time>
      </trkpt>
      <trkpt lat="43.32545" lon="3.17405">
        <ele>60.2</ele>
        <time>2020-06-26T15:02:11Z</time>
      </trkpt>
      <trkpt lat="43.32549" lon="3.17413">
        <ele>60.4</ele>
        <time>2020-06-26T15:02:10Z</time>
      </trkpt>
      <trkpt lat="43.32553" lon="3.1742">
        <ele>60.4</ele>
        <time>2020-06-26T15:02:09Z</time>
      </trkpt>
      <trkpt lat="43.32555" lon="3.17426">
        <ele>60.6</ele>
        <time>2020-06-26T15:02:08Z</time>
      </trkpt>
      <trkpt lat="43.32557" lon="3.17433">
        <ele>60.8</ele>
        <time>2020-06-26T15:02:07Z</time>
      </trkpt>
      <trkpt lat="43.32559" lon="3.1744">
        <ele>60.8</ele>
        <time>2020-06-26T15:02:06Z</time>
      </trkpt>
      <trkpt lat="43.32561" lon="3.17446">
        <ele>61</ele>
        <time>2020-06-26T15:02:05Z</time>
      </trkpt>
      <trkpt lat="43.32564" lon="3.17453">
        <ele>61</ele>
        <time>2020-06-26T15:02:04Z</time>
      </trkpt>
      <trkpt lat="43.32567" lon="3.1746">
        <ele>61</ele>
        <time>2020-06-26T15:02:03Z</time>
      </trkpt>
      <trkpt lat="43.32568" lon="3.17466">
        <ele>61</ele>
        <time>2020-06-26T15:02:02Z</time>
      </trkpt>
      <trkpt lat="43.3257" lon="3.17472">
        <ele>61</ele>
        <time>2020-06-26T15:02:01Z</time>
      </trkpt>
      <trkpt lat="43.32572" lon="3.17479">
        <ele>61</ele>
        <time>2020-06-26T15:02:00Z</time>
      </trkpt>
      <trkpt lat="43.32575" lon="3.17484">
        <ele>61</ele>
        <time>2020-06-26T15:01:59Z</time>
      </trkpt>
      <trkpt lat="43.32576" lon="3.1749">
        <ele>60.8</ele>
        <time>2020-06-26T15:01:58Z</time>
      </trkpt>
      <trkpt lat="43.3258" lon="3.17498">
        <ele>60.8</ele>
        <time>2020-06-26T15:01:57Z</time>
      </trkpt>
      <trkpt lat="43.32583" lon="3.17504">
        <ele>60.8</ele>
        <time>2020-06-26T15:01:56Z</time>
      </trkpt>
      <trkpt lat="43.32584" lon="3.17511">
        <ele>60.8</ele>
        <time>2020-06-26T15:01:55Z</time>
      </trkpt>
      <trkpt lat="43.32587" lon="3.17517">
        <ele>60.8</ele>
        <time>2020-06-26T15:01:54Z</time>
      </trkpt>
      <trkpt lat="43.32589" lon="3.17523">
        <ele>61</ele>
        <time>2020-06-26T15:01:53Z</time>
      </trkpt>
      <trkpt lat="43.32592" lon="3.1753">
        <ele>61</ele>
        <time>2020-06-26T15:01:52Z</time>
      </trkpt>
      <trkpt lat="43.32594" lon="3.17536">
        <ele>61</ele>
        <time>2020-06-26T15:01:51Z</time>
      </trkpt>
      <trkpt lat="43.32597" lon="3.17541">
        <ele>60.8</ele>
        <time>2020-06-26T15:01:50Z</time>
      </trkpt>
      <trkpt lat="43.326" lon="3.17548">
        <ele>61</ele>
        <time>2020-06-26T15:01:49Z</time>
      </trkpt>
      <trkpt lat="43.32601" lon="3.17553">
        <ele>61</ele>
        <time>2020-06-26T15:01:48Z</time>
      </trkpt>
      <trkpt lat="43.32601" lon="3.17559">
        <ele>61.2</ele>
        <time>2020-06-26T15:01:47Z</time>
      </trkpt>
      <trkpt lat="43.32602" lon="3.17563">
        <ele>61.4</ele>
        <time>2020-06-26T15:01:46Z</time>
      </trkpt>
      <trkpt lat="43.32605" lon="3.17568">
        <ele>61.2</ele>
        <time>2020-06-26T15:01:45Z</time>
      </trkpt>
      <trkpt lat="43.32609" lon="3.17574">
        <ele>61.2</ele>
        <time>2020-06-26T15:01:44Z</time>
      </trkpt>
      <trkpt lat="43.32611" lon="3.17578">
        <ele>61.2</ele>
        <time>2020-06-26T15:01:43Z</time>
      </trkpt>
      <trkpt lat="43.32614" lon="3.17583">
        <ele>61</ele>
        <time>2020-06-26T15:01:42Z</time>
      </trkpt>
      <trkpt lat="43.32615" lon="3.17588">
        <ele>61</ele>
        <time>2020-06-26T15:01:41Z</time>
      </trkpt>
      <trkpt lat="43.3262" lon="3.17593">
        <ele>61.2</ele>
        <time>2020-06-26T15:01:40Z</time>
      </trkpt>
      <trkpt lat="43.32622" lon="3.17597">
        <ele>61.2</ele>
        <time>2020-06-26T15:01:39Z</time>
      </trkpt>
      <trkpt lat="43.32625" lon="3.17602">
        <ele>61.2</ele>
        <time>2020-06-26T15:01:38Z</time>
      </trkpt>
      <trkpt lat="43.32629" lon="3.17606">
        <ele>61.2</ele>
        <time>2020-06-26T15:01:37Z</time>
      </trkpt>
      <trkpt lat="43.32633" lon="3.17608">
        <ele>61.2</ele>
        <time>2020-06-26T15:01:36Z</time>
      </trkpt>
      <trkpt lat="43.32636" lon="3.17613">
        <ele>61.2</ele>
        <time>2020-06-26T15:01:35Z</time>
      </trkpt>
      <trkpt lat="43.32639" lon="3.17617">
        <ele>61.2</ele>
        <time>2020-06-26T15:01:34Z</time>
      </trkpt>
      <trkpt lat="43.32641" lon="3.17619">
        <ele>61.2</ele>
        <time>2020-06-26T15:01:33Z</time>
      </trkpt>
      <trkpt lat="43.32643" lon="3.17622">
        <ele>61.2</ele>
        <time>2020-06-26T15:01:32Z</time>
      </trkpt>
      <trkpt lat="43.32645" lon="3.17624">
        <ele>58.8</ele>
        <time>2020-06-26T15:01:31Z</time>
      </trkpt>
      <trkpt lat="43.32649" lon="3.17627">
        <ele>58.8</ele>
        <time>2020-06-26T15:01:30Z</time>
      </trkpt>
      <trkpt lat="43.32651" lon="3.17631">
        <ele>58.8</ele>
        <time>2020-06-26T15:01:29Z</time>
      </trkpt>
      <trkpt lat="43.32651" lon="3.17634">
        <ele>58.8</ele>
        <time>2020-06-26T15:01:28Z</time>
      </trkpt>
      <trkpt lat="43.32654" lon="3.17635">
        <ele>58.8</ele>
        <time>2020-06-26T15:01:27Z</time>
      </trkpt>
      <trkpt lat="43.32658" lon="3.17641">
        <ele>39.1</ele>
      </trkpt>
      <trkpt lat="43.32676" lon="3.17646">
        <ele>38.9</ele>
      </trkpt>
      <trkpt lat="43.32719" lon="3.17639">
        <ele>38.9</ele>
      </trkpt>
      <trkpt lat="43.32738" lon="3.17637">
        <ele>38.9</ele>
      </trkpt>
      <trkpt lat="43.32765" lon="3.17631">
        <ele>38.1</ele>
      </trkpt>
      <trkpt lat="43.3278" lon="3.17624">
        <ele>38</ele>
      </trkpt>
      <trkpt lat="43.32785" lon="3.17622">
        <ele>37.9</ele>
      </trkpt>
      <trkpt lat="43.32811" lon="3.17614">
        <ele>37.4</ele>
      </trkpt>
      <trkpt lat="43.32822" lon="3.17612">
        <ele>37.2</ele>
      </trkpt>
      <trkpt lat="43.32822" lon="3.17614">
        <ele>37.2</ele>
      </trkpt>
      <trkpt lat="43.32822" lon="3.17612">
        <ele>37.2</ele>
      </trkpt>
      <trkpt lat="43.32818" lon="3.17632">
        <ele>37.2</ele>
      </trkpt>
      <trkpt lat="43.32818" lon="3.17661">
        <ele>36.8</ele>
      </trkpt>
      <trkpt lat="43.3282" lon="3.17672">
        <ele>36</ele>
      </trkpt>
      <trkpt lat="43.32824" lon="3.17706">
        <ele>35.7</ele>
      </trkpt>
      <trkpt lat="43.32825" lon="3.17723">
        <ele>35.4</ele>
      </trkpt>
      <trkpt lat="43.32823" lon="3.17765">
        <ele>34.9</ele>
      </trkpt>
      <trkpt lat="43.3282" lon="3.17786">
        <ele>35.3</ele>
      </trkpt>
      <trkpt lat="43.32813" lon="3.17822">
        <ele>35.5</ele>
      </trkpt>
      <trkpt lat="43.32759" lon="3.18023">
        <ele>37</ele>
      </trkpt>
      <trkpt lat="43.3275" lon="3.18065">
        <ele>36.3</ele>
      </trkpt>
      <trkpt lat="43.32746" lon="3.18103">
        <ele>36.9</ele>
      </trkpt>
      <trkpt lat="43.32744" lon="3.18129">
        <ele>37.3</ele>
      </trkpt>
      <trkpt lat="43.32737" lon="3.18241">
        <ele>35.9</ele>
      </trkpt>
      <trkpt lat="43.32722" lon="3.18368">
        <ele>37</ele>
      </trkpt>
      <trkpt lat="43.32716" lon="3.18422">
        <ele>39.3</ele>
      </trkpt>
      <trkpt lat="43.32714" lon="3.18437">
        <ele>39.5</ele>
      </trkpt>
      <trkpt lat="43.32701" lon="3.18541">
        <ele>38.8</ele>
      </trkpt>
      <trkpt lat="43.32678" lon="3.18712">
        <ele>38.3</ele>
      </trkpt>
      <trkpt lat="43.32676" lon="3.18752">
        <ele>39</ele>
      </trkpt>
      <trkpt lat="43.32678" lon="3.18781">
        <ele>37.9</ele>
      </trkpt>
      <trkpt lat="43.3268" lon="3.1879">
        <ele>37.8</ele>
      </trkpt>
      <trkpt lat="43.32687" lon="3.18827">
        <ele>37.8</ele>
      </trkpt>
      <trkpt lat="43.327" lon="3.18856">
        <ele>38.3</ele>
      </trkpt>
      <trkpt lat="43.32751" lon="3.18926">
        <ele>40.7</ele>
      </trkpt>
      <trkpt lat="43.32782" lon="3.18966">
        <ele>40.4</ele>
      </trkpt>
      <trkpt lat="43.32798" lon="3.18985">
        <ele>40.2</ele>
      </trkpt>
      <trkpt lat="43.32814" lon="3.19004">
        <ele>39.9</ele>
      </trkpt>
      <trkpt lat="43.32843" lon="3.19045">
        <ele>38.2</ele>
      </trkpt>
      <trkpt lat="43.32899" lon="3.19133">
        <ele>39.7</ele>
      </trkpt>
      <trkpt lat="43.32928" lon="3.19158">
        <ele>40.1</ele>
      </trkpt>
      <trkpt lat="43.32972" lon="3.19177">
        <ele>39.3</ele>
      </trkpt>
      <trkpt lat="43.32981" lon="3.19181">
        <ele>39.1</ele>
      </trkpt>
      <trkpt lat="43.33032" lon="3.192">
        <ele>35.6</ele>
      </trkpt>
      <trkpt lat="43.3305" lon="3.19211">
        <ele>34.9</ele>
      </trkpt>
      <trkpt lat="43.33058" lon="3.19225">
        <ele>34.6</ele>
      </trkpt>
      <trkpt lat="43.33066" lon="3.19266">
        <ele>34.5</ele>
      </trkpt>
      <trkpt lat="43.33068" lon="3.193">
        <ele>35</ele>
      </trkpt>
      <trkpt lat="43.33065" lon="3.19359">
        <ele>35.3</ele>
      </trkpt>
      <trkpt lat="43.33062" lon="3.19374">
        <ele>35.6</ele>
      </trkpt>
      <trkpt lat="43.3306" lon="3.194">
        <ele>35.6</ele>
      </trkpt>
      <trkpt lat="43.3306" lon="3.19407">
        <ele>35.5</ele>
      </trkpt>
      <trkpt lat="43.33064" lon="3.19419">
        <ele>35.7</ele>
      </trkpt>
      <trkpt lat="43.33063" lon="3.19433">
        <ele>36</ele>
      </trkpt>
      <trkpt lat="43.33054" lon="3.19481">
        <ele>36.5</ele>
      </trkpt>
      <trkpt lat="43.33053" lon="3.19512">
        <ele>36.6</ele>
      </trkpt>
      <trkpt lat="43.33055" lon="3.19573">
        <ele>36.1</ele>
      </trkpt>
      <trkpt lat="43.33059" lon="3.19613">
        <ele>34.4</ele>
      </trkpt>
      <trkpt lat="43.33058" lon="3.19635">
        <ele>33.9</ele>
      </trkpt>
      <trkpt lat="43.33049" lon="3.19672">
        <ele>32</ele>
      </trkpt>
      <trkpt lat="43.33038" lon="3.19705">
        <ele>32.5</ele>
      </trkpt>
      <trkpt lat="43.33023" lon="3.19739">
        <ele>33.1</ele>
      </trkpt>
      <trkpt lat="43.33017" lon="3.19746">
        <ele>33.5</ele>
      </trkpt>
      <trkpt lat="43.33015" lon="3.19759">
        <ele>32.8</ele>
      </trkpt>
      <trkpt lat="43.33013" lon="3.19788">
        <ele>32.1</ele>
      </trkpt>
      <trkpt lat="43.33015" lon="3.19805">
        <ele>32.1</ele>
      </trkpt>
      <trkpt lat="43.33019" lon="3.19818">
        <ele>32.3</ele>
      </trkpt>
      <trkpt lat="43.33051" lon="3.19905">
        <ele>29.1</ele>
      </trkpt>
      <trkpt lat="43.33081" lon="3.19984">
        <ele>23.3</ele>
      </trkpt>
      <trkpt lat="43.33108" lon="3.20052">
        <ele>18.2</ele>
      </trkpt>
      <trkpt lat="43.3312" lon="3.20065">
        <ele>18</ele>
      </trkpt>
      <trkpt lat="43.33128" lon="3.20082">
        <ele>17.7</ele>
      </trkpt>
      <trkpt lat="43.33133" lon="3.20095">
        <ele>16.9</ele>
      </trkpt>
      <trkpt lat="43.33135" lon="3.20098">
        <ele>16.9</ele>
      </trkpt>
      <trkpt lat="43.33142" lon="3.20119">
        <ele>16.7</ele>
      </trkpt>
      <trkpt lat="43.3315" lon="3.20122">
        <ele>16.5</ele>
      </trkpt>
      <trkpt lat="43.33152" lon="3.2013">
        <ele>16.3</ele>
      </trkpt>
      <trkpt lat="43.33142" lon="3.20137">
        <ele>16.4</ele>
      </trkpt>
    </trkseg>
  </trk>
  <trk>
    <name><![CDATA[Agde - Narbonne par Gruissan]]></name>
    <extensions>
      <line xmlns="http://www.topografix.com/GPX/gpx_style/0/2">
        <color>ff00ea</color>
        <width>4</width>
      </line>
    </extensions>
    <trkseg>
      <trkpt lat="43.31479" lon="3.46988">
        <ele>6.8</ele>
      </trkpt>
      <trkpt lat="43.31479" lon="3.46988">
        <ele>6.8</ele>
      </trkpt>
      <trkpt lat="43.31478" lon="3.46988">
        <ele>6.9</ele>
      </trkpt>
      <trkpt lat="43.31477" lon="3.46983">
        <ele>6.8</ele>
      </trkpt>
      <trkpt lat="43.31478" lon="3.46976">
        <ele>6.4</ele>
      </trkpt>
      <trkpt lat="43.31482" lon="3.46959">
        <ele>5.4</ele>
      </trkpt>
      <trkpt lat="43.31512" lon="3.46881">
        <ele>5.2</ele>
      </trkpt>
      <trkpt lat="43.31522" lon="3.46861">
        <ele>6.8</ele>
      </trkpt>
      <trkpt lat="43.31527" lon="3.46851">
        <ele>7.5</ele>
      </trkpt>
      <trkpt lat="43.31522" lon="3.46845">
        <ele>7.9</ele>
      </trkpt>
      <trkpt lat="43.3152" lon="3.46849">
        <ele>7.6</ele>
      </trkpt>
      <trkpt lat="43.31516" lon="3.46851">
        <ele>7.5</ele>
      </trkpt>
      <trkpt lat="43.31511" lon="3.46853">
        <ele>7.3</ele>
      </trkpt>
      <trkpt lat="43.31502" lon="3.46849">
        <ele>7.7</ele>
      </trkpt>
      <trkpt lat="43.31489" lon="3.46828">
        <ele>8.9</ele>
      </trkpt>
      <trkpt lat="43.31485" lon="3.46822">
        <ele>8.9</ele>
      </trkpt>
      <trkpt lat="43.31459" lon="3.46787">
        <ele>8.5</ele>
      </trkpt>
      <trkpt lat="43.31423" lon="3.46747">
        <ele>7.3</ele>
      </trkpt>
      <trkpt lat="43.31377" lon="3.46698">
        <ele>6.9</ele>
      </trkpt>
      <trkpt lat="43.31305" lon="3.46619">
        <ele>4.6</ele>
      </trkpt>
      <trkpt lat="43.31265" lon="3.46585">
        <ele>4.8</ele>
      </trkpt>
      <trkpt lat="43.31255" lon="3.46577">
        <ele>5</ele>
      </trkpt>
      <trkpt lat="43.31215" lon="3.46538">
        <ele>5.8</ele>
      </trkpt>
      <trkpt lat="43.31169" lon="3.46498">
        <ele>6.9</ele>
      </trkpt>
      <trkpt lat="43.31145" lon="3.4648">
        <ele>4.7</ele>
      </trkpt>
      <trkpt lat="43.31116" lon="3.46457">
        <ele>3</ele>
      </trkpt>
      <trkpt lat="43.31068" lon="3.46424">
        <ele>2.8</ele>
      </trkpt>
      <trkpt lat="43.31061" lon="3.46421">
        <ele>2.9</ele>
      </trkpt>
      <trkpt lat="43.31041" lon="3.46413">
        <ele>3</ele>
      </trkpt>
      <trkpt lat="43.31038" lon="3.46412">
        <ele>3.1</ele>
      </trkpt>
      <trkpt lat="43.30998" lon="3.464">
        <ele>3.5</ele>
      </trkpt>
      <trkpt lat="43.30964" lon="3.46395">
        <ele>2.8</ele>
      </trkpt>
      <trkpt lat="43.30939" lon="3.46386">
        <ele>2.4</ele>
      </trkpt>
      <trkpt lat="43.3093" lon="3.4638">
        <ele>2.3</ele>
      </trkpt>
      <trkpt lat="43.30919" lon="3.46379">
        <ele>2</ele>
      </trkpt>
      <trkpt lat="43.30905" lon="3.46387">
        <ele>1.7</ele>
      </trkpt>
      <trkpt lat="43.30897" lon="3.46386">
        <ele>1.7</ele>
      </trkpt>
      <trkpt lat="43.30853" lon="3.46382">
        <ele>1.8</ele>
      </trkpt>
      <trkpt lat="43.30797" lon="3.46383">
        <ele>2.56</ele>
      </trkpt>
      <trkpt lat="43.30687" lon="3.46389">
        <ele>1.3</ele>
      </trkpt>
      <trkpt lat="43.30669" lon="3.4639">
        <ele>1.3</ele>
      </trkpt>
      <trkpt lat="43.30625" lon="3.46392">
        <ele>1</ele>
      </trkpt>
      <trkpt lat="43.30616" lon="3.46393">
        <ele>1</ele>
      </trkpt>
      <trkpt lat="43.30549" lon="3.46393">
        <ele>1</ele>
      </trkpt>
      <trkpt lat="43.30479" lon="3.46386">
        <ele>2.4</ele>
      </trkpt>
      <trkpt lat="43.30429" lon="3.46377">
        <ele>2.5</ele>
      </trkpt>
      <trkpt lat="43.30382" lon="3.46363">
        <ele>2.2</ele>
      </trkpt>
      <trkpt lat="43.30338" lon="3.46351">
        <ele>1.8</ele>
      </trkpt>
      <trkpt lat="43.3032" lon="3.46345">
        <ele>1.9</ele>
      </trkpt>
      <trkpt lat="43.3022" lon="3.46305">
        <ele>1.6</ele>
      </trkpt>
      <trkpt lat="43.30116" lon="3.46245">
        <ele>2.3</ele>
      </trkpt>
      <trkpt lat="43.30101" lon="3.46235">
        <ele>2.7</ele>
      </trkpt>
      <trkpt lat="43.30089" lon="3.46224">
        <ele>2.9</ele>
      </trkpt>
      <trkpt lat="43.30078" lon="3.46213">
        <ele>3</ele>
      </trkpt>
      <trkpt lat="43.30059" lon="3.46193">
        <ele>3</ele>
      </trkpt>
      <trkpt lat="43.30034" lon="3.46163">
        <ele>2.9</ele>
      </trkpt>
      <trkpt lat="43.30016" lon="3.46128">
        <ele>2.1</ele>
      </trkpt>
      <trkpt lat="43.30008" lon="3.46107">
        <ele>1.6</ele>
      </trkpt>
      <trkpt lat="43.29991" lon="3.46034">
        <ele>1.6</ele>
      </trkpt>
      <trkpt lat="43.29982" lon="3.45986">
        <ele>1.8</ele>
      </trkpt>
      <trkpt lat="43.29979" lon="3.45954">
        <ele>1.4</ele>
      </trkpt>
      <trkpt lat="43.29974" lon="3.45877">
        <ele>1</ele>
      </trkpt>
      <trkpt lat="43.29967" lon="3.4581">
        <ele>1.3</ele>
      </trkpt>
      <trkpt lat="43.29954" lon="3.45738">
        <ele>2.1</ele>
      </trkpt>
      <trkpt lat="43.29945" lon="3.4568">
        <ele>2.8</ele>
      </trkpt>
      <trkpt lat="43.29938" lon="3.45653">
        <ele>2.7</ele>
      </trkpt>
      <trkpt lat="43.29883" lon="3.45475">
        <ele>1.8</ele>
      </trkpt>
      <trkpt lat="43.2987" lon="3.45431">
        <ele>1.8</ele>
      </trkpt>
      <trkpt lat="43.29829" lon="3.45311">
        <ele>1</ele>
      </trkpt>
      <trkpt lat="43.29812" lon="3.45267">
        <ele>1</ele>
      </trkpt>
      <trkpt lat="43.29778" lon="3.45198">
        <ele>1</ele>
      </trkpt>
      <trkpt lat="43.29771" lon="3.45187">
        <ele>1</ele>
      </trkpt>
      <trkpt lat="43.29773" lon="3.45181">
        <ele>1</ele>
      </trkpt>
      <trkpt lat="43.29774" lon="3.45171">
        <ele>1</ele>
      </trkpt>
      <trkpt lat="43.29776" lon="3.45156">
        <ele>1</ele>
      </trkpt>
      <trkpt lat="43.2979" lon="3.45132">
        <ele>1</ele>
      </trkpt>
      <trkpt lat="43.29793" lon="3.45113">
        <ele>1</ele>
      </trkpt>
      <trkpt lat="43.29782" lon="3.45026">
        <ele>1.5</ele>
      </trkpt>
      <trkpt lat="43.29777" lon="3.44949">
        <ele>2.7</ele>
      </trkpt>
      <trkpt lat="43.29798" lon="3.44893">
        <ele>4</ele>
      </trkpt>
      <trkpt lat="43.29799" lon="3.44881">
        <ele>3.8</ele>
      </trkpt>
      <trkpt lat="43.29792" lon="3.44827">
        <ele>2.9</ele>
      </trkpt>
      <trkpt lat="43.29787" lon="3.44767">
        <ele>2.2</ele>
      </trkpt>
      <trkpt lat="43.2979" lon="3.44669">
        <ele>2</ele>
      </trkpt>
      <trkpt lat="43.29789" lon="3.4464">
        <ele>1.9</ele>
      </trkpt>
      <trkpt lat="43.29788" lon="3.44638">
        <ele>1.9</ele>
      </trkpt>
      <trkpt lat="43.29785" lon="3.44632">
        <ele>1.9</ele>
      </trkpt>
      <trkpt lat="43.29768" lon="3.44617">
        <ele>2.1</ele>
      </trkpt>
      <trkpt lat="43.29762" lon="3.44612">
        <ele>2.2</ele>
      </trkpt>
      <trkpt lat="43.29758" lon="3.446">
        <ele>2.1</ele>
      </trkpt>
      <trkpt lat="43.29742" lon="3.44553">
        <ele>1.6</ele>
      </trkpt>
      <trkpt lat="43.2973" lon="3.44473">
        <ele>1.2</ele>
      </trkpt>
      <trkpt lat="43.29726" lon="3.4438">
        <ele>1.8</ele>
      </trkpt>
      <trkpt lat="43.29724" lon="3.44369">
        <ele>1.8</ele>
      </trkpt>
      <trkpt lat="43.29724" lon="3.4434">
        <ele>2</ele>
      </trkpt>
      <trkpt lat="43.29725" lon="3.44331">
        <ele>2</ele>
      </trkpt>
      <trkpt lat="43.29729" lon="3.44326">
        <ele>2.1</ele>
      </trkpt>
      <trkpt lat="43.29799" lon="3.44354">
        <ele>2.2</ele>
      </trkpt>
      <trkpt lat="43.2984" lon="3.44366">
        <ele>2.2</ele>
      </trkpt>
      <trkpt lat="43.29847" lon="3.44366">
        <ele>2.2</ele>
      </trkpt>
      <trkpt lat="43.29852" lon="3.44361">
        <ele>2.3</ele>
      </trkpt>
      <trkpt lat="43.29857" lon="3.44349">
        <ele>2.4</ele>
      </trkpt>
      <trkpt lat="43.29868" lon="3.44275">
        <ele>2.8</ele>
      </trkpt>
      <trkpt lat="43.29869" lon="3.44267">
        <ele>2.8</ele>
      </trkpt>
      <trkpt lat="43.29876" lon="3.44257">
        <ele>3</ele>
      </trkpt>
      <trkpt lat="43.29879" lon="3.44253">
        <ele>3.1</ele>
      </trkpt>
      <trkpt lat="43.29867" lon="3.44221">
        <ele>2.2</ele>
      </trkpt>
      <trkpt lat="43.29858" lon="3.44203">
        <ele>1.7</ele>
      </trkpt>
      <trkpt lat="43.29854" lon="3.44192">
        <ele>1.5</ele>
      </trkpt>
      <trkpt lat="43.29847" lon="3.44134">
        <ele>1.1</ele>
      </trkpt>
      <trkpt lat="43.29845" lon="3.44114">
        <ele>1.1</ele>
      </trkpt>
      <trkpt lat="43.29834" lon="3.44059">
        <ele>1</ele>
      </trkpt>
      <trkpt lat="43.298" lon="3.43945">
        <ele>1</ele>
      </trkpt>
      <trkpt lat="43.29798" lon="3.43932">
        <ele>1</ele>
      </trkpt>
      <trkpt lat="43.298" lon="3.43903">
        <ele>1.2</ele>
      </trkpt>
      <trkpt lat="43.29797" lon="3.43892">
        <ele>1.3</ele>
      </trkpt>
      <trkpt lat="43.29773" lon="3.43844">
        <ele>1.9</ele>
      </trkpt>
      <trkpt lat="43.29773" lon="3.43838">
        <ele>1.9</ele>
      </trkpt>
      <trkpt lat="43.29773" lon="3.43835">
        <ele>2</ele>
      </trkpt>
      <trkpt lat="43.29779" lon="3.43827">
        <ele>1.9</ele>
      </trkpt>
      <trkpt lat="43.29803" lon="3.43796">
        <ele>1.6</ele>
      </trkpt>
      <trkpt lat="43.29831" lon="3.43757">
        <ele>1.1</ele>
      </trkpt>
      <trkpt lat="43.29867" lon="3.43703">
        <ele>1</ele>
      </trkpt>
      <trkpt lat="43.29982" lon="3.43518">
        <ele>2</ele>
      </trkpt>
      <trkpt lat="43.30014" lon="3.43466">
        <ele>2</ele>
      </trkpt>
      <trkpt lat="43.30036" lon="3.43423">
        <ele>2</ele>
      </trkpt>
      <trkpt lat="43.30077" lon="3.43371">
        <ele>2</ele>
      </trkpt>
      <trkpt lat="43.30109" lon="3.4332">
        <ele>2</ele>
      </trkpt>
      <trkpt lat="43.3016" lon="3.43205">
        <ele>1.5</ele>
      </trkpt>
      <trkpt lat="43.30218" lon="3.43098">
        <ele>2.5</ele>
      </trkpt>
      <trkpt lat="43.30232" lon="3.43089">
        <ele>2.8</ele>
      </trkpt>
      <trkpt lat="43.30265" lon="3.43068">
        <ele>3.8</ele>
      </trkpt>
      <trkpt lat="43.30271" lon="3.43058">
        <ele>4.2</ele>
      </trkpt>
      <trkpt lat="43.30271" lon="3.43051">
        <ele>4.3</ele>
      </trkpt>
      <trkpt lat="43.3027" lon="3.43043">
        <ele>4.5</ele>
      </trkpt>
      <trkpt lat="43.3027" lon="3.43037">
        <ele>4.6</ele>
      </trkpt>
      <trkpt lat="43.3027" lon="3.43031">
        <ele>4.7</ele>
      </trkpt>
      <trkpt lat="43.30269" lon="3.43017">
        <ele>4.9</ele>
      </trkpt>
      <trkpt lat="43.30268" lon="3.43007">
        <ele>5.1</ele>
      </trkpt>
      <trkpt lat="43.30268" lon="3.43002">
        <ele>5.2</ele>
      </trkpt>
      <trkpt lat="43.30265" lon="3.42951">
        <ele>4.4</ele>
      </trkpt>
      <trkpt lat="43.30265" lon="3.42946">
        <ele>4.3</ele>
      </trkpt>
      <trkpt lat="43.30265" lon="3.4294">
        <ele>4.2</ele>
      </trkpt>
      <trkpt lat="43.30267" lon="3.42928">
        <ele>4</ele>
      </trkpt>
      <trkpt lat="43.30269" lon="3.42922">
        <ele>3.9</ele>
      </trkpt>
      <trkpt lat="43.30271" lon="3.42917">
        <ele>3.8</ele>
      </trkpt>
      <trkpt lat="43.30274" lon="3.42901">
        <ele>3.5</ele>
      </trkpt>
      <trkpt lat="43.30275" lon="3.42876">
        <ele>3.2</ele>
      </trkpt>
      <trkpt lat="43.30249" lon="3.42502">
        <ele>5</ele>
      </trkpt>
      <trkpt lat="43.30243" lon="3.42409">
        <ele>5</ele>
      </trkpt>
      <trkpt lat="43.3024" lon="3.4236">
        <ele>4.4</ele>
      </trkpt>
      <trkpt lat="43.30218" lon="3.42064">
        <ele>3.7</ele>
      </trkpt>
      <trkpt lat="43.30213" lon="3.42049">
        <ele>3.7</ele>
      </trkpt>
      <trkpt lat="43.30206" lon="3.42035">
        <ele>3.8</ele>
      </trkpt>
      <trkpt lat="43.30198" lon="3.4202">
        <ele>3.9</ele>
      </trkpt>
      <trkpt lat="43.30195" lon="3.42011">
        <ele>3.9</ele>
      </trkpt>
      <trkpt lat="43.30195" lon="3.42">
        <ele>4</ele>
      </trkpt>
      <trkpt lat="43.30197" lon="3.41945">
        <ele>3.2</ele>
      </trkpt>
      <trkpt lat="43.30198" lon="3.4193">
        <ele>3</ele>
      </trkpt>
      <trkpt lat="43.30202" lon="3.41908">
        <ele>2.9</ele>
      </trkpt>
      <trkpt lat="43.30204" lon="3.41903">
        <ele>2.9</ele>
      </trkpt>
      <trkpt lat="43.30205" lon="3.419">
        <ele>2.9</ele>
      </trkpt>
      <trkpt lat="43.30201" lon="3.4189">
        <ele>2.9</ele>
      </trkpt>
      <trkpt lat="43.30192" lon="3.41858">
        <ele>2.9</ele>
      </trkpt>
      <trkpt lat="43.30189" lon="3.41851">
        <ele>2.9</ele>
      </trkpt>
      <trkpt lat="43.30193" lon="3.41846">
        <ele>2.9</ele>
      </trkpt>
      <trkpt lat="43.30198" lon="3.41835">
        <ele>3</ele>
      </trkpt>
      <trkpt lat="43.30202" lon="3.4182">
        <ele>2.9</ele>
      </trkpt>
      <trkpt lat="43.30202" lon="3.41787">
        <ele>2.8</ele>
      </trkpt>
      <trkpt lat="43.30198" lon="3.41765">
        <ele>2.7</ele>
      </trkpt>
      <trkpt lat="43.3019" lon="3.41743">
        <ele>2.8</ele>
      </trkpt>
      <trkpt lat="43.30186" lon="3.41734">
        <ele>2.9</ele>
      </trkpt>
      <trkpt lat="43.30163" lon="3.4169">
        <ele>3.7</ele>
      </trkpt>
      <trkpt lat="43.30156" lon="3.41674">
        <ele>3.7</ele>
      </trkpt>
      <trkpt lat="43.3015" lon="3.41658">
        <ele>3.6</ele>
      </trkpt>
      <trkpt lat="43.30143" lon="3.41631">
        <ele>3.4</ele>
      </trkpt>
      <trkpt lat="43.30142" lon="3.41623">
        <ele>3.3</ele>
      </trkpt>
      <trkpt lat="43.30125" lon="3.4157">
        <ele>3.3</ele>
      </trkpt>
      <trkpt lat="43.30119" lon="3.41541">
        <ele>3.1</ele>
      </trkpt>
      <trkpt lat="43.30117" lon="3.41523">
        <ele>2.9</ele>
      </trkpt>
      <trkpt lat="43.30096" lon="3.41374">
        <ele>3.7</ele>
      </trkpt>
      <trkpt lat="43.30093" lon="3.41352">
        <ele>3.8</ele>
      </trkpt>
      <trkpt lat="43.30096" lon="3.41311">
        <ele>4.2</ele>
      </trkpt>
      <trkpt lat="43.30095" lon="3.41288">
        <ele>4.7</ele>
      </trkpt>
      <trkpt lat="43.30082" lon="3.41198">
        <ele>5.9</ele>
      </trkpt>
      <trkpt lat="43.30061" lon="3.41067">
        <ele>1.9</ele>
      </trkpt>
      <trkpt lat="43.30055" lon="3.41026">
        <ele>1.5</ele>
      </trkpt>
      <trkpt lat="43.30023" lon="3.40814">
        <ele>3</ele>
      </trkpt>
      <trkpt lat="43.29955" lon="3.40483">
        <ele>4.4</ele>
      </trkpt>
      <trkpt lat="43.29953" lon="3.4047">
        <ele>4.3</ele>
      </trkpt>
      <trkpt lat="43.29951" lon="3.40446">
        <ele>4.2</ele>
      </trkpt>
      <trkpt lat="43.2995" lon="3.40438">
        <ele>4.2</ele>
      </trkpt>
      <trkpt lat="43.29949" lon="3.40431">
        <ele>4.2</ele>
      </trkpt>
      <trkpt lat="43.29948" lon="3.40412">
        <ele>4.1</ele>
      </trkpt>
      <trkpt lat="43.29942" lon="3.40345">
        <ele>3.7</ele>
      </trkpt>
      <trkpt lat="43.29932" lon="3.40251">
        <ele>2.2</ele>
      </trkpt>
      <trkpt lat="43.29929" lon="3.40237">
        <ele>2.2</ele>
      </trkpt>
      <trkpt lat="43.29924" lon="3.40228">
        <ele>2.1</ele>
      </trkpt>
      <trkpt lat="43.29913" lon="3.40219">
        <ele>2</ele>
      </trkpt>
      <trkpt lat="43.29881" lon="3.40204">
        <ele>2</ele>
      </trkpt>
      <trkpt lat="43.29873" lon="3.40196">
        <ele>1.8</ele>
      </trkpt>
      <trkpt lat="43.29869" lon="3.40187">
        <ele>1.7</ele>
      </trkpt>
      <trkpt lat="43.29868" lon="3.40179">
        <ele>1.6</ele>
      </trkpt>
      <trkpt lat="43.29865" lon="3.40146">
        <ele>1.5</ele>
      </trkpt>
      <trkpt lat="43.2986" lon="3.40134">
        <ele>1.4</ele>
      </trkpt>
      <trkpt lat="43.29851" lon="3.40123">
        <ele>1.3</ele>
      </trkpt>
      <trkpt lat="43.29833" lon="3.40111">
        <ele>1</ele>
      </trkpt>
      <trkpt lat="43.29715" lon="3.40047">
        <ele>3.3</ele>
      </trkpt>
      <trkpt lat="43.29701" lon="3.40037">
        <ele>3.7</ele>
      </trkpt>
      <trkpt lat="43.29695" lon="3.40027">
        <ele>3.8</ele>
      </trkpt>
      <trkpt lat="43.29692" lon="3.40012">
        <ele>3.8</ele>
      </trkpt>
      <trkpt lat="43.29694" lon="3.39969">
        <ele>3.4</ele>
      </trkpt>
      <trkpt lat="43.29691" lon="3.39962">
        <ele>3.4</ele>
      </trkpt>
      <trkpt lat="43.29686" lon="3.39953">
        <ele>3.3</ele>
      </trkpt>
      <trkpt lat="43.29679" lon="3.39946">
        <ele>3.3</ele>
      </trkpt>
      <trkpt lat="43.29664" lon="3.39931">
        <ele>3.2</ele>
      </trkpt>
      <trkpt lat="43.29607" lon="3.39881">
        <ele>3</ele>
      </trkpt>
      <trkpt lat="43.29494" lon="3.39791">
        <ele>2.6</ele>
      </trkpt>
      <trkpt lat="43.29482" lon="3.39778">
        <ele>2.7</ele>
      </trkpt>
      <trkpt lat="43.29481" lon="3.39776">
        <ele>2.7</ele>
      </trkpt>
      <trkpt lat="43.2948" lon="3.39773">
        <ele>2.6</ele>
      </trkpt>
      <trkpt lat="43.2948" lon="3.39666">
        <ele>1</ele>
      </trkpt>
      <trkpt lat="43.29478" lon="3.39638">
        <ele>1.3</ele>
      </trkpt>
      <trkpt lat="43.29469" lon="3.39574">
        <ele>1.9</ele>
      </trkpt>
      <trkpt lat="43.29455" lon="3.39501">
        <ele>1</ele>
      </trkpt>
      <trkpt lat="43.29435" lon="3.39402">
        <ele>2</ele>
      </trkpt>
      <trkpt lat="43.29434" lon="3.39401">
        <ele>2</ele>
      </trkpt>
      <trkpt lat="43.29409" lon="3.39292">
        <ele>2.4</ele>
      </trkpt>
      <trkpt lat="43.29403" lon="3.39233">
        <ele>2.5</ele>
      </trkpt>
      <trkpt lat="43.29402" lon="3.39206">
        <ele>2.2</ele>
      </trkpt>
      <trkpt lat="43.29403" lon="3.3917">
        <ele>1.9</ele>
      </trkpt>
      <trkpt lat="43.29407" lon="3.39112">
        <ele>1.4</ele>
      </trkpt>
      <trkpt lat="43.29407" lon="3.39103">
        <ele>1.3</ele>
      </trkpt>
      <trkpt lat="43.29406" lon="3.39096">
        <ele>1.2</ele>
      </trkpt>
      <trkpt lat="43.29406" lon="3.39094">
        <ele>1.2</ele>
      </trkpt>
      <trkpt lat="43.29405" lon="3.39092">
        <ele>1.2</ele>
      </trkpt>
      <trkpt lat="43.29398" lon="3.39084">
        <ele>1.2</ele>
      </trkpt>
      <trkpt lat="43.29381" lon="3.39075">
        <ele>1.5</ele>
      </trkpt>
      <trkpt lat="43.29369" lon="3.39071">
        <ele>1.6</ele>
      </trkpt>
      <trkpt lat="43.29354" lon="3.39069">
        <ele>1.8</ele>
      </trkpt>
      <trkpt lat="43.29215" lon="3.39091">
        <ele>2.3</ele>
      </trkpt>
      <trkpt lat="43.29176" lon="3.39095">
        <ele>2.7</ele>
      </trkpt>
      <trkpt lat="43.29158" lon="3.39095">
        <ele>2.9</ele>
      </trkpt>
      <trkpt lat="43.29157" lon="3.39095">
        <ele>2.9</ele>
      </trkpt>
      <trkpt lat="43.29151" lon="3.39088">
        <ele>3</ele>
      </trkpt>
      <trkpt lat="43.29102" lon="3.39033">
        <ele>3.5</ele>
      </trkpt>
      <trkpt lat="43.2909" lon="3.39017">
        <ele>3.7</ele>
      </trkpt>
      <trkpt lat="43.29086" lon="3.39008">
        <ele>3.9</ele>
      </trkpt>
      <trkpt lat="43.29084" lon="3.38996">
        <ele>4.2</ele>
      </trkpt>
      <trkpt lat="43.29083" lon="3.38971">
        <ele>5.4</ele>
      </trkpt>
      <trkpt lat="43.29085" lon="3.38949">
        <ele>6.4</ele>
      </trkpt>
      <trkpt lat="43.29087" lon="3.38937">
        <ele>6.9</ele>
      </trkpt>
      <trkpt lat="43.29093" lon="3.38857">
        <ele>6.1</ele>
      </trkpt>
      <trkpt lat="43.29104" lon="3.38699">
        <ele>3.2</ele>
      </trkpt>
      <trkpt lat="43.2911" lon="3.38613">
        <ele>3.1</ele>
      </trkpt>
      <trkpt lat="43.2911" lon="3.38561">
        <ele>3</ele>
      </trkpt>
      <trkpt lat="43.29107" lon="3.38468">
        <ele>1.6</ele>
      </trkpt>
      <trkpt lat="43.29099" lon="3.38301">
        <ele>1.9</ele>
      </trkpt>
      <trkpt lat="43.29097" lon="3.38258">
        <ele>2.7</ele>
      </trkpt>
      <trkpt lat="43.29095" lon="3.38212">
        <ele>2.5</ele>
      </trkpt>
      <trkpt lat="43.29092" lon="3.38162">
        <ele>2.2</ele>
      </trkpt>
      <trkpt lat="43.29091" lon="3.38151">
        <ele>2.5</ele>
      </trkpt>
      <trkpt lat="43.29096" lon="3.38143">
        <ele>2.7</ele>
      </trkpt>
      <trkpt lat="43.29103" lon="3.38139">
        <ele>2.8</ele>
      </trkpt>
      <trkpt lat="43.29133" lon="3.38128">
        <ele>2.6</ele>
      </trkpt>
      <trkpt lat="43.29141" lon="3.38124">
        <ele>2.5</ele>
      </trkpt>
      <trkpt lat="43.29145" lon="3.38117">
        <ele>2.5</ele>
      </trkpt>
      <trkpt lat="43.29145" lon="3.38102">
        <ele>2.6</ele>
      </trkpt>
      <trkpt lat="43.29051" lon="3.37588">
        <ele>1</ele>
      </trkpt>
      <trkpt lat="43.29035" lon="3.3751">
        <ele>1.5</ele>
      </trkpt>
      <trkpt lat="43.29032" lon="3.37498">
        <ele>1.6</ele>
      </trkpt>
      <trkpt lat="43.29027" lon="3.37488">
        <ele>1.7</ele>
      </trkpt>
      <trkpt lat="43.28997" lon="3.3745">
        <ele>2</ele>
      </trkpt>
      <trkpt lat="43.28967" lon="3.37398">
        <ele>2.5</ele>
      </trkpt>
      <trkpt lat="43.28955" lon="3.37384">
        <ele>2.5</ele>
      </trkpt>
      <trkpt lat="43.28767" lon="3.37219">
        <ele>3.8</ele>
      </trkpt>
      <trkpt lat="43.2876" lon="3.37216">
        <ele>4</ele>
      </trkpt>
      <trkpt lat="43.28751" lon="3.37216">
        <ele>4.4</ele>
      </trkpt>
      <trkpt lat="43.28731" lon="3.3722">
        <ele>4</ele>
      </trkpt>
      <trkpt lat="43.2872" lon="3.37221">
        <ele>3.8</ele>
      </trkpt>
      <trkpt lat="43.28708" lon="3.37222">
        <ele>3.5</ele>
      </trkpt>
      <trkpt lat="43.28711" lon="3.37201">
        <ele>3.9</ele>
      </trkpt>
      <trkpt lat="43.28712" lon="3.37162">
        <ele>4.5</ele>
      </trkpt>
      <trkpt lat="43.28715" lon="3.37147">
        <ele>4.4</ele>
      </trkpt>
      <trkpt lat="43.28743" lon="3.37082">
        <ele>4</ele>
      </trkpt>
      <trkpt lat="43.28756" lon="3.37039">
        <ele>3.3</ele>
      </trkpt>
      <trkpt lat="43.28767" lon="3.36996">
        <ele>2.6</ele>
      </trkpt>
      <trkpt lat="43.28781" lon="3.36939">
        <ele>2.3</ele>
      </trkpt>
      <trkpt lat="43.28783" lon="3.36932">
        <ele>2.2</ele>
      </trkpt>
      <trkpt lat="43.28786" lon="3.36922">
        <ele>2.1</ele>
      </trkpt>
      <trkpt lat="43.28821" lon="3.36771">
        <ele>2</ele>
      </trkpt>
      <trkpt lat="43.28828" lon="3.36744">
        <ele>1.9</ele>
      </trkpt>
      <trkpt lat="43.28838" lon="3.36701">
        <ele>2</ele>
      </trkpt>
      <trkpt lat="43.28851" lon="3.36657">
        <ele>2</ele>
      </trkpt>
      <trkpt lat="43.28912" lon="3.36495">
        <ele>1</ele>
      </trkpt>
      <trkpt lat="43.28934" lon="3.36439">
        <ele>1.4</ele>
      </trkpt>
      <trkpt lat="43.28965" lon="3.36361">
        <ele>2.2</ele>
      </trkpt>
      <trkpt lat="43.28969" lon="3.36348">
        <ele>2.5</ele>
      </trkpt>
      <trkpt lat="43.28968" lon="3.36336">
        <ele>2.6</ele>
      </trkpt>
      <trkpt lat="43.28965" lon="3.36326">
        <ele>2.6</ele>
      </trkpt>
      <trkpt lat="43.28941" lon="3.36294">
        <ele>2.3</ele>
      </trkpt>
      <trkpt lat="43.28932" lon="3.36279">
        <ele>2.2</ele>
      </trkpt>
      <trkpt lat="43.28925" lon="3.36258">
        <ele>2.1</ele>
      </trkpt>
      <trkpt lat="43.28924" lon="3.36238">
        <ele>2.2</ele>
      </trkpt>
      <trkpt lat="43.28951" lon="3.36231">
        <ele>2.6</ele>
      </trkpt>
      <trkpt lat="43.29018" lon="3.36205">
        <ele>3.6</ele>
      </trkpt>
      <trkpt lat="43.29039" lon="3.36192">
        <ele>3.8</ele>
      </trkpt>
      <trkpt lat="43.29049" lon="3.36183">
        <ele>3.9</ele>
      </trkpt>
      <trkpt lat="43.29058" lon="3.36169">
        <ele>4</ele>
      </trkpt>
      <trkpt lat="43.29067" lon="3.36151">
        <ele>3.7</ele>
      </trkpt>
      <trkpt lat="43.29078" lon="3.36126">
        <ele>3.1</ele>
      </trkpt>
      <trkpt lat="43.29075" lon="3.36102">
        <ele>2.5</ele>
      </trkpt>
      <trkpt lat="43.29073" lon="3.36079">
        <ele>2.1</ele>
      </trkpt>
      <trkpt lat="43.29068" lon="3.36034">
        <ele>2.1</ele>
      </trkpt>
      <trkpt lat="43.29058" lon="3.35923">
        <ele>2</ele>
      </trkpt>
      <trkpt lat="43.2905" lon="3.35785">
        <ele>3.2</ele>
      </trkpt>
      <trkpt lat="43.29045" lon="3.35633">
        <ele>2</ele>
      </trkpt>
      <trkpt lat="43.29063" lon="3.35315">
        <ele>4.1</ele>
      </trkpt>
      <trkpt lat="43.29072" lon="3.35247">
        <ele>4.7</ele>
      </trkpt>
      <trkpt lat="43.29084" lon="3.35178">
        <ele>4.1</ele>
      </trkpt>
      <trkpt lat="43.29099" lon="3.3512">
        <ele>3.9</ele>
      </trkpt>
      <trkpt lat="43.29111" lon="3.35085">
        <ele>4</ele>
      </trkpt>
      <trkpt lat="43.29122" lon="3.35054">
        <ele>3.3</ele>
      </trkpt>
      <trkpt lat="43.29119" lon="3.35016">
        <ele>2.4</ele>
      </trkpt>
      <trkpt lat="43.29158" lon="3.34911">
        <ele>1.9</ele>
      </trkpt>
      <trkpt lat="43.29193" lon="3.34824">
        <ele>1.4</ele>
      </trkpt>
      <trkpt lat="43.29205" lon="3.34791">
        <ele>1.7</ele>
      </trkpt>
      <trkpt lat="43.29272" lon="3.34645">
        <ele>3.1</ele>
      </trkpt>
      <trkpt lat="43.29309" lon="3.34553">
        <ele>3</ele>
      </trkpt>
      <trkpt lat="43.29355" lon="3.34452">
        <ele>2.2</ele>
      </trkpt>
      <trkpt lat="43.29442" lon="3.34247">
        <ele>3.1</ele>
      </trkpt>
      <trkpt lat="43.29473" lon="3.3417">
        <ele>2.4</ele>
      </trkpt>
      <trkpt lat="43.29542" lon="3.33984">
        <ele>3.8</ele>
      </trkpt>
      <trkpt lat="43.29559" lon="3.33932">
        <ele>3.7</ele>
      </trkpt>
      <trkpt lat="43.29588" lon="3.33778">
        <ele>5.5</ele>
      </trkpt>
      <trkpt lat="43.29589" lon="3.33752">
        <ele>5.8</ele>
      </trkpt>
      <trkpt lat="43.29586" lon="3.3374">
        <ele>5.8</ele>
      </trkpt>
      <trkpt lat="43.29589" lon="3.33693">
        <ele>5.2</ele>
      </trkpt>
      <trkpt lat="43.29595" lon="3.33643">
        <ele>4.6</ele>
      </trkpt>
      <trkpt lat="43.29612" lon="3.33576">
        <ele>4.3</ele>
      </trkpt>
      <trkpt lat="43.29639" lon="3.33503">
        <ele>5.6</ele>
      </trkpt>
      <trkpt lat="43.29675" lon="3.33427">
        <ele>6.1</ele>
      </trkpt>
      <trkpt lat="43.29706" lon="3.33392">
        <ele>4.9</ele>
      </trkpt>
      <trkpt lat="43.29762" lon="3.33343">
        <ele>4.9</ele>
      </trkpt>
      <trkpt lat="43.29883" lon="3.33274">
        <ele>5.2</ele>
      </trkpt>
      <trkpt lat="43.29992" lon="3.33233">
        <ele>4.4</ele>
      </trkpt>
      <trkpt lat="43.30031" lon="3.33213">
        <ele>3.6</ele>
      </trkpt>
      <trkpt lat="43.30185" lon="3.33155">
        <ele>6.8</ele>
      </trkpt>
      <trkpt lat="43.30242" lon="3.33126">
        <ele>6.9</ele>
      </trkpt>
      <trkpt lat="43.30319" lon="3.33074">
        <ele>7.3</ele>
      </trkpt>
      <trkpt lat="43.30369" lon="3.3303">
        <ele>6.2</ele>
      </trkpt>
      <trkpt lat="43.30392" lon="3.33001">
        <ele>5.7</ele>
      </trkpt>
      <trkpt lat="43.30439" lon="3.32933">
        <ele>5.7</ele>
      </trkpt>
      <trkpt lat="43.30415" lon="3.32877">
        <ele>5</ele>
      </trkpt>
      <trkpt lat="43.30398" lon="3.32848">
        <ele>4.7</ele>
      </trkpt>
      <trkpt lat="43.30387" lon="3.32838">
        <ele>4.6</ele>
      </trkpt>
      <trkpt lat="43.30374" lon="3.32829">
        <ele>4.4</ele>
      </trkpt>
      <trkpt lat="43.3036" lon="3.32824">
        <ele>4.2</ele>
      </trkpt>
      <trkpt lat="43.30344" lon="3.32826">
        <ele>4</ele>
      </trkpt>
      <trkpt lat="43.30278" lon="3.32842">
        <ele>4.6</ele>
      </trkpt>
      <trkpt lat="43.30169" lon="3.32875">
        <ele>3.5</ele>
      </trkpt>
      <trkpt lat="43.30151" lon="3.32825">
        <ele>3.7</ele>
      </trkpt>
      <trkpt lat="43.30128" lon="3.32752">
        <ele>2.6</ele>
      </trkpt>
      <trkpt lat="43.30116" lon="3.32709">
        <ele>2.8</ele>
      </trkpt>
      <trkpt lat="43.30106" lon="3.32659">
        <ele>3.4</ele>
      </trkpt>
      <trkpt lat="43.301" lon="3.32592">
        <ele>2.3</ele>
      </trkpt>
      <trkpt lat="43.30085" lon="3.32486">
        <ele>3.7</ele>
      </trkpt>
      <trkpt lat="43.30073" lon="3.3243">
        <ele>1.9</ele>
      </trkpt>
      <trkpt lat="43.30068" lon="3.32412">
        <ele>1.8</ele>
      </trkpt>
      <trkpt lat="43.3004" lon="3.32336">
        <ele>1.5</ele>
      </trkpt>
      <trkpt lat="43.29933" lon="3.32086">
        <ele>2</ele>
      </trkpt>
      <trkpt lat="43.29907" lon="3.3202">
        <ele>1.4</ele>
      </trkpt>
      <trkpt lat="43.2989" lon="3.3197">
        <ele>2</ele>
      </trkpt>
      <trkpt lat="43.29875" lon="3.31938">
        <ele>2.7</ele>
      </trkpt>
      <trkpt lat="43.29868" lon="3.31928">
        <ele>3</ele>
      </trkpt>
      <trkpt lat="43.29839" lon="3.31896">
        <ele>3.9</ele>
      </trkpt>
      <trkpt lat="43.29736" lon="3.31796">
        <ele>3</ele>
      </trkpt>
      <trkpt lat="43.29724" lon="3.31794">
        <ele>2.9</ele>
      </trkpt>
      <trkpt lat="43.29637" lon="3.31802">
        <ele>2.2</ele>
      </trkpt>
      <trkpt lat="43.29628" lon="3.31766">
        <ele>2</ele>
      </trkpt>
      <trkpt lat="43.296" lon="3.31693">
        <ele>2</ele>
      </trkpt>
      <trkpt lat="43.29532" lon="3.31559">
        <ele>2</ele>
      </trkpt>
      <trkpt lat="43.29517" lon="3.31535">
        <ele>2</ele>
      </trkpt>
      <trkpt lat="43.2951" lon="3.31519">
        <ele>2</ele>
      </trkpt>
      <trkpt lat="43.29501" lon="3.31504">
        <ele>2</ele>
      </trkpt>
      <trkpt lat="43.29495" lon="3.31501">
        <ele>1.9</ele>
      </trkpt>
      <trkpt lat="43.29481" lon="3.31487">
        <ele>1.7</ele>
      </trkpt>
      <trkpt lat="43.29471" lon="3.31482">
        <ele>1.5</ele>
      </trkpt>
      <trkpt lat="43.29462" lon="3.31473">
        <ele>1.4</ele>
      </trkpt>
      <trkpt lat="43.29423" lon="3.31447">
        <ele>1</ele>
      </trkpt>
      <trkpt lat="43.29397" lon="3.3142">
        <ele>1</ele>
      </trkpt>
      <trkpt lat="43.29369" lon="3.31397">
        <ele>1.2</ele>
      </trkpt>
      <trkpt lat="43.29357" lon="3.3139">
        <ele>1.3</ele>
      </trkpt>
      <trkpt lat="43.29346" lon="3.31381">
        <ele>1.4</ele>
      </trkpt>
      <trkpt lat="43.29335" lon="3.31367">
        <ele>1.6</ele>
      </trkpt>
      <trkpt lat="43.29315" lon="3.31346">
        <ele>2.1</ele>
      </trkpt>
      <trkpt lat="43.2928" lon="3.31301">
        <ele>2.8</ele>
      </trkpt>
      <trkpt lat="43.29244" lon="3.31252">
        <ele>3</ele>
      </trkpt>
      <trkpt lat="43.2922" lon="3.31197">
        <ele>3.2</ele>
      </trkpt>
      <trkpt lat="43.29173" lon="3.31079">
        <ele>2.1</ele>
      </trkpt>
      <trkpt lat="43.29158" lon="3.3081">
        <ele>2.3</ele>
      </trkpt>
      <trkpt lat="43.29151" lon="3.30735">
        <ele>2.7</ele>
      </trkpt>
      <trkpt lat="43.29147" lon="3.30723">
        <ele>2.6</ele>
      </trkpt>
      <trkpt lat="43.29117" lon="3.30693">
        <ele>2.5</ele>
      </trkpt>
      <trkpt lat="43.29092" lon="3.3066">
        <ele>2.8</ele>
      </trkpt>
      <trkpt lat="43.28911" lon="3.30342">
        <ele>2.1</ele>
      </trkpt>
      <trkpt lat="43.28823" lon="3.30072">
        <ele>3.1</ele>
      </trkpt>
      <trkpt lat="43.28804" lon="3.3003">
        <ele>3.6</ele>
      </trkpt>
      <trkpt lat="43.28782" lon="3.29992">
        <ele>4</ele>
      </trkpt>
      <trkpt lat="43.28747" lon="3.29905">
        <ele>3.9</ele>
      </trkpt>
      <trkpt lat="43.28744" lon="3.299">
        <ele>3.9</ele>
      </trkpt>
      <trkpt lat="43.28738" lon="3.29899">
        <ele>3.9</ele>
      </trkpt>
      <trkpt lat="43.28738" lon="3.29863">
        <ele>3.5</ele>
      </trkpt>
      <trkpt lat="43.28734" lon="3.29836">
        <ele>3.2</ele>
      </trkpt>
      <trkpt lat="43.28711" lon="3.29676">
        <ele>3.1</ele>
      </trkpt>
      <trkpt lat="43.28694" lon="3.2942">
        <ele>4</ele>
      </trkpt>
      <trkpt lat="43.28692" lon="3.29295">
        <ele>3.4</ele>
      </trkpt>
      <trkpt lat="43.28693" lon="3.29151">
        <ele>3.4</ele>
      </trkpt>
      <trkpt lat="43.28706" lon="3.29049">
        <ele>4.2</ele>
      </trkpt>
      <trkpt lat="43.28705" lon="3.28987">
        <ele>4.6</ele>
      </trkpt>
      <trkpt lat="43.28701" lon="3.28952">
        <ele>5.1</ele>
      </trkpt>
      <trkpt lat="43.28694" lon="3.28923">
        <ele>5.6</ele>
      </trkpt>
      <trkpt lat="43.28663" lon="3.28828">
        <ele>6.8</ele>
      </trkpt>
      <trkpt lat="43.28626" lon="3.28691">
        <ele>3.9</ele>
      </trkpt>
      <trkpt lat="43.28613" lon="3.28652">
        <ele>3.5</ele>
      </trkpt>
      <trkpt lat="43.2857" lon="3.2855">
        <ele>5.2</ele>
      </trkpt>
      <trkpt lat="43.28547" lon="3.28487">
        <ele>6</ele>
      </trkpt>
      <trkpt lat="43.28471" lon="3.2826">
        <ele>5.1</ele>
      </trkpt>
      <trkpt lat="43.28531" lon="3.28209">
        <ele>5.3</ele>
      </trkpt>
      <trkpt lat="43.28536" lon="3.28212">
        <ele>5.3</ele>
      </trkpt>
      <trkpt lat="43.2854" lon="3.2821">
        <ele>5.3</ele>
      </trkpt>
      <trkpt lat="43.28544" lon="3.28201">
        <ele>5.2</ele>
      </trkpt>
      <trkpt lat="43.28543" lon="3.28194">
        <ele>5.2</ele>
      </trkpt>
      <trkpt lat="43.2854" lon="3.2819">
        <ele>5.1</ele>
      </trkpt>
      <trkpt lat="43.28536" lon="3.28189">
        <ele>5.2</ele>
      </trkpt>
      <trkpt lat="43.28532" lon="3.2819">
        <ele>5.2</ele>
      </trkpt>
      <trkpt lat="43.28514" lon="3.2815">
        <ele>5.4</ele>
      </trkpt>
      <trkpt lat="43.28482" lon="3.28094">
        <ele>6.7</ele>
      </trkpt>
      <trkpt lat="43.2844" lon="3.28012">
        <ele>8.2</ele>
      </trkpt>
      <trkpt lat="43.28441" lon="3.28004">
        <ele>8.4</ele>
      </trkpt>
      <trkpt lat="43.28438" lon="3.27998">
        <ele>8.5</ele>
      </trkpt>
      <trkpt lat="43.28433" lon="3.27995">
        <ele>8.7</ele>
      </trkpt>
      <trkpt lat="43.28441" lon="3.27969">
        <ele>9.2</ele>
      </trkpt>
      <trkpt lat="43.28453" lon="3.27939">
        <ele>9.6</ele>
      </trkpt>
      <trkpt lat="43.28411" lon="3.27878">
        <ele>10.6</ele>
      </trkpt>
      <trkpt lat="43.28379" lon="3.27843">
        <ele>10.2</ele>
      </trkpt>
      <trkpt lat="43.28316" lon="3.27784">
        <ele>9.9</ele>
      </trkpt>
      <trkpt lat="43.28269" lon="3.27732">
        <ele>8.8</ele>
      </trkpt>
      <trkpt lat="43.28178" lon="3.27642">
        <ele>6.1</ele>
      </trkpt>
      <trkpt lat="43.28113" lon="3.27573">
        <ele>6.1</ele>
      </trkpt>
      <trkpt lat="43.28041" lon="3.275">
        <ele>6.5</ele>
      </trkpt>
      <trkpt lat="43.27995" lon="3.27461">
        <ele>6.9</ele>
      </trkpt>
      <trkpt lat="43.27893" lon="3.27384">
        <ele>8.2</ele>
      </trkpt>
      <trkpt lat="43.27866" lon="3.2737">
        <ele>9</ele>
      </trkpt>
      <trkpt lat="43.27826" lon="3.27355">
        <ele>9.8</ele>
      </trkpt>
      <trkpt lat="43.27814" lon="3.27342">
        <ele>9.9</ele>
      </trkpt>
      <trkpt lat="43.27804" lon="3.27357">
        <ele>9.8</ele>
      </trkpt>
      <trkpt lat="43.27793" lon="3.2736">
        <ele>9.8</ele>
      </trkpt>
      <trkpt lat="43.27771" lon="3.27353">
        <ele>9.9</ele>
      </trkpt>
      <trkpt lat="43.27647" lon="3.27284">
        <ele>11.3</ele>
      </trkpt>
      <trkpt lat="43.27607" lon="3.2727">
        <ele>11.9</ele>
      </trkpt>
      <trkpt lat="43.27599" lon="3.27268">
        <ele>12</ele>
      </trkpt>
      <trkpt lat="43.27559" lon="3.27274">
        <ele>12.8</ele>
      </trkpt>
      <trkpt lat="43.27528" lon="3.2727">
        <ele>13.4</ele>
      </trkpt>
      <trkpt lat="43.27496" lon="3.27262">
        <ele>14</ele>
      </trkpt>
      <trkpt lat="43.27472" lon="3.27259">
        <ele>14.3</ele>
      </trkpt>
      <trkpt lat="43.27459" lon="3.2725">
        <ele>14.5</ele>
      </trkpt>
      <trkpt lat="43.27449" lon="3.27237">
        <ele>14.8</ele>
      </trkpt>
      <trkpt lat="43.27378" lon="3.2722">
        <ele>17.3</ele>
      </trkpt>
      <trkpt lat="43.27313" lon="3.27196">
        <ele>20.3</ele>
      </trkpt>
      <trkpt lat="43.27236" lon="3.27156">
        <ele>24</ele>
      </trkpt>
      <trkpt lat="43.27211" lon="3.27142">
        <ele>24.2</ele>
      </trkpt>
      <trkpt lat="43.27197" lon="3.27131">
        <ele>24.2</ele>
      </trkpt>
      <trkpt lat="43.27181" lon="3.27114">
        <ele>24.2</ele>
      </trkpt>
      <trkpt lat="43.27166" lon="3.27094">
        <ele>24.1</ele>
      </trkpt>
      <trkpt lat="43.27115" lon="3.27012">
        <ele>23.9</ele>
      </trkpt>
      <trkpt lat="43.2708" lon="3.26975">
        <ele>23.6</ele>
      </trkpt>
      <trkpt lat="43.2703" lon="3.26927">
        <ele>22.9</ele>
      </trkpt>
      <trkpt lat="43.27003" lon="3.26907">
        <ele>23</ele>
      </trkpt>
      <trkpt lat="43.26937" lon="3.27029">
        <ele>21.1</ele>
      </trkpt>
      <trkpt lat="43.26934" lon="3.27039">
        <ele>21.1</ele>
      </trkpt>
      <trkpt lat="43.26919" lon="3.27127">
        <ele>21</ele>
      </trkpt>
      <trkpt lat="43.26915" lon="3.27128">
        <ele>21</ele>
      </trkpt>
      <trkpt lat="43.26912" lon="3.27137">
        <ele>20.9</ele>
      </trkpt>
      <trkpt lat="43.26872" lon="3.27139">
        <ele>20.1</ele>
      </trkpt>
      <trkpt lat="43.26752" lon="3.27136">
        <ele>20.2</ele>
      </trkpt>
      <trkpt lat="43.26707" lon="3.27137">
        <ele>20.7</ele>
      </trkpt>
      <trkpt lat="43.26572" lon="3.27163">
        <ele>21.7</ele>
      </trkpt>
      <trkpt lat="43.26542" lon="3.27164">
        <ele>21</ele>
      </trkpt>
      <trkpt lat="43.26374" lon="3.27143">
        <ele>20.1</ele>
      </trkpt>
      <trkpt lat="43.26225" lon="3.27125">
        <ele>20.9</ele>
      </trkpt>
      <trkpt lat="43.26169" lon="3.27113">
        <ele>19.4</ele>
      </trkpt>
      <trkpt lat="43.26089" lon="3.27101">
        <ele>19</ele>
      </trkpt>
      <trkpt lat="43.26016" lon="3.27097">
        <ele>20.1</ele>
      </trkpt>
      <trkpt lat="43.25979" lon="3.27092">
        <ele>19.7</ele>
      </trkpt>
      <trkpt lat="43.25961" lon="3.27083">
        <ele>19.1</ele>
      </trkpt>
      <trkpt lat="43.25936" lon="3.27056">
        <ele>18.6</ele>
      </trkpt>
      <trkpt lat="43.25897" lon="3.27032">
        <ele>18</ele>
      </trkpt>
      <trkpt lat="43.25875" lon="3.27025">
        <ele>17.4</ele>
      </trkpt>
      <trkpt lat="43.25854" lon="3.27021">
        <ele>16.7</ele>
      </trkpt>
      <trkpt lat="43.25762" lon="3.26975">
        <ele>14.8</ele>
      </trkpt>
      <trkpt lat="43.25673" lon="3.26924">
        <ele>15.9</ele>
      </trkpt>
      <trkpt lat="43.2563" lon="3.26894">
        <ele>17.3</ele>
      </trkpt>
      <trkpt lat="43.25596" lon="3.26877">
        <ele>18.5</ele>
      </trkpt>
      <trkpt lat="43.25515" lon="3.26829">
        <ele>18.3</ele>
      </trkpt>
      <trkpt lat="43.25496" lon="3.26813">
        <ele>18.6</ele>
      </trkpt>
      <trkpt lat="43.25488" lon="3.26809">
        <ele>18.8</ele>
      </trkpt>
      <trkpt lat="43.25456" lon="3.26792">
        <ele>19.5</ele>
      </trkpt>
      <trkpt lat="43.25425" lon="3.26781">
        <ele>19.9</ele>
      </trkpt>
      <trkpt lat="43.25397" lon="3.26765">
        <ele>19.5</ele>
      </trkpt>
      <trkpt lat="43.25325" lon="3.26738">
        <ele>18.2</ele>
      </trkpt>
      <trkpt lat="43.25234" lon="3.26674">
        <ele>17.6</ele>
      </trkpt>
      <trkpt lat="43.25163" lon="3.2662">
        <ele>17.1</ele>
      </trkpt>
      <trkpt lat="43.25036" lon="3.26518">
        <ele>15.6</ele>
      </trkpt>
      <trkpt lat="43.25007" lon="3.26498">
        <ele>15.2</ele>
      </trkpt>
      <trkpt lat="43.24986" lon="3.26491">
        <ele>15.1</ele>
      </trkpt>
      <trkpt lat="43.24969" lon="3.26488">
        <ele>15.1</ele>
      </trkpt>
      <trkpt lat="43.24922" lon="3.26496">
        <ele>15.1</ele>
      </trkpt>
      <trkpt lat="43.24909" lon="3.26494">
        <ele>15.1</ele>
      </trkpt>
      <trkpt lat="43.24893" lon="3.26453">
        <ele>15.7</ele>
      </trkpt>
      <trkpt lat="43.24871" lon="3.26435">
        <ele>16.2</ele>
      </trkpt>
      <trkpt lat="43.24797" lon="3.26379">
        <ele>16.4</ele>
      </trkpt>
      <trkpt lat="43.2479" lon="3.26374">
        <ele>16.2</ele>
      </trkpt>
      <trkpt lat="43.24775" lon="3.2637">
        <ele>15.8</ele>
      </trkpt>
      <trkpt lat="43.24758" lon="3.26376">
        <ele>15.3</ele>
      </trkpt>
      <trkpt lat="43.24756" lon="3.26366">
        <ele>15.2</ele>
      </trkpt>
      <trkpt lat="43.24747" lon="3.26347">
        <ele>15.1</ele>
      </trkpt>
      <trkpt lat="43.24731" lon="3.26335">
        <ele>15.7</ele>
      </trkpt>
      <trkpt lat="43.24714" lon="3.26333">
        <ele>16.3</ele>
      </trkpt>
      <trkpt lat="43.24701" lon="3.26338">
        <ele>16.7</ele>
      </trkpt>
      <trkpt lat="43.24692" lon="3.26337">
        <ele>17.1</ele>
      </trkpt>
      <trkpt lat="43.2467" lon="3.26327">
        <ele>17.9</ele>
      </trkpt>
      <trkpt lat="43.24653" lon="3.26312">
        <ele>17.9</ele>
      </trkpt>
      <trkpt lat="43.24648" lon="3.26311">
        <ele>17.8</ele>
      </trkpt>
      <trkpt lat="43.24392" lon="3.26008">
        <ele>19.3</ele>
      </trkpt>
      <trkpt lat="43.24228" lon="3.25798">
        <ele>20.2</ele>
      </trkpt>
      <trkpt lat="43.24172" lon="3.25722">
        <ele>19</ele>
      </trkpt>
      <trkpt lat="43.24136" lon="3.25665">
        <ele>18.6</ele>
      </trkpt>
      <trkpt lat="43.24101" lon="3.256">
        <ele>18.8</ele>
      </trkpt>
      <trkpt lat="43.24042" lon="3.25473">
        <ele>19</ele>
      </trkpt>
      <trkpt lat="43.24036" lon="3.25423">
        <ele>19</ele>
      </trkpt>
      <trkpt lat="43.24044" lon="3.25406">
        <ele>19.1</ele>
      </trkpt>
      <trkpt lat="43.24047" lon="3.25387">
        <ele>19.2</ele>
      </trkpt>
      <trkpt lat="43.24046" lon="3.25378">
        <ele>19.2</ele>
      </trkpt>
      <trkpt lat="43.24039" lon="3.25355">
        <ele>19.4</ele>
      </trkpt>
      <trkpt lat="43.24026" lon="3.2534">
        <ele>19.6</ele>
      </trkpt>
      <trkpt lat="43.24021" lon="3.25337">
        <ele>19.7</ele>
      </trkpt>
      <trkpt lat="43.24014" lon="3.25335">
        <ele>19.8</ele>
      </trkpt>
      <trkpt lat="43.24006" lon="3.25335">
        <ele>19.9</ele>
      </trkpt>
      <trkpt lat="43.23995" lon="3.25326">
        <ele>19.7</ele>
      </trkpt>
      <trkpt lat="43.23987" lon="3.25316">
        <ele>19.3</ele>
      </trkpt>
      <trkpt lat="43.23982" lon="3.25304">
        <ele>19</ele>
      </trkpt>
      <trkpt lat="43.23975" lon="3.25279">
        <ele>18.5</ele>
      </trkpt>
      <trkpt lat="43.23967" lon="3.25263">
        <ele>18.2</ele>
      </trkpt>
      <trkpt lat="43.2395" lon="3.25217">
        <ele>18.6</ele>
      </trkpt>
      <trkpt lat="43.2389" lon="3.25107">
        <ele>18.7</ele>
      </trkpt>
      <trkpt lat="43.23865" lon="3.25066">
        <ele>18.5</ele>
      </trkpt>
      <trkpt lat="43.23848" lon="3.25043">
        <ele>18.6</ele>
      </trkpt>
      <trkpt lat="43.23806" lon="3.24998">
        <ele>19</ele>
      </trkpt>
      <trkpt lat="43.23757" lon="3.24966">
        <ele>19</ele>
      </trkpt>
      <trkpt lat="43.2369" lon="3.24948">
        <ele>17.4</ele>
      </trkpt>
      <trkpt lat="43.23645" lon="3.24945">
        <ele>16.3</ele>
      </trkpt>
      <trkpt lat="43.23461" lon="3.24984">
        <ele>11</ele>
      </trkpt>
      <trkpt lat="43.23408" lon="3.24992">
        <ele>8.7</ele>
      </trkpt>
      <trkpt lat="43.2336" lon="3.24992">
        <ele>8.8</ele>
      </trkpt>
      <trkpt lat="43.2332" lon="3.24984">
        <ele>8.3</ele>
      </trkpt>
      <trkpt lat="43.23279" lon="3.24971">
        <ele>7.2</ele>
      </trkpt>
      <trkpt lat="43.23261" lon="3.24963">
        <ele>6.7</ele>
      </trkpt>
      <trkpt lat="43.23232" lon="3.24943">
        <ele>5.9</ele>
      </trkpt>
      <trkpt lat="43.23195" lon="3.2491">
        <ele>4.7</ele>
      </trkpt>
      <trkpt lat="43.23144" lon="3.24853">
        <ele>3.7</ele>
      </trkpt>
      <trkpt lat="43.2275" lon="3.2435">
        <ele>1.8</ele>
      </trkpt>
      <trkpt lat="43.22715" lon="3.24308">
        <ele>3.2</ele>
      </trkpt>
      <trkpt lat="43.2254" lon="3.24081">
        <ele>6.4</ele>
      </trkpt>
      <trkpt lat="43.22493" lon="3.24012">
        <ele>4.1</ele>
      </trkpt>
      <trkpt lat="43.2239" lon="3.23882">
        <ele>3.5</ele>
      </trkpt>
      <trkpt lat="43.2211" lon="3.23506">
        <ele>3</ele>
      </trkpt>
      <trkpt lat="43.22069" lon="3.23447">
        <ele>1.9</ele>
      </trkpt>
      <trkpt lat="43.22026" lon="3.23399">
        <ele>1.8</ele>
      </trkpt>
      <trkpt lat="43.22013" lon="3.23376">
        <ele>1.5</ele>
      </trkpt>
      <trkpt lat="43.22007" lon="3.23351">
        <ele>1.2</ele>
      </trkpt>
      <trkpt lat="43.22015" lon="3.23349">
        <ele>1.2</ele>
      </trkpt>
      <trkpt lat="43.22022" lon="3.23341">
        <ele>1.1</ele>
      </trkpt>
      <trkpt lat="43.22017" lon="3.23319">
        <ele>1</ele>
      </trkpt>
      <trkpt lat="43.22017" lon="3.23305">
        <ele>1.1</ele>
      </trkpt>
      <trkpt lat="43.22029" lon="3.2327">
        <ele>1.3</ele>
      </trkpt>
      <trkpt lat="43.22104" lon="3.22998">
        <ele>2</ele>
      </trkpt>
      <trkpt lat="43.22122" lon="3.22915">
        <ele>1.5</ele>
      </trkpt>
      <trkpt lat="43.2215" lon="3.22829">
        <ele>1.3</ele>
      </trkpt>
      <trkpt lat="43.22166" lon="3.2279">
        <ele>2.6</ele>
      </trkpt>
      <trkpt lat="43.22179" lon="3.2277">
        <ele>3.2</ele>
      </trkpt>
      <trkpt lat="43.22182" lon="3.22761">
        <ele>3.5</ele>
      </trkpt>
      <trkpt lat="43.22181" lon="3.22751">
        <ele>3.8</ele>
      </trkpt>
      <trkpt lat="43.22166" lon="3.22732">
        <ele>3.8</ele>
      </trkpt>
      <trkpt lat="43.22125" lon="3.22688">
        <ele>2.5</ele>
      </trkpt>
      <trkpt lat="43.22082" lon="3.22645">
        <ele>1.7</ele>
      </trkpt>
      <trkpt lat="43.2206" lon="3.22627">
        <ele>1.5</ele>
      </trkpt>
      <trkpt lat="43.22045" lon="3.22617">
        <ele>1.4</ele>
      </trkpt>
      <trkpt lat="43.22039" lon="3.22608">
        <ele>1.3</ele>
      </trkpt>
      <trkpt lat="43.22044" lon="3.22587">
        <ele>1</ele>
      </trkpt>
      <trkpt lat="43.22074" lon="3.22495">
        <ele>1.1</ele>
      </trkpt>
      <trkpt lat="43.22149" lon="3.22302">
        <ele>2.4</ele>
      </trkpt>
      <trkpt lat="43.22234" lon="3.22014">
        <ele>2.5</ele>
      </trkpt>
      <trkpt lat="43.22243" lon="3.22004">
        <ele>2.8</ele>
      </trkpt>
      <trkpt lat="43.22256" lon="3.21991">
        <ele>3</ele>
      </trkpt>
      <trkpt lat="43.22266" lon="3.21973">
        <ele>3.1</ele>
      </trkpt>
      <trkpt lat="43.22274" lon="3.21948">
        <ele>3.2</ele>
      </trkpt>
      <trkpt lat="43.22284" lon="3.21889">
        <ele>2.6</ele>
      </trkpt>
      <trkpt lat="43.22324" lon="3.2181">
        <ele>1.9</ele>
      </trkpt>
      <trkpt lat="43.2243" lon="3.21611">
        <ele>3.5</ele>
      </trkpt>
      <trkpt lat="43.22446" lon="3.21569">
        <ele>3.6</ele>
      </trkpt>
      <trkpt lat="43.22465" lon="3.21533">
        <ele>3.5</ele>
      </trkpt>
      <trkpt lat="43.22493" lon="3.2149">
        <ele>3.8</ele>
      </trkpt>
      <trkpt lat="43.22527" lon="3.21401">
        <ele>2.9</ele>
      </trkpt>
      <trkpt lat="43.22591" lon="3.21247">
        <ele>3.8</ele>
      </trkpt>
      <trkpt lat="43.22604" lon="3.21224">
        <ele>3.3</ele>
      </trkpt>
      <trkpt lat="43.2262" lon="3.21214">
        <ele>2.9</ele>
      </trkpt>
      <trkpt lat="43.22637" lon="3.21215">
        <ele>2.6</ele>
      </trkpt>
      <trkpt lat="43.22652" lon="3.21214">
        <ele>2.3</ele>
      </trkpt>
      <trkpt lat="43.22662" lon="3.2121">
        <ele>2.1</ele>
      </trkpt>
      <trkpt lat="43.22685" lon="3.21183">
        <ele>2</ele>
      </trkpt>
      <trkpt lat="43.22659" lon="3.21151">
        <ele>2.1</ele>
      </trkpt>
      <trkpt lat="43.22634" lon="3.21116">
        <ele>2.4</ele>
      </trkpt>
      <trkpt lat="43.22559" lon="3.21041">
        <ele>2.2</ele>
      </trkpt>
      <trkpt lat="43.22624" lon="3.20916">
        <ele>2</ele>
      </trkpt>
      <trkpt lat="43.22694" lon="3.20777">
        <ele>1.8</ele>
      </trkpt>
      <trkpt lat="43.22782" lon="3.20611">
        <ele>2.9</ele>
      </trkpt>
      <trkpt lat="43.22789" lon="3.20592">
        <ele>3</ele>
      </trkpt>
      <trkpt lat="43.2279" lon="3.20571">
        <ele>2.8</ele>
      </trkpt>
      <trkpt lat="43.22782" lon="3.20503">
        <ele>1.8</ele>
      </trkpt>
      <trkpt lat="43.2279" lon="3.20486">
        <ele>2</ele>
      </trkpt>
      <trkpt lat="43.22802" lon="3.20478">
        <ele>2.2</ele>
      </trkpt>
      <trkpt lat="43.22824" lon="3.20467">
        <ele>2.5</ele>
      </trkpt>
      <trkpt lat="43.22985" lon="3.2041">
        <ele>3.1</ele>
      </trkpt>
      <trkpt lat="43.23005" lon="3.20401">
        <ele>3.1</ele>
      </trkpt>
      <trkpt lat="43.23012" lon="3.20391">
        <ele>3.2</ele>
      </trkpt>
      <trkpt lat="43.23102" lon="3.20071">
        <ele>2.5</ele>
      </trkpt>
      <trkpt lat="43.23313" lon="3.19306">
        <ele>3.1</ele>
      </trkpt>
      <trkpt lat="43.23299" lon="3.19304">
        <ele>3.5</ele>
      </trkpt>
      <trkpt lat="43.2319" lon="3.19314">
        <ele>4.5</ele>
      </trkpt>
      <trkpt lat="43.23143" lon="3.19326">
        <ele>3.9</ele>
      </trkpt>
      <trkpt lat="43.22926" lon="3.1941">
        <ele>2.9</ele>
      </trkpt>
      <trkpt lat="43.22908" lon="3.19411">
        <ele>3.1</ele>
      </trkpt>
      <trkpt lat="43.22759" lon="3.19386">
        <ele>3.9</ele>
      </trkpt>
      <trkpt lat="43.22739" lon="3.19384">
        <ele>4</ele>
      </trkpt>
      <trkpt lat="43.22496" lon="3.19411">
        <ele>4.4</ele>
      </trkpt>
      <trkpt lat="43.22421" lon="3.19422">
        <ele>6.5</ele>
      </trkpt>
      <trkpt lat="43.22407" lon="3.19428">
        <ele>6.1</ele>
      </trkpt>
      <trkpt lat="43.22378" lon="3.19431">
        <ele>5.7</ele>
      </trkpt>
      <trkpt lat="43.22357" lon="3.19422">
        <ele>6</ele>
      </trkpt>
      <trkpt lat="43.22327" lon="3.19413">
        <ele>5.9</ele>
      </trkpt>
      <trkpt lat="43.22305" lon="3.19407">
        <ele>5.4</ele>
      </trkpt>
      <trkpt lat="43.22243" lon="3.19399">
        <ele>3.9</ele>
      </trkpt>
      <trkpt lat="43.22196" lon="3.19395">
        <ele>3.5</ele>
      </trkpt>
      <trkpt lat="43.22169" lon="3.19404">
        <ele>3.2</ele>
      </trkpt>
      <trkpt lat="43.22152" lon="3.19413">
        <ele>2.9</ele>
      </trkpt>
      <trkpt lat="43.2214" lon="3.19423">
        <ele>2.6</ele>
      </trkpt>
      <trkpt lat="43.22099" lon="3.19451">
        <ele>2</ele>
      </trkpt>
      <trkpt lat="43.22037" lon="3.19484">
        <ele>2.7</ele>
      </trkpt>
      <trkpt lat="43.22016" lon="3.19494">
        <ele>2.9</ele>
      </trkpt>
      <trkpt lat="43.22004" lon="3.19496">
        <ele>3</ele>
      </trkpt>
      <trkpt lat="43.21993" lon="3.19494">
        <ele>3.1</ele>
      </trkpt>
      <trkpt lat="43.21867" lon="3.19457">
        <ele>3.5</ele>
      </trkpt>
      <trkpt lat="43.21833" lon="3.19452">
        <ele>3.6</ele>
      </trkpt>
      <trkpt lat="43.21776" lon="3.19457">
        <ele>2.8</ele>
      </trkpt>
      <trkpt lat="43.21693" lon="3.19466">
        <ele>2.8</ele>
      </trkpt>
      <trkpt lat="43.21586" lon="3.19469">
        <ele>3.4</ele>
      </trkpt>
      <trkpt lat="43.21572" lon="3.19466">
        <ele>3.2</ele>
      </trkpt>
      <trkpt lat="43.21536" lon="3.19451">
        <ele>2.8</ele>
      </trkpt>
      <trkpt lat="43.21514" lon="3.19436">
        <ele>2.7</ele>
      </trkpt>
      <trkpt lat="43.21494" lon="3.19428">
        <ele>2.7</ele>
      </trkpt>
      <trkpt lat="43.21449" lon="3.19416">
        <ele>2.4</ele>
      </trkpt>
      <trkpt lat="43.2143" lon="3.19413">
        <ele>2.2</ele>
      </trkpt>
      <trkpt lat="43.21419" lon="3.19413">
        <ele>2.1</ele>
      </trkpt>
      <trkpt lat="43.21413" lon="3.19415">
        <ele>2.1</ele>
      </trkpt>
      <trkpt lat="43.21386" lon="3.19432">
        <ele>2.4</ele>
      </trkpt>
      <trkpt lat="43.21332" lon="3.19455">
        <ele>3</ele>
      </trkpt>
      <trkpt lat="43.21273" lon="3.19462">
        <ele>2.6</ele>
      </trkpt>
      <trkpt lat="43.21237" lon="3.19468">
        <ele>2.2</ele>
      </trkpt>
      <trkpt lat="43.21187" lon="3.19473">
        <ele>1.6</ele>
      </trkpt>
      <trkpt lat="43.21085" lon="3.19462">
        <ele>1.5</ele>
      </trkpt>
      <trkpt lat="43.21048" lon="3.19464">
        <ele>1.58</ele>
      </trkpt>
      <trkpt lat="43.21037" lon="3.19462">
        <ele>1.44</ele>
      </trkpt>
      <trkpt lat="43.20928" lon="3.19424">
        <ele>1</ele>
      </trkpt>
      <trkpt lat="43.2079" lon="3.19395">
        <ele>2</ele>
      </trkpt>
      <trkpt lat="43.2078" lon="3.19394">
        <ele>1.8</ele>
      </trkpt>
      <trkpt lat="43.20749" lon="3.19395">
        <ele>1.3</ele>
      </trkpt>
      <trkpt lat="43.20739" lon="3.1939">
        <ele>1.3</ele>
      </trkpt>
      <trkpt lat="43.20715" lon="3.19361">
        <ele>1.7</ele>
      </trkpt>
      <trkpt lat="43.20702" lon="3.19349">
        <ele>1.8</ele>
      </trkpt>
      <trkpt lat="43.20662" lon="3.19331">
        <ele>4.84</ele>
      </trkpt>
      <trkpt lat="43.2065" lon="3.19328">
        <ele>4.41</ele>
      </trkpt>
      <trkpt lat="43.20609" lon="3.19327">
        <ele>2.91</ele>
      </trkpt>
      <trkpt lat="43.20597" lon="3.19323">
        <ele>2.48</ele>
      </trkpt>
      <trkpt lat="43.20581" lon="3.19315">
        <ele>2</ele>
      </trkpt>
      <trkpt lat="43.20569" lon="3.19306">
        <ele>2</ele>
      </trkpt>
      <trkpt lat="43.20556" lon="3.19292">
        <ele>2</ele>
      </trkpt>
      <trkpt lat="43.20517" lon="3.19243">
        <ele>2.5</ele>
      </trkpt>
      <trkpt lat="43.20495" lon="3.19223">
        <ele>3.5</ele>
      </trkpt>
      <trkpt lat="43.20486" lon="3.19219">
        <ele>3.5</ele>
      </trkpt>
      <trkpt lat="43.20383" lon="3.19152">
        <ele>2</ele>
      </trkpt>
      <trkpt lat="43.20342" lon="3.19131">
        <ele>3</ele>
      </trkpt>
      <trkpt lat="43.20321" lon="3.19124">
        <ele>3.4</ele>
      </trkpt>
      <trkpt lat="43.20307" lon="3.19121">
        <ele>3.4</ele>
      </trkpt>
      <trkpt lat="43.20186" lon="3.19109">
        <ele>2.2</ele>
      </trkpt>
      <trkpt lat="43.20123" lon="3.19108">
        <ele>2</ele>
      </trkpt>
      <trkpt lat="43.19895" lon="3.19116">
        <ele>1.7</ele>
      </trkpt>
      <trkpt lat="43.19865" lon="3.19121">
        <ele>2.1</ele>
      </trkpt>
      <trkpt lat="43.19841" lon="3.19126">
        <ele>2.4</ele>
      </trkpt>
      <trkpt lat="43.19833" lon="3.1913">
        <ele>2.6</ele>
      </trkpt>
      <trkpt lat="43.19829" lon="3.19144">
        <ele>2.8</ele>
      </trkpt>
      <trkpt lat="43.19829" lon="3.19172">
        <ele>3.1</ele>
      </trkpt>
      <trkpt lat="43.19833" lon="3.19231">
        <ele>3</ele>
      </trkpt>
      <trkpt lat="43.19827" lon="3.1931">
        <ele>2.3</ele>
      </trkpt>
      <trkpt lat="43.19829" lon="3.19439">
        <ele>1.3</ele>
      </trkpt>
      <trkpt lat="43.19822" lon="3.19572">
        <ele>2</ele>
      </trkpt>
      <trkpt lat="43.19818" lon="3.19594">
        <ele>2</ele>
      </trkpt>
      <trkpt lat="43.19808" lon="3.19607">
        <ele>2</ele>
      </trkpt>
      <trkpt lat="43.19737" lon="3.19649">
        <ele>2</ele>
      </trkpt>
      <trkpt lat="43.19634" lon="3.19725">
        <ele>1.3</ele>
      </trkpt>
      <trkpt lat="43.19612" lon="3.19738">
        <ele>1.1</ele>
      </trkpt>
      <trkpt lat="43.19545" lon="3.19749">
        <ele>1</ele>
      </trkpt>
      <trkpt lat="43.19524" lon="3.19752">
        <ele>1</ele>
      </trkpt>
      <trkpt lat="43.19488" lon="3.19768">
        <ele>1.4</ele>
      </trkpt>
      <trkpt lat="43.19423" lon="3.19806">
        <ele>2.3</ele>
      </trkpt>
      <trkpt lat="43.1941" lon="3.19809">
        <ele>2.4</ele>
      </trkpt>
      <trkpt lat="43.19397" lon="3.19805">
        <ele>2.3</ele>
      </trkpt>
      <trkpt lat="43.19365" lon="3.19777">
        <ele>1.7</ele>
      </trkpt>
      <trkpt lat="43.19317" lon="3.19729">
        <ele>1.8</ele>
      </trkpt>
      <trkpt lat="43.19295" lon="3.1971">
        <ele>1.7</ele>
      </trkpt>
      <trkpt lat="43.19271" lon="3.19699">
        <ele>1.8</ele>
      </trkpt>
      <trkpt lat="43.19212" lon="3.19679">
        <ele>2</ele>
      </trkpt>
      <trkpt lat="43.19196" lon="3.19676">
        <ele>2</ele>
      </trkpt>
      <trkpt lat="43.19184" lon="3.19678">
        <ele>2</ele>
      </trkpt>
      <trkpt lat="43.19164" lon="3.19679">
        <ele>2</ele>
      </trkpt>
      <trkpt lat="43.19151" lon="3.19673">
        <ele>2</ele>
      </trkpt>
      <trkpt lat="43.19129" lon="3.19655">
        <ele>2</ele>
      </trkpt>
      <trkpt lat="43.19113" lon="3.19644">
        <ele>2</ele>
      </trkpt>
      <trkpt lat="43.19098" lon="3.1964">
        <ele>2</ele>
      </trkpt>
      <trkpt lat="43.19016" lon="3.19643">
        <ele>1.3</ele>
      </trkpt>
      <trkpt lat="43.18997" lon="3.19649">
        <ele>1.3</ele>
      </trkpt>
      <trkpt lat="43.1898" lon="3.19658">
        <ele>1.6</ele>
      </trkpt>
      <trkpt lat="43.18973" lon="3.19666">
        <ele>1.7</ele>
      </trkpt>
      <trkpt lat="43.18937" lon="3.19632">
        <ele>3.2</ele>
      </trkpt>
      <trkpt lat="43.18929" lon="3.19629">
        <ele>3.5</ele>
      </trkpt>
      <trkpt lat="43.18921" lon="3.1963">
        <ele>3.8</ele>
      </trkpt>
      <trkpt lat="43.18903" lon="3.1964">
        <ele>4.5</ele>
      </trkpt>
      <trkpt lat="43.18877" lon="3.19658">
        <ele>5.3</ele>
      </trkpt>
      <trkpt lat="43.18848" lon="3.19667">
        <ele>6.3</ele>
      </trkpt>
      <trkpt lat="43.18837" lon="3.19667">
        <ele>6.8</ele>
      </trkpt>
      <trkpt lat="43.18823" lon="3.19661">
        <ele>8.2</ele>
      </trkpt>
      <trkpt lat="43.18824" lon="3.19657">
        <ele>8.3</ele>
      </trkpt>
      <trkpt lat="43.18823" lon="3.19646">
        <ele>9.1</ele>
      </trkpt>
      <trkpt lat="43.18819" lon="3.19639">
        <ele>9.9</ele>
      </trkpt>
      <trkpt lat="43.1881" lon="3.19636">
        <ele>10.9</ele>
      </trkpt>
      <trkpt lat="43.18803" lon="3.19639">
        <ele>11.4</ele>
      </trkpt>
      <trkpt lat="43.18799" lon="3.19646">
        <ele>11.2</ele>
      </trkpt>
      <trkpt lat="43.18798" lon="3.19651">
        <ele>11.1</ele>
      </trkpt>
      <trkpt lat="43.18799" lon="3.1966">
        <ele>10.3</ele>
      </trkpt>
      <trkpt lat="43.18807" lon="3.1967">
        <ele>9</ele>
      </trkpt>
      <trkpt lat="43.18802" lon="3.19685">
        <ele>8.4</ele>
      </trkpt>
      <trkpt lat="43.18794" lon="3.19697">
        <ele>8.2</ele>
      </trkpt>
      <trkpt lat="43.18754" lon="3.19731">
        <ele>7.7</ele>
      </trkpt>
      <trkpt lat="43.1874" lon="3.19745">
        <ele>6.2</ele>
      </trkpt>
      <trkpt lat="43.18722" lon="3.19773">
        <ele>4.5</ele>
      </trkpt>
      <trkpt lat="43.18707" lon="3.19792">
        <ele>3.7</ele>
      </trkpt>
      <trkpt lat="43.1869" lon="3.19801">
        <ele>3.4</ele>
      </trkpt>
      <trkpt lat="43.18683" lon="3.19802">
        <ele>3.4</ele>
      </trkpt>
      <trkpt lat="43.18674" lon="3.19801">
        <ele>3.4</ele>
      </trkpt>
      <trkpt lat="43.18657" lon="3.19791">
        <ele>3.3</ele>
      </trkpt>
      <trkpt lat="43.18518" lon="3.19646">
        <ele>3.3</ele>
      </trkpt>
      <trkpt lat="43.18501" lon="3.19631">
        <ele>2.9</ele>
      </trkpt>
      <trkpt lat="43.18489" lon="3.19625">
        <ele>2.9</ele>
      </trkpt>
      <trkpt lat="43.18455" lon="3.19624">
        <ele>2.8</ele>
      </trkpt>
      <trkpt lat="43.1844" lon="3.19622">
        <ele>2.7</ele>
      </trkpt>
      <trkpt lat="43.18432" lon="3.19619">
        <ele>2.7</ele>
      </trkpt>
      <trkpt lat="43.18417" lon="3.19606">
        <ele>2.7</ele>
      </trkpt>
      <trkpt lat="43.18379" lon="3.19564">
        <ele>3</ele>
      </trkpt>
      <trkpt lat="43.18345" lon="3.19531">
        <ele>2.5</ele>
      </trkpt>
      <trkpt lat="43.1831" lon="3.19493">
        <ele>1.8</ele>
      </trkpt>
      <trkpt lat="43.18304" lon="3.19503">
        <ele>1.7</ele>
      </trkpt>
      <trkpt lat="43.1831" lon="3.19493">
        <ele>1.8</ele>
      </trkpt>
      <trkpt lat="43.18213" lon="3.19389">
        <ele>2</ele>
      </trkpt>
      <trkpt lat="43.18204" lon="3.1938">
        <ele>2</ele>
      </trkpt>
      <trkpt lat="43.18188" lon="3.19369">
        <ele>2</ele>
      </trkpt>
      <trkpt lat="43.18131" lon="3.1931">
        <ele>3.2</ele>
      </trkpt>
      <trkpt lat="43.18051" lon="3.1923">
        <ele>4.2</ele>
      </trkpt>
      <trkpt lat="43.17933" lon="3.19098">
        <ele>5.4</ele>
      </trkpt>
      <trkpt lat="43.17888" lon="3.19046">
        <ele>5.5</ele>
      </trkpt>
      <trkpt lat="43.17841" lon="3.19012">
        <ele>5.9</ele>
      </trkpt>
      <trkpt lat="43.17825" lon="3.19004">
        <ele>5.9</ele>
      </trkpt>
      <trkpt lat="43.17809" lon="3.18987">
        <ele>6</ele>
      </trkpt>
      <trkpt lat="43.17783" lon="3.18964">
        <ele>5.6</ele>
      </trkpt>
      <trkpt lat="43.17748" lon="3.18938">
        <ele>4.06</ele>
      </trkpt>
      <trkpt lat="43.17726" lon="3.18916">
        <ele>4.9</ele>
      </trkpt>
      <trkpt lat="43.17714" lon="3.18898">
        <ele>5.9</ele>
      </trkpt>
      <trkpt lat="43.1767" lon="3.18784">
        <ele>5.8</ele>
      </trkpt>
      <trkpt lat="43.17653" lon="3.1873">
        <ele>4.1</ele>
      </trkpt>
      <trkpt lat="43.17658" lon="3.18731">
        <ele>4</ele>
      </trkpt>
      <trkpt lat="43.1766" lon="3.18729">
        <ele>3.9</ele>
      </trkpt>
      <trkpt lat="43.17661" lon="3.18722">
        <ele>3.8</ele>
      </trkpt>
      <trkpt lat="43.17657" lon="3.18718">
        <ele>3.8</ele>
      </trkpt>
      <trkpt lat="43.17654" lon="3.18718">
        <ele>3.9</ele>
      </trkpt>
      <trkpt lat="43.17652" lon="3.18721">
        <ele>3.9</ele>
      </trkpt>
      <trkpt lat="43.17647" lon="3.1871">
        <ele>3.9</ele>
      </trkpt>
      <trkpt lat="43.17635" lon="3.1869">
        <ele>3.8</ele>
      </trkpt>
      <trkpt lat="43.17586" lon="3.18626">
        <ele>4</ele>
      </trkpt>
      <trkpt lat="43.17572" lon="3.18602">
        <ele>3.9</ele>
      </trkpt>
      <trkpt lat="43.17574" lon="3.18596">
        <ele>3.9</ele>
      </trkpt>
      <trkpt lat="43.17571" lon="3.18581">
        <ele>4</ele>
      </trkpt>
      <trkpt lat="43.17562" lon="3.18575">
        <ele>4.1</ele>
      </trkpt>
      <trkpt lat="43.17555" lon="3.18578">
        <ele>3.8</ele>
      </trkpt>
      <trkpt lat="43.17552" lon="3.18586">
        <ele>3.6</ele>
      </trkpt>
      <trkpt lat="43.17536" lon="3.18574">
        <ele>3.6</ele>
      </trkpt>
      <trkpt lat="43.17522" lon="3.1856">
        <ele>3.6</ele>
      </trkpt>
      <trkpt lat="43.17491" lon="3.18512">
        <ele>3.1</ele>
      </trkpt>
      <trkpt lat="43.17488" lon="3.18505">
        <ele>3.2</ele>
      </trkpt>
      <trkpt lat="43.17455" lon="3.18453">
        <ele>3.8</ele>
      </trkpt>
      <trkpt lat="43.17419" lon="3.18408">
        <ele>4.1</ele>
      </trkpt>
      <trkpt lat="43.17388" lon="3.18378">
        <ele>4</ele>
      </trkpt>
      <trkpt lat="43.17389" lon="3.18374">
        <ele>4</ele>
      </trkpt>
      <trkpt lat="43.17387" lon="3.18368">
        <ele>4</ele>
      </trkpt>
      <trkpt lat="43.17381" lon="3.18368">
        <ele>3.9</ele>
      </trkpt>
      <trkpt lat="43.1738" lon="3.1837">
        <ele>3.9</ele>
      </trkpt>
      <trkpt lat="43.17349" lon="3.18349">
        <ele>3.3</ele>
      </trkpt>
      <trkpt lat="43.17317" lon="3.18317">
        <ele>3.5</ele>
      </trkpt>
      <trkpt lat="43.17245" lon="3.18229">
        <ele>5.1</ele>
      </trkpt>
      <trkpt lat="43.17238" lon="3.18223">
        <ele>5.3</ele>
      </trkpt>
      <trkpt lat="43.17239" lon="3.18219">
        <ele>5.5</ele>
      </trkpt>
      <trkpt lat="43.17236" lon="3.18212">
        <ele>5.9</ele>
      </trkpt>
      <trkpt lat="43.17233" lon="3.18211">
        <ele>5.9</ele>
      </trkpt>
      <trkpt lat="43.1723" lon="3.18212">
        <ele>5.7</ele>
      </trkpt>
      <trkpt lat="43.17141" lon="3.18103">
        <ele>6.1</ele>
      </trkpt>
      <trkpt lat="43.17121" lon="3.18081">
        <ele>4.5</ele>
      </trkpt>
      <trkpt lat="43.17087" lon="3.1805">
        <ele>2</ele>
      </trkpt>
      <trkpt lat="43.17068" lon="3.18035">
        <ele>2.5</ele>
      </trkpt>
      <trkpt lat="43.17047" lon="3.18015">
        <ele>3</ele>
      </trkpt>
      <trkpt lat="43.17007" lon="3.17963">
        <ele>2.1</ele>
      </trkpt>
      <trkpt lat="43.16994" lon="3.17959">
        <ele>2</ele>
      </trkpt>
      <trkpt lat="43.16985" lon="3.1796">
        <ele>2.1</ele>
      </trkpt>
      <trkpt lat="43.16976" lon="3.17959">
        <ele>2.2</ele>
      </trkpt>
      <trkpt lat="43.16916" lon="3.17947">
        <ele>2.3</ele>
      </trkpt>
      <trkpt lat="43.16896" lon="3.17927">
        <ele>1.8</ele>
      </trkpt>
      <trkpt lat="43.1687" lon="3.17893">
        <ele>1.6</ele>
      </trkpt>
      <trkpt lat="43.16852" lon="3.17865">
        <ele>1.7</ele>
      </trkpt>
      <trkpt lat="43.1684" lon="3.17851">
        <ele>1.8</ele>
      </trkpt>
      <trkpt lat="43.16822" lon="3.17826">
        <ele>2.3</ele>
      </trkpt>
      <trkpt lat="43.16799" lon="3.17798">
        <ele>2.7</ele>
      </trkpt>
      <trkpt lat="43.16782" lon="3.17771">
        <ele>2.8</ele>
      </trkpt>
      <trkpt lat="43.16763" lon="3.17748">
        <ele>2.8</ele>
      </trkpt>
      <trkpt lat="43.16756" lon="3.17737">
        <ele>2.9</ele>
      </trkpt>
      <trkpt lat="43.16704" lon="3.17674">
        <ele>2.9</ele>
      </trkpt>
      <trkpt lat="43.16681" lon="3.17639">
        <ele>2.9</ele>
      </trkpt>
      <trkpt lat="43.16657" lon="3.17672">
        <ele>2.9</ele>
      </trkpt>
      <trkpt lat="43.16623" lon="3.17627">
        <ele>3</ele>
      </trkpt>
      <trkpt lat="43.1657" lon="3.17563">
        <ele>3.1</ele>
      </trkpt>
      <trkpt lat="43.16548" lon="3.17538">
        <ele>3.7</ele>
      </trkpt>
      <trkpt lat="43.165" lon="3.1748">
        <ele>5.5</ele>
      </trkpt>
      <trkpt lat="43.16472" lon="3.1745">
        <ele>4.8</ele>
      </trkpt>
      <trkpt lat="43.16373" lon="3.1733">
        <ele>3.5</ele>
      </trkpt>
      <trkpt lat="43.16324" lon="3.17275">
        <ele>3.5</ele>
      </trkpt>
      <trkpt lat="43.16307" lon="3.17256">
        <ele>3.9</ele>
      </trkpt>
      <trkpt lat="43.16294" lon="3.17237">
        <ele>4.1</ele>
      </trkpt>
      <trkpt lat="43.16267" lon="3.17205">
        <ele>4.3</ele>
      </trkpt>
      <trkpt lat="43.16237" lon="3.17163">
        <ele>4</ele>
      </trkpt>
      <trkpt lat="43.16233" lon="3.17148">
        <ele>3.8</ele>
      </trkpt>
      <trkpt lat="43.1622" lon="3.17124">
        <ele>3.7</ele>
      </trkpt>
      <trkpt lat="43.16188" lon="3.1708">
        <ele>3.7</ele>
      </trkpt>
      <trkpt lat="43.16171" lon="3.1706">
        <ele>3.7</ele>
      </trkpt>
      <trkpt lat="43.16132" lon="3.17034">
        <ele>4.4</ele>
      </trkpt>
      <trkpt lat="43.16099" lon="3.17006">
        <ele>6.1</ele>
      </trkpt>
      <trkpt lat="43.16037" lon="3.16944">
        <ele>6</ele>
      </trkpt>
      <trkpt lat="43.16013" lon="3.16916">
        <ele>5.8</ele>
      </trkpt>
      <trkpt lat="43.15996" lon="3.1689">
        <ele>5.4</ele>
      </trkpt>
      <trkpt lat="43.15977" lon="3.16868">
        <ele>5.3</ele>
      </trkpt>
      <trkpt lat="43.15917" lon="3.16809">
        <ele>6.7</ele>
      </trkpt>
      <trkpt lat="43.15812" lon="3.16707">
        <ele>6.3</ele>
      </trkpt>
      <trkpt lat="43.15732" lon="3.16621">
        <ele>3.1</ele>
      </trkpt>
      <trkpt lat="43.15734" lon="3.16616">
        <ele>3.2</ele>
      </trkpt>
      <trkpt lat="43.15734" lon="3.1661">
        <ele>3.4</ele>
      </trkpt>
      <trkpt lat="43.15729" lon="3.16603">
        <ele>3.5</ele>
      </trkpt>
      <trkpt lat="43.15726" lon="3.16602">
        <ele>3.6</ele>
      </trkpt>
      <trkpt lat="43.15723" lon="3.16603">
        <ele>3.5</ele>
      </trkpt>
      <trkpt lat="43.15719" lon="3.16608">
        <ele>3.4</ele>
      </trkpt>
      <trkpt lat="43.15648" lon="3.16547">
        <ele>4.9</ele>
      </trkpt>
      <trkpt lat="43.15575" lon="3.16471">
        <ele>5.6</ele>
      </trkpt>
      <trkpt lat="43.15408" lon="3.16304">
        <ele>3</ele>
      </trkpt>
      <trkpt lat="43.15393" lon="3.1628">
        <ele>3</ele>
      </trkpt>
      <trkpt lat="43.15392" lon="3.16271">
        <ele>3</ele>
      </trkpt>
      <trkpt lat="43.15387" lon="3.16267">
        <ele>3</ele>
      </trkpt>
      <trkpt lat="43.15383" lon="3.16267">
        <ele>3</ele>
      </trkpt>
      <trkpt lat="43.15378" lon="3.16271">
        <ele>3</ele>
      </trkpt>
      <trkpt lat="43.15258" lon="3.16163">
        <ele>2.9</ele>
      </trkpt>
      <trkpt lat="43.15378" lon="3.16271">
        <ele>3</ele>
      </trkpt>
      <trkpt lat="43.15377" lon="3.16278">
        <ele>3</ele>
      </trkpt>
      <trkpt lat="43.15383" lon="3.16287">
        <ele>3</ele>
      </trkpt>
      <trkpt lat="43.15387" lon="3.16287">
        <ele>3</ele>
      </trkpt>
      <trkpt lat="43.1539" lon="3.16285">
        <ele>3</ele>
      </trkpt>
      <trkpt lat="43.15393" lon="3.1628">
        <ele>3</ele>
      </trkpt>
      <trkpt lat="43.15393" lon="3.16276">
        <ele>3</ele>
      </trkpt>
      <trkpt lat="43.15508" lon="3.16307">
        <ele>3.1</ele>
      </trkpt>
      <trkpt lat="43.15583" lon="3.16334">
        <ele>4</ele>
      </trkpt>
      <trkpt lat="43.15594" lon="3.16234">
        <ele>3.7</ele>
      </trkpt>
      <trkpt lat="43.15602" lon="3.16234">
        <ele>3.7</ele>
      </trkpt>
      <trkpt lat="43.15605" lon="3.16229">
        <ele>3.6</ele>
      </trkpt>
      <trkpt lat="43.15606" lon="3.16223">
        <ele>3.4</ele>
      </trkpt>
      <trkpt lat="43.15602" lon="3.16213">
        <ele>3.1</ele>
      </trkpt>
      <trkpt lat="43.15598" lon="3.16212">
        <ele>3.1</ele>
      </trkpt>
      <trkpt lat="43.15594" lon="3.16213">
        <ele>3.1</ele>
      </trkpt>
      <trkpt lat="43.15591" lon="3.16217">
        <ele>3.2</ele>
      </trkpt>
      <trkpt lat="43.1559" lon="3.16223">
        <ele>3.4</ele>
      </trkpt>
      <trkpt lat="43.15565" lon="3.16206">
        <ele>2.9</ele>
      </trkpt>
      <trkpt lat="43.15534" lon="3.16177">
        <ele>2.7</ele>
      </trkpt>
      <trkpt lat="43.15486" lon="3.16138">
        <ele>2.4</ele>
      </trkpt>
      <trkpt lat="43.1545" lon="3.16095">
        <ele>2.3</ele>
      </trkpt>
      <trkpt lat="43.15336" lon="3.15912">
        <ele>1</ele>
      </trkpt>
      <trkpt lat="43.15341" lon="3.159">
        <ele>1</ele>
      </trkpt>
      <trkpt lat="43.15339" lon="3.15888">
        <ele>1</ele>
      </trkpt>
      <trkpt lat="43.15334" lon="3.15883">
        <ele>1</ele>
      </trkpt>
      <trkpt lat="43.15328" lon="3.15881">
        <ele>2.6</ele>
      </trkpt>
      <trkpt lat="43.15321" lon="3.15884">
        <ele>2.5</ele>
      </trkpt>
      <trkpt lat="43.15299" lon="3.15846">
        <ele>2.1</ele>
      </trkpt>
      <trkpt lat="43.15299" lon="3.15831">
        <ele>2.3</ele>
      </trkpt>
      <trkpt lat="43.15285" lon="3.15798">
        <ele>2.7</ele>
      </trkpt>
      <trkpt lat="43.15251" lon="3.15801">
        <ele>2</ele>
      </trkpt>
      <trkpt lat="43.15205" lon="3.15798">
        <ele>1</ele>
      </trkpt>
      <trkpt lat="43.15156" lon="3.15787">
        <ele>1</ele>
      </trkpt>
      <trkpt lat="43.15127" lon="3.15777">
        <ele>1</ele>
      </trkpt>
      <trkpt lat="43.15094" lon="3.1576">
        <ele>1</ele>
      </trkpt>
      <trkpt lat="43.15065" lon="3.15741">
        <ele>1</ele>
      </trkpt>
      <trkpt lat="43.15036" lon="3.15718">
        <ele>1.2</ele>
      </trkpt>
      <trkpt lat="43.15015" lon="3.15697">
        <ele>1.5</ele>
      </trkpt>
      <trkpt lat="43.14994" lon="3.15673">
        <ele>1.9</ele>
      </trkpt>
      <trkpt lat="43.14963" lon="3.15632">
        <ele>1.8</ele>
      </trkpt>
      <trkpt lat="43.14938" lon="3.15594">
        <ele>1.4</ele>
      </trkpt>
      <trkpt lat="43.14651" lon="3.15101">
        <ele>1.8</ele>
      </trkpt>
      <trkpt lat="43.14622" lon="3.15045">
        <ele>1.5</ele>
      </trkpt>
      <trkpt lat="43.14606" lon="3.15003">
        <ele>1.3</ele>
      </trkpt>
      <trkpt lat="43.14589" lon="3.14954">
        <ele>1</ele>
      </trkpt>
      <trkpt lat="43.14571" lon="3.14869">
        <ele>1</ele>
      </trkpt>
      <trkpt lat="43.14566" lon="3.14806">
        <ele>1.3</ele>
      </trkpt>
      <trkpt lat="43.14563" lon="3.14719">
        <ele>2.3</ele>
      </trkpt>
      <trkpt lat="43.14563" lon="3.1464">
        <ele>2.8</ele>
      </trkpt>
      <trkpt lat="43.14561" lon="3.14577">
        <ele>1.7</ele>
      </trkpt>
      <trkpt lat="43.14555" lon="3.14502">
        <ele>2</ele>
      </trkpt>
      <trkpt lat="43.14559" lon="3.14498">
        <ele>2</ele>
      </trkpt>
      <trkpt lat="43.1456" lon="3.14492">
        <ele>2</ele>
      </trkpt>
      <trkpt lat="43.14559" lon="3.14486">
        <ele>1.9</ele>
      </trkpt>
      <trkpt lat="43.14555" lon="3.14482">
        <ele>1.9</ele>
      </trkpt>
      <trkpt lat="43.14551" lon="3.1448">
        <ele>1.9</ele>
      </trkpt>
      <trkpt lat="43.14546" lon="3.14467">
        <ele>1.8</ele>
      </trkpt>
      <trkpt lat="43.14534" lon="3.14419">
        <ele>1.4</ele>
      </trkpt>
      <trkpt lat="43.14518" lon="3.14371">
        <ele>1.1</ele>
      </trkpt>
      <trkpt lat="43.145" lon="3.1433">
        <ele>1</ele>
      </trkpt>
      <trkpt lat="43.14479" lon="3.14291">
        <ele>1.4</ele>
      </trkpt>
      <trkpt lat="43.14462" lon="3.14263">
        <ele>1.5</ele>
      </trkpt>
      <trkpt lat="43.14444" lon="3.14237">
        <ele>1.8</ele>
      </trkpt>
      <trkpt lat="43.14415" lon="3.14203">
        <ele>2.6</ele>
      </trkpt>
      <trkpt lat="43.14343" lon="3.14132">
        <ele>2.8</ele>
      </trkpt>
      <trkpt lat="43.13755" lon="3.13569">
        <ele>2.9</ele>
      </trkpt>
      <trkpt lat="43.13723" lon="3.1354">
        <ele>3.5</ele>
      </trkpt>
      <trkpt lat="43.1368" lon="3.13492">
        <ele>3.7</ele>
      </trkpt>
      <trkpt lat="43.13624" lon="3.1341">
        <ele>2</ele>
      </trkpt>
      <trkpt lat="43.13627" lon="3.13403">
        <ele>2.1</ele>
      </trkpt>
      <trkpt lat="43.13628" lon="3.13396">
        <ele>2.1</ele>
      </trkpt>
      <trkpt lat="43.13625" lon="3.13382">
        <ele>2.2</ele>
      </trkpt>
      <trkpt lat="43.13621" lon="3.13376">
        <ele>2.3</ele>
      </trkpt>
      <trkpt lat="43.13612" lon="3.13374">
        <ele>2.3</ele>
      </trkpt>
      <trkpt lat="43.13606" lon="3.13376">
        <ele>2.4</ele>
      </trkpt>
      <trkpt lat="43.13602" lon="3.1338">
        <ele>2.3</ele>
      </trkpt>
      <trkpt lat="43.13599" lon="3.13386">
        <ele>2.3</ele>
      </trkpt>
      <trkpt lat="43.13528" lon="3.13344">
        <ele>3</ele>
      </trkpt>
      <trkpt lat="43.13508" lon="3.1333">
        <ele>3</ele>
      </trkpt>
      <trkpt lat="43.13486" lon="3.13311">
        <ele>2.8</ele>
      </trkpt>
      <trkpt lat="43.13227" lon="3.13062">
        <ele>2.4</ele>
      </trkpt>
      <trkpt lat="43.13118" lon="3.12959">
        <ele>2.2</ele>
      </trkpt>
      <trkpt lat="43.13049" lon="3.12887">
        <ele>1.8</ele>
      </trkpt>
      <trkpt lat="43.12986" lon="3.12804">
        <ele>3.5</ele>
      </trkpt>
      <trkpt lat="43.12988" lon="3.12793">
        <ele>3.4</ele>
      </trkpt>
      <trkpt lat="43.12986" lon="3.12783">
        <ele>3.2</ele>
      </trkpt>
      <trkpt lat="43.12981" lon="3.12777">
        <ele>3.1</ele>
      </trkpt>
      <trkpt lat="43.12974" lon="3.12774">
        <ele>3</ele>
      </trkpt>
      <trkpt lat="43.12967" lon="3.12777">
        <ele>2.9</ele>
      </trkpt>
      <trkpt lat="43.12962" lon="3.12783">
        <ele>2.9</ele>
      </trkpt>
      <trkpt lat="43.12919" lon="3.12715">
        <ele>1.6</ele>
      </trkpt>
      <trkpt lat="43.1271" lon="3.12406">
        <ele>1.1</ele>
      </trkpt>
      <trkpt lat="43.1253" lon="3.12134">
        <ele>1.8</ele>
      </trkpt>
      <trkpt lat="43.12513" lon="3.12106">
        <ele>2</ele>
      </trkpt>
      <trkpt lat="43.12441" lon="3.12">
        <ele>3.4</ele>
      </trkpt>
      <trkpt lat="43.12351" lon="3.11862">
        <ele>1.9</ele>
      </trkpt>
      <trkpt lat="43.12007" lon="3.11347">
        <ele>2</ele>
      </trkpt>
      <trkpt lat="43.11969" lon="3.11291">
        <ele>2.4</ele>
      </trkpt>
      <trkpt lat="43.11917" lon="3.11207">
        <ele>2.4</ele>
      </trkpt>
      <trkpt lat="43.11921" lon="3.11194">
        <ele>1.9</ele>
      </trkpt>
      <trkpt lat="43.1192" lon="3.11187">
        <ele>1.7</ele>
      </trkpt>
      <trkpt lat="43.11916" lon="3.11179">
        <ele>1.5</ele>
      </trkpt>
      <trkpt lat="43.11909" lon="3.11174">
        <ele>1.5</ele>
      </trkpt>
      <trkpt lat="43.11903" lon="3.11174">
        <ele>1.7</ele>
      </trkpt>
      <trkpt lat="43.11898" lon="3.11176">
        <ele>1.9</ele>
      </trkpt>
      <trkpt lat="43.11895" lon="3.11181">
        <ele>2.1</ele>
      </trkpt>
      <trkpt lat="43.11894" lon="3.1119">
        <ele>2.4</ele>
      </trkpt>
      <trkpt lat="43.11894" lon="3.11199">
        <ele>2.6</ele>
      </trkpt>
      <trkpt lat="43.11897" lon="3.11206">
        <ele>2.7</ele>
      </trkpt>
      <trkpt lat="43.11876" lon="3.11226">
        <ele>3.2</ele>
      </trkpt>
      <trkpt lat="43.1185" lon="3.11248">
        <ele>3.2</ele>
      </trkpt>
      <trkpt lat="43.1183" lon="3.11259">
        <ele>2.8</ele>
      </trkpt>
      <trkpt lat="43.11804" lon="3.11266">
        <ele>2.3</ele>
      </trkpt>
      <trkpt lat="43.11786" lon="3.11267">
        <ele>2.1</ele>
      </trkpt>
      <trkpt lat="43.11785" lon="3.11262">
        <ele>2.2</ele>
      </trkpt>
      <trkpt lat="43.11782" lon="3.11261">
        <ele>2.2</ele>
      </trkpt>
      <trkpt lat="43.1178" lon="3.11262">
        <ele>2.2</ele>
      </trkpt>
      <trkpt lat="43.11779" lon="3.11267">
        <ele>2.1</ele>
      </trkpt>
      <trkpt lat="43.11732" lon="3.11271">
        <ele>2</ele>
      </trkpt>
      <trkpt lat="43.11728" lon="3.1126">
        <ele>2</ele>
      </trkpt>
      <trkpt lat="43.11721" lon="3.11253">
        <ele>2</ele>
      </trkpt>
      <trkpt lat="43.11718" lon="3.11243">
        <ele>2.1</ele>
      </trkpt>
      <trkpt lat="43.11701" lon="3.11155">
        <ele>2.6</ele>
      </trkpt>
      <trkpt lat="43.11684" lon="3.11098">
        <ele>3</ele>
      </trkpt>
      <trkpt lat="43.1166" lon="3.1104">
        <ele>3.1</ele>
      </trkpt>
      <trkpt lat="43.11657" lon="3.11032">
        <ele>3.1</ele>
      </trkpt>
      <trkpt lat="43.11659" lon="3.11029">
        <ele>3.1</ele>
      </trkpt>
      <trkpt lat="43.11657" lon="3.11012">
        <ele>3.1</ele>
      </trkpt>
      <trkpt lat="43.11655" lon="3.11009">
        <ele>3.1</ele>
      </trkpt>
      <trkpt lat="43.11649" lon="3.11005">
        <ele>3.2</ele>
      </trkpt>
      <trkpt lat="43.11645" lon="3.11005">
        <ele>3.3</ele>
      </trkpt>
      <trkpt lat="43.11636" lon="3.10991">
        <ele>3.4</ele>
      </trkpt>
      <trkpt lat="43.11571" lon="3.10849">
        <ele>3.2</ele>
      </trkpt>
      <trkpt lat="43.11512" lon="3.10725">
        <ele>2.1</ele>
      </trkpt>
      <trkpt lat="43.11494" lon="3.10684">
        <ele>2.1</ele>
      </trkpt>
      <trkpt lat="43.11497" lon="3.10677">
        <ele>2</ele>
      </trkpt>
      <trkpt lat="43.11497" lon="3.1066">
        <ele>2</ele>
      </trkpt>
      <trkpt lat="43.11494" lon="3.10655">
        <ele>2.1</ele>
      </trkpt>
      <trkpt lat="43.11488" lon="3.10648">
        <ele>2.1</ele>
      </trkpt>
      <trkpt lat="43.11484" lon="3.10646">
        <ele>2.2</ele>
      </trkpt>
      <trkpt lat="43.11476" lon="3.10647">
        <ele>2.3</ele>
      </trkpt>
      <trkpt lat="43.11472" lon="3.1065">
        <ele>2.3</ele>
      </trkpt>
      <trkpt lat="43.11412" lon="3.10519">
        <ele>3.8</ele>
      </trkpt>
      <trkpt lat="43.114" lon="3.10487">
        <ele>4</ele>
      </trkpt>
      <trkpt lat="43.11392" lon="3.10449">
        <ele>4.2</ele>
      </trkpt>
      <trkpt lat="43.11401" lon="3.10446">
        <ele>4.1</ele>
      </trkpt>
      <trkpt lat="43.11405" lon="3.10442">
        <ele>4.1</ele>
      </trkpt>
      <trkpt lat="43.11412" lon="3.10427">
        <ele>4.1</ele>
      </trkpt>
      <trkpt lat="43.11413" lon="3.10419">
        <ele>4</ele>
      </trkpt>
      <trkpt lat="43.11412" lon="3.10409">
        <ele>4</ele>
      </trkpt>
      <trkpt lat="43.11404" lon="3.10396">
        <ele>4.1</ele>
      </trkpt>
      <trkpt lat="43.11399" lon="3.10392">
        <ele>4.1</ele>
      </trkpt>
      <trkpt lat="43.11428" lon="3.10263">
        <ele>4.1</ele>
      </trkpt>
      <trkpt lat="43.11455" lon="3.10133">
        <ele>5.6</ele>
      </trkpt>
      <trkpt lat="43.11459" lon="3.1011">
        <ele>5.5</ele>
      </trkpt>
      <trkpt lat="43.11465" lon="3.10053">
        <ele>5.3</ele>
      </trkpt>
      <trkpt lat="43.11462" lon="3.10007">
        <ele>5.7</ele>
      </trkpt>
      <trkpt lat="43.11458" lon="3.09983">
        <ele>5.9</ele>
      </trkpt>
      <trkpt lat="43.11428" lon="3.09868">
        <ele>5.3</ele>
      </trkpt>
      <trkpt lat="43.11425" lon="3.09845">
        <ele>4.4</ele>
      </trkpt>
      <trkpt lat="43.11426" lon="3.09835">
        <ele>4</ele>
      </trkpt>
      <trkpt lat="43.11438" lon="3.09794">
        <ele>3.6</ele>
      </trkpt>
      <trkpt lat="43.11455" lon="3.09745">
        <ele>3</ele>
      </trkpt>
      <trkpt lat="43.11472" lon="3.09709">
        <ele>2</ele>
      </trkpt>
      <trkpt lat="43.11492" lon="3.09683">
        <ele>1.3</ele>
      </trkpt>
      <trkpt lat="43.11507" lon="3.09658">
        <ele>1.2</ele>
      </trkpt>
      <trkpt lat="43.11556" lon="3.09522">
        <ele>1.7</ele>
      </trkpt>
      <trkpt lat="43.11558" lon="3.09503">
        <ele>1.4</ele>
      </trkpt>
      <trkpt lat="43.11556" lon="3.09475">
        <ele>1.3</ele>
      </trkpt>
      <trkpt lat="43.11551" lon="3.09464">
        <ele>1.4</ele>
      </trkpt>
      <trkpt lat="43.11538" lon="3.09443">
        <ele>1.5</ele>
      </trkpt>
      <trkpt lat="43.11485" lon="3.0937">
        <ele>2.5</ele>
      </trkpt>
      <trkpt lat="43.11486" lon="3.09367">
        <ele>2.5</ele>
      </trkpt>
      <trkpt lat="43.11485" lon="3.09362">
        <ele>2.5</ele>
      </trkpt>
      <trkpt lat="43.11482" lon="3.09361">
        <ele>2.5</ele>
      </trkpt>
      <trkpt lat="43.11459" lon="3.09335">
        <ele>2</ele>
      </trkpt>
      <trkpt lat="43.11447" lon="3.09319">
        <ele>2.1</ele>
      </trkpt>
      <trkpt lat="43.11438" lon="3.09305">
        <ele>2.4</ele>
      </trkpt>
      <trkpt lat="43.11419" lon="3.09272">
        <ele>3.2</ele>
      </trkpt>
      <trkpt lat="43.11436" lon="3.09256">
        <ele>3.8</ele>
      </trkpt>
      <trkpt lat="43.11482" lon="3.09189">
        <ele>2.7</ele>
      </trkpt>
      <trkpt lat="43.11499" lon="3.0916">
        <ele>2.01</ele>
      </trkpt>
      <trkpt lat="43.11532" lon="3.09109">
        <ele>1.62</ele>
      </trkpt>
      <trkpt lat="43.11597" lon="3.09">
        <ele>1</ele>
      </trkpt>
      <trkpt lat="43.11659" lon="3.08894">
        <ele>1.7</ele>
      </trkpt>
      <trkpt lat="43.11665" lon="3.08903">
        <ele>1.8</ele>
      </trkpt>
      <trkpt lat="43.1168" lon="3.08913">
        <ele>2.1</ele>
      </trkpt>
      <trkpt lat="43.11693" lon="3.08915">
        <ele>2.3</ele>
      </trkpt>
      <trkpt lat="43.11713" lon="3.08908">
        <ele>2.5</ele>
      </trkpt>
      <trkpt lat="43.11722" lon="3.08898">
        <ele>2.4</ele>
      </trkpt>
      <trkpt lat="43.11727" lon="3.08888">
        <ele>2.4</ele>
      </trkpt>
      <trkpt lat="43.1173" lon="3.08874">
        <ele>2.2</ele>
      </trkpt>
      <trkpt lat="43.1173" lon="3.08857">
        <ele>2.1</ele>
      </trkpt>
      <trkpt lat="43.11724" lon="3.08832">
        <ele>1.7</ele>
      </trkpt>
      <trkpt lat="43.1172" lon="3.08823">
        <ele>1.7</ele>
      </trkpt>
      <trkpt lat="43.11713" lon="3.08815">
        <ele>1.7</ele>
      </trkpt>
      <trkpt lat="43.11696" lon="3.08807">
        <ele>1.5</ele>
      </trkpt>
      <trkpt lat="43.11686" lon="3.08807">
        <ele>1.3</ele>
      </trkpt>
      <trkpt lat="43.11674" lon="3.08813">
        <ele>1.1</ele>
      </trkpt>
      <trkpt lat="43.11682" lon="3.08672">
        <ele>2.9</ele>
      </trkpt>
      <trkpt lat="43.11683" lon="3.08595">
        <ele>2.1</ele>
      </trkpt>
      <trkpt lat="43.11686" lon="3.08516">
        <ele>1.2</ele>
      </trkpt>
      <trkpt lat="43.11696" lon="3.08485">
        <ele>1</ele>
      </trkpt>
      <trkpt lat="43.11728" lon="3.08412">
        <ele>2</ele>
      </trkpt>
      <trkpt lat="43.11742" lon="3.08369">
        <ele>2</ele>
      </trkpt>
      <trkpt lat="43.11744" lon="3.08303">
        <ele>2</ele>
      </trkpt>
      <trkpt lat="43.11734" lon="3.08277">
        <ele>2</ele>
      </trkpt>
      <trkpt lat="43.1173" lon="3.08202">
        <ele>1.4</ele>
      </trkpt>
      <trkpt lat="43.11721" lon="3.08155">
        <ele>1.7</ele>
      </trkpt>
      <trkpt lat="43.11715" lon="3.08112">
        <ele>4.1</ele>
      </trkpt>
      <trkpt lat="43.11721" lon="3.0806">
        <ele>9.5</ele>
      </trkpt>
      <trkpt lat="43.11718" lon="3.08026">
        <ele>14.2</ele>
      </trkpt>
      <trkpt lat="43.11697" lon="3.07967">
        <ele>15.6</ele>
      </trkpt>
      <trkpt lat="43.11691" lon="3.0794">
        <ele>12.6</ele>
      </trkpt>
      <trkpt lat="43.11682" lon="3.07922">
        <ele>9.1</ele>
      </trkpt>
      <trkpt lat="43.11669" lon="3.07902">
        <ele>6.1</ele>
      </trkpt>
      <trkpt lat="43.11668" lon="3.07868">
        <ele>7.1</ele>
      </trkpt>
      <trkpt lat="43.11672" lon="3.07838">
        <ele>9.1</ele>
      </trkpt>
      <trkpt lat="43.11663" lon="3.07785">
        <ele>8.6</ele>
      </trkpt>
      <trkpt lat="43.11648" lon="3.07721">
        <ele>9</ele>
      </trkpt>
      <trkpt lat="43.11654" lon="3.07677">
        <ele>9</ele>
      </trkpt>
      <trkpt lat="43.11648" lon="3.07617">
        <ele>6</ele>
      </trkpt>
      <trkpt lat="43.11659" lon="3.0755">
        <ele>4.4</ele>
      </trkpt>
      <trkpt lat="43.11665" lon="3.07497">
        <ele>4.9</ele>
      </trkpt>
      <trkpt lat="43.11669" lon="3.07413">
        <ele>2</ele>
      </trkpt>
      <trkpt lat="43.11676" lon="3.07335">
        <ele>1.1</ele>
      </trkpt>
      <trkpt lat="43.11676" lon="3.07315">
        <ele>1.1</ele>
      </trkpt>
      <trkpt lat="43.11669" lon="3.07276">
        <ele>1.1</ele>
      </trkpt>
      <trkpt lat="43.11657" lon="3.07239">
        <ele>1.4</ele>
      </trkpt>
      <trkpt lat="43.11644" lon="3.0721">
        <ele>2.5</ele>
      </trkpt>
      <trkpt lat="43.11637" lon="3.07185">
        <ele>3.3</ele>
      </trkpt>
      <trkpt lat="43.1162" lon="3.07166">
        <ele>4</ele>
      </trkpt>
      <trkpt lat="43.11602" lon="3.07154">
        <ele>3.8</ele>
      </trkpt>
      <trkpt lat="43.1153" lon="3.0712">
        <ele>1.6</ele>
      </trkpt>
      <trkpt lat="43.1151" lon="3.07108">
        <ele>1.7</ele>
      </trkpt>
      <trkpt lat="43.11409" lon="3.07025">
        <ele>5.71</ele>
      </trkpt>
      <trkpt lat="43.11389" lon="3.07002">
        <ele>5.01</ele>
      </trkpt>
      <trkpt lat="43.11366" lon="3.06974">
        <ele>5.5</ele>
      </trkpt>
      <trkpt lat="43.11266" lon="3.06814">
        <ele>3.9</ele>
      </trkpt>
      <trkpt lat="43.11258" lon="3.06812">
        <ele>3.4</ele>
      </trkpt>
      <trkpt lat="43.11243" lon="3.06787">
        <ele>3.5</ele>
      </trkpt>
      <trkpt lat="43.11191" lon="3.06713">
        <ele>4.5</ele>
      </trkpt>
      <trkpt lat="43.11131" lon="3.06628">
        <ele>3.1</ele>
      </trkpt>
      <trkpt lat="43.11117" lon="3.06596">
        <ele>3.2</ele>
      </trkpt>
      <trkpt lat="43.11118" lon="3.06584">
        <ele>3.4</ele>
      </trkpt>
      <trkpt lat="43.11123" lon="3.0654">
        <ele>3</ele>
      </trkpt>
      <trkpt lat="43.11129" lon="3.0651">
        <ele>2.7</ele>
      </trkpt>
      <trkpt lat="43.11143" lon="3.0647">
        <ele>2.5</ele>
      </trkpt>
      <trkpt lat="43.11167" lon="3.06428">
        <ele>2.1</ele>
      </trkpt>
      <trkpt lat="43.1121" lon="3.06328">
        <ele>2</ele>
      </trkpt>
      <trkpt lat="43.11217" lon="3.06313">
        <ele>2.1</ele>
      </trkpt>
      <trkpt lat="43.11372" lon="3.05985">
        <ele>2.3</ele>
      </trkpt>
      <trkpt lat="43.11449" lon="3.05826">
        <ele>2.8</ele>
      </trkpt>
      <trkpt lat="43.11622" lon="3.05454">
        <ele>1</ele>
      </trkpt>
      <trkpt lat="43.11645" lon="3.05418">
        <ele>1</ele>
      </trkpt>
      <trkpt lat="43.11669" lon="3.05386">
        <ele>1</ele>
      </trkpt>
      <trkpt lat="43.11699" lon="3.0536">
        <ele>1</ele>
      </trkpt>
      <trkpt lat="43.11739" lon="3.05317">
        <ele>1</ele>
      </trkpt>
      <trkpt lat="43.11758" lon="3.05294">
        <ele>1.2</ele>
      </trkpt>
      <trkpt lat="43.11822" lon="3.05239">
        <ele>2.6</ele>
      </trkpt>
      <trkpt lat="43.119" lon="3.05165">
        <ele>2</ele>
      </trkpt>
      <trkpt lat="43.12372" lon="3.04759">
        <ele>1.7</ele>
      </trkpt>
      <trkpt lat="43.12401" lon="3.04735">
        <ele>1.3</ele>
      </trkpt>
      <trkpt lat="43.12429" lon="3.04715">
        <ele>1.8</ele>
      </trkpt>
      <trkpt lat="43.12458" lon="3.04698">
        <ele>2.7</ele>
      </trkpt>
      <trkpt lat="43.12477" lon="3.04693">
        <ele>3.1</ele>
      </trkpt>
      <trkpt lat="43.12508" lon="3.04693">
        <ele>3.6</ele>
      </trkpt>
      <trkpt lat="43.12599" lon="3.04686">
        <ele>3</ele>
      </trkpt>
      <trkpt lat="43.12676" lon="3.04687">
        <ele>1.4</ele>
      </trkpt>
      <trkpt lat="43.12823" lon="3.04683">
        <ele>2.9</ele>
      </trkpt>
      <trkpt lat="43.12861" lon="3.04685">
        <ele>2.7</ele>
      </trkpt>
      <trkpt lat="43.12878" lon="3.04691">
        <ele>2.6</ele>
      </trkpt>
      <trkpt lat="43.1288" lon="3.04677">
        <ele>2.5</ele>
      </trkpt>
      <trkpt lat="43.12883" lon="3.04657">
        <ele>2.4</ele>
      </trkpt>
      <trkpt lat="43.12885" lon="3.04644">
        <ele>2.4</ele>
      </trkpt>
      <trkpt lat="43.12935" lon="3.04269">
        <ele>3.5</ele>
      </trkpt>
      <trkpt lat="43.12953" lon="3.04137">
        <ele>3</ele>
      </trkpt>
      <trkpt lat="43.12959" lon="3.04087">
        <ele>3</ele>
      </trkpt>
      <trkpt lat="43.1296" lon="3.04083">
        <ele>3</ele>
      </trkpt>
      <trkpt lat="43.13048" lon="3.03386">
        <ele>3.7</ele>
      </trkpt>
      <trkpt lat="43.13062" lon="3.03385">
        <ele>3.8</ele>
      </trkpt>
      <trkpt lat="43.13183" lon="3.03406">
        <ele>4</ele>
      </trkpt>
      <trkpt lat="43.13198" lon="3.03407">
        <ele>4</ele>
      </trkpt>
      <trkpt lat="43.13213" lon="3.03407">
        <ele>4.1</ele>
      </trkpt>
      <trkpt lat="43.13212" lon="3.03395">
        <ele>4.1</ele>
      </trkpt>
      <trkpt lat="43.13208" lon="3.03374">
        <ele>4.3</ele>
      </trkpt>
      <trkpt lat="43.13212" lon="3.03292">
        <ele>5.3</ele>
      </trkpt>
      <trkpt lat="43.13214" lon="3.03284">
        <ele>5.4</ele>
      </trkpt>
      <trkpt lat="43.13229" lon="3.03263">
        <ele>5.8</ele>
      </trkpt>
      <trkpt lat="43.13232" lon="3.03255">
        <ele>5.9</ele>
      </trkpt>
      <trkpt lat="43.13233" lon="3.03233">
        <ele>6</ele>
      </trkpt>
      <trkpt lat="43.13235" lon="3.0322">
        <ele>5.9</ele>
      </trkpt>
      <trkpt lat="43.13235" lon="3.03208">
        <ele>5.9</ele>
      </trkpt>
      <trkpt lat="43.13253" lon="3.03202">
        <ele>5.9</ele>
      </trkpt>
      <trkpt lat="43.13269" lon="3.03193">
        <ele>5.5</ele>
      </trkpt>
      <trkpt lat="43.13318" lon="3.03159">
        <ele>4.3</ele>
      </trkpt>
      <trkpt lat="43.13344" lon="3.03147">
        <ele>3.8</ele>
      </trkpt>
      <trkpt lat="43.1336" lon="3.03144">
        <ele>3.8</ele>
      </trkpt>
      <trkpt lat="43.13443" lon="3.0314">
        <ele>3.8</ele>
      </trkpt>
      <trkpt lat="43.13513" lon="3.03129">
        <ele>3.4</ele>
      </trkpt>
      <trkpt lat="43.13645" lon="3.03132">
        <ele>3.4</ele>
      </trkpt>
      <trkpt lat="43.13711" lon="3.03136">
        <ele>3</ele>
      </trkpt>
      <trkpt lat="43.13778" lon="3.03141">
        <ele>2.9</ele>
      </trkpt>
      <trkpt lat="43.13806" lon="3.03138">
        <ele>3.5</ele>
      </trkpt>
      <trkpt lat="43.1383" lon="3.03125">
        <ele>3.9</ele>
      </trkpt>
      <trkpt lat="43.13838" lon="3.03119">
        <ele>4</ele>
      </trkpt>
      <trkpt lat="43.13882" lon="3.03073">
        <ele>4.1</ele>
      </trkpt>
      <trkpt lat="43.13898" lon="3.03061">
        <ele>4.2</ele>
      </trkpt>
      <trkpt lat="43.13914" lon="3.03056">
        <ele>4.3</ele>
      </trkpt>
      <trkpt lat="43.1395" lon="3.03051">
        <ele>4.1</ele>
      </trkpt>
      <trkpt lat="43.14034" lon="3.03052">
        <ele>3.8</ele>
      </trkpt>
      <trkpt lat="43.14046" lon="3.0305">
        <ele>3.8</ele>
      </trkpt>
      <trkpt lat="43.14061" lon="3.03046">
        <ele>3.9</ele>
      </trkpt>
      <trkpt lat="43.14111" lon="3.03025">
        <ele>4</ele>
      </trkpt>
      <trkpt lat="43.1414" lon="3.03016">
        <ele>4</ele>
      </trkpt>
      <trkpt lat="43.14159" lon="3.03015">
        <ele>4</ele>
      </trkpt>
      <trkpt lat="43.14223" lon="3.03023">
        <ele>3.3</ele>
      </trkpt>
      <trkpt lat="43.14251" lon="3.0302">
        <ele>3</ele>
      </trkpt>
      <trkpt lat="43.14282" lon="3.03007">
        <ele>3.4</ele>
      </trkpt>
      <trkpt lat="43.14336" lon="3.02975">
        <ele>4</ele>
      </trkpt>
      <trkpt lat="43.14388" lon="3.02956">
        <ele>4.3</ele>
      </trkpt>
      <trkpt lat="43.14421" lon="3.02936">
        <ele>4.2</ele>
      </trkpt>
      <trkpt lat="43.14447" lon="3.02916">
        <ele>4</ele>
      </trkpt>
      <trkpt lat="43.14499" lon="3.02871">
        <ele>3.5</ele>
      </trkpt>
      <trkpt lat="43.14527" lon="3.02856">
        <ele>3.5</ele>
      </trkpt>
      <trkpt lat="43.14545" lon="3.02849">
        <ele>3.6</ele>
      </trkpt>
      <trkpt lat="43.14567" lon="3.02843">
        <ele>3.8</ele>
      </trkpt>
      <trkpt lat="43.14634" lon="3.02839">
        <ele>4</ele>
      </trkpt>
      <trkpt lat="43.14692" lon="3.02825">
        <ele>4.2</ele>
      </trkpt>
      <trkpt lat="43.14713" lon="3.02825">
        <ele>4.1</ele>
      </trkpt>
      <trkpt lat="43.14731" lon="3.02831">
        <ele>4</ele>
      </trkpt>
      <trkpt lat="43.1476" lon="3.02852">
        <ele>3.7</ele>
      </trkpt>
      <trkpt lat="43.14825" lon="3.02915">
        <ele>2.1</ele>
      </trkpt>
      <trkpt lat="43.14847" lon="3.0294">
        <ele>2.4</ele>
      </trkpt>
      <trkpt lat="43.14935" lon="3.03023">
        <ele>3.2</ele>
      </trkpt>
      <trkpt lat="43.14976" lon="3.03057">
        <ele>3.7</ele>
      </trkpt>
      <trkpt lat="43.15002" lon="3.03085">
        <ele>4</ele>
      </trkpt>
      <trkpt lat="43.15017" lon="3.03097">
        <ele>3.7</ele>
      </trkpt>
      <trkpt lat="43.15083" lon="3.03131">
        <ele>4</ele>
      </trkpt>
      <trkpt lat="43.15094" lon="3.03139">
        <ele>4</ele>
      </trkpt>
      <trkpt lat="43.15115" lon="3.03158">
        <ele>4</ele>
      </trkpt>
      <trkpt lat="43.15171" lon="3.03224">
        <ele>4</ele>
      </trkpt>
      <trkpt lat="43.15236" lon="3.03321">
        <ele>3.3</ele>
      </trkpt>
      <trkpt lat="43.15263" lon="3.03356">
        <ele>3.2</ele>
      </trkpt>
      <trkpt lat="43.15278" lon="3.03371">
        <ele>3.3</ele>
      </trkpt>
      <trkpt lat="43.15305" lon="3.03393">
        <ele>3.2</ele>
      </trkpt>
      <trkpt lat="43.15323" lon="3.03405">
        <ele>3.1</ele>
      </trkpt>
      <trkpt lat="43.15476" lon="3.03474">
        <ele>2.3</ele>
      </trkpt>
      <trkpt lat="43.15555" lon="3.03528">
        <ele>4.1</ele>
      </trkpt>
      <trkpt lat="43.15585" lon="3.03558">
        <ele>4.3</ele>
      </trkpt>
      <trkpt lat="43.15608" lon="3.03584">
        <ele>4</ele>
      </trkpt>
      <trkpt lat="43.1564" lon="3.03615">
        <ele>4</ele>
      </trkpt>
      <trkpt lat="43.15685" lon="3.03667">
        <ele>4.2</ele>
      </trkpt>
      <trkpt lat="43.15697" lon="3.03676">
        <ele>4.4</ele>
      </trkpt>
      <trkpt lat="43.15726" lon="3.03686">
        <ele>5</ele>
      </trkpt>
      <trkpt lat="43.15815" lon="3.03709">
        <ele>5.2</ele>
      </trkpt>
      <trkpt lat="43.15848" lon="3.03723">
        <ele>5</ele>
      </trkpt>
      <trkpt lat="43.15931" lon="3.03739">
        <ele>4.8</ele>
      </trkpt>
      <trkpt lat="43.15951" lon="3.03747">
        <ele>4.6</ele>
      </trkpt>
      <trkpt lat="43.15966" lon="3.03754">
        <ele>4.4</ele>
      </trkpt>
      <trkpt lat="43.16122" lon="3.03855">
        <ele>4</ele>
      </trkpt>
      <trkpt lat="43.16199" lon="3.03898">
        <ele>4</ele>
      </trkpt>
      <trkpt lat="43.16212" lon="3.03903">
        <ele>4</ele>
      </trkpt>
      <trkpt lat="43.16239" lon="3.03907">
        <ele>4</ele>
      </trkpt>
      <trkpt lat="43.16287" lon="3.03902">
        <ele>4</ele>
      </trkpt>
      <trkpt lat="43.16354" lon="3.0389">
        <ele>4.1</ele>
      </trkpt>
      <trkpt lat="43.16363" lon="3.03887">
        <ele>4.1</ele>
      </trkpt>
      <trkpt lat="43.16383" lon="3.03874">
        <ele>4.3</ele>
      </trkpt>
      <trkpt lat="43.16399" lon="3.03855">
        <ele>4.6</ele>
      </trkpt>
      <trkpt lat="43.16412" lon="3.03836">
        <ele>4.9</ele>
      </trkpt>
      <trkpt lat="43.16517" lon="3.0369">
        <ele>5.7</ele>
      </trkpt>
      <trkpt lat="43.16635" lon="3.03537">
        <ele>6.4</ele>
      </trkpt>
      <trkpt lat="43.16644" lon="3.03528">
        <ele>6.2</ele>
      </trkpt>
      <trkpt lat="43.16684" lon="3.03484">
        <ele>6.1</ele>
      </trkpt>
      <trkpt lat="43.16765" lon="3.03414">
        <ele>5.6</ele>
      </trkpt>
      <trkpt lat="43.17212" lon="3.02998">
        <ele>4.9</ele>
      </trkpt>
      <trkpt lat="43.17391" lon="3.02834">
        <ele>4.6</ele>
      </trkpt>
      <trkpt lat="43.17404" lon="3.02819">
        <ele>4.7</ele>
      </trkpt>
      <trkpt lat="43.17418" lon="3.02798">
        <ele>5.3</ele>
      </trkpt>
      <trkpt lat="43.17449" lon="3.02741">
        <ele>6.5</ele>
      </trkpt>
      <trkpt lat="43.17484" lon="3.02663">
        <ele>5.2</ele>
      </trkpt>
      <trkpt lat="43.17727" lon="3.02004">
        <ele>6.5</ele>
      </trkpt>
      <trkpt lat="43.17819" lon="3.01754">
        <ele>7.7</ele>
      </trkpt>
      <trkpt lat="43.1783" lon="3.01725">
        <ele>7.1</ele>
      </trkpt>
      <trkpt lat="43.17838" lon="3.01699">
        <ele>7</ele>
      </trkpt>
      <trkpt lat="43.17859" lon="3.01643">
        <ele>7.4</ele>
      </trkpt>
      <trkpt lat="43.17875" lon="3.0158">
        <ele>7.9</ele>
      </trkpt>
      <trkpt lat="43.17894" lon="3.01523">
        <ele>6.6</ele>
      </trkpt>
      <trkpt lat="43.17895" lon="3.01515">
        <ele>6.5</ele>
      </trkpt>
      <trkpt lat="43.179" lon="3.01504">
        <ele>6.3</ele>
      </trkpt>
      <trkpt lat="43.17911" lon="3.01481">
        <ele>6.3</ele>
      </trkpt>
      <trkpt lat="43.17925" lon="3.01459">
        <ele>6.7</ele>
      </trkpt>
      <trkpt lat="43.17969" lon="3.01404">
        <ele>8.4</ele>
      </trkpt>
      <trkpt lat="43.17985" lon="3.01376">
        <ele>8.8</ele>
      </trkpt>
      <trkpt lat="43.17988" lon="3.01369">
        <ele>8.9</ele>
      </trkpt>
      <trkpt lat="43.17993" lon="3.01374">
        <ele>8.9</ele>
      </trkpt>
      <trkpt lat="43.18005" lon="3.01388">
        <ele>8.9</ele>
      </trkpt>
      <trkpt lat="43.18013" lon="3.01411">
        <ele>8.8</ele>
      </trkpt>
      <trkpt lat="43.18021" lon="3.01421">
        <ele>8.7</ele>
      </trkpt>
      <trkpt lat="43.18019" lon="3.01413">
        <ele>8.8</ele>
      </trkpt>
      <trkpt lat="43.18016" lon="3.01399">
        <ele>8.8</ele>
      </trkpt>
      <trkpt lat="43.18015" lon="3.01389">
        <ele>8.8</ele>
      </trkpt>
      <trkpt lat="43.18015" lon="3.01378">
        <ele>8.8</ele>
      </trkpt>
      <trkpt lat="43.18019" lon="3.01375">
        <ele>8.8</ele>
      </trkpt>
      <trkpt lat="43.18023" lon="3.01371">
        <ele>8.7</ele>
      </trkpt>
      <trkpt lat="43.18026" lon="3.01365">
        <ele>8.7</ele>
      </trkpt>
      <trkpt lat="43.18035" lon="3.0136">
        <ele>8.6</ele>
      </trkpt>
      <trkpt lat="43.18039" lon="3.01361">
        <ele>8.5</ele>
      </trkpt>
      <trkpt lat="43.18044" lon="3.01362">
        <ele>8.5</ele>
      </trkpt>
      <trkpt lat="43.18045" lon="3.01363">
        <ele>8.5</ele>
      </trkpt>
      <trkpt lat="43.18048" lon="3.01367">
        <ele>8.4</ele>
      </trkpt>
      <trkpt lat="43.18053" lon="3.01357">
        <ele>8.4</ele>
      </trkpt>
      <trkpt lat="43.18076" lon="3.01304">
        <ele>8.4</ele>
      </trkpt>
      <trkpt lat="43.18092" lon="3.01261">
        <ele>8.8</ele>
      </trkpt>
      <trkpt lat="43.18093" lon="3.01258">
        <ele>8.8</ele>
      </trkpt>
      <trkpt lat="43.181" lon="3.01263">
        <ele>8.6</ele>
      </trkpt>
      <trkpt lat="43.18168" lon="3.01312">
        <ele>7.3</ele>
      </trkpt>
      <trkpt lat="43.18188" lon="3.01266">
        <ele>7.6</ele>
      </trkpt>
      <trkpt lat="43.18208" lon="3.01216">
        <ele>7.9</ele>
      </trkpt>
      <trkpt lat="43.18228" lon="3.01167">
        <ele>8.3</ele>
      </trkpt>
      <trkpt lat="43.18248" lon="3.0112">
        <ele>9.1</ele>
      </trkpt>
      <trkpt lat="43.18267" lon="3.01072">
        <ele>10.7</ele>
      </trkpt>
      <trkpt lat="43.18287" lon="3.01023">
        <ele>12</ele>
      </trkpt>
      <trkpt lat="43.18327" lon="3.00926">
        <ele>13.7</ele>
      </trkpt>
      <trkpt lat="43.18329" lon="3.0092">
        <ele>13.9</ele>
      </trkpt>
      <trkpt lat="43.18361" lon="3.00841">
        <ele>15.2</ele>
      </trkpt>
      <trkpt lat="43.18366" lon="3.0083">
        <ele>15.4</ele>
      </trkpt>
      <trkpt lat="43.1837" lon="3.00818">
        <ele>15.7</ele>
      </trkpt>
      <trkpt lat="43.18382" lon="3.00792">
        <ele>16.4</ele>
      </trkpt>
      <trkpt lat="43.18407" lon="3.00728">
        <ele>18.3</ele>
      </trkpt>
      <trkpt lat="43.18429" lon="3.00741">
        <ele>17.9</ele>
      </trkpt>
      <trkpt lat="43.18445" lon="3.00749">
        <ele>17.3</ele>
      </trkpt>
      <trkpt lat="43.1845" lon="3.00757">
        <ele>17.1</ele>
      </trkpt>
      <trkpt lat="43.18463" lon="3.00763">
        <ele>16.8</ele>
      </trkpt>
      <trkpt lat="43.18466" lon="3.00764">
        <ele>16.8</ele>
      </trkpt>
      <trkpt lat="43.18473" lon="3.00768">
        <ele>16.7</ele>
      </trkpt>
      <trkpt lat="43.18485" lon="3.00779">
        <ele>16.5</ele>
      </trkpt>
      <trkpt lat="43.18494" lon="3.00786">
        <ele>16.5</ele>
      </trkpt>
      <trkpt lat="43.18514" lon="3.00798">
        <ele>17</ele>
      </trkpt>
      <trkpt lat="43.1854" lon="3.00808">
        <ele>18</ele>
      </trkpt>
      <trkpt lat="43.18558" lon="3.00816">
        <ele>18.7</ele>
      </trkpt>
      <trkpt lat="43.18587" lon="3.00836">
        <ele>19.9</ele>
      </trkpt>
      <trkpt lat="43.18589" lon="3.00823">
        <ele>19.7</ele>
      </trkpt>
      <trkpt lat="43.1863" lon="3.00747">
        <ele>18.6</ele>
      </trkpt>
      <trkpt lat="43.1864" lon="3.00711">
        <ele>19.3</ele>
      </trkpt>
      <trkpt lat="43.18647" lon="3.00686">
        <ele>19.7</ele>
      </trkpt>
      <trkpt lat="43.18648" lon="3.00683">
        <ele>19.8</ele>
      </trkpt>
      <trkpt lat="43.18659" lon="3.00683">
        <ele>19.8</ele>
      </trkpt>
      <trkpt lat="43.1869" lon="3.00709">
        <ele>19.2</ele>
      </trkpt>
      <trkpt lat="43.18709" lon="3.00722">
        <ele>18.8</ele>
      </trkpt>
      <trkpt lat="43.18712" lon="3.00716">
        <ele>18.9</ele>
      </trkpt>
      <trkpt lat="43.18714" lon="3.00711">
        <ele>18.9</ele>
      </trkpt>
      <trkpt lat="43.18715" lon="3.00709">
        <ele>18.9</ele>
      </trkpt>
      <trkpt lat="43.18728" lon="3.00673">
        <ele>19.2</ele>
      </trkpt>
      <trkpt lat="43.1874" lon="3.00646">
        <ele>18.7</ele>
      </trkpt>
      <trkpt lat="43.18704" lon="3.00572">
        <ele>18.2</ele>
      </trkpt>
      <trkpt lat="43.18701" lon="3.00566">
        <ele>18.4</ele>
      </trkpt>
      <trkpt lat="43.18724" lon="3.00543">
        <ele>18.1</ele>
      </trkpt>
      <trkpt lat="43.18733" lon="3.00534">
        <ele>18</ele>
      </trkpt>
      <trkpt lat="43.18744" lon="3.00525">
        <ele>17.8</ele>
      </trkpt>
      <trkpt lat="43.18767" lon="3.00501">
        <ele>17.6</ele>
      </trkpt>
      <trkpt lat="43.18776" lon="3.00491">
        <ele>17.3</ele>
      </trkpt>
      <trkpt lat="43.18785" lon="3.00483">
        <ele>17</ele>
      </trkpt>
      <trkpt lat="43.18813" lon="3.00456">
        <ele>16</ele>
      </trkpt>
      <trkpt lat="43.18838" lon="3.00433">
        <ele>15.1</ele>
      </trkpt>
      <trkpt lat="43.18844" lon="3.00428">
        <ele>15</ele>
      </trkpt>
      <trkpt lat="43.18832" lon="3.00415">
        <ele>15</ele>
      </trkpt>
      <trkpt lat="43.18816" lon="3.00393">
        <ele>15</ele>
      </trkpt>
      <trkpt lat="43.18794" lon="3.00349">
        <ele>14.4</ele>
      </trkpt>
      <trkpt lat="43.1879" lon="3.00352">
        <ele>14.5</ele>
      </trkpt>
      <trkpt lat="43.18789" lon="3.00353">
        <ele>14.5</ele>
      </trkpt>
      <trkpt lat="43.18787" lon="3.00355">
        <ele>14.5</ele>
      </trkpt>
      <trkpt lat="43.18783" lon="3.00344">
        <ele>14.3</ele>
      </trkpt>
      <trkpt lat="43.18773" lon="3.00356">
        <ele>14.7</ele>
      </trkpt>
      <trkpt lat="43.18772" lon="3.00353">
        <ele>14.6</ele>
      </trkpt>
      <trkpt lat="43.18771" lon="3.00351">
        <ele>14.5</ele>
      </trkpt>
      <trkpt lat="43.18769" lon="3.00347">
        <ele>14.4</ele>
      </trkpt>
      <trkpt lat="43.18774" lon="3.0034">
        <ele>14.2</ele>
      </trkpt>
      <trkpt lat="43.18776" lon="3.00332">
        <ele>14</ele>
      </trkpt>
      <trkpt lat="43.18776" lon="3.00324">
        <ele>13.9</ele>
      </trkpt>
      <trkpt lat="43.18766" lon="3.00285">
        <ele>13.4</ele>
      </trkpt>
      <trkpt lat="43.18751" lon="3.00242">
        <ele>13.1</ele>
      </trkpt>
    </trkseg>
  </trk>
</gpx>